<?xml version='1.0' encoding='UTF-8'?><gpx version="1.1" creator="JPX - https://github.com/jenetics/jpx" xmlns="http://www.topografix.com/GPX/1/1"><trk><trkseg><trkpt lat="45.90856956804152" lon="12.325950736952757"><ele>69.33333333333333</ele><time>2026-04-03T03:00:35.146Z</time></trkpt><trkpt lat="45.9083691116221" lon="12.326063977291827"><ele>68.66666666666667</ele><time>2026-04-03T03:00:36.146Z</time></trkpt><trkpt lat="45.9081636038163" lon="12.326174071264036"><ele>68.0</ele><time>2026-04-03T03:00:37.146Z</time></trkpt><trkpt lat="45.9079525786718" lon="12.326282831158869"><ele>68.0</ele><time>2026-04-03T03:00:38.146Z</time></trkpt><trkpt lat="45.9077395323569" lon="12.326394254425372"><ele>68.0</ele><time>2026-04-03T03:00:39.146Z</time></trkpt><trkpt lat="45.907561057671124" lon="12.326483814692345"><ele>68.0</ele><time>2026-04-03T03:00:40.001Z</time></trkpt><trkpt lat="45.90734819676665" lon="12.326591545164673"><ele>68.0</ele><time>2026-04-03T03:00:41.001Z</time></trkpt><trkpt lat="45.90714168910886" lon="12.326695223967599"><ele>68.0</ele><time>2026-04-03T03:00:42.001Z</time></trkpt><trkpt lat="45.906931430264855" lon="12.326800901326902"><ele>68.0</ele><time>2026-04-03T03:00:43.001Z</time></trkpt><trkpt lat="45.90671095462019" lon="12.326913560880875"><ele>68.0</ele><time>2026-04-03T03:00:44.001Z</time></trkpt><trkpt lat="45.906497089298966" lon="12.327019229050096"><ele>68.0</ele><time>2026-04-03T03:00:45.001Z</time></trkpt><trkpt lat="45.90629411367278" lon="12.327128872332834"><ele>68.0</ele><time>2026-04-03T03:00:46.001Z</time></trkpt><trkpt lat="45.90608707396411" lon="12.327235113740613"><ele>68.0</ele><time>2026-04-03T03:00:47.001Z</time></trkpt><trkpt lat="45.90587168299683" lon="12.327325923186326"><ele>68.0</ele><time>2026-04-03T03:00:48.001Z</time></trkpt><trkpt lat="45.90566098230471" lon="12.327457295544857"><ele>68.0</ele><time>2026-04-03T03:00:49.001Z</time></trkpt><trkpt lat="45.90544953497132" lon="12.327543962639497"><ele>68.0</ele><time>2026-04-03T03:00:50.001Z</time></trkpt><trkpt lat="45.90524865585394" lon="12.327634139296265"><ele>68.0</ele><time>2026-04-03T03:00:51.001Z</time></trkpt><trkpt lat="45.90503853472806" lon="12.327739366838445"><ele>67.33333333333334</ele><time>2026-04-03T03:00:52.001Z</time></trkpt><trkpt lat="45.90483012120089" lon="12.327848851113352"><ele>66.66666666666667</ele><time>2026-04-03T03:00:53.001Z</time></trkpt><trkpt lat="45.904619448742544" lon="12.327963139095628"><ele>66.0</ele><time>2026-04-03T03:00:54.001Z</time></trkpt><trkpt lat="45.90440236625833" lon="12.328069612618819"><ele>65.33333333333333</ele><time>2026-04-03T03:00:55.001Z</time></trkpt><trkpt lat="45.90418940539961" lon="12.328178928226766"><ele>64.66666666666666</ele><time>2026-04-03T03:00:56.001Z</time></trkpt><trkpt lat="45.9039871272272" lon="12.328277908627811"><ele>64.0</ele><time>2026-04-03T03:00:57Z</time></trkpt><trkpt lat="45.903801013447165" lon="12.328370713478705"><ele>64.0</ele><time>2026-04-03T03:00:58Z</time></trkpt><trkpt lat="45.9036328853919" lon="12.328451482749546"><ele>64.0</ele><time>2026-04-03T03:00:59Z</time></trkpt><trkpt lat="45.90345498318094" lon="12.328532102376585"><ele>64.0</ele><time>2026-04-03T03:01:00Z</time></trkpt><trkpt lat="45.903268537786715" lon="12.32859623404949"><ele>63.666666666666664</ele><time>2026-04-03T03:01:01Z</time></trkpt><trkpt lat="45.90311797731512" lon="12.32866704991947"><ele>63.33333333333333</ele><time>2026-04-03T03:01:02Z</time></trkpt><trkpt lat="45.90297690793184" lon="12.32874714724962"><ele>63.0</ele><time>2026-04-03T03:01:03Z</time></trkpt><trkpt lat="45.90284268898325" lon="12.3288180543275"><ele>63.0</ele><time>2026-04-03T03:01:04Z</time></trkpt><trkpt lat="45.90271748589116" lon="12.3288818350438"><ele>63.0</ele><time>2026-04-03T03:01:05Z</time></trkpt><trkpt lat="45.90260340347825" lon="12.328936931382023"><ele>63.0</ele><time>2026-04-03T03:01:06Z</time></trkpt><trkpt lat="45.9025021542947" lon="12.328989314320207"><ele>63.0</ele><time>2026-04-03T03:01:07Z</time></trkpt><trkpt lat="45.90240638711875" lon="12.329039240240348"><ele>62.666666666666664</ele><time>2026-04-03T03:01:08Z</time></trkpt><trkpt lat="45.90232099160637" lon="12.329087550714066"><ele>62.33333333333333</ele><time>2026-04-03T03:01:09Z</time></trkpt><trkpt lat="45.902251843313984" lon="12.329133012461575"><ele>62.0</ele><time>2026-04-03T03:01:10Z</time></trkpt><trkpt lat="45.90217625633226" lon="12.329171428961105"><ele>61.666666666666664</ele><time>2026-04-03T03:01:11Z</time></trkpt><trkpt lat="45.90211202193079" lon="12.32920290838599"><ele>61.33333333333333</ele><time>2026-04-03T03:01:12Z</time></trkpt><trkpt lat="45.90201726671601" lon="12.329252932722564"><ele>61.0</ele><time>2026-04-03T03:01:14Z</time></trkpt><trkpt lat="45.90195818643238" lon="12.329288397326335"><ele>60.99999999999999</ele><time>2026-04-03T03:01:16Z</time></trkpt><trkpt lat="45.901869561157746" lon="12.329339261658571"><ele>61.0</ele><time>2026-04-03T03:02:02Z</time></trkpt><trkpt lat="45.90177285507505" lon="12.32941456037895"><ele>61.0</ele><time>2026-04-03T03:02:04Z</time></trkpt><trkpt lat="45.90171236121926" lon="12.329468635637447"><ele>61.0</ele><time>2026-04-03T03:02:05Z</time></trkpt><trkpt lat="45.90164804273174" lon="12.32952615320896"><ele>60.99999999999999</ele><time>2026-04-03T03:02:06Z</time></trkpt><trkpt lat="45.901580958978435" lon="12.329597027091868"><ele>61.0</ele><time>2026-04-03T03:02:07Z</time></trkpt><trkpt lat="45.90150860892142" lon="12.329673638933382"><ele>60.8</ele><time>2026-04-03T03:02:08Z</time></trkpt><trkpt lat="45.901428292485896" lon="12.329758194229447"><ele>60.599999999999994</ele><time>2026-04-03T03:02:09Z</time></trkpt><trkpt lat="45.90134891869339" lon="12.329850148024633"><ele>60.4</ele><time>2026-04-03T03:02:10Z</time></trkpt><trkpt lat="45.901262518564536" lon="12.329945271617946"><ele>60.2</ele><time>2026-04-03T03:02:11Z</time></trkpt><trkpt lat="45.90117303941494" lon="12.330048221323192"><ele>60.0</ele><time>2026-04-03T03:02:12Z</time></trkpt><trkpt lat="45.9010807980811" lon="12.330153413643554"><ele>60.0</ele><time>2026-04-03T03:02:13Z</time></trkpt><trkpt lat="45.900983679620985" lon="12.330262086081895"><ele>60.0</ele><time>2026-04-03T03:02:14Z</time></trkpt><trkpt lat="45.90088179608307" lon="12.330374360497363"><ele>60.0</ele><time>2026-04-03T03:02:15Z</time></trkpt><trkpt lat="45.900776038911765" lon="12.330492976927278"><ele>60.0</ele><time>2026-04-03T03:02:16Z</time></trkpt><trkpt lat="45.900665737516505" lon="12.33061563488438"><ele>60.75</ele><time>2026-04-03T03:02:17Z</time></trkpt><trkpt lat="45.90055482487431" lon="12.330743098145822"><ele>61.5</ele><time>2026-04-03T03:02:18Z</time></trkpt><trkpt lat="45.90043966719912" lon="12.330872401144704"><ele>62.25</ele><time>2026-04-03T03:02:19Z</time></trkpt><trkpt lat="45.90032218041611" lon="12.33100561734545"><ele>63.0</ele><time>2026-04-03T03:02:19.999Z</time></trkpt><trkpt lat="45.900205777337774" lon="12.331133007661967"><ele>63.0</ele><time>2026-04-03T03:02:20.999Z</time></trkpt><trkpt lat="45.90009131162803" lon="12.331260049547527"><ele>63.0</ele><time>2026-04-03T03:02:21.999Z</time></trkpt><trkpt lat="45.89997926189793" lon="12.331388088601237"><ele>63.0</ele><time>2026-04-03T03:02:22.999Z</time></trkpt><trkpt lat="45.89987024666349" lon="12.331510135703352"><ele>63.0</ele><time>2026-04-03T03:02:23.999Z</time></trkpt><trkpt lat="45.8997663665407" lon="12.331616973126796"><ele>61.75</ele><time>2026-04-03T03:02:24.999Z</time></trkpt><trkpt lat="45.89965920957023" lon="12.331711579286518"><ele>60.5</ele><time>2026-04-03T03:02:25.999Z</time></trkpt><trkpt lat="45.89954656343593" lon="12.331775849327737"><ele>59.25</ele><time>2026-04-03T03:02:26.999Z</time></trkpt><trkpt lat="45.89943062673616" lon="12.33182576166401"><ele>58.0</ele><time>2026-04-03T03:02:27.999Z</time></trkpt><trkpt lat="45.89931109058585" lon="12.331862460024249"><ele>58.0</ele><time>2026-04-03T03:02:28.999Z</time></trkpt><trkpt lat="45.899194795614136" lon="12.331892767687025"><ele>58.0</ele><time>2026-04-03T03:02:29.999Z</time></trkpt><trkpt lat="45.89907942683012" lon="12.33191546539254"><ele>58.0</ele><time>2026-04-03T03:02:30.999Z</time></trkpt><trkpt lat="45.898969628524576" lon="12.331922936862124"><ele>58.0</ele><time>2026-04-03T03:02:31.999Z</time></trkpt><trkpt lat="45.898863869043154" lon="12.331902744904244"><ele>58.0</ele><time>2026-04-03T03:02:32.999Z</time></trkpt><trkpt lat="45.89877260525539" lon="12.331863303329076"><ele>58.0</ele><time>2026-04-03T03:02:33.999Z</time></trkpt><trkpt lat="45.89869036880246" lon="12.331863272051656"><ele>58.0</ele><time>2026-04-03T03:02:34.999Z</time></trkpt><trkpt lat="45.89860984120161" lon="12.331783706160174"><ele>58.0</ele><time>2026-04-03T03:02:35.999Z</time></trkpt><trkpt lat="45.898518849413236" lon="12.331734458102018"><ele>58.0</ele><time>2026-04-03T03:02:36.999Z</time></trkpt><trkpt lat="45.89842105914312" lon="12.33167863419476"><ele>59.0</ele><time>2026-04-03T03:02:37.999Z</time></trkpt><trkpt lat="45.898315584608646" lon="12.331616051168993"><ele>60.0</ele><time>2026-04-03T03:02:38.999Z</time></trkpt><trkpt lat="45.89820263943932" lon="12.331548099601035"><ele>61.0</ele><time>2026-04-03T03:02:39.999Z</time></trkpt><trkpt lat="45.89808348253874" lon="12.331476183125046"><ele>62.0</ele><time>2026-04-03T03:02:41Z</time></trkpt><trkpt lat="45.89796159712224" lon="12.331403690034023"><ele>61.5</ele><time>2026-04-03T03:02:42Z</time></trkpt><trkpt lat="45.89783874729646" lon="12.331324477796858"><ele>61.0</ele><time>2026-04-03T03:02:43Z</time></trkpt><trkpt lat="45.89770802827624" lon="12.331236828286485"><ele>60.5</ele><time>2026-04-03T03:02:44Z</time></trkpt><trkpt lat="45.897576349725405" lon="12.33115893819441"><ele>60.0</ele><time>2026-04-03T03:02:45Z</time></trkpt><trkpt lat="45.89743816952942" lon="12.331068517232788"><ele>60.0</ele><time>2026-04-03T03:02:46Z</time></trkpt><trkpt lat="45.89729381516166" lon="12.330971880509848"><ele>60.0</ele><time>2026-04-03T03:02:47Z</time></trkpt><trkpt lat="45.897143943149075" lon="12.330870700666358"><ele>60.0</ele><time>2026-04-03T03:02:48Z</time></trkpt><trkpt lat="45.89699833458252" lon="12.330774107411067"><ele>60.0</ele><time>2026-04-03T03:02:49Z</time></trkpt><trkpt lat="45.89685217019042" lon="12.330680626461152"><ele>60.0</ele><time>2026-04-03T03:02:50Z</time></trkpt><trkpt lat="45.896700210670076" lon="12.330589125770889"><ele>60.0</ele><time>2026-04-03T03:02:51Z</time></trkpt><trkpt lat="45.89654907168822" lon="12.33049139541053"><ele>59.0</ele><time>2026-04-03T03:02:52Z</time></trkpt><trkpt lat="45.89639672900891" lon="12.330393414958694"><ele>58.0</ele><time>2026-04-03T03:02:53Z</time></trkpt><trkpt lat="45.89624136040679" lon="12.330291634370282"><ele>57.0</ele><time>2026-04-03T03:02:54Z</time></trkpt><trkpt lat="45.896081498602086" lon="12.33018873653612"><ele>56.66666666666667</ele><time>2026-04-03T03:02:55Z</time></trkpt><trkpt lat="45.8959169591999" lon="12.330081333557226"><ele>56.333333333333336</ele><time>2026-04-03T03:02:56Z</time></trkpt><trkpt lat="45.895751591426254" lon="12.329972759043901"><ele>56.0</ele><time>2026-04-03T03:02:57Z</time></trkpt><trkpt lat="45.895587986835196" lon="12.329862896795307"><ele>56.0</ele><time>2026-04-03T03:02:58Z</time></trkpt><trkpt lat="45.895419319994566" lon="12.329753541715188"><ele>56.0</ele><time>2026-04-03T03:02:59Z</time></trkpt><trkpt lat="45.895249071275096" lon="12.329643657583237"><ele>56.0</ele><time>2026-04-03T03:03:00Z</time></trkpt><trkpt lat="45.89507715126526" lon="12.329534278350842"><ele>56.333333333333336</ele><time>2026-04-03T03:03:01Z</time></trkpt><trkpt lat="45.8949035143762" lon="12.32942089660658"><ele>56.66666666666667</ele><time>2026-04-03T03:03:02Z</time></trkpt><trkpt lat="45.89473452829079" lon="12.329312066826484"><ele>57.0</ele><time>2026-04-03T03:03:03Z</time></trkpt><trkpt lat="45.89456233264434" lon="12.329200826639521"><ele>57.0</ele><time>2026-04-03T03:03:04Z</time></trkpt><trkpt lat="45.89439777958316" lon="12.329093339293744"><ele>57.0</ele><time>2026-04-03T03:03:05Z</time></trkpt><trkpt lat="45.89423714626978" lon="12.32898647081088"><ele>57.0</ele><time>2026-04-03T03:03:06Z</time></trkpt><trkpt lat="45.894082126585666" lon="12.328884141640074"><ele>56.33333333333333</ele><time>2026-04-03T03:03:07Z</time></trkpt><trkpt lat="45.89394109646515" lon="12.328783539679252"><ele>55.666666666666664</ele><time>2026-04-03T03:03:08Z</time></trkpt><trkpt lat="45.89380012860357" lon="12.328674744845253"><ele>55.0</ele><time>2026-04-03T03:03:09Z</time></trkpt><trkpt lat="45.893658186878284" lon="12.328560436987365"><ele>55.0</ele><time>2026-04-03T03:03:10Z</time></trkpt><trkpt lat="45.89351203793337" lon="12.328434628837812"><ele>55.0</ele><time>2026-04-03T03:03:11Z</time></trkpt><trkpt lat="45.89336546968237" lon="12.328304404137207"><ele>55.0</ele><time>2026-04-03T03:03:12Z</time></trkpt><trkpt lat="45.89321730083588" lon="12.328165693255308"><ele>55.0</ele><time>2026-04-03T03:03:13Z</time></trkpt><trkpt lat="45.89306442158618" lon="12.328025686121192"><ele>55.0</ele><time>2026-04-03T03:03:14Z</time></trkpt><trkpt lat="45.892914039612926" lon="12.32787895097205"><ele>55.0</ele><time>2026-04-03T03:03:15Z</time></trkpt><trkpt lat="45.89276391133564" lon="12.327721611800161"><ele>55.0</ele><time>2026-04-03T03:03:16Z</time></trkpt><trkpt lat="45.8926159327624" lon="12.327557847191454"><ele>55.0</ele><time>2026-04-03T03:03:17Z</time></trkpt><trkpt lat="45.8924655526603" lon="12.327390023643579"><ele>55.0</ele><time>2026-04-03T03:03:18Z</time></trkpt><trkpt lat="45.89231557835172" lon="12.327225026682404"><ele>55.0</ele><time>2026-04-03T03:03:19Z</time></trkpt><trkpt lat="45.89216846397438" lon="12.327059160962925"><ele>55.0</ele><time>2026-04-03T03:03:20Z</time></trkpt><trkpt lat="45.89201796892535" lon="12.326894782879103"><ele>55.0</ele><time>2026-04-03T03:03:21Z</time></trkpt><trkpt lat="45.891866546800436" lon="12.326729501066836"><ele>54.33333333333333</ele><time>2026-04-03T03:03:22Z</time></trkpt><trkpt lat="45.89171333127681" lon="12.326562184799528"><ele>53.66666666666667</ele><time>2026-04-03T03:03:23Z</time></trkpt><trkpt lat="45.89156175694751" lon="12.326394205714113"><ele>53.0</ele><time>2026-04-03T03:03:24Z</time></trkpt><trkpt lat="45.891408370203365" lon="12.326229615711696"><ele>52.66666666666667</ele><time>2026-04-03T03:03:25Z</time></trkpt><trkpt lat="45.89125424682331" lon="12.326066567822155"><ele>52.33333333333333</ele><time>2026-04-03T03:03:26Z</time></trkpt><trkpt lat="45.89109946913406" lon="12.32589974014759"><ele>52.0</ele><time>2026-04-03T03:03:27Z</time></trkpt><trkpt lat="45.8909447437261" lon="12.325728113703802"><ele>52.666666666666664</ele><time>2026-04-03T03:03:28Z</time></trkpt><trkpt lat="45.89079090571398" lon="12.325556260635786"><ele>53.33333333333333</ele><time>2026-04-03T03:03:29Z</time></trkpt><trkpt lat="45.89063719065728" lon="12.325383905440166"><ele>54.0</ele><time>2026-04-03T03:03:30Z</time></trkpt><trkpt lat="45.89048316596859" lon="12.325211373176668"><ele>54.0</ele><time>2026-04-03T03:03:31Z</time></trkpt><trkpt lat="45.89032746879617" lon="12.325039354303458"><ele>54.0</ele><time>2026-04-03T03:03:32Z</time></trkpt><trkpt lat="45.89017163431627" lon="12.324866954318718"><ele>54.0</ele><time>2026-04-03T03:03:33Z</time></trkpt><trkpt lat="45.89001526969572" lon="12.324691301522794"><ele>54.0</ele><time>2026-04-03T03:03:34Z</time></trkpt><trkpt lat="45.889858972547216" lon="12.324516030835039"><ele>54.0</ele><time>2026-04-03T03:03:35Z</time></trkpt><trkpt lat="45.889704437111355" lon="12.324338671142083"><ele>54.0</ele><time>2026-04-03T03:03:36Z</time></trkpt><trkpt lat="45.889549319704614" lon="12.324156465239765"><ele>54.0</ele><time>2026-04-03T03:03:37Z</time></trkpt><trkpt lat="45.889399605462266" lon="12.323970983408595"><ele>54.0</ele><time>2026-04-03T03:03:38Z</time></trkpt><trkpt lat="45.88924817727442" lon="12.323781255163619"><ele>54.0</ele><time>2026-04-03T03:03:39Z</time></trkpt><trkpt lat="45.88909672556847" lon="12.323591830851559"><ele>54.0</ele><time>2026-04-03T03:03:40Z</time></trkpt><trkpt lat="45.88894455766598" lon="12.323405698614904"><ele>54.0</ele><time>2026-04-03T03:03:41Z</time></trkpt><trkpt lat="45.8887907498228" lon="12.323228771646667"><ele>54.0</ele><time>2026-04-03T03:03:42Z</time></trkpt><trkpt lat="45.8886431768308" lon="12.323045312988066"><ele>54.33333333333333</ele><time>2026-04-03T03:03:43Z</time></trkpt><trkpt lat="45.888503169911836" lon="12.322859625275289"><ele>54.666666666666664</ele><time>2026-04-03T03:03:44Z</time></trkpt><trkpt lat="45.88836113184642" lon="12.322678863430792"><ele>55.0</ele><time>2026-04-03T03:03:45Z</time></trkpt><trkpt lat="45.88821991530916" lon="12.322502742497262"><ele>55.0</ele><time>2026-04-03T03:03:46Z</time></trkpt><trkpt lat="45.88807996913852" lon="12.32232569319935"><ele>55.0</ele><time>2026-04-03T03:03:47Z</time></trkpt><trkpt lat="45.887940283324596" lon="12.322149116216083"><ele>55.0</ele><time>2026-04-03T03:03:48Z</time></trkpt><trkpt lat="45.88780174314951" lon="12.321972278470843"><ele>54.33333333333333</ele><time>2026-04-03T03:03:49Z</time></trkpt><trkpt lat="45.88766240638623" lon="12.321799384160636"><ele>53.66666666666667</ele><time>2026-04-03T03:03:50Z</time></trkpt><trkpt lat="45.887525129949665" lon="12.321623279513169"><ele>53.0</ele><time>2026-04-03T03:03:51Z</time></trkpt><trkpt lat="45.887388045677454" lon="12.321448232244117"><ele>53.333333333333336</ele><time>2026-04-03T03:03:52Z</time></trkpt><trkpt lat="45.88724883791069" lon="12.321271024974942"><ele>53.66666666666667</ele><time>2026-04-03T03:03:53Z</time></trkpt><trkpt lat="45.88711408340599" lon="12.321106859859496"><ele>54.0</ele><time>2026-04-03T03:03:54Z</time></trkpt><trkpt lat="45.88697549702867" lon="12.320942343733696"><ele>54.0</ele><time>2026-04-03T03:03:55Z</time></trkpt><trkpt lat="45.88683579243301" lon="12.320776752610797"><ele>54.0</ele><time>2026-04-03T03:03:56Z</time></trkpt><trkpt lat="45.88669923104099" lon="12.32060742300899"><ele>54.0</ele><time>2026-04-03T03:03:57Z</time></trkpt><trkpt lat="45.88656107351281" lon="12.32043605164819"><ele>53.33333333333333</ele><time>2026-04-03T03:03:58Z</time></trkpt><trkpt lat="45.88642284160605" lon="12.320265632561734"><ele>52.666666666666664</ele><time>2026-04-03T03:03:59Z</time></trkpt><trkpt lat="45.88628405110092" lon="12.320090559220194"><ele>52.0</ele><time>2026-04-03T03:04:00Z</time></trkpt><trkpt lat="45.88614409779463" lon="12.319919424578918"><ele>52.0</ele><time>2026-04-03T03:04:01Z</time></trkpt><trkpt lat="45.886001726967116" lon="12.319753734650584"><ele>52.0</ele><time>2026-04-03T03:04:02Z</time></trkpt><trkpt lat="45.88585769410341" lon="12.319587014413305"><ele>52.0</ele><time>2026-04-03T03:04:03Z</time></trkpt><trkpt lat="45.8857147127757" lon="12.319417505291657"><ele>51.666666666666664</ele><time>2026-04-03T03:04:04Z</time></trkpt><trkpt lat="45.88557025521172" lon="12.319248836326821"><ele>51.33333333333333</ele><time>2026-04-03T03:04:05Z</time></trkpt><trkpt lat="45.88542659641526" lon="12.319081013566061"><ele>51.0</ele><time>2026-04-03T03:04:06Z</time></trkpt><trkpt lat="45.8852876354786" lon="12.31891484031882"><ele>51.0</ele><time>2026-04-03T03:04:07Z</time></trkpt><trkpt lat="45.8851497648088" lon="12.318752042391418"><ele>51.0</ele><time>2026-04-03T03:04:08Z</time></trkpt><trkpt lat="45.88501067901203" lon="12.318587686535816"><ele>51.0</ele><time>2026-04-03T03:04:09Z</time></trkpt><trkpt lat="45.884877727048675" lon="12.318429480782271"><ele>51.0</ele><time>2026-04-03T03:04:10Z</time></trkpt><trkpt lat="45.88474706895469" lon="12.318280447835203"><ele>51.0</ele><time>2026-04-03T03:04:11Z</time></trkpt><trkpt lat="45.884621180989015" lon="12.31813224849843"><ele>51.0</ele><time>2026-04-03T03:04:12Z</time></trkpt><trkpt lat="45.88449742491293" lon="12.317982718409743"><ele>50.66666666666667</ele><time>2026-04-03T03:04:13Z</time></trkpt><trkpt lat="45.884373173977416" lon="12.317832485358773"><ele>50.333333333333336</ele><time>2026-04-03T03:04:14Z</time></trkpt><trkpt lat="45.88425175920752" lon="12.317683748193454"><ele>50.0</ele><time>2026-04-03T03:04:15Z</time></trkpt><trkpt lat="45.88413167206377" lon="12.317536570206421"><ele>50.0</ele><time>2026-04-03T03:04:16Z</time></trkpt><trkpt lat="45.88401859594538" lon="12.317394657879941"><ele>50.0</ele><time>2026-04-03T03:04:17Z</time></trkpt><trkpt lat="45.88391710804584" lon="12.317271411653103"><ele>50.0</ele><time>2026-04-03T03:04:18Z</time></trkpt><trkpt lat="45.88383584190637" lon="12.317161713871407"><ele>50.0</ele><time>2026-04-03T03:04:19Z</time></trkpt><trkpt lat="45.88377956144632" lon="12.317054380166423"><ele>50.16666666666667</ele><time>2026-04-03T03:04:19.999Z</time></trkpt><trkpt lat="45.88373936074978" lon="12.316938688543697"><ele>50.333333333333336</ele><time>2026-04-03T03:04:20.999Z</time></trkpt><trkpt lat="45.88372042949152" lon="12.316813436331907"><ele>50.5</ele><time>2026-04-03T03:04:21.999Z</time></trkpt><trkpt lat="45.88369516623445" lon="12.3167092456559"><ele>50.66666666666667</ele><time>2026-04-03T03:04:22.999Z</time></trkpt><trkpt lat="45.883642845700834" lon="12.316630094857285"><ele>50.833333333333336</ele><time>2026-04-03T03:04:23.999Z</time></trkpt><trkpt lat="45.8835771741393" lon="12.316583808127948"><ele>51.0</ele><time>2026-04-03T03:04:24.999Z</time></trkpt><trkpt lat="45.88349701851939" lon="12.316586916324146"><ele>51.0</ele><time>2026-04-03T03:04:25.999Z</time></trkpt><trkpt lat="45.88343683354443" lon="12.316632250916038"><ele>51.0</ele><time>2026-04-03T03:04:26.999Z</time></trkpt><trkpt lat="45.88339474316211" lon="12.316700153236393"><ele>51.0</ele><time>2026-04-03T03:04:27.999Z</time></trkpt><trkpt lat="45.88336748954156" lon="12.316882597930222"><ele>51.0</ele><time>2026-04-03T03:04:29.999Z</time></trkpt><trkpt lat="45.88338271104732" lon="12.31698886396271"><ele>51.0</ele><time>2026-04-03T03:04:30.999Z</time></trkpt><trkpt lat="45.88340727879555" lon="12.317106477098605"><ele>51.0</ele><time>2026-04-03T03:04:31.999Z</time></trkpt><trkpt lat="45.88342000150639" lon="12.317220688075563"><ele>51.199999999999996</ele><time>2026-04-03T03:04:32.999Z</time></trkpt><trkpt lat="45.8834187114817" lon="12.317336158942016"><ele>51.4</ele><time>2026-04-03T03:04:33.999Z</time></trkpt><trkpt lat="45.883389925724614" lon="12.317458521963635"><ele>51.6</ele><time>2026-04-03T03:04:34.999Z</time></trkpt><trkpt lat="45.883376517850756" lon="12.317582348793065"><ele>51.8</ele><time>2026-04-03T03:04:35.999Z</time></trkpt><trkpt lat="45.883362908551625" lon="12.317718746769605"><ele>52.0</ele><time>2026-04-03T03:04:36.999Z</time></trkpt><trkpt lat="45.883345444079104" lon="12.31786872472497"><ele>52.0</ele><time>2026-04-03T03:04:37.999Z</time></trkpt><trkpt lat="45.883323668438365" lon="12.318010822934639"><ele>52.0</ele><time>2026-04-03T03:04:38.999Z</time></trkpt><trkpt lat="45.88330022529002" lon="12.318152241288194"><ele>52.0</ele><time>2026-04-03T03:04:39.999Z</time></trkpt><trkpt lat="45.88327251231303" lon="12.318286279003523"><ele>52.0</ele><time>2026-04-03T03:04:40.999Z</time></trkpt><trkpt lat="45.88323639287331" lon="12.318408782998615"><ele>52.0</ele><time>2026-04-03T03:04:41.999Z</time></trkpt><trkpt lat="45.88319400090511" lon="12.31850633407712"><ele>51.99999999999999</ele><time>2026-04-03T03:04:42.999Z</time></trkpt><trkpt lat="45.883133989240264" lon="12.318611285188048"><ele>52.0</ele><time>2026-04-03T03:04:44.999Z</time></trkpt><trkpt lat="45.883092264419524" lon="12.318702732014682"><ele>52.0</ele><time>2026-04-03T03:04:49Z</time></trkpt><trkpt lat="45.88304900421912" lon="12.318778397209613"><ele>52.0</ele><time>2026-04-03T03:05:29Z</time></trkpt><trkpt lat="45.88300354744958" lon="12.31887072577023"><ele>51.99999999999999</ele><time>2026-04-03T03:05:36Z</time></trkpt><trkpt lat="45.88293329683458" lon="12.318899341049601"><ele>52.0</ele><time>2026-04-03T03:06:01Z</time></trkpt><trkpt lat="45.88291517947119" lon="12.31898741233937"><ele>52.0</ele><time>2026-04-03T03:06:09Z</time></trkpt><trkpt lat="45.882898599705136" lon="12.319088027003916"><ele>52.0</ele><time>2026-04-03T03:06:10Z</time></trkpt><trkpt lat="45.88296010911451" lon="12.319146001003459"><ele>52.0</ele><time>2026-04-03T03:06:11Z</time></trkpt><trkpt lat="45.88307317421589" lon="12.319270145358143"><ele>52.0</ele><time>2026-04-03T03:06:13Z</time></trkpt><trkpt lat="45.88305385858284" lon="12.319424276828686"><ele>52.0</ele><time>2026-04-03T03:06:15Z</time></trkpt><trkpt lat="45.883028808345706" lon="12.319525326850556"><ele>52.0</ele><time>2026-04-03T03:06:16Z</time></trkpt><trkpt lat="45.88300485870842" lon="12.319382270821315"><ele>52.0</ele><time>2026-04-03T03:06:22.999Z</time></trkpt><trkpt lat="45.883038044284724" lon="12.319245261822457"><ele>52.0</ele><time>2026-04-03T03:06:23.999Z</time></trkpt><trkpt lat="45.88305111679536" lon="12.319141296938605"><ele>52.0</ele><time>2026-04-03T03:06:25.999Z</time></trkpt><trkpt lat="45.8830508845855" lon="12.319019724229381"><ele>52.0</ele><time>2026-04-03T03:06:26.999Z</time></trkpt><trkpt lat="45.88287090270978" lon="12.318935639175361"><ele>51.5</ele><time>2026-04-03T03:06:30.999Z</time></trkpt><trkpt lat="45.88289365447099" lon="12.318551388392072"><ele>51.0</ele><time>2026-04-03T03:06:31.999Z</time></trkpt><trkpt lat="45.88269495336242" lon="12.318668518388323"><ele>51.0</ele><time>2026-04-03T03:06:33.999Z</time></trkpt><trkpt lat="45.88264976355323" lon="12.31888095060724"><ele>51.0</ele><time>2026-04-03T03:06:35.999Z</time></trkpt><trkpt lat="45.88262998463011" lon="12.318967153523502"><ele>51.0</ele><time>2026-04-03T03:06:38.999Z</time></trkpt><trkpt lat="45.882918275313735" lon="12.318932876957115"><ele>51.0</ele><time>2026-04-03T03:07:17Z</time></trkpt><trkpt lat="45.882959922743204" lon="12.318856108086262"><ele>51.0</ele><time>2026-04-03T03:07:26Z</time></trkpt><trkpt lat="45.882963977614395" lon="12.319000161269392"><ele>51.0</ele><time>2026-04-03T03:08:04Z</time></trkpt><trkpt lat="45.88292591583159" lon="12.319074220020985"><ele>51.0</ele><time>2026-04-03T03:08:05Z</time></trkpt><trkpt lat="45.88288244994366" lon="12.319156760775304"><ele>51.0</ele><time>2026-04-03T03:08:06Z</time></trkpt><trkpt lat="45.8828321826476" lon="12.319248168968617"><ele>51.0</ele><time>2026-04-03T03:08:07Z</time></trkpt><trkpt lat="45.88278063227941" lon="12.319347493516416"><ele>51.199999999999996</ele><time>2026-04-03T03:08:08Z</time></trkpt><trkpt lat="45.88272750087505" lon="12.31946208495749"><ele>51.4</ele><time>2026-04-03T03:08:09Z</time></trkpt><trkpt lat="45.882669817578666" lon="12.319590527069535"><ele>51.6</ele><time>2026-04-03T03:08:10Z</time></trkpt><trkpt lat="45.88260925169007" lon="12.319729000082036"><ele>51.8</ele><time>2026-04-03T03:08:11Z</time></trkpt><trkpt lat="45.88255443361049" lon="12.319872042461963"><ele>52.0</ele><time>2026-04-03T03:08:12Z</time></trkpt><trkpt lat="45.88248994209828" lon="12.320026555100586"><ele>52.0</ele><time>2026-04-03T03:08:13Z</time></trkpt><trkpt lat="45.88242090243294" lon="12.320193122458168"><ele>52.0</ele><time>2026-04-03T03:08:14Z</time></trkpt><trkpt lat="45.882352186727715" lon="12.320364208102166"><ele>52.0</ele><time>2026-04-03T03:08:15Z</time></trkpt><trkpt lat="45.882279470426305" lon="12.320544449779069"><ele>52.0</ele><time>2026-04-03T03:08:16Z</time></trkpt><trkpt lat="45.88220379600921" lon="12.320729486817266"><ele>52.0</ele><time>2026-04-03T03:08:17Z</time></trkpt><trkpt lat="45.88212201933867" lon="12.32091991968229"><ele>52.0</ele><time>2026-04-03T03:08:18Z</time></trkpt><trkpt lat="45.88204192860463" lon="12.321115605697779"><ele>52.0</ele><time>2026-04-03T03:08:19Z</time></trkpt><trkpt lat="45.88195823892971" lon="12.32131761690803"><ele>51.666666666666664</ele><time>2026-04-03T03:08:20Z</time></trkpt><trkpt lat="45.881874103163675" lon="12.321524083793777"><ele>51.33333333333333</ele><time>2026-04-03T03:08:20.999Z</time></trkpt><trkpt lat="45.88178486712691" lon="12.321734088776305"><ele>51.0</ele><time>2026-04-03T03:08:21.999Z</time></trkpt><trkpt lat="45.881694797778444" lon="12.321951641673975"><ele>51.0</ele><time>2026-04-03T03:08:22.999Z</time></trkpt><trkpt lat="45.881602154688444" lon="12.322175057945415"><ele>51.0</ele><time>2026-04-03T03:08:23.999Z</time></trkpt><trkpt lat="45.88150966218617" lon="12.322404481254178"><ele>51.0</ele><time>2026-04-03T03:08:24.999Z</time></trkpt><trkpt lat="45.88141437489365" lon="12.322638510237404"><ele>50.66666666666667</ele><time>2026-04-03T03:08:25.999Z</time></trkpt><trkpt lat="45.881320262040084" lon="12.322860479836258"><ele>50.333333333333336</ele><time>2026-04-03T03:08:26.999Z</time></trkpt><trkpt lat="45.88122974141914" lon="12.323081401199682"><ele>50.0</ele><time>2026-04-03T03:08:27.999Z</time></trkpt><trkpt lat="45.881136850771036" lon="12.32329579038474"><ele>50.0</ele><time>2026-04-03T03:08:28.999Z</time></trkpt><trkpt lat="45.881048744030885" lon="12.32350333803294"><ele>50.0</ele><time>2026-04-03T03:08:29.999Z</time></trkpt><trkpt lat="45.88096424770408" lon="12.323700496781901"><ele>50.0</ele><time>2026-04-03T03:08:30.999Z</time></trkpt><trkpt lat="45.88088464779674" lon="12.323889020446078"><ele>49.75</ele><time>2026-04-03T03:08:31.999Z</time></trkpt><trkpt lat="45.88080819816439" lon="12.324064580831369"><ele>49.5</ele><time>2026-04-03T03:08:32.999Z</time></trkpt><trkpt lat="45.88073714603523" lon="12.324218505121115"><ele>49.25</ele><time>2026-04-03T03:08:33.999Z</time></trkpt><trkpt lat="45.88066959089859" lon="12.324349986615408"><ele>49.0</ele><time>2026-04-03T03:08:34.999Z</time></trkpt><trkpt lat="45.880609767291034" lon="12.324464515409792"><ele>49.0</ele><time>2026-04-03T03:08:35.999Z</time></trkpt><trkpt lat="45.88055328381488" lon="12.32455946785163"><ele>49.0</ele><time>2026-04-03T03:08:36.999Z</time></trkpt><trkpt lat="45.88050010550605" lon="12.324630740665006"><ele>49.0</ele><time>2026-04-03T03:08:37.999Z</time></trkpt><trkpt lat="45.880456716051945" lon="12.3247084099653"><ele>49.0</ele><time>2026-04-03T03:08:38.999Z</time></trkpt><trkpt lat="45.88042713097935" lon="12.324803035682576"><ele>49.0</ele><time>2026-04-03T03:08:39.999Z</time></trkpt><trkpt lat="45.88040802148835" lon="12.324903498471361"><ele>49.0</ele><time>2026-04-03T03:08:40.999Z</time></trkpt><trkpt lat="45.88038033587724" lon="12.325001514013382"><ele>49.0</ele><time>2026-04-03T03:08:41.999Z</time></trkpt><trkpt lat="45.88034241861554" lon="12.325105570451315"><ele>49.0</ele><time>2026-04-03T03:08:42.999Z</time></trkpt><trkpt lat="45.88029924183445" lon="12.3252145630763"><ele>49.0</ele><time>2026-04-03T03:08:43.999Z</time></trkpt><trkpt lat="45.88025151200806" lon="12.325327662536104"><ele>49.0</ele><time>2026-04-03T03:08:44.999Z</time></trkpt><trkpt lat="45.880198302947186" lon="12.325445339673612"><ele>49.0</ele><time>2026-04-03T03:08:45.999Z</time></trkpt><trkpt lat="45.88014406260484" lon="12.325569442876484"><ele>49.0</ele><time>2026-04-03T03:08:46.999Z</time></trkpt><trkpt lat="45.880088230778625" lon="12.325700641229588"><ele>49.25</ele><time>2026-04-03T03:08:47.999Z</time></trkpt><trkpt lat="45.880029789611655" lon="12.325836569083485"><ele>49.5</ele><time>2026-04-03T03:08:48.999Z</time></trkpt><trkpt lat="45.87996893506154" lon="12.325979321154225"><ele>49.75</ele><time>2026-04-03T03:08:49.999Z</time></trkpt><trkpt lat="45.87990770880544" lon="12.326127911678823"><ele>50.0</ele><time>2026-04-03T03:08:50.999Z</time></trkpt><trkpt lat="45.87984833284761" lon="12.326283868571506"><ele>50.0</ele><time>2026-04-03T03:08:51.999Z</time></trkpt><trkpt lat="45.87979147437605" lon="12.326451211008301"><ele>50.0</ele><time>2026-04-03T03:08:52.999Z</time></trkpt><trkpt lat="45.87973507443817" lon="12.32662750107592"><ele>50.0</ele><time>2026-04-03T03:08:53.999Z</time></trkpt><trkpt lat="45.87967524725916" lon="12.326807511526422"><ele>50.0</ele><time>2026-04-03T03:08:54.999Z</time></trkpt><trkpt lat="45.879612697951075" lon="12.326991284172786"><ele>50.0</ele><time>2026-04-03T03:08:55.999Z</time></trkpt><trkpt lat="45.879549637073445" lon="12.32718041199407"><ele>50.0</ele><time>2026-04-03T03:08:56.999Z</time></trkpt><trkpt lat="45.879483874690024" lon="12.327374778238958"><ele>50.0</ele><time>2026-04-03T03:08:57.999Z</time></trkpt><trkpt lat="45.8794197698413" lon="12.327571411199981"><ele>50.0</ele><time>2026-04-03T03:08:59Z</time></trkpt><trkpt lat="45.879352425435464" lon="12.327773728489571"><ele>49.66666666666667</ele><time>2026-04-03T03:09:00Z</time></trkpt><trkpt lat="45.87928391677368" lon="12.327979347854123"><ele>49.33333333333333</ele><time>2026-04-03T03:09:01Z</time></trkpt><trkpt lat="45.87921344663541" lon="12.32819053702403"><ele>49.0</ele><time>2026-04-03T03:09:02Z</time></trkpt><trkpt lat="45.879143229497096" lon="12.328402937191813"><ele>49.0</ele><time>2026-04-03T03:09:03Z</time></trkpt><trkpt lat="45.87907172089732" lon="12.328620915646404"><ele>49.0</ele><time>2026-04-03T03:09:04Z</time></trkpt><trkpt lat="45.87899843278906" lon="12.328840800847923"><ele>49.0</ele><time>2026-04-03T03:09:05Z</time></trkpt><trkpt lat="45.87892627139638" lon="12.329065216392827"><ele>49.0</ele><time>2026-04-03T03:09:06Z</time></trkpt><trkpt lat="45.87885788416602" lon="12.3292999567389"><ele>49.0</ele><time>2026-04-03T03:09:07Z</time></trkpt><trkpt lat="45.878791330016874" lon="12.329534301424825"><ele>49.0</ele><time>2026-04-03T03:09:08Z</time></trkpt><trkpt lat="45.87873000889209" lon="12.329779603965616"><ele>48.666666666666664</ele><time>2026-04-03T03:09:09Z</time></trkpt><trkpt lat="45.8786698541794" lon="12.330019103056854"><ele>48.33333333333333</ele><time>2026-04-03T03:09:10Z</time></trkpt><trkpt lat="45.87861070716415" lon="12.33025786802923"><ele>48.0</ele><time>2026-04-03T03:09:11Z</time></trkpt><trkpt lat="45.87855544837094" lon="12.330492667126148"><ele>47.666666666666664</ele><time>2026-04-03T03:09:12Z</time></trkpt><trkpt lat="45.878506752299195" lon="12.33071329382019"><ele>47.33333333333333</ele><time>2026-04-03T03:09:13Z</time></trkpt><trkpt lat="45.87845686830452" lon="12.330917520037337"><ele>47.0</ele><time>2026-04-03T03:09:14Z</time></trkpt><trkpt lat="45.87840712983177" lon="12.331113599395485"><ele>47.0</ele><time>2026-04-03T03:09:15Z</time></trkpt><trkpt lat="45.87835439640848" lon="12.33129935919195"><ele>47.0</ele><time>2026-04-03T03:09:16Z</time></trkpt><trkpt lat="45.87829108565569" lon="12.331469038942366"><ele>47.0</ele><time>2026-04-03T03:09:17Z</time></trkpt><trkpt lat="45.878224573519574" lon="12.33162037285954"><ele>47.0</ele><time>2026-04-03T03:09:18Z</time></trkpt><trkpt lat="45.878145656707375" lon="12.331757501566125"><ele>47.0</ele><time>2026-04-03T03:09:19Z</time></trkpt><trkpt lat="45.8780625408521" lon="12.331879421049468"><ele>47.0</ele><time>2026-04-03T03:09:20Z</time></trkpt><trkpt lat="45.87797798856902" lon="12.331974991424758"><ele>47.0</ele><time>2026-04-03T03:09:21Z</time></trkpt><trkpt lat="45.877887905048624" lon="12.33204467905083"><ele>47.0</ele><time>2026-04-03T03:09:22Z</time></trkpt><trkpt lat="45.87778650525954" lon="12.332080135443931"><ele>47.0</ele><time>2026-04-03T03:09:23Z</time></trkpt><trkpt lat="45.87768881398935" lon="12.332102634781384"><ele>46.666666666666664</ele><time>2026-04-03T03:09:24Z</time></trkpt><trkpt lat="45.87759635822076" lon="12.332143237157924"><ele>46.33333333333333</ele><time>2026-04-03T03:09:25Z</time></trkpt><trkpt lat="45.877519051055714" lon="12.33222115607126"><ele>46.0</ele><time>2026-04-03T03:09:26Z</time></trkpt><trkpt lat="45.87746183736409" lon="12.332320149967762"><ele>45.666666666666664</ele><time>2026-04-03T03:09:27Z</time></trkpt><trkpt lat="45.87743231795767" lon="12.332432104737451"><ele>45.333333333333336</ele><time>2026-04-03T03:09:28Z</time></trkpt><trkpt lat="45.877427996307446" lon="12.332553674555061"><ele>45.0</ele><time>2026-04-03T03:09:29Z</time></trkpt><trkpt lat="45.87744410046189" lon="12.332664708134606"><ele>45.0</ele><time>2026-04-03T03:09:30Z</time></trkpt><trkpt lat="45.87749616811415" lon="12.332757331626263"><ele>45.0</ele><time>2026-04-03T03:09:31Z</time></trkpt><trkpt lat="45.87754526352256" lon="12.332846817480464"><ele>45.0</ele><time>2026-04-03T03:09:32Z</time></trkpt><trkpt lat="45.87758011231304" lon="12.332976521053684"><ele>45.0</ele><time>2026-04-03T03:09:33Z</time></trkpt><trkpt lat="45.877609876401955" lon="12.33310452373959"><ele>45.0</ele><time>2026-04-03T03:09:34Z</time></trkpt><trkpt lat="45.87760866229933" lon="12.333252332477917"><ele>45.0</ele><time>2026-04-03T03:09:35Z</time></trkpt><trkpt lat="45.877581744572716" lon="12.333395232277203"><ele>45.0</ele><time>2026-04-03T03:09:36Z</time></trkpt><trkpt lat="45.87757176266798" lon="12.333542788682319"><ele>45.0</ele><time>2026-04-03T03:09:37Z</time></trkpt><trkpt lat="45.87756004841898" lon="12.333697155430832"><ele>45.0</ele><time>2026-04-03T03:09:38Z</time></trkpt><trkpt lat="45.87756445780823" lon="12.333863275153481"><ele>45.0</ele><time>2026-04-03T03:09:39Z</time></trkpt><trkpt lat="45.877534202470926" lon="12.334028830191434"><ele>45.25</ele><time>2026-04-03T03:09:40Z</time></trkpt><trkpt lat="45.87752360165368" lon="12.334205254123498"><ele>45.5</ele><time>2026-04-03T03:09:41Z</time></trkpt><trkpt lat="45.877512785138" lon="12.33438808707673"><ele>45.75</ele><time>2026-04-03T03:09:42Z</time></trkpt><trkpt lat="45.87749772430997" lon="12.334580047480642"><ele>46.0</ele><time>2026-04-03T03:09:43Z</time></trkpt><trkpt lat="45.87748110195417" lon="12.33477931837003"><ele>46.0</ele><time>2026-04-03T03:09:44Z</time></trkpt><trkpt lat="45.87746268037691" lon="12.334988569837016"><ele>46.0</ele><time>2026-04-03T03:09:45Z</time></trkpt><trkpt lat="45.877438018457646" lon="12.335204039598276"><ele>46.0</ele><time>2026-04-03T03:09:46Z</time></trkpt><trkpt lat="45.87740607440378" lon="12.33542393521281"><ele>45.66666666666667</ele><time>2026-04-03T03:09:47Z</time></trkpt><trkpt lat="45.87736704868728" lon="12.335648328749212"><ele>45.333333333333336</ele><time>2026-04-03T03:09:48Z</time></trkpt><trkpt lat="45.877320330662435" lon="12.335876156620785"><ele>45.0</ele><time>2026-04-03T03:09:49Z</time></trkpt><trkpt lat="45.87726784123856" lon="12.336106040574014"><ele>45.0</ele><time>2026-04-03T03:09:50Z</time></trkpt><trkpt lat="45.877211901467085" lon="12.336340327994616"><ele>45.0</ele><time>2026-04-03T03:09:51Z</time></trkpt><trkpt lat="45.87715242313054" lon="12.336577893298342"><ele>45.0</ele><time>2026-04-03T03:09:52Z</time></trkpt><trkpt lat="45.87709348609824" lon="12.336824006936903"><ele>45.333333333333336</ele><time>2026-04-03T03:09:53Z</time></trkpt><trkpt lat="45.87703441519942" lon="12.337074348647274"><ele>45.66666666666667</ele><time>2026-04-03T03:09:54Z</time></trkpt><trkpt lat="45.87697359251131" lon="12.33732814512964"><ele>46.0</ele><time>2026-04-03T03:09:55Z</time></trkpt><trkpt lat="45.87691312312662" lon="12.337584521167116"><ele>46.0</ele><time>2026-04-03T03:09:56Z</time></trkpt><trkpt lat="45.87685147257902" lon="12.337843376114138"><ele>46.0</ele><time>2026-04-03T03:09:57Z</time></trkpt><trkpt lat="45.876788134931274" lon="12.338104589357222"><ele>46.0</ele><time>2026-04-03T03:09:58Z</time></trkpt><trkpt lat="45.87672329781373" lon="12.33836425273081"><ele>46.0</ele><time>2026-04-03T03:09:59Z</time></trkpt><trkpt lat="45.87665843297745" lon="12.338626940304799"><ele>46.0</ele><time>2026-04-03T03:10:00Z</time></trkpt><trkpt lat="45.87659234063991" lon="12.338889355258827"><ele>46.0</ele><time>2026-04-03T03:10:01Z</time></trkpt><trkpt lat="45.876525215492606" lon="12.339152539249657"><ele>45.66666666666667</ele><time>2026-04-03T03:10:02Z</time></trkpt><trkpt lat="45.876458578912356" lon="12.33941163318836"><ele>45.333333333333336</ele><time>2026-04-03T03:10:03Z</time></trkpt><trkpt lat="45.87639148189412" lon="12.339666925063309"><ele>45.0</ele><time>2026-04-03T03:10:04Z</time></trkpt><trkpt lat="45.876325368523325" lon="12.339916074606315"><ele>45.0</ele><time>2026-04-03T03:10:05Z</time></trkpt><trkpt lat="45.87626235843437" lon="12.340152269390707"><ele>45.0</ele><time>2026-04-03T03:10:06Z</time></trkpt><trkpt lat="45.87620488790923" lon="12.340368450947835"><ele>45.0</ele><time>2026-04-03T03:10:07Z</time></trkpt><trkpt lat="45.876156343351525" lon="12.340561330668454"><ele>44.6</ele><time>2026-04-03T03:10:08Z</time></trkpt><trkpt lat="45.87611513486601" lon="12.340733745772411"><ele>44.2</ele><time>2026-04-03T03:10:09Z</time></trkpt><trkpt lat="45.87607679472193" lon="12.340870509363977"><ele>43.8</ele><time>2026-04-03T03:10:10Z</time></trkpt><trkpt lat="45.87603091969291" lon="12.340983300324496"><ele>43.4</ele><time>2026-04-03T03:10:11Z</time></trkpt><trkpt lat="45.87596841311875" lon="12.341062166679139"><ele>43.0</ele><time>2026-04-03T03:10:12Z</time></trkpt><trkpt lat="45.875892257953005" lon="12.341120876096168"><ele>42.66666666666667</ele><time>2026-04-03T03:10:13Z</time></trkpt><trkpt lat="45.875811015819764" lon="12.34115307277385"><ele>42.333333333333336</ele><time>2026-04-03T03:10:14Z</time></trkpt><trkpt lat="45.87573042184334" lon="12.341153871906023"><ele>42.0</ele><time>2026-04-03T03:10:15Z</time></trkpt><trkpt lat="45.87565151902689" lon="12.34113210727467"><ele>41.666666666666664</ele><time>2026-04-03T03:10:16Z</time></trkpt><trkpt lat="45.87557064345007" lon="12.341083167823832"><ele>41.33333333333333</ele><time>2026-04-03T03:10:17Z</time></trkpt><trkpt lat="45.87548657592903" lon="12.341040405666874"><ele>41.0</ele><time>2026-04-03T03:10:18Z</time></trkpt><trkpt lat="45.87542461106196" lon="12.340898482347818"><ele>41.0</ele><time>2026-04-03T03:10:19Z</time></trkpt><trkpt lat="45.87535573518341" lon="12.340785474909486"><ele>41.0</ele><time>2026-04-03T03:10:20Z</time></trkpt><trkpt lat="45.87528504149125" lon="12.340663106162756"><ele>41.0</ele><time>2026-04-03T03:10:21Z</time></trkpt><trkpt lat="45.87519799553163" lon="12.340543520332323"><ele>41.0</ele><time>2026-04-03T03:10:22Z</time></trkpt><trkpt lat="45.87510718733503" lon="12.340417712198686"><ele>41.5</ele><time>2026-04-03T03:10:22.999Z</time></trkpt><trkpt lat="45.8750085296302" lon="12.340286600106774"><ele>42.0</ele><time>2026-04-03T03:10:23.999Z</time></trkpt><trkpt lat="45.87490757143747" lon="12.340151379781851"><ele>42.5</ele><time>2026-04-03T03:10:24.999Z</time></trkpt><trkpt lat="45.87480091124367" lon="12.340012799800121"><ele>43.0</ele><time>2026-04-03T03:10:25.999Z</time></trkpt><trkpt lat="45.8746889651473" lon="12.339869799093645"><ele>43.0</ele><time>2026-04-03T03:10:26.999Z</time></trkpt><trkpt lat="45.87457476798668" lon="12.339718462967394"><ele>43.0</ele><time>2026-04-03T03:10:27.999Z</time></trkpt><trkpt lat="45.87445690938761" lon="12.339562863204787"><ele>43.0</ele><time>2026-04-03T03:10:28.999Z</time></trkpt><trkpt lat="45.87433432907171" lon="12.339404945740064"><ele>42.333333333333336</ele><time>2026-04-03T03:10:29.999Z</time></trkpt><trkpt lat="45.87420989546759" lon="12.339251696763164"><ele>41.666666666666664</ele><time>2026-04-03T03:10:30.999Z</time></trkpt><trkpt lat="45.87407739671844" lon="12.339097605467908"><ele>41.0</ele><time>2026-04-03T03:10:31.999Z</time></trkpt><trkpt lat="45.873935318056795" lon="12.338954342534587"><ele>41.0</ele><time>2026-04-03T03:10:32.999Z</time></trkpt><trkpt lat="45.8737837667828" lon="12.338818877614747"><ele>41.0</ele><time>2026-04-03T03:10:33.999Z</time></trkpt><trkpt lat="45.87362522423838" lon="12.338690190629208"><ele>41.0</ele><time>2026-04-03T03:10:34.999Z</time></trkpt><trkpt lat="45.873467003096664" lon="12.338560947771485"><ele>40.33333333333333</ele><time>2026-04-03T03:10:35.999Z</time></trkpt><trkpt lat="45.873316881250425" lon="12.338418422588282"><ele>39.666666666666664</ele><time>2026-04-03T03:10:36.999Z</time></trkpt><trkpt lat="45.87316668405482" lon="12.338268433569414"><ele>39.0</ele><time>2026-04-03T03:10:37.999Z</time></trkpt><trkpt lat="45.873014848885155" lon="12.338125119521584"><ele>39.0</ele><time>2026-04-03T03:10:38.999Z</time></trkpt><trkpt lat="45.87285916918996" lon="12.33799422711922"><ele>39.0</ele><time>2026-04-03T03:10:39.999Z</time></trkpt><trkpt lat="45.87269900963968" lon="12.337867345511432"><ele>39.0</ele><time>2026-04-03T03:10:40.999Z</time></trkpt><trkpt lat="45.8725352427973" lon="12.33774467483132"><ele>38.666666666666664</ele><time>2026-04-03T03:10:41.999Z</time></trkpt><trkpt lat="45.87236858519959" lon="12.3376237133321"><ele>38.33333333333333</ele><time>2026-04-03T03:10:42.999Z</time></trkpt><trkpt lat="45.872196811178284" lon="12.33751527136816"><ele>38.0</ele><time>2026-04-03T03:10:43.999Z</time></trkpt><trkpt lat="45.87201789514658" lon="12.337420715552112"><ele>38.0</ele><time>2026-04-03T03:10:44.999Z</time></trkpt><trkpt lat="45.87183695654943" lon="12.337336532442002"><ele>38.0</ele><time>2026-04-03T03:10:45.999Z</time></trkpt><trkpt lat="45.87165732760862" lon="12.337234024484852"><ele>38.0</ele><time>2026-04-03T03:10:46.999Z</time></trkpt><trkpt lat="45.87147740025743" lon="12.337127507810079"><ele>38.666666666666664</ele><time>2026-04-03T03:10:47.999Z</time></trkpt><trkpt lat="45.87129995331628" lon="12.33702100226866"><ele>39.333333333333336</ele><time>2026-04-03T03:10:48.999Z</time></trkpt><trkpt lat="45.87111586865998" lon="12.336906662155549"><ele>40.0</ele><time>2026-04-03T03:10:49.999Z</time></trkpt><trkpt lat="45.87093100291776" lon="12.336797028011908"><ele>40.333333333333336</ele><time>2026-04-03T03:10:50.999Z</time></trkpt><trkpt lat="45.87074837589072" lon="12.336689933108323"><ele>40.666666666666664</ele><time>2026-04-03T03:10:51.999Z</time></trkpt><trkpt lat="45.87056685388265" lon="12.336584481267664"><ele>41.0</ele><time>2026-04-03T03:10:52.999Z</time></trkpt><trkpt lat="45.870385641010316" lon="12.336498416389036"><ele>41.0</ele><time>2026-04-03T03:10:53.999Z</time></trkpt><trkpt lat="45.87019948899065" lon="12.336430583814087"><ele>41.0</ele><time>2026-04-03T03:10:54.999Z</time></trkpt><trkpt lat="45.87001016801406" lon="12.336387562009842"><ele>41.0</ele><time>2026-04-03T03:10:55.999Z</time></trkpt><trkpt lat="45.86981759500277" lon="12.336363599658975"><ele>41.0</ele><time>2026-04-03T03:10:56.999Z</time></trkpt><trkpt lat="45.86962337480281" lon="12.336347501231106"><ele>41.0</ele><time>2026-04-03T03:10:57.999Z</time></trkpt><trkpt lat="45.869427228264875" lon="12.336336009903391"><ele>41.0</ele><time>2026-04-03T03:10:58.999Z</time></trkpt><trkpt lat="45.869229360834375" lon="12.336327266053601"><ele>41.0</ele><time>2026-04-03T03:10:59.999Z</time></trkpt><trkpt lat="45.869028971456764" lon="12.33631438413566"><ele>41.0</ele><time>2026-04-03T03:11:00.999Z</time></trkpt><trkpt lat="45.868826422381275" lon="12.336302663540883"><ele>41.0</ele><time>2026-04-03T03:11:01.999Z</time></trkpt><trkpt lat="45.868621837534796" lon="12.336291853515101"><ele>41.0</ele><time>2026-04-03T03:11:02.999Z</time></trkpt><trkpt lat="45.86841625083904" lon="12.336281100875011"><ele>41.0</ele><time>2026-04-03T03:11:03.999Z</time></trkpt><trkpt lat="45.86820869403534" lon="12.33626905248291"><ele>41.0</ele><time>2026-04-03T03:11:05Z</time></trkpt><trkpt lat="45.867999559812546" lon="12.336257947271926"><ele>41.0</ele><time>2026-04-03T03:11:06Z</time></trkpt><trkpt lat="45.86779094178687" lon="12.336247326963436"><ele>41.0</ele><time>2026-04-03T03:11:07Z</time></trkpt><trkpt lat="45.8675822046788" lon="12.336234426829465"><ele>41.0</ele><time>2026-04-03T03:11:08Z</time></trkpt><trkpt lat="45.86737163598763" lon="12.33622339241692"><ele>41.0</ele><time>2026-04-03T03:11:09Z</time></trkpt><trkpt lat="45.867159993060554" lon="12.33621185096231"><ele>41.0</ele><time>2026-04-03T03:11:10Z</time></trkpt><trkpt lat="45.86694827086976" lon="12.336200832511361"><ele>41.0</ele><time>2026-04-03T03:11:11Z</time></trkpt><trkpt lat="45.866735860486784" lon="12.336184955888413"><ele>41.33333333333333</ele><time>2026-04-03T03:11:12Z</time></trkpt><trkpt lat="45.86652448827101" lon="12.336177979589765"><ele>41.666666666666664</ele><time>2026-04-03T03:11:13Z</time></trkpt><trkpt lat="45.8663163723073" lon="12.336165672301576"><ele>42.0</ele><time>2026-04-03T03:11:14Z</time></trkpt><trkpt lat="45.86612583158323" lon="12.336156640725886"><ele>42.0</ele><time>2026-04-03T03:11:15Z</time></trkpt><trkpt lat="45.8659451526793" lon="12.336152248545021"><ele>42.0</ele><time>2026-04-03T03:11:16Z</time></trkpt><trkpt lat="45.865766407019024" lon="12.336171043260686"><ele>42.0</ele><time>2026-04-03T03:11:17Z</time></trkpt><trkpt lat="45.865587211208855" lon="12.336210633602056"><ele>42.0</ele><time>2026-04-03T03:11:18Z</time></trkpt><trkpt lat="45.86541048173277" lon="12.336272380591407"><ele>42.0</ele><time>2026-04-03T03:11:19Z</time></trkpt><trkpt lat="45.86523924412838" lon="12.336356556213907"><ele>42.0</ele><time>2026-04-03T03:11:20Z</time></trkpt><trkpt lat="45.86507016616354" lon="12.336462667611315"><ele>41.333333333333336</ele><time>2026-04-03T03:11:21Z</time></trkpt><trkpt lat="45.864903689583485" lon="12.336582891206312"><ele>40.66666666666667</ele><time>2026-04-03T03:11:22Z</time></trkpt><trkpt lat="45.864739853608164" lon="12.33671432037146"><ele>40.0</ele><time>2026-04-03T03:11:23Z</time></trkpt><trkpt lat="45.86457742395369" lon="12.336847807853344"><ele>40.0</ele><time>2026-04-03T03:11:24Z</time></trkpt><trkpt lat="45.86441777749727" lon="12.336975582237365"><ele>40.0</ele><time>2026-04-03T03:11:25Z</time></trkpt><trkpt lat="45.86426014149657" lon="12.337104134717707"><ele>40.0</ele><time>2026-04-03T03:11:26Z</time></trkpt><trkpt lat="45.864102469182434" lon="12.33722598314457"><ele>40.0</ele><time>2026-04-03T03:11:27Z</time></trkpt><trkpt lat="45.8639433021582" lon="12.337333909017378"><ele>40.0</ele><time>2026-04-03T03:11:28Z</time></trkpt><trkpt lat="45.86377829172159" lon="12.337414924360477"><ele>40.0</ele><time>2026-04-03T03:11:29Z</time></trkpt><trkpt lat="45.86360920446376" lon="12.337478867071196"><ele>40.0</ele><time>2026-04-03T03:11:30Z</time></trkpt><trkpt lat="45.86343665666607" lon="12.337524801985037"><ele>40.0</ele><time>2026-04-03T03:11:31Z</time></trkpt><trkpt lat="45.86325981029384" lon="12.337547518822012"><ele>40.0</ele><time>2026-04-03T03:11:32Z</time></trkpt><trkpt lat="45.86308098225728" lon="12.337554565890938"><ele>40.0</ele><time>2026-04-03T03:11:33Z</time></trkpt><trkpt lat="45.86290147910027" lon="12.337549873332597"><ele>40.0</ele><time>2026-04-03T03:11:34Z</time></trkpt><trkpt lat="45.862721439028874" lon="12.337527163806495"><ele>40.0</ele><time>2026-04-03T03:11:35Z</time></trkpt><trkpt lat="45.86254363504157" lon="12.337496711578222"><ele>39.66666666666667</ele><time>2026-04-03T03:11:36Z</time></trkpt><trkpt lat="45.862365509341544" lon="12.337460377949549"><ele>39.333333333333336</ele><time>2026-04-03T03:11:37Z</time></trkpt><trkpt lat="45.86219141342344" lon="12.337418856089863"><ele>39.0</ele><time>2026-04-03T03:11:38Z</time></trkpt><trkpt lat="45.86202281986037" lon="12.337376538330428"><ele>39.0</ele><time>2026-04-03T03:11:39Z</time></trkpt><trkpt lat="45.861860696666255" lon="12.337330368613214"><ele>39.0</ele><time>2026-04-03T03:11:40Z</time></trkpt><trkpt lat="45.86170257314539" lon="12.337277167752166"><ele>39.0</ele><time>2026-04-03T03:11:41Z</time></trkpt><trkpt lat="45.86155000986903" lon="12.337226071493712"><ele>39.25</ele><time>2026-04-03T03:11:42Z</time></trkpt><trkpt lat="45.861414119454956" lon="12.337169736346393"><ele>39.5</ele><time>2026-04-03T03:11:43Z</time></trkpt><trkpt lat="45.86127758954289" lon="12.33710189357213"><ele>39.75</ele><time>2026-04-03T03:11:44Z</time></trkpt><trkpt lat="45.86114445279567" lon="12.337007806998898"><ele>40.0</ele><time>2026-04-03T03:11:45Z</time></trkpt><trkpt lat="45.86101468961749" lon="12.336896835308453"><ele>40.0</ele><time>2026-04-03T03:11:46Z</time></trkpt><trkpt lat="45.86088213004927" lon="12.336776502543366"><ele>40.0</ele><time>2026-04-03T03:11:47Z</time></trkpt><trkpt lat="45.86074703893982" lon="12.336655652228686"><ele>40.0</ele><time>2026-04-03T03:11:48Z</time></trkpt><trkpt lat="45.860606784680364" lon="12.336529911820127"><ele>40.0</ele><time>2026-04-03T03:11:49Z</time></trkpt><trkpt lat="45.86046770782561" lon="12.33640382702076"><ele>40.0</ele><time>2026-04-03T03:11:50Z</time></trkpt><trkpt lat="45.8603296476957" lon="12.336277956325095"><ele>40.0</ele><time>2026-04-03T03:11:51Z</time></trkpt><trkpt lat="45.86019346394235" lon="12.336155525449188"><ele>40.0</ele><time>2026-04-03T03:11:52Z</time></trkpt><trkpt lat="45.86007032106135" lon="12.336034781792113"><ele>40.0</ele><time>2026-04-03T03:11:53Z</time></trkpt><trkpt lat="45.85995097723968" lon="12.335888651399479"><ele>40.0</ele><time>2026-04-03T03:11:54Z</time></trkpt><trkpt lat="45.85985813928403" lon="12.335700802459158"><ele>40.333333333333336</ele><time>2026-04-03T03:11:55Z</time></trkpt><trkpt lat="45.85975522562829" lon="12.33553023095917"><ele>40.666666666666664</ele><time>2026-04-03T03:11:56Z</time></trkpt><trkpt lat="45.859641053032824" lon="12.335377442353282"><ele>41.0</ele><time>2026-04-03T03:11:57Z</time></trkpt><trkpt lat="45.85955362948256" lon="12.335193356641653"><ele>41.0</ele><time>2026-04-03T03:11:58Z</time></trkpt><trkpt lat="45.85945675496509" lon="12.335053580636393"><ele>41.0</ele><time>2026-04-03T03:11:59Z</time></trkpt><trkpt lat="45.859378696258645" lon="12.33491458035195"><ele>41.0</ele><time>2026-04-03T03:12:00Z</time></trkpt><trkpt lat="45.85931072636689" lon="12.334783998153561"><ele>41.0</ele><time>2026-04-03T03:12:01Z</time></trkpt><trkpt lat="45.85928323625717" lon="12.334649503090931"><ele>41.0</ele><time>2026-04-03T03:12:02Z</time></trkpt><trkpt lat="45.859257249040326" lon="12.334505541197318"><ele>41.0</ele><time>2026-04-03T03:12:03Z</time></trkpt><trkpt lat="45.859264776786944" lon="12.33436409167083"><ele>41.0</ele><time>2026-04-03T03:12:04Z</time></trkpt><trkpt lat="45.859287359296324" lon="12.334212424925632"><ele>41.0</ele><time>2026-04-03T03:12:05Z</time></trkpt><trkpt lat="45.8592983274944" lon="12.334052009501075"><ele>41.0</ele><time>2026-04-03T03:12:06Z</time></trkpt><trkpt lat="45.85933868000731" lon="12.333900984740582"><ele>40.666666666666664</ele><time>2026-04-03T03:12:07Z</time></trkpt><trkpt lat="45.85937415580544" lon="12.333759223328475"><ele>40.33333333333333</ele><time>2026-04-03T03:12:08Z</time></trkpt><trkpt lat="45.85939697922592" lon="12.333630375723844"><ele>40.0</ele><time>2026-04-03T03:12:09Z</time></trkpt><trkpt lat="45.85941158841672" lon="12.333514108779822"><ele>39.666666666666664</ele><time>2026-04-03T03:12:10Z</time></trkpt><trkpt lat="45.859426829775714" lon="12.333398125780867"><ele>39.333333333333336</ele><time>2026-04-03T03:12:11Z</time></trkpt><trkpt lat="45.85946038812756" lon="12.33329025364366"><ele>39.0</ele><time>2026-04-03T03:12:12Z</time></trkpt><trkpt lat="45.85950013954854" lon="12.333181911875256"><ele>39.0</ele><time>2026-04-03T03:12:13Z</time></trkpt><trkpt lat="45.85953042008918" lon="12.333063545019074"><ele>39.0</ele><time>2026-04-03T03:12:14Z</time></trkpt><trkpt lat="45.859556419309605" lon="12.332929375700058"><ele>39.0</ele><time>2026-04-03T03:12:15Z</time></trkpt><trkpt lat="45.85958077116977" lon="12.332796432958268"><ele>39.0</ele><time>2026-04-03T03:12:16Z</time></trkpt><trkpt lat="45.85959036047647" lon="12.33265266782607"><ele>39.0</ele><time>2026-04-03T03:12:17Z</time></trkpt><trkpt lat="45.85959495470857" lon="12.332510231891272"><ele>39.25</ele><time>2026-04-03T03:12:18Z</time></trkpt><trkpt lat="45.859602992632176" lon="12.33236264993543"><ele>39.5</ele><time>2026-04-03T03:12:19Z</time></trkpt><trkpt lat="45.859611880617656" lon="12.332197446694705"><ele>39.75</ele><time>2026-04-03T03:12:20Z</time></trkpt><trkpt lat="45.85961975975696" lon="12.332018665188643"><ele>40.0</ele><time>2026-04-03T03:12:21Z</time></trkpt><trkpt lat="45.85962772081241" lon="12.33184704550658"><ele>40.0</ele><time>2026-04-03T03:12:22Z</time></trkpt><trkpt lat="45.85963398910666" lon="12.33167772309112"><ele>40.0</ele><time>2026-04-03T03:12:23Z</time></trkpt><trkpt lat="45.859635346858525" lon="12.33151104629728"><ele>40.0</ele><time>2026-04-03T03:12:24Z</time></trkpt><trkpt lat="45.859628737077216" lon="12.331357149478045"><ele>40.0</ele><time>2026-04-03T03:12:25Z</time></trkpt><trkpt lat="45.859605740618484" lon="12.33120703215866"><ele>40.0</ele><time>2026-04-03T03:12:25.999Z</time></trkpt><trkpt lat="45.859570559909145" lon="12.331061924902793"><ele>40.0</ele><time>2026-04-03T03:12:26.999Z</time></trkpt><trkpt lat="45.859522860882805" lon="12.330922974647033"><ele>40.0</ele><time>2026-04-03T03:12:27.999Z</time></trkpt><trkpt lat="45.859469203702226" lon="12.330786847506557"><ele>40.0</ele><time>2026-04-03T03:12:28.999Z</time></trkpt><trkpt lat="45.85939976672599" lon="12.330663622418168"><ele>40.0</ele><time>2026-04-03T03:12:29.999Z</time></trkpt><trkpt lat="45.859318569629984" lon="12.330544578151724"><ele>40.0</ele><time>2026-04-03T03:12:30.999Z</time></trkpt><trkpt lat="45.85922457440603" lon="12.330444283925443"><ele>40.4</ele><time>2026-04-03T03:12:31.999Z</time></trkpt><trkpt lat="45.85912709045348" lon="12.33035956427337"><ele>40.8</ele><time>2026-04-03T03:12:32.999Z</time></trkpt><trkpt lat="45.859037801603634" lon="12.330283159661644"><ele>41.2</ele><time>2026-04-03T03:12:33.999Z</time></trkpt><trkpt lat="45.85895683186287" lon="12.330216101785458"><ele>41.6</ele><time>2026-04-03T03:12:34.999Z</time></trkpt><trkpt lat="45.858885044800964" lon="12.330137474651686"><ele>42.0</ele><time>2026-04-03T03:12:35.999Z</time></trkpt><trkpt lat="45.85882711995488" lon="12.330049477589705"><ele>42.0</ele><time>2026-04-03T03:12:36.999Z</time></trkpt><trkpt lat="45.85877896538175" lon="12.329958977702086"><ele>42.0</ele><time>2026-04-03T03:12:37.999Z</time></trkpt><trkpt lat="45.858712593267" lon="12.329885953963922"><ele>42.0</ele><time>2026-04-03T03:12:38.999Z</time></trkpt><trkpt lat="45.8586277068181" lon="12.32984641465615"><ele>42.0</ele><time>2026-04-03T03:12:39.999Z</time></trkpt><trkpt lat="45.85853828502129" lon="12.32981448426864"><ele>42.0</ele><time>2026-04-03T03:12:40.999Z</time></trkpt><trkpt lat="45.85844350520518" lon="12.329765874056811"><ele>42.0</ele><time>2026-04-03T03:12:41.999Z</time></trkpt><trkpt lat="45.85835373234278" lon="12.329701351598617"><ele>42.0</ele><time>2026-04-03T03:12:42.999Z</time></trkpt><trkpt lat="45.85826579085245" lon="12.329618453732225"><ele>42.0</ele><time>2026-04-03T03:12:43.999Z</time></trkpt><trkpt lat="45.858175759988434" lon="12.329528813734417"><ele>42.0</ele><time>2026-04-03T03:12:44.999Z</time></trkpt><trkpt lat="45.858080052430935" lon="12.329434916651635"><ele>42.0</ele><time>2026-04-03T03:12:45.999Z</time></trkpt><trkpt lat="45.85797930914775" lon="12.329343754345723"><ele>42.0</ele><time>2026-04-03T03:12:46.999Z</time></trkpt><trkpt lat="45.857873429514406" lon="12.329251974631992"><ele>42.0</ele><time>2026-04-03T03:12:47.999Z</time></trkpt><trkpt lat="45.857755446265145" lon="12.3291584321499"><ele>42.0</ele><time>2026-04-03T03:12:48.999Z</time></trkpt><trkpt lat="45.85763434502314" lon="12.329065828494837"><ele>42.0</ele><time>2026-04-03T03:12:49.999Z</time></trkpt><trkpt lat="45.85750383506576" lon="12.328974847366341"><ele>42.0</ele><time>2026-04-03T03:12:50.999Z</time></trkpt><trkpt lat="45.85737172414348" lon="12.328878387433235"><ele>42.0</ele><time>2026-04-03T03:12:51.999Z</time></trkpt><trkpt lat="45.85723224678744" lon="12.328781935777979"><ele>42.0</ele><time>2026-04-03T03:12:52.999Z</time></trkpt><trkpt lat="45.85709051764274" lon="12.328681742962226"><ele>42.0</ele><time>2026-04-03T03:12:53.999Z</time></trkpt><trkpt lat="45.85694529574606" lon="12.328574236402746"><ele>42.0</ele><time>2026-04-03T03:12:54.999Z</time></trkpt><trkpt lat="45.85679861039236" lon="12.328464770911742"><ele>42.0</ele><time>2026-04-03T03:12:55.999Z</time></trkpt><trkpt lat="45.85664634076668" lon="12.328353555415122"><ele>42.0</ele><time>2026-04-03T03:12:56.999Z</time></trkpt><trkpt lat="45.856490954257296" lon="12.328240101585143"><ele>42.0</ele><time>2026-04-03T03:12:57.999Z</time></trkpt><trkpt lat="45.85633414914422" lon="12.328121102549407"><ele>42.0</ele><time>2026-04-03T03:12:58.999Z</time></trkpt><trkpt lat="45.856179082364164" lon="12.328003545843604"><ele>42.0</ele><time>2026-04-03T03:12:59.999Z</time></trkpt><trkpt lat="45.856021278524565" lon="12.327897913250828"><ele>42.0</ele><time>2026-04-03T03:13:00.999Z</time></trkpt><trkpt lat="45.85585481111882" lon="12.327822902708856"><ele>42.0</ele><time>2026-04-03T03:13:01.999Z</time></trkpt><trkpt lat="45.855684527941506" lon="12.327776823122635"><ele>41.333333333333336</ele><time>2026-04-03T03:13:02.999Z</time></trkpt><trkpt lat="45.855511760900654" lon="12.327754827207812"><ele>40.66666666666667</ele><time>2026-04-03T03:13:03.999Z</time></trkpt><trkpt lat="45.85533507659556" lon="12.327746901245797"><ele>40.0</ele><time>2026-04-03T03:13:04.999Z</time></trkpt><trkpt lat="45.85515827426756" lon="12.327738467463629"><ele>40.0</ele><time>2026-04-03T03:13:05.999Z</time></trkpt><trkpt lat="45.854987238782265" lon="12.327732386158875"><ele>40.0</ele><time>2026-04-03T03:13:06.999Z</time></trkpt><trkpt lat="45.85483759911695" lon="12.327715654025805"><ele>40.0</ele><time>2026-04-03T03:13:07.999Z</time></trkpt><trkpt lat="45.85469960247041" lon="12.327683540431696"><ele>40.0</ele><time>2026-04-03T03:13:08.999Z</time></trkpt><trkpt lat="45.85456516592684" lon="12.32763539006778"><ele>40.0</ele><time>2026-04-03T03:13:09.999Z</time></trkpt><trkpt lat="45.85443170974165" lon="12.327569206835152"><ele>40.0</ele><time>2026-04-03T03:13:11Z</time></trkpt><trkpt lat="45.85430466995607" lon="12.327487559923833"><ele>40.0</ele><time>2026-04-03T03:13:12Z</time></trkpt><trkpt lat="45.85417597078914" lon="12.327392991128738"><ele>40.0</ele><time>2026-04-03T03:13:13Z</time></trkpt><trkpt lat="45.85404137933569" lon="12.327288206005964"><ele>40.0</ele><time>2026-04-03T03:13:14Z</time></trkpt><trkpt lat="45.853899727324084" lon="12.327179659148419"><ele>40.0</ele><time>2026-04-03T03:13:15Z</time></trkpt><trkpt lat="45.853757607322464" lon="12.327072141853698"><ele>40.333333333333336</ele><time>2026-04-03T03:13:16Z</time></trkpt><trkpt lat="45.853612241907506" lon="12.326963893253886"><ele>40.666666666666664</ele><time>2026-04-03T03:13:17Z</time></trkpt><trkpt lat="45.8534620960998" lon="12.32685369862925"><ele>41.0</ele><time>2026-04-03T03:13:18Z</time></trkpt><trkpt lat="45.85330998354446" lon="12.326740082228346"><ele>40.33333333333333</ele><time>2026-04-03T03:13:19Z</time></trkpt><trkpt lat="45.85315355041806" lon="12.326627268377706"><ele>39.666666666666664</ele><time>2026-04-03T03:13:20Z</time></trkpt><trkpt lat="45.85299400272343" lon="12.326510239030963"><ele>39.0</ele><time>2026-04-03T03:13:21Z</time></trkpt><trkpt lat="45.852833495206035" lon="12.3263896365319"><ele>39.0</ele><time>2026-04-03T03:13:22Z</time></trkpt><trkpt lat="45.852675845524466" lon="12.326274179607347"><ele>39.0</ele><time>2026-04-03T03:13:23Z</time></trkpt><trkpt lat="45.852519140397156" lon="12.326157781304733"><ele>39.0</ele><time>2026-04-03T03:13:24Z</time></trkpt><trkpt lat="45.852364918782904" lon="12.326043835101096"><ele>39.0</ele><time>2026-04-03T03:13:25Z</time></trkpt><trkpt lat="45.852210849786125" lon="12.325928595259086"><ele>39.0</ele><time>2026-04-03T03:13:26Z</time></trkpt><trkpt lat="45.8520557539179" lon="12.325812919489188"><ele>39.0</ele><time>2026-04-03T03:13:27Z</time></trkpt><trkpt lat="45.85189959942429" lon="12.32570338971456"><ele>38.666666666666664</ele><time>2026-04-03T03:13:28Z</time></trkpt><trkpt lat="45.85174289695243" lon="12.325590895254182"><ele>38.33333333333333</ele><time>2026-04-03T03:13:29Z</time></trkpt><trkpt lat="45.85158906199992" lon="12.325484369618282"><ele>38.0</ele><time>2026-04-03T03:13:30Z</time></trkpt><trkpt lat="45.85144025177271" lon="12.325375394088773"><ele>38.0</ele><time>2026-04-03T03:13:31Z</time></trkpt><trkpt lat="45.85130455571507" lon="12.325274980948992"><ele>38.0</ele><time>2026-04-03T03:13:32Z</time></trkpt><trkpt lat="45.85117977343711" lon="12.325188786245972"><ele>38.0</ele><time>2026-04-03T03:13:33Z</time></trkpt><trkpt lat="45.85106803344766" lon="12.325097640916695"><ele>38.0</ele><time>2026-04-03T03:13:34Z</time></trkpt><trkpt lat="45.85096413917233" lon="12.32501950795951"><ele>38.5</ele><time>2026-04-03T03:13:35Z</time></trkpt><trkpt lat="45.85087468454919" lon="12.324947685808556"><ele>39.0</ele><time>2026-04-03T03:13:36Z</time></trkpt><trkpt lat="45.85079752996534" lon="12.324885358698598"><ele>39.5</ele><time>2026-04-03T03:13:37Z</time></trkpt><trkpt lat="45.850737515107575" lon="12.324831280007105"><ele>40.0</ele><time>2026-04-03T03:13:38Z</time></trkpt><trkpt lat="45.85068753902487" lon="12.324763782464903"><ele>40.5</ele><time>2026-04-03T03:13:39Z</time></trkpt><trkpt lat="45.850631623779606" lon="12.324712203294062"><ele>41.0</ele><time>2026-04-03T03:13:40Z</time></trkpt><trkpt lat="45.850565284368976" lon="12.324671661626816"><ele>41.0</ele><time>2026-04-03T03:13:41Z</time></trkpt><trkpt lat="45.850494340619896" lon="12.32463552488779"><ele>41.0</ele><time>2026-04-03T03:13:42Z</time></trkpt><trkpt lat="45.85041772729208" lon="12.324575769253169"><ele>41.0</ele><time>2026-04-03T03:13:43Z</time></trkpt><trkpt lat="45.85034119837859" lon="12.324504697819068"><ele>41.0</ele><time>2026-04-03T03:13:44Z</time></trkpt><trkpt lat="45.85026170187773" lon="12.324420304358474"><ele>41.0</ele><time>2026-04-03T03:13:45Z</time></trkpt><trkpt lat="45.850175886152684" lon="12.324316107545947"><ele>41.25</ele><time>2026-04-03T03:13:46Z</time></trkpt><trkpt lat="45.85008875814319" lon="12.324201667595693"><ele>41.5</ele><time>2026-04-03T03:13:47Z</time></trkpt><trkpt lat="45.849997094762266" lon="12.324079467167202"><ele>41.75</ele><time>2026-04-03T03:13:48Z</time></trkpt><trkpt lat="45.849910754808484" lon="12.323944243278202"><ele>42.0</ele><time>2026-04-03T03:13:49Z</time></trkpt><trkpt lat="45.84982961652935" lon="12.323802608683275"><ele>42.0</ele><time>2026-04-03T03:13:50Z</time></trkpt><trkpt lat="45.84974924470168" lon="12.323642705117992"><ele>42.0</ele><time>2026-04-03T03:13:51Z</time></trkpt><trkpt lat="45.84966736488046" lon="12.323462479009462"><ele>42.0</ele><time>2026-04-03T03:13:52Z</time></trkpt><trkpt lat="45.849587985534086" lon="12.32328455344145"><ele>42.0</ele><time>2026-04-03T03:13:53Z</time></trkpt><trkpt lat="45.84951020952295" lon="12.323112689359377"><ele>42.333333333333336</ele><time>2026-04-03T03:13:54Z</time></trkpt><trkpt lat="45.84942197572249" lon="12.322930159550223"><ele>42.66666666666667</ele><time>2026-04-03T03:13:55Z</time></trkpt><trkpt lat="45.84934133421523" lon="12.322752795976625"><ele>43.0</ele><time>2026-04-03T03:13:56Z</time></trkpt><trkpt lat="45.849258222654804" lon="12.322573433605777"><ele>43.0</ele><time>2026-04-03T03:13:57Z</time></trkpt><trkpt lat="45.8491748537149" lon="12.322389835683715"><ele>43.0</ele><time>2026-04-03T03:13:58Z</time></trkpt><trkpt lat="45.84908767400519" lon="12.322200712515702"><ele>43.0</ele><time>2026-04-03T03:13:59Z</time></trkpt><trkpt lat="45.84899874016894" lon="12.322005069003122"><ele>43.0</ele><time>2026-04-03T03:14:00Z</time></trkpt><trkpt lat="45.848911795060744" lon="12.321820730941194"><ele>43.0</ele><time>2026-04-03T03:14:01Z</time></trkpt><trkpt lat="45.8488228106518" lon="12.321629363080286"><ele>43.0</ele><time>2026-04-03T03:14:02Z</time></trkpt><trkpt lat="45.848734282865955" lon="12.32144012333546"><ele>43.0</ele><time>2026-04-03T03:14:03Z</time></trkpt><trkpt lat="45.84864797857079" lon="12.3212523318242"><ele>43.0</ele><time>2026-04-03T03:14:04Z</time></trkpt><trkpt lat="45.84855593352918" lon="12.32105981276459"><ele>43.0</ele><time>2026-04-03T03:14:05Z</time></trkpt><trkpt lat="45.84846319091731" lon="12.320869289377272"><ele>42.66666666666667</ele><time>2026-04-03T03:14:06Z</time></trkpt><trkpt lat="45.84836877563166" lon="12.320679490300476"><ele>42.333333333333336</ele><time>2026-04-03T03:14:07Z</time></trkpt><trkpt lat="45.84826841353522" lon="12.320496568147117"><ele>42.0</ele><time>2026-04-03T03:14:08Z</time></trkpt><trkpt lat="45.84815515336044" lon="12.320324533696564"><ele>42.666666666666664</ele><time>2026-04-03T03:14:09Z</time></trkpt><trkpt lat="45.8480308831916" lon="12.320173042850652"><ele>43.33333333333333</ele><time>2026-04-03T03:14:10Z</time></trkpt><trkpt lat="45.84789902163631" lon="12.320031065857599"><ele>44.0</ele><time>2026-04-03T03:14:11Z</time></trkpt><trkpt lat="45.84776387659922" lon="12.319894604084276"><ele>44.0</ele><time>2026-04-03T03:14:12Z</time></trkpt><trkpt lat="45.847627468258715" lon="12.319757288874728"><ele>44.0</ele><time>2026-04-03T03:14:13Z</time></trkpt><trkpt lat="45.84749776007591" lon="12.31962203994207"><ele>44.0</ele><time>2026-04-03T03:14:14Z</time></trkpt><trkpt lat="45.847371142663754" lon="12.319493734868676"><ele>44.0</ele><time>2026-04-03T03:14:15Z</time></trkpt><trkpt lat="45.84726018779891" lon="12.31938479625679"><ele>44.0</ele><time>2026-04-03T03:14:16Z</time></trkpt><trkpt lat="45.84716589602944" lon="12.319286178398503"><ele>44.0</ele><time>2026-04-03T03:14:17Z</time></trkpt><trkpt lat="45.84708111836778" lon="12.319196064523812"><ele>44.0</ele><time>2026-04-03T03:14:18Z</time></trkpt><trkpt lat="45.84700553332474" lon="12.319112568480424"><ele>44.0</ele><time>2026-04-03T03:14:19Z</time></trkpt><trkpt lat="45.84693430520559" lon="12.319030723268087"><ele>44.0</ele><time>2026-04-03T03:14:20Z</time></trkpt><trkpt lat="45.846872963769705" lon="12.318966581375244"><ele>44.0</ele><time>2026-04-03T03:14:21Z</time></trkpt><trkpt lat="45.846809624615275" lon="12.3188839894469"><ele>44.0</ele><time>2026-04-03T03:14:23Z</time></trkpt><trkpt lat="45.8467894447853" lon="12.318781076345067"><ele>44.0</ele><time>2026-04-03T03:14:25Z</time></trkpt><trkpt lat="45.84677446177867" lon="12.318685644587783"><ele>44.0</ele><time>2026-04-03T03:14:27Z</time></trkpt><trkpt lat="45.846860068077206" lon="12.318648795522083"><ele>44.0</ele><time>2026-04-03T03:14:27.999Z</time></trkpt><trkpt lat="45.84691016350099" lon="12.31854866852317"><ele>44.0</ele><time>2026-04-03T03:14:29.999Z</time></trkpt><trkpt lat="45.84695877267092" lon="12.318433952947268"><ele>44.0</ele><time>2026-04-03T03:14:31.999Z</time></trkpt><trkpt lat="45.847010094351546" lon="12.31834275470536"><ele>44.0</ele><time>2026-04-03T03:14:33.999Z</time></trkpt><trkpt lat="45.847070036706484" lon="12.318248211235776"><ele>44.0</ele><time>2026-04-03T03:16:29.999Z</time></trkpt><trkpt lat="45.847129608690615" lon="12.318145131684602"><ele>44.0</ele><time>2026-04-03T03:16:31.999Z</time></trkpt><trkpt lat="45.84718009991245" lon="12.31806060074025"><ele>44.0</ele><time>2026-04-03T03:16:33.999Z</time></trkpt><trkpt lat="45.84722607744467" lon="12.317972233986527"><ele>44.0</ele><time>2026-04-03T03:18:49.999Z</time></trkpt><trkpt lat="45.84727180672652" lon="12.31787534851619"><ele>44.0</ele><time>2026-04-03T03:18:51.999Z</time></trkpt><trkpt lat="45.84733134085469" lon="12.317757380363167"><ele>44.0</ele><time>2026-04-03T03:18:53.999Z</time></trkpt><trkpt lat="45.847404768245745" lon="12.31761510002752"><ele>44.0</ele><time>2026-04-03T03:18:55.999Z</time></trkpt><trkpt lat="45.84747218262547" lon="12.31748832516906"><ele>44.0</ele><time>2026-04-03T03:18:57.999Z</time></trkpt><trkpt lat="45.84751608307726" lon="12.317412858836052"><ele>44.0</ele><time>2026-04-03T03:18:59.999Z</time></trkpt><trkpt lat="45.84754816207426" lon="12.317320416113166"><ele>44.0</ele><time>2026-04-03T03:19:51Z</time></trkpt><trkpt lat="45.84759729096081" lon="12.31722000789101"><ele>44.0</ele><time>2026-04-03T03:19:53Z</time></trkpt><trkpt lat="45.84764577137736" lon="12.317129343641703"><ele>44.0</ele><time>2026-04-03T03:19:56Z</time></trkpt><trkpt lat="45.8476610317968" lon="12.317034331005345"><ele>44.0</ele><time>2026-04-03T03:20:47.999Z</time></trkpt><trkpt lat="45.8477259400918" lon="12.316924364403075"><ele>44.0</ele><time>2026-04-03T03:21:00.999Z</time></trkpt><trkpt lat="45.84776256510358" lon="12.316778571627518"><ele>44.0</ele><time>2026-04-03T03:21:02.999Z</time></trkpt><trkpt lat="45.847778800073336" lon="12.316624404533746"><ele>44.0</ele><time>2026-04-03T03:21:04.999Z</time></trkpt><trkpt lat="45.847813834882125" lon="12.316541158445336"><ele>44.0</ele><time>2026-04-03T03:21:11.999Z</time></trkpt><trkpt lat="45.84774857643253" lon="12.316510766706445"><ele>44.0</ele><time>2026-04-03T03:21:38Z</time></trkpt><trkpt lat="45.84780613177629" lon="12.31642966324941"><ele>44.0</ele><time>2026-04-03T03:23:33.999Z</time></trkpt><trkpt lat="45.84785386502846" lon="12.316327836054423"><ele>44.0</ele><time>2026-04-03T03:23:35.999Z</time></trkpt><trkpt lat="45.847893702085585" lon="12.316224497685365"><ele>44.0</ele><time>2026-04-03T03:23:37.999Z</time></trkpt><trkpt lat="45.847911849755555" lon="12.316112833024487"><ele>44.0</ele><time>2026-04-03T03:23:57Z</time></trkpt><trkpt lat="45.84793209211355" lon="12.315969660695776"><ele>44.0</ele><time>2026-04-03T03:23:59Z</time></trkpt><trkpt lat="45.847945627923906" lon="12.31587762995857"><ele>44.0</ele><time>2026-04-03T03:24:00Z</time></trkpt><trkpt lat="45.847961915405186" lon="12.315784183086564"><ele>44.0</ele><time>2026-04-03T03:24:01Z</time></trkpt><trkpt lat="45.84798620287358" lon="12.315647048539269"><ele>43.83333333333333</ele><time>2026-04-03T03:24:03Z</time></trkpt><trkpt lat="45.84800627930545" lon="12.315507530583364"><ele>43.666666666666664</ele><time>2026-04-03T03:24:20Z</time></trkpt><trkpt lat="45.84801463862685" lon="12.31539051474671"><ele>43.5</ele><time>2026-04-03T03:24:22Z</time></trkpt><trkpt lat="45.848026517421516" lon="12.315296593186673"><ele>43.333333333333336</ele><time>2026-04-03T03:24:25Z</time></trkpt><trkpt lat="45.84808788883096" lon="12.31524328619339"><ele>43.16666666666667</ele><time>2026-04-03T03:24:32.999Z</time></trkpt><trkpt lat="45.84809015133698" lon="12.31514088427027"><ele>43.0</ele><time>2026-04-03T03:27:59Z</time></trkpt><trkpt lat="45.84807649189178" lon="12.31502621377848"><ele>43.0</ele><time>2026-04-03T03:28:01Z</time></trkpt><trkpt lat="45.848083577654116" lon="12.314898834815091"><ele>43.0</ele><time>2026-04-03T03:28:03Z</time></trkpt><trkpt lat="45.84811248946252" lon="12.31477936223404"><ele>43.0</ele><time>2026-04-03T03:28:05Z</time></trkpt><trkpt lat="45.8481390631883" lon="12.314610684465618"><ele>43.0</ele><time>2026-04-03T03:28:22.999Z</time></trkpt><trkpt lat="45.84817009505573" lon="12.314522195659082"><ele>43.0</ele><time>2026-04-03T03:28:25.999Z</time></trkpt><trkpt lat="45.84826584450404" lon="12.314505062952705"><ele>43.0</ele><time>2026-04-03T03:28:28.999Z</time></trkpt><trkpt lat="45.848347850075385" lon="12.314522981783469"><ele>43.0</ele><time>2026-04-03T03:28:31.999Z</time></trkpt><trkpt lat="45.848406290220986" lon="12.314557700635483"><ele>43.0</ele><time>2026-04-03T03:28:35.999Z</time></trkpt><trkpt lat="45.848438468595525" lon="12.314479252063759"><ele>43.0</ele><time>2026-04-03T03:28:39.999Z</time></trkpt><trkpt lat="45.848386542453106" lon="12.314573356710842"><ele>43.0</ele><time>2026-04-03T03:29:18.999Z</time></trkpt><trkpt lat="45.8483788672754" lon="12.314703758485477"><ele>43.0</ele><time>2026-04-03T03:29:21.999Z</time></trkpt><trkpt lat="45.848386924064464" lon="12.314848596936521"><ele>43.0</ele><time>2026-04-03T03:29:23.999Z</time></trkpt><trkpt lat="45.848390486236056" lon="12.314974909952504"><ele>43.0</ele><time>2026-04-03T03:29:25.999Z</time></trkpt><trkpt lat="45.84835446345718" lon="12.315058180384314"><ele>43.0</ele><time>2026-04-03T03:29:29.999Z</time></trkpt><trkpt lat="45.848381541653715" lon="12.315157431673537"><ele>43.0</ele><time>2026-04-03T03:30:56.999Z</time></trkpt><trkpt lat="45.84837693593235" lon="12.315306608108887"><ele>43.0</ele><time>2026-04-03T03:30:58.999Z</time></trkpt><trkpt lat="45.84837495655258" lon="12.315400253736916"><ele>43.0</ele><time>2026-04-03T03:30:59.999Z</time></trkpt><trkpt lat="45.84834961634417" lon="12.31554276167981"><ele>43.16666666666667</ele><time>2026-04-03T03:31:01.999Z</time></trkpt><trkpt lat="45.84836256645319" lon="12.315649897393437"><ele>43.333333333333336</ele><time>2026-04-03T03:31:04.999Z</time></trkpt><trkpt lat="45.84843212682159" lon="12.315750362353013"><ele>43.5</ele><time>2026-04-03T03:32:09Z</time></trkpt><trkpt lat="45.848533193621584" lon="12.315792292894752"><ele>43.666666666666664</ele><time>2026-04-03T03:32:11Z</time></trkpt><trkpt lat="45.848597394823145" lon="12.31578903329277"><ele>43.83333333333333</ele><time>2026-04-03T03:32:12Z</time></trkpt><trkpt lat="45.84866480233233" lon="12.315783113033124"><ele>44.0</ele><time>2026-04-03T03:32:13Z</time></trkpt><trkpt lat="45.84873826380759" lon="12.315778301152578"><ele>44.0</ele><time>2026-04-03T03:32:14Z</time></trkpt><trkpt lat="45.8488096227338" lon="12.31578006540968"><ele>44.0</ele><time>2026-04-03T03:32:15Z</time></trkpt><trkpt lat="45.848878378177005" lon="12.315780977706634"><ele>44.0</ele><time>2026-04-03T03:32:16Z</time></trkpt><trkpt lat="45.84896083889162" lon="12.315775357758001"><ele>44.0</ele><time>2026-04-03T03:32:18Z</time></trkpt><trkpt lat="45.84902440241151" lon="12.315788605342181"><ele>44.0</ele><time>2026-04-03T03:32:33.999Z</time></trkpt><trkpt lat="45.84910793555541" lon="12.31579599418548"><ele>44.0</ele><time>2026-04-03T03:32:36.999Z</time></trkpt><trkpt lat="45.849196955575685" lon="12.315803824862588"><ele>44.0</ele><time>2026-04-03T03:32:39.999Z</time></trkpt><trkpt lat="45.849277251135035" lon="12.315808934443284"><ele>44.0</ele><time>2026-04-03T03:32:41.999Z</time></trkpt><trkpt lat="45.8493966870528" lon="12.315821756110099"><ele>44.0</ele><time>2026-04-03T03:32:43.999Z</time></trkpt><trkpt lat="45.84946874315969" lon="12.31583146940571"><ele>44.0</ele><time>2026-04-03T03:32:44.999Z</time></trkpt><trkpt lat="45.849546369456384" lon="12.315869440405361"><ele>44.0</ele><time>2026-04-03T03:32:45.999Z</time></trkpt><trkpt lat="45.84962603508785" lon="12.315855725558128"><ele>44.0</ele><time>2026-04-03T03:32:46.999Z</time></trkpt><trkpt lat="45.849701017516125" lon="12.315867159972475"><ele>43.800000000000004</ele><time>2026-04-03T03:32:47.999Z</time></trkpt><trkpt lat="45.849808933313646" lon="12.315891089014675"><ele>43.6</ele><time>2026-04-03T03:32:49.999Z</time></trkpt><trkpt lat="45.849900289656226" lon="12.315925020370189"><ele>43.4</ele><time>2026-04-03T03:32:51.999Z</time></trkpt><trkpt lat="45.84997455509904" lon="12.315946368803745"><ele>43.2</ele><time>2026-04-03T03:32:53.999Z</time></trkpt><trkpt lat="45.850022482134584" lon="12.315766792819547"><ele>43.0</ele><time>2026-04-03T03:32:54.999Z</time></trkpt><trkpt lat="45.85006086385838" lon="12.315613755700918"><ele>43.0</ele><time>2026-04-03T03:32:56.999Z</time></trkpt><trkpt lat="45.850097242883635" lon="12.315451714417657"><ele>43.0</ele><time>2026-04-03T03:32:58.999Z</time></trkpt><trkpt lat="45.850140106394015" lon="12.315319527613253"><ele>43.0</ele><time>2026-04-03T03:33:00.999Z</time></trkpt><trkpt lat="45.850170353290885" lon="12.315228587619396"><ele>43.0</ele><time>2026-04-03T03:33:02.999Z</time></trkpt><trkpt lat="45.850158990887756" lon="12.315132810616378"><ele>43.0</ele><time>2026-04-03T03:33:04.999Z</time></trkpt><trkpt lat="45.8500423490333" lon="12.31504062449003"><ele>43.0</ele><time>2026-04-03T03:33:09.999Z</time></trkpt><trkpt lat="45.84999245467527" lon="12.315110384000828"><ele>43.0</ele><time>2026-04-03T03:33:12.999Z</time></trkpt><trkpt lat="45.84998433750406" lon="12.315202901285103"><ele>43.0</ele><time>2026-04-03T03:33:16.999Z</time></trkpt><trkpt lat="45.85002353750183" lon="12.315274450708413"><ele>43.0</ele><time>2026-04-03T03:33:34.999Z</time></trkpt><trkpt lat="45.850034299202115" lon="12.31537750844569"><ele>43.0</ele><time>2026-04-03T03:34:05.999Z</time></trkpt><trkpt lat="45.8500110457284" lon="12.315501272015451"><ele>43.0</ele><time>2026-04-03T03:35:39.998Z</time></trkpt><trkpt lat="45.84999049366282" lon="12.315638644429814"><ele>43.0</ele><time>2026-04-03T03:35:41.998Z</time></trkpt><trkpt lat="45.84996293124391" lon="12.31578781685283"><ele>43.0</ele><time>2026-04-03T03:35:43.998Z</time></trkpt><trkpt lat="45.84987859937316" lon="12.315875362478284"><ele>43.0</ele><time>2026-04-03T03:35:45.998Z</time></trkpt><trkpt lat="45.84981338531866" lon="12.315876363118043"><ele>43.0</ele><time>2026-04-03T03:35:46.998Z</time></trkpt><trkpt lat="45.84974196431758" lon="12.315860164157112"><ele>43.0</ele><time>2026-04-03T03:35:47.998Z</time></trkpt><trkpt lat="45.8496673690132" lon="12.315844305227902"><ele>43.0</ele><time>2026-04-03T03:35:48.998Z</time></trkpt><trkpt lat="45.84959296208851" lon="12.315824626809027"><ele>43.0</ele><time>2026-04-03T03:35:49.998Z</time></trkpt><trkpt lat="45.84951062986131" lon="12.315812995157751"><ele>43.0</ele><time>2026-04-03T03:35:50.998Z</time></trkpt><trkpt lat="45.84942611784713" lon="12.315800726637626"><ele>43.0</ele><time>2026-04-03T03:35:51.998Z</time></trkpt><trkpt lat="45.84933952413062" lon="12.315793641309778"><ele>43.0</ele><time>2026-04-03T03:35:52.998Z</time></trkpt><trkpt lat="45.84926382235774" lon="12.315785562284324"><ele>43.0</ele><time>2026-04-03T03:35:53.998Z</time></trkpt><trkpt lat="45.84915956100484" lon="12.315775330012071"><ele>43.0</ele><time>2026-04-03T03:35:55.998Z</time></trkpt><trkpt lat="45.84908915722044" lon="12.31576990107962"><ele>43.2</ele><time>2026-04-03T03:35:57.999Z</time></trkpt><trkpt lat="45.848997816606605" lon="12.315766314420783"><ele>43.4</ele><time>2026-04-03T03:35:59.999Z</time></trkpt><trkpt lat="45.848868573699974" lon="12.315763799370954"><ele>43.6</ele><time>2026-04-03T03:36:01.999Z</time></trkpt><trkpt lat="45.84878950641404" lon="12.315763961640615"><ele>43.800000000000004</ele><time>2026-04-03T03:36:02.999Z</time></trkpt><trkpt lat="45.84870606209483" lon="12.315764390608582"><ele>44.0</ele><time>2026-04-03T03:36:03.999Z</time></trkpt><trkpt lat="45.848627553629974" lon="12.315765900124573"><ele>44.0</ele><time>2026-04-03T03:36:04.999Z</time></trkpt><trkpt lat="45.8485167286057" lon="12.31576691229131"><ele>44.0</ele><time>2026-04-03T03:36:06.999Z</time></trkpt><trkpt lat="45.848430677490605" lon="12.315731673156048"><ele>44.0</ele><time>2026-04-03T03:36:08.999Z</time></trkpt><trkpt lat="45.848368042197805" lon="12.315616175176126"><ele>44.0</ele><time>2026-04-03T03:36:10.999Z</time></trkpt><trkpt lat="45.848367683094395" lon="12.315515593702276"><ele>44.0</ele><time>2026-04-03T03:36:11.999Z</time></trkpt><trkpt lat="45.84837477811688" lon="12.315415719103372"><ele>44.0</ele><time>2026-04-03T03:36:12.999Z</time></trkpt><trkpt lat="45.848378878326315" lon="12.315313020526661"><ele>44.0</ele><time>2026-04-03T03:36:13.999Z</time></trkpt><trkpt lat="45.84838117988254" lon="12.315201410824177"><ele>44.0</ele><time>2026-04-03T03:36:15Z</time></trkpt><trkpt lat="45.84838155688028" lon="12.315086532308635"><ele>44.0</ele><time>2026-04-03T03:36:16Z</time></trkpt><trkpt lat="45.848384031274044" lon="12.314971345840284"><ele>44.0</ele><time>2026-04-03T03:36:17Z</time></trkpt><trkpt lat="45.84838482100624" lon="12.314853665816612"><ele>44.0</ele><time>2026-04-03T03:36:18Z</time></trkpt><trkpt lat="45.84838541416135" lon="12.314742553663953"><ele>44.0</ele><time>2026-04-03T03:36:19Z</time></trkpt><trkpt lat="45.84838365358207" lon="12.314646131582982"><ele>44.0</ele><time>2026-04-03T03:36:20Z</time></trkpt><trkpt lat="45.84835561287491" lon="12.31451341091198"><ele>44.0</ele><time>2026-04-03T03:36:22Z</time></trkpt><trkpt lat="45.848296273851645" lon="12.314434491250328"><ele>44.0</ele><time>2026-04-03T03:36:24Z</time></trkpt><trkpt lat="45.8482358197074" lon="12.314389341720391"><ele>44.0</ele><time>2026-04-03T03:36:27Z</time></trkpt><trkpt lat="45.848195829885015" lon="12.314285337496159"><ele>44.0</ele><time>2026-04-03T03:36:31Z</time></trkpt><trkpt lat="45.848211849012316" lon="12.314182754175583"><ele>44.0</ele><time>2026-04-03T03:36:33Z</time></trkpt><trkpt lat="45.84824164287539" lon="12.314057410900936"><ele>44.166666666666664</ele><time>2026-04-03T03:36:35Z</time></trkpt><trkpt lat="45.84828012898163" lon="12.313901907013413"><ele>44.33333333333333</ele><time>2026-04-03T03:36:37Z</time></trkpt><trkpt lat="45.84830426772292" lon="12.313808807554352"><ele>44.5</ele><time>2026-04-03T03:36:38Z</time></trkpt><trkpt lat="45.84833410439013" lon="12.3137066165239"><ele>44.666666666666664</ele><time>2026-04-03T03:36:39Z</time></trkpt><trkpt lat="45.8483723256493" lon="12.313601430988877"><ele>44.833333333333336</ele><time>2026-04-03T03:36:40Z</time></trkpt><trkpt lat="45.84841335673425" lon="12.313509267363315"><ele>45.0</ele><time>2026-04-03T03:36:41Z</time></trkpt><trkpt lat="45.8484723798279" lon="12.313391516709167"><ele>45.166666666666664</ele><time>2026-04-03T03:36:43Z</time></trkpt><trkpt lat="45.84851472398091" lon="12.31331856875804"><ele>45.333333333333336</ele><time>2026-04-03T03:38:01Z</time></trkpt><trkpt lat="45.848550752245025" lon="12.313230880669204"><ele>45.5</ele><time>2026-04-03T03:38:04Z</time></trkpt><trkpt lat="45.848596787732525" lon="12.31312872656939"><ele>45.66666666666667</ele><time>2026-04-03T03:38:06Z</time></trkpt><trkpt lat="45.84865448233502" lon="12.31304906394161"><ele>45.833333333333336</ele><time>2026-04-03T03:38:09Z</time></trkpt><trkpt lat="45.84870839252436" lon="12.312976691208439"><ele>46.0</ele><time>2026-04-03T03:39:59Z</time></trkpt><trkpt lat="45.848745454772214" lon="12.312872390396567"><ele>46.0</ele><time>2026-04-03T03:40:03Z</time></trkpt><trkpt lat="45.848799880137555" lon="12.312723178165264"><ele>46.0</ele><time>2026-04-03T03:40:06Z</time></trkpt><trkpt lat="45.84884700726092" lon="12.31258834544906"><ele>46.0</ele><time>2026-04-03T03:40:08Z</time></trkpt><trkpt lat="45.84888197191317" lon="12.31247488956385"><ele>46.0</ele><time>2026-04-03T03:40:09.999Z</time></trkpt><trkpt lat="45.84892294274648" lon="12.312362282166715"><ele>46.0</ele><time>2026-04-03T03:40:11.999Z</time></trkpt><trkpt lat="45.84894542877663" lon="12.312243874034559"><ele>46.0</ele><time>2026-04-03T03:40:13.999Z</time></trkpt><trkpt lat="45.848896025673" lon="12.312134670434704"><ele>46.0</ele><time>2026-04-03T03:40:15.999Z</time></trkpt><trkpt lat="45.84880597126698" lon="12.31211607225463"><ele>46.0</ele><time>2026-04-03T03:40:17.999Z</time></trkpt><trkpt lat="45.848709384974796" lon="12.312135428394967"><ele>46.0</ele><time>2026-04-03T03:40:19.999Z</time></trkpt><trkpt lat="45.84864556591482" lon="12.312130537574856"><ele>46.0</ele><time>2026-04-03T03:40:20.999Z</time></trkpt><trkpt lat="45.84857673842892" lon="12.312127293356083"><ele>46.0</ele><time>2026-04-03T03:40:21.999Z</time></trkpt><trkpt lat="45.848509240191795" lon="12.312133117584658"><ele>45.833333333333336</ele><time>2026-04-03T03:40:22.999Z</time></trkpt><trkpt lat="45.848445205352796" lon="12.312144791420144"><ele>45.66666666666667</ele><time>2026-04-03T03:40:23.999Z</time></trkpt><trkpt lat="45.848345966122594" lon="12.31215662871372"><ele>45.5</ele><time>2026-04-03T03:40:25.999Z</time></trkpt><trkpt lat="45.848280170200646" lon="12.312158641706505"><ele>45.333333333333336</ele><time>2026-04-03T03:40:28Z</time></trkpt><trkpt lat="45.848209271610294" lon="12.312169803793328"><ele>45.166666666666664</ele><time>2026-04-03T03:40:45Z</time></trkpt><trkpt lat="45.84810790207379" lon="12.312184900764528"><ele>45.0</ele><time>2026-04-03T03:40:47Z</time></trkpt><trkpt lat="45.84803566104441" lon="12.312198558982448"><ele>45.0</ele><time>2026-04-03T03:40:48Z</time></trkpt><trkpt lat="45.84795634848568" lon="12.312204733926205"><ele>45.0</ele><time>2026-04-03T03:40:49Z</time></trkpt><trkpt lat="45.84786727327709" lon="12.312222141006304"><ele>45.0</ele><time>2026-04-03T03:40:50Z</time></trkpt><trkpt lat="45.8477763562101" lon="12.31223246372961"><ele>45.0</ele><time>2026-04-03T03:40:51Z</time></trkpt><trkpt lat="45.847677748098135" lon="12.312242905887217"><ele>45.0</ele><time>2026-04-03T03:40:52Z</time></trkpt><trkpt lat="45.84758084108501" lon="12.31225237307666"><ele>44.6</ele><time>2026-04-03T03:40:53Z</time></trkpt><trkpt lat="45.84748344697793" lon="12.312259797484293"><ele>44.2</ele><time>2026-04-03T03:40:54Z</time></trkpt><trkpt lat="45.84738471747808" lon="12.31227682699017"><ele>43.8</ele><time>2026-04-03T03:40:55Z</time></trkpt><trkpt lat="45.84728656947593" lon="12.312289559669212"><ele>43.4</ele><time>2026-04-03T03:40:56Z</time></trkpt><trkpt lat="45.84718999343365" lon="12.312316407093896"><ele>43.0</ele><time>2026-04-03T03:40:57Z</time></trkpt><trkpt lat="45.84710008195006" lon="12.31233785766904"><ele>43.0</ele><time>2026-04-03T03:40:58Z</time></trkpt><trkpt lat="45.8470117985878" lon="12.312369688221187"><ele>43.0</ele><time>2026-04-03T03:40:59Z</time></trkpt><trkpt lat="45.84692738295285" lon="12.312401833737647"><ele>43.0</ele><time>2026-04-03T03:41:00Z</time></trkpt><trkpt lat="45.84684322638774" lon="12.312437111560948"><ele>43.0</ele><time>2026-04-03T03:41:01Z</time></trkpt><trkpt lat="45.84676204647021" lon="12.312480087632707"><ele>43.0</ele><time>2026-04-03T03:41:02Z</time></trkpt><trkpt lat="45.84668900554942" lon="12.312514170072737"><ele>43.0</ele><time>2026-04-03T03:41:03Z</time></trkpt><trkpt lat="45.84661643826269" lon="12.312557620865558"><ele>43.28571428571429</ele><time>2026-04-03T03:41:04Z</time></trkpt><trkpt lat="45.846550035627025" lon="12.312600008687056"><ele>43.57142857142857</ele><time>2026-04-03T03:41:05Z</time></trkpt><trkpt lat="45.84648539923553" lon="12.312643546604914"><ele>43.85714285714286</ele><time>2026-04-03T03:41:06Z</time></trkpt><trkpt lat="45.846424565257145" lon="12.312689679146715"><ele>44.142857142857146</ele><time>2026-04-03T03:41:07Z</time></trkpt><trkpt lat="45.84636640527728" lon="12.312737591590293"><ele>44.42857142857143</ele><time>2026-04-03T03:41:08Z</time></trkpt><trkpt lat="45.84630671559953" lon="12.31279219388555"><ele>44.714285714285715</ele><time>2026-04-03T03:41:09Z</time></trkpt><trkpt lat="45.8462469693477" lon="12.312846999789189"><ele>45.0</ele><time>2026-04-03T03:41:10Z</time></trkpt><trkpt lat="45.84618845979123" lon="12.312899075521774"><ele>45.0</ele><time>2026-04-03T03:41:11Z</time></trkpt><trkpt lat="45.84613248800957" lon="12.312943402085697"><ele>45.0</ele><time>2026-04-03T03:41:12Z</time></trkpt><trkpt lat="45.846019960595854" lon="12.312982144802085"><ele>45.0</ele><time>2026-04-03T03:41:14Z</time></trkpt><trkpt lat="45.84591043872953" lon="12.31294362673673"><ele>45.0</ele><time>2026-04-03T03:41:16Z</time></trkpt><trkpt lat="45.84580714429469" lon="12.312881879043385"><ele>45.0</ele><time>2026-04-03T03:41:18Z</time></trkpt><trkpt lat="45.845723293171275" lon="12.312803035709607"><ele>45.0</ele><time>2026-04-03T03:41:20Z</time></trkpt><trkpt lat="45.845662351969786" lon="12.31276533899237"><ele>45.0</ele><time>2026-04-03T03:41:22Z</time></trkpt><trkpt lat="45.84568181679694" lon="12.312635890952832"><ele>45.0</ele><time>2026-04-03T03:42:05Z</time></trkpt><trkpt lat="45.845677091551146" lon="12.312537333262643"><ele>45.0</ele><time>2026-04-03T03:43:11Z</time></trkpt><trkpt lat="45.8456405864231" lon="12.312397164545862"><ele>45.0</ele><time>2026-04-03T03:43:13Z</time></trkpt><trkpt lat="45.84562412974484" lon="12.312283291034886"><ele>45.0</ele><time>2026-04-03T03:43:15Z</time></trkpt><trkpt lat="45.84559793875696" lon="12.31219202220224"><ele>45.166666666666664</ele><time>2026-04-03T03:43:31Z</time></trkpt><trkpt lat="45.845582557499036" lon="12.312101147082586"><ele>45.333333333333336</ele><time>2026-04-03T03:43:33Z</time></trkpt><trkpt lat="45.845548684082914" lon="12.31199697543999"><ele>45.5</ele><time>2026-04-03T03:43:51Z</time></trkpt><trkpt lat="45.84551498634016" lon="12.31183750205194"><ele>45.66666666666667</ele><time>2026-04-03T03:43:53Z</time></trkpt><trkpt lat="45.84549621419994" lon="12.311732801863668"><ele>45.833333333333336</ele><time>2026-04-03T03:43:54Z</time></trkpt><trkpt lat="45.84547901082952" lon="12.311640957716374"><ele>46.0</ele><time>2026-04-03T03:43:55Z</time></trkpt><trkpt lat="45.84545513935866" lon="12.31150763709584"><ele>46.0</ele><time>2026-04-03T03:43:57Z</time></trkpt><trkpt lat="45.84545084562589" lon="12.311411452676982"><ele>46.0</ele><time>2026-04-03T03:44:00Z</time></trkpt><trkpt lat="45.84543076072906" lon="12.311298182538566"><ele>46.0</ele><time>2026-04-03T03:46:43.999Z</time></trkpt><trkpt lat="45.84539318154939" lon="12.311166858169495"><ele>46.0</ele><time>2026-04-03T03:46:46Z</time></trkpt><trkpt lat="45.84535681026748" lon="12.311005803690456"><ele>46.0</ele><time>2026-04-03T03:46:48Z</time></trkpt><trkpt lat="45.845338417229" lon="12.310910955595915"><ele>46.0</ele><time>2026-04-03T03:46:49Z</time></trkpt><trkpt lat="45.84531884733459" lon="12.310810065473039"><ele>46.0</ele><time>2026-04-03T03:46:50Z</time></trkpt><trkpt lat="45.84529757047718" lon="12.310704879678088"><ele>46.0</ele><time>2026-04-03T03:46:51Z</time></trkpt><trkpt lat="45.845275154482586" lon="12.310594199116258"><ele>46.0</ele><time>2026-04-03T03:46:52Z</time></trkpt><trkpt lat="45.845252793719176" lon="12.310484241511277"><ele>46.0</ele><time>2026-04-03T03:46:53Z</time></trkpt><trkpt lat="45.84523227367646" lon="12.310381057434546"><ele>46.0</ele><time>2026-04-03T03:46:54Z</time></trkpt><trkpt lat="45.845214504811146" lon="12.310284435538327"><ele>46.0</ele><time>2026-04-03T03:46:55Z</time></trkpt><trkpt lat="45.84519038305559" lon="12.310128257903582"><ele>46.0</ele><time>2026-04-03T03:46:57Z</time></trkpt><trkpt lat="45.84517638171444" lon="12.31000456684831"><ele>46.0</ele><time>2026-04-03T03:46:59Z</time></trkpt><trkpt lat="45.84516144544892" lon="12.30991455838147"><ele>46.0</ele><time>2026-04-03T03:47:01Z</time></trkpt><trkpt lat="45.845066940950524" lon="12.309886383955975"><ele>46.0</ele><time>2026-04-03T03:47:04Z</time></trkpt><trkpt lat="45.845125137053316" lon="12.309839943610065"><ele>46.0</ele><time>2026-04-03T03:47:18Z</time></trkpt><trkpt lat="45.845108649865075" lon="12.309946551193372"><ele>46.0</ele><time>2026-04-03T03:47:28Z</time></trkpt><trkpt lat="45.845121595417" lon="12.31003775600397"><ele>46.0</ele><time>2026-04-03T03:47:29Z</time></trkpt><trkpt lat="45.845134989963285" lon="12.310126095350322"><ele>46.0</ele><time>2026-04-03T03:47:30Z</time></trkpt><trkpt lat="45.84515183775473" lon="12.310224345121162"><ele>46.0</ele><time>2026-04-03T03:47:31Z</time></trkpt><trkpt lat="45.84516889509605" lon="12.310332958855627"><ele>46.0</ele><time>2026-04-03T03:47:32Z</time></trkpt><trkpt lat="45.8451906920779" lon="12.31045066427784"><ele>46.0</ele><time>2026-04-03T03:47:33Z</time></trkpt><trkpt lat="45.84521358060822" lon="12.310567757228242"><ele>46.0</ele><time>2026-04-03T03:47:34Z</time></trkpt><trkpt lat="45.845234479622754" lon="12.310677587620305"><ele>45.66666666666667</ele><time>2026-04-03T03:47:35Z</time></trkpt><trkpt lat="45.845251500964835" lon="12.310782265702732"><ele>45.333333333333336</ele><time>2026-04-03T03:47:36Z</time></trkpt><trkpt lat="45.845270281004154" lon="12.310892285219571"><ele>45.0</ele><time>2026-04-03T03:47:38Z</time></trkpt><trkpt lat="45.84528652782508" lon="12.311009131144793"><ele>44.666666666666664</ele><time>2026-04-03T03:50:58Z</time></trkpt><trkpt lat="45.84530807418102" lon="12.311107624342112"><ele>44.33333333333333</ele><time>2026-04-03T03:50:59Z</time></trkpt><trkpt lat="45.845332553691726" lon="12.311212503544528"><ele>44.0</ele><time>2026-04-03T03:51:00Z</time></trkpt><trkpt lat="45.84535387831068" lon="12.311320176249597"><ele>44.400000000000006</ele><time>2026-04-03T03:51:01Z</time></trkpt><trkpt lat="45.845376012963015" lon="12.311440049292047"><ele>44.8</ele><time>2026-04-03T03:51:02Z</time></trkpt><trkpt lat="45.8454001258794" lon="12.311567631482957"><ele>45.2</ele><time>2026-04-03T03:51:03Z</time></trkpt><trkpt lat="45.84542545664749" lon="12.311706050212782"><ele>45.599999999999994</ele><time>2026-04-03T03:51:04Z</time></trkpt><trkpt lat="45.84545444540641" lon="12.3118470492623"><ele>46.0</ele><time>2026-04-03T03:51:05Z</time></trkpt><trkpt lat="45.84548046639373" lon="12.311981697168362"><ele>46.0</ele><time>2026-04-03T03:51:06Z</time></trkpt><trkpt lat="45.84550801477099" lon="12.312108743127741"><ele>46.0</ele><time>2026-04-03T03:51:07Z</time></trkpt><trkpt lat="45.84552903767699" lon="12.312227693178999"><ele>46.0</ele><time>2026-04-03T03:51:08Z</time></trkpt><trkpt lat="45.84555048157141" lon="12.312320423711203"><ele>46.0</ele><time>2026-04-03T03:51:09Z</time></trkpt><trkpt lat="45.845580584241866" lon="12.312454892734458"><ele>46.0</ele><time>2026-04-03T03:51:11Z</time></trkpt><trkpt lat="45.8456000122805" lon="12.312546953551735"><ele>46.0</ele><time>2026-04-03T03:51:13Z</time></trkpt><trkpt lat="45.8455901072235" lon="12.3126384041264"><ele>45.85714285714286</ele><time>2026-04-03T03:51:16Z</time></trkpt><trkpt lat="45.84551361023416" lon="12.312687392934386"><ele>45.71428571428571</ele><time>2026-04-03T03:51:32Z</time></trkpt><trkpt lat="45.84557839026315" lon="12.312657415560164"><ele>45.57142857142857</ele><time>2026-04-03T03:53:43Z</time></trkpt><trkpt lat="45.845638473535445" lon="12.312615884820303"><ele>45.42857142857143</ele><time>2026-04-03T03:53:53Z</time></trkpt><trkpt lat="45.84561041962676" lon="12.312525769231996"><ele>45.28571428571429</ele><time>2026-04-03T03:54:10Z</time></trkpt><trkpt lat="45.84560341031642" lon="12.312619879072166"><ele>45.14285714285714</ele><time>2026-04-03T03:54:21.999Z</time></trkpt><trkpt lat="45.845636432562735" lon="12.312744964543697"><ele>45.0</ele><time>2026-04-03T03:54:23.999Z</time></trkpt><trkpt lat="45.84565935016512" lon="12.312854123932237"><ele>45.0</ele><time>2026-04-03T03:54:24.999Z</time></trkpt><trkpt lat="45.8456944778915" lon="12.312970237721501"><ele>45.0</ele><time>2026-04-03T03:54:26.999Z</time></trkpt><trkpt lat="45.8457489742903" lon="12.313084458569177"><ele>45.0</ele><time>2026-04-03T03:54:28.999Z</time></trkpt><trkpt lat="45.84584633245518" lon="12.313144963289313"><ele>45.0</ele><time>2026-04-03T03:54:30.999Z</time></trkpt><trkpt lat="45.84596630471566" lon="12.313110841131133"><ele>45.0</ele><time>2026-04-03T03:54:32.999Z</time></trkpt><trkpt lat="45.84603095564774" lon="12.313071240085689"><ele>45.0</ele><time>2026-04-03T03:54:33.999Z</time></trkpt><trkpt lat="45.84609656122606" lon="12.313027248103982"><ele>45.0</ele><time>2026-04-03T03:54:34.999Z</time></trkpt><trkpt lat="45.84616380452704" lon="12.312979103425663"><ele>45.0</ele><time>2026-04-03T03:54:35.999Z</time></trkpt><trkpt lat="45.84623051214374" lon="12.3129232071077"><ele>45.0</ele><time>2026-04-03T03:54:36.999Z</time></trkpt><trkpt lat="45.84629611004402" lon="12.31286273767536"><ele>45.0</ele><time>2026-04-03T03:54:37.999Z</time></trkpt><trkpt lat="45.84636537447384" lon="12.312800286424414"><ele>45.0</ele><time>2026-04-03T03:54:38.999Z</time></trkpt><trkpt lat="45.84643913826313" lon="12.312739277396583"><ele>45.0</ele><time>2026-04-03T03:54:39.999Z</time></trkpt><trkpt lat="45.84651846698764" lon="12.312679839549885"><ele>45.0</ele><time>2026-04-03T03:54:40.999Z</time></trkpt><trkpt lat="45.84660174371981" lon="12.312624016026097"><ele>45.0</ele><time>2026-04-03T03:54:41.999Z</time></trkpt><trkpt lat="45.84668773789944" lon="12.312572481387823"><ele>45.0</ele><time>2026-04-03T03:54:42.999Z</time></trkpt><trkpt lat="45.846781137913126" lon="12.312525808670731"><ele>45.0</ele><time>2026-04-03T03:54:43.999Z</time></trkpt><trkpt lat="45.84687591797894" lon="12.31248431903175"><ele>44.6</ele><time>2026-04-03T03:54:44.999Z</time></trkpt><trkpt lat="45.84697147092121" lon="12.312445803189252"><ele>44.2</ele><time>2026-04-03T03:54:45.999Z</time></trkpt><trkpt lat="45.84706796672421" lon="12.312414233949912"><ele>43.8</ele><time>2026-04-03T03:54:46.999Z</time></trkpt><trkpt lat="45.84716393455071" lon="12.312383934182666"><ele>43.4</ele><time>2026-04-03T03:54:47.999Z</time></trkpt><trkpt lat="45.84725879752534" lon="12.312360351919335"><ele>43.0</ele><time>2026-04-03T03:54:48.999Z</time></trkpt><trkpt lat="45.847361639588286" lon="12.312338717964835"><ele>43.0</ele><time>2026-04-03T03:54:49.999Z</time></trkpt><trkpt lat="45.8474634419893" lon="12.312326597190935"><ele>43.0</ele><time>2026-04-03T03:54:50.999Z</time></trkpt><trkpt lat="45.84756716992961" lon="12.312313421847023"><ele>43.0</ele><time>2026-04-03T03:54:51.999Z</time></trkpt><trkpt lat="45.847672241582316" lon="12.312305818240336"><ele>43.0</ele><time>2026-04-03T03:54:52.999Z</time></trkpt><trkpt lat="45.84777904490104" lon="12.312292331841514"><ele>43.0</ele><time>2026-04-03T03:54:53.999Z</time></trkpt><trkpt lat="45.847885204433695" lon="12.31228413705753"><ele>43.4</ele><time>2026-04-03T03:54:54.999Z</time></trkpt><trkpt lat="45.847991816786994" lon="12.312274721229779"><ele>43.8</ele><time>2026-04-03T03:54:55.999Z</time></trkpt><trkpt lat="45.848097200517" lon="12.31226527782536"><ele>44.2</ele><time>2026-04-03T03:54:56.999Z</time></trkpt><trkpt lat="45.848201562144006" lon="12.31225563284715"><ele>44.6</ele><time>2026-04-03T03:54:57.999Z</time></trkpt><trkpt lat="45.848298757699666" lon="12.31224421143153"><ele>45.0</ele><time>2026-04-03T03:54:58.999Z</time></trkpt><trkpt lat="45.84838282900675" lon="12.312236002315469"><ele>45.0</ele><time>2026-04-03T03:54:59.999Z</time></trkpt><trkpt lat="45.848453967904106" lon="12.312227302403965"><ele>45.0</ele><time>2026-04-03T03:55:00.999Z</time></trkpt><trkpt lat="45.848570583197436" lon="12.312218219728754"><ele>45.0</ele><time>2026-04-03T03:55:02.999Z</time></trkpt><trkpt lat="45.84865851245249" lon="12.312228138445779"><ele>45.0</ele><time>2026-04-03T03:55:04.999Z</time></trkpt><trkpt lat="45.8487272178428" lon="12.312277376065177"><ele>45.0</ele><time>2026-04-03T03:55:06.999Z</time></trkpt><trkpt lat="45.84877730682745" lon="12.312360806420061"><ele>45.0</ele><time>2026-04-03T03:55:09Z</time></trkpt><trkpt lat="45.84881074640911" lon="12.312510529821676"><ele>45.2</ele><time>2026-04-03T03:55:12Z</time></trkpt><trkpt lat="45.84878834646488" lon="12.31264972076207"><ele>45.4</ele><time>2026-04-03T03:55:14Z</time></trkpt><trkpt lat="45.848717145201846" lon="12.312808914931823"><ele>45.599999999999994</ele><time>2026-04-03T03:55:16Z</time></trkpt><trkpt lat="45.848673800476426" lon="12.312895913467944"><ele>45.8</ele><time>2026-04-03T03:55:17Z</time></trkpt><trkpt lat="45.84862823474306" lon="12.312986131443143"><ele>46.0</ele><time>2026-04-03T03:55:18Z</time></trkpt><trkpt lat="45.84858010275908" lon="12.313079364183142"><ele>46.0</ele><time>2026-04-03T03:55:19Z</time></trkpt><trkpt lat="45.8485343237906" lon="12.313170610414065"><ele>46.0</ele><time>2026-04-03T03:55:20Z</time></trkpt><trkpt lat="45.84848928156435" lon="12.313260193731457"><ele>46.0</ele><time>2026-04-03T03:55:21Z</time></trkpt><trkpt lat="45.84844475183268" lon="12.31335058361567"><ele>46.0</ele><time>2026-04-03T03:55:22Z</time></trkpt><trkpt lat="45.8484045962667" lon="12.313440357489968"><ele>46.0</ele><time>2026-04-03T03:55:23Z</time></trkpt><trkpt lat="45.8483659194385" lon="12.313532629418303"><ele>46.0</ele><time>2026-04-03T03:55:24Z</time></trkpt><trkpt lat="45.84832651200222" lon="12.313626261497145"><ele>45.833333333333336</ele><time>2026-04-03T03:55:25Z</time></trkpt><trkpt lat="45.848289905218806" lon="12.313724438335317"><ele>45.66666666666667</ele><time>2026-04-03T03:55:26Z</time></trkpt><trkpt lat="45.848257464971915" lon="12.313821165540938"><ele>45.5</ele><time>2026-04-03T03:55:27Z</time></trkpt><trkpt lat="45.84822943023692" lon="12.313919942248777"><ele>45.333333333333336</ele><time>2026-04-03T03:55:28Z</time></trkpt><trkpt lat="45.84820064092932" lon="12.314021701980993"><ele>45.166666666666664</ele><time>2026-04-03T03:55:29Z</time></trkpt><trkpt lat="45.84817636683688" lon="12.314125601576766"><ele>45.0</ele><time>2026-04-03T03:55:30Z</time></trkpt><trkpt lat="45.84815480862029" lon="12.314230553325569"><ele>44.833333333333336</ele><time>2026-04-03T03:55:31Z</time></trkpt><trkpt lat="45.848135242100035" lon="12.314334739980902"><ele>44.666666666666664</ele><time>2026-04-03T03:55:32Z</time></trkpt><trkpt lat="45.84811559113939" lon="12.314440925412544"><ele>44.5</ele><time>2026-04-03T03:55:33Z</time></trkpt><trkpt lat="45.84809623597521" lon="12.314544782861105"><ele>44.33333333333333</ele><time>2026-04-03T03:55:34Z</time></trkpt><trkpt lat="45.84807911452269" lon="12.314651053150042"><ele>44.166666666666664</ele><time>2026-04-03T03:55:35Z</time></trkpt><trkpt lat="45.84806370823098" lon="12.314756691760023"><ele>44.0</ele><time>2026-04-03T03:55:36Z</time></trkpt><trkpt lat="45.848047501357804" lon="12.314862488201744"><ele>44.0</ele><time>2026-04-03T03:55:37Z</time></trkpt><trkpt lat="45.84802981978506" lon="12.314966788540925"><ele>44.0</ele><time>2026-04-03T03:55:38Z</time></trkpt><trkpt lat="45.84801250407888" lon="12.315072005375441"><ele>44.0</ele><time>2026-04-03T03:55:39Z</time></trkpt><trkpt lat="45.84799781019667" lon="12.315177220824825"><ele>44.0</ele><time>2026-04-03T03:55:40Z</time></trkpt><trkpt lat="45.84797999292014" lon="12.315281564311471"><ele>44.0</ele><time>2026-04-03T03:55:41Z</time></trkpt><trkpt lat="45.84796360616852" lon="12.31538482730942"><ele>44.0</ele><time>2026-04-03T03:55:42Z</time></trkpt><trkpt lat="45.84794660833126" lon="12.315488337337621"><ele>44.0</ele><time>2026-04-03T03:55:43Z</time></trkpt><trkpt lat="45.84792819122178" lon="12.315591935714165"><ele>44.0</ele><time>2026-04-03T03:55:44Z</time></trkpt><trkpt lat="45.847910639314655" lon="12.315694759562437"><ele>44.0</ele><time>2026-04-03T03:55:45Z</time></trkpt><trkpt lat="45.847895480763285" lon="12.315798748045921"><ele>44.0</ele><time>2026-04-03T03:55:46Z</time></trkpt><trkpt lat="45.84787939506349" lon="12.315902721972673"><ele>44.0</ele><time>2026-04-03T03:55:47Z</time></trkpt><trkpt lat="45.84786261063105" lon="12.316005467336128"><ele>44.0</ele><time>2026-04-03T03:55:48Z</time></trkpt><trkpt lat="45.847845097215114" lon="12.316109635311879"><ele>44.0</ele><time>2026-04-03T03:55:49Z</time></trkpt><trkpt lat="45.847828392805525" lon="12.316214992484584"><ele>44.0</ele><time>2026-04-03T03:55:50Z</time></trkpt><trkpt lat="45.84780984416409" lon="12.316317637007657"><ele>44.33333333333333</ele><time>2026-04-03T03:55:51Z</time></trkpt><trkpt lat="45.84778951392733" lon="12.316422703893311"><ele>44.666666666666664</ele><time>2026-04-03T03:55:52Z</time></trkpt><trkpt lat="45.84776748904314" lon="12.316526832021825"><ele>45.0</ele><time>2026-04-03T03:55:53Z</time></trkpt><trkpt lat="45.84774223409327" lon="12.316629629358921"><ele>45.333333333333336</ele><time>2026-04-03T03:55:54Z</time></trkpt><trkpt lat="45.84771449276383" lon="12.31673113505299"><ele>45.66666666666667</ele><time>2026-04-03T03:55:55Z</time></trkpt><trkpt lat="45.84768745525519" lon="12.316833049462005"><ele>46.0</ele><time>2026-04-03T03:55:56Z</time></trkpt><trkpt lat="45.84765745183407" lon="12.316931830777582"><ele>45.833333333333336</ele><time>2026-04-03T03:55:57Z</time></trkpt><trkpt lat="45.847624086284824" lon="12.317029194786908"><ele>45.66666666666667</ele><time>2026-04-03T03:55:58Z</time></trkpt><trkpt lat="45.847587524139605" lon="12.317123496369476"><ele>45.5</ele><time>2026-04-03T03:55:59Z</time></trkpt><trkpt lat="45.84754431941909" lon="12.31721503895246"><ele>45.333333333333336</ele><time>2026-04-03T03:56:00Z</time></trkpt><trkpt lat="45.84750359110849" lon="12.317306114082095"><ele>45.166666666666664</ele><time>2026-04-03T03:56:01Z</time></trkpt><trkpt lat="45.847458732524" lon="12.317391690488375"><ele>45.0</ele><time>2026-04-03T03:56:02Z</time></trkpt><trkpt lat="45.84741448391424" lon="12.317475166227544"><ele>44.833333333333336</ele><time>2026-04-03T03:56:03Z</time></trkpt><trkpt lat="45.84736874774316" lon="12.317561082487307"><ele>44.666666666666664</ele><time>2026-04-03T03:56:04Z</time></trkpt><trkpt lat="45.84732484847277" lon="12.317648527290421"><ele>44.5</ele><time>2026-04-03T03:56:05Z</time></trkpt><trkpt lat="45.847279852156284" lon="12.317734671934502"><ele>44.33333333333333</ele><time>2026-04-03T03:56:06Z</time></trkpt><trkpt lat="45.847234490648674" lon="12.317820422654007"><ele>44.166666666666664</ele><time>2026-04-03T03:56:07Z</time></trkpt><trkpt lat="45.84719008060733" lon="12.317905987786993"><ele>44.0</ele><time>2026-04-03T03:56:08Z</time></trkpt><trkpt lat="45.84714572393001" lon="12.317993067967459"><ele>44.0</ele><time>2026-04-03T03:56:08.999Z</time></trkpt><trkpt lat="45.84710182036969" lon="12.318078547846163"><ele>44.0</ele><time>2026-04-03T03:56:09.999Z</time></trkpt><trkpt lat="45.84705605534349" lon="12.318163873972349"><ele>44.0</ele><time>2026-04-03T03:56:10.999Z</time></trkpt><trkpt lat="45.84701132915811" lon="12.318249961229009"><ele>44.0</ele><time>2026-04-03T03:56:11.999Z</time></trkpt><trkpt lat="45.846966172355536" lon="12.31833606961944"><ele>44.0</ele><time>2026-04-03T03:56:12.999Z</time></trkpt><trkpt lat="45.84692149505581" lon="12.318424896015857"><ele>44.0</ele><time>2026-04-03T03:56:13.999Z</time></trkpt><trkpt lat="45.84688007973701" lon="12.318506485243278"><ele>44.0</ele><time>2026-04-03T03:56:14.999Z</time></trkpt><trkpt lat="45.84681763068373" lon="12.318625999189083"><ele>44.2</ele><time>2026-04-03T03:56:16.999Z</time></trkpt><trkpt lat="45.84674186874637" lon="12.318718897156792"><ele>44.400000000000006</ele><time>2026-04-03T03:56:18.999Z</time></trkpt><trkpt lat="45.84665347068997" lon="12.318783092938803"><ele>44.6</ele><time>2026-04-03T03:56:20.999Z</time></trkpt><trkpt lat="45.846584720222964" lon="12.318915524678603"><ele>44.8</ele><time>2026-04-03T03:56:22.999Z</time></trkpt><trkpt lat="45.846601009067165" lon="12.319014016760194"><ele>45.0</ele><time>2026-04-03T03:56:23.999Z</time></trkpt><trkpt lat="45.84654755954434" lon="12.319100129366301"><ele>45.0</ele><time>2026-04-03T03:56:24.999Z</time></trkpt><trkpt lat="45.84652205791661" lon="12.319184881251397"><ele>45.0</ele><time>2026-04-03T03:56:25.999Z</time></trkpt><trkpt lat="45.84647070584695" lon="12.31929031242807"><ele>45.0</ele><time>2026-04-03T03:56:27.999Z</time></trkpt><trkpt lat="45.84641426879207" lon="12.319404936950141"><ele>45.0</ele><time>2026-04-03T03:56:48.999Z</time></trkpt><trkpt lat="45.84636822845249" lon="12.3195090961348"><ele>45.0</ele><time>2026-04-03T03:56:50.999Z</time></trkpt><trkpt lat="45.84630903369262" lon="12.319607975600853"><ele>45.0</ele><time>2026-04-03T03:56:52.999Z</time></trkpt><trkpt lat="45.84626188466067" lon="12.319698023790728"><ele>45.0</ele><time>2026-04-03T03:57:55Z</time></trkpt><trkpt lat="45.846196725846774" lon="12.319797581283373"><ele>45.0</ele><time>2026-04-03T03:57:58Z</time></trkpt><trkpt lat="45.84613716565492" lon="12.319864064846882"><ele>45.0</ele><time>2026-04-03T03:58:02Z</time></trkpt><trkpt lat="45.84611089214591" lon="12.319948056020865"><ele>45.0</ele><time>2026-04-03T03:58:19.999Z</time></trkpt><trkpt lat="45.84607403587179" lon="12.320024466556385"><ele>45.0</ele><time>2026-04-03T03:58:39.999Z</time></trkpt><trkpt lat="45.84601680825943" lon="12.320139683713691"><ele>45.0</ele><time>2026-04-03T03:58:41.999Z</time></trkpt><trkpt lat="45.845978002470666" lon="12.320220014664484"><ele>45.0</ele><time>2026-04-03T03:58:42.999Z</time></trkpt><trkpt lat="45.84592946585512" lon="12.32031628437044"><ele>45.0</ele><time>2026-04-03T03:58:43.999Z</time></trkpt><trkpt lat="45.84588589118796" lon="12.320399529278301"><ele>45.0</ele><time>2026-04-03T03:58:44.999Z</time></trkpt><trkpt lat="45.845823716923874" lon="12.320511780821178"><ele>45.0</ele><time>2026-04-03T03:58:46.999Z</time></trkpt><trkpt lat="45.845771702893686" lon="12.320618134634394"><ele>45.0</ele><time>2026-04-03T04:00:18.999Z</time></trkpt><trkpt lat="45.84571144836573" lon="12.320742051966095"><ele>44.833333333333336</ele><time>2026-04-03T04:00:20.999Z</time></trkpt><trkpt lat="45.84567278507406" lon="12.320815389407358"><ele>44.666666666666664</ele><time>2026-04-03T04:00:21.999Z</time></trkpt><trkpt lat="45.84563164966152" lon="12.320898116384438"><ele>44.5</ele><time>2026-04-03T04:00:22.999Z</time></trkpt><trkpt lat="45.845587244993254" lon="12.320986524329333"><ele>44.33333333333333</ele><time>2026-04-03T04:00:23.999Z</time></trkpt><trkpt lat="45.84554411448156" lon="12.321070855212787"><ele>44.166666666666664</ele><time>2026-04-03T04:00:24.999Z</time></trkpt><trkpt lat="45.84550271925885" lon="12.321148823149796"><ele>44.0</ele><time>2026-04-03T04:00:25.999Z</time></trkpt><trkpt lat="45.84543858137132" lon="12.32127501694421"><ele>43.800000000000004</ele><time>2026-04-03T04:00:27.999Z</time></trkpt><trkpt lat="45.845320481427585" lon="12.321535365786529"><ele>43.6</ele><time>2026-04-03T04:00:47.999Z</time></trkpt><trkpt lat="45.84528084611072" lon="12.321628075845977"><ele>43.4</ele><time>2026-04-03T04:00:48.999Z</time></trkpt><trkpt lat="45.84524819899286" lon="12.321725724361595"><ele>43.2</ele><time>2026-04-03T04:00:49.999Z</time></trkpt><trkpt lat="45.84522360683912" lon="12.321813003379331"><ele>43.0</ele><time>2026-04-03T04:00:50.999Z</time></trkpt><trkpt lat="45.84519409824736" lon="12.321917258835983"><ele>43.0</ele><time>2026-04-03T04:00:51.999Z</time></trkpt><trkpt lat="45.84515492394475" lon="12.32203588443105"><ele>43.0</ele><time>2026-04-03T04:00:52.999Z</time></trkpt><trkpt lat="45.845103297269375" lon="12.32215823905596"><ele>43.0</ele><time>2026-04-03T04:00:53.999Z</time></trkpt><trkpt lat="45.84506572164757" lon="12.322274058784764"><ele>43.0</ele><time>2026-04-03T04:00:54.999Z</time></trkpt><trkpt lat="45.845039707640765" lon="12.322382516807023"><ele>43.0</ele><time>2026-04-03T04:00:55.999Z</time></trkpt><trkpt lat="45.84501712709002" lon="12.322481651130502"><ele>43.0</ele><time>2026-04-03T04:00:56.999Z</time></trkpt><trkpt lat="45.84500367839101" lon="12.322581570644887"><ele>43.0</ele><time>2026-04-03T04:00:58.999Z</time></trkpt><trkpt lat="45.845055852384306" lon="12.322800514705069"><ele>43.0</ele><time>2026-04-03T04:01:03.999Z</time></trkpt><trkpt lat="45.84501349172922" lon="12.322631551107355"><ele>43.0</ele><time>2026-04-03T04:01:05.999Z</time></trkpt><trkpt lat="45.84498665560448" lon="12.322744326632508"><ele>43.0</ele><time>2026-04-03T04:01:17.999Z</time></trkpt><trkpt lat="45.84495763417085" lon="12.322904779820036"><ele>43.0</ele><time>2026-04-03T04:01:19.999Z</time></trkpt><trkpt lat="45.84492686805873" lon="12.323068964152466"><ele>43.0</ele><time>2026-04-03T04:01:21.999Z</time></trkpt><trkpt lat="45.84490500861387" lon="12.323224713414763"><ele>43.0</ele><time>2026-04-03T04:01:23.999Z</time></trkpt><trkpt lat="45.84488198958792" lon="12.323397578447056"><ele>43.0</ele><time>2026-04-03T04:01:26Z</time></trkpt><trkpt lat="45.84486339208876" lon="12.323582726901543"><ele>43.0</ele><time>2026-04-03T04:01:28Z</time></trkpt><trkpt lat="45.84485404087358" lon="12.323689665972838"><ele>43.0</ele><time>2026-04-03T04:01:29Z</time></trkpt><trkpt lat="45.84484243639583" lon="12.323793282537524"><ele>43.0</ele><time>2026-04-03T04:01:30Z</time></trkpt><trkpt lat="45.84483212896835" lon="12.323895543498383"><ele>43.0</ele><time>2026-04-03T04:01:31Z</time></trkpt><trkpt lat="45.84482199720983" lon="12.323996898990266"><ele>43.0</ele><time>2026-04-03T04:01:32Z</time></trkpt><trkpt lat="45.84480782774712" lon="12.32414475509212"><ele>43.0</ele><time>2026-04-03T04:01:34Z</time></trkpt><trkpt lat="45.844780376537166" lon="12.324247385767341"><ele>43.0</ele><time>2026-04-03T04:01:53Z</time></trkpt><trkpt lat="45.84478231577908" lon="12.324351093961889"><ele>43.0</ele><time>2026-04-03T04:01:55Z</time></trkpt><trkpt lat="45.84477483624325" lon="12.3244532284277"><ele>43.0</ele><time>2026-04-03T04:01:56.999Z</time></trkpt><trkpt lat="45.84480356566485" lon="12.324535582033016"><ele>43.0</ele><time>2026-04-03T04:02:34.999Z</time></trkpt><trkpt lat="45.84479237918657" lon="12.324641300001684"><ele>43.0</ele><time>2026-04-03T04:02:38.999Z</time></trkpt><trkpt lat="45.84477933028317" lon="12.324734841874998"><ele>43.0</ele><time>2026-04-03T04:02:49.999Z</time></trkpt><trkpt lat="45.844768320906134" lon="12.325051667406287"><ele>42.66666666666667</ele><time>2026-04-03T04:03:04.999Z</time></trkpt><trkpt lat="45.844768678559255" lon="12.325153550492864"><ele>42.333333333333336</ele><time>2026-04-03T04:03:05.999Z</time></trkpt><trkpt lat="45.844765300081725" lon="12.325253087556833"><ele>42.0</ele><time>2026-04-03T04:03:06.999Z</time></trkpt><trkpt lat="45.8447606438803" lon="12.325350277801334"><ele>41.666666666666664</ele><time>2026-04-03T04:03:07.999Z</time></trkpt><trkpt lat="45.844758887727956" lon="12.32549304854532"><ele>41.33333333333333</ele><time>2026-04-03T04:03:09.999Z</time></trkpt><trkpt lat="45.8447620180035" lon="12.325585737178521"><ele>41.0</ele><time>2026-04-03T04:03:31Z</time></trkpt><trkpt lat="45.84476129830829" lon="12.325728360759834"><ele>41.0</ele><time>2026-04-03T04:03:34Z</time></trkpt><trkpt lat="45.844759423661365" lon="12.325889868123344"><ele>41.0</ele><time>2026-04-03T04:03:36Z</time></trkpt><trkpt lat="45.84475424348593" lon="12.326066465475664"><ele>41.0</ele><time>2026-04-03T04:03:38Z</time></trkpt><trkpt lat="45.84475369503319" lon="12.32622672097401"><ele>41.0</ele><time>2026-04-03T04:03:40Z</time></trkpt><trkpt lat="45.844750419454556" lon="12.326348685123243"><ele>41.0</ele><time>2026-04-03T04:03:42Z</time></trkpt><trkpt lat="45.844717333332724" lon="12.326448087964325"><ele>41.0</ele><time>2026-04-03T04:03:46Z</time></trkpt><trkpt lat="45.84475400711078" lon="12.326548336002944"><ele>41.0</ele><time>2026-04-03T04:06:04.999Z</time></trkpt><trkpt lat="45.8447510256066" lon="12.326678051115403"><ele>41.0</ele><time>2026-04-03T04:06:06.999Z</time></trkpt><trkpt lat="45.84474698865628" lon="12.326843509636207"><ele>41.0</ele><time>2026-04-03T04:06:08.999Z</time></trkpt><trkpt lat="45.84474326554942" lon="12.326982902233583"><ele>41.0</ele><time>2026-04-03T04:06:10.999Z</time></trkpt><trkpt lat="45.8447154009573" lon="12.32707465792046"><ele>41.0</ele><time>2026-04-03T04:06:14.999Z</time></trkpt><trkpt lat="45.84473771121673" lon="12.327293523655976"><ele>41.0</ele><time>2026-04-03T04:07:50.999Z</time></trkpt><trkpt lat="45.844739885533336" lon="12.327391541111435"><ele>41.0</ele><time>2026-04-03T04:07:51.999Z</time></trkpt><trkpt lat="45.844737456921386" lon="12.327502117843608"><ele>41.0</ele><time>2026-04-03T04:07:52.999Z</time></trkpt><trkpt lat="45.84473399723411" lon="12.327622292646785"><ele>41.0</ele><time>2026-04-03T04:07:53.999Z</time></trkpt><trkpt lat="45.844730231010736" lon="12.327749565422163"><ele>41.0</ele><time>2026-04-03T04:07:54.999Z</time></trkpt><trkpt lat="45.84472721336979" lon="12.327880063561832"><ele>41.0</ele><time>2026-04-03T04:07:55.999Z</time></trkpt><trkpt lat="45.844723782083314" lon="12.328011225991835"><ele>41.0</ele><time>2026-04-03T04:07:56.999Z</time></trkpt><trkpt lat="45.844721375185294" lon="12.328138434635722"><ele>41.0</ele><time>2026-04-03T04:07:57.999Z</time></trkpt><trkpt lat="45.84471914673676" lon="12.328259770722664"><ele>41.0</ele><time>2026-04-03T04:07:58.999Z</time></trkpt><trkpt lat="45.84471466827854" lon="12.328382122334213"><ele>41.0</ele><time>2026-04-03T04:08:00Z</time></trkpt><trkpt lat="45.84471144458333" lon="12.328503511923476"><ele>40.83333333333333</ele><time>2026-04-03T04:08:01Z</time></trkpt><trkpt lat="45.84470901192017" lon="12.328627088831901"><ele>40.666666666666664</ele><time>2026-04-03T04:08:02Z</time></trkpt><trkpt lat="45.84470461187113" lon="12.328750803924219"><ele>40.5</ele><time>2026-04-03T04:08:03Z</time></trkpt><trkpt lat="45.844700027094206" lon="12.328877504188204"><ele>40.333333333333336</ele><time>2026-04-03T04:08:04Z</time></trkpt><trkpt lat="45.84469565851118" lon="12.32900728864115"><ele>40.16666666666667</ele><time>2026-04-03T04:08:05Z</time></trkpt><trkpt lat="45.84469347733623" lon="12.329136361032425"><ele>40.0</ele><time>2026-04-03T04:08:06Z</time></trkpt><trkpt lat="45.84469173910169" lon="12.329261597799123"><ele>40.4</ele><time>2026-04-03T04:08:07Z</time></trkpt><trkpt lat="45.84468711463855" lon="12.329385577183764"><ele>40.8</ele><time>2026-04-03T04:08:08Z</time></trkpt><trkpt lat="45.84468059234208" lon="12.32950956590462"><ele>41.2</ele><time>2026-04-03T04:08:09Z</time></trkpt><trkpt lat="45.844675941110026" lon="12.329612086144964"><ele>41.6</ele><time>2026-04-03T04:08:10Z</time></trkpt><trkpt lat="45.84466709905055" lon="12.329730485605719"><ele>42.0</ele><time>2026-04-03T04:08:12Z</time></trkpt><trkpt lat="45.84466756775174" lon="12.32999961853039"><ele>42.2</ele><time>2026-04-03T04:09:23Z</time></trkpt><trkpt lat="45.844668007861415" lon="12.330183987627525"><ele>42.400000000000006</ele><time>2026-04-03T04:09:25Z</time></trkpt><trkpt lat="45.844668955137884" lon="12.33029264688198"><ele>42.599999999999994</ele><time>2026-04-03T04:09:26Z</time></trkpt><trkpt lat="45.84467038875376" lon="12.330408157488806"><ele>42.8</ele><time>2026-04-03T04:09:27Z</time></trkpt><trkpt lat="45.844676451826054" lon="12.330528096449632"><ele>43.0</ele><time>2026-04-03T04:09:28Z</time></trkpt><trkpt lat="45.84468414157579" lon="12.330653273969112"><ele>42.599999999999994</ele><time>2026-04-03T04:09:29Z</time></trkpt><trkpt lat="45.84469491710547" lon="12.330775234981768"><ele>42.199999999999996</ele><time>2026-04-03T04:09:30Z</time></trkpt><trkpt lat="45.844705808250204" lon="12.330884156885235"><ele>41.8</ele><time>2026-04-03T04:09:31Z</time></trkpt><trkpt lat="45.84471949078721" lon="12.330975826995621"><ele>41.4</ele><time>2026-04-03T04:09:32Z</time></trkpt><trkpt lat="45.84474143734877" lon="12.331146893470823"><ele>41.0</ele><time>2026-04-03T04:09:34Z</time></trkpt><trkpt lat="45.84476608835149" lon="12.331331479158735"><ele>40.857142857142854</ele><time>2026-04-03T04:09:36Z</time></trkpt><trkpt lat="45.84478117674917" lon="12.331434763931345"><ele>40.714285714285715</ele><time>2026-04-03T04:09:37Z</time></trkpt><trkpt lat="45.844795045727714" lon="12.33153096593495"><ele>40.57142857142857</ele><time>2026-04-03T04:09:38Z</time></trkpt><trkpt lat="45.844812851578475" lon="12.33165314520004"><ele>40.42857142857143</ele><time>2026-04-03T04:09:39.999Z</time></trkpt><trkpt lat="45.844794724974086" lon="12.33174031446632"><ele>40.285714285714285</ele><time>2026-04-03T04:09:45.999Z</time></trkpt><trkpt lat="45.844804658056596" lon="12.331830326480503"><ele>40.14285714285714</ele><time>2026-04-03T04:10:51Z</time></trkpt><trkpt lat="45.844827927187005" lon="12.331923319180461"><ele>40.0</ele><time>2026-04-03T04:10:53Z</time></trkpt><trkpt lat="45.84486882544747" lon="12.33203962113607"><ele>40.0</ele><time>2026-04-03T04:10:55Z</time></trkpt><trkpt lat="45.84490782308864" lon="12.332139249764227"><ele>40.0</ele><time>2026-04-03T04:10:58Z</time></trkpt><trkpt lat="45.844912772411675" lon="12.332246937253784"><ele>40.0</ele><time>2026-04-03T04:12:24Z</time></trkpt><trkpt lat="45.84487776493989" lon="12.332360992423476"><ele>40.0</ele><time>2026-04-03T04:12:27Z</time></trkpt><trkpt lat="45.84484532268388" lon="12.33247209412838"><ele>40.0</ele><time>2026-04-03T04:12:29Z</time></trkpt><trkpt lat="45.84480659107151" lon="12.332615328653073"><ele>40.0</ele><time>2026-04-03T04:12:31Z</time></trkpt><trkpt lat="45.84478005518009" lon="12.332755372108528"><ele>40.0</ele><time>2026-04-03T04:12:33Z</time></trkpt><trkpt lat="45.84476754038134" lon="12.332859039360718"><ele>40.0</ele><time>2026-04-03T04:12:36Z</time></trkpt><trkpt lat="45.84474636046927" lon="12.332992018289323"><ele>40.0</ele><time>2026-04-03T04:13:41Z</time></trkpt><trkpt lat="45.844745088067086" lon="12.333127328162236"><ele>40.0</ele><time>2026-04-03T04:13:42.999Z</time></trkpt><trkpt lat="45.84476276170561" lon="12.333249370946202"><ele>40.0</ele><time>2026-04-03T04:13:44.999Z</time></trkpt><trkpt lat="45.844760527282396" lon="12.333340349919224"><ele>40.0</ele><time>2026-04-03T04:13:46.999Z</time></trkpt><trkpt lat="45.84474463519501" lon="12.333440314345502"><ele>40.0</ele><time>2026-04-03T04:14:06Z</time></trkpt><trkpt lat="45.84467935738526" lon="12.333489827442383"><ele>40.0</ele><time>2026-04-03T04:14:09Z</time></trkpt><trkpt lat="45.8446815557159" lon="12.333587388974408"><ele>40.0</ele><time>2026-04-03T04:14:27Z</time></trkpt><trkpt lat="45.84466971269443" lon="12.33371051526407"><ele>40.0</ele><time>2026-04-03T04:14:29Z</time></trkpt><trkpt lat="45.84465032776479" lon="12.333854489953536"><ele>40.0</ele><time>2026-04-03T04:14:31Z</time></trkpt><trkpt lat="45.84464122289928" lon="12.333946049690159"><ele>40.0</ele><time>2026-04-03T04:14:32Z</time></trkpt><trkpt lat="45.84463202179725" lon="12.334050133405372"><ele>39.66666666666667</ele><time>2026-04-03T04:14:33Z</time></trkpt><trkpt lat="45.84462323798124" lon="12.334160485706894"><ele>39.333333333333336</ele><time>2026-04-03T04:14:34Z</time></trkpt><trkpt lat="45.84460994144829" lon="12.33427440380195"><ele>39.0</ele><time>2026-04-03T04:14:35Z</time></trkpt><trkpt lat="45.84459479853416" lon="12.334391139537304"><ele>38.666666666666664</ele><time>2026-04-03T04:14:36Z</time></trkpt><trkpt lat="45.844580987197915" lon="12.334498643301911"><ele>38.33333333333333</ele><time>2026-04-03T04:14:37Z</time></trkpt><trkpt lat="45.8445670538085" lon="12.334640357888377"><ele>38.0</ele><time>2026-04-03T04:14:39Z</time></trkpt><trkpt lat="45.84453808124503" lon="12.334722728367717"><ele>38.0</ele><time>2026-04-03T04:14:44Z</time></trkpt><trkpt lat="45.84453167577841" lon="12.334854694022855"><ele>38.0</ele><time>2026-04-03T04:15:25Z</time></trkpt><trkpt lat="45.84453924509436" lon="12.334952471446009"><ele>38.0</ele><time>2026-04-03T04:15:27Z</time></trkpt><trkpt lat="45.844557940704256" lon="12.335061616033952"><ele>38.0</ele><time>2026-04-03T04:15:29Z</time></trkpt><trkpt lat="45.8445180191011" lon="12.335134639342051"><ele>38.0</ele><time>2026-04-03T04:16:20Z</time></trkpt><trkpt lat="45.844481383402076" lon="12.335209765587186"><ele>38.0</ele><time>2026-04-03T04:16:23Z</time></trkpt><trkpt lat="45.84450242348083" lon="12.335398045015138"><ele>37.83333333333333</ele><time>2026-04-03T04:16:37Z</time></trkpt><trkpt lat="45.84447329808953" lon="12.335590604524059"><ele>37.666666666666664</ele><time>2026-04-03T04:16:39Z</time></trkpt><trkpt lat="45.844464681571196" lon="12.335691818466584"><ele>37.5</ele><time>2026-04-03T04:16:40Z</time></trkpt><trkpt lat="45.84445928190994" lon="12.335798629308316"><ele>37.333333333333336</ele><time>2026-04-03T04:16:41Z</time></trkpt><trkpt lat="45.84444822029041" lon="12.335897049936749"><ele>37.16666666666667</ele><time>2026-04-03T04:16:42Z</time></trkpt><trkpt lat="45.84443849054088" lon="12.33599351902794"><ele>37.0</ele><time>2026-04-03T04:16:43Z</time></trkpt><trkpt lat="45.844428453391544" lon="12.336094374801087"><ele>37.0</ele><time>2026-04-03T04:16:44Z</time></trkpt><trkpt lat="45.84441814318387" lon="12.336195967169665"><ele>37.0</ele><time>2026-04-03T04:16:45Z</time></trkpt><trkpt lat="45.8444062651869" lon="12.336302821644416"><ele>37.0</ele><time>2026-04-03T04:16:46Z</time></trkpt><trkpt lat="45.844393558166125" lon="12.336412241517394"><ele>37.0</ele><time>2026-04-03T04:16:47Z</time></trkpt><trkpt lat="45.84438121428143" lon="12.336518195040068"><ele>37.0</ele><time>2026-04-03T04:16:48Z</time></trkpt><trkpt lat="45.84437279283275" lon="12.336609419876192"><ele>37.0</ele><time>2026-04-03T04:16:49Z</time></trkpt><trkpt lat="45.84437222926159" lon="12.33670229018993"><ele>37.0</ele><time>2026-04-03T04:16:51Z</time></trkpt><trkpt lat="45.844348582492664" lon="12.336797312269406"><ele>37.0</ele><time>2026-04-03T04:17:11Z</time></trkpt><trkpt lat="45.84435757415478" lon="12.336957308730048"><ele>37.0</ele><time>2026-04-03T04:17:13Z</time></trkpt><trkpt lat="45.84437356748075" lon="12.33711909062058"><ele>37.0</ele><time>2026-04-03T04:17:15Z</time></trkpt><trkpt lat="45.844391207646524" lon="12.337249593251281"><ele>37.0</ele><time>2026-04-03T04:17:17Z</time></trkpt><trkpt lat="45.84441119397157" lon="12.337373283758609"><ele>37.0</ele><time>2026-04-03T04:17:19Z</time></trkpt><trkpt lat="45.84444463752787" lon="12.337541374230154"><ele>37.0</ele><time>2026-04-03T04:17:21Z</time></trkpt><trkpt lat="45.84446169726836" lon="12.337638176938722"><ele>37.0</ele><time>2026-04-03T04:17:22Z</time></trkpt><trkpt lat="45.844478546345066" lon="12.337745143003039"><ele>37.0</ele><time>2026-04-03T04:17:23Z</time></trkpt><trkpt lat="45.84449495325509" lon="12.33785495007624"><ele>37.0</ele><time>2026-04-03T04:17:24Z</time></trkpt><trkpt lat="45.84451120575168" lon="12.337968234288223"><ele>37.0</ele><time>2026-04-03T04:17:25Z</time></trkpt><trkpt lat="45.84451909299875" lon="12.33807890369644"><ele>37.0</ele><time>2026-04-03T04:17:26Z</time></trkpt><trkpt lat="45.84453639331757" lon="12.338187364602323"><ele>37.16666666666667</ele><time>2026-04-03T04:17:27Z</time></trkpt><trkpt lat="45.84454902321008" lon="12.338285223062108"><ele>37.333333333333336</ele><time>2026-04-03T04:17:28Z</time></trkpt><trkpt lat="45.84455195243357" lon="12.338427639661813"><ele>37.5</ele><time>2026-04-03T04:17:30Z</time></trkpt><trkpt lat="45.84454585987224" lon="12.33853316297881"><ele>37.666666666666664</ele><time>2026-04-03T04:17:34Z</time></trkpt><trkpt lat="45.84458576628409" lon="12.338603954892047"><ele>37.83333333333333</ele><time>2026-04-03T04:17:56.999Z</time></trkpt><trkpt lat="45.844566587101205" lon="12.33873526592229"><ele>38.0</ele><time>2026-04-03T04:17:59.999Z</time></trkpt><trkpt lat="45.84452437355801" lon="12.338845466277906"><ele>37.8</ele><time>2026-04-03T04:18:01.999Z</time></trkpt><trkpt lat="45.84447199539655" lon="12.33899030695346"><ele>37.599999999999994</ele><time>2026-04-03T04:18:03.999Z</time></trkpt><trkpt lat="45.84446069139324" lon="12.339147961489578"><ele>37.400000000000006</ele><time>2026-04-03T04:18:05.999Z</time></trkpt><trkpt lat="45.84443768370642" lon="12.33932673337051"><ele>37.2</ele><time>2026-04-03T04:18:07.999Z</time></trkpt><trkpt lat="45.844425586581174" lon="12.339416695390641"><ele>37.0</ele><time>2026-04-03T04:18:08.999Z</time></trkpt><trkpt lat="45.84441499368007" lon="12.339515272987134"><ele>37.0</ele><time>2026-04-03T04:18:09.999Z</time></trkpt><trkpt lat="45.844404865459126" lon="12.339615917258136"><ele>37.0</ele><time>2026-04-03T04:18:10.999Z</time></trkpt><trkpt lat="45.84439104521248" lon="12.339719341636629"><ele>37.0</ele><time>2026-04-03T04:18:11.999Z</time></trkpt><trkpt lat="45.844376309996896" lon="12.339818205331241"><ele>37.0</ele><time>2026-04-03T04:18:13Z</time></trkpt><trkpt lat="45.844349803525326" lon="12.339927035757368"><ele>37.0</ele><time>2026-04-03T04:18:15Z</time></trkpt><trkpt lat="45.84441327945507" lon="12.339882363582609"><ele>37.0</ele><time>2026-04-03T04:18:34Z</time></trkpt><trkpt lat="45.844341743045526" lon="12.339920664796226"><ele>37.0</ele><time>2026-04-03T04:18:44Z</time></trkpt><trkpt lat="45.84431715485726" lon="12.340053971394186"><ele>37.0</ele><time>2026-04-03T04:18:54Z</time></trkpt><trkpt lat="45.844283451577724" lon="12.340210204339023"><ele>37.0</ele><time>2026-04-03T04:18:56Z</time></trkpt><trkpt lat="45.84425908699788" lon="12.340302195141993"><ele>37.0</ele><time>2026-04-03T04:18:57Z</time></trkpt><trkpt lat="45.84423108236454" lon="12.340401118635572"><ele>37.0</ele><time>2026-04-03T04:18:58Z</time></trkpt><trkpt lat="45.844202762492294" lon="12.340496603733378"><ele>37.0</ele><time>2026-04-03T04:18:59Z</time></trkpt><trkpt lat="45.844176436310875" lon="12.340593194380926"><ele>37.0</ele><time>2026-04-03T04:19:00Z</time></trkpt><trkpt lat="45.84414930862465" lon="12.340678558052725"><ele>37.0</ele><time>2026-04-03T04:19:01Z</time></trkpt><trkpt lat="45.84412300702135" lon="12.340763758246094"><ele>37.0</ele><time>2026-04-03T04:19:02Z</time></trkpt><trkpt lat="45.84408489827658" lon="12.340880490442016"><ele>37.0</ele><time>2026-04-03T04:19:04Z</time></trkpt><trkpt lat="45.84403584314011" lon="12.341011269644637"><ele>37.0</ele><time>2026-04-03T04:19:23Z</time></trkpt><trkpt lat="45.84398964688391" lon="12.341073634168414"><ele>37.0</ele><time>2026-04-03T04:19:26Z</time></trkpt><trkpt lat="45.843960491467975" lon="12.341162116794228"><ele>37.0</ele><time>2026-04-03T04:19:40.999Z</time></trkpt><trkpt lat="45.84393783048039" lon="12.341268043559035"><ele>37.0</ele><time>2026-04-03T04:19:43.999Z</time></trkpt><trkpt lat="45.84389827485394" lon="12.341361806996483"><ele>37.0</ele><time>2026-04-03T04:19:46.999Z</time></trkpt><trkpt lat="45.8438709680239" lon="12.341496782260823"><ele>37.0</ele><time>2026-04-03T04:20:02.999Z</time></trkpt><trkpt lat="45.8438250298266" lon="12.341634544395383"><ele>37.0</ele><time>2026-04-03T04:20:04.999Z</time></trkpt><trkpt lat="45.843795203278134" lon="12.341715040609788"><ele>37.0</ele><time>2026-04-03T04:20:05.999Z</time></trkpt><trkpt lat="45.84376308146439" lon="12.341792778149774"><ele>37.0</ele><time>2026-04-03T04:20:06.999Z</time></trkpt><trkpt lat="45.84371405661854" lon="12.341910802253548"><ele>37.0</ele><time>2026-04-03T04:20:08.999Z</time></trkpt><trkpt lat="45.843620957176576" lon="12.341991491703046"><ele>37.0</ele><time>2026-04-03T04:20:10.999Z</time></trkpt><trkpt lat="45.84350333851854" lon="12.342059389287847"><ele>37.0</ele><time>2026-04-03T04:20:12.999Z</time></trkpt><trkpt lat="45.84345671588353" lon="12.342122493689562"><ele>37.0</ele><time>2026-04-03T04:20:13.999Z</time></trkpt><trkpt lat="45.84341225680583" lon="12.342200079010102"><ele>37.0</ele><time>2026-04-03T04:20:14.999Z</time></trkpt><trkpt lat="45.84336048575666" lon="12.342258031354895"><ele>37.0</ele><time>2026-04-03T04:20:15.999Z</time></trkpt><trkpt lat="45.843381001165504" lon="12.34239364656732"><ele>37.333333333333336</ele><time>2026-04-03T04:20:16.999Z</time></trkpt><trkpt lat="45.84336806083194" lon="12.342491543219227"><ele>37.66666666666667</ele><time>2026-04-03T04:20:17.999Z</time></trkpt><trkpt lat="45.84333173528547" lon="12.342583404147693"><ele>38.0</ele><time>2026-04-03T04:20:19Z</time></trkpt><trkpt lat="45.84329526413207" lon="12.342666004919364"><ele>38.333333333333336</ele><time>2026-04-03T04:20:20Z</time></trkpt><trkpt lat="45.84326178389847" lon="12.342807254880478"><ele>38.666666666666664</ele><time>2026-04-03T04:20:22Z</time></trkpt><trkpt lat="45.84325723188081" lon="12.342919002394357"><ele>39.0</ele><time>2026-04-03T04:20:24Z</time></trkpt><trkpt lat="45.84324536361488" lon="12.343030142916765"><ele>38.6</ele><time>2026-04-03T04:20:27Z</time></trkpt><trkpt lat="45.84315291009722" lon="12.34313456404495"><ele>38.2</ele><time>2026-04-03T04:20:44Z</time></trkpt><trkpt lat="45.84305390260623" lon="12.343245045383794"><ele>37.800000000000004</ele><time>2026-04-03T04:20:46Z</time></trkpt><trkpt lat="45.84299519414765" lon="12.343327621897158"><ele>37.4</ele><time>2026-04-03T04:20:47Z</time></trkpt><trkpt lat="45.842941740271414" lon="12.34341107015628"><ele>37.0</ele><time>2026-04-03T04:20:48Z</time></trkpt><trkpt lat="45.8428925562865" lon="12.3434963413924"><ele>37.0</ele><time>2026-04-03T04:20:49Z</time></trkpt><trkpt lat="45.84284611230357" lon="12.343574284773954"><ele>37.0</ele><time>2026-04-03T04:20:50Z</time></trkpt><trkpt lat="45.842800389637596" lon="12.343649918076538"><ele>37.0</ele><time>2026-04-03T04:20:51Z</time></trkpt><trkpt lat="45.84275656476675" lon="12.343720136572612"><ele>37.0</ele><time>2026-04-03T04:20:52Z</time></trkpt><trkpt lat="45.84268867911817" lon="12.343828167365542"><ele>37.0</ele><time>2026-04-03T04:20:54Z</time></trkpt><trkpt lat="45.84263872865887" lon="12.343907342271281"><ele>37.0</ele><time>2026-04-03T04:20:56Z</time></trkpt><trkpt lat="45.84258487655619" lon="12.343991858467025"><ele>36.66666666666667</ele><time>2026-04-03T04:21:59.999Z</time></trkpt><trkpt lat="45.842530297811116" lon="12.344090851096613"><ele>36.333333333333336</ele><time>2026-04-03T04:22:01.999Z</time></trkpt><trkpt lat="45.84244955278107" lon="12.344229611909661"><ele>36.0</ele><time>2026-04-03T04:22:03.999Z</time></trkpt><trkpt lat="45.84240555420018" lon="12.344303401759706"><ele>35.666666666666664</ele><time>2026-04-03T04:22:04.999Z</time></trkpt><trkpt lat="45.84235861205294" lon="12.344381370103678"><ele>35.33333333333333</ele><time>2026-04-03T04:22:05.999Z</time></trkpt><trkpt lat="45.8423105559273" lon="12.344460649404208"><ele>35.0</ele><time>2026-04-03T04:22:06.999Z</time></trkpt><trkpt lat="45.84226273965354" lon="12.344539022691652"><ele>35.0</ele><time>2026-04-03T04:22:07.999Z</time></trkpt><trkpt lat="45.84221299581585" lon="12.344623596274051"><ele>35.0</ele><time>2026-04-03T04:22:08.999Z</time></trkpt><trkpt lat="45.84216540953339" lon="12.344707529562609"><ele>35.0</ele><time>2026-04-03T04:22:09.999Z</time></trkpt><trkpt lat="45.84211759144351" lon="12.344791295898974"><ele>35.0</ele><time>2026-04-03T04:22:10.999Z</time></trkpt><trkpt lat="45.842067635589" lon="12.344877311790212"><ele>35.0</ele><time>2026-04-03T04:22:11.999Z</time></trkpt><trkpt lat="45.84201831783637" lon="12.344962565531352"><ele>35.0</ele><time>2026-04-03T04:22:12.999Z</time></trkpt><trkpt lat="45.84196339465055" lon="12.345050613818648"><ele>35.166666666666664</ele><time>2026-04-03T04:22:13.999Z</time></trkpt><trkpt lat="45.841911321958094" lon="12.345137957405447"><ele>35.33333333333333</ele><time>2026-04-03T04:22:14.999Z</time></trkpt><trkpt lat="45.84186112167312" lon="12.345226113733322"><ele>35.5</ele><time>2026-04-03T04:22:15.999Z</time></trkpt><trkpt lat="45.84181206683348" lon="12.345310099494123"><ele>35.666666666666664</ele><time>2026-04-03T04:22:16.999Z</time></trkpt><trkpt lat="45.841761097522294" lon="12.345394753490051"><ele>35.833333333333336</ele><time>2026-04-03T04:22:17.999Z</time></trkpt><trkpt lat="45.84171277579875" lon="12.345479782387645"><ele>36.0</ele><time>2026-04-03T04:22:18.999Z</time></trkpt><trkpt lat="45.841664748203314" lon="12.345556602904729"><ele>36.0</ele><time>2026-04-03T04:22:19.999Z</time></trkpt><trkpt lat="45.841592024696325" lon="12.345669231469298"><ele>36.0</ele><time>2026-04-03T04:22:21.999Z</time></trkpt><trkpt lat="45.84165775725159" lon="12.345691369555501"><ele>36.0</ele><time>2026-04-03T04:23:27Z</time></trkpt><trkpt lat="45.841726034795" lon="12.34566093408369"><ele>36.0</ele><time>2026-04-03T04:23:31Z</time></trkpt><trkpt lat="45.841653349103794" lon="12.345662392899197"><ele>36.0</ele><time>2026-04-03T04:23:42.999Z</time></trkpt><trkpt lat="45.841598692900256" lon="12.345728848072783"><ele>36.0</ele><time>2026-04-03T04:23:49.999Z</time></trkpt><trkpt lat="45.841675572890836" lon="12.345730219356104"><ele>36.0</ele><time>2026-04-03T04:24:04.999Z</time></trkpt><trkpt lat="45.8416051239811" lon="12.345724315507702"><ele>36.0</ele><time>2026-04-03T04:24:14.999Z</time></trkpt><trkpt lat="45.84150892574719" lon="12.345868612460645"><ele>36.0</ele><time>2026-04-03T04:24:32Z</time></trkpt><trkpt lat="45.84143377447491" lon="12.345998446498847"><ele>36.0</ele><time>2026-04-03T04:24:34Z</time></trkpt><trkpt lat="45.841346505171124" lon="12.346144373149775"><ele>36.0</ele><time>2026-04-03T04:24:36Z</time></trkpt><trkpt lat="45.84129840231041" lon="12.346226972128727"><ele>36.0</ele><time>2026-04-03T04:24:37Z</time></trkpt><trkpt lat="45.8412472826907" lon="12.346312666655177"><ele>36.0</ele><time>2026-04-03T04:24:38Z</time></trkpt><trkpt lat="45.84119343016498" lon="12.346404010602242"><ele>36.0</ele><time>2026-04-03T04:24:39Z</time></trkpt><trkpt lat="45.84113660208828" lon="12.346498195502637"><ele>36.0</ele><time>2026-04-03T04:24:40Z</time></trkpt><trkpt lat="45.841082357391436" lon="12.346585771551077"><ele>36.0</ele><time>2026-04-03T04:24:41Z</time></trkpt><trkpt lat="45.84103323773683" lon="12.346666908309011"><ele>36.0</ele><time>2026-04-03T04:24:42Z</time></trkpt><trkpt lat="45.84095715393773" lon="12.346791122545943"><ele>36.0</ele><time>2026-04-03T04:24:44Z</time></trkpt><trkpt lat="45.8409132487285" lon="12.346855978568753"><ele>36.0</ele><time>2026-04-03T04:24:46Z</time></trkpt><trkpt lat="45.84086094743278" lon="12.346916229141065"><ele>36.0</ele><time>2026-04-03T04:26:15.999Z</time></trkpt><trkpt lat="45.84080011064657" lon="12.347032682599258"><ele>36.0</ele><time>2026-04-03T04:26:17.999Z</time></trkpt><trkpt lat="45.840761424325386" lon="12.347108527084856"><ele>36.0</ele><time>2026-04-03T04:26:18.999Z</time></trkpt><trkpt lat="45.840716054513514" lon="12.347179030832551"><ele>36.0</ele><time>2026-04-03T04:26:20.999Z</time></trkpt><trkpt lat="45.84063920341507" lon="12.34717092758021"><ele>36.0</ele><time>2026-04-03T04:26:24.999Z</time></trkpt><trkpt lat="45.840561373767216" lon="12.347172161912772"><ele>36.0</ele><time>2026-04-03T04:26:28.999Z</time></trkpt><trkpt lat="45.84049726422246" lon="12.347182904098675"><ele>36.0</ele><time>2026-04-03T04:26:33.999Z</time></trkpt><trkpt lat="45.8404324889554" lon="12.347157002031695"><ele>36.0</ele><time>2026-04-03T04:26:39Z</time></trkpt><trkpt lat="45.840551596712025" lon="12.34717687730949"><ele>36.0</ele><time>2026-04-03T04:27:35.999Z</time></trkpt><trkpt lat="45.8406158584947" lon="12.34718831145263"><ele>35.833333333333336</ele><time>2026-04-03T04:27:38.999Z</time></trkpt><trkpt lat="45.84068230466569" lon="12.347222830484359"><ele>35.666666666666664</ele><time>2026-04-03T04:27:43.999Z</time></trkpt><trkpt lat="45.84068711159306" lon="12.347321094693118"><ele>35.5</ele><time>2026-04-03T04:27:47.999Z</time></trkpt><trkpt lat="45.84064776091777" lon="12.347391786590588"><ele>35.33333333333333</ele><time>2026-04-03T04:27:49.999Z</time></trkpt><trkpt lat="45.84056945303155" lon="12.347520933795098"><ele>35.166666666666664</ele><time>2026-04-03T04:27:51.999Z</time></trkpt><trkpt lat="45.840520965942" lon="12.34759656819402"><ele>35.0</ele><time>2026-04-03T04:27:52.999Z</time></trkpt><trkpt lat="45.840469607524625" lon="12.347677625900182"><ele>35.0</ele><time>2026-04-03T04:27:53.999Z</time></trkpt><trkpt lat="45.84041680362161" lon="12.347766392594767"><ele>35.0</ele><time>2026-04-03T04:27:54.999Z</time></trkpt><trkpt lat="45.8403637461318" lon="12.347862218450999"><ele>35.0</ele><time>2026-04-03T04:27:55.999Z</time></trkpt><trkpt lat="45.840305326599854" lon="12.347956970299307"><ele>35.0</ele><time>2026-04-03T04:27:56.999Z</time></trkpt><trkpt lat="45.84024898400821" lon="12.348056500867719"><ele>35.0</ele><time>2026-04-03T04:27:57.999Z</time></trkpt><trkpt lat="45.84019365750229" lon="12.34814805050345"><ele>35.0</ele><time>2026-04-03T04:27:58.999Z</time></trkpt><trkpt lat="45.84013799131864" lon="12.348238046330037"><ele>35.0</ele><time>2026-04-03T04:27:59.999Z</time></trkpt><trkpt lat="45.84008452460322" lon="12.348323266606146"><ele>35.0</ele><time>2026-04-03T04:28:00.999Z</time></trkpt><trkpt lat="45.84003362014626" lon="12.348399546091674"><ele>35.0</ele><time>2026-04-03T04:28:01.999Z</time></trkpt><trkpt lat="45.83995506473877" lon="12.348522279256773"><ele>35.0</ele><time>2026-04-03T04:28:03.999Z</time></trkpt><trkpt lat="45.839864604936196" lon="12.348609676387017"><ele>35.0</ele><time>2026-04-03T04:28:05.999Z</time></trkpt><trkpt lat="45.8397955629581" lon="12.348716947493537"><ele>35.0</ele><time>2026-04-03T04:28:07.999Z</time></trkpt><trkpt lat="45.83977092489676" lon="12.348874942037197"><ele>35.0</ele><time>2026-04-03T04:28:09.999Z</time></trkpt><trkpt lat="45.83975081683358" lon="12.348961041918697"><ele>35.0</ele><time>2026-04-03T04:28:10.999Z</time></trkpt><trkpt lat="45.83971690583314" lon="12.349045892918173"><ele>35.0</ele><time>2026-04-03T04:28:11.999Z</time></trkpt><trkpt lat="45.839679118610306" lon="12.349134392885524"><ele>35.0</ele><time>2026-04-03T04:28:12.999Z</time></trkpt><trkpt lat="45.83963921758643" lon="12.349226720994409"><ele>35.0</ele><time>2026-04-03T04:28:13.999Z</time></trkpt><trkpt lat="45.8396003953043" lon="12.349320174259134"><ele>35.166666666666664</ele><time>2026-04-03T04:28:14.999Z</time></trkpt><trkpt lat="45.83956691038532" lon="12.349407388948398"><ele>35.33333333333333</ele><time>2026-04-03T04:28:15.999Z</time></trkpt><trkpt lat="45.83952426087629" lon="12.349514125018235"><ele>35.5</ele><time>2026-04-03T04:28:17.999Z</time></trkpt><trkpt lat="45.83962243058499" lon="12.349522436855722"><ele>35.666666666666664</ele><time>2026-04-03T04:28:30.999Z</time></trkpt><trkpt lat="45.83955358717074" lon="12.349509399645877"><ele>35.833333333333336</ele><time>2026-04-03T04:28:35.999Z</time></trkpt><trkpt lat="45.83962881838819" lon="12.3494752544924"><ele>36.0</ele><time>2026-04-03T04:29:11Z</time></trkpt><trkpt lat="45.83955169974029" lon="12.349512579203484"><ele>36.0</ele><time>2026-04-03T04:29:21Z</time></trkpt><trkpt lat="45.83949451254216" lon="12.349595571074905"><ele>36.0</ele><time>2026-04-03T04:29:30.999Z</time></trkpt><trkpt lat="45.83946764003534" lon="12.349694493233484"><ele>36.0</ele><time>2026-04-03T04:29:32.999Z</time></trkpt><trkpt lat="45.83947810828529" lon="12.349808848770705"><ele>36.0</ele><time>2026-04-03T04:29:34.999Z</time></trkpt><trkpt lat="45.83949432297119" lon="12.349903407339237"><ele>36.0</ele><time>2026-04-03T04:29:38.999Z</time></trkpt><trkpt lat="45.83943518502673" lon="12.34997898294489"><ele>36.0</ele><time>2026-04-03T04:30:01.999Z</time></trkpt><trkpt lat="45.83937211739963" lon="12.350045625059254"><ele>36.0</ele><time>2026-04-03T04:30:04.999Z</time></trkpt><trkpt lat="45.83933680786886" lon="12.350165398140891"><ele>36.0</ele><time>2026-04-03T04:30:47.999Z</time></trkpt><trkpt lat="45.839304024573934" lon="12.350323475241325"><ele>36.0</ele><time>2026-04-03T04:30:50Z</time></trkpt><trkpt lat="45.83928354434337" lon="12.350429193013499"><ele>36.0</ele><time>2026-04-03T04:30:51Z</time></trkpt><trkpt lat="45.83926298548584" lon="12.350539388905911"><ele>36.0</ele><time>2026-04-03T04:30:52Z</time></trkpt><trkpt lat="45.839245439149686" lon="12.350640202307911"><ele>36.0</ele><time>2026-04-03T04:30:53Z</time></trkpt><trkpt lat="45.839227251634156" lon="12.35073631128364"><ele>36.0</ele><time>2026-04-03T04:30:54Z</time></trkpt><trkpt lat="45.83920497319492" lon="12.35082152872869"><ele>36.0</ele><time>2026-04-03T04:30:55Z</time></trkpt><trkpt lat="45.83914480435128" lon="12.35097919608059"><ele>36.0</ele><time>2026-04-03T04:30:57Z</time></trkpt><trkpt lat="45.83914285008906" lon="12.351152274466113"><ele>36.0</ele><time>2026-04-03T04:30:59Z</time></trkpt><trkpt lat="45.83914963937057" lon="12.351242683328842"><ele>36.0</ele><time>2026-04-03T04:31:00Z</time></trkpt><trkpt lat="45.839151596178866" lon="12.35133470021871"><ele>36.0</ele><time>2026-04-03T04:31:01Z</time></trkpt><trkpt lat="45.83914582483878" lon="12.351432303599683"><ele>36.166666666666664</ele><time>2026-04-03T04:31:02Z</time></trkpt><trkpt lat="45.83914203582786" lon="12.35153839060941"><ele>36.333333333333336</ele><time>2026-04-03T04:31:03Z</time></trkpt><trkpt lat="45.839137361581756" lon="12.351649658633637"><ele>36.5</ele><time>2026-04-03T04:31:04Z</time></trkpt><trkpt lat="45.839133251761375" lon="12.35176611491583"><ele>36.66666666666667</ele><time>2026-04-03T04:31:05Z</time></trkpt><trkpt lat="45.83912695164648" lon="12.351886933794448"><ele>36.833333333333336</ele><time>2026-04-03T04:31:06Z</time></trkpt><trkpt lat="45.83912172808363" lon="12.352013382790153"><ele>37.0</ele><time>2026-04-03T04:31:07Z</time></trkpt><trkpt lat="45.83911706703504" lon="12.352146985271855"><ele>37.0</ele><time>2026-04-03T04:31:08Z</time></trkpt><trkpt lat="45.839112262715396" lon="12.35227929325968"><ele>37.0</ele><time>2026-04-03T04:31:09Z</time></trkpt><trkpt lat="45.83910570409653" lon="12.352412677511305"><ele>37.0</ele><time>2026-04-03T04:31:10Z</time></trkpt><trkpt lat="45.839102265776624" lon="12.352548916986313"><ele>37.0</ele><time>2026-04-03T04:31:11Z</time></trkpt><trkpt lat="45.839096480800656" lon="12.352684353890584"><ele>37.0</ele><time>2026-04-03T04:31:12Z</time></trkpt><trkpt lat="45.839092548847425" lon="12.352821901949861"><ele>37.0</ele><time>2026-04-03T04:31:13Z</time></trkpt><trkpt lat="45.83908609796962" lon="12.352960428581586"><ele>37.0</ele><time>2026-04-03T04:31:14Z</time></trkpt><trkpt lat="45.83908219844566" lon="12.35309996078078"><ele>37.0</ele><time>2026-04-03T04:31:15Z</time></trkpt><trkpt lat="45.839076551215896" lon="12.353242806530412"><ele>37.0</ele><time>2026-04-03T04:31:16Z</time></trkpt><trkpt lat="45.83907334018884" lon="12.353386023496537"><ele>37.0</ele><time>2026-04-03T04:31:17Z</time></trkpt><trkpt lat="45.8390669094926" lon="12.353530605070707"><ele>36.800000000000004</ele><time>2026-04-03T04:31:18Z</time></trkpt><trkpt lat="45.83906200338369" lon="12.353676120603748"><ele>36.6</ele><time>2026-04-03T04:31:19Z</time></trkpt><trkpt lat="45.83905715547014" lon="12.353823059804784"><ele>36.400000000000006</ele><time>2026-04-03T04:31:20Z</time></trkpt><trkpt lat="45.839051083606066" lon="12.353969658370309"><ele>36.2</ele><time>2026-04-03T04:31:21Z</time></trkpt><trkpt lat="45.83904550952864" lon="12.354117008817953"><ele>36.0</ele><time>2026-04-03T04:31:22Z</time></trkpt><trkpt lat="45.83903933034433" lon="12.354267324524441"><ele>36.0</ele><time>2026-04-03T04:31:23Z</time></trkpt><trkpt lat="45.83903407623297" lon="12.354416052076221"><ele>36.0</ele><time>2026-04-03T04:31:24Z</time></trkpt><trkpt lat="45.839028199459236" lon="12.354568020707458"><ele>36.0</ele><time>2026-04-03T04:31:25Z</time></trkpt><trkpt lat="45.83902182832774" lon="12.354718992209895"><ele>36.0</ele><time>2026-04-03T04:31:26Z</time></trkpt><trkpt lat="45.83901675256323" lon="12.354873115471625"><ele>36.0</ele><time>2026-04-03T04:31:27Z</time></trkpt><trkpt lat="45.83901023772566" lon="12.355026241137788"><ele>36.0</ele><time>2026-04-03T04:31:27.999Z</time></trkpt><trkpt lat="45.839005953263644" lon="12.355179689901744"><ele>36.0</ele><time>2026-04-03T04:31:28.999Z</time></trkpt><trkpt lat="45.839000765100444" lon="12.355332062551504"><ele>36.0</ele><time>2026-04-03T04:31:29.999Z</time></trkpt><trkpt lat="45.838994089079975" lon="12.355487875883671"><ele>36.0</ele><time>2026-04-03T04:31:30.999Z</time></trkpt><trkpt lat="45.8389876081518" lon="12.355638521644028"><ele>36.0</ele><time>2026-04-03T04:31:31.999Z</time></trkpt><trkpt lat="45.83898065484423" lon="12.35579076277062"><ele>35.833333333333336</ele><time>2026-04-03T04:31:32.999Z</time></trkpt><trkpt lat="45.83897294620515" lon="12.355942804936916"><ele>35.666666666666664</ele><time>2026-04-03T04:31:33.999Z</time></trkpt><trkpt lat="45.838964938198025" lon="12.356089871030457"><ele>35.5</ele><time>2026-04-03T04:31:34.999Z</time></trkpt><trkpt lat="45.83895722590589" lon="12.356221558046695"><ele>35.33333333333333</ele><time>2026-04-03T04:31:35.999Z</time></trkpt><trkpt lat="45.83894909858398" lon="12.35633875823424"><ele>35.166666666666664</ele><time>2026-04-03T04:31:36.999Z</time></trkpt><trkpt lat="45.83894356758408" lon="12.3564320336601"><ele>35.0</ele><time>2026-04-03T04:31:37.999Z</time></trkpt><trkpt lat="45.83893028279649" lon="12.356560229765684"><ele>34.83333333333333</ele><time>2026-04-03T04:31:39.999Z</time></trkpt><trkpt lat="45.83892423650964" lon="12.35665469442214"><ele>34.666666666666664</ele><time>2026-04-03T04:31:41.999Z</time></trkpt><trkpt lat="45.838915577129285" lon="12.356752080990788"><ele>34.5</ele><time>2026-04-03T04:31:58.999Z</time></trkpt><trkpt lat="45.8389161120812" lon="12.356856458665272"><ele>34.333333333333336</ele><time>2026-04-03T04:32:00.999Z</time></trkpt><trkpt lat="45.83891496465192" lon="12.357033611475037"><ele>34.16666666666667</ele><time>2026-04-03T04:32:02.999Z</time></trkpt><trkpt lat="45.83891572078738" lon="12.357137430929756"><ele>34.0</ele><time>2026-04-03T04:32:03.999Z</time></trkpt><trkpt lat="45.838913039055" lon="12.357254243703558"><ele>33.8</ele><time>2026-04-03T04:32:04.999Z</time></trkpt><trkpt lat="45.838908970518354" lon="12.357380931259728"><ele>33.599999999999994</ele><time>2026-04-03T04:32:05.999Z</time></trkpt><trkpt lat="45.838903178983415" lon="12.357511067180036"><ele>33.4</ele><time>2026-04-03T04:32:06.999Z</time></trkpt><trkpt lat="45.83889846398377" lon="12.357643825921487"><ele>33.199999999999996</ele><time>2026-04-03T04:32:07.999Z</time></trkpt><trkpt lat="45.838893605056725" lon="12.357784053529649"><ele>33.0</ele><time>2026-04-03T04:32:08.999Z</time></trkpt><trkpt lat="45.838889090964535" lon="12.357920961704526"><ele>32.8</ele><time>2026-04-03T04:32:09.999Z</time></trkpt><trkpt lat="45.83888466420396" lon="12.358059188964287"><ele>32.599999999999994</ele><time>2026-04-03T04:32:10.999Z</time></trkpt><trkpt lat="45.83888040287914" lon="12.358196961339342"><ele>32.400000000000006</ele><time>2026-04-03T04:32:11.999Z</time></trkpt><trkpt lat="45.838872268117164" lon="12.358326132094758"><ele>32.2</ele><time>2026-04-03T04:32:12.999Z</time></trkpt><trkpt lat="45.83886407686972" lon="12.358436701037109"><ele>32.0</ele><time>2026-04-03T04:32:13.999Z</time></trkpt><trkpt lat="45.83885339824041" lon="12.358567852558537"><ele>31.999999999999996</ele><time>2026-04-03T04:32:15.999Z</time></trkpt><trkpt lat="45.83883166164879" lon="12.358672823490252"><ele>32.0</ele><time>2026-04-03T04:32:18.999Z</time></trkpt><trkpt lat="45.8388391581733" lon="12.35879711533672"><ele>32.0</ele><time>2026-04-03T04:32:32.999Z</time></trkpt><trkpt lat="45.838852882849906" lon="12.358948426284064"><ele>32.0</ele><time>2026-04-03T04:32:34.999Z</time></trkpt><trkpt lat="45.83885167477862" lon="12.359045814604574"><ele>31.999999999999996</ele><time>2026-04-03T04:32:35.999Z</time></trkpt><trkpt lat="45.838846686136165" lon="12.359152170057246"><ele>32.0</ele><time>2026-04-03T04:32:36.999Z</time></trkpt><trkpt lat="45.838841927847824" lon="12.35927442371523"><ele>32.2</ele><time>2026-04-03T04:32:37.999Z</time></trkpt><trkpt lat="45.83883738790817" lon="12.359406887671575"><ele>32.400000000000006</ele><time>2026-04-03T04:32:38.999Z</time></trkpt><trkpt lat="45.83882908652893" lon="12.35954707725343"><ele>32.599999999999994</ele><time>2026-04-03T04:32:39.999Z</time></trkpt><trkpt lat="45.83882494858086" lon="12.359690166418646"><ele>32.8</ele><time>2026-04-03T04:32:40.999Z</time></trkpt><trkpt lat="45.83881473626259" lon="12.35983638429359"><ele>33.0</ele><time>2026-04-03T04:32:41.999Z</time></trkpt><trkpt lat="45.83880915047093" lon="12.359986077014215"><ele>33.0</ele><time>2026-04-03T04:32:42.999Z</time></trkpt><trkpt lat="45.838804399478065" lon="12.360136805821073"><ele>33.0</ele><time>2026-04-03T04:32:43.999Z</time></trkpt><trkpt lat="45.83879961223602" lon="12.36028906494748"><ele>33.0</ele><time>2026-04-03T04:32:44.999Z</time></trkpt><trkpt lat="45.83879180426458" lon="12.360444991168954"><ele>33.0</ele><time>2026-04-03T04:32:45.999Z</time></trkpt><trkpt lat="45.83878514323101" lon="12.360596430979694"><ele>33.0</ele><time>2026-04-03T04:32:46.999Z</time></trkpt><trkpt lat="45.83877779750695" lon="12.36074293522618"><ele>33.0</ele><time>2026-04-03T04:32:47.999Z</time></trkpt><trkpt lat="45.83877651001829" lon="12.360890096982926"><ele>33.0</ele><time>2026-04-03T04:32:48.999Z</time></trkpt><trkpt lat="45.83877374754058" lon="12.361029779219548"><ele>33.0</ele><time>2026-04-03T04:32:49.999Z</time></trkpt><trkpt lat="45.83876729978671" lon="12.3611751199073"><ele>33.0</ele><time>2026-04-03T04:32:50.999Z</time></trkpt><trkpt lat="45.83876087530478" lon="12.361309796587124"><ele>33.0</ele><time>2026-04-03T04:32:51.999Z</time></trkpt><trkpt lat="45.8387551223555" lon="12.361439312339797"><ele>33.0</ele><time>2026-04-03T04:32:52.999Z</time></trkpt><trkpt lat="45.838749565514156" lon="12.361569119798682"><ele>33.0</ele><time>2026-04-03T04:32:53.999Z</time></trkpt><trkpt lat="45.8387468903587" lon="12.361691976623913"><ele>33.0</ele><time>2026-04-03T04:32:55Z</time></trkpt><trkpt lat="45.83874355327172" lon="12.361815063233527"><ele>33.0</ele><time>2026-04-03T04:32:56Z</time></trkpt><trkpt lat="45.83873746523665" lon="12.36193349101746"><ele>33.0</ele><time>2026-04-03T04:32:57Z</time></trkpt><trkpt lat="45.83873319204466" lon="12.362038361626734"><ele>33.0</ele><time>2026-04-03T04:32:58Z</time></trkpt><trkpt lat="45.8387302368161" lon="12.362134662857141"><ele>32.833333333333336</ele><time>2026-04-03T04:32:59Z</time></trkpt><trkpt lat="45.83872468962692" lon="12.362290941506195"><ele>32.666666666666664</ele><time>2026-04-03T04:33:01Z</time></trkpt><trkpt lat="45.838707920287185" lon="12.362404938799143"><ele>32.5</ele><time>2026-04-03T04:33:03Z</time></trkpt><trkpt lat="45.838676481850506" lon="12.362489929047733"><ele>32.33333333333333</ele><time>2026-04-03T04:33:06Z</time></trkpt><trkpt lat="45.838680475810044" lon="12.362611810618167"><ele>32.166666666666664</ele><time>2026-04-03T04:33:22Z</time></trkpt><trkpt lat="45.8387271059189" lon="12.362676541139729"><ele>32.0</ele><time>2026-04-03T04:33:31.999Z</time></trkpt><trkpt lat="45.83909906280492" lon="12.362755109508488"><ele>31.999999999999996</ele><time>2026-04-03T04:33:37.999Z</time></trkpt><trkpt lat="45.839147114786876" lon="12.362658433430882"><ele>32.0</ele><time>2026-04-03T04:33:38.999Z</time></trkpt><trkpt lat="45.83918413111988" lon="12.362557185213172"><ele>32.0</ele><time>2026-04-03T04:33:39.999Z</time></trkpt><trkpt lat="45.8392121712003" lon="12.362464123390831"><ele>32.0</ele><time>2026-04-03T04:33:40.999Z</time></trkpt><trkpt lat="45.839243113946324" lon="12.362361428152047"><ele>31.999999999999996</ele><time>2026-04-03T04:33:41.999Z</time></trkpt><trkpt lat="45.83927954935177" lon="12.362230073346895"><ele>32.0</ele><time>2026-04-03T04:33:42.999Z</time></trkpt><trkpt lat="45.83931196233391" lon="12.362116276395154"><ele>32.0</ele><time>2026-04-03T04:33:43.999Z</time></trkpt><trkpt lat="45.839347945998135" lon="12.361991904915975"><ele>32.0</ele><time>2026-04-03T04:33:44.999Z</time></trkpt><trkpt lat="45.839388911176535" lon="12.361850392139504"><ele>32.0</ele><time>2026-04-03T04:33:45.999Z</time></trkpt><trkpt lat="45.839397194341664" lon="12.361692933611936"><ele>32.0</ele><time>2026-04-03T04:33:46.999Z</time></trkpt><trkpt lat="45.83940664155607" lon="12.361513062819604"><ele>32.0</ele><time>2026-04-03T04:33:47.999Z</time></trkpt><trkpt lat="45.839412495623634" lon="12.361326842085589"><ele>32.0</ele><time>2026-04-03T04:33:48.999Z</time></trkpt><trkpt lat="45.839420437325515" lon="12.361095402115225"><ele>32.0</ele><time>2026-04-03T04:33:49.999Z</time></trkpt><trkpt lat="45.83940936513717" lon="12.360897019683218"><ele>32.0</ele><time>2026-04-03T04:33:50.999Z</time></trkpt><trkpt lat="45.83939268108013" lon="12.360695470298548"><ele>32.0</ele><time>2026-04-03T04:33:51.999Z</time></trkpt><trkpt lat="45.83936948233451" lon="12.360509967218915"><ele>31.0</ele><time>2026-04-03T04:33:52.999Z</time></trkpt><trkpt lat="45.838983259699454" lon="12.359945211818964"><ele>31.0</ele><time>2026-04-03T04:33:53.999Z</time></trkpt><trkpt lat="45.8388605680156" lon="12.360075693803267"><ele>31.0</ele><time>2026-04-03T04:33:54.999Z</time></trkpt><trkpt lat="45.83886921476066" lon="12.359913228785521"><ele>31.0</ele><time>2026-04-03T04:33:55.999Z</time></trkpt><trkpt lat="45.8388760639419" lon="12.359750915116773"><ele>31.0</ele><time>2026-04-03T04:33:56.999Z</time></trkpt><trkpt lat="45.83888418756209" lon="12.35959321013247"><ele>31.4</ele><time>2026-04-03T04:33:57.999Z</time></trkpt><trkpt lat="45.83889252133817" lon="12.359438414550448"><ele>31.8</ele><time>2026-04-03T04:33:58.999Z</time></trkpt><trkpt lat="45.838900050406096" lon="12.359296129428976"><ele>32.199999999999996</ele><time>2026-04-03T04:33:59.999Z</time></trkpt><trkpt lat="45.83890556119731" lon="12.35916447813919"><ele>32.6</ele><time>2026-04-03T04:34:00.999Z</time></trkpt><trkpt lat="45.83891207830665" lon="12.359054542012379"><ele>33.0</ele><time>2026-04-03T04:34:01.999Z</time></trkpt><trkpt lat="45.83892123605217" lon="12.358922584211752"><ele>32.833333333333336</ele><time>2026-04-03T04:34:03.999Z</time></trkpt><trkpt lat="45.838931821641175" lon="12.358833507917591"><ele>32.666666666666664</ele><time>2026-04-03T04:34:05.999Z</time></trkpt><trkpt lat="45.83897379127145" lon="12.358735037803253"><ele>32.5</ele><time>2026-04-03T04:34:15.999Z</time></trkpt><trkpt lat="45.838948318430276" lon="12.358583131607288"><ele>32.33333333333333</ele><time>2026-04-03T04:34:58.999Z</time></trkpt><trkpt lat="45.83895737306771" lon="12.358439107364063"><ele>32.166666666666664</ele><time>2026-04-03T04:35:01Z</time></trkpt><trkpt lat="45.838962263762056" lon="12.35830270837707"><ele>32.0</ele><time>2026-04-03T04:35:03Z</time></trkpt><trkpt lat="45.838968986782675" lon="12.358040612270894"><ele>32.166666666666664</ele><time>2026-04-03T04:35:53.999Z</time></trkpt><trkpt lat="45.838970334702765" lon="12.357947617714725"><ele>32.33333333333333</ele><time>2026-04-03T04:35:54.999Z</time></trkpt><trkpt lat="45.83897309387783" lon="12.357844976534707"><ele>32.5</ele><time>2026-04-03T04:35:55.999Z</time></trkpt><trkpt lat="45.83898194081593" lon="12.357681642765295"><ele>32.666666666666664</ele><time>2026-04-03T04:35:57.999Z</time></trkpt><trkpt lat="45.83898891142166" lon="12.357567354628634"><ele>32.833333333333336</ele><time>2026-04-03T04:36:00.999Z</time></trkpt><trkpt lat="45.83898481685303" lon="12.357427493622637"><ele>33.0</ele><time>2026-04-03T04:36:46.999Z</time></trkpt><trkpt lat="45.838988434139125" lon="12.357253144433079"><ele>33.199999999999996</ele><time>2026-04-03T04:36:48.999Z</time></trkpt><trkpt lat="45.83899267325573" lon="12.357162372318228"><ele>33.4</ele><time>2026-04-03T04:36:49.999Z</time></trkpt><trkpt lat="45.83900304512462" lon="12.357017556495709"><ele>33.599999999999994</ele><time>2026-04-03T04:36:51.999Z</time></trkpt><trkpt lat="45.8390380622639" lon="12.356915776606154"><ele>33.8</ele><time>2026-04-03T04:36:54.999Z</time></trkpt><trkpt lat="45.83900625238275" lon="12.35681945117046"><ele>34.0</ele><time>2026-04-03T04:38:10.999Z</time></trkpt><trkpt lat="45.83901179234173" lon="12.35663021349922"><ele>34.0</ele><time>2026-04-03T04:38:12.999Z</time></trkpt><trkpt lat="45.8390147605421" lon="12.356537655809827"><ele>34.0</ele><time>2026-04-03T04:38:13.999Z</time></trkpt><trkpt lat="45.839023243151985" lon="12.35638174088707"><ele>34.0</ele><time>2026-04-03T04:38:16Z</time></trkpt><trkpt lat="45.83903242697937" lon="12.356256873675923"><ele>34.0</ele><time>2026-04-03T04:38:18Z</time></trkpt><trkpt lat="45.839033323879065" lon="12.356104932962998"><ele>34.0</ele><time>2026-04-03T04:39:03Z</time></trkpt><trkpt lat="45.839037076738144" lon="12.35593445037757"><ele>34.16666666666667</ele><time>2026-04-03T04:39:05Z</time></trkpt><trkpt lat="45.839041415695036" lon="12.355829882341263"><ele>34.333333333333336</ele><time>2026-04-03T04:39:06Z</time></trkpt><trkpt lat="45.839048028483425" lon="12.355719497794507"><ele>34.5</ele><time>2026-04-03T04:39:07Z</time></trkpt><trkpt lat="45.83905221502535" lon="12.35560520612631"><ele>34.666666666666664</ele><time>2026-04-03T04:39:08Z</time></trkpt><trkpt lat="45.83905704563301" lon="12.355489894920103"><ele>34.83333333333333</ele><time>2026-04-03T04:39:09Z</time></trkpt><trkpt lat="45.839063159807836" lon="12.355371063725523"><ele>35.0</ele><time>2026-04-03T04:39:10Z</time></trkpt><trkpt lat="45.839068291666656" lon="12.355248542025668"><ele>35.166666666666664</ele><time>2026-04-03T04:39:11Z</time></trkpt><trkpt lat="45.83907521503609" lon="12.355130987741639"><ele>35.33333333333333</ele><time>2026-04-03T04:39:11.999Z</time></trkpt><trkpt lat="45.839080703502276" lon="12.35500915795629"><ele>35.5</ele><time>2026-04-03T04:39:13Z</time></trkpt><trkpt lat="45.83908512061283" lon="12.354888093439655"><ele>35.666666666666664</ele><time>2026-04-03T04:39:14Z</time></trkpt><trkpt lat="45.83908768147836" lon="12.354767285698475"><ele>35.833333333333336</ele><time>2026-04-03T04:39:15Z</time></trkpt><trkpt lat="45.83909304354836" lon="12.35465217332603"><ele>36.0</ele><time>2026-04-03T04:39:16Z</time></trkpt><trkpt lat="45.83910067974763" lon="12.354539965502036"><ele>36.0</ele><time>2026-04-03T04:39:17Z</time></trkpt><trkpt lat="45.83910629853653" lon="12.354434951257085"><ele>36.0</ele><time>2026-04-03T04:39:18Z</time></trkpt><trkpt lat="45.83911278807755" lon="12.354335172437906"><ele>36.0</ele><time>2026-04-03T04:39:19Z</time></trkpt><trkpt lat="45.839118807115106" lon="12.354244298037324"><ele>36.0</ele><time>2026-04-03T04:39:20Z</time></trkpt><trkpt lat="45.83912900321978" lon="12.35411212151627"><ele>36.0</ele><time>2026-04-03T04:39:22Z</time></trkpt><trkpt lat="45.83913333563557" lon="12.353997163879994"><ele>36.0</ele><time>2026-04-03T04:39:38Z</time></trkpt><trkpt lat="45.83913627563658" lon="12.353868699816136"><ele>36.0</ele><time>2026-04-03T04:39:40Z</time></trkpt><trkpt lat="45.839134750127144" lon="12.353674079203358"><ele>36.0</ele><time>2026-04-03T04:39:42Z</time></trkpt><trkpt lat="45.839140049253345" lon="12.353578012207219"><ele>36.0</ele><time>2026-04-03T04:39:43Z</time></trkpt><trkpt lat="45.83914310352609" lon="12.353465312662"><ele>36.0</ele><time>2026-04-03T04:39:44Z</time></trkpt><trkpt lat="45.83914798126605" lon="12.353349485693094"><ele>36.0</ele><time>2026-04-03T04:39:45Z</time></trkpt><trkpt lat="45.839153683620424" lon="12.35323006137776"><ele>36.0</ele><time>2026-04-03T04:39:46Z</time></trkpt><trkpt lat="45.839161060078936" lon="12.353114642060545"><ele>36.166666666666664</ele><time>2026-04-03T04:39:47Z</time></trkpt><trkpt lat="45.83916507938622" lon="12.352990443025618"><ele>36.333333333333336</ele><time>2026-04-03T04:39:48Z</time></trkpt><trkpt lat="45.83917079616035" lon="12.352868775699065"><ele>36.5</ele><time>2026-04-03T04:39:49Z</time></trkpt><trkpt lat="45.83917575185499" lon="12.352742707595215"><ele>36.66666666666667</ele><time>2026-04-03T04:39:50Z</time></trkpt><trkpt lat="45.83918095158466" lon="12.352616079002503"><ele>36.833333333333336</ele><time>2026-04-03T04:39:51Z</time></trkpt><trkpt lat="45.8391874420963" lon="12.352489113827925"><ele>37.0</ele><time>2026-04-03T04:39:52Z</time></trkpt><trkpt lat="45.83919351292489" lon="12.352364581055308"><ele>37.0</ele><time>2026-04-03T04:39:53Z</time></trkpt><trkpt lat="45.83920065037828" lon="12.352250048246601"><ele>37.0</ele><time>2026-04-03T04:39:54Z</time></trkpt><trkpt lat="45.839204991548144" lon="12.352142079174769"><ele>37.0</ele><time>2026-04-03T04:39:55Z</time></trkpt><trkpt lat="45.8392092447638" lon="12.352036945450507"><ele>37.0</ele><time>2026-04-03T04:39:56Z</time></trkpt><trkpt lat="45.83921337428214" lon="12.351943185416195"><ele>37.0</ele><time>2026-04-03T04:39:57Z</time></trkpt><trkpt lat="45.8392226914217" lon="12.351810822422136"><ele>37.0</ele><time>2026-04-03T04:39:59Z</time></trkpt><trkpt lat="45.83923360255782" lon="12.35170697091947"><ele>37.0</ele><time>2026-04-03T04:40:39Z</time></trkpt><trkpt lat="45.83923950320998" lon="12.351588218279947"><ele>37.0</ele><time>2026-04-03T04:40:50Z</time></trkpt><trkpt lat="45.83924093764019" lon="12.351457217302363"><ele>37.0</ele><time>2026-04-03T04:40:52Z</time></trkpt><trkpt lat="45.83925009556996" lon="12.351329021065274"><ele>37.0</ele><time>2026-04-03T04:40:54Z</time></trkpt><trkpt lat="45.83928446186856" lon="12.351223990103978"><ele>37.0</ele><time>2026-04-03T04:40:56Z</time></trkpt><trkpt lat="45.839329914479876" lon="12.351110991784497"><ele>37.0</ele><time>2026-04-03T04:40:58Z</time></trkpt><trkpt lat="45.83934921123333" lon="12.350958079528983"><ele>36.800000000000004</ele><time>2026-04-03T04:41:00Z</time></trkpt><trkpt lat="45.83933291457437" lon="12.350795503677764"><ele>36.6</ele><time>2026-04-03T04:41:02Z</time></trkpt><trkpt lat="45.83933249672293" lon="12.350627192491185"><ele>36.400000000000006</ele><time>2026-04-03T04:41:04Z</time></trkpt><trkpt lat="45.839350496678335" lon="12.350527968393449"><ele>36.2</ele><time>2026-04-03T04:41:05Z</time></trkpt><trkpt lat="45.839369480463645" lon="12.350423725591254"><ele>36.0</ele><time>2026-04-03T04:41:06Z</time></trkpt><trkpt lat="45.83939259247236" lon="12.350314657040741"><ele>36.0</ele><time>2026-04-03T04:41:07Z</time></trkpt><trkpt lat="45.839417213246136" lon="12.350198357226796"><ele>36.0</ele><time>2026-04-03T04:41:08Z</time></trkpt><trkpt lat="45.839437176454425" lon="12.350079082850026"><ele>36.0</ele><time>2026-04-03T04:41:09Z</time></trkpt><trkpt lat="45.83947247355557" lon="12.34994951988761"><ele>36.0</ele><time>2026-04-03T04:41:10Z</time></trkpt><trkpt lat="45.83950666184625" lon="12.349822720668067"><ele>36.0</ele><time>2026-04-03T04:41:11Z</time></trkpt><trkpt lat="45.83954737819614" lon="12.349693811912966"><ele>36.0</ele><time>2026-04-03T04:41:12Z</time></trkpt><trkpt lat="45.839594439243086" lon="12.349560914266053"><ele>36.0</ele><time>2026-04-03T04:41:13Z</time></trkpt><trkpt lat="45.839629570505416" lon="12.349422459209466"><ele>36.0</ele><time>2026-04-03T04:41:14Z</time></trkpt><trkpt lat="45.8396742531041" lon="12.349296932628278"><ele>36.0</ele><time>2026-04-03T04:41:15Z</time></trkpt><trkpt lat="45.83971767246528" lon="12.349189231953885"><ele>36.0</ele><time>2026-04-03T04:41:16Z</time></trkpt><trkpt lat="45.839754388172935" lon="12.34909710967667"><ele>36.00000000000001</ele><time>2026-04-03T04:41:17Z</time></trkpt><trkpt lat="45.839788994691474" lon="12.349012671423717"><ele>36.0</ele><time>2026-04-03T04:41:18Z</time></trkpt><trkpt lat="45.83982929277403" lon="12.348938617907505"><ele>36.0</ele><time>2026-04-03T04:41:19Z</time></trkpt><trkpt lat="45.83988028170405" lon="12.34887553073064"><ele>36.0</ele><time>2026-04-03T04:41:20Z</time></trkpt><trkpt lat="45.83992558279949" lon="12.348805266406156"><ele>36.0</ele><time>2026-04-03T04:41:21Z</time></trkpt><trkpt lat="45.83995772871194" lon="12.348715187943405"><ele>36.00000000000001</ele><time>2026-04-03T04:41:22Z</time></trkpt><trkpt lat="45.8399855443982" lon="12.348618518737462"><ele>36.0</ele><time>2026-04-03T04:41:23Z</time></trkpt><trkpt lat="45.84002350046005" lon="12.34852190856135"><ele>35.8</ele><time>2026-04-03T04:41:24Z</time></trkpt><trkpt lat="45.84007189544454" lon="12.348428369621141"><ele>35.6</ele><time>2026-04-03T04:41:25Z</time></trkpt><trkpt lat="45.84012747622632" lon="12.348333097818976"><ele>35.4</ele><time>2026-04-03T04:41:26Z</time></trkpt><trkpt lat="45.840185272539905" lon="12.348233700167414"><ele>35.2</ele><time>2026-04-03T04:41:27Z</time></trkpt><trkpt lat="45.840244498772904" lon="12.348123726177656"><ele>35.0</ele><time>2026-04-03T04:41:28Z</time></trkpt><trkpt lat="45.84031034497492" lon="12.34801381627287"><ele>35.0</ele><time>2026-04-03T04:41:29Z</time></trkpt><trkpt lat="45.84038068309291" lon="12.347897109405595"><ele>35.0</ele><time>2026-04-03T04:41:30Z</time></trkpt><trkpt lat="45.84045195967859" lon="12.347772459742215"><ele>35.0</ele><time>2026-04-03T04:41:31Z</time></trkpt><trkpt lat="45.84052530822779" lon="12.347644520038871"><ele>35.0</ele><time>2026-04-03T04:41:32Z</time></trkpt><trkpt lat="45.84060206448904" lon="12.347513630039332"><ele>35.0</ele><time>2026-04-03T04:41:33Z</time></trkpt><trkpt lat="45.840678441498135" lon="12.347380693251887"><ele>35.0</ele><time>2026-04-03T04:41:34Z</time></trkpt><trkpt lat="45.84075651269368" lon="12.347248739934566"><ele>35.0</ele><time>2026-04-03T04:41:35Z</time></trkpt><trkpt lat="45.84083596859977" lon="12.347114342766663"><ele>35.0</ele><time>2026-04-03T04:41:36Z</time></trkpt><trkpt lat="45.84091696219229" lon="12.346976091188104"><ele>35.25</ele><time>2026-04-03T04:41:37Z</time></trkpt><trkpt lat="45.840998517284746" lon="12.346835210566226"><ele>35.5</ele><time>2026-04-03T04:41:38Z</time></trkpt><trkpt lat="45.84108182150768" lon="12.346694229920898"><ele>35.75</ele><time>2026-04-03T04:41:39Z</time></trkpt><trkpt lat="45.84116627085739" lon="12.346552262506261"><ele>36.0</ele><time>2026-04-03T04:41:40Z</time></trkpt><trkpt lat="45.841251054198516" lon="12.346407705021427"><ele>36.0</ele><time>2026-04-03T04:41:41Z</time></trkpt><trkpt lat="45.841334678503706" lon="12.346262858815482"><ele>36.0</ele><time>2026-04-03T04:41:42Z</time></trkpt><trkpt lat="45.841415571858235" lon="12.346123545938127"><ele>36.0</ele><time>2026-04-03T04:41:43Z</time></trkpt><trkpt lat="45.84149529669705" lon="12.345988518146088"><ele>36.0</ele><time>2026-04-03T04:41:44Z</time></trkpt><trkpt lat="45.84156933948059" lon="12.345858954940656"><ele>36.0</ele><time>2026-04-03T04:41:45Z</time></trkpt><trkpt lat="45.8416423166953" lon="12.345741405061704"><ele>36.0</ele><time>2026-04-03T04:41:46Z</time></trkpt><trkpt lat="45.84169929518436" lon="12.345647061349547"><ele>36.0</ele><time>2026-04-03T04:41:47Z</time></trkpt><trkpt lat="45.84173819523452" lon="12.34556931504852"><ele>36.0</ele><time>2026-04-03T04:41:48Z</time></trkpt><trkpt lat="45.84180675846433" lon="12.345505716006993"><ele>36.0</ele><time>2026-04-03T04:41:50Z</time></trkpt><trkpt lat="45.84190939493319" lon="12.345581604616543"><ele>36.333333333333336</ele><time>2026-04-03T04:41:53Z</time></trkpt><trkpt lat="45.84195606493209" lon="12.34564800429137"><ele>36.666666666666664</ele><time>2026-04-03T04:41:55Z</time></trkpt><trkpt lat="45.84199985956014" lon="12.345774790437305"><ele>37.0</ele><time>2026-04-03T04:41:57Z</time></trkpt><trkpt lat="45.84207309973382" lon="12.345853638485439"><ele>37.33333333333333</ele><time>2026-04-03T04:41:59Z</time></trkpt><trkpt lat="45.84215736580458" lon="12.345925308562544"><ele>37.666666666666664</ele><time>2026-04-03T04:42:01Z</time></trkpt><trkpt lat="45.84224528187834" lon="12.345958622881708"><ele>38.0</ele><time>2026-04-03T04:43:22.999Z</time></trkpt><trkpt lat="45.84232322956454" lon="12.345986818805496"><ele>38.0</ele><time>2026-04-03T04:43:25Z</time></trkpt><trkpt lat="45.842406885868705" lon="12.345995191606224"><ele>38.0</ele><time>2026-04-03T04:43:27Z</time></trkpt><trkpt lat="45.8424797934161" lon="12.346014847855022"><ele>38.0</ele><time>2026-04-03T04:43:29Z</time></trkpt><trkpt lat="45.842558064989646" lon="12.346037737143648"><ele>38.0</ele><time>2026-04-03T04:43:32Z</time></trkpt><trkpt lat="45.84264937948055" lon="12.34602430824226"><ele>38.0</ele><time>2026-04-03T04:44:46Z</time></trkpt><trkpt lat="45.84273331201715" lon="12.346094789416343"><ele>38.0</ele><time>2026-04-03T04:44:48Z</time></trkpt><trkpt lat="45.84280568814678" lon="12.346113781866725"><ele>37.83333333333333</ele><time>2026-04-03T04:45:13Z</time></trkpt><trkpt lat="45.842902087888866" lon="12.346123449758934"><ele>37.666666666666664</ele><time>2026-04-03T04:45:15.999Z</time></trkpt><trkpt lat="45.842972487458326" lon="12.346150663228423"><ele>37.5</ele><time>2026-04-03T04:45:17.999Z</time></trkpt><trkpt lat="45.843037779767016" lon="12.34615590902665"><ele>37.333333333333336</ele><time>2026-04-03T04:45:33Z</time></trkpt><trkpt lat="45.84312734653675" lon="12.346200160121619"><ele>37.16666666666667</ele><time>2026-04-03T04:45:36Z</time></trkpt><trkpt lat="45.843194664504516" lon="12.346218620841432"><ele>37.0</ele><time>2026-04-03T04:45:40Z</time></trkpt><trkpt lat="45.84327503238591" lon="12.346241699129843"><ele>37.0</ele><time>2026-04-03T04:45:46Z</time></trkpt><trkpt lat="45.84334221390003" lon="12.346254150455305"><ele>37.0</ele><time>2026-04-03T04:45:50Z</time></trkpt><trkpt lat="45.84330418014098" lon="12.346466196530644"><ele>37.0</ele><time>2026-04-03T04:46:16Z</time></trkpt><trkpt lat="45.84329175917164" lon="12.34656237876355"><ele>37.0</ele><time>2026-04-03T04:46:20Z</time></trkpt><trkpt lat="45.84330593549098" lon="12.346448420761833"><ele>37.0</ele><time>2026-04-03T04:49:04Z</time></trkpt><trkpt lat="45.843326539163556" lon="12.346355391026869"><ele>37.0</ele><time>2026-04-03T04:49:07.999Z</time></trkpt><trkpt lat="45.84334269557978" lon="12.346259732804322"><ele>37.0</ele><time>2026-04-03T04:49:11.999Z</time></trkpt><trkpt lat="45.84335900171475" lon="12.346172322729371"><ele>37.0</ele><time>2026-04-03T04:49:24.999Z</time></trkpt><trkpt lat="45.84379506811479" lon="12.346391032223558"><ele>37.0</ele><time>2026-04-03T04:49:50Z</time></trkpt><trkpt lat="45.84370150987067" lon="12.346339854096678"><ele>37.0</ele><time>2026-04-03T04:50:14Z</time></trkpt><trkpt lat="45.844075662130535" lon="12.346233870230137"><ele>37.0</ele><time>2026-04-03T04:50:15Z</time></trkpt><trkpt lat="45.843589786469074" lon="12.346297540079144"><ele>37.0</ele><time>2026-04-03T04:50:16Z</time></trkpt><trkpt lat="45.843522199173584" lon="12.346286317494291"><ele>37.0</ele><time>2026-04-03T04:50:17Z</time></trkpt><trkpt lat="45.843449288108864" lon="12.346267431730151"><ele>37.0</ele><time>2026-04-03T04:50:18Z</time></trkpt><trkpt lat="45.84337267863117" lon="12.346242872351022"><ele>37.0</ele><time>2026-04-03T04:50:19Z</time></trkpt><trkpt lat="45.84329988033407" lon="12.346220761954836"><ele>37.0</ele><time>2026-04-03T04:50:20Z</time></trkpt><trkpt lat="45.843238439832156" lon="12.346200785826506"><ele>37.0</ele><time>2026-04-03T04:50:21Z</time></trkpt><trkpt lat="45.843153781843625" lon="12.346174619326696"><ele>37.0</ele><time>2026-04-03T04:50:23Z</time></trkpt><trkpt lat="45.84309007452206" lon="12.346158364595611"><ele>37.0</ele><time>2026-04-03T04:50:27Z</time></trkpt><trkpt lat="45.84299437553796" lon="12.346131927346429"><ele>37.0</ele><time>2026-04-03T04:50:30Z</time></trkpt><trkpt lat="45.84288371537299" lon="12.34610690942132"><ele>37.0</ele><time>2026-04-03T04:50:32Z</time></trkpt><trkpt lat="45.84281523128209" lon="12.34608741460687"><ele>37.0</ele><time>2026-04-03T04:50:33Z</time></trkpt><trkpt lat="45.84274166119153" lon="12.34606361683764"><ele>37.0</ele><time>2026-04-03T04:50:34Z</time></trkpt><trkpt lat="45.842655069192205" lon="12.346043765142937"><ele>37.0</ele><time>2026-04-03T04:50:35Z</time></trkpt><trkpt lat="45.84257378597223" lon="12.34601310763156"><ele>37.16666666666667</ele><time>2026-04-03T04:50:36Z</time></trkpt><trkpt lat="45.84249036711467" lon="12.345987450286751"><ele>37.333333333333336</ele><time>2026-04-03T04:50:37Z</time></trkpt><trkpt lat="45.84241071858875" lon="12.34596484788802"><ele>37.5</ele><time>2026-04-03T04:50:38Z</time></trkpt><trkpt lat="45.84233058193647" lon="12.345946053392778"><ele>37.666666666666664</ele><time>2026-04-03T04:50:39Z</time></trkpt><trkpt lat="45.842254842301934" lon="12.345932896975576"><ele>37.83333333333333</ele><time>2026-04-03T04:50:40Z</time></trkpt><trkpt lat="45.84217575181568" lon="12.34591081385081"><ele>38.0</ele><time>2026-04-03T04:50:41Z</time></trkpt><trkpt lat="45.842118784635815" lon="12.345842121014995"><ele>38.0</ele><time>2026-04-03T04:50:42Z</time></trkpt><trkpt lat="45.84201775860328" lon="12.345734455697425"><ele>38.0</ele><time>2026-04-03T04:50:44Z</time></trkpt><trkpt lat="45.841966398941544" lon="12.345677763788222"><ele>38.0</ele><time>2026-04-03T04:50:45Z</time></trkpt><trkpt lat="45.841861544522025" lon="12.345614246123269"><ele>38.0</ele><time>2026-04-03T04:50:47Z</time></trkpt><trkpt lat="45.84180989842571" lon="12.34553800391976"><ele>38.0</ele><time>2026-04-03T04:50:50Z</time></trkpt><trkpt lat="45.84176195207919" lon="12.345442020976916"><ele>38.0</ele><time>2026-04-03T04:50:53Z</time></trkpt><trkpt lat="45.84187334690883" lon="12.34533438501069"><ele>38.0</ele><time>2026-04-03T04:50:56Z</time></trkpt><trkpt lat="45.841961765086744" lon="12.345219715169641"><ele>38.0</ele><time>2026-04-03T04:50:58Z</time></trkpt><trkpt lat="45.84199252975432" lon="12.34512654978695"><ele>38.0</ele><time>2026-04-03T04:50:59Z</time></trkpt><trkpt lat="45.842041425011885" lon="12.345038774199788"><ele>38.0</ele><time>2026-04-03T04:51:00Z</time></trkpt><trkpt lat="45.84210229176183" lon="12.344943115034283"><ele>38.0</ele><time>2026-04-03T04:51:01Z</time></trkpt><trkpt lat="45.84216110114447" lon="12.344835874864184"><ele>38.0</ele><time>2026-04-03T04:51:02Z</time></trkpt><trkpt lat="45.84222352052406" lon="12.344731147113936"><ele>38.0</ele><time>2026-04-03T04:51:02.999Z</time></trkpt><trkpt lat="45.84228945959053" lon="12.344608433170693"><ele>38.0</ele><time>2026-04-03T04:51:03.999Z</time></trkpt><trkpt lat="45.842355251131956" lon="12.344500411767907"><ele>38.0</ele><time>2026-04-03T04:51:04.999Z</time></trkpt><trkpt lat="45.842429267796874" lon="12.344370886975355"><ele>38.0</ele><time>2026-04-03T04:51:05.999Z</time></trkpt><trkpt lat="45.84249892652566" lon="12.34423782894863"><ele>38.0</ele><time>2026-04-03T04:51:06.999Z</time></trkpt><trkpt lat="45.8425783527317" lon="12.344101074767346"><ele>38.0</ele><time>2026-04-03T04:51:07.999Z</time></trkpt><trkpt lat="45.84266427494846" lon="12.343957532621609"><ele>38.0</ele><time>2026-04-03T04:51:08.999Z</time></trkpt><trkpt lat="45.84275690784839" lon="12.343813848766287"><ele>37.75</ele><time>2026-04-03T04:51:09.999Z</time></trkpt><trkpt lat="45.842847126135275" lon="12.343664271151773"><ele>37.5</ele><time>2026-04-03T04:51:10.999Z</time></trkpt><trkpt lat="45.8429351415677" lon="12.343517469088827"><ele>37.25</ele><time>2026-04-03T04:51:11.999Z</time></trkpt><trkpt lat="45.8430205685978" lon="12.343374405260647"><ele>37.0</ele><time>2026-04-03T04:51:12.999Z</time></trkpt><trkpt lat="45.84310424472086" lon="12.343232104247242"><ele>37.0</ele><time>2026-04-03T04:51:13.999Z</time></trkpt><trkpt lat="45.84318306601001" lon="12.343099375215607"><ele>37.0</ele><time>2026-04-03T04:51:14.999Z</time></trkpt><trkpt lat="45.84325218282346" lon="12.342976191822007"><ele>37.0</ele><time>2026-04-03T04:51:15.999Z</time></trkpt><trkpt lat="45.84331174223334" lon="12.34286917005389"><ele>37.0</ele><time>2026-04-03T04:51:16.999Z</time></trkpt><trkpt lat="45.84336420860185" lon="12.342763978942653"><ele>37.0</ele><time>2026-04-03T04:51:17.999Z</time></trkpt><trkpt lat="45.84342523844423" lon="12.342674121719686"><ele>37.0</ele><time>2026-04-03T04:51:18.999Z</time></trkpt><trkpt lat="45.843505272818774" lon="12.34259599144306"><ele>37.0</ele><time>2026-04-03T04:51:19.999Z</time></trkpt><trkpt lat="45.843576825970366" lon="12.34253131740059"><ele>37.0</ele><time>2026-04-03T04:51:20.999Z</time></trkpt><trkpt lat="45.84364393931783" lon="12.342451015812198"><ele>37.0</ele><time>2026-04-03T04:51:21.999Z</time></trkpt><trkpt lat="45.8437015540493" lon="12.34236043713659"><ele>37.0</ele><time>2026-04-03T04:51:22.999Z</time></trkpt><trkpt lat="45.84374324632328" lon="12.342253587771292"><ele>37.0</ele><time>2026-04-03T04:51:23.999Z</time></trkpt><trkpt lat="45.84377515251853" lon="12.342131152728234"><ele>37.0</ele><time>2026-04-03T04:51:24.999Z</time></trkpt><trkpt lat="45.843804839760026" lon="12.342000860219551"><ele>37.0</ele><time>2026-04-03T04:51:25.999Z</time></trkpt><trkpt lat="45.84384331195271" lon="12.34187756304506"><ele>37.0</ele><time>2026-04-03T04:51:26.999Z</time></trkpt><trkpt lat="45.84388149427766" lon="12.341750031840599"><ele>37.0</ele><time>2026-04-03T04:51:27.999Z</time></trkpt><trkpt lat="45.84392169655405" lon="12.341621090169543"><ele>37.0</ele><time>2026-04-03T04:51:28.999Z</time></trkpt><trkpt lat="45.84396379836411" lon="12.3414872435501"><ele>37.0</ele><time>2026-04-03T04:51:29.999Z</time></trkpt><trkpt lat="45.84400597730215" lon="12.34134650633715"><ele>37.0</ele><time>2026-04-03T04:51:30.999Z</time></trkpt><trkpt lat="45.84405321832509" lon="12.341200476675684"><ele>37.0</ele><time>2026-04-03T04:51:31.999Z</time></trkpt><trkpt lat="45.844102879997415" lon="12.341048658267065"><ele>37.0</ele><time>2026-04-03T04:51:32.999Z</time></trkpt><trkpt lat="45.84415346632853" lon="12.340892920943459"><ele>37.0</ele><time>2026-04-03T04:51:33.999Z</time></trkpt><trkpt lat="45.84420544810924" lon="12.34072835515884"><ele>37.0</ele><time>2026-04-03T04:51:34.999Z</time></trkpt><trkpt lat="45.844255442611505" lon="12.340557471742109"><ele>37.0</ele><time>2026-04-03T04:51:35.999Z</time></trkpt><trkpt lat="45.84430542625737" lon="12.340381105367442"><ele>37.0</ele><time>2026-04-03T04:51:36.999Z</time></trkpt><trkpt lat="45.84435202628209" lon="12.340193171383039"><ele>37.0</ele><time>2026-04-03T04:51:37.999Z</time></trkpt><trkpt lat="45.8443960071634" lon="12.340000770429738"><ele>37.0</ele><time>2026-04-03T04:51:38.999Z</time></trkpt><trkpt lat="45.84443428650639" lon="12.339800162032931"><ele>37.0</ele><time>2026-04-03T04:51:39.999Z</time></trkpt><trkpt lat="45.84446449666614" lon="12.339589568985172"><ele>37.0</ele><time>2026-04-03T04:51:40.999Z</time></trkpt><trkpt lat="45.844490459967886" lon="12.339372422698412"><ele>37.0</ele><time>2026-04-03T04:51:41.999Z</time></trkpt><trkpt lat="45.844514640310706" lon="12.339149000370153"><ele>37.0</ele><time>2026-04-03T04:51:42.999Z</time></trkpt><trkpt lat="45.844540762838804" lon="12.338926172429929"><ele>37.0</ele><time>2026-04-03T04:51:43.999Z</time></trkpt><trkpt lat="45.84456992489102" lon="12.338706240508852"><ele>37.0</ele><time>2026-04-03T04:51:44.999Z</time></trkpt><trkpt lat="45.844591679738436" lon="12.33848500225233"><ele>37.0</ele><time>2026-04-03T04:51:45.999Z</time></trkpt><trkpt lat="45.84459702193643" lon="12.338263051788504"><ele>37.0</ele><time>2026-04-03T04:51:46.999Z</time></trkpt><trkpt lat="45.84457904236884" lon="12.338041810541098"><ele>37.0</ele><time>2026-04-03T04:51:48Z</time></trkpt><trkpt lat="45.844552512480725" lon="12.337825635962435"><ele>37.0</ele><time>2026-04-03T04:51:49Z</time></trkpt><trkpt lat="45.8445206367193" lon="12.337602757934963"><ele>37.0</ele><time>2026-04-03T04:51:50Z</time></trkpt><trkpt lat="45.84448208415247" lon="12.337382691304377"><ele>37.0</ele><time>2026-04-03T04:51:51Z</time></trkpt><trkpt lat="45.844441372358595" lon="12.337166174295453"><ele>37.0</ele><time>2026-04-03T04:51:52Z</time></trkpt><trkpt lat="45.84441820382773" lon="12.336951789030929"><ele>37.0</ele><time>2026-04-03T04:51:53Z</time></trkpt><trkpt lat="45.844409092632915" lon="12.336737722784077"><ele>37.0</ele><time>2026-04-03T04:51:54Z</time></trkpt><trkpt lat="45.84441465582366" lon="12.336523935135029"><ele>37.0</ele><time>2026-04-03T04:51:55Z</time></trkpt><trkpt lat="45.84443135002444" lon="12.336308800145531"><ele>37.0</ele><time>2026-04-03T04:51:56Z</time></trkpt><trkpt lat="45.84445498256355" lon="12.336095473737549"><ele>37.0</ele><time>2026-04-03T04:51:57Z</time></trkpt><trkpt lat="45.84447960615981" lon="12.335878740585992"><ele>37.0</ele><time>2026-04-03T04:51:58Z</time></trkpt><trkpt lat="45.84450330130988" lon="12.335661929144749"><ele>37.0</ele><time>2026-04-03T04:51:59Z</time></trkpt><trkpt lat="45.84453022365116" lon="12.3354483693139"><ele>37.333333333333336</ele><time>2026-04-03T04:52:00Z</time></trkpt><trkpt lat="45.844556623384406" lon="12.335230351012987"><ele>37.666666666666664</ele><time>2026-04-03T04:52:01Z</time></trkpt><trkpt lat="45.84458176132357" lon="12.335011477877663"><ele>38.0</ele><time>2026-04-03T04:52:02Z</time></trkpt><trkpt lat="45.84460553211439" lon="12.334790869460477"><ele>38.0</ele><time>2026-04-03T04:52:03Z</time></trkpt><trkpt lat="45.84463073845308" lon="12.334571301502997"><ele>38.0</ele><time>2026-04-03T04:52:04Z</time></trkpt><trkpt lat="45.844658783367294" lon="12.334347359293377"><ele>38.0</ele><time>2026-04-03T04:52:05Z</time></trkpt><trkpt lat="45.84468505096393" lon="12.334122501353491"><ele>38.0</ele><time>2026-04-03T04:52:06Z</time></trkpt><trkpt lat="45.84470999770618" lon="12.33390220288039"><ele>38.0</ele><time>2026-04-03T04:52:07Z</time></trkpt><trkpt lat="45.844733953023734" lon="12.333680275490911"><ele>38.0</ele><time>2026-04-03T04:52:08Z</time></trkpt><trkpt lat="45.8447579646946" lon="12.333459357815089"><ele>38.666666666666664</ele><time>2026-04-03T04:52:09Z</time></trkpt><trkpt lat="45.844782191209546" lon="12.33323753170399"><ele>39.333333333333336</ele><time>2026-04-03T04:52:10Z</time></trkpt><trkpt lat="45.84480947713636" lon="12.33301708293831"><ele>40.0</ele><time>2026-04-03T04:52:11Z</time></trkpt><trkpt lat="45.84483550208036" lon="12.332800963243082"><ele>40.0</ele><time>2026-04-03T04:52:12Z</time></trkpt><trkpt lat="45.84485830526081" lon="12.332587521263102"><ele>40.0</ele><time>2026-04-03T04:52:13Z</time></trkpt><trkpt lat="45.84487764888317" lon="12.332375565435537"><ele>40.0</ele><time>2026-04-03T04:52:14Z</time></trkpt><trkpt lat="45.84489216761815" lon="12.332162994346046"><ele>40.0</ele><time>2026-04-03T04:52:15Z</time></trkpt><trkpt lat="45.84489603434331" lon="12.331948863251199"><ele>40.0</ele><time>2026-04-03T04:52:16Z</time></trkpt><trkpt lat="45.844886370804964" lon="12.331736290267882"><ele>40.0</ele><time>2026-04-03T04:52:17Z</time></trkpt><trkpt lat="45.84485882821531" lon="12.331524887832268"><ele>40.0</ele><time>2026-04-03T04:52:18Z</time></trkpt><trkpt lat="45.84482573901675" lon="12.331317581540075"><ele>40.0</ele><time>2026-04-03T04:52:19Z</time></trkpt><trkpt lat="45.844795180739474" lon="12.3311033890583"><ele>40.25</ele><time>2026-04-03T04:52:20Z</time></trkpt><trkpt lat="45.84476820454947" lon="12.330893421058203"><ele>40.5</ele><time>2026-04-03T04:52:21Z</time></trkpt><trkpt lat="45.84474595620768" lon="12.3306843273073"><ele>40.75</ele><time>2026-04-03T04:52:22Z</time></trkpt><trkpt lat="45.84473198676524" lon="12.33047303807827"><ele>41.0</ele><time>2026-04-03T04:52:23Z</time></trkpt><trkpt lat="45.84472572616092" lon="12.330259436358295"><ele>41.33333333333333</ele><time>2026-04-03T04:52:24Z</time></trkpt><trkpt lat="45.84472503615619" lon="12.330044718125787"><ele>41.666666666666664</ele><time>2026-04-03T04:52:25Z</time></trkpt><trkpt lat="45.84472868960451" lon="12.329828909813983"><ele>42.0</ele><time>2026-04-03T04:52:26Z</time></trkpt><trkpt lat="45.84473612592308" lon="12.329611680433274"><ele>42.0</ele><time>2026-04-03T04:52:27Z</time></trkpt><trkpt lat="45.844739682921826" lon="12.329393470719818"><ele>42.0</ele><time>2026-04-03T04:52:28Z</time></trkpt><trkpt lat="45.84474639050794" lon="12.329175223654557"><ele>42.0</ele><time>2026-04-03T04:52:29Z</time></trkpt><trkpt lat="45.84475512603812" lon="12.328958011878715"><ele>41.333333333333336</ele><time>2026-04-03T04:52:30Z</time></trkpt><trkpt lat="45.844760228111625" lon="12.328737814821773"><ele>40.66666666666667</ele><time>2026-04-03T04:52:31Z</time></trkpt><trkpt lat="45.84476502382287" lon="12.32851858822161"><ele>40.0</ele><time>2026-04-03T04:52:32Z</time></trkpt><trkpt lat="45.84477244024127" lon="12.328302074611234"><ele>40.0</ele><time>2026-04-03T04:52:33Z</time></trkpt><trkpt lat="45.84477855872626" lon="12.328082789908503"><ele>40.0</ele><time>2026-04-03T04:52:34Z</time></trkpt><trkpt lat="45.8447825664332" lon="12.327857695719024"><ele>40.0</ele><time>2026-04-03T04:52:35Z</time></trkpt><trkpt lat="45.84478973443049" lon="12.327637024546178"><ele>40.333333333333336</ele><time>2026-04-03T04:52:36Z</time></trkpt><trkpt lat="45.844797264791374" lon="12.327415271174534"><ele>40.666666666666664</ele><time>2026-04-03T04:52:37Z</time></trkpt><trkpt lat="45.8447997350032" lon="12.32719333971833"><ele>41.0</ele><time>2026-04-03T04:52:38Z</time></trkpt><trkpt lat="45.84479981364125" lon="12.326973833234034"><ele>41.0</ele><time>2026-04-03T04:52:39Z</time></trkpt><trkpt lat="45.844803749345324" lon="12.326754239112052"><ele>41.0</ele><time>2026-04-03T04:52:40Z</time></trkpt><trkpt lat="45.844810280976624" lon="12.326534689518452"><ele>41.0</ele><time>2026-04-03T04:52:41Z</time></trkpt><trkpt lat="45.84481269872743" lon="12.326317778304535"><ele>41.0</ele><time>2026-04-03T04:52:42Z</time></trkpt><trkpt lat="45.84481434639153" lon="12.326098000781062"><ele>41.0</ele><time>2026-04-03T04:52:43Z</time></trkpt><trkpt lat="45.844817716333246" lon="12.325877577321407"><ele>41.0</ele><time>2026-04-03T04:52:44Z</time></trkpt><trkpt lat="45.844821185471865" lon="12.325657535467712"><ele>40.666666666666664</ele><time>2026-04-03T04:52:45Z</time></trkpt><trkpt lat="45.84482523681115" lon="12.325439989885794"><ele>40.333333333333336</ele><time>2026-04-03T04:52:46Z</time></trkpt><trkpt lat="45.84482886898107" lon="12.325222848449796"><ele>40.0</ele><time>2026-04-03T04:52:47Z</time></trkpt><trkpt lat="45.844831557961115" lon="12.325005600828097"><ele>40.0</ele><time>2026-04-03T04:52:48Z</time></trkpt><trkpt lat="45.84483565385074" lon="12.3247892135495"><ele>40.0</ele><time>2026-04-03T04:52:49Z</time></trkpt><trkpt lat="45.844841298434474" lon="12.324575905930937"><ele>40.0</ele><time>2026-04-03T04:52:50Z</time></trkpt><trkpt lat="45.84485251841591" lon="12.324362764542451"><ele>40.0</ele><time>2026-04-03T04:52:51Z</time></trkpt><trkpt lat="45.84486262998379" lon="12.324146640515815"><ele>40.75</ele><time>2026-04-03T04:52:52Z</time></trkpt><trkpt lat="45.8448826556862" lon="12.323932175131043"><ele>41.5</ele><time>2026-04-03T04:52:53Z</time></trkpt><trkpt lat="45.84490586193184" lon="12.323719203919438"><ele>42.25</ele><time>2026-04-03T04:52:54Z</time></trkpt><trkpt lat="45.844928985099344" lon="12.323508509186603"><ele>43.0</ele><time>2026-04-03T04:52:55Z</time></trkpt><trkpt lat="45.844949231852105" lon="12.323298099332083"><ele>43.0</ele><time>2026-04-03T04:52:56Z</time></trkpt><trkpt lat="45.8449775593504" lon="12.323087693967235"><ele>43.0</ele><time>2026-04-03T04:52:57Z</time></trkpt><trkpt lat="45.84500435016624" lon="12.322880013684662"><ele>43.0</ele><time>2026-04-03T04:52:58Z</time></trkpt><trkpt lat="45.845038254528376" lon="12.32267759602019"><ele>43.0</ele><time>2026-04-03T04:52:59Z</time></trkpt><trkpt lat="45.845078932133" lon="12.32247498093248"><ele>43.0</ele><time>2026-04-03T04:53:00Z</time></trkpt><trkpt lat="45.845129599810534" lon="12.322273560582147"><ele>43.0</ele><time>2026-04-03T04:53:01Z</time></trkpt><trkpt lat="45.84519033478024" lon="12.322067251201187"><ele>43.0</ele><time>2026-04-03T04:53:02Z</time></trkpt><trkpt lat="45.845257936934075" lon="12.321870610452248"><ele>43.0</ele><time>2026-04-03T04:53:03Z</time></trkpt><trkpt lat="45.84533288857916" lon="12.321674630798451"><ele>43.0</ele><time>2026-04-03T04:53:04Z</time></trkpt><trkpt lat="45.84541710290993" lon="12.321488681640398"><ele>43.0</ele><time>2026-04-03T04:53:05Z</time></trkpt><trkpt lat="45.845501515336174" lon="12.321304100892533"><ele>43.25</ele><time>2026-04-03T04:53:06Z</time></trkpt><trkpt lat="45.8455889758353" lon="12.321140424456184"><ele>43.5</ele><time>2026-04-03T04:53:07Z</time></trkpt><trkpt lat="45.845662382506916" lon="12.32100238023681"><ele>43.75</ele><time>2026-04-03T04:53:08Z</time></trkpt><trkpt lat="45.84572970034251" lon="12.32088105995607"><ele>44.0</ele><time>2026-04-03T04:53:09Z</time></trkpt><trkpt lat="45.845787527724966" lon="12.32076104340345"><ele>44.0</ele><time>2026-04-03T04:53:09.999Z</time></trkpt><trkpt lat="45.84583906656427" lon="12.320660259246717"><ele>44.0</ele><time>2026-04-03T04:53:10.999Z</time></trkpt><trkpt lat="45.84588564842878" lon="12.320580405429576"><ele>44.0</ele><time>2026-04-03T04:53:11.999Z</time></trkpt><trkpt lat="45.84597316690109" lon="12.3204907816218"><ele>44.0</ele><time>2026-04-03T04:53:13.999Z</time></trkpt><trkpt lat="45.84609664973601" lon="12.320555193297247"><ele>44.0</ele><time>2026-04-03T04:53:16.999Z</time></trkpt><trkpt lat="45.84616946966106" lon="12.320636831260773"><ele>43.714285714285715</ele><time>2026-04-03T04:53:18.999Z</time></trkpt><trkpt lat="45.84623176667071" lon="12.320706672081798"><ele>43.42857142857143</ele><time>2026-04-03T04:53:20.999Z</time></trkpt><trkpt lat="45.84626812502021" lon="12.320788225813397"><ele>43.14285714285714</ele><time>2026-04-03T04:53:24.999Z</time></trkpt><trkpt lat="45.846239448083644" lon="12.32070325670406"><ele>42.85714285714286</ele><time>2026-04-03T04:53:38.999Z</time></trkpt><trkpt lat="45.84619071086249" lon="12.320634495916204"><ele>42.57142857142857</ele><time>2026-04-03T04:53:45.999Z</time></trkpt><trkpt lat="45.846264190373915" lon="12.320635600979413"><ele>42.285714285714285</ele><time>2026-04-03T04:54:11Z</time></trkpt><trkpt lat="45.84629508484876" lon="12.320727198652792"><ele>42.0</ele><time>2026-04-03T04:57:23.999Z</time></trkpt><trkpt lat="45.846259638909174" lon="12.320804699960782"><ele>42.0</ele><time>2026-04-03T04:57:31.999Z</time></trkpt><trkpt lat="45.846222734829695" lon="12.320890327013839"><ele>42.0</ele><time>2026-04-03T04:59:07.999Z</time></trkpt><trkpt lat="45.846171048690586" lon="12.320995772266212"><ele>42.0</ele><time>2026-04-03T04:59:09.999Z</time></trkpt><trkpt lat="45.84610208266763" lon="12.321141233399787"><ele>42.0</ele><time>2026-04-03T04:59:11.999Z</time></trkpt><trkpt lat="45.84603246861553" lon="12.321262465293788"><ele>42.0</ele><time>2026-04-03T04:59:13.999Z</time></trkpt><trkpt lat="45.84599091312347" lon="12.321340157098216"><ele>42.0</ele><time>2026-04-03T04:59:15.999Z</time></trkpt><trkpt lat="45.8459515969129" lon="12.321413650655082"><ele>42.0</ele><time>2026-04-03T04:59:20.999Z</time></trkpt><trkpt lat="45.84599142936928" lon="12.321524033118985"><ele>42.0</ele><time>2026-04-03T05:00:44Z</time></trkpt><trkpt lat="45.846026175243274" lon="12.321437346619911"><ele>42.0</ele><time>2026-04-03T05:01:34.999Z</time></trkpt><trkpt lat="45.846085080597035" lon="12.32132935093356"><ele>42.0</ele><time>2026-04-03T05:01:45.999Z</time></trkpt><trkpt lat="45.846153614963804" lon="12.32120451644742"><ele>42.0</ele><time>2026-04-03T05:01:47.999Z</time></trkpt><trkpt lat="45.84620272108263" lon="12.321112316907337"><ele>42.0</ele><time>2026-04-03T05:01:48.999Z</time></trkpt><trkpt lat="45.846243775266785" lon="12.321030272454438"><ele>42.0</ele><time>2026-04-03T05:01:49.999Z</time></trkpt><trkpt lat="45.84628333169403" lon="12.320955437533296"><ele>42.0</ele><time>2026-04-03T05:01:50.999Z</time></trkpt><trkpt lat="45.846305599461814" lon="12.320858597809634"><ele>42.0</ele><time>2026-04-03T05:01:52.999Z</time></trkpt><trkpt lat="45.846277332204345" lon="12.320754343176452"><ele>42.0</ele><time>2026-04-03T05:01:54.999Z</time></trkpt><trkpt lat="45.84621541875982" lon="12.320692330360451"><ele>42.0</ele><time>2026-04-03T05:01:56.999Z</time></trkpt><trkpt lat="45.84616098086173" lon="12.320602906958834"><ele>42.0</ele><time>2026-04-03T05:01:58.999Z</time></trkpt><trkpt lat="45.84609281028767" lon="12.320495869106514"><ele>42.5</ele><time>2026-04-03T05:02:00.999Z</time></trkpt><trkpt lat="45.84607902445543" lon="12.320402945906903"><ele>43.0</ele><time>2026-04-03T05:02:03.999Z</time></trkpt><trkpt lat="45.84608310526445" lon="12.320268703028834"><ele>43.5</ele><time>2026-04-03T05:02:11.999Z</time></trkpt><trkpt lat="45.846142922969705" lon="12.320147718123707"><ele>44.0</ele><time>2026-04-03T05:02:13.999Z</time></trkpt><trkpt lat="45.84618675952167" lon="12.320066288759165"><ele>44.5</ele><time>2026-04-03T05:02:14.999Z</time></trkpt><trkpt lat="45.84623451019023" lon="12.319981710868996"><ele>45.0</ele><time>2026-04-03T05:02:15.999Z</time></trkpt><trkpt lat="45.84628574479483" lon="12.319886142067835"><ele>45.0</ele><time>2026-04-03T05:02:17Z</time></trkpt><trkpt lat="45.846339734370936" lon="12.31978472526838"><ele>45.0</ele><time>2026-04-03T05:02:18Z</time></trkpt><trkpt lat="45.8463950822671" lon="12.319670386298695"><ele>45.0</ele><time>2026-04-03T05:02:19Z</time></trkpt><trkpt lat="45.84645353917015" lon="12.319546703147262"><ele>45.0</ele><time>2026-04-03T05:02:20Z</time></trkpt><trkpt lat="45.84651452965486" lon="12.319420321027966"><ele>45.0</ele><time>2026-04-03T05:02:21Z</time></trkpt><trkpt lat="45.84656911708603" lon="12.319306897833906"><ele>45.0</ele><time>2026-04-03T05:02:22Z</time></trkpt><trkpt lat="45.84661324670881" lon="12.319212362900291"><ele>45.0</ele><time>2026-04-03T05:02:23Z</time></trkpt><trkpt lat="45.84665420477226" lon="12.31913257941013"><ele>45.0</ele><time>2026-04-03T05:02:24Z</time></trkpt><trkpt lat="45.84670289549773" lon="12.319073832917029"><ele>45.0</ele><time>2026-04-03T05:02:25Z</time></trkpt><trkpt lat="45.84675688636497" lon="12.319014596807518"><ele>45.0</ele><time>2026-04-03T05:02:26Z</time></trkpt><trkpt lat="45.84683918845154" lon="12.318873988332083"><ele>45.0</ele><time>2026-04-03T05:02:28Z</time></trkpt><trkpt lat="45.84686765431681" lon="12.318777348682572"><ele>44.8</ele><time>2026-04-03T05:02:29Z</time></trkpt><trkpt lat="45.846904886065914" lon="12.3186729977824"><ele>44.6</ele><time>2026-04-03T05:02:30Z</time></trkpt><trkpt lat="45.8469541720768" lon="12.318568724365429"><ele>44.400000000000006</ele><time>2026-04-03T05:02:31Z</time></trkpt><trkpt lat="45.847011094322156" lon="12.318461326521989"><ele>44.2</ele><time>2026-04-03T05:02:32Z</time></trkpt><trkpt lat="45.84707112373681" lon="12.31834823816152"><ele>44.0</ele><time>2026-04-03T05:02:33Z</time></trkpt><trkpt lat="45.84712972378346" lon="12.318230609987838"><ele>44.0</ele><time>2026-04-03T05:02:34Z</time></trkpt><trkpt lat="45.84719068861335" lon="12.318109931764281"><ele>44.0</ele><time>2026-04-03T05:02:35Z</time></trkpt><trkpt lat="45.847254197064125" lon="12.317991145684578"><ele>44.0</ele><time>2026-04-03T05:02:36Z</time></trkpt><trkpt lat="45.84731706167399" lon="12.317872799217957"><ele>44.0</ele><time>2026-04-03T05:02:37Z</time></trkpt><trkpt lat="45.847373426668135" lon="12.317765770042842"><ele>44.0</ele><time>2026-04-03T05:02:38Z</time></trkpt><trkpt lat="45.84742210952491" lon="12.31767699078345"><ele>44.0</ele><time>2026-04-03T05:02:39Z</time></trkpt><trkpt lat="45.84745914069753" lon="12.317603492721856"><ele>44.0</ele><time>2026-04-03T05:02:40Z</time></trkpt><trkpt lat="45.84749428906831" lon="12.317525994933069"><ele>44.0</ele><time>2026-04-03T05:02:42Z</time></trkpt><trkpt lat="45.847517889911536" lon="12.317440207056082"><ele>44.0</ele><time>2026-04-03T05:02:50.999Z</time></trkpt><trkpt lat="45.847310486556765" lon="12.31718929657209"><ele>44.166666666666664</ele><time>2026-04-03T05:02:59.999Z</time></trkpt><trkpt lat="45.84737393015201" lon="12.317200580010157"><ele>44.33333333333333</ele><time>2026-04-03T05:03:37.999Z</time></trkpt><trkpt lat="45.847286219163664" lon="12.317198039816915"><ele>44.5</ele><time>2026-04-03T05:04:02.999Z</time></trkpt><trkpt lat="45.84719933883989" lon="12.317134006338657"><ele>44.666666666666664</ele><time>2026-04-03T05:04:04.999Z</time></trkpt><trkpt lat="45.847093281098076" lon="12.317074988039339"><ele>44.833333333333336</ele><time>2026-04-03T05:04:06.999Z</time></trkpt><trkpt lat="45.84703028974827" lon="12.317037302639527"><ele>45.0</ele><time>2026-04-03T05:04:08.999Z</time></trkpt><trkpt lat="45.846999010840854" lon="12.316954542081652"><ele>45.0</ele><time>2026-04-03T05:04:58.999Z</time></trkpt><trkpt lat="45.84692937117186" lon="12.316914870747908"><ele>45.0</ele><time>2026-04-03T05:05:03.999Z</time></trkpt><trkpt lat="45.846842619183754" lon="12.316877874895033"><ele>45.0</ele><time>2026-04-03T05:05:12.999Z</time></trkpt><trkpt lat="45.846762501610065" lon="12.316837046085748"><ele>45.0</ele><time>2026-04-03T05:05:14.999Z</time></trkpt><trkpt lat="45.846687021080065" lon="12.31681657679929"><ele>45.0</ele><time>2026-04-03T05:05:16.999Z</time></trkpt><trkpt lat="45.84661714227562" lon="12.31682778483158"><ele>45.0</ele><time>2026-04-03T05:05:21.999Z</time></trkpt><trkpt lat="45.846553113052664" lon="12.316809805475367"><ele>44.833333333333336</ele><time>2026-04-03T05:05:30.999Z</time></trkpt><trkpt lat="45.84646912450653" lon="12.316851659030299"><ele>44.666666666666664</ele><time>2026-04-03T05:05:46.999Z</time></trkpt><trkpt lat="45.846398519035404" lon="12.316869439405984"><ele>44.5</ele><time>2026-04-03T05:05:51.999Z</time></trkpt><trkpt lat="45.84633721254969" lon="12.316892611271165"><ele>44.33333333333333</ele><time>2026-04-03T05:05:56.999Z</time></trkpt><trkpt lat="45.846283244103866" lon="12.31683294214838"><ele>44.166666666666664</ele><time>2026-04-03T05:06:00.999Z</time></trkpt><trkpt lat="45.84626340018853" lon="12.316706858425267"><ele>44.0</ele><time>2026-04-03T05:06:15.999Z</time></trkpt><trkpt lat="45.84623170513906" lon="12.316556928909481"><ele>44.0</ele><time>2026-04-03T05:06:17.999Z</time></trkpt><trkpt lat="45.84621473577987" lon="12.316437784575406"><ele>44.0</ele><time>2026-04-03T05:06:19.999Z</time></trkpt><trkpt lat="45.84619662758704" lon="12.316306870178375"><ele>44.0</ele><time>2026-04-03T05:06:34Z</time></trkpt><trkpt lat="45.84617732052531" lon="12.316189454550598"><ele>44.0</ele><time>2026-04-03T05:06:36Z</time></trkpt><trkpt lat="45.84616670873462" lon="12.31606980412335"><ele>44.0</ele><time>2026-04-03T05:06:39Z</time></trkpt><trkpt lat="45.84616433265851" lon="12.315975585748372"><ele>44.0</ele><time>2026-04-03T05:07:04.999Z</time></trkpt><trkpt lat="45.846220641069245" lon="12.31587889177692"><ele>44.166666666666664</ele><time>2026-04-03T05:07:08.999Z</time></trkpt><trkpt lat="45.84626226455188" lon="12.315751494509973"><ele>44.33333333333333</ele><time>2026-04-03T05:07:10.999Z</time></trkpt><trkpt lat="45.846280206603" lon="12.315589168972927"><ele>44.5</ele><time>2026-04-03T05:07:12.999Z</time></trkpt><trkpt lat="45.84629493700422" lon="12.315466310719376"><ele>44.666666666666664</ele><time>2026-04-03T05:07:14.999Z</time></trkpt><trkpt lat="45.84632896550354" lon="12.315364116168695"><ele>44.833333333333336</ele><time>2026-04-03T05:07:16.999Z</time></trkpt><trkpt lat="45.84638191595906" lon="12.315302445474474"><ele>45.0</ele><time>2026-04-03T05:07:18.999Z</time></trkpt><trkpt lat="45.84649869596384" lon="12.31535307514534"><ele>45.0</ele><time>2026-04-03T05:07:20.999Z</time></trkpt><trkpt lat="45.84659043052266" lon="12.315393434114464"><ele>45.0</ele><time>2026-04-03T05:07:22.999Z</time></trkpt><trkpt lat="45.846682724386646" lon="12.315425922491503"><ele>45.0</ele><time>2026-04-03T05:07:24.999Z</time></trkpt><trkpt lat="45.84674129814242" lon="12.315481567836228"><ele>45.0</ele><time>2026-04-03T05:07:29.999Z</time></trkpt><trkpt lat="45.846818266082465" lon="12.315499919294144"><ele>45.0</ele><time>2026-04-03T05:07:42.999Z</time></trkpt><trkpt lat="45.84698329693705" lon="12.315483491205145"><ele>44.833333333333336</ele><time>2026-04-03T05:10:05Z</time></trkpt><trkpt lat="45.84708542392549" lon="12.315484177319298"><ele>44.666666666666664</ele><time>2026-04-03T05:10:07Z</time></trkpt><trkpt lat="45.847156050017574" lon="12.315513602865124"><ele>44.5</ele><time>2026-04-03T05:10:27Z</time></trkpt><trkpt lat="45.847216389767894" lon="12.315539402470677"><ele>44.33333333333333</ele><time>2026-04-03T05:10:44Z</time></trkpt><trkpt lat="45.847279373231" lon="12.315594343451762"><ele>44.166666666666664</ele><time>2026-04-03T05:10:47Z</time></trkpt><trkpt lat="45.847302472877544" lon="12.315682574894753"><ele>44.0</ele><time>2026-04-03T05:10:50Z</time></trkpt><trkpt lat="45.84738033189109" lon="12.315659419890947"><ele>44.0</ele><time>2026-04-03T05:11:39Z</time></trkpt><trkpt lat="45.8474557052884" lon="12.315602113070426"><ele>44.0</ele><time>2026-04-03T05:11:42Z</time></trkpt><trkpt lat="45.84747713552776" lon="12.315497388050789"><ele>44.0</ele><time>2026-04-03T05:11:44Z</time></trkpt><trkpt lat="45.8474863347491" lon="12.315406517468295"><ele>44.0</ele><time>2026-04-03T05:11:46Z</time></trkpt><trkpt lat="45.847541166049254" lon="12.315358071624345"><ele>44.0</ele><time>2026-04-03T05:13:06Z</time></trkpt><trkpt lat="45.84755762234544" lon="12.315229354693715"><ele>44.0</ele><time>2026-04-03T05:13:09Z</time></trkpt><trkpt lat="45.847565049715556" lon="12.315102081872382"><ele>44.0</ele><time>2026-04-03T05:13:11Z</time></trkpt><trkpt lat="45.8475692838358" lon="12.31501123754544"><ele>44.0</ele><time>2026-04-03T05:13:13Z</time></trkpt><trkpt lat="45.84756228151746" lon="12.314920126612874"><ele>44.0</ele><time>2026-04-03T05:13:44Z</time></trkpt><trkpt lat="45.84758873127298" lon="12.314798295379052"><ele>44.0</ele><time>2026-04-03T05:13:46Z</time></trkpt><trkpt lat="45.84761155618096" lon="12.314683871408878"><ele>44.0</ele><time>2026-04-03T05:13:48Z</time></trkpt><trkpt lat="45.84762358315963" lon="12.31457876311925"><ele>44.0</ele><time>2026-04-03T05:13:50Z</time></trkpt><trkpt lat="45.84758066042987" lon="12.314481659568756"><ele>44.33333333333333</ele><time>2026-04-03T05:13:52Z</time></trkpt><trkpt lat="45.84751457977548" lon="12.31445627408344"><ele>44.666666666666664</ele><time>2026-04-03T05:13:54Z</time></trkpt><trkpt lat="45.84743161769885" lon="12.314429412526499"><ele>45.0</ele><time>2026-04-03T05:13:56Z</time></trkpt><trkpt lat="45.84735089202159" lon="12.314404118583715"><ele>45.333333333333336</ele><time>2026-04-03T05:13:58Z</time></trkpt><trkpt lat="45.84726330163149" lon="12.314373448366368"><ele>45.66666666666667</ele><time>2026-04-03T05:14:00Z</time></trkpt><trkpt lat="45.847199939593075" lon="12.314341743688804"><ele>46.0</ele><time>2026-04-03T05:14:03Z</time></trkpt><trkpt lat="45.84710416995368" lon="12.314294904889072"><ele>46.0</ele><time>2026-04-03T05:15:24Z</time></trkpt><trkpt lat="45.847026832678864" lon="12.314274112203691"><ele>46.0</ele><time>2026-04-03T05:15:26Z</time></trkpt><trkpt lat="45.84695042097734" lon="12.314248146730272"><ele>46.0</ele><time>2026-04-03T05:15:28Z</time></trkpt><trkpt lat="45.846847478416244" lon="12.314220530660773"><ele>46.0</ele><time>2026-04-03T05:15:30Z</time></trkpt><trkpt lat="45.84674308121024" lon="12.314187712947259"><ele>46.0</ele><time>2026-04-03T05:15:32Z</time></trkpt><trkpt lat="45.84667785965695" lon="12.314134677462842"><ele>46.0</ele><time>2026-04-03T05:15:34Z</time></trkpt><trkpt lat="45.84658482388674" lon="12.314093552219648"><ele>45.66666666666667</ele><time>2026-04-03T05:15:37Z</time></trkpt><trkpt lat="45.846505378902634" lon="12.314141080875725"><ele>45.333333333333336</ele><time>2026-04-03T05:15:39Z</time></trkpt><trkpt lat="45.846471949283796" lon="12.314259005496533"><ele>45.0</ele><time>2026-04-03T05:15:41Z</time></trkpt><trkpt lat="45.84646216611341" lon="12.314370430380093"><ele>44.666666666666664</ele><time>2026-04-03T05:15:42Z</time></trkpt><trkpt lat="45.84644683357414" lon="12.314464222539783"><ele>44.33333333333333</ele><time>2026-04-03T05:15:43Z</time></trkpt><trkpt lat="45.846431461930436" lon="12.314558253909833"><ele>44.0</ele><time>2026-04-03T05:15:44Z</time></trkpt><trkpt lat="45.84640494885053" lon="12.314720439655947"><ele>44.166666666666664</ele><time>2026-04-03T05:15:46Z</time></trkpt><trkpt lat="45.84638864142537" lon="12.314823138196633"><ele>44.33333333333333</ele><time>2026-04-03T05:15:48Z</time></trkpt><trkpt lat="45.84641965838857" lon="12.314908152530272"><ele>44.5</ele><time>2026-04-03T05:16:14Z</time></trkpt><trkpt lat="45.84640228332474" lon="12.314996712923877"><ele>44.666666666666664</ele><time>2026-04-03T05:16:20Z</time></trkpt><trkpt lat="45.846352385342186" lon="12.315114572469193"><ele>44.833333333333336</ele><time>2026-04-03T05:17:45Z</time></trkpt><trkpt lat="45.84633401832903" lon="12.315242969803496"><ele>45.0</ele><time>2026-04-03T05:17:47Z</time></trkpt><trkpt lat="45.84630568452561" lon="12.315408640624701"><ele>45.0</ele><time>2026-04-03T05:17:49Z</time></trkpt><trkpt lat="45.846292692605196" lon="12.315503249683028"><ele>45.0</ele><time>2026-04-03T05:17:50Z</time></trkpt><trkpt lat="45.846274129117816" lon="12.315600047049767"><ele>45.0</ele><time>2026-04-03T05:17:51Z</time></trkpt><trkpt lat="45.8462581185668" lon="12.315698107289103"><ele>45.0</ele><time>2026-04-03T05:17:52Z</time></trkpt><trkpt lat="45.84623870175402" lon="12.315788213131787"><ele>45.0</ele><time>2026-04-03T05:17:53Z</time></trkpt><trkpt lat="45.846215181977804" lon="12.315882200876993"><ele>45.0</ele><time>2026-04-03T05:17:54Z</time></trkpt><trkpt lat="45.84619823451134" lon="12.315971579544012"><ele>45.0</ele><time>2026-04-03T05:17:55Z</time></trkpt><trkpt lat="45.846172855883665" lon="12.316059362095825"><ele>45.14285714285714</ele><time>2026-04-03T05:17:56Z</time></trkpt><trkpt lat="45.846192147252246" lon="12.316156776879211"><ele>45.28571428571429</ele><time>2026-04-03T05:17:57Z</time></trkpt><trkpt lat="45.84620194069884" lon="12.316253331421757"><ele>45.42857142857143</ele><time>2026-04-03T05:17:58Z</time></trkpt><trkpt lat="45.846214037956884" lon="12.316345728327423"><ele>45.57142857142857</ele><time>2026-04-03T05:17:59Z</time></trkpt><trkpt lat="45.84622567597537" lon="12.316447144193068"><ele>45.71428571428571</ele><time>2026-04-03T05:18:00Z</time></trkpt><trkpt lat="45.846236903524655" lon="12.316548806970594"><ele>45.85714285714286</ele><time>2026-04-03T05:18:01Z</time></trkpt><trkpt lat="45.84624705826577" lon="12.316652225065162"><ele>46.0</ele><time>2026-04-03T05:18:02Z</time></trkpt><trkpt lat="45.8462546979079" lon="12.316745603250157"><ele>45.599999999999994</ele><time>2026-04-03T05:18:03Z</time></trkpt><trkpt lat="45.846266968777606" lon="12.316861716806807"><ele>45.2</ele><time>2026-04-03T05:18:05Z</time></trkpt><trkpt lat="45.84628229080327" lon="12.317034300845396"><ele>44.8</ele><time>2026-04-03T05:18:48.999Z</time></trkpt><trkpt lat="45.846294203808995" lon="12.31714142170064"><ele>44.400000000000006</ele><time>2026-04-03T05:19:05Z</time></trkpt><trkpt lat="45.84631000292687" lon="12.317286243565924"><ele>44.0</ele><time>2026-04-03T05:19:07Z</time></trkpt><trkpt lat="45.84632239665774" lon="12.317423228321543"><ele>44.0</ele><time>2026-04-03T05:19:09Z</time></trkpt><trkpt lat="45.846330096889176" lon="12.3175325719779"><ele>44.0</ele><time>2026-04-03T05:19:24Z</time></trkpt><trkpt lat="45.846354061746645" lon="12.31764052708455"><ele>44.0</ele><time>2026-04-03T05:19:28Z</time></trkpt><trkpt lat="45.84640940848928" lon="12.317710751887558"><ele>44.0</ele><time>2026-04-03T05:20:02Z</time></trkpt><trkpt lat="45.84639085052882" lon="12.317797395257696"><ele>44.0</ele><time>2026-04-03T05:20:08Z</time></trkpt><trkpt lat="45.84640727555532" lon="12.317938110741801"><ele>44.0</ele><time>2026-04-03T05:20:10Z</time></trkpt><trkpt lat="45.84642300578337" lon="12.318052297382541"><ele>44.166666666666664</ele><time>2026-04-03T05:20:12Z</time></trkpt><trkpt lat="45.84643623038315" lon="12.318143146461384"><ele>44.33333333333333</ele><time>2026-04-03T05:20:14Z</time></trkpt><trkpt lat="45.846417260305735" lon="12.31824498889443"><ele>44.5</ele><time>2026-04-03T05:20:17Z</time></trkpt><trkpt lat="45.84635573542061" lon="12.31828973809329"><ele>44.666666666666664</ele><time>2026-04-03T05:20:21Z</time></trkpt><trkpt lat="45.84627916084811" lon="12.318247431821266"><ele>44.833333333333336</ele><time>2026-04-03T05:20:39.999Z</time></trkpt><trkpt lat="45.84619286635451" lon="12.318160288249722"><ele>45.0</ele><time>2026-04-03T05:20:41.999Z</time></trkpt><trkpt lat="45.84613432611158" lon="12.318108115695614"><ele>45.0</ele><time>2026-04-03T05:20:42.999Z</time></trkpt><trkpt lat="45.8460307025233" lon="12.318018041152484"><ele>45.0</ele><time>2026-04-03T05:20:44.999Z</time></trkpt><trkpt lat="45.84592974512928" lon="12.31794234215582"><ele>45.0</ele><time>2026-04-03T05:20:46.999Z</time></trkpt><trkpt lat="45.84586104692428" lon="12.317892247118875"><ele>45.0</ele><time>2026-04-03T05:20:48.999Z</time></trkpt><trkpt lat="45.845793177346955" lon="12.317926509867288"><ele>45.0</ele><time>2026-04-03T05:21:07.999Z</time></trkpt><trkpt lat="45.84581540526866" lon="12.317839243354843"><ele>45.0</ele><time>2026-04-03T05:21:43Z</time></trkpt><trkpt lat="45.84572814545962" lon="12.317738546579523"><ele>45.0</ele><time>2026-04-03T05:22:20Z</time></trkpt><trkpt lat="45.84566540984399" lon="12.317674224671308"><ele>45.0</ele><time>2026-04-03T05:22:23Z</time></trkpt><trkpt lat="45.84559147253766" lon="12.317641131853449"><ele>45.0</ele><time>2026-04-03T05:22:25Z</time></trkpt><trkpt lat="45.84551287554951" lon="12.317702116552589"><ele>45.0</ele><time>2026-04-03T05:22:27Z</time></trkpt><trkpt lat="45.84550464144444" lon="12.317798883539822"><ele>45.0</ele><time>2026-04-03T05:22:29Z</time></trkpt><trkpt lat="45.84553567176764" lon="12.317717416635858"><ele>45.0</ele><time>2026-04-03T05:22:35.999Z</time></trkpt><trkpt lat="45.84553721690885" lon="12.317619049723103"><ele>45.0</ele><time>2026-04-03T05:22:40.999Z</time></trkpt><trkpt lat="45.845476241565535" lon="12.317559331705874"><ele>45.0</ele><time>2026-04-03T05:22:43.999Z</time></trkpt><trkpt lat="45.84541521835216" lon="12.317491244597363"><ele>45.0</ele><time>2026-04-03T05:22:45.999Z</time></trkpt><trkpt lat="45.84535391432667" lon="12.317442455661153"><ele>45.0</ele><time>2026-04-03T05:22:47.999Z</time></trkpt><trkpt lat="45.84527452533414" lon="12.317374950828096"><ele>45.0</ele><time>2026-04-03T05:22:50.999Z</time></trkpt><trkpt lat="45.84519803186046" lon="12.317308430042461"><ele>45.0</ele><time>2026-04-03T05:22:53.999Z</time></trkpt><trkpt lat="45.84513984290786" lon="12.31725397298192"><ele>45.0</ele><time>2026-04-03T05:22:55.999Z</time></trkpt><trkpt lat="45.84507868322127" lon="12.317199778098574"><ele>45.0</ele><time>2026-04-03T05:22:57.999Z</time></trkpt><trkpt lat="45.845015967847395" lon="12.317148926099364"><ele>45.0</ele><time>2026-04-03T05:22:59.999Z</time></trkpt><trkpt lat="45.84495433134009" lon="12.317097549509308"><ele>45.0</ele><time>2026-04-03T05:23:01.999Z</time></trkpt><trkpt lat="45.844894594640316" lon="12.317043678612784"><ele>45.0</ele><time>2026-04-03T05:23:03.999Z</time></trkpt><trkpt lat="45.844834486423956" lon="12.316989490835171"><ele>45.0</ele><time>2026-04-03T05:23:05.999Z</time></trkpt><trkpt lat="45.84477298130633" lon="12.316935808442238"><ele>45.0</ele><time>2026-04-03T05:23:07.999Z</time></trkpt><trkpt lat="45.84471366828197" lon="12.31688226397744"><ele>45.0</ele><time>2026-04-03T05:23:09.999Z</time></trkpt><trkpt lat="45.84464328719987" lon="12.316820108582723"><ele>45.0</ele><time>2026-04-03T05:23:12.999Z</time></trkpt><trkpt lat="45.84457733675483" lon="12.316766517280623"><ele>45.0</ele><time>2026-04-03T05:23:16Z</time></trkpt><trkpt lat="45.844502257052895" lon="12.316710351655411"><ele>45.0</ele><time>2026-04-03T05:23:19Z</time></trkpt><trkpt lat="45.84443281033953" lon="12.316657704521097"><ele>45.0</ele><time>2026-04-03T05:23:22Z</time></trkpt><trkpt lat="45.844364738816196" lon="12.316599795797595"><ele>45.0</ele><time>2026-04-03T05:23:25Z</time></trkpt><trkpt lat="45.844299151700845" lon="12.316560605414228"><ele>45.0</ele><time>2026-04-03T05:23:29Z</time></trkpt><trkpt lat="45.844232880773255" lon="12.316558600951424"><ele>45.0</ele><time>2026-04-03T05:23:42Z</time></trkpt><trkpt lat="45.84429344335451" lon="12.316528950631886"><ele>45.0</ele><time>2026-04-03T05:25:01.999Z</time></trkpt><trkpt lat="45.844385887103094" lon="12.316593667346284"><ele>45.0</ele><time>2026-04-03T05:25:03.999Z</time></trkpt><trkpt lat="45.844478961733756" lon="12.316658162627531"><ele>45.0</ele><time>2026-04-03T05:25:05.999Z</time></trkpt><trkpt lat="45.84453958765424" lon="12.316755005373269"><ele>45.0</ele><time>2026-04-03T05:25:07.999Z</time></trkpt><trkpt lat="45.84466307379234" lon="12.316802265877199"><ele>45.0</ele><time>2026-04-03T05:25:43Z</time></trkpt><trkpt lat="45.84473062544741" lon="12.316874532283038"><ele>45.0</ele><time>2026-04-03T05:25:45Z</time></trkpt><trkpt lat="45.84478976856579" lon="12.316953277403197"><ele>45.0</ele><time>2026-04-03T05:25:48Z</time></trkpt><trkpt lat="45.8448378150682" lon="12.317028610157124"><ele>45.0</ele><time>2026-04-03T05:27:14.999Z</time></trkpt><trkpt lat="45.84490350044994" lon="12.317075275219317"><ele>45.0</ele><time>2026-04-03T05:27:16.999Z</time></trkpt><trkpt lat="45.844966722247044" lon="12.317122607949427"><ele>45.0</ele><time>2026-04-03T05:27:18.999Z</time></trkpt><trkpt lat="45.84503617246243" lon="12.317185521307138"><ele>45.0</ele><time>2026-04-03T05:27:21.999Z</time></trkpt><trkpt lat="45.84506644142145" lon="12.31726582323459"><ele>45.0</ele><time>2026-04-03T05:28:07Z</time></trkpt><trkpt lat="45.845159471323456" lon="12.317277947751302"><ele>45.0</ele><time>2026-04-03T05:28:30.999Z</time></trkpt><trkpt lat="45.84523183594106" lon="12.317334867381973"><ele>45.0</ele><time>2026-04-03T05:28:32.999Z</time></trkpt><trkpt lat="45.84530053625641" lon="12.317400989732983"><ele>45.0</ele><time>2026-04-03T05:28:34.999Z</time></trkpt><trkpt lat="45.845278535718776" lon="12.317486261420678"><ele>45.0</ele><time>2026-04-03T05:28:51.999Z</time></trkpt><trkpt lat="45.84529671650873" lon="12.317393079061222"><ele>45.0</ele><time>2026-04-03T05:29:01.999Z</time></trkpt><trkpt lat="45.84537870622201" lon="12.317458414147"><ele>45.0</ele><time>2026-04-03T05:29:48Z</time></trkpt><trkpt lat="45.84546461938088" lon="12.317519938225352"><ele>45.0</ele><time>2026-04-03T05:29:50Z</time></trkpt><trkpt lat="45.84557418328129" lon="12.317618647888661"><ele>45.0</ele><time>2026-04-03T05:29:52Z</time></trkpt><trkpt lat="45.84563419634367" lon="12.31767286811591"><ele>45.0</ele><time>2026-04-03T05:29:53Z</time></trkpt><trkpt lat="45.84569789589998" lon="12.317728586715765"><ele>45.0</ele><time>2026-04-03T05:29:54Z</time></trkpt><trkpt lat="45.84576381534502" lon="12.317783458163131"><ele>45.0</ele><time>2026-04-03T05:29:55Z</time></trkpt><trkpt lat="45.84582948815859" lon="12.317844485877284"><ele>45.0</ele><time>2026-04-03T05:29:56Z</time></trkpt><trkpt lat="45.84589923256185" lon="12.317912059131833"><ele>45.0</ele><time>2026-04-03T05:29:57Z</time></trkpt><trkpt lat="45.84596945338231" lon="12.317979680440878"><ele>45.0</ele><time>2026-04-03T05:29:58Z</time></trkpt><trkpt lat="45.84603918012281" lon="12.318040409486645"><ele>45.0</ele><time>2026-04-03T05:29:59Z</time></trkpt><trkpt lat="45.84610657955152" lon="12.31809441986399"><ele>45.0</ele><time>2026-04-03T05:30:00Z</time></trkpt><trkpt lat="45.84616883610462" lon="12.318158305565508"><ele>45.0</ele><time>2026-04-03T05:30:01Z</time></trkpt><trkpt lat="45.84622646192482" lon="12.318220938049196"><ele>45.0</ele><time>2026-04-03T05:30:02Z</time></trkpt><trkpt lat="45.84627985800712" lon="12.31827044853167"><ele>45.0</ele><time>2026-04-03T05:30:03Z</time></trkpt><trkpt lat="45.84635106156099" lon="12.318340693725455"><ele>45.0</ele><time>2026-04-03T05:30:05Z</time></trkpt><trkpt lat="45.846411305957105" lon="12.318414514032204"><ele>45.0</ele><time>2026-04-03T05:30:07Z</time></trkpt><trkpt lat="45.8464502667058" lon="12.318486045776018"><ele>45.0</ele><time>2026-04-03T05:30:09Z</time></trkpt><trkpt lat="45.8464558358263" lon="12.318583955499602"><ele>45.0</ele><time>2026-04-03T05:30:13Z</time></trkpt><trkpt lat="45.846496284324424" lon="12.318657643893724"><ele>45.0</ele><time>2026-04-03T05:30:57.999Z</time></trkpt><trkpt lat="45.84656192678266" lon="12.318700862300519"><ele>45.0</ele><time>2026-04-03T05:31:10.999Z</time></trkpt><trkpt lat="45.84659064302995" lon="12.318789946404726"><ele>45.0</ele><time>2026-04-03T05:31:27.999Z</time></trkpt><trkpt lat="45.84660056542343" lon="12.318925036476035"><ele>45.0</ele><time>2026-04-03T05:31:30.999Z</time></trkpt><trkpt lat="45.846581873669805" lon="12.319093390484046"><ele>45.0</ele><time>2026-04-03T05:31:32.999Z</time></trkpt><trkpt lat="45.84655186392166" lon="12.319193510584176"><ele>45.0</ele><time>2026-04-03T05:31:33.999Z</time></trkpt><trkpt lat="45.846516773176646" lon="12.319283094514525"><ele>45.0</ele><time>2026-04-03T05:31:34.999Z</time></trkpt><trkpt lat="45.84646654736975" lon="12.319389855518601"><ele>45.0</ele><time>2026-04-03T05:31:35.999Z</time></trkpt><trkpt lat="45.846417231682224" lon="12.319488149739113"><ele>45.0</ele><time>2026-04-03T05:31:36.999Z</time></trkpt><trkpt lat="45.84636582804387" lon="12.319585289865918"><ele>45.0</ele><time>2026-04-03T05:31:38Z</time></trkpt><trkpt lat="45.846312355056874" lon="12.319693187095565"><ele>45.0</ele><time>2026-04-03T05:31:39Z</time></trkpt><trkpt lat="45.846256861352664" lon="12.319798212954662"><ele>45.0</ele><time>2026-04-03T05:31:40Z</time></trkpt><trkpt lat="45.84618724435472" lon="12.319896453303961"><ele>45.0</ele><time>2026-04-03T05:31:41Z</time></trkpt><trkpt lat="45.84613064891449" lon="12.32000630908964"><ele>45.0</ele><time>2026-04-03T05:31:42Z</time></trkpt><trkpt lat="45.8460726851073" lon="12.320118553023086"><ele>45.0</ele><time>2026-04-03T05:31:43Z</time></trkpt><trkpt lat="45.84602604084075" lon="12.32024716513123"><ele>45.0</ele><time>2026-04-03T05:31:44Z</time></trkpt><trkpt lat="45.84596368287054" lon="12.320364387761376"><ele>45.0</ele><time>2026-04-03T05:31:45Z</time></trkpt><trkpt lat="45.84590007096162" lon="12.320489015666155"><ele>45.0</ele><time>2026-04-03T05:31:46Z</time></trkpt><trkpt lat="45.845834553597776" lon="12.320618740299487"><ele>45.0</ele><time>2026-04-03T05:31:47Z</time></trkpt><trkpt lat="45.84576575984515" lon="12.320752843254871"><ele>45.0</ele><time>2026-04-03T05:31:48Z</time></trkpt><trkpt lat="45.84568506579049" lon="12.320870707877647"><ele>44.75</ele><time>2026-04-03T05:31:49Z</time></trkpt><trkpt lat="45.84561362316088" lon="12.321006456157997"><ele>44.5</ele><time>2026-04-03T05:31:50Z</time></trkpt><trkpt lat="45.8455438401299" lon="12.32114267142982"><ele>44.25</ele><time>2026-04-03T05:31:51Z</time></trkpt><trkpt lat="45.845476370398146" lon="12.321277488144172"><ele>44.0</ele><time>2026-04-03T05:31:52Z</time></trkpt><trkpt lat="45.845411893143485" lon="12.321409950023885"><ele>43.75</ele><time>2026-04-03T05:31:53Z</time></trkpt><trkpt lat="45.84536423369383" lon="12.321556031788976"><ele>43.5</ele><time>2026-04-03T05:31:54Z</time></trkpt><trkpt lat="45.8452943042354" lon="12.321683410033117"><ele>43.25</ele><time>2026-04-03T05:31:55Z</time></trkpt><trkpt lat="45.845235605727666" lon="12.321829454802968"><ele>43.0</ele><time>2026-04-03T05:31:56Z</time></trkpt><trkpt lat="45.84517930613417" lon="12.321979934471159"><ele>43.0</ele><time>2026-04-03T05:31:57Z</time></trkpt><trkpt lat="45.8451200885695" lon="12.32214013149131"><ele>43.0</ele><time>2026-04-03T05:31:58Z</time></trkpt><trkpt lat="45.845094981766934" lon="12.32227169180312"><ele>43.0</ele><time>2026-04-03T05:31:59Z</time></trkpt><trkpt lat="45.84505170974952" lon="12.322435504377117"><ele>43.0</ele><time>2026-04-03T05:32:00Z</time></trkpt><trkpt lat="45.845020656461" lon="12.322606650002198"><ele>43.0</ele><time>2026-04-03T05:32:01Z</time></trkpt><trkpt lat="45.844992280929546" lon="12.322773041471399"><ele>43.0</ele><time>2026-04-03T05:32:02Z</time></trkpt><trkpt lat="45.84496834852819" lon="12.322941058044313"><ele>43.0</ele><time>2026-04-03T05:32:03Z</time></trkpt><trkpt lat="45.84494937244309" lon="12.323107922821542"><ele>43.0</ele><time>2026-04-03T05:32:04Z</time></trkpt><trkpt lat="45.844912303913695" lon="12.32327404954938"><ele>43.0</ele><time>2026-04-03T05:32:05Z</time></trkpt><trkpt lat="45.84489237151121" lon="12.323444129543308"><ele>43.0</ele><time>2026-04-03T05:32:06Z</time></trkpt><trkpt lat="45.84487499987779" lon="12.323617501699411"><ele>43.0</ele><time>2026-04-03T05:32:07Z</time></trkpt><trkpt lat="45.8448596113416" lon="12.32380251274926"><ele>43.0</ele><time>2026-04-03T05:32:08Z</time></trkpt><trkpt lat="45.844844405186876" lon="12.32398709970401"><ele>43.0</ele><time>2026-04-03T05:32:09Z</time></trkpt><trkpt lat="45.84484490209539" lon="12.324174016920756"><ele>43.0</ele><time>2026-04-03T05:32:10Z</time></trkpt><trkpt lat="45.8448310053394" lon="12.324361390640416"><ele>43.0</ele><time>2026-04-03T05:32:11Z</time></trkpt><trkpt lat="45.84481947006548" lon="12.32455505036682"><ele>43.0</ele><time>2026-04-03T05:32:12Z</time></trkpt><trkpt lat="45.844813903630175" lon="12.32474270591681"><ele>42.25</ele><time>2026-04-03T05:32:13Z</time></trkpt><trkpt lat="45.844809745375784" lon="12.324933579478746"><ele>41.5</ele><time>2026-04-03T05:32:14Z</time></trkpt><trkpt lat="45.84480518167392" lon="12.325121232345799"><ele>40.75</ele><time>2026-04-03T05:32:15Z</time></trkpt><trkpt lat="45.844800634935325" lon="12.325313004758858"><ele>40.0</ele><time>2026-04-03T05:32:16Z</time></trkpt><trkpt lat="45.84479875477416" lon="12.32550786167281"><ele>40.25</ele><time>2026-04-03T05:32:16.999Z</time></trkpt><trkpt lat="45.8447972215268" lon="12.325705937673"><ele>40.5</ele><time>2026-04-03T05:32:17.999Z</time></trkpt><trkpt lat="45.84478896206582" lon="12.325898132322116"><ele>40.75</ele><time>2026-04-03T05:32:18.999Z</time></trkpt><trkpt lat="45.84478899858866" lon="12.326096779763676"><ele>41.0</ele><time>2026-04-03T05:32:19.999Z</time></trkpt><trkpt lat="45.84478577022842" lon="12.326294062760063"><ele>41.0</ele><time>2026-04-03T05:32:20.999Z</time></trkpt><trkpt lat="45.844784767018844" lon="12.326490663771354"><ele>41.0</ele><time>2026-04-03T05:32:21.999Z</time></trkpt><trkpt lat="45.84478054968711" lon="12.326685333660572"><ele>41.0</ele><time>2026-04-03T05:32:22.999Z</time></trkpt><trkpt lat="45.84477596944495" lon="12.326880429485387"><ele>41.0</ele><time>2026-04-03T05:32:23.999Z</time></trkpt><trkpt lat="45.844773442489455" lon="12.32707624763947"><ele>41.0</ele><time>2026-04-03T05:32:24.999Z</time></trkpt><trkpt lat="45.844770079672074" lon="12.32727581047002"><ele>41.0</ele><time>2026-04-03T05:32:25.999Z</time></trkpt><trkpt lat="45.84476577121758" lon="12.327477515582855"><ele>41.0</ele><time>2026-04-03T05:32:26.999Z</time></trkpt><trkpt lat="45.84476219045525" lon="12.327679387120709"><ele>41.0</ele><time>2026-04-03T05:32:27.999Z</time></trkpt><trkpt lat="45.84475896313774" lon="12.327877763508699"><ele>40.75</ele><time>2026-04-03T05:32:28.999Z</time></trkpt><trkpt lat="45.844737170775154" lon="12.328075069808737"><ele>40.5</ele><time>2026-04-03T05:32:29.999Z</time></trkpt><trkpt lat="45.844731761801675" lon="12.328275040844312"><ele>40.25</ele><time>2026-04-03T05:32:30.999Z</time></trkpt><trkpt lat="45.844726300232544" lon="12.328476956490471"><ele>40.0</ele><time>2026-04-03T05:32:31.999Z</time></trkpt><trkpt lat="45.84472046331837" lon="12.328678304156224"><ele>40.0</ele><time>2026-04-03T05:32:32.999Z</time></trkpt><trkpt lat="45.8447146784332" lon="12.328880245224742"><ele>40.0</ele><time>2026-04-03T05:32:33.999Z</time></trkpt><trkpt lat="45.8447095447216" lon="12.329081899514042"><ele>40.0</ele><time>2026-04-03T05:32:34.999Z</time></trkpt><trkpt lat="45.84470443499726" lon="12.32928404939993"><ele>40.0</ele><time>2026-04-03T05:32:35.999Z</time></trkpt><trkpt lat="45.84469928880145" lon="12.329487642156582"><ele>40.5</ele><time>2026-04-03T05:32:36.999Z</time></trkpt><trkpt lat="45.84469384304491" lon="12.32969155621164"><ele>41.0</ele><time>2026-04-03T05:32:37.999Z</time></trkpt><trkpt lat="45.8446880286198" lon="12.329896981948314"><ele>41.5</ele><time>2026-04-03T05:32:38.999Z</time></trkpt><trkpt lat="45.844683629208824" lon="12.33010324034483"><ele>42.0</ele><time>2026-04-03T05:32:39.999Z</time></trkpt><trkpt lat="45.84468373644165" lon="12.330311324480224"><ele>42.25</ele><time>2026-04-03T05:32:40.999Z</time></trkpt><trkpt lat="45.844690341399414" lon="12.330514977501418"><ele>42.5</ele><time>2026-04-03T05:32:41.999Z</time></trkpt><trkpt lat="45.84470237356229" lon="12.330717486912466"><ele>42.75</ele><time>2026-04-03T05:32:42.999Z</time></trkpt><trkpt lat="45.844722115353804" lon="12.33091480463648"><ele>43.0</ele><time>2026-04-03T05:32:43.999Z</time></trkpt><trkpt lat="45.844747215499254" lon="12.33111055556741"><ele>42.5</ele><time>2026-04-03T05:32:44.999Z</time></trkpt><trkpt lat="45.84477388342651" lon="12.331304155499497"><ele>42.0</ele><time>2026-04-03T05:32:45.999Z</time></trkpt><trkpt lat="45.84481655267046" lon="12.331491265022063"><ele>41.5</ele><time>2026-04-03T05:32:46.999Z</time></trkpt><trkpt lat="45.844842665510136" lon="12.331682242988203"><ele>41.0</ele><time>2026-04-03T05:32:47.999Z</time></trkpt><trkpt lat="45.84486439940501" lon="12.331870483928654"><ele>40.75</ele><time>2026-04-03T05:32:48.999Z</time></trkpt><trkpt lat="45.84485232913609" lon="12.332058721595741"><ele>40.5</ele><time>2026-04-03T05:32:49.999Z</time></trkpt><trkpt lat="45.844843771782486" lon="12.332244183812957"><ele>40.25</ele><time>2026-04-03T05:32:50.999Z</time></trkpt><trkpt lat="45.844829363954055" lon="12.33242622786477"><ele>40.0</ele><time>2026-04-03T05:32:51.999Z</time></trkpt><trkpt lat="45.8448125468031" lon="12.332607238024176"><ele>40.0</ele><time>2026-04-03T05:32:52.999Z</time></trkpt><trkpt lat="45.84479519044631" lon="12.332784587367815"><ele>40.0</ele><time>2026-04-03T05:32:53.999Z</time></trkpt><trkpt lat="45.84477578143326" lon="12.33296059368224"><ele>40.0</ele><time>2026-04-03T05:32:54.999Z</time></trkpt><trkpt lat="45.84475612634374" lon="12.333134472103627"><ele>40.0</ele><time>2026-04-03T05:32:55.999Z</time></trkpt><trkpt lat="45.84473672286023" lon="12.333299963108663"><ele>40.0</ele><time>2026-04-03T05:32:56.999Z</time></trkpt><trkpt lat="45.844719582229175" lon="12.333459210648078"><ele>40.0</ele><time>2026-04-03T05:32:57.999Z</time></trkpt><trkpt lat="45.844702187912496" lon="12.333616690054894"><ele>40.0</ele><time>2026-04-03T05:32:58.999Z</time></trkpt><trkpt lat="45.8446855038269" lon="12.333764453191796"><ele>40.0</ele><time>2026-04-03T05:32:59.999Z</time></trkpt><trkpt lat="45.84467008497948" lon="12.333899158328538"><ele>40.0</ele><time>2026-04-03T05:33:00.999Z</time></trkpt><trkpt lat="45.84465677207967" lon="12.334015465071406"><ele>39.66666666666667</ele><time>2026-04-03T05:33:01.999Z</time></trkpt><trkpt lat="45.84464599414915" lon="12.334109625327102"><ele>39.333333333333336</ele><time>2026-04-03T05:33:02.999Z</time></trkpt><trkpt lat="45.8446327354479" lon="12.334225458640615"><ele>39.0</ele><time>2026-04-03T05:33:04.999Z</time></trkpt><trkpt lat="45.844562199208994" lon="12.334143244123691"><ele>38.666666666666664</ele><time>2026-04-03T05:33:07.999Z</time></trkpt><trkpt lat="45.84447899479609" lon="12.334127245925163"><ele>38.33333333333333</ele><time>2026-04-03T05:33:10.999Z</time></trkpt><trkpt lat="45.844408900551805" lon="12.334113768494058"><ele>38.0</ele><time>2026-04-03T05:33:12.999Z</time></trkpt><trkpt lat="45.844345862658905" lon="12.334101647828065"><ele>38.0</ele><time>2026-04-03T05:33:16.999Z</time></trkpt><trkpt lat="45.84440664525573" lon="12.33406377915814"><ele>38.0</ele><time>2026-04-03T05:33:37.999Z</time></trkpt><trkpt lat="45.84434250126731" lon="12.334034251896217"><ele>38.0</ele><time>2026-04-03T05:34:29.999Z</time></trkpt><trkpt lat="45.844271976733324" lon="12.334028932913611"><ele>38.0</ele><time>2026-04-03T05:34:33.999Z</time></trkpt><trkpt lat="45.84423025538837" lon="12.334110576784358"><ele>38.0</ele><time>2026-04-03T05:34:43.999Z</time></trkpt><trkpt lat="45.84416054091717" lon="12.334081150418276"><ele>38.0</ele><time>2026-04-03T05:35:45.999Z</time></trkpt><trkpt lat="45.844087333270004" lon="12.334070796896508"><ele>38.0</ele><time>2026-04-03T05:35:50Z</time></trkpt><trkpt lat="45.84401134226357" lon="12.334087024015865"><ele>38.0</ele><time>2026-04-03T05:35:56Z</time></trkpt><trkpt lat="45.843982534953334" lon="12.334190336225499"><ele>38.0</ele><time>2026-04-03T05:37:06.999Z</time></trkpt><trkpt lat="45.84398612834149" lon="12.334315394130712"><ele>38.0</ele><time>2026-04-03T05:37:08.999Z</time></trkpt><trkpt lat="45.84399394156003" lon="12.334459602731277"><ele>38.0</ele><time>2026-04-03T05:37:10.999Z</time></trkpt><trkpt lat="45.84400173680611" lon="12.33462476964813"><ele>38.0</ele><time>2026-04-03T05:37:12.999Z</time></trkpt><trkpt lat="45.84398824161646" lon="12.334715114852239"><ele>38.0</ele><time>2026-04-03T05:37:13.999Z</time></trkpt><trkpt lat="45.84399105455497" lon="12.334811819860757"><ele>38.0</ele><time>2026-04-03T05:37:14.999Z</time></trkpt><trkpt lat="45.843993969845826" lon="12.33491204360751"><ele>38.0</ele><time>2026-04-03T05:37:15.999Z</time></trkpt><trkpt lat="45.84399684595267" lon="12.335010920219158"><ele>38.0</ele><time>2026-04-03T05:37:16.999Z</time></trkpt><trkpt lat="45.84400168120597" lon="12.335116952371129"><ele>38.0</ele><time>2026-04-03T05:37:17.999Z</time></trkpt><trkpt lat="45.84400700477709" lon="12.33521778702872"><ele>38.0</ele><time>2026-04-03T05:37:18.999Z</time></trkpt><trkpt lat="45.84401477072892" lon="12.33531733550072"><ele>38.0</ele><time>2026-04-03T05:37:19.999Z</time></trkpt><trkpt lat="45.84402252613775" lon="12.335409520389598"><ele>38.0</ele><time>2026-04-03T05:37:20.999Z</time></trkpt><trkpt lat="45.844032294013715" lon="12.335502385475648"><ele>38.0</ele><time>2026-04-03T05:37:21.999Z</time></trkpt><trkpt lat="45.84405005867918" lon="12.335656239689172"><ele>38.0</ele><time>2026-04-03T05:37:23.999Z</time></trkpt><trkpt lat="45.844071959112796" lon="12.335805071585991"><ele>38.0</ele><time>2026-04-03T05:37:25.999Z</time></trkpt><trkpt lat="45.84409033120974" lon="12.335915777989984"><ele>38.0</ele><time>2026-04-03T05:37:27.999Z</time></trkpt><trkpt lat="45.844110474641894" lon="12.336006552384365"><ele>38.0</ele><time>2026-04-03T05:37:31.999Z</time></trkpt><trkpt lat="45.844168843070406" lon="12.33612488584304"><ele>38.0</ele><time>2026-04-03T05:38:26Z</time></trkpt><trkpt lat="45.84427260460799" lon="12.336140897243055"><ele>38.0</ele><time>2026-04-03T05:38:41Z</time></trkpt><trkpt lat="45.844339383715806" lon="12.33614440804622"><ele>38.0</ele><time>2026-04-03T05:38:43Z</time></trkpt><trkpt lat="45.84442549194381" lon="12.336149700011225"><ele>38.0</ele><time>2026-04-03T05:38:54Z</time></trkpt><trkpt lat="45.84451510295897" lon="12.336128875531287"><ele>38.0</ele><time>2026-04-03T05:38:57Z</time></trkpt><trkpt lat="45.84458700482202" lon="12.336094145629632"><ele>38.0</ele><time>2026-04-03T05:38:59Z</time></trkpt><trkpt lat="45.844677939488" lon="12.336074705354898"><ele>37.857142857142854</ele><time>2026-04-03T05:39:01Z</time></trkpt><trkpt lat="45.844769698815135" lon="12.336065314089735"><ele>37.714285714285715</ele><time>2026-04-03T05:39:03Z</time></trkpt><trkpt lat="45.84481158211818" lon="12.335988226434068"><ele>37.57142857142857</ele><time>2026-04-03T05:39:05Z</time></trkpt><trkpt lat="45.84476768935777" lon="12.336059816662067"><ele>37.42857142857143</ele><time>2026-04-03T05:39:18Z</time></trkpt><trkpt lat="45.84479097513679" lon="12.336152575669326"><ele>37.285714285714285</ele><time>2026-04-03T05:39:34Z</time></trkpt><trkpt lat="45.84482826734431" lon="12.336229775305775"><ele>37.142857142857146</ele><time>2026-04-03T05:39:40Z</time></trkpt><trkpt lat="45.84481240936497" lon="12.336335407928942"><ele>37.0</ele><time>2026-04-03T05:40:20Z</time></trkpt><trkpt lat="45.84480930744468" lon="12.33624103866955"><ele>37.0</ele><time>2026-04-03T05:41:06Z</time></trkpt><trkpt lat="45.84476103169561" lon="12.336107929657215"><ele>37.0</ele><time>2026-04-03T05:41:23Z</time></trkpt><trkpt lat="45.84479923847238" lon="12.336016537551432"><ele>37.0</ele><time>2026-04-03T05:41:26Z</time></trkpt><trkpt lat="45.84485517590191" lon="12.335937455500432"><ele>37.0</ele><time>2026-04-03T05:41:28Z</time></trkpt><trkpt lat="45.84489036548048" lon="12.335825468994237"><ele>37.0</ele><time>2026-04-03T05:41:30Z</time></trkpt><trkpt lat="45.84487350016344" lon="12.335714125779038"><ele>37.0</ele><time>2026-04-03T05:41:32Z</time></trkpt><trkpt lat="45.84483070310759" lon="12.335645986942689"><ele>37.0</ele><time>2026-04-03T05:41:35Z</time></trkpt><trkpt lat="45.84487331113846" lon="12.335728593457537"><ele>37.0</ele><time>2026-04-03T05:41:53Z</time></trkpt><trkpt lat="45.844890794810524" lon="12.335819335184961"><ele>37.0</ele><time>2026-04-03T05:42:41Z</time></trkpt><trkpt lat="45.844860576293506" lon="12.33591163950842"><ele>37.0</ele><time>2026-04-03T05:43:07Z</time></trkpt><trkpt lat="45.84482233811542" lon="12.335984147881394"><ele>37.0</ele><time>2026-04-03T05:43:14Z</time></trkpt><trkpt lat="45.844789883058866" lon="12.33606167856535"><ele>37.0</ele><time>2026-04-03T05:43:20Z</time></trkpt><trkpt lat="45.84474352605308" lon="12.336125470743774"><ele>37.0</ele><time>2026-04-03T05:43:29Z</time></trkpt><trkpt lat="45.84468835803835" lon="12.336181823947577"><ele>37.0</ele><time>2026-04-03T05:43:37Z</time></trkpt><trkpt lat="45.8446786845776" lon="12.336271525104289"><ele>37.0</ele><time>2026-04-03T05:43:43Z</time></trkpt><trkpt lat="45.8446577041214" lon="12.336358473542779"><ele>37.0</ele><time>2026-04-03T05:43:48Z</time></trkpt><trkpt lat="45.84465492603929" lon="12.33645808946386"><ele>37.0</ele><time>2026-04-03T05:44:00Z</time></trkpt><trkpt lat="45.84471256111227" lon="12.336518315669707"><ele>37.0</ele><time>2026-04-03T05:44:05.999Z</time></trkpt><trkpt lat="45.84467546591452" lon="12.336386381648628"><ele>37.0</ele><time>2026-04-03T05:44:09.999Z</time></trkpt><trkpt lat="45.84465106917256" lon="12.336295508234738"><ele>37.0</ele><time>2026-04-03T05:44:21Z</time></trkpt><trkpt lat="45.844668722946466" lon="12.336384887096083"><ele>37.0</ele><time>2026-04-03T05:45:08.064Z</time></trkpt><trkpt lat="45.84462269811905" lon="12.336272695756708"><ele>37.0</ele><time>2026-04-03T06:05:50.362Z</time></trkpt><trkpt lat="45.844483482620966" lon="12.336347395690876"><ele>37.0</ele><time>2026-04-03T06:05:54.99Z</time></trkpt><trkpt lat="45.844621888684195" lon="12.336296732375118"><ele>37.0</ele><time>2026-04-03T06:05:59.99Z</time></trkpt><trkpt lat="45.84465353813789" lon="12.336206434023099"><ele>37.0</ele><time>2026-04-03T06:06:12Z</time></trkpt><trkpt lat="45.84466769088303" lon="12.33611445071075"><ele>37.0</ele><time>2026-04-03T06:06:17Z</time></trkpt><trkpt lat="45.84472865488247" lon="12.33614106326179"><ele>37.0</ele><time>2026-04-03T06:06:31Z</time></trkpt><trkpt lat="45.84476778904967" lon="12.336047927859955"><ele>37.0</ele><time>2026-04-03T06:07:07.999Z</time></trkpt><trkpt lat="45.84479143672421" lon="12.335953966745402"><ele>37.0</ele><time>2026-04-03T06:07:12.999Z</time></trkpt><trkpt lat="45.84480619717929" lon="12.33585558274641"><ele>37.0</ele><time>2026-04-03T06:07:17.999Z</time></trkpt><trkpt lat="45.84482742799322" lon="12.335749203493187"><ele>37.0</ele><time>2026-04-03T06:07:24.999Z</time></trkpt><trkpt lat="45.844877075750965" lon="12.335692981334216"><ele>37.0</ele><time>2026-04-03T06:07:53.999Z</time></trkpt><trkpt lat="45.844813814795216" lon="12.335677670994103"><ele>37.0</ele><time>2026-04-03T06:09:23.999Z</time></trkpt><trkpt lat="45.84474604201938" lon="12.335624949233598"><ele>37.0</ele><time>2026-04-03T06:09:27.999Z</time></trkpt><trkpt lat="45.844690881043476" lon="12.33558029482535"><ele>37.0</ele><time>2026-04-03T06:09:29.999Z</time></trkpt><trkpt lat="45.84463061104808" lon="12.335511913032974"><ele>37.0</ele><time>2026-04-03T06:09:31.999Z</time></trkpt><trkpt lat="45.844561439769976" lon="12.335447458065168"><ele>37.0</ele><time>2026-04-03T06:09:33.999Z</time></trkpt><trkpt lat="45.844436585351666" lon="12.3356387962407"><ele>37.0</ele><time>2026-04-03T06:09:49.999Z</time></trkpt><trkpt lat="45.84443674915911" lon="12.335809784659272"><ele>37.0</ele><time>2026-04-03T06:09:51.999Z</time></trkpt><trkpt lat="45.84442699423128" lon="12.335915230444813"><ele>37.0</ele><time>2026-04-03T06:09:52.999Z</time></trkpt><trkpt lat="45.84441668686791" lon="12.336032330464212"><ele>37.0</ele><time>2026-04-03T06:09:53.999Z</time></trkpt><trkpt lat="45.844405884749854" lon="12.336154968937322"><ele>37.0</ele><time>2026-04-03T06:09:54.999Z</time></trkpt><trkpt lat="45.84439213711709" lon="12.336289370708734"><ele>37.0</ele><time>2026-04-03T06:09:55.999Z</time></trkpt><trkpt lat="45.84437920405674" lon="12.336420413879168"><ele>37.0</ele><time>2026-04-03T06:09:56.999Z</time></trkpt><trkpt lat="45.84436687550904" lon="12.33656256649871"><ele>37.0</ele><time>2026-04-03T06:09:57.999Z</time></trkpt><trkpt lat="45.84436122101217" lon="12.336731172464173"><ele>37.0</ele><time>2026-04-03T06:09:58.999Z</time></trkpt><trkpt lat="45.8443630884983" lon="12.336900374802301"><ele>37.0</ele><time>2026-04-03T06:09:59.999Z</time></trkpt><trkpt lat="45.8443801578798" lon="12.337089532580174"><ele>37.0</ele><time>2026-04-03T06:10:00.999Z</time></trkpt><trkpt lat="45.84439973661146" lon="12.337266172281133"><ele>37.0</ele><time>2026-04-03T06:10:01.999Z</time></trkpt><trkpt lat="45.8444117804411" lon="12.337439679906888"><ele>37.0</ele><time>2026-04-03T06:10:02.999Z</time></trkpt><trkpt lat="45.84446847918792" lon="12.337633048395544"><ele>37.0</ele><time>2026-04-03T06:10:03.998Z</time></trkpt><trkpt lat="45.84451808334342" lon="12.33782982250619"><ele>37.0</ele><time>2026-04-03T06:10:04.998Z</time></trkpt><trkpt lat="45.8445422814524" lon="12.338041773535496"><ele>37.0</ele><time>2026-04-03T06:10:05.998Z</time></trkpt><trkpt lat="45.84456069132894" lon="12.33825928647321"><ele>37.0</ele><time>2026-04-03T06:10:06.998Z</time></trkpt><trkpt lat="45.84456523942616" lon="12.338476334672047"><ele>37.0</ele><time>2026-04-03T06:10:07.998Z</time></trkpt><trkpt lat="45.8445310803335" lon="12.338679342203843"><ele>37.0</ele><time>2026-04-03T06:10:08.998Z</time></trkpt><trkpt lat="45.84450762002722" lon="12.338889115028586"><ele>37.0</ele><time>2026-04-03T06:10:09.998Z</time></trkpt><trkpt lat="45.84449710130939" lon="12.339103938501855"><ele>37.0</ele><time>2026-04-03T06:10:10.998Z</time></trkpt><trkpt lat="45.844474647720546" lon="12.33931097481923"><ele>37.0</ele><time>2026-04-03T06:10:12Z</time></trkpt><trkpt lat="45.844449961415314" lon="12.339516717628582"><ele>37.0</ele><time>2026-04-03T06:10:13Z</time></trkpt><trkpt lat="45.844428570597586" lon="12.339715576884084"><ele>37.0</ele><time>2026-04-03T06:10:14Z</time></trkpt><trkpt lat="45.84439785491533" lon="12.33991884457175"><ele>37.0</ele><time>2026-04-03T06:10:15Z</time></trkpt><trkpt lat="45.84433608613718" lon="12.340100758310287"><ele>37.0</ele><time>2026-04-03T06:10:16Z</time></trkpt><trkpt lat="45.844289031890106" lon="12.340289729738883"><ele>37.0</ele><time>2026-04-03T06:10:17Z</time></trkpt><trkpt lat="45.84423779489602" lon="12.34047427770567"><ele>37.0</ele><time>2026-04-03T06:10:18Z</time></trkpt><trkpt lat="45.84418499397339" lon="12.340654222371018"><ele>37.0</ele><time>2026-04-03T06:10:19Z</time></trkpt><trkpt lat="45.84413156920153" lon="12.340832010448834"><ele>37.0</ele><time>2026-04-03T06:10:20Z</time></trkpt><trkpt lat="45.84407743468773" lon="12.34100824794461"><ele>37.0</ele><time>2026-04-03T06:10:21Z</time></trkpt><trkpt lat="45.84402384243143" lon="12.34117926650861"><ele>37.0</ele><time>2026-04-03T06:10:22Z</time></trkpt><trkpt lat="45.84396840311153" lon="12.341347962697833"><ele>37.0</ele><time>2026-04-03T06:10:23Z</time></trkpt><trkpt lat="45.84391467899653" lon="12.341506647815223"><ele>37.0</ele><time>2026-04-03T06:10:24Z</time></trkpt><trkpt lat="45.843867962822735" lon="12.341643292735403"><ele>37.0</ele><time>2026-04-03T06:10:25Z</time></trkpt><trkpt lat="45.84382628159308" lon="12.341763815445827"><ele>37.0</ele><time>2026-04-03T06:10:26Z</time></trkpt><trkpt lat="45.843781343027516" lon="12.3418563913724"><ele>37.0</ele><time>2026-04-03T06:10:27Z</time></trkpt><trkpt lat="45.84372438890992" lon="12.341929508258946"><ele>37.0</ele><time>2026-04-03T06:10:28Z</time></trkpt><trkpt lat="45.84366480379718" lon="12.341982210933981"><ele>37.0</ele><time>2026-04-03T06:10:29Z</time></trkpt><trkpt lat="45.84360651161832" lon="12.342055424209326"><ele>37.0</ele><time>2026-04-03T06:10:30Z</time></trkpt><trkpt lat="45.84353041017687" lon="12.342076996552805"><ele>37.0</ele><time>2026-04-03T06:10:30.999Z</time></trkpt><trkpt lat="45.84346486389827" lon="12.342144285681528"><ele>37.0</ele><time>2026-04-03T06:10:31.999Z</time></trkpt><trkpt lat="45.84341503473041" lon="12.34226005386913"><ele>37.0</ele><time>2026-04-03T06:10:32.999Z</time></trkpt><trkpt lat="45.84339211855803" lon="12.342390094792224"><ele>37.0</ele><time>2026-04-03T06:10:33.999Z</time></trkpt><trkpt lat="45.8433787000092" lon="12.342517048205764"><ele>37.0</ele><time>2026-04-03T06:10:34.999Z</time></trkpt><trkpt lat="45.84333498826667" lon="12.34263945024456"><ele>37.0</ele><time>2026-04-03T06:10:35.999Z</time></trkpt><trkpt lat="45.84329991457459" lon="12.342775438940263"><ele>37.0</ele><time>2026-04-03T06:10:36.999Z</time></trkpt><trkpt lat="45.8432654651737" lon="12.342922181560748"><ele>37.0</ele><time>2026-04-03T06:10:37.999Z</time></trkpt><trkpt lat="45.84317980791398" lon="12.343036482432618"><ele>37.0</ele><time>2026-04-03T06:10:38.999Z</time></trkpt><trkpt lat="45.84310358385991" lon="12.3431685524651"><ele>37.0</ele><time>2026-04-03T06:10:39.999Z</time></trkpt><trkpt lat="45.84302281675085" lon="12.34330660147717"><ele>37.0</ele><time>2026-04-03T06:10:40.999Z</time></trkpt><trkpt lat="45.84293932984726" lon="12.34344929923657"><ele>37.0</ele><time>2026-04-03T06:10:41.999Z</time></trkpt><trkpt lat="45.84285282878995" lon="12.343597148853835"><ele>37.0</ele><time>2026-04-03T06:10:42.999Z</time></trkpt><trkpt lat="45.84276296136172" lon="12.34375075233641"><ele>37.0</ele><time>2026-04-03T06:10:43.999Z</time></trkpt><trkpt lat="45.84269416167902" lon="12.343939952328647"><ele>36.333333333333336</ele><time>2026-04-03T06:10:44.999Z</time></trkpt><trkpt lat="45.84259784127441" lon="12.344103913603574"><ele>35.666666666666664</ele><time>2026-04-03T06:10:45.999Z</time></trkpt><trkpt lat="45.842497579926416" lon="12.344271623318095"><ele>35.0</ele><time>2026-04-03T06:10:47Z</time></trkpt><trkpt lat="45.842396186666" lon="12.344447633258948"><ele>35.0</ele><time>2026-04-03T06:10:48Z</time></trkpt><trkpt lat="45.84229267356877" lon="12.344623733046532"><ele>35.0</ele><time>2026-04-03T06:10:49Z</time></trkpt><trkpt lat="45.8421628416723" lon="12.3447784797544"><ele>35.0</ele><time>2026-04-03T06:10:50Z</time></trkpt><trkpt lat="45.842075944797834" lon="12.344990110041397"><ele>35.33333333333333</ele><time>2026-04-03T06:10:51Z</time></trkpt><trkpt lat="45.84196314926953" lon="12.345179311023873"><ele>35.666666666666664</ele><time>2026-04-03T06:10:52Z</time></trkpt><trkpt lat="45.841852711359785" lon="12.345370979932657"><ele>36.0</ele><time>2026-04-03T06:10:53Z</time></trkpt><trkpt lat="45.84174031432738" lon="12.345562448122882"><ele>36.0</ele><time>2026-04-03T06:10:54Z</time></trkpt><trkpt lat="45.841628402940884" lon="12.345754959508977"><ele>36.0</ele><time>2026-04-03T06:10:55Z</time></trkpt><trkpt lat="45.84151506931219" lon="12.34594940900917"><ele>36.0</ele><time>2026-04-03T06:10:56Z</time></trkpt><trkpt lat="45.8413791008654" lon="12.346121506064883"><ele>36.0</ele><time>2026-04-03T06:10:57Z</time></trkpt><trkpt lat="45.84126283644819" lon="12.346321528652837"><ele>36.0</ele><time>2026-04-03T06:10:58Z</time></trkpt><trkpt lat="45.84114544873916" lon="12.34652348376529"><ele>36.0</ele><time>2026-04-03T06:10:59Z</time></trkpt><trkpt lat="45.84102770324911" lon="12.346726054407439"><ele>36.0</ele><time>2026-04-03T06:11:00Z</time></trkpt><trkpt lat="45.840910547616154" lon="12.346924995211749"><ele>36.0</ele><time>2026-04-03T06:11:01Z</time></trkpt><trkpt lat="45.84081585933647" lon="12.34714975135024"><ele>36.0</ele><time>2026-04-03T06:11:02Z</time></trkpt><trkpt lat="45.84069871155314" lon="12.347344242128523"><ele>35.666666666666664</ele><time>2026-04-03T06:11:03Z</time></trkpt><trkpt lat="45.84058375994557" lon="12.347537961363596"><ele>35.33333333333333</ele><time>2026-04-03T06:11:04Z</time></trkpt><trkpt lat="45.84047411691571" lon="12.347725316175554"><ele>35.0</ele><time>2026-04-03T06:11:05Z</time></trkpt><trkpt lat="45.84037075530935" lon="12.34790156458153"><ele>35.0</ele><time>2026-04-03T06:11:06Z</time></trkpt><trkpt lat="45.84025798804811" lon="12.348038134181406"><ele>35.0</ele><time>2026-04-03T06:11:07Z</time></trkpt><trkpt lat="45.84017506232701" lon="12.348182491757225"><ele>35.0</ele><time>2026-04-03T06:11:08Z</time></trkpt><trkpt lat="45.84010535898883" lon="12.348304550289981"><ele>35.0</ele><time>2026-04-03T06:11:09Z</time></trkpt><trkpt lat="45.84004837897067" lon="12.348403925833312"><ele>35.0</ele><time>2026-04-03T06:11:10Z</time></trkpt><trkpt lat="45.8399996707254" lon="12.348486335097753"><ele>35.0</ele><time>2026-04-03T06:11:11Z</time></trkpt><trkpt lat="45.839946865666455" lon="12.348601160317878"><ele>35.0</ele><time>2026-04-03T06:11:13Z</time></trkpt><trkpt lat="45.83988324499594" lon="12.34862762754298"><ele>35.0</ele><time>2026-04-03T06:11:15Z</time></trkpt><trkpt lat="45.8397996371217" lon="12.348612983796784"><ele>35.0</ele><time>2026-04-03T06:11:18Z</time></trkpt><trkpt lat="45.83979214944607" lon="12.348507821813474"><ele>35.0</ele><time>2026-04-03T06:11:19Z</time></trkpt><trkpt lat="45.83973771556496" lon="12.348449184062881"><ele>35.0</ele><time>2026-04-03T06:11:22Z</time></trkpt><trkpt lat="45.83970218624992" lon="12.34837255652958"><ele>35.0</ele><time>2026-04-03T06:13:09Z</time></trkpt><trkpt lat="45.83965469536641" lon="12.348305796020504"><ele>35.0</ele><time>2026-04-03T06:13:11Z</time></trkpt><trkpt lat="45.83958327299952" lon="12.348206505417311"><ele>35.0</ele><time>2026-04-03T06:13:13Z</time></trkpt><trkpt lat="45.83949802856939" lon="12.348087999378214"><ele>35.0</ele><time>2026-04-03T06:13:15Z</time></trkpt><trkpt lat="45.83944989978703" lon="12.34802466262619"><ele>35.0</ele><time>2026-04-03T06:13:16Z</time></trkpt><trkpt lat="45.83940049729404" lon="12.347958830671528"><ele>35.0</ele><time>2026-04-03T06:13:17Z</time></trkpt><trkpt lat="45.83931305195405" lon="12.347837740066922"><ele>35.0</ele><time>2026-04-03T06:13:19Z</time></trkpt><trkpt lat="45.83924843122568" lon="12.3477473506446"><ele>35.0</ele><time>2026-04-03T06:13:21Z</time></trkpt><trkpt lat="45.839174856815355" lon="12.347676889718976"><ele>35.0</ele><time>2026-04-03T06:13:46Z</time></trkpt><trkpt lat="45.83910613348246" lon="12.347579393396513"><ele>35.0</ele><time>2026-04-03T06:13:48Z</time></trkpt><trkpt lat="45.83902646603787" lon="12.34746688876445"><ele>35.0</ele><time>2026-04-03T06:13:50Z</time></trkpt><trkpt lat="45.838958037680975" lon="12.347371245789434"><ele>35.0</ele><time>2026-04-03T06:13:52Z</time></trkpt><trkpt lat="45.83890998068504" lon="12.347291633980534"><ele>35.0</ele><time>2026-04-03T06:14:07.999Z</time></trkpt><trkpt lat="45.838838696060286" lon="12.347190699448573"><ele>35.0</ele><time>2026-04-03T06:14:10.999Z</time></trkpt><trkpt lat="45.83877140641574" lon="12.347092558870033"><ele>35.0</ele><time>2026-04-03T06:14:12.999Z</time></trkpt><trkpt lat="45.838695234593516" lon="12.346976656897398"><ele>35.0</ele><time>2026-04-03T06:14:14.999Z</time></trkpt><trkpt lat="45.83862214018221" lon="12.346862813159662"><ele>35.0</ele><time>2026-04-03T06:14:16.999Z</time></trkpt><trkpt lat="45.83856968979374" lon="12.34677350527611"><ele>35.0</ele><time>2026-04-03T06:14:18.999Z</time></trkpt><trkpt lat="45.83853309494493" lon="12.346685637481569"><ele>35.0</ele><time>2026-04-03T06:15:03Z</time></trkpt><trkpt lat="45.838480964206" lon="12.346613236717"><ele>35.0</ele><time>2026-04-03T06:15:05Z</time></trkpt><trkpt lat="45.83842086047156" lon="12.346513238459238"><ele>35.0</ele><time>2026-04-03T06:15:07Z</time></trkpt><trkpt lat="45.83837476811154" lon="12.346432084257753"><ele>35.0</ele><time>2026-04-03T06:15:09Z</time></trkpt><trkpt lat="45.83831031719693" lon="12.346389370847875"><ele>35.0</ele><time>2026-04-03T06:15:27Z</time></trkpt><trkpt lat="45.83826531453863" lon="12.346291646576379"><ele>35.0</ele><time>2026-04-03T06:15:31Z</time></trkpt><trkpt lat="45.83821535790867" lon="12.346204318630607"><ele>35.0</ele><time>2026-04-03T06:15:35Z</time></trkpt><trkpt lat="45.838170213608194" lon="12.34612127910991"><ele>35.0</ele><time>2026-04-03T06:15:37Z</time></trkpt><trkpt lat="45.83810512505421" lon="12.346001989009586"><ele>35.0</ele><time>2026-04-03T06:15:39Z</time></trkpt><trkpt lat="45.83802095655716" lon="12.34585905544949"><ele>35.166666666666664</ele><time>2026-04-03T06:15:41Z</time></trkpt><trkpt lat="45.83797152678395" lon="12.345780836572576"><ele>35.33333333333333</ele><time>2026-04-03T06:15:42Z</time></trkpt><trkpt lat="45.83791831511861" lon="12.34569853257597"><ele>35.5</ele><time>2026-04-03T06:15:43Z</time></trkpt><trkpt lat="45.83786259420482" lon="12.34561158600385"><ele>35.666666666666664</ele><time>2026-04-03T06:15:44Z</time></trkpt><trkpt lat="45.83780399661434" lon="12.345520898450195"><ele>35.833333333333336</ele><time>2026-04-03T06:15:45Z</time></trkpt><trkpt lat="45.83774279055645" lon="12.345425129808762"><ele>36.0</ele><time>2026-04-03T06:15:46Z</time></trkpt><trkpt lat="45.83767780005155" lon="12.345324107632987"><ele>36.2</ele><time>2026-04-03T06:15:47Z</time></trkpt><trkpt lat="45.83761055530621" lon="12.34522050117191"><ele>36.400000000000006</ele><time>2026-04-03T06:15:48Z</time></trkpt><trkpt lat="45.83754209876322" lon="12.345117885343061"><ele>36.6</ele><time>2026-04-03T06:15:49Z</time></trkpt><trkpt lat="45.83747454258428" lon="12.345011002763865"><ele>36.800000000000004</ele><time>2026-04-03T06:15:50Z</time></trkpt><trkpt lat="45.83740637245568" lon="12.344905790449475"><ele>37.0</ele><time>2026-04-03T06:15:51Z</time></trkpt><trkpt lat="45.837339200533535" lon="12.344800073656303"><ele>37.2</ele><time>2026-04-03T06:15:52Z</time></trkpt><trkpt lat="45.83727131715147" lon="12.344695052302137"><ele>37.400000000000006</ele><time>2026-04-03T06:15:53Z</time></trkpt><trkpt lat="45.8372036531781" lon="12.34459115236507"><ele>37.599999999999994</ele><time>2026-04-03T06:15:54Z</time></trkpt><trkpt lat="45.83713317493086" lon="12.34448681435897"><ele>37.8</ele><time>2026-04-03T06:15:55Z</time></trkpt><trkpt lat="45.83705898576263" lon="12.34438586079971"><ele>38.0</ele><time>2026-04-03T06:15:56Z</time></trkpt><trkpt lat="45.83698106879491" lon="12.344288145808086"><ele>38.0</ele><time>2026-04-03T06:15:57Z</time></trkpt><trkpt lat="45.83690109935617" lon="12.344190068917896"><ele>38.0</ele><time>2026-04-03T06:15:58Z</time></trkpt><trkpt lat="45.83682308999402" lon="12.344094580688544"><ele>38.0</ele><time>2026-04-03T06:15:59Z</time></trkpt><trkpt lat="45.83674866411029" lon="12.344002067139034"><ele>38.0</ele><time>2026-04-03T06:16:00Z</time></trkpt><trkpt lat="45.83667624937277" lon="12.343913246376786"><ele>38.0</ele><time>2026-04-03T06:16:01Z</time></trkpt><trkpt lat="45.83661244862604" lon="12.343840309420298"><ele>37.5</ele><time>2026-04-03T06:16:02Z</time></trkpt><trkpt lat="45.83657010041185" lon="12.343757496038469"><ele>37.0</ele><time>2026-04-03T06:16:03Z</time></trkpt><trkpt lat="45.836492773937024" lon="12.34366222303769"><ele>36.5</ele><time>2026-04-03T06:16:04.999Z</time></trkpt><trkpt lat="45.83644176978557" lon="12.343599068050315"><ele>36.0</ele><time>2026-04-03T06:16:06.999Z</time></trkpt><trkpt lat="45.836381592252394" lon="12.34352411206407"><ele>35.5</ele><time>2026-04-03T06:17:14Z</time></trkpt><trkpt lat="45.83631834200628" lon="12.343445328760263"><ele>35.0</ele><time>2026-04-03T06:17:16Z</time></trkpt><trkpt lat="45.83624043648804" lon="12.343348291133323"><ele>35.0</ele><time>2026-04-03T06:17:18Z</time></trkpt><trkpt lat="45.83616085053985" lon="12.343249160383456"><ele>35.0</ele><time>2026-04-03T06:17:20Z</time></trkpt><trkpt lat="45.83611245979091" lon="12.343188885792408"><ele>35.0</ele><time>2026-04-03T06:17:21Z</time></trkpt><trkpt lat="45.83605932200458" lon="12.343122698376375"><ele>35.0</ele><time>2026-04-03T06:17:22Z</time></trkpt><trkpt lat="45.836002313168585" lon="12.34305079456508"><ele>35.0</ele><time>2026-04-03T06:17:23Z</time></trkpt><trkpt lat="45.83594211194886" lon="12.342974409123721"><ele>35.0</ele><time>2026-04-03T06:17:24Z</time></trkpt><trkpt lat="45.835878550446594" lon="12.342893760016857"><ele>35.0</ele><time>2026-04-03T06:17:25Z</time></trkpt><trkpt lat="45.83581320635795" lon="12.342810849119086"><ele>35.0</ele><time>2026-04-03T06:17:26Z</time></trkpt><trkpt lat="45.83574497904829" lon="12.342726709733636"><ele>35.0</ele><time>2026-04-03T06:17:27Z</time></trkpt><trkpt lat="45.83566617048891" lon="12.342658942392653"><ele>35.0</ele><time>2026-04-03T06:17:28Z</time></trkpt><trkpt lat="45.835613246258895" lon="12.342555934344714"><ele>35.0</ele><time>2026-04-03T06:17:29Z</time></trkpt><trkpt lat="45.83555437732736" lon="12.342478366799433"><ele>35.0</ele><time>2026-04-03T06:17:30Z</time></trkpt><trkpt lat="45.83550585502057" lon="12.342413419977333"><ele>35.0</ele><time>2026-04-03T06:17:31Z</time></trkpt><trkpt lat="45.835454763889366" lon="12.342335478213396"><ele>35.0</ele><time>2026-04-03T06:17:33Z</time></trkpt><trkpt lat="45.835397322858846" lon="12.342274803573488"><ele>35.0</ele><time>2026-04-03T06:17:59Z</time></trkpt><trkpt lat="45.83532387665809" lon="12.342189920716901"><ele>35.0</ele><time>2026-04-03T06:18:02Z</time></trkpt><trkpt lat="45.835261350858836" lon="12.342105294856548"><ele>35.0</ele><time>2026-04-03T06:18:03.999Z</time></trkpt><trkpt lat="45.83519975754517" lon="12.342027293527462"><ele>35.0</ele><time>2026-04-03T06:18:05.999Z</time></trkpt><trkpt lat="45.83513768810149" lon="12.341964057893652"><ele>35.33333333333333</ele><time>2026-04-03T06:19:27Z</time></trkpt><trkpt lat="45.83506829403713" lon="12.341894984213143"><ele>35.666666666666664</ele><time>2026-04-03T06:19:29Z</time></trkpt><trkpt lat="45.8349823654706" lon="12.341792016424368"><ele>36.0</ele><time>2026-04-03T06:19:31Z</time></trkpt><trkpt lat="45.83493207568067" lon="12.341733645800323"><ele>36.333333333333336</ele><time>2026-04-03T06:19:32Z</time></trkpt><trkpt lat="45.834876787780594" lon="12.34166891002652"><ele>36.66666666666667</ele><time>2026-04-03T06:19:33Z</time></trkpt><trkpt lat="45.83481692110515" lon="12.341601132020394"><ele>37.0</ele><time>2026-04-03T06:19:34Z</time></trkpt><trkpt lat="45.83475491331929" lon="12.341531058158623"><ele>37.0</ele><time>2026-04-03T06:19:35Z</time></trkpt><trkpt lat="45.83469558205748" lon="12.341464855221995"><ele>37.0</ele><time>2026-04-03T06:19:36Z</time></trkpt><trkpt lat="45.83461905461113" lon="12.341358622441435"><ele>37.0</ele><time>2026-04-03T06:19:38Z</time></trkpt><trkpt lat="45.83456641722261" lon="12.34128235407885"><ele>37.0</ele><time>2026-04-03T06:19:41Z</time></trkpt><trkpt lat="45.834511462969296" lon="12.341197914468081"><ele>37.0</ele><time>2026-04-03T06:20:20.999Z</time></trkpt><trkpt lat="45.83447669924094" lon="12.341115346403946"><ele>37.0</ele><time>2026-04-03T06:20:22.999Z</time></trkpt><trkpt lat="45.83442252651295" lon="12.3410088064387"><ele>37.16666666666667</ele><time>2026-04-03T06:20:24.999Z</time></trkpt><trkpt lat="45.83435263575592" lon="12.340873553636094"><ele>37.333333333333336</ele><time>2026-04-03T06:20:26.999Z</time></trkpt><trkpt lat="45.834313659767666" lon="12.340796709513532"><ele>37.5</ele><time>2026-04-03T06:20:27.999Z</time></trkpt><trkpt lat="45.834270962350274" lon="12.340713338256677"><ele>37.666666666666664</ele><time>2026-04-03T06:20:28.999Z</time></trkpt><trkpt lat="45.83422696078073" lon="12.340624412376716"><ele>37.83333333333333</ele><time>2026-04-03T06:20:29.999Z</time></trkpt><trkpt lat="45.83418108530856" lon="12.34053134033369"><ele>38.0</ele><time>2026-04-03T06:20:30.999Z</time></trkpt><trkpt lat="45.834135976166614" lon="12.340436505535747"><ele>38.166666666666664</ele><time>2026-04-03T06:20:31.999Z</time></trkpt><trkpt lat="45.83409436342962" lon="12.340346836155234"><ele>38.33333333333333</ele><time>2026-04-03T06:20:32.999Z</time></trkpt><trkpt lat="45.83405917246255" lon="12.340267224883522"><ele>38.5</ele><time>2026-04-03T06:20:33.999Z</time></trkpt><trkpt lat="45.833992893391965" lon="12.34016777451905"><ele>38.666666666666664</ele><time>2026-04-03T06:20:35.999Z</time></trkpt><trkpt lat="45.83394773438636" lon="12.340077386770286"><ele>38.833333333333336</ele><time>2026-04-03T06:20:38.999Z</time></trkpt><trkpt lat="45.833897510303316" lon="12.33998286985538"><ele>39.0</ele><time>2026-04-03T06:21:19Z</time></trkpt><trkpt lat="45.83385326468657" lon="12.339910819196438"><ele>39.0</ele><time>2026-04-03T06:21:21Z</time></trkpt><trkpt lat="45.83381361260457" lon="12.339807043379489"><ele>39.0</ele><time>2026-04-03T06:21:23Z</time></trkpt><trkpt lat="45.83380545049497" lon="12.33970909793128"><ele>39.0</ele><time>2026-04-03T06:21:25Z</time></trkpt><trkpt lat="45.833793492960076" lon="12.339595862605304"><ele>39.0</ele><time>2026-04-03T06:21:31Z</time></trkpt><trkpt lat="45.83378489748096" lon="12.339480908083134"><ele>39.0</ele><time>2026-04-03T06:22:09.999Z</time></trkpt><trkpt lat="45.833779263347644" lon="12.339345430000385"><ele>39.0</ele><time>2026-04-03T06:22:11.999Z</time></trkpt><trkpt lat="45.833761930883874" lon="12.339254553317042"><ele>39.0</ele><time>2026-04-03T06:22:12.999Z</time></trkpt><trkpt lat="45.833773456829185" lon="12.33914998185055"><ele>39.0</ele><time>2026-04-03T06:22:13.999Z</time></trkpt><trkpt lat="45.833770540924235" lon="12.339035103895142"><ele>39.0</ele><time>2026-04-03T06:22:14.999Z</time></trkpt><trkpt lat="45.833766943944646" lon="12.338910620905219"><ele>39.0</ele><time>2026-04-03T06:22:15.999Z</time></trkpt><trkpt lat="45.83376226182001" lon="12.338778265852353"><ele>39.0</ele><time>2026-04-03T06:22:16.999Z</time></trkpt><trkpt lat="45.83375630056489" lon="12.33864820494465"><ele>39.0</ele><time>2026-04-03T06:22:17.999Z</time></trkpt><trkpt lat="45.83375015594279" lon="12.338522187115451"><ele>39.0</ele><time>2026-04-03T06:22:18.999Z</time></trkpt><trkpt lat="45.833744992280465" lon="12.338412748989048"><ele>39.0</ele><time>2026-04-03T06:22:19.999Z</time></trkpt><trkpt lat="45.83373821372443" lon="12.33828171601836"><ele>39.0</ele><time>2026-04-03T06:22:21.999Z</time></trkpt><trkpt lat="45.83373752432347" lon="12.338181155536516"><ele>39.0</ele><time>2026-04-03T06:22:50Z</time></trkpt><trkpt lat="45.83373359449858" lon="12.338077918667192"><ele>39.0</ele><time>2026-04-03T06:22:52Z</time></trkpt><trkpt lat="45.83372878714595" lon="12.337969056997766"><ele>39.0</ele><time>2026-04-03T06:22:54Z</time></trkpt><trkpt lat="45.83373657756618" lon="12.33787926230513"><ele>39.0</ele><time>2026-04-03T06:22:57Z</time></trkpt><trkpt lat="45.833721422655096" lon="12.337980123026522"><ele>39.333333333333336</ele><time>2026-04-03T06:23:08Z</time></trkpt><trkpt lat="45.833751361921436" lon="12.337878574409734"><ele>39.666666666666664</ele><time>2026-04-03T06:24:05.999Z</time></trkpt><trkpt lat="45.833739280142304" lon="12.337749837797661"><ele>40.0</ele><time>2026-04-03T06:24:07.999Z</time></trkpt><trkpt lat="45.83370777008565" lon="12.337575596893718"><ele>40.33333333333333</ele><time>2026-04-03T06:24:09.999Z</time></trkpt><trkpt lat="45.833683250983505" lon="12.337479469296278"><ele>40.666666666666664</ele><time>2026-04-03T06:24:10.999Z</time></trkpt><trkpt lat="45.83364939628564" lon="12.33737913153003"><ele>41.0</ele><time>2026-04-03T06:24:11.999Z</time></trkpt><trkpt lat="45.8336064964623" lon="12.337278053557439"><ele>41.199999999999996</ele><time>2026-04-03T06:24:12.999Z</time></trkpt><trkpt lat="45.83355609697205" lon="12.337175934297358"><ele>41.4</ele><time>2026-04-03T06:24:13.999Z</time></trkpt><trkpt lat="45.83349543914093" lon="12.337072462251912"><ele>41.6</ele><time>2026-04-03T06:24:14.999Z</time></trkpt><trkpt lat="45.83342780086364" lon="12.33696767881216"><ele>41.8</ele><time>2026-04-03T06:24:15.999Z</time></trkpt><trkpt lat="45.83336150463134" lon="12.336857343407098"><ele>42.0</ele><time>2026-04-03T06:24:16.999Z</time></trkpt><trkpt lat="45.83329827724797" lon="12.336738764972335"><ele>41.6</ele><time>2026-04-03T06:24:17.999Z</time></trkpt><trkpt lat="45.83323708118628" lon="12.336614158778449"><ele>41.2</ele><time>2026-04-03T06:24:18.999Z</time></trkpt><trkpt lat="45.833179658175624" lon="12.336483070564567"><ele>40.8</ele><time>2026-04-03T06:24:19.999Z</time></trkpt><trkpt lat="45.833124208954274" lon="12.336351617362261"><ele>40.4</ele><time>2026-04-03T06:24:20.999Z</time></trkpt><trkpt lat="45.83306922261273" lon="12.336218503546455"><ele>40.0</ele><time>2026-04-03T06:24:21.999Z</time></trkpt><trkpt lat="45.83301368784053" lon="12.336087213861521"><ele>40.0</ele><time>2026-04-03T06:24:22.999Z</time></trkpt><trkpt lat="45.83295892907527" lon="12.335959139802746"><ele>40.0</ele><time>2026-04-03T06:24:23.999Z</time></trkpt><trkpt lat="45.83291058874134" lon="12.335842505234394"><ele>40.0</ele><time>2026-04-03T06:24:24.999Z</time></trkpt><trkpt lat="45.83287010476769" lon="12.335746216448216"><ele>40.0</ele><time>2026-04-03T06:24:25.999Z</time></trkpt><trkpt lat="45.83281849258869" lon="12.335622676522407"><ele>40.0</ele><time>2026-04-03T06:24:27.999Z</time></trkpt><trkpt lat="45.83278110701125" lon="12.335549228253848"><ele>40.0</ele><time>2026-04-03T06:24:31.999Z</time></trkpt><trkpt lat="45.83272334669092" lon="12.335431737373318"><ele>39.833333333333336</ele><time>2026-04-03T06:24:44.999Z</time></trkpt><trkpt lat="45.8326642745118" lon="12.335287229933098"><ele>39.66666666666667</ele><time>2026-04-03T06:24:46.999Z</time></trkpt><trkpt lat="45.83262906223531" lon="12.33519675921787"><ele>39.5</ele><time>2026-04-03T06:24:47.999Z</time></trkpt><trkpt lat="45.83259313417099" lon="12.3350971077404"><ele>39.333333333333336</ele><time>2026-04-03T06:24:48.999Z</time></trkpt><trkpt lat="45.83255631216901" lon="12.33498655099869"><ele>39.166666666666664</ele><time>2026-04-03T06:24:49.999Z</time></trkpt><trkpt lat="45.832519878506496" lon="12.334866285471904"><ele>39.0</ele><time>2026-04-03T06:24:50.999Z</time></trkpt><trkpt lat="45.83248397970601" lon="12.334738265062066"><ele>39.166666666666664</ele><time>2026-04-03T06:24:51.999Z</time></trkpt><trkpt lat="45.832447509923" lon="12.334606861965394"><ele>39.333333333333336</ele><time>2026-04-03T06:24:53Z</time></trkpt><trkpt lat="45.83241366257953" lon="12.334478383857913"><ele>39.5</ele><time>2026-04-03T06:24:54Z</time></trkpt><trkpt lat="45.83238278086976" lon="12.334357986372869"><ele>39.66666666666667</ele><time>2026-04-03T06:24:55Z</time></trkpt><trkpt lat="45.83235450860781" lon="12.334253226233754"><ele>39.833333333333336</ele><time>2026-04-03T06:24:56Z</time></trkpt><trkpt lat="45.83232990395304" lon="12.334168593163557"><ele>40.0</ele><time>2026-04-03T06:24:57Z</time></trkpt><trkpt lat="45.832299840675546" lon="12.334063394833787"><ele>40.0</ele><time>2026-04-03T06:24:59Z</time></trkpt><trkpt lat="45.83226765466365" lon="12.333934276504728"><ele>40.0</ele><time>2026-04-03T06:25:45Z</time></trkpt><trkpt lat="45.832229319960504" lon="12.333796046379893"><ele>40.0</ele><time>2026-04-03T06:25:47Z</time></trkpt><trkpt lat="45.832185939256355" lon="12.333636632655214"><ele>40.0</ele><time>2026-04-03T06:25:49Z</time></trkpt><trkpt lat="45.83215665588503" lon="12.333522051044945"><ele>40.0</ele><time>2026-04-03T06:25:51Z</time></trkpt><trkpt lat="45.83212922515738" lon="12.333421308225597"><ele>40.16666666666667</ele><time>2026-04-03T06:26:05.999Z</time></trkpt><trkpt lat="45.83209306334485" lon="12.333290956178544"><ele>40.333333333333336</ele><time>2026-04-03T06:26:07.999Z</time></trkpt><trkpt lat="45.83205367304585" lon="12.333141223406969"><ele>40.5</ele><time>2026-04-03T06:26:09.999Z</time></trkpt><trkpt lat="45.832031354269894" lon="12.33301889123468"><ele>40.666666666666664</ele><time>2026-04-03T06:26:11.999Z</time></trkpt><trkpt lat="45.83200201924474" lon="12.332917837983704"><ele>40.83333333333333</ele><time>2026-04-03T06:26:45.999Z</time></trkpt><trkpt lat="45.83196944525795" lon="12.332834616813132"><ele>41.0</ele><time>2026-04-03T06:26:48.999Z</time></trkpt><trkpt lat="45.83192737068404" lon="12.33270106780385"><ele>41.0</ele><time>2026-04-03T06:27:05Z</time></trkpt><trkpt lat="45.8318770777243" lon="12.332551383266699"><ele>41.0</ele><time>2026-04-03T06:27:07Z</time></trkpt><trkpt lat="45.831842679658685" lon="12.332460254877626"><ele>41.0</ele><time>2026-04-03T06:27:08Z</time></trkpt><trkpt lat="45.83180451423248" lon="12.33236350797838"><ele>41.0</ele><time>2026-04-03T06:27:09Z</time></trkpt><trkpt lat="45.83176130779223" lon="12.332258406605476"><ele>41.0</ele><time>2026-04-03T06:27:10Z</time></trkpt><trkpt lat="45.83171271578992" lon="12.33214860876275"><ele>41.0</ele><time>2026-04-03T06:27:11Z</time></trkpt><trkpt lat="45.831658770469396" lon="12.33203284722947"><ele>41.0</ele><time>2026-04-03T06:27:12Z</time></trkpt><trkpt lat="45.83160363834553" lon="12.331917987959278"><ele>41.0</ele><time>2026-04-03T06:27:13Z</time></trkpt><trkpt lat="45.8315526540007" lon="12.331804993428566"><ele>41.0</ele><time>2026-04-03T06:27:14Z</time></trkpt><trkpt lat="45.831508229525966" lon="12.331691001294146"><ele>41.0</ele><time>2026-04-03T06:27:15Z</time></trkpt><trkpt lat="45.83147450913365" lon="12.331575757210008"><ele>41.0</ele><time>2026-04-03T06:27:16Z</time></trkpt><trkpt lat="45.8314511146259" lon="12.331466951788368"><ele>41.0</ele><time>2026-04-03T06:27:17Z</time></trkpt><trkpt lat="45.831439746441866" lon="12.331375194155807"><ele>41.33333333333333</ele><time>2026-04-03T06:27:18Z</time></trkpt><trkpt lat="45.83143461823097" lon="12.33127154370555"><ele>41.666666666666664</ele><time>2026-04-03T06:27:20Z</time></trkpt><trkpt lat="45.831409959885356" lon="12.331172201637314"><ele>42.0</ele><time>2026-04-03T06:28:13.999Z</time></trkpt><trkpt lat="45.83139514491809" lon="12.331049670848113"><ele>42.333333333333336</ele><time>2026-04-03T06:28:15.999Z</time></trkpt><trkpt lat="45.831384068768386" lon="12.330887549890742"><ele>42.66666666666667</ele><time>2026-04-03T06:28:17.999Z</time></trkpt><trkpt lat="45.83137233748106" lon="12.330747369675114"><ele>43.0</ele><time>2026-04-03T06:28:19.999Z</time></trkpt><trkpt lat="45.8313712613256" lon="12.330651058506437"><ele>43.0</ele><time>2026-04-03T06:28:21.999Z</time></trkpt><trkpt lat="45.83135798540865" lon="12.330560639969791"><ele>43.0</ele><time>2026-04-03T06:28:43.999Z</time></trkpt><trkpt lat="45.83144051831202" lon="12.330486628037132"><ele>43.0</ele><time>2026-04-03T06:28:46.999Z</time></trkpt><trkpt lat="45.83151231066392" lon="12.33044089281446"><ele>43.0</ele><time>2026-04-03T06:28:48.999Z</time></trkpt><trkpt lat="45.83160595279545" lon="12.330372953207302"><ele>43.0</ele><time>2026-04-03T06:28:50.999Z</time></trkpt><trkpt lat="45.831720814118185" lon="12.330290331203917"><ele>42.833333333333336</ele><time>2026-04-03T06:28:52.999Z</time></trkpt><trkpt lat="45.831785484608595" lon="12.330243242990141"><ele>42.66666666666667</ele><time>2026-04-03T06:28:53.999Z</time></trkpt><trkpt lat="45.83185407072316" lon="12.330193419244829"><ele>42.5</ele><time>2026-04-03T06:28:54.999Z</time></trkpt><trkpt lat="45.83192642465154" lon="12.330140984479092"><ele>42.333333333333336</ele><time>2026-04-03T06:28:55.999Z</time></trkpt><trkpt lat="45.83200219317582" lon="12.33008563407647"><ele>42.166666666666664</ele><time>2026-04-03T06:28:56.999Z</time></trkpt><trkpt lat="45.832082008330154" lon="12.330028169830697"><ele>42.0</ele><time>2026-04-03T06:28:57.999Z</time></trkpt><trkpt lat="45.83216498983852" lon="12.32996787968964"><ele>41.8</ele><time>2026-04-03T06:28:58.999Z</time></trkpt><trkpt lat="45.83224917347535" lon="12.329905225675587"><ele>41.6</ele><time>2026-04-03T06:28:59.999Z</time></trkpt><trkpt lat="45.83233282514871" lon="12.329838927716342"><ele>41.4</ele><time>2026-04-03T06:29:00.999Z</time></trkpt><trkpt lat="45.832418356437906" lon="12.329768212375248"><ele>41.199999999999996</ele><time>2026-04-03T06:29:01.999Z</time></trkpt><trkpt lat="45.83250326038257" lon="12.32969195657127"><ele>41.0</ele><time>2026-04-03T06:29:02.999Z</time></trkpt><trkpt lat="45.832584416198046" lon="12.329607149995397"><ele>41.0</ele><time>2026-04-03T06:29:03.999Z</time></trkpt><trkpt lat="45.832661770077245" lon="12.329511587218223"><ele>41.0</ele><time>2026-04-03T06:29:05Z</time></trkpt><trkpt lat="45.83273524421214" lon="12.329406711120768"><ele>41.0</ele><time>2026-04-03T06:29:06Z</time></trkpt><trkpt lat="45.832806158021796" lon="12.329296325181058"><ele>41.0</ele><time>2026-04-03T06:29:07Z</time></trkpt><trkpt lat="45.832875291734034" lon="12.329181354134109"><ele>41.0</ele><time>2026-04-03T06:29:08Z</time></trkpt><trkpt lat="45.83294544361106" lon="12.329061164692918"><ele>41.0</ele><time>2026-04-03T06:29:09Z</time></trkpt><trkpt lat="45.8330156398346" lon="12.328939390067221"><ele>41.0</ele><time>2026-04-03T06:29:10Z</time></trkpt><trkpt lat="45.83308578288507" lon="12.328817956276286"><ele>41.0</ele><time>2026-04-03T06:29:11Z</time></trkpt><trkpt lat="45.83315647793327" lon="12.32869613945418"><ele>41.0</ele><time>2026-04-03T06:29:12Z</time></trkpt><trkpt lat="45.833227483753355" lon="12.328572969856593"><ele>41.0</ele><time>2026-04-03T06:29:13Z</time></trkpt><trkpt lat="45.83329839326662" lon="12.32844857405722"><ele>41.0</ele><time>2026-04-03T06:29:14Z</time></trkpt><trkpt lat="45.833369492730554" lon="12.328322762094984"><ele>41.0</ele><time>2026-04-03T06:29:15Z</time></trkpt><trkpt lat="45.83344114698215" lon="12.328196014166235"><ele>41.0</ele><time>2026-04-03T06:29:16Z</time></trkpt><trkpt lat="45.83351318115962" lon="12.328069410476884"><ele>41.0</ele><time>2026-04-03T06:29:17Z</time></trkpt><trkpt lat="45.83358624488034" lon="12.327941497046448"><ele>41.5</ele><time>2026-04-03T06:29:18Z</time></trkpt><trkpt lat="45.83365883019748" lon="12.327812036919527"><ele>42.0</ele><time>2026-04-03T06:29:19Z</time></trkpt><trkpt lat="45.833730794173434" lon="12.327682118409196"><ele>42.5</ele><time>2026-04-03T06:29:20Z</time></trkpt><trkpt lat="45.83380317373584" lon="12.327552521897882"><ele>43.0</ele><time>2026-04-03T06:29:21Z</time></trkpt><trkpt lat="45.83387588918644" lon="12.327423058339921"><ele>43.0</ele><time>2026-04-03T06:29:22Z</time></trkpt><trkpt lat="45.83394935754554" lon="12.327293428805957"><ele>43.0</ele><time>2026-04-03T06:29:23Z</time></trkpt><trkpt lat="45.8340232817699" lon="12.327164509868338"><ele>43.0</ele><time>2026-04-03T06:29:24Z</time></trkpt><trkpt lat="45.834097202076336" lon="12.32703572356367"><ele>43.0</ele><time>2026-04-03T06:29:25Z</time></trkpt><trkpt lat="45.83417063553155" lon="12.326906865938104"><ele>43.0</ele><time>2026-04-03T06:29:26Z</time></trkpt><trkpt lat="45.834242567703065" lon="12.326779052258436"><ele>43.0</ele><time>2026-04-03T06:29:27Z</time></trkpt><trkpt lat="45.83431503742838" lon="12.326656844985632"><ele>43.0</ele><time>2026-04-03T06:29:28Z</time></trkpt><trkpt lat="45.834388154049655" lon="12.326542966213454"><ele>43.0</ele><time>2026-04-03T06:29:29Z</time></trkpt><trkpt lat="45.83446551079279" lon="12.326441673890633"><ele>43.0</ele><time>2026-04-03T06:29:30Z</time></trkpt><trkpt lat="45.834552800807295" lon="12.326360398513462"><ele>43.0</ele><time>2026-04-03T06:29:31Z</time></trkpt><trkpt lat="45.83464532154101" lon="12.326294884859589"><ele>43.0</ele><time>2026-04-03T06:29:32Z</time></trkpt><trkpt lat="45.83473747326532" lon="12.32623986903315"><ele>43.0</ele><time>2026-04-03T06:29:33Z</time></trkpt><trkpt lat="45.83482786529165" lon="12.326187567013477"><ele>43.0</ele><time>2026-04-03T06:29:34Z</time></trkpt><trkpt lat="45.83491961187303" lon="12.326137259383435"><ele>43.0</ele><time>2026-04-03T06:29:35Z</time></trkpt><trkpt lat="45.83501252284689" lon="12.326086805045874"><ele>43.0</ele><time>2026-04-03T06:29:36Z</time></trkpt><trkpt lat="45.83510721193845" lon="12.326035051053093"><ele>43.0</ele><time>2026-04-03T06:29:37Z</time></trkpt><trkpt lat="45.8352036928051" lon="12.325981361751774"><ele>43.0</ele><time>2026-04-03T06:29:38Z</time></trkpt><trkpt lat="45.835298340394" lon="12.325928225163269"><ele>43.0</ele><time>2026-04-03T06:29:39Z</time></trkpt><trkpt lat="45.83538748929495" lon="12.325878317691418"><ele>43.0</ele><time>2026-04-03T06:29:40Z</time></trkpt><trkpt lat="45.83546611769387" lon="12.325837037326085"><ele>43.142857142857146</ele><time>2026-04-03T06:29:41Z</time></trkpt><trkpt lat="45.83552859556856" lon="12.32580944512951"><ele>43.285714285714285</ele><time>2026-04-03T06:29:42Z</time></trkpt><trkpt lat="45.83560805971827" lon="12.325777963149454"><ele>43.42857142857143</ele><time>2026-04-03T06:29:44Z</time></trkpt><trkpt lat="45.83567270455271" lon="12.325746323525381"><ele>43.57142857142857</ele><time>2026-04-03T06:29:48Z</time></trkpt><trkpt lat="45.835744062440966" lon="12.325706545756363"><ele>43.714285714285715</ele><time>2026-04-03T06:30:01Z</time></trkpt><trkpt lat="45.8358096261737" lon="12.325657443729877"><ele>43.85714285714286</ele><time>2026-04-03T06:30:04Z</time></trkpt><trkpt lat="45.83587847966001" lon="12.325618873830965"><ele>44.0</ele><time>2026-04-03T06:30:06Z</time></trkpt><trkpt lat="45.83595858688269" lon="12.325571911033542"><ele>43.666666666666664</ele><time>2026-04-03T06:30:07.999Z</time></trkpt><trkpt lat="45.836046010354494" lon="12.325522959830817"><ele>43.33333333333333</ele><time>2026-04-03T06:30:09.999Z</time></trkpt><trkpt lat="45.83612211724736" lon="12.325478848893592"><ele>43.0</ele><time>2026-04-03T06:30:11.999Z</time></trkpt><trkpt lat="45.8362024426313" lon="12.325425275509438"><ele>42.666666666666664</ele><time>2026-04-03T06:30:14.999Z</time></trkpt><trkpt lat="45.836260841858575" lon="12.325379890799326"><ele>42.333333333333336</ele><time>2026-04-03T06:30:17.999Z</time></trkpt><trkpt lat="45.83634179528778" lon="12.32532545385847"><ele>42.0</ele><time>2026-04-03T06:31:21Z</time></trkpt><trkpt lat="45.836423724492896" lon="12.32528415575816"><ele>42.0</ele><time>2026-04-03T06:31:24Z</time></trkpt><trkpt lat="45.8365239700479" lon="12.325239472808438"><ele>42.0</ele><time>2026-04-03T06:31:26Z</time></trkpt><trkpt lat="45.836646176892245" lon="12.325179432907218"><ele>42.0</ele><time>2026-04-03T06:31:28Z</time></trkpt><trkpt lat="45.83671433773583" lon="12.325142828679594"><ele>42.0</ele><time>2026-04-03T06:31:29Z</time></trkpt><trkpt lat="45.836785860363115" lon="12.32510659052161"><ele>42.0</ele><time>2026-04-03T06:31:30Z</time></trkpt><trkpt lat="45.836856452341834" lon="12.325068654721356"><ele>42.166666666666664</ele><time>2026-04-03T06:31:31Z</time></trkpt><trkpt lat="45.83692150290721" lon="12.325032521983749"><ele>42.333333333333336</ele><time>2026-04-03T06:31:32Z</time></trkpt><trkpt lat="45.8370075387447" lon="12.324979477465073"><ele>42.5</ele><time>2026-04-03T06:31:34Z</time></trkpt><trkpt lat="45.83706840063338" lon="12.324941221188611"><ele>42.66666666666667</ele><time>2026-04-03T06:31:50Z</time></trkpt><trkpt lat="45.837138733389956" lon="12.324905928100776"><ele>42.833333333333336</ele><time>2026-04-03T06:31:52Z</time></trkpt><trkpt lat="45.8372500790605" lon="12.324844667776832"><ele>43.0</ele><time>2026-04-03T06:31:54Z</time></trkpt><trkpt lat="45.837319178458124" lon="12.324805960762166"><ele>43.0</ele><time>2026-04-03T06:31:55Z</time></trkpt><trkpt lat="45.837394610427545" lon="12.32476338066446"><ele>43.0</ele><time>2026-04-03T06:31:56Z</time></trkpt><trkpt lat="45.83747552727422" lon="12.324718886533995"><ele>43.0</ele><time>2026-04-03T06:31:57Z</time></trkpt><trkpt lat="45.837565135026374" lon="12.32467259112802"><ele>43.0</ele><time>2026-04-03T06:31:58Z</time></trkpt><trkpt lat="45.83766003976021" lon="12.324625981715947"><ele>43.0</ele><time>2026-04-03T06:31:59Z</time></trkpt><trkpt lat="45.83775866706698" lon="12.324583469487669"><ele>42.8</ele><time>2026-04-03T06:32:00Z</time></trkpt><trkpt lat="45.83786095662308" lon="12.324543959756314"><ele>42.599999999999994</ele><time>2026-04-03T06:32:01Z</time></trkpt><trkpt lat="45.83796682720032" lon="12.324507292198389"><ele>42.400000000000006</ele><time>2026-04-03T06:32:02Z</time></trkpt><trkpt lat="45.83807288644832" lon="12.324471900233124"><ele>42.2</ele><time>2026-04-03T06:32:03Z</time></trkpt><trkpt lat="45.83818061122057" lon="12.32443530512573"><ele>42.0</ele><time>2026-04-03T06:32:04Z</time></trkpt><trkpt lat="45.83828988899348" lon="12.324398383108278"><ele>42.0</ele><time>2026-04-03T06:32:05Z</time></trkpt><trkpt lat="45.83839972347753" lon="12.324362065787524"><ele>42.0</ele><time>2026-04-03T06:32:06Z</time></trkpt><trkpt lat="45.83850894670975" lon="12.32432577092205"><ele>42.0</ele><time>2026-04-03T06:32:07Z</time></trkpt><trkpt lat="45.838618164202394" lon="12.324291727098217"><ele>42.0</ele><time>2026-04-03T06:32:07.999Z</time></trkpt><trkpt lat="45.83872666395223" lon="12.324254687639629"><ele>42.0</ele><time>2026-04-03T06:32:08.999Z</time></trkpt><trkpt lat="45.83883568427294" lon="12.32421865858434"><ele>41.8</ele><time>2026-04-03T06:32:09.999Z</time></trkpt><trkpt lat="45.8389444579844" lon="12.324183748729627"><ele>41.6</ele><time>2026-04-03T06:32:10.999Z</time></trkpt><trkpt lat="45.839051015400116" lon="12.324149292741085"><ele>41.4</ele><time>2026-04-03T06:32:11.999Z</time></trkpt><trkpt lat="45.83915820450705" lon="12.324114523906484"><ele>41.199999999999996</ele><time>2026-04-03T06:32:12.999Z</time></trkpt><trkpt lat="45.8392639436716" lon="12.32407817643054"><ele>41.0</ele><time>2026-04-03T06:32:13.999Z</time></trkpt><trkpt lat="45.83936843315576" lon="12.324031142324891"><ele>40.8</ele><time>2026-04-03T06:32:14.999Z</time></trkpt><trkpt lat="45.83946846751685" lon="12.323973276804306"><ele>40.599999999999994</ele><time>2026-04-03T06:32:15.999Z</time></trkpt><trkpt lat="45.83956269604631" lon="12.323901436409008"><ele>40.4</ele><time>2026-04-03T06:32:16.999Z</time></trkpt><trkpt lat="45.83965465850229" lon="12.323820696798732"><ele>40.2</ele><time>2026-04-03T06:32:17.999Z</time></trkpt><trkpt lat="45.83974269448436" lon="12.323736068294295"><ele>40.0</ele><time>2026-04-03T06:32:18.999Z</time></trkpt><trkpt lat="45.83982741391933" lon="12.323646711605543"><ele>40.0</ele><time>2026-04-03T06:32:19.999Z</time></trkpt><trkpt lat="45.839908288154774" lon="12.323549183877434"><ele>40.0</ele><time>2026-04-03T06:32:20.999Z</time></trkpt><trkpt lat="45.83998661385314" lon="12.32344681381685"><ele>40.0</ele><time>2026-04-03T06:32:21.999Z</time></trkpt><trkpt lat="45.84006204290048" lon="12.323340730172267"><ele>40.0</ele><time>2026-04-03T06:32:22.999Z</time></trkpt><trkpt lat="45.84013457396886" lon="12.323230990892162"><ele>40.0</ele><time>2026-04-03T06:32:23.999Z</time></trkpt><trkpt lat="45.84020352694247" lon="12.32311736208705"><ele>40.2</ele><time>2026-04-03T06:32:24.999Z</time></trkpt><trkpt lat="45.84026762553355" lon="12.322998269144376"><ele>40.4</ele><time>2026-04-03T06:32:25.999Z</time></trkpt><trkpt lat="45.84033060689825" lon="12.322872609514588"><ele>40.599999999999994</ele><time>2026-04-03T06:32:26.999Z</time></trkpt><trkpt lat="45.840390783798725" lon="12.32274378741304"><ele>40.8</ele><time>2026-04-03T06:32:27.999Z</time></trkpt><trkpt lat="45.8404489636063" lon="12.322607650746926"><ele>41.0</ele><time>2026-04-03T06:32:28.999Z</time></trkpt><trkpt lat="45.84050381390123" lon="12.322468909113107"><ele>41.0</ele><time>2026-04-03T06:32:29.999Z</time></trkpt><trkpt lat="45.840558403637594" lon="12.322328310860083"><ele>41.0</ele><time>2026-04-03T06:32:30.999Z</time></trkpt><trkpt lat="45.840610986410525" lon="12.322186006301767"><ele>41.0</ele><time>2026-04-03T06:32:31.999Z</time></trkpt><trkpt lat="45.84066471018388" lon="12.32204237191301"><ele>41.0</ele><time>2026-04-03T06:32:32.999Z</time></trkpt><trkpt lat="45.84072090530315" lon="12.321898902323865"><ele>41.5</ele><time>2026-04-03T06:32:33.999Z</time></trkpt><trkpt lat="45.84077812746054" lon="12.321754513578364"><ele>42.0</ele><time>2026-04-03T06:32:34.999Z</time></trkpt><trkpt lat="45.84083446600313" lon="12.321608250647968"><ele>42.5</ele><time>2026-04-03T06:32:35.999Z</time></trkpt><trkpt lat="45.840889889244174" lon="12.321460577373058"><ele>43.0</ele><time>2026-04-03T06:32:36.999Z</time></trkpt><trkpt lat="45.84094632261136" lon="12.321314115871797"><ele>43.25</ele><time>2026-04-03T06:32:37.999Z</time></trkpt><trkpt lat="45.841001051316375" lon="12.32116683672039"><ele>43.5</ele><time>2026-04-03T06:32:38.999Z</time></trkpt><trkpt lat="45.84105602671089" lon="12.321020433063486"><ele>43.75</ele><time>2026-04-03T06:32:39.999Z</time></trkpt><trkpt lat="45.84111277226282" lon="12.320874171508146"><ele>44.0</ele><time>2026-04-03T06:32:40.999Z</time></trkpt><trkpt lat="45.84116847199059" lon="12.32072922620134"><ele>44.0</ele><time>2026-04-03T06:32:41.999Z</time></trkpt><trkpt lat="45.8412243344781" lon="12.320585123050073"><ele>44.0</ele><time>2026-04-03T06:32:42.999Z</time></trkpt><trkpt lat="45.84128123075856" lon="12.32044367306803"><ele>44.0</ele><time>2026-04-03T06:32:43.999Z</time></trkpt><trkpt lat="45.84133838844432" lon="12.320304756169477"><ele>44.0</ele><time>2026-04-03T06:32:44.999Z</time></trkpt><trkpt lat="45.84139626171627" lon="12.320170255388934"><ele>44.0</ele><time>2026-04-03T06:32:45.999Z</time></trkpt><trkpt lat="45.841456717806814" lon="12.320036603580325"><ele>44.0</ele><time>2026-04-03T06:32:46.999Z</time></trkpt><trkpt lat="45.84151541015192" lon="12.319901185151592"><ele>44.0</ele><time>2026-04-03T06:32:47.999Z</time></trkpt><trkpt lat="45.84157204319924" lon="12.319763049183875"><ele>44.0</ele><time>2026-04-03T06:32:48.999Z</time></trkpt><trkpt lat="45.84163177808137" lon="12.319624182039309"><ele>44.0</ele><time>2026-04-03T06:32:49.999Z</time></trkpt><trkpt lat="45.841693399752586" lon="12.31948393744963"><ele>43.75</ele><time>2026-04-03T06:32:50.999Z</time></trkpt><trkpt lat="45.84175410004956" lon="12.319341580460332"><ele>43.5</ele><time>2026-04-03T06:32:51.999Z</time></trkpt><trkpt lat="45.84181687985487" lon="12.31919687541408"><ele>43.25</ele><time>2026-04-03T06:32:52.999Z</time></trkpt><trkpt lat="45.841876169336686" lon="12.319050128115325"><ele>43.0</ele><time>2026-04-03T06:32:53.999Z</time></trkpt><trkpt lat="45.84193549294824" lon="12.318906335041373"><ele>43.0</ele><time>2026-04-03T06:32:54.999Z</time></trkpt><trkpt lat="45.841991548994386" lon="12.318767966266632"><ele>43.0</ele><time>2026-04-03T06:32:55.999Z</time></trkpt><trkpt lat="45.84205100044295" lon="12.318627921184099"><ele>43.0</ele><time>2026-04-03T06:32:56.999Z</time></trkpt><trkpt lat="45.84210869271267" lon="12.318487362852563"><ele>43.0</ele><time>2026-04-03T06:32:57.999Z</time></trkpt><trkpt lat="45.84216642427597" lon="12.318353413076647"><ele>43.0</ele><time>2026-04-03T06:32:58.999Z</time></trkpt><trkpt lat="45.84222248190923" lon="12.318217286692603"><ele>43.0</ele><time>2026-04-03T06:32:59.999Z</time></trkpt><trkpt lat="45.842278344576755" lon="12.31808139836481"><ele>43.0</ele><time>2026-04-03T06:33:00.999Z</time></trkpt><trkpt lat="45.84233419400325" lon="12.317944189636043"><ele>43.0</ele><time>2026-04-03T06:33:01.999Z</time></trkpt><trkpt lat="45.84239024567049" lon="12.317805423959797"><ele>43.0</ele><time>2026-04-03T06:33:02.999Z</time></trkpt><trkpt lat="45.8424479928371" lon="12.317667182845407"><ele>43.0</ele><time>2026-04-03T06:33:03.999Z</time></trkpt><trkpt lat="45.84250788357724" lon="12.317530525300791"><ele>42.75</ele><time>2026-04-03T06:33:04.999Z</time></trkpt><trkpt lat="45.84256758253336" lon="12.317392382865226"><ele>42.5</ele><time>2026-04-03T06:33:05.999Z</time></trkpt><trkpt lat="45.842627374485694" lon="12.317254263497293"><ele>42.25</ele><time>2026-04-03T06:33:06.999Z</time></trkpt><trkpt lat="45.84268594354784" lon="12.317116238877384"><ele>42.0</ele><time>2026-04-03T06:33:07.999Z</time></trkpt><trkpt lat="45.84274510969077" lon="12.316978784713214"><ele>42.400000000000006</ele><time>2026-04-03T06:33:08.999Z</time></trkpt><trkpt lat="45.84280301171681" lon="12.316842444876226"><ele>42.800000000000004</ele><time>2026-04-03T06:33:09.999Z</time></trkpt><trkpt lat="45.842860398140424" lon="12.316708213939739"><ele>43.2</ele><time>2026-04-03T06:33:10.999Z</time></trkpt><trkpt lat="45.84291735929332" lon="12.31657467639917"><ele>43.6</ele><time>2026-04-03T06:33:11.999Z</time></trkpt><trkpt lat="45.8429730595383" lon="12.31644364671893"><ele>44.0</ele><time>2026-04-03T06:33:12.999Z</time></trkpt><trkpt lat="45.843027292676375" lon="12.31631290515422"><ele>44.2</ele><time>2026-04-03T06:33:13.999Z</time></trkpt><trkpt lat="45.843079968309844" lon="12.316186022646315"><ele>44.400000000000006</ele><time>2026-04-03T06:33:14.999Z</time></trkpt><trkpt lat="45.84313198784365" lon="12.316061480507585"><ele>44.6</ele><time>2026-04-03T06:33:15.999Z</time></trkpt><trkpt lat="45.84318339985984" lon="12.31593925333825"><ele>44.8</ele><time>2026-04-03T06:33:17Z</time></trkpt><trkpt lat="45.843236461845336" lon="12.315825174727562"><ele>45.0</ele><time>2026-04-03T06:33:18Z</time></trkpt><trkpt lat="45.84329754408574" lon="12.315721136687072"><ele>45.0</ele><time>2026-04-03T06:33:19Z</time></trkpt><trkpt lat="45.84336141000202" lon="12.315622494910544"><ele>45.0</ele><time>2026-04-03T06:33:20Z</time></trkpt><trkpt lat="45.84342914042637" lon="12.315533692138255"><ele>45.0</ele><time>2026-04-03T06:33:21Z</time></trkpt><trkpt lat="45.84349697360156" lon="12.31545030671462"><ele>45.0</ele><time>2026-04-03T06:33:22Z</time></trkpt><trkpt lat="45.8435650782063" lon="12.315373958991762"><ele>45.0</ele><time>2026-04-03T06:33:23Z</time></trkpt><trkpt lat="45.84362929614192" lon="12.315312100659106"><ele>45.0</ele><time>2026-04-03T06:33:24Z</time></trkpt><trkpt lat="45.84368427869852" lon="12.315262324522203"><ele>45.166666666666664</ele><time>2026-04-03T06:33:25Z</time></trkpt><trkpt lat="45.84376230594378" lon="12.31520307666209"><ele>45.333333333333336</ele><time>2026-04-03T06:33:27Z</time></trkpt><trkpt lat="45.84382982246121" lon="12.315163356347309"><ele>45.5</ele><time>2026-04-03T06:34:10.999Z</time></trkpt><trkpt lat="45.843888792087746" lon="12.31509683623134"><ele>45.66666666666667</ele><time>2026-04-03T06:34:14.999Z</time></trkpt><trkpt lat="45.84394916167399" lon="12.315042898049157"><ele>45.833333333333336</ele><time>2026-04-03T06:34:17.999Z</time></trkpt><trkpt lat="45.844006749692284" lon="12.314970658412921"><ele>46.0</ele><time>2026-04-03T06:34:31.999Z</time></trkpt><trkpt lat="45.844064811332764" lon="12.314911205925545"><ele>46.0</ele><time>2026-04-03T06:34:33.999Z</time></trkpt><trkpt lat="45.84414210718108" lon="12.314844907234194"><ele>46.0</ele><time>2026-04-03T06:34:35.999Z</time></trkpt><trkpt lat="45.84423942248254" lon="12.31475320530763"><ele>46.0</ele><time>2026-04-03T06:34:37.999Z</time></trkpt><trkpt lat="45.844323491609906" lon="12.314684495284732"><ele>46.0</ele><time>2026-04-03T06:34:39.999Z</time></trkpt><trkpt lat="45.84437873540467" lon="12.314635799263215"><ele>46.0</ele><time>2026-04-03T06:34:43.999Z</time></trkpt><trkpt lat="45.84444488902542" lon="12.31456411473543"><ele>45.833333333333336</ele><time>2026-04-03T06:34:58.999Z</time></trkpt><trkpt lat="45.84453244170031" lon="12.31448275946942"><ele>45.66666666666667</ele><time>2026-04-03T06:35:00.999Z</time></trkpt><trkpt lat="45.84459049307642" lon="12.314430625036646"><ele>45.5</ele><time>2026-04-03T06:35:01.999Z</time></trkpt><trkpt lat="45.844653213252805" lon="12.314373772713614"><ele>45.333333333333336</ele><time>2026-04-03T06:35:02.999Z</time></trkpt><trkpt lat="45.84472051328848" lon="12.314312804999847"><ele>45.166666666666664</ele><time>2026-04-03T06:35:03.999Z</time></trkpt><trkpt lat="45.84479076915964" lon="12.314250756028066"><ele>45.0</ele><time>2026-04-03T06:35:04.999Z</time></trkpt><trkpt lat="45.8448598089198" lon="12.314190793377083"><ele>45.0</ele><time>2026-04-03T06:35:05.999Z</time></trkpt><trkpt lat="45.84492710454121" lon="12.314134042920164"><ele>45.0</ele><time>2026-04-03T06:35:06.999Z</time></trkpt><trkpt lat="45.84498998057937" lon="12.314082481691186"><ele>45.0</ele><time>2026-04-03T06:35:07.999Z</time></trkpt><trkpt lat="45.84508733155116" lon="12.314004941769202"><ele>45.0</ele><time>2026-04-03T06:35:09.999Z</time></trkpt><trkpt lat="45.84514737921581" lon="12.31395994007396"><ele>45.0</ele><time>2026-04-03T06:35:11.999Z</time></trkpt><trkpt lat="45.84520792161482" lon="12.313892311839796"><ele>45.0</ele><time>2026-04-03T06:35:33Z</time></trkpt><trkpt lat="45.845286001947876" lon="12.313810692611828"><ele>45.0</ele><time>2026-04-03T06:35:36Z</time></trkpt><trkpt lat="45.845357457491005" lon="12.313741956621742"><ele>45.0</ele><time>2026-04-03T06:35:38Z</time></trkpt><trkpt lat="45.84543186005584" lon="12.31367322867149"><ele>45.0</ele><time>2026-04-03T06:35:40Z</time></trkpt><trkpt lat="45.84548629783751" lon="12.313623270000265"><ele>45.0</ele><time>2026-04-03T06:35:42Z</time></trkpt><trkpt lat="45.84554407021704" lon="12.313558141492216"><ele>45.0</ele><time>2026-04-03T06:36:03Z</time></trkpt><trkpt lat="45.84561051217363" lon="12.313494402676673"><ele>45.0</ele><time>2026-04-03T06:36:05Z</time></trkpt><trkpt lat="45.84569574555424" lon="12.313416162996836"><ele>45.0</ele><time>2026-04-03T06:36:07Z</time></trkpt><trkpt lat="45.84577001013512" lon="12.31333604735131"><ele>45.0</ele><time>2026-04-03T06:36:08.999Z</time></trkpt><trkpt lat="45.84582661466132" lon="12.313267238057984"><ele>45.0</ele><time>2026-04-03T06:36:10.999Z</time></trkpt><trkpt lat="45.84587818306583" lon="12.313194855583896"><ele>45.0</ele><time>2026-04-03T06:36:12.999Z</time></trkpt><trkpt lat="45.845921690972695" lon="12.313109009915003"><ele>45.0</ele><time>2026-04-03T06:36:14.999Z</time></trkpt><trkpt lat="45.845928228343034" lon="12.313002223604549"><ele>45.0</ele><time>2026-04-03T06:36:16.999Z</time></trkpt><trkpt lat="45.8458999247112" lon="12.312908918655655"><ele>45.0</ele><time>2026-04-03T06:36:18.999Z</time></trkpt><trkpt lat="45.8458148186839" lon="12.312903907997487"><ele>45.0</ele><time>2026-04-03T06:36:20.999Z</time></trkpt><trkpt lat="45.84574006976668" lon="12.313059622970403"><ele>45.0</ele><time>2026-04-03T06:36:23.999Z</time></trkpt><trkpt lat="45.845765408987006" lon="12.313191356003925"><ele>45.0</ele><time>2026-04-03T06:36:25.999Z</time></trkpt><trkpt lat="45.845733308977664" lon="12.313324793187384"><ele>45.0</ele><time>2026-04-03T06:36:27.999Z</time></trkpt><trkpt lat="45.845638440141215" lon="12.31341104871894"><ele>45.0</ele><time>2026-04-03T06:36:29.999Z</time></trkpt><trkpt lat="45.84554324128463" lon="12.31352046041818"><ele>45.0</ele><time>2026-04-03T06:36:31.999Z</time></trkpt><trkpt lat="45.84548081507294" lon="12.313551569731569"><ele>45.0</ele><time>2026-04-03T06:36:32.999Z</time></trkpt><trkpt lat="45.8454249291702" lon="12.313601264371064"><ele>45.0</ele><time>2026-04-03T06:36:33.999Z</time></trkpt><trkpt lat="45.84532994923857" lon="12.313689120579374"><ele>45.0</ele><time>2026-04-03T06:36:35.999Z</time></trkpt><trkpt lat="45.8452718945748" lon="12.31372936659731"><ele>45.0</ele><time>2026-04-03T06:36:37.999Z</time></trkpt><trkpt lat="45.84520412611887" lon="12.313791287380198"><ele>45.0</ele><time>2026-04-03T06:38:19.999Z</time></trkpt><trkpt lat="45.84513864406729" lon="12.313856974416145"><ele>45.0</ele><time>2026-04-03T06:38:21.999Z</time></trkpt><trkpt lat="45.84504886070562" lon="12.313940947542893"><ele>45.0</ele><time>2026-04-03T06:38:23.999Z</time></trkpt><trkpt lat="45.84493954531226" lon="12.314043299787576"><ele>45.0</ele><time>2026-04-03T06:38:25.999Z</time></trkpt><trkpt lat="45.84487681051757" lon="12.314102402801147"><ele>45.0</ele><time>2026-04-03T06:38:26.999Z</time></trkpt><trkpt lat="45.8448095615799" lon="12.314162332068117"><ele>45.0</ele><time>2026-04-03T06:38:27.999Z</time></trkpt><trkpt lat="45.844736800270184" lon="12.314224741711065"><ele>45.0</ele><time>2026-04-03T06:38:28.999Z</time></trkpt><trkpt lat="45.8446624479411" lon="12.31429031271014"><ele>45.0</ele><time>2026-04-03T06:38:29.999Z</time></trkpt><trkpt lat="45.844590649439546" lon="12.31435613468786"><ele>45.0</ele><time>2026-04-03T06:38:30.999Z</time></trkpt><trkpt lat="45.84452085823652" lon="12.31441860273651"><ele>45.0</ele><time>2026-04-03T06:38:31.999Z</time></trkpt><trkpt lat="45.844454479465526" lon="12.3144790702106"><ele>45.0</ele><time>2026-04-03T06:38:32.999Z</time></trkpt><trkpt lat="45.844391236715694" lon="12.314531830986496"><ele>45.0</ele><time>2026-04-03T06:38:33.999Z</time></trkpt><trkpt lat="45.844307107686355" lon="12.314609059065756"><ele>45.0</ele><time>2026-04-03T06:38:35.999Z</time></trkpt><trkpt lat="45.84425393750114" lon="12.31465768000093"><ele>45.0</ele><time>2026-04-03T06:39:11.999Z</time></trkpt><trkpt lat="45.84418018119527" lon="12.314730048632807"><ele>45.0</ele><time>2026-04-03T06:39:14.999Z</time></trkpt><trkpt lat="45.84408290604932" lon="12.31481770254107"><ele>45.0</ele><time>2026-04-03T06:39:16.999Z</time></trkpt><trkpt lat="45.844019810573506" lon="12.314872453329253"><ele>45.0</ele><time>2026-04-03T06:39:17.999Z</time></trkpt><trkpt lat="45.84395293089541" lon="12.314931980515132"><ele>45.166666666666664</ele><time>2026-04-03T06:39:18.999Z</time></trkpt><trkpt lat="45.84388429858061" lon="12.314991999896357"><ele>45.333333333333336</ele><time>2026-04-03T06:39:19.999Z</time></trkpt><trkpt lat="45.843814962451205" lon="12.315052476188619"><ele>45.5</ele><time>2026-04-03T06:39:20.999Z</time></trkpt><trkpt lat="45.84374914813817" lon="12.315117484619156"><ele>45.66666666666667</ele><time>2026-04-03T06:39:21.999Z</time></trkpt><trkpt lat="45.84368545246341" lon="12.315179027503685"><ele>45.833333333333336</ele><time>2026-04-03T06:39:22.999Z</time></trkpt><trkpt lat="45.843628517715864" lon="12.3152357673717"><ele>46.0</ele><time>2026-04-03T06:39:23.999Z</time></trkpt><trkpt lat="45.843553143717074" lon="12.31530685025513"><ele>46.0</ele><time>2026-04-03T06:39:25.999Z</time></trkpt><trkpt lat="45.84350732531372" lon="12.315369367764625"><ele>46.0</ele><time>2026-04-03T06:39:57Z</time></trkpt><trkpt lat="45.84345724019295" lon="12.315433864932587"><ele>46.0</ele><time>2026-04-03T06:39:59Z</time></trkpt><trkpt lat="45.843388690201444" lon="12.315524734203011"><ele>46.0</ele><time>2026-04-03T06:40:01Z</time></trkpt><trkpt lat="45.8433089826694" lon="12.315623769407525"><ele>46.0</ele><time>2026-04-03T06:40:03Z</time></trkpt><trkpt lat="45.84324968161835" lon="12.315691593228651"><ele>46.0</ele><time>2026-04-03T06:40:05Z</time></trkpt><trkpt lat="45.843216373820184" lon="12.315799839953621"><ele>45.8</ele><time>2026-04-03T06:40:23.999Z</time></trkpt><trkpt lat="45.84315669335929" lon="12.315886331664613"><ele>45.599999999999994</ele><time>2026-04-03T06:40:25.999Z</time></trkpt><trkpt lat="45.8430898735027" lon="12.316040144185502"><ele>45.4</ele><time>2026-04-03T06:40:27.999Z</time></trkpt><trkpt lat="45.843049820479045" lon="12.316134886073202"><ele>45.2</ele><time>2026-04-03T06:40:28.999Z</time></trkpt><trkpt lat="45.843005387267155" lon="12.316239988790992"><ele>45.0</ele><time>2026-04-03T06:40:29.999Z</time></trkpt><trkpt lat="45.84295744886" lon="12.316353382828925"><ele>44.8</ele><time>2026-04-03T06:40:30.999Z</time></trkpt><trkpt lat="45.842905817734525" lon="12.31647551161773"><ele>44.6</ele><time>2026-04-03T06:40:31.999Z</time></trkpt><trkpt lat="45.84285073493928" lon="12.316605804951447"><ele>44.400000000000006</ele><time>2026-04-03T06:40:32.999Z</time></trkpt><trkpt lat="45.842794272268684" lon="12.3167393623566"><ele>44.2</ele><time>2026-04-03T06:40:33.999Z</time></trkpt><trkpt lat="45.84273660984084" lon="12.316875757636858"><ele>44.0</ele><time>2026-04-03T06:40:34.999Z</time></trkpt><trkpt lat="45.84267908727728" lon="12.317011822082462"><ele>44.0</ele><time>2026-04-03T06:40:35.999Z</time></trkpt><trkpt lat="45.84262035532408" lon="12.317150747238598"><ele>44.0</ele><time>2026-04-03T06:40:36.999Z</time></trkpt><trkpt lat="45.84256144657589" lon="12.31728952878045"><ele>44.0</ele><time>2026-04-03T06:40:37.999Z</time></trkpt><trkpt lat="45.84250254996972" lon="12.317427140941438"><ele>44.0</ele><time>2026-04-03T06:40:38.999Z</time></trkpt><trkpt lat="45.84244439007435" lon="12.317563031777095"><ele>43.800000000000004</ele><time>2026-04-03T06:40:39.999Z</time></trkpt><trkpt lat="45.842388496723686" lon="12.317693628211897"><ele>43.6</ele><time>2026-04-03T06:40:40.999Z</time></trkpt><trkpt lat="45.84233810688693" lon="12.317812403251999"><ele>43.4</ele><time>2026-04-03T06:40:41.999Z</time></trkpt><trkpt lat="45.84229275378772" lon="12.317919003658401"><ele>43.2</ele><time>2026-04-03T06:40:42.999Z</time></trkpt><trkpt lat="45.84225575891439" lon="12.318005958346609"><ele>43.0</ele><time>2026-04-03T06:40:43.999Z</time></trkpt><trkpt lat="45.842203121820134" lon="12.318129679398266"><ele>43.0</ele><time>2026-04-03T06:40:45.999Z</time></trkpt><trkpt lat="45.84216403049992" lon="12.318220307358741"><ele>43.0</ele><time>2026-04-03T06:42:04Z</time></trkpt><trkpt lat="45.842114397855184" lon="12.31833330849268"><ele>43.0</ele><time>2026-04-03T06:42:06Z</time></trkpt><trkpt lat="45.842112751383105" lon="12.318432956023454"><ele>43.0</ele><time>2026-04-03T06:42:07Z</time></trkpt><trkpt lat="45.84207623932177" lon="12.31851325007047"><ele>43.0</ele><time>2026-04-03T06:42:07.999Z</time></trkpt><trkpt lat="45.84203639971461" lon="12.318603844171257"><ele>43.0</ele><time>2026-04-03T06:42:08.999Z</time></trkpt><trkpt lat="45.84199523443969" lon="12.318703277579983"><ele>43.0</ele><time>2026-04-03T06:42:09.999Z</time></trkpt><trkpt lat="45.84192264170918" lon="12.318787661786711"><ele>43.0</ele><time>2026-04-03T06:42:10.999Z</time></trkpt><trkpt lat="45.84187323381541" lon="12.318903039635437"><ele>43.0</ele><time>2026-04-03T06:42:11.999Z</time></trkpt><trkpt lat="45.84182183080451" lon="12.319021877255587"><ele>43.0</ele><time>2026-04-03T06:42:12.999Z</time></trkpt><trkpt lat="45.84176828026672" lon="12.319146150452365"><ele>43.0</ele><time>2026-04-03T06:42:13.999Z</time></trkpt><trkpt lat="45.841713791733895" lon="12.3192739630456"><ele>43.0</ele><time>2026-04-03T06:42:14.999Z</time></trkpt><trkpt lat="45.841655459908004" lon="12.319412510707062"><ele>43.0</ele><time>2026-04-03T06:42:15.999Z</time></trkpt><trkpt lat="45.841600261740034" lon="12.319544568279138"><ele>43.0</ele><time>2026-04-03T06:42:16.999Z</time></trkpt><trkpt lat="45.84155541380112" lon="12.319694597743458"><ele>43.0</ele><time>2026-04-03T06:42:17.999Z</time></trkpt><trkpt lat="45.84149635017444" lon="12.319835695126807"><ele>43.0</ele><time>2026-04-03T06:42:18.999Z</time></trkpt><trkpt lat="45.8414206618826" lon="12.319964683805262"><ele>43.25</ele><time>2026-04-03T06:42:19.999Z</time></trkpt><trkpt lat="45.841359679663725" lon="12.32010405851408"><ele>43.5</ele><time>2026-04-03T06:42:20.999Z</time></trkpt><trkpt lat="45.84129849848144" lon="12.320245459890474"><ele>43.75</ele><time>2026-04-03T06:42:21.999Z</time></trkpt><trkpt lat="45.84123868806523" lon="12.320391120704384"><ele>44.0</ele><time>2026-04-03T06:42:22.999Z</time></trkpt><trkpt lat="45.84118169075564" lon="12.320535313893066"><ele>44.0</ele><time>2026-04-03T06:42:23.999Z</time></trkpt><trkpt lat="45.84112475066108" lon="12.320679363480767"><ele>44.0</ele><time>2026-04-03T06:42:24.999Z</time></trkpt><trkpt lat="45.8410669980304" lon="12.320823484482524"><ele>44.0</ele><time>2026-04-03T06:42:25.999Z</time></trkpt><trkpt lat="45.84101047603131" lon="12.320965539348869"><ele>44.0</ele><time>2026-04-03T06:42:26.999Z</time></trkpt><trkpt lat="45.84095560635477" lon="12.32110672939245"><ele>44.0</ele><time>2026-04-03T06:42:27.999Z</time></trkpt><trkpt lat="45.84090178484555" lon="12.321248845028371"><ele>44.0</ele><time>2026-04-03T06:42:28.999Z</time></trkpt><trkpt lat="45.840848247151804" lon="12.321390190573526"><ele>44.0</ele><time>2026-04-03T06:42:29.999Z</time></trkpt><trkpt lat="45.840795439921884" lon="12.321529364036211"><ele>44.0</ele><time>2026-04-03T06:42:30.999Z</time></trkpt><trkpt lat="45.840743055073524" lon="12.32166742427272"><ele>44.0</ele><time>2026-04-03T06:42:31.999Z</time></trkpt><trkpt lat="45.84069135159319" lon="12.321803566336001"><ele>44.0</ele><time>2026-04-03T06:42:32.999Z</time></trkpt><trkpt lat="45.840639689737486" lon="12.321938295667843"><ele>44.0</ele><time>2026-04-03T06:42:33.999Z</time></trkpt><trkpt lat="45.84058769844193" lon="12.322069521829878"><ele>44.0</ele><time>2026-04-03T06:42:34.999Z</time></trkpt><trkpt lat="45.840537654426356" lon="12.322195433146577"><ele>44.0</ele><time>2026-04-03T06:42:35.999Z</time></trkpt><trkpt lat="45.840493550161675" lon="12.322310005978835"><ele>44.0</ele><time>2026-04-03T06:42:36.999Z</time></trkpt><trkpt lat="45.84045800439481" lon="12.322403407263359"><ele>43.5</ele><time>2026-04-03T06:42:37.999Z</time></trkpt><trkpt lat="45.840409766990064" lon="12.322530157650313"><ele>43.0</ele><time>2026-04-03T06:42:39.999Z</time></trkpt><trkpt lat="45.84037134828607" lon="12.322623945823247"><ele>42.5</ele><time>2026-04-03T06:43:02.999Z</time></trkpt><trkpt lat="45.840331818986414" lon="12.322713952306453"><ele>42.0</ele><time>2026-04-03T06:43:04.999Z</time></trkpt><trkpt lat="45.84029002136955" lon="12.322803913225364"><ele>41.5</ele><time>2026-04-03T06:43:06.999Z</time></trkpt><trkpt lat="45.84023978643939" lon="12.322906287810962"><ele>41.0</ele><time>2026-04-03T06:43:08.999Z</time></trkpt><trkpt lat="45.840165522952375" lon="12.32304602882432"><ele>40.83333333333333</ele><time>2026-04-03T06:43:10.999Z</time></trkpt><trkpt lat="45.840119035725806" lon="12.323125790359597"><ele>40.666666666666664</ele><time>2026-04-03T06:43:11.999Z</time></trkpt><trkpt lat="45.84006670408792" lon="12.323209254903135"><ele>40.5</ele><time>2026-04-03T06:43:12.999Z</time></trkpt><trkpt lat="45.840009382583915" lon="12.323297503085648"><ele>40.333333333333336</ele><time>2026-04-03T06:43:13.999Z</time></trkpt><trkpt lat="45.83994490404633" lon="12.323388099407017"><ele>40.16666666666667</ele><time>2026-04-03T06:43:14.999Z</time></trkpt><trkpt lat="45.839874492407475" lon="12.323479971871592"><ele>40.0</ele><time>2026-04-03T06:43:15.999Z</time></trkpt><trkpt lat="45.83979930818038" lon="12.323574174626161"><ele>40.0</ele><time>2026-04-03T06:43:16.999Z</time></trkpt><trkpt lat="45.83971720582887" lon="12.323659978738158"><ele>40.0</ele><time>2026-04-03T06:43:17.999Z</time></trkpt><trkpt lat="45.839630387491596" lon="12.32374452014333"><ele>40.0</ele><time>2026-04-03T06:43:18.999Z</time></trkpt><trkpt lat="45.839547104677095" lon="12.323844999728447"><ele>40.0</ele><time>2026-04-03T06:43:19.999Z</time></trkpt><trkpt lat="45.839444381944155" lon="12.323895497523244"><ele>40.0</ele><time>2026-04-03T06:43:20.999Z</time></trkpt><trkpt lat="45.83934401337149" lon="12.323956780963027"><ele>40.2</ele><time>2026-04-03T06:43:21.999Z</time></trkpt><trkpt lat="45.839244820753024" lon="12.324028199462214"><ele>40.4</ele><time>2026-04-03T06:43:22.999Z</time></trkpt><trkpt lat="45.83913629024129" lon="12.324067201780498"><ele>40.599999999999994</ele><time>2026-04-03T06:43:23.999Z</time></trkpt><trkpt lat="45.83902627295071" lon="12.32410251635165"><ele>40.8</ele><time>2026-04-03T06:43:24.999Z</time></trkpt><trkpt lat="45.838915710301606" lon="12.324140876961428"><ele>41.0</ele><time>2026-04-03T06:43:25.999Z</time></trkpt><trkpt lat="45.83880267910868" lon="12.324179161673857"><ele>41.0</ele><time>2026-04-03T06:43:26.999Z</time></trkpt><trkpt lat="45.83868844509505" lon="12.32421701571296"><ele>41.0</ele><time>2026-04-03T06:43:27.999Z</time></trkpt><trkpt lat="45.83857279055285" lon="12.3242559545991"><ele>41.0</ele><time>2026-04-03T06:43:28.999Z</time></trkpt><trkpt lat="45.838453627268436" lon="12.324293944786977"><ele>41.0</ele><time>2026-04-03T06:43:29.999Z</time></trkpt><trkpt lat="45.83833356335628" lon="12.324331488143365"><ele>41.25</ele><time>2026-04-03T06:43:30.999Z</time></trkpt><trkpt lat="45.8382136815016" lon="12.324371821013125"><ele>41.5</ele><time>2026-04-03T06:43:31.999Z</time></trkpt><trkpt lat="45.838093965825585" lon="12.324412548684961"><ele>41.75</ele><time>2026-04-03T06:43:32.999Z</time></trkpt><trkpt lat="45.83797444705768" lon="12.324453497295291"><ele>42.0</ele><time>2026-04-03T06:43:33.999Z</time></trkpt><trkpt lat="45.837856176841356" lon="12.324496329235155"><ele>42.0</ele><time>2026-04-03T06:43:34.999Z</time></trkpt><trkpt lat="45.837737140018994" lon="12.324543207233766"><ele>42.0</ele><time>2026-04-03T06:43:35.999Z</time></trkpt><trkpt lat="45.837619776581924" lon="12.324596810266032"><ele>42.0</ele><time>2026-04-03T06:43:36.999Z</time></trkpt><trkpt lat="45.83750569860432" lon="12.324655169547572"><ele>42.0</ele><time>2026-04-03T06:43:37.999Z</time></trkpt><trkpt lat="45.83739425528997" lon="12.324717182871384"><ele>42.25</ele><time>2026-04-03T06:43:38.999Z</time></trkpt><trkpt lat="45.83728375780295" lon="12.324779628223201"><ele>42.5</ele><time>2026-04-03T06:43:39.999Z</time></trkpt><trkpt lat="45.837166685848" lon="12.324818866809471"><ele>42.75</ele><time>2026-04-03T06:43:40.999Z</time></trkpt><trkpt lat="45.83705786969744" lon="12.32487991926371"><ele>43.0</ele><time>2026-04-03T06:43:41.999Z</time></trkpt><trkpt lat="45.83694951827912" lon="12.324940382178472"><ele>43.0</ele><time>2026-04-03T06:43:42.999Z</time></trkpt><trkpt lat="45.836840926453995" lon="12.325000979322825"><ele>43.0</ele><time>2026-04-03T06:43:43.999Z</time></trkpt><trkpt lat="45.83673300681752" lon="12.325061201386498"><ele>43.0</ele><time>2026-04-03T06:43:44.998Z</time></trkpt><trkpt lat="45.8366240539473" lon="12.3251220000327"><ele>43.0</ele><time>2026-04-03T06:43:46Z</time></trkpt><trkpt lat="45.83651492724887" lon="12.325182895670698"><ele>42.75</ele><time>2026-04-03T06:43:47Z</time></trkpt><trkpt lat="45.83640615549706" lon="12.325243972395628"><ele>42.5</ele><time>2026-04-03T06:43:48Z</time></trkpt><trkpt lat="45.836298269762054" lon="12.325305148014461"><ele>42.25</ele><time>2026-04-03T06:43:49Z</time></trkpt><trkpt lat="45.83619018675776" lon="12.325366435512672"><ele>42.0</ele><time>2026-04-03T06:43:50Z</time></trkpt><trkpt lat="45.8360800804727" lon="12.325427705901507"><ele>42.25</ele><time>2026-04-03T06:43:51Z</time></trkpt><trkpt lat="45.8359686186668" lon="12.325488916645233"><ele>42.5</ele><time>2026-04-03T06:43:52Z</time></trkpt><trkpt lat="45.83585864740039" lon="12.325547765420604"><ele>42.75</ele><time>2026-04-03T06:43:53Z</time></trkpt><trkpt lat="45.83574729707942" lon="12.325607748675852"><ele>43.0</ele><time>2026-04-03T06:43:54Z</time></trkpt><trkpt lat="45.835636133171356" lon="12.325668087513142"><ele>43.25</ele><time>2026-04-03T06:43:55Z</time></trkpt><trkpt lat="45.835524548692874" lon="12.32572896471193"><ele>43.5</ele><time>2026-04-03T06:43:56Z</time></trkpt><trkpt lat="45.83541333926381" lon="12.325789637288565"><ele>43.75</ele><time>2026-04-03T06:43:57Z</time></trkpt><trkpt lat="45.83530139078423" lon="12.325850713085487"><ele>44.0</ele><time>2026-04-03T06:43:58Z</time></trkpt><trkpt lat="45.83518805957662" lon="12.325912543238264"><ele>43.75</ele><time>2026-04-03T06:43:59Z</time></trkpt><trkpt lat="45.83507523093253" lon="12.32597409923142"><ele>43.5</ele><time>2026-04-03T06:44:00Z</time></trkpt><trkpt lat="45.83496198322529" lon="12.326036503438417"><ele>43.25</ele><time>2026-04-03T06:44:01Z</time></trkpt><trkpt lat="45.83485083354167" lon="12.326099122328104"><ele>43.0</ele><time>2026-04-03T06:44:02Z</time></trkpt><trkpt lat="45.83474060936956" lon="12.326161220108528"><ele>43.0</ele><time>2026-04-03T06:44:03Z</time></trkpt><trkpt lat="45.83463334093577" lon="12.326225712476104"><ele>43.0</ele><time>2026-04-03T06:44:04Z</time></trkpt><trkpt lat="45.834523613197064" lon="12.326299725695714"><ele>43.0</ele><time>2026-04-03T06:44:05Z</time></trkpt><trkpt lat="45.834421418359085" lon="12.326403294168612"><ele>43.0</ele><time>2026-04-03T06:44:06Z</time></trkpt><trkpt lat="45.83433291530972" lon="12.326526158175461"><ele>42.5</ele><time>2026-04-03T06:44:07Z</time></trkpt><trkpt lat="45.834252186351954" lon="12.326660353911999"><ele>42.0</ele><time>2026-04-03T06:44:08Z</time></trkpt><trkpt lat="45.83417809695013" lon="12.326793858604825"><ele>41.5</ele><time>2026-04-03T06:44:08.999Z</time></trkpt><trkpt lat="45.83410224970128" lon="12.326927010856348"><ele>41.0</ele><time>2026-04-03T06:44:09.999Z</time></trkpt><trkpt lat="45.83402462850832" lon="12.327062982776427"><ele>41.0</ele><time>2026-04-03T06:44:10.999Z</time></trkpt><trkpt lat="45.83394566736239" lon="12.327201419478246"><ele>41.0</ele><time>2026-04-03T06:44:11.999Z</time></trkpt><trkpt lat="45.83386628769099" lon="12.327341431267499"><ele>41.0</ele><time>2026-04-03T06:44:12.999Z</time></trkpt><trkpt lat="45.83378554847467" lon="12.327483841074462"><ele>41.0</ele><time>2026-04-03T06:44:13.999Z</time></trkpt><trkpt lat="45.833703322421194" lon="12.32762887340544"><ele>41.0</ele><time>2026-04-03T06:44:14.999Z</time></trkpt><trkpt lat="45.83362079026313" lon="12.32777444561893"><ele>41.0</ele><time>2026-04-03T06:44:15.999Z</time></trkpt><trkpt lat="45.833537186644996" lon="12.327921907725358"><ele>41.0</ele><time>2026-04-03T06:44:16.999Z</time></trkpt><trkpt lat="45.83345311705999" lon="12.32807019352325"><ele>41.0</ele><time>2026-04-03T06:44:17.999Z</time></trkpt><trkpt lat="45.83336890846797" lon="12.328220683691303"><ele>41.0</ele><time>2026-04-03T06:44:18.999Z</time></trkpt><trkpt lat="45.83328372646435" lon="12.328371361924148"><ele>41.0</ele><time>2026-04-03T06:44:19.999Z</time></trkpt><trkpt lat="45.8331972110147" lon="12.32852257264764"><ele>41.0</ele><time>2026-04-03T06:44:20.999Z</time></trkpt><trkpt lat="45.83311195995567" lon="12.32867157344843"><ele>41.0</ele><time>2026-04-03T06:44:21.999Z</time></trkpt><trkpt lat="45.83302792959559" lon="12.328818440749888"><ele>41.0</ele><time>2026-04-03T06:44:22.999Z</time></trkpt><trkpt lat="45.83294548368209" lon="12.328962538767904"><ele>41.0</ele><time>2026-04-03T06:44:23.999Z</time></trkpt><trkpt lat="45.83286323816049" lon="12.329106286580242"><ele>41.0</ele><time>2026-04-03T06:44:24.999Z</time></trkpt><trkpt lat="45.832781337574254" lon="12.32924541867876"><ele>41.0</ele><time>2026-04-03T06:44:25.999Z</time></trkpt><trkpt lat="45.83269835494795" lon="12.329375845623089"><ele>41.0</ele><time>2026-04-03T06:44:26.999Z</time></trkpt><trkpt lat="45.83260882380127" lon="12.329492877775918"><ele>41.0</ele><time>2026-04-03T06:44:27.999Z</time></trkpt><trkpt lat="45.832513365858155" lon="12.329602415095739"><ele>41.0</ele><time>2026-04-03T06:44:28.999Z</time></trkpt><trkpt lat="45.832416400077484" lon="12.329697087594335"><ele>41.0</ele><time>2026-04-03T06:44:29.999Z</time></trkpt><trkpt lat="45.83231357500706" lon="12.329781054812374"><ele>40.75</ele><time>2026-04-03T06:44:30.999Z</time></trkpt><trkpt lat="45.83220908796856" lon="12.329860730406672"><ele>40.5</ele><time>2026-04-03T06:44:31.999Z</time></trkpt><trkpt lat="45.83210509367533" lon="12.329939199258966"><ele>40.25</ele><time>2026-04-03T06:44:32.999Z</time></trkpt><trkpt lat="45.83200031816681" lon="12.33001567657198"><ele>40.0</ele><time>2026-04-03T06:44:33.999Z</time></trkpt><trkpt lat="45.831894521997775" lon="12.330092631206485"><ele>40.5</ele><time>2026-04-03T06:44:34.999Z</time></trkpt><trkpt lat="45.831786731596665" lon="12.33017103659387"><ele>41.0</ele><time>2026-04-03T06:44:35.999Z</time></trkpt><trkpt lat="45.83167721313277" lon="12.330250698866553"><ele>41.5</ele><time>2026-04-03T06:44:36.999Z</time></trkpt><trkpt lat="45.83156724418994" lon="12.330330865677777"><ele>42.0</ele><time>2026-04-03T06:44:37.999Z</time></trkpt><trkpt lat="45.831456858111544" lon="12.330411540784649"><ele>42.0</ele><time>2026-04-03T06:44:38.999Z</time></trkpt><trkpt lat="45.831347983505225" lon="12.330491111277786"><ele>42.0</ele><time>2026-04-03T06:44:39.999Z</time></trkpt><trkpt lat="45.83123964355928" lon="12.330570087469045"><ele>42.0</ele><time>2026-04-03T06:44:40.999Z</time></trkpt><trkpt lat="45.83113393376913" lon="12.330647058814522"><ele>42.0</ele><time>2026-04-03T06:44:41.999Z</time></trkpt><trkpt lat="45.83102955278813" lon="12.330720930199217"><ele>42.0</ele><time>2026-04-03T06:44:42.999Z</time></trkpt><trkpt lat="45.83093180412661" lon="12.330789697932255"><ele>42.0</ele><time>2026-04-03T06:44:43.999Z</time></trkpt><trkpt lat="45.83084546629556" lon="12.330852362159577"><ele>42.0</ele><time>2026-04-03T06:44:44.999Z</time></trkpt><trkpt lat="45.8307747423522" lon="12.330903947191386"><ele>42.0</ele><time>2026-04-03T06:44:45.999Z</time></trkpt><trkpt lat="45.83071765232863" lon="12.330945587780874"><ele>42.0</ele><time>2026-04-03T06:44:46.999Z</time></trkpt><trkpt lat="45.8306332520541" lon="12.331007083036525"><ele>42.0</ele><time>2026-04-03T06:44:48.999Z</time></trkpt><trkpt lat="45.83056544082254" lon="12.331056467962046"><ele>42.0</ele><time>2026-04-03T06:45:24.999Z</time></trkpt><trkpt lat="45.830480179991646" lon="12.331118560995007"><ele>42.0</ele><time>2026-04-03T06:45:27.999Z</time></trkpt><trkpt lat="45.83036971228661" lon="12.331199011182868"><ele>42.0</ele><time>2026-04-03T06:45:29.999Z</time></trkpt><trkpt lat="45.83030702012448" lon="12.33124375231519"><ele>42.0</ele><time>2026-04-03T06:45:30.999Z</time></trkpt><trkpt lat="45.83024670238722" lon="12.33128684393544"><ele>42.0</ele><time>2026-04-03T06:45:31.999Z</time></trkpt><trkpt lat="45.83014463309752" lon="12.331359763302311"><ele>42.2</ele><time>2026-04-03T06:45:33.999Z</time></trkpt><trkpt lat="45.83008308213144" lon="12.331404215181319"><ele>42.400000000000006</ele><time>2026-04-03T06:45:35.999Z</time></trkpt><trkpt lat="45.83000496417222" lon="12.331460636489727"><ele>42.599999999999994</ele><time>2026-04-03T06:46:04Z</time></trkpt><trkpt lat="45.82990328057826" lon="12.33153383431249"><ele>42.8</ele><time>2026-04-03T06:46:06Z</time></trkpt><trkpt lat="45.8298214126249" lon="12.331592742952662"><ele>43.0</ele><time>2026-04-03T06:46:07Z</time></trkpt><trkpt lat="45.82970005437747" lon="12.331680067259505"><ele>43.0</ele><time>2026-04-03T06:46:09Z</time></trkpt><trkpt lat="45.82962403059396" lon="12.33173461354934"><ele>43.0</ele><time>2026-04-03T06:46:10Z</time></trkpt><trkpt lat="45.82953701599805" lon="12.331796436585504"><ele>43.0</ele><time>2026-04-03T06:46:10.999Z</time></trkpt><trkpt lat="45.82943646562688" lon="12.331867876443251"><ele>43.0</ele><time>2026-04-03T06:46:11.999Z</time></trkpt><trkpt lat="45.829338188190576" lon="12.331937701515216"><ele>43.0</ele><time>2026-04-03T06:46:12.999Z</time></trkpt><trkpt lat="45.829232485648305" lon="12.332012802113443"><ele>42.75</ele><time>2026-04-03T06:46:13.999Z</time></trkpt><trkpt lat="45.829123724961185" lon="12.332090075406347"><ele>42.5</ele><time>2026-04-03T06:46:14.999Z</time></trkpt><trkpt lat="45.82900863295076" lon="12.33217416293419"><ele>42.25</ele><time>2026-04-03T06:46:15.999Z</time></trkpt><trkpt lat="45.82889056864741" lon="12.332263346570068"><ele>42.0</ele><time>2026-04-03T06:46:16.999Z</time></trkpt><trkpt lat="45.82876976050311" lon="12.332359252426757"><ele>41.666666666666664</ele><time>2026-04-03T06:46:17.999Z</time></trkpt><trkpt lat="45.82864886782442" lon="12.33245532759431"><ele>41.33333333333333</ele><time>2026-04-03T06:46:18.999Z</time></trkpt><trkpt lat="45.828522808846984" lon="12.3325614869854"><ele>41.0</ele><time>2026-04-03T06:46:19.999Z</time></trkpt><trkpt lat="45.8283803976656" lon="12.332687546674917"><ele>41.0</ele><time>2026-04-03T06:46:20.999Z</time></trkpt><trkpt lat="45.828268173451065" lon="12.332789888807175"><ele>41.0</ele><time>2026-04-03T06:46:21.999Z</time></trkpt><trkpt lat="45.828160734703424" lon="12.33291192076438"><ele>41.0</ele><time>2026-04-03T06:46:22.999Z</time></trkpt><trkpt lat="45.82802737993211" lon="12.333011449830268"><ele>41.0</ele><time>2026-04-03T06:46:23.999Z</time></trkpt><trkpt lat="45.82790334268947" lon="12.333125980637199"><ele>40.666666666666664</ele><time>2026-04-03T06:46:24.999Z</time></trkpt><trkpt lat="45.82777439660976" lon="12.333245043867967"><ele>40.333333333333336</ele><time>2026-04-03T06:46:25.999Z</time></trkpt><trkpt lat="45.82764513771255" lon="12.333364396212563"><ele>40.0</ele><time>2026-04-03T06:46:26.999Z</time></trkpt><trkpt lat="45.82751328207069" lon="12.333486039597336"><ele>40.0</ele><time>2026-04-03T06:46:27.999Z</time></trkpt><trkpt lat="45.82737883423507" lon="12.333609300077578"><ele>40.0</ele><time>2026-04-03T06:46:28.999Z</time></trkpt><trkpt lat="45.82724245285082" lon="12.333734333210856"><ele>40.0</ele><time>2026-04-03T06:46:29.999Z</time></trkpt><trkpt lat="45.82710661245711" lon="12.333859099379618"><ele>39.66666666666667</ele><time>2026-04-03T06:46:30.999Z</time></trkpt><trkpt lat="45.82696960983129" lon="12.333986346685021"><ele>39.333333333333336</ele><time>2026-04-03T06:46:31.999Z</time></trkpt><trkpt lat="45.82683067385135" lon="12.33411538981433"><ele>39.0</ele><time>2026-04-03T06:46:32.999Z</time></trkpt><trkpt lat="45.826689113333245" lon="12.334246870364852"><ele>40.0</ele><time>2026-04-03T06:46:33.999Z</time></trkpt><trkpt lat="45.82654948612168" lon="12.334376498766103"><ele>41.0</ele><time>2026-04-03T06:46:34.999Z</time></trkpt><trkpt lat="45.82640912494934" lon="12.33450767566274"><ele>42.0</ele><time>2026-04-03T06:46:35.999Z</time></trkpt><trkpt lat="45.82626956922597" lon="12.334640795673906"><ele>42.666666666666664</ele><time>2026-04-03T06:46:36.999Z</time></trkpt><trkpt lat="45.82613171495853" lon="12.334772292677393"><ele>43.33333333333333</ele><time>2026-04-03T06:46:37.999Z</time></trkpt><trkpt lat="45.82599225989922" lon="12.334905316582349"><ele>44.0</ele><time>2026-04-03T06:46:38.999Z</time></trkpt><trkpt lat="45.82585128621569" lon="12.33503857442531"><ele>44.0</ele><time>2026-04-03T06:46:39.999Z</time></trkpt><trkpt lat="45.82571614586625" lon="12.335193007082182"><ele>44.0</ele><time>2026-04-03T06:46:40.999Z</time></trkpt><trkpt lat="45.82557234236909" lon="12.335329935956072"><ele>44.0</ele><time>2026-04-03T06:46:41.999Z</time></trkpt><trkpt lat="45.82541864027435" lon="12.335446306824558"><ele>44.0</ele><time>2026-04-03T06:46:42.999Z</time></trkpt><trkpt lat="45.825273693351285" lon="12.335582907109789"><ele>44.0</ele><time>2026-04-03T06:46:43.999Z</time></trkpt><trkpt lat="45.82512644342289" lon="12.335721677761585"><ele>44.0</ele><time>2026-04-03T06:46:44.999Z</time></trkpt><trkpt lat="45.82498177960986" lon="12.335858011279768"><ele>42.666666666666664</ele><time>2026-04-03T06:46:45.999Z</time></trkpt><trkpt lat="45.824844323094574" lon="12.33598847071723"><ele>41.333333333333336</ele><time>2026-04-03T06:46:46.999Z</time></trkpt><trkpt lat="45.824713551913504" lon="12.336112599831576"><ele>40.0</ele><time>2026-04-03T06:46:47.999Z</time></trkpt><trkpt lat="45.82459859596628" lon="12.33622171679077"><ele>40.0</ele><time>2026-04-03T06:46:48.999Z</time></trkpt><trkpt lat="45.82449569082378" lon="12.336321556689734"><ele>40.0</ele><time>2026-04-03T06:46:49.999Z</time></trkpt><trkpt lat="45.824419336856955" lon="12.336419271674478"><ele>40.0</ele><time>2026-04-03T06:46:51Z</time></trkpt><trkpt lat="45.824332233750084" lon="12.336486806484768"><ele>40.0</ele><time>2026-04-03T06:46:52Z</time></trkpt><trkpt lat="45.82423675708401" lon="12.336626093924522"><ele>39.6</ele><time>2026-04-03T06:46:53Z</time></trkpt><trkpt lat="45.82417359500219" lon="12.336698821372538"><ele>39.2</ele><time>2026-04-03T06:46:54Z</time></trkpt><trkpt lat="45.824080881899" lon="12.336790162651246"><ele>38.8</ele><time>2026-04-03T06:46:56Z</time></trkpt><trkpt lat="45.823976534184325" lon="12.336820451156646"><ele>38.4</ele><time>2026-04-03T06:46:58Z</time></trkpt><trkpt lat="45.82388361385098" lon="12.336906414753647"><ele>38.0</ele><time>2026-04-03T06:47:00Z</time></trkpt><trkpt lat="45.82385598705831" lon="12.336991921342161"><ele>38.0</ele><time>2026-04-03T06:47:01Z</time></trkpt><trkpt lat="45.823753648154266" lon="12.337070634918845"><ele>38.0</ele><time>2026-04-03T06:47:03Z</time></trkpt><trkpt lat="45.82368915599325" lon="12.33711385647911"><ele>38.0</ele><time>2026-04-03T06:47:04Z</time></trkpt><trkpt lat="45.82362057570249" lon="12.337164328835367"><ele>38.0</ele><time>2026-04-03T06:47:05Z</time></trkpt><trkpt lat="45.8235390883867" lon="12.337231636395105"><ele>38.0</ele><time>2026-04-03T06:47:06Z</time></trkpt><trkpt lat="45.82345554731169" lon="12.33730535291552"><ele>38.199999999999996</ele><time>2026-04-03T06:47:07Z</time></trkpt><trkpt lat="45.823372060320246" lon="12.337382364969875"><ele>38.4</ele><time>2026-04-03T06:47:08Z</time></trkpt><trkpt lat="45.82328639489985" lon="12.337463549200345"><ele>38.599999999999994</ele><time>2026-04-03T06:47:09Z</time></trkpt><trkpt lat="45.82318916898968" lon="12.337555689382192"><ele>38.8</ele><time>2026-04-03T06:47:10Z</time></trkpt><trkpt lat="45.82309257699433" lon="12.33764609566628"><ele>39.0</ele><time>2026-04-03T06:47:11Z</time></trkpt><trkpt lat="45.82298577994016" lon="12.337743464612595"><ele>39.0</ele><time>2026-04-03T06:47:12Z</time></trkpt><trkpt lat="45.82287729943209" lon="12.337834947408068"><ele>39.0</ele><time>2026-04-03T06:47:13Z</time></trkpt><trkpt lat="45.82276225465509" lon="12.337924927332748"><ele>39.0</ele><time>2026-04-03T06:47:14Z</time></trkpt><trkpt lat="45.82264618686957" lon="12.338002287835513"><ele>39.0</ele><time>2026-04-03T06:47:15Z</time></trkpt><trkpt lat="45.822521531873406" lon="12.338067126803216"><ele>39.0</ele><time>2026-04-03T06:47:16Z</time></trkpt><trkpt lat="45.8223883697335" lon="12.338117098047325"><ele>39.0</ele><time>2026-04-03T06:47:17Z</time></trkpt><trkpt lat="45.8222530938311" lon="12.338151702444003"><ele>39.0</ele><time>2026-04-03T06:47:18Z</time></trkpt><trkpt lat="45.822114904973674" lon="12.338176188247354"><ele>39.0</ele><time>2026-04-03T06:47:19Z</time></trkpt><trkpt lat="45.821975743039495" lon="12.338199909607566"><ele>39.0</ele><time>2026-04-03T06:47:20Z</time></trkpt><trkpt lat="45.821834081162216" lon="12.338224725129965"><ele>39.0</ele><time>2026-04-03T06:47:21Z</time></trkpt><trkpt lat="45.82169661004671" lon="12.338248926340263"><ele>39.0</ele><time>2026-04-03T06:47:22Z</time></trkpt><trkpt lat="45.82154540286608" lon="12.338275545774119"><ele>39.0</ele><time>2026-04-03T06:47:23Z</time></trkpt><trkpt lat="45.82140539161244" lon="12.338300194154145"><ele>39.25</ele><time>2026-04-03T06:47:24Z</time></trkpt><trkpt lat="45.82126630362596" lon="12.338320821705208"><ele>39.5</ele><time>2026-04-03T06:47:25Z</time></trkpt><trkpt lat="45.82112828974006" lon="12.33834590508366"><ele>39.75</ele><time>2026-04-03T06:47:26Z</time></trkpt><trkpt lat="45.8209872427282" lon="12.338334683900298"><ele>40.0</ele><time>2026-04-03T06:47:27Z</time></trkpt><trkpt lat="45.820843882595334" lon="12.338314541660342"><ele>40.0</ele><time>2026-04-03T06:47:28Z</time></trkpt><trkpt lat="45.820707784886764" lon="12.338257462411473"><ele>40.0</ele><time>2026-04-03T06:47:29Z</time></trkpt><trkpt lat="45.820567231968155" lon="12.338233532080606"><ele>40.0</ele><time>2026-04-03T06:47:30Z</time></trkpt><trkpt lat="45.82043201164629" lon="12.338176851894676"><ele>40.0</ele><time>2026-04-03T06:47:31Z</time></trkpt><trkpt lat="45.82030128081297" lon="12.338107480127013"><ele>40.0</ele><time>2026-04-03T06:47:32Z</time></trkpt><trkpt lat="45.82017207809248" lon="12.338019600919328"><ele>40.0</ele><time>2026-04-03T06:47:33Z</time></trkpt><trkpt lat="45.82005066994066" lon="12.337916781204305"><ele>40.0</ele><time>2026-04-03T06:47:34Z</time></trkpt><trkpt lat="45.81993259418185" lon="12.337800511057539"><ele>40.0</ele><time>2026-04-03T06:47:35Z</time></trkpt><trkpt lat="45.81981735372466" lon="12.33767689726784"><ele>39.75</ele><time>2026-04-03T06:47:36Z</time></trkpt><trkpt lat="45.819705849348196" lon="12.337546722994576"><ele>39.5</ele><time>2026-04-03T06:47:37Z</time></trkpt><trkpt lat="45.81959636107154" lon="12.33740988978508"><ele>39.25</ele><time>2026-04-03T06:47:38Z</time></trkpt><trkpt lat="45.81948831456749" lon="12.337268147286569"><ele>39.0</ele><time>2026-04-03T06:47:39Z</time></trkpt><trkpt lat="45.819385483477504" lon="12.337119167573656"><ele>39.0</ele><time>2026-04-03T06:47:40Z</time></trkpt><trkpt lat="45.81928191344077" lon="12.336970593010284"><ele>39.0</ele><time>2026-04-03T06:47:41Z</time></trkpt><trkpt lat="45.81917437474087" lon="12.3368228174939"><ele>39.0</ele><time>2026-04-03T06:47:42Z</time></trkpt><trkpt lat="45.81906300045538" lon="12.33667744028734"><ele>39.0</ele><time>2026-04-03T06:47:43Z</time></trkpt><trkpt lat="45.81894943163014" lon="12.33653399011135"><ele>39.0</ele><time>2026-04-03T06:47:44Z</time></trkpt><trkpt lat="45.81882713406055" lon="12.33639711053079"><ele>39.0</ele><time>2026-04-03T06:47:45Z</time></trkpt><trkpt lat="45.81870172442938" lon="12.336265916218832"><ele>39.0</ele><time>2026-04-03T06:47:46Z</time></trkpt><trkpt lat="45.81857035595639" lon="12.336146725268241"><ele>38.666666666666664</ele><time>2026-04-03T06:47:47Z</time></trkpt><trkpt lat="45.81843558465762" lon="12.336032568330719"><ele>38.33333333333333</ele><time>2026-04-03T06:47:48Z</time></trkpt><trkpt lat="45.818298971024376" lon="12.335932789659344"><ele>38.0</ele><time>2026-04-03T06:47:48.999Z</time></trkpt><trkpt lat="45.81815711080054" lon="12.335853312082175"><ele>38.0</ele><time>2026-04-03T06:47:49.999Z</time></trkpt><trkpt lat="45.81801191715978" lon="12.335796320460439"><ele>38.0</ele><time>2026-04-03T06:47:50.999Z</time></trkpt><trkpt lat="45.81786794165363" lon="12.335754727215264"><ele>38.0</ele><time>2026-04-03T06:47:51.999Z</time></trkpt><trkpt lat="45.81772279802729" lon="12.335703420859472"><ele>38.0</ele><time>2026-04-03T06:47:52.999Z</time></trkpt><trkpt lat="45.817576682205825" lon="12.335682455201876"><ele>38.25</ele><time>2026-04-03T06:47:53.999Z</time></trkpt><trkpt lat="45.8174341517886" lon="12.335670933555749"><ele>38.5</ele><time>2026-04-03T06:47:54.999Z</time></trkpt><trkpt lat="45.81729506495701" lon="12.33566011952448"><ele>38.75</ele><time>2026-04-03T06:47:55.999Z</time></trkpt><trkpt lat="45.817165170995544" lon="12.335650020248993"><ele>39.0</ele><time>2026-04-03T06:47:56.999Z</time></trkpt><trkpt lat="45.817049981827246" lon="12.33566344757757"><ele>39.0</ele><time>2026-04-03T06:47:58.001Z</time></trkpt><trkpt lat="45.8169501544291" lon="12.335622724143292"><ele>39.0</ele><time>2026-04-03T06:47:59.001Z</time></trkpt><trkpt lat="45.816862366721764" lon="12.335563284876049"><ele>39.0</ele><time>2026-04-03T06:48:00.001Z</time></trkpt><trkpt lat="45.81678523063369" lon="12.335483678317663"><ele>39.0</ele><time>2026-04-03T06:48:01.001Z</time></trkpt><trkpt lat="45.81672587135489" lon="12.335399238899782"><ele>39.0</ele><time>2026-04-03T06:48:02.001Z</time></trkpt><trkpt lat="45.816682414093506" lon="12.335311681701443"><ele>39.0</ele><time>2026-04-03T06:48:03.001Z</time></trkpt><trkpt lat="45.81663567802387" lon="12.33521603955668"><ele>39.0</ele><time>2026-04-03T06:48:04.001Z</time></trkpt><trkpt lat="45.81659304562332" lon="12.335108534784421"><ele>39.0</ele><time>2026-04-03T06:48:05.001Z</time></trkpt><trkpt lat="45.816553489429744" lon="12.334985172573527"><ele>39.0</ele><time>2026-04-03T06:48:06.001Z</time></trkpt><trkpt lat="45.81651630744236" lon="12.33484949052908"><ele>39.0</ele><time>2026-04-03T06:48:07.001Z</time></trkpt><trkpt lat="45.816485003747616" lon="12.33469936925996"><ele>39.0</ele><time>2026-04-03T06:48:08.001Z</time></trkpt><trkpt lat="45.81646362359891" lon="12.334536917561117"><ele>39.0</ele><time>2026-04-03T06:48:09.001Z</time></trkpt><trkpt lat="45.81645409811836" lon="12.334372145931688"><ele>39.0</ele><time>2026-04-03T06:48:10.001Z</time></trkpt><trkpt lat="45.81645600499636" lon="12.33421248433352"><ele>39.0</ele><time>2026-04-03T06:48:11.001Z</time></trkpt><trkpt lat="45.816465508692936" lon="12.334055777443576"><ele>39.0</ele><time>2026-04-03T06:48:12.001Z</time></trkpt><trkpt lat="45.816485925581986" lon="12.33390104128603"><ele>39.0</ele><time>2026-04-03T06:48:13.001Z</time></trkpt><trkpt lat="45.81650111062454" lon="12.333745874183949"><ele>39.0</ele><time>2026-04-03T06:48:14Z</time></trkpt><trkpt lat="45.816519986937664" lon="12.333588314828868"><ele>39.0</ele><time>2026-04-03T06:48:15Z</time></trkpt><trkpt lat="45.816538415094456" lon="12.333428119556118"><ele>39.0</ele><time>2026-04-03T06:48:16Z</time></trkpt><trkpt lat="45.81655635975007" lon="12.333271766162696"><ele>39.25</ele><time>2026-04-03T06:48:17Z</time></trkpt><trkpt lat="45.81657415223687" lon="12.333117551953203"><ele>39.5</ele><time>2026-04-03T06:48:18Z</time></trkpt><trkpt lat="45.816591332004805" lon="12.33295586595963"><ele>39.75</ele><time>2026-04-03T06:48:19Z</time></trkpt><trkpt lat="45.816609072063606" lon="12.33279325046216"><ele>40.0</ele><time>2026-04-03T06:48:20Z</time></trkpt><trkpt lat="45.816628525425" lon="12.33261942692177"><ele>40.0</ele><time>2026-04-03T06:48:21Z</time></trkpt><trkpt lat="45.81664994610298" lon="12.332441301095862"><ele>40.0</ele><time>2026-04-03T06:48:22Z</time></trkpt><trkpt lat="45.81667008792367" lon="12.332254829586661"><ele>40.0</ele><time>2026-04-03T06:48:23Z</time></trkpt><trkpt lat="45.81669091575612" lon="12.332065428742066"><ele>40.0</ele><time>2026-04-03T06:48:24Z</time></trkpt><trkpt lat="45.81671217627868" lon="12.331873186755722"><ele>40.0</ele><time>2026-04-03T06:48:25Z</time></trkpt><trkpt lat="45.81673520792333" lon="12.3316749915652"><ele>40.0</ele><time>2026-04-03T06:48:26Z</time></trkpt><trkpt lat="45.816758344114575" lon="12.331471434471009"><ele>40.0</ele><time>2026-04-03T06:48:27Z</time></trkpt><trkpt lat="45.816782678332586" lon="12.331260121724315"><ele>40.0</ele><time>2026-04-03T06:48:28Z</time></trkpt><trkpt lat="45.81680526664601" lon="12.331045733587713"><ele>40.66666666666667</ele><time>2026-04-03T06:48:29Z</time></trkpt><trkpt lat="45.81683023771864" lon="12.330831006373861"><ele>41.333333333333336</ele><time>2026-04-03T06:48:30Z</time></trkpt><trkpt lat="45.81685420148822" lon="12.330612801991593"><ele>42.0</ele><time>2026-04-03T06:48:31Z</time></trkpt><trkpt lat="45.816878956783405" lon="12.330392384605497"><ele>41.333333333333336</ele><time>2026-04-03T06:48:32Z</time></trkpt><trkpt lat="45.81690328890188" lon="12.330169330864218"><ele>40.66666666666667</ele><time>2026-04-03T06:48:33Z</time></trkpt><trkpt lat="45.8169279680278" lon="12.329944263777067"><ele>40.0</ele><time>2026-04-03T06:48:34Z</time></trkpt><trkpt lat="45.816954381098085" lon="12.329720623617442"><ele>40.0</ele><time>2026-04-03T06:48:35Z</time></trkpt><trkpt lat="45.81697939471401" lon="12.329494787570706"><ele>40.0</ele><time>2026-04-03T06:48:36Z</time></trkpt><trkpt lat="45.81700337791936" lon="12.329269813507661"><ele>40.0</ele><time>2026-04-03T06:48:37Z</time></trkpt><trkpt lat="45.81702821729884" lon="12.329044719908461"><ele>41.0</ele><time>2026-04-03T06:48:38Z</time></trkpt><trkpt lat="45.81705423026219" lon="12.32882063473648"><ele>42.0</ele><time>2026-04-03T06:48:39Z</time></trkpt><trkpt lat="45.817079261935255" lon="12.328595691739602"><ele>43.0</ele><time>2026-04-03T06:48:40Z</time></trkpt><trkpt lat="45.817102874327425" lon="12.328372313627405"><ele>43.0</ele><time>2026-04-03T06:48:41Z</time></trkpt><trkpt lat="45.81712856180228" lon="12.328148799267735"><ele>43.0</ele><time>2026-04-03T06:48:42Z</time></trkpt><trkpt lat="45.81715361555872" lon="12.327926787093585"><ele>43.0</ele><time>2026-04-03T06:48:43Z</time></trkpt><trkpt lat="45.81717834619545" lon="12.327703845265885"><ele>42.66666666666667</ele><time>2026-04-03T06:48:44Z</time></trkpt><trkpt lat="45.81720293394249" lon="12.327480788257816"><ele>42.333333333333336</ele><time>2026-04-03T06:48:45Z</time></trkpt><trkpt lat="45.81722794974009" lon="12.327260371083133"><ele>42.0</ele><time>2026-04-03T06:48:46Z</time></trkpt><trkpt lat="45.81725163183464" lon="12.327040125504132"><ele>42.0</ele><time>2026-04-03T06:48:47Z</time></trkpt><trkpt lat="45.81727585192047" lon="12.326815247237352"><ele>42.0</ele><time>2026-04-03T06:48:48Z</time></trkpt><trkpt lat="45.81729958934433" lon="12.326591039225892"><ele>42.0</ele><time>2026-04-03T06:48:49Z</time></trkpt><trkpt lat="45.817324711624124" lon="12.32636602284163"><ele>42.0</ele><time>2026-04-03T06:48:50Z</time></trkpt><trkpt lat="45.81734792967121" lon="12.326135382995723"><ele>42.0</ele><time>2026-04-03T06:48:51Z</time></trkpt><trkpt lat="45.817373395594664" lon="12.325905241663419"><ele>42.0</ele><time>2026-04-03T06:48:52Z</time></trkpt><trkpt lat="45.817399354897745" lon="12.325671604869315"><ele>42.0</ele><time>2026-04-03T06:48:53Z</time></trkpt><trkpt lat="45.817425435199965" lon="12.32543769567776"><ele>42.0</ele><time>2026-04-03T06:48:54Z</time></trkpt><trkpt lat="45.81745174161974" lon="12.325202110250265"><ele>42.0</ele><time>2026-04-03T06:48:55Z</time></trkpt><trkpt lat="45.81748033388536" lon="12.324967786598696"><ele>42.0</ele><time>2026-04-03T06:48:56Z</time></trkpt><trkpt lat="45.81750370096333" lon="12.324734263093088"><ele>42.0</ele><time>2026-04-03T06:48:57Z</time></trkpt><trkpt lat="45.81753104874903" lon="12.324501602138813"><ele>42.0</ele><time>2026-04-03T06:48:58Z</time></trkpt><trkpt lat="45.81755632456133" lon="12.324269264891521"><ele>42.0</ele><time>2026-04-03T06:48:59Z</time></trkpt><trkpt lat="45.81758404754777" lon="12.324037534668085"><ele>42.0</ele><time>2026-04-03T06:49:00Z</time></trkpt><trkpt lat="45.81760952960578" lon="12.323803641839207"><ele>42.0</ele><time>2026-04-03T06:49:01Z</time></trkpt><trkpt lat="45.81763571848307" lon="12.323575664411505"><ele>41.666666666666664</ele><time>2026-04-03T06:49:02Z</time></trkpt><trkpt lat="45.817659694475935" lon="12.323340631331847"><ele>41.33333333333333</ele><time>2026-04-03T06:49:03Z</time></trkpt><trkpt lat="45.817686528305096" lon="12.323110425630967"><ele>41.0</ele><time>2026-04-03T06:49:04Z</time></trkpt><trkpt lat="45.81771321543792" lon="12.322877611459257"><ele>41.666666666666664</ele><time>2026-04-03T06:49:05Z</time></trkpt><trkpt lat="45.81773942419429" lon="12.322643918826524"><ele>42.333333333333336</ele><time>2026-04-03T06:49:06Z</time></trkpt><trkpt lat="45.81776579737279" lon="12.322409255055309"><ele>43.0</ele><time>2026-04-03T06:49:07Z</time></trkpt><trkpt lat="45.81779156079287" lon="12.32217723437001"><ele>43.66666666666667</ele><time>2026-04-03T06:49:08Z</time></trkpt><trkpt lat="45.81781719342206" lon="12.321942887598706"><ele>44.333333333333336</ele><time>2026-04-03T06:49:09Z</time></trkpt><trkpt lat="45.817843673322" lon="12.321711349908536"><ele>45.0</ele><time>2026-04-03T06:49:10Z</time></trkpt><trkpt lat="45.81787098727946" lon="12.321480172999664"><ele>45.333333333333336</ele><time>2026-04-03T06:49:11Z</time></trkpt><trkpt lat="45.817896371685464" lon="12.321248313393145"><ele>45.66666666666667</ele><time>2026-04-03T06:49:12Z</time></trkpt><trkpt lat="45.81792084522551" lon="12.321016903183239"><ele>46.0</ele><time>2026-04-03T06:49:13Z</time></trkpt><trkpt lat="45.8179480936322" lon="12.320785261281033"><ele>45.333333333333336</ele><time>2026-04-03T06:49:14Z</time></trkpt><trkpt lat="45.817973061012395" lon="12.320557587969114"><ele>44.666666666666664</ele><time>2026-04-03T06:49:15Z</time></trkpt><trkpt lat="45.81799790807646" lon="12.320331932418922"><ele>44.0</ele><time>2026-04-03T06:49:16Z</time></trkpt><trkpt lat="45.818022869166" lon="12.320109942881203"><ele>44.0</ele><time>2026-04-03T06:49:17Z</time></trkpt><trkpt lat="45.81804468131901" lon="12.319892121128095"><ele>44.0</ele><time>2026-04-03T06:49:18Z</time></trkpt><trkpt lat="45.81806841221912" lon="12.319689485911427"><ele>44.0</ele><time>2026-04-03T06:49:19Z</time></trkpt><trkpt lat="45.818088724249726" lon="12.319506772744692"><ele>44.0</ele><time>2026-04-03T06:49:20Z</time></trkpt><trkpt lat="45.818105923808524" lon="12.319351486463965"><ele>44.33333333333333</ele><time>2026-04-03T06:49:21Z</time></trkpt><trkpt lat="45.818120034687716" lon="12.319227372372472"><ele>44.666666666666664</ele><time>2026-04-03T06:49:22Z</time></trkpt><trkpt lat="45.81813837675984" lon="12.319094134942478"><ele>45.0</ele><time>2026-04-03T06:49:24Z</time></trkpt><trkpt lat="45.81815364777365" lon="12.318984080336943"><ele>45.333333333333336</ele><time>2026-04-03T06:49:36Z</time></trkpt><trkpt lat="45.81816536056768" lon="12.318865627143843"><ele>45.66666666666667</ele><time>2026-04-03T06:49:52.999Z</time></trkpt><trkpt lat="45.81817696605536" lon="12.31871929621217"><ele>46.0</ele><time>2026-04-03T06:49:54.999Z</time></trkpt><trkpt lat="45.8181872078887" lon="12.318626286693172"><ele>45.833333333333336</ele><time>2026-04-03T06:49:55.999Z</time></trkpt><trkpt lat="45.818200028220765" lon="12.318522559074164"><ele>45.66666666666667</ele><time>2026-04-03T06:49:56.999Z</time></trkpt><trkpt lat="45.81821303490128" lon="12.31840856209083"><ele>45.5</ele><time>2026-04-03T06:49:57.999Z</time></trkpt><trkpt lat="45.818227630529385" lon="12.318284593568235"><ele>45.333333333333336</ele><time>2026-04-03T06:49:58.999Z</time></trkpt><trkpt lat="45.81824136346639" lon="12.318155639152245"><ele>45.166666666666664</ele><time>2026-04-03T06:49:59.999Z</time></trkpt><trkpt lat="45.81825698270227" lon="12.318023996546788"><ele>45.0</ele><time>2026-04-03T06:50:00.999Z</time></trkpt><trkpt lat="45.81827244759008" lon="12.317890002460125"><ele>45.0</ele><time>2026-04-03T06:50:01.999Z</time></trkpt><trkpt lat="45.818285721217684" lon="12.317753054260931"><ele>45.0</ele><time>2026-04-03T06:50:02.999Z</time></trkpt><trkpt lat="45.81829853096489" lon="12.317613625651779"><ele>45.0</ele><time>2026-04-03T06:50:04Z</time></trkpt><trkpt lat="45.818314088236676" lon="12.317472622345107"><ele>45.0</ele><time>2026-04-03T06:50:05Z</time></trkpt><trkpt lat="45.81833336054825" lon="12.31733239047568"><ele>45.0</ele><time>2026-04-03T06:50:06Z</time></trkpt><trkpt lat="45.818351874657054" lon="12.317189751491602"><ele>45.0</ele><time>2026-04-03T06:50:07Z</time></trkpt><trkpt lat="45.81837066494211" lon="12.317043195143611"><ele>45.0</ele><time>2026-04-03T06:50:08Z</time></trkpt><trkpt lat="45.818389813831715" lon="12.316896379851894"><ele>45.0</ele><time>2026-04-03T06:50:09Z</time></trkpt><trkpt lat="45.81840840191681" lon="12.316754122016956"><ele>45.0</ele><time>2026-04-03T06:50:10Z</time></trkpt><trkpt lat="45.81842602872046" lon="12.316617900478539"><ele>45.0</ele><time>2026-04-03T06:50:11Z</time></trkpt><trkpt lat="45.81844090588216" lon="12.316494918174469"><ele>45.0</ele><time>2026-04-03T06:50:12Z</time></trkpt><trkpt lat="45.81845399074928" lon="12.316390538978498"><ele>45.0</ele><time>2026-04-03T06:50:13Z</time></trkpt><trkpt lat="45.81847223680777" lon="12.316242798321234"><ele>45.0</ele><time>2026-04-03T06:50:15Z</time></trkpt><trkpt lat="45.81848548725023" lon="12.316132314318882"><ele>45.0</ele><time>2026-04-03T06:50:18Z</time></trkpt><trkpt lat="45.81849955623426" lon="12.315994295448958"><ele>45.0</ele><time>2026-04-03T06:51:09Z</time></trkpt><trkpt lat="45.81851509080747" lon="12.315885629206358"><ele>45.0</ele><time>2026-04-03T06:51:11Z</time></trkpt><trkpt lat="45.81852550969674" lon="12.315795225858537"><ele>45.0</ele><time>2026-04-03T06:51:13Z</time></trkpt><trkpt lat="45.81853167966955" lon="12.31568851292636"><ele>45.0</ele><time>2026-04-03T06:51:31Z</time></trkpt><trkpt lat="45.81854662403806" lon="12.31553338613016"><ele>45.0</ele><time>2026-04-03T06:51:33Z</time></trkpt><trkpt lat="45.81855542448256" lon="12.31543708910151"><ele>45.0</ele><time>2026-04-03T06:51:34Z</time></trkpt><trkpt lat="45.81856697378331" lon="12.315330557532711"><ele>45.0</ele><time>2026-04-03T06:51:35Z</time></trkpt><trkpt lat="45.818581868330675" lon="12.315216594614343"><ele>45.0</ele><time>2026-04-03T06:51:36Z</time></trkpt><trkpt lat="45.81859635452068" lon="12.3150936710421"><ele>45.0</ele><time>2026-04-03T06:51:37Z</time></trkpt><trkpt lat="45.818610488326605" lon="12.314963335089145"><ele>45.0</ele><time>2026-04-03T06:51:38Z</time></trkpt><trkpt lat="45.8186246329554" lon="12.31482759332438"><ele>45.0</ele><time>2026-04-03T06:51:39Z</time></trkpt><trkpt lat="45.818637543103335" lon="12.31468682174083"><ele>45.0</ele><time>2026-04-03T06:51:40Z</time></trkpt><trkpt lat="45.81865334663706" lon="12.314545709445108"><ele>45.0</ele><time>2026-04-03T06:51:41Z</time></trkpt><trkpt lat="45.81866924094639" lon="12.314402604003297"><ele>45.0</ele><time>2026-04-03T06:51:42Z</time></trkpt><trkpt lat="45.818685464386654" lon="12.314257255247025"><ele>45.0</ele><time>2026-04-03T06:51:43Z</time></trkpt><trkpt lat="45.81870303304926" lon="12.314111190199023"><ele>45.0</ele><time>2026-04-03T06:51:44Z</time></trkpt><trkpt lat="45.81872088424109" lon="12.313964722879609"><ele>45.0</ele><time>2026-04-03T06:51:45Z</time></trkpt><trkpt lat="45.81873809960056" lon="12.313818475376053"><ele>45.0</ele><time>2026-04-03T06:51:46Z</time></trkpt><trkpt lat="45.81875506336382" lon="12.313675851249968"><ele>45.333333333333336</ele><time>2026-04-03T06:51:47Z</time></trkpt><trkpt lat="45.81877100209543" lon="12.313540398996604"><ele>45.666666666666664</ele><time>2026-04-03T06:51:48Z</time></trkpt><trkpt lat="45.81878657574771" lon="12.313413439900659"><ele>46.0</ele><time>2026-04-03T06:51:48.999Z</time></trkpt><trkpt lat="45.818798713700346" lon="12.313299774335237"><ele>46.33333333333333</ele><time>2026-04-03T06:51:49.999Z</time></trkpt><trkpt lat="45.818806354896154" lon="12.313202896554637"><ele>46.666666666666664</ele><time>2026-04-03T06:51:50.999Z</time></trkpt><trkpt lat="45.81882331476899" lon="12.313072827355606"><ele>47.0</ele><time>2026-04-03T06:51:52.999Z</time></trkpt><trkpt lat="45.81882869677147" lon="12.312976487443837"><ele>47.2</ele><time>2026-04-03T06:52:12Z</time></trkpt><trkpt lat="45.818838973395415" lon="12.312872422031953"><ele>47.400000000000006</ele><time>2026-04-03T06:52:16Z</time></trkpt><trkpt lat="45.81885290122159" lon="12.312742336479511"><ele>47.599999999999994</ele><time>2026-04-03T06:52:18Z</time></trkpt><trkpt lat="45.81887423895025" lon="12.312576621600435"><ele>47.8</ele><time>2026-04-03T06:52:20Z</time></trkpt><trkpt lat="45.81889225561135" lon="12.312409576904056"><ele>48.0</ele><time>2026-04-03T06:52:22Z</time></trkpt><trkpt lat="45.818911014334894" lon="12.31224532495116"><ele>48.0</ele><time>2026-04-03T06:52:24Z</time></trkpt><trkpt lat="45.81893066584029" lon="12.312098209297403"><ele>48.0</ele><time>2026-04-03T06:52:26Z</time></trkpt><trkpt lat="45.81894529198181" lon="12.311975353772599"><ele>48.0</ele><time>2026-04-03T06:52:28Z</time></trkpt><trkpt lat="45.81893646220795" lon="12.31186063735668"><ele>48.0</ele><time>2026-04-03T06:53:24Z</time></trkpt><trkpt lat="45.8189490172728" lon="12.311748330519963"><ele>48.0</ele><time>2026-04-03T06:53:26Z</time></trkpt><trkpt lat="45.81896726898159" lon="12.311583282594558"><ele>48.0</ele><time>2026-04-03T06:53:28Z</time></trkpt><trkpt lat="45.81898532176058" lon="12.311411075461557"><ele>48.0</ele><time>2026-04-03T06:53:30Z</time></trkpt><trkpt lat="45.81900864653136" lon="12.311241204051349"><ele>48.0</ele><time>2026-04-03T06:53:32Z</time></trkpt><trkpt lat="45.819031104592575" lon="12.311096628826945"><ele>48.0</ele><time>2026-04-03T06:53:34Z</time></trkpt><trkpt lat="45.819043219670974" lon="12.311001793963783"><ele>48.0</ele><time>2026-04-03T06:53:37Z</time></trkpt><trkpt lat="45.81904746647804" lon="12.31086995774189"><ele>48.2</ele><time>2026-04-03T06:54:56Z</time></trkpt><trkpt lat="45.819066860103725" lon="12.310721378539956"><ele>48.4</ele><time>2026-04-03T06:54:58Z</time></trkpt><trkpt lat="45.819080211679555" lon="12.310589438140894"><ele>48.6</ele><time>2026-04-03T06:55:00Z</time></trkpt><trkpt lat="45.81910729958123" lon="12.310503982719338"><ele>48.800000000000004</ele><time>2026-04-03T06:56:23Z</time></trkpt><trkpt lat="45.81912081205423" lon="12.31038970359497"><ele>49.0</ele><time>2026-04-03T06:56:25Z</time></trkpt><trkpt lat="45.81914243260262" lon="12.310209572399629"><ele>48.99999999999999</ele><time>2026-04-03T06:56:27Z</time></trkpt><trkpt lat="45.819155819903195" lon="12.310103686387576"><ele>49.0</ele><time>2026-04-03T06:56:28Z</time></trkpt><trkpt lat="45.819165986509425" lon="12.310009649875433"><ele>49.0</ele><time>2026-04-03T06:56:29Z</time></trkpt><trkpt lat="45.81918481587065" lon="12.309851462679614"><ele>49.0</ele><time>2026-04-03T06:56:31Z</time></trkpt><trkpt lat="45.81919513971745" lon="12.309760708213586"><ele>48.99999999999999</ele><time>2026-04-03T06:56:33Z</time></trkpt><trkpt lat="45.81916750986192" lon="12.309656936439994"><ele>49.0</ele><time>2026-04-03T06:57:40Z</time></trkpt><trkpt lat="45.819182316615525" lon="12.309533551388206"><ele>49.2</ele><time>2026-04-03T06:57:42Z</time></trkpt><trkpt lat="45.819213688951145" lon="12.309412069433643"><ele>49.400000000000006</ele><time>2026-04-03T06:57:44Z</time></trkpt><trkpt lat="45.819248099296864" lon="12.309268213019326"><ele>49.6</ele><time>2026-04-03T06:57:46Z</time></trkpt><trkpt lat="45.81923948999863" lon="12.309113689548552"><ele>49.8</ele><time>2026-04-03T06:57:47.999Z</time></trkpt><trkpt lat="45.81925197705345" lon="12.308949878258492"><ele>50.0</ele><time>2026-04-03T06:57:49.999Z</time></trkpt><trkpt lat="45.81926531047939" lon="12.308858561854958"><ele>50.00000000000001</ele><time>2026-04-03T06:57:50.999Z</time></trkpt><trkpt lat="45.81927645353091" lon="12.308767944170272"><ele>50.0</ele><time>2026-04-03T06:57:51.999Z</time></trkpt><trkpt lat="45.819310512227275" lon="12.308611819101447"><ele>50.0</ele><time>2026-04-03T06:57:53.999Z</time></trkpt><trkpt lat="45.81932313916687" lon="12.308499476030264"><ele>50.0</ele><time>2026-04-03T06:57:55.999Z</time></trkpt><trkpt lat="45.819401018073286" lon="12.308412120136449"><ele>50.00000000000001</ele><time>2026-04-03T06:58:08.999Z</time></trkpt><trkpt lat="45.819402427758625" lon="12.30830837696752"><ele>50.0</ele><time>2026-04-03T06:58:11.999Z</time></trkpt><trkpt lat="45.81944581915433" lon="12.308387676740105"><ele>50.00000000000001</ele><time>2026-04-03T06:59:36Z</time></trkpt><trkpt lat="45.819438419882054" lon="12.308491905433135"><ele>50.0</ele><time>2026-04-03T06:59:44Z</time></trkpt><trkpt lat="45.81938466527702" lon="12.308443500232569"><ele>50.0</ele><time>2026-04-03T06:59:54.999Z</time></trkpt><trkpt lat="45.81931921692829" lon="12.308429791775655"><ele>50.0</ele><time>2026-04-03T07:00:08.999Z</time></trkpt><trkpt lat="45.81929447344631" lon="12.308330394736952"><ele>50.00000000000001</ele><time>2026-04-03T07:00:12.999Z</time></trkpt><trkpt lat="45.81933692079451" lon="12.30821169745289"><ele>50.0</ele><time>2026-04-03T07:00:15.999Z</time></trkpt><trkpt lat="45.819361746576135" lon="12.308096726946"><ele>49.66666666666667</ele><time>2026-04-03T07:00:17.999Z</time></trkpt><trkpt lat="45.81937535132772" lon="12.307969849061237"><ele>49.333333333333336</ele><time>2026-04-03T07:00:19.999Z</time></trkpt><trkpt lat="45.81939127888347" lon="12.30787419229397"><ele>49.0</ele><time>2026-04-03T07:00:21.999Z</time></trkpt><trkpt lat="45.819402072813205" lon="12.307767506214295"><ele>48.66666666666667</ele><time>2026-04-03T07:00:47Z</time></trkpt><trkpt lat="45.819418552041334" lon="12.307650768381741"><ele>48.333333333333336</ele><time>2026-04-03T07:00:49Z</time></trkpt><trkpt lat="45.81943947007647" lon="12.30748573076869"><ele>48.0</ele><time>2026-04-03T07:00:51Z</time></trkpt><trkpt lat="45.81945291869109" lon="12.307369565368543"><ele>48.0</ele><time>2026-04-03T07:00:53Z</time></trkpt><trkpt lat="45.81946356584591" lon="12.307249979114923"><ele>48.0</ele><time>2026-04-03T07:01:47.999Z</time></trkpt><trkpt lat="45.81947578723033" lon="12.3071578451147"><ele>48.0</ele><time>2026-04-03T07:01:49.999Z</time></trkpt><trkpt lat="45.81949172922941" lon="12.307046874857848"><ele>48.0</ele><time>2026-04-03T07:02:05.999Z</time></trkpt><trkpt lat="45.819505716470616" lon="12.306939345079904"><ele>48.0</ele><time>2026-04-03T07:02:07.999Z</time></trkpt><trkpt lat="45.81951886205096" lon="12.306824527930305"><ele>48.0</ele><time>2026-04-03T07:02:09.999Z</time></trkpt><trkpt lat="45.81953122443942" lon="12.306730342932005"><ele>48.166666666666664</ele><time>2026-04-03T07:02:12.999Z</time></trkpt><trkpt lat="45.81955989038631" lon="12.306612934259466"><ele>48.33333333333333</ele><time>2026-04-03T07:03:42Z</time></trkpt><trkpt lat="45.8195718499774" lon="12.306472899063838"><ele>48.5</ele><time>2026-04-03T07:03:44Z</time></trkpt><trkpt lat="45.81959019769809" lon="12.306297240235468"><ele>48.666666666666664</ele><time>2026-04-03T07:03:46Z</time></trkpt><trkpt lat="45.819599324646106" lon="12.306200860099032"><ele>48.83333333333333</ele><time>2026-04-03T07:03:46.999Z</time></trkpt><trkpt lat="45.81961192251577" lon="12.306098935831944"><ele>49.0</ele><time>2026-04-03T07:03:47.999Z</time></trkpt><trkpt lat="45.81962424531466" lon="12.305995602371558"><ele>49.142857142857146</ele><time>2026-04-03T07:03:48.999Z</time></trkpt><trkpt lat="45.819635913269465" lon="12.305890849131403"><ele>49.285714285714285</ele><time>2026-04-03T07:03:49.999Z</time></trkpt><trkpt lat="45.819647081861085" lon="12.305785622927651"><ele>49.42857142857143</ele><time>2026-04-03T07:03:50.999Z</time></trkpt><trkpt lat="45.819658160927276" lon="12.305690053622019"><ele>49.57142857142857</ele><time>2026-04-03T07:03:51.999Z</time></trkpt><trkpt lat="45.81966871063099" lon="12.305589488747623"><ele>49.714285714285715</ele><time>2026-04-03T07:03:53.999Z</time></trkpt><trkpt lat="45.819672755514" lon="12.305460586487268"><ele>49.85714285714286</ele><time>2026-04-03T07:03:58.999Z</time></trkpt><trkpt lat="45.81973363372957" lon="12.305494681138361"><ele>50.0</ele><time>2026-04-03T07:04:00.999Z</time></trkpt><trkpt lat="45.81981157967477" lon="12.305496890512789"><ele>50.16666666666667</ele><time>2026-04-03T07:04:04.999Z</time></trkpt><trkpt lat="45.81975045079751" lon="12.305465196767994"><ele>50.333333333333336</ele><time>2026-04-03T07:05:59.999Z</time></trkpt><trkpt lat="45.81969225469309" lon="12.30540811904615"><ele>50.5</ele><time>2026-04-03T07:06:10.999Z</time></trkpt><trkpt lat="45.81970119506425" lon="12.305281773346609"><ele>50.66666666666667</ele><time>2026-04-03T07:06:12.999Z</time></trkpt><trkpt lat="45.819720615105766" lon="12.30511446998717"><ele>50.833333333333336</ele><time>2026-04-03T07:06:14.999Z</time></trkpt><trkpt lat="45.8197317449382" lon="12.305016808928498"><ele>51.0</ele><time>2026-04-03T07:06:15.999Z</time></trkpt><trkpt lat="45.81974282774295" lon="12.30490744592454"><ele>51.0</ele><time>2026-04-03T07:06:16.999Z</time></trkpt><trkpt lat="45.81975512152327" lon="12.304790757908416"><ele>51.0</ele><time>2026-04-03T07:06:17.999Z</time></trkpt><trkpt lat="45.81976804120034" lon="12.30466748465489"><ele>51.0</ele><time>2026-04-03T07:06:18.999Z</time></trkpt><trkpt lat="45.81978352604009" lon="12.304538455863122"><ele>51.0</ele><time>2026-04-03T07:06:19.999Z</time></trkpt><trkpt lat="45.81979866893026" lon="12.30440258689672"><ele>51.0</ele><time>2026-04-03T07:06:20.999Z</time></trkpt><trkpt lat="45.819813829704096" lon="12.30427058072202"><ele>51.0</ele><time>2026-04-03T07:06:21.999Z</time></trkpt><trkpt lat="45.81982816113686" lon="12.304146399831296"><ele>51.0</ele><time>2026-04-03T07:06:22.999Z</time></trkpt><trkpt lat="45.8198402948876" lon="12.30404080614734"><ele>51.0</ele><time>2026-04-03T07:06:23.999Z</time></trkpt><trkpt lat="45.81985549507128" lon="12.303914532007509"><ele>51.0</ele><time>2026-04-03T07:06:25.999Z</time></trkpt><trkpt lat="45.81986283292064" lon="12.303787728774893"><ele>51.0</ele><time>2026-04-03T07:07:06Z</time></trkpt><trkpt lat="45.819875283266235" lon="12.303673022022064"><ele>51.0</ele><time>2026-04-03T07:07:08Z</time></trkpt><trkpt lat="45.8198963703261" lon="12.303496360409335"><ele>51.0</ele><time>2026-04-03T07:07:10Z</time></trkpt><trkpt lat="45.81990703578513" lon="12.303395151103162"><ele>51.0</ele><time>2026-04-03T07:07:11Z</time></trkpt><trkpt lat="45.81991769926928" lon="12.303303836845808"><ele>51.0</ele><time>2026-04-03T07:07:12Z</time></trkpt><trkpt lat="45.81992984335033" lon="12.303186087874938"><ele>51.0</ele><time>2026-04-03T07:07:14Z</time></trkpt><trkpt lat="45.81994119394126" lon="12.3030840894151"><ele>51.0</ele><time>2026-04-03T07:07:33Z</time></trkpt><trkpt lat="45.819957947438645" lon="12.302924113348904"><ele>51.0</ele><time>2026-04-03T07:07:35Z</time></trkpt><trkpt lat="45.8199704259804" lon="12.302825677390896"><ele>50.833333333333336</ele><time>2026-04-03T07:07:36Z</time></trkpt><trkpt lat="45.81998295363461" lon="12.302726288768"><ele>50.66666666666667</ele><time>2026-04-03T07:07:37Z</time></trkpt><trkpt lat="45.81999505431954" lon="12.30263181082203"><ele>50.5</ele><time>2026-04-03T07:07:38Z</time></trkpt><trkpt lat="45.82000936329676" lon="12.30248788827641"><ele>50.333333333333336</ele><time>2026-04-03T07:07:40Z</time></trkpt><trkpt lat="45.82001192105601" lon="12.302379018351528"><ele>50.16666666666667</ele><time>2026-04-03T07:07:54.999Z</time></trkpt><trkpt lat="45.82002676602277" lon="12.302231415699024"><ele>50.0</ele><time>2026-04-03T07:07:56.999Z</time></trkpt><trkpt lat="45.82003812077902" lon="12.302140656883171"><ele>50.00000000000001</ele><time>2026-04-03T07:07:57.999Z</time></trkpt><trkpt lat="45.820049846533365" lon="12.302038875540385"><ele>50.0</ele><time>2026-04-03T07:07:58.999Z</time></trkpt><trkpt lat="45.82006359661872" lon="12.30192641584738"><ele>50.0</ele><time>2026-04-03T07:07:59.999Z</time></trkpt><trkpt lat="45.82007650482723" lon="12.301803584338144"><ele>50.0</ele><time>2026-04-03T07:08:00.999Z</time></trkpt><trkpt lat="45.8200910753601" lon="12.3016712404577"><ele>50.00000000000001</ele><time>2026-04-03T07:08:01.999Z</time></trkpt><trkpt lat="45.82010712923703" lon="12.301530145361921"><ele>50.0</ele><time>2026-04-03T07:08:02.999Z</time></trkpt><trkpt lat="45.82012356596806" lon="12.301387240306443"><ele>50.0</ele><time>2026-04-03T07:08:03.999Z</time></trkpt><trkpt lat="45.82013966724687" lon="12.301248841754576"><ele>50.0</ele><time>2026-04-03T07:08:04.999Z</time></trkpt><trkpt lat="45.82015521923272" lon="12.301113927669828"><ele>50.0</ele><time>2026-04-03T07:08:05.999Z</time></trkpt><trkpt lat="45.82017027357925" lon="12.300980580987954"><ele>50.0</ele><time>2026-04-03T07:08:06.999Z</time></trkpt><trkpt lat="45.82018463555668" lon="12.300850108527225"><ele>50.0</ele><time>2026-04-03T07:08:07.999Z</time></trkpt><trkpt lat="45.82019929474693" lon="12.300720168274417"><ele>50.0</ele><time>2026-04-03T07:08:08.999Z</time></trkpt><trkpt lat="45.820213992234905" lon="12.300587507555496"><ele>50.0</ele><time>2026-04-03T07:08:09.999Z</time></trkpt><trkpt lat="45.82022935390591" lon="12.300452395859772"><ele>50.0</ele><time>2026-04-03T07:08:10.999Z</time></trkpt><trkpt lat="45.82024492374214" lon="12.30031307055672"><ele>50.0</ele><time>2026-04-03T07:08:11.999Z</time></trkpt><trkpt lat="45.8202613987843" lon="12.300171491490936"><ele>50.0</ele><time>2026-04-03T07:08:12.999Z</time></trkpt><trkpt lat="45.82027699887319" lon="12.300024958733848"><ele>50.2</ele><time>2026-04-03T07:08:13.999Z</time></trkpt><trkpt lat="45.82029289972195" lon="12.299880459573604"><ele>50.4</ele><time>2026-04-03T07:08:14.999Z</time></trkpt><trkpt lat="45.82030771513298" lon="12.29973351665255"><ele>50.599999999999994</ele><time>2026-04-03T07:08:15.999Z</time></trkpt><trkpt lat="45.82032529089127" lon="12.299585141655053"><ele>50.8</ele><time>2026-04-03T07:08:16.999Z</time></trkpt><trkpt lat="45.82034187934697" lon="12.299435387811338"><ele>51.0</ele><time>2026-04-03T07:08:17.999Z</time></trkpt><trkpt lat="45.82035875495199" lon="12.299284982893377"><ele>51.0</ele><time>2026-04-03T07:08:18.999Z</time></trkpt><trkpt lat="45.82037582026009" lon="12.299132173544875"><ele>51.0</ele><time>2026-04-03T07:08:19.999Z</time></trkpt><trkpt lat="45.82039294993367" lon="12.298978141376"><ele>51.0</ele><time>2026-04-03T07:08:20.999Z</time></trkpt><trkpt lat="45.82040856496025" lon="12.298822848608326"><ele>51.0</ele><time>2026-04-03T07:08:21.999Z</time></trkpt><trkpt lat="45.820426497945874" lon="12.298665328701889"><ele>51.0</ele><time>2026-04-03T07:08:22.999Z</time></trkpt><trkpt lat="45.82044290974046" lon="12.298508229429046"><ele>51.0</ele><time>2026-04-03T07:08:23.999Z</time></trkpt><trkpt lat="45.82045772932392" lon="12.298357541961577"><ele>51.0</ele><time>2026-04-03T07:08:24.999Z</time></trkpt><trkpt lat="45.82047582020025" lon="12.298210512485994"><ele>51.0</ele><time>2026-04-03T07:08:25.999Z</time></trkpt><trkpt lat="45.820491653687945" lon="12.298072557156917"><ele>51.0</ele><time>2026-04-03T07:08:26.999Z</time></trkpt><trkpt lat="45.82050648866637" lon="12.297946443258581"><ele>51.0</ele><time>2026-04-03T07:08:27.999Z</time></trkpt><trkpt lat="45.82051912484281" lon="12.297836952486424"><ele>51.0</ele><time>2026-04-03T07:08:28.999Z</time></trkpt><trkpt lat="45.82053453457773" lon="12.297744916750814"><ele>51.0</ele><time>2026-04-03T07:08:29.999Z</time></trkpt><trkpt lat="45.820602500626876" lon="12.297614145960251"><ele>51.0</ele><time>2026-04-03T07:08:31.999Z</time></trkpt><trkpt lat="45.82069911076341" lon="12.297585131452715"><ele>51.0</ele><time>2026-04-03T07:08:33.999Z</time></trkpt><trkpt lat="45.82079672036384" lon="12.297614144534416"><ele>51.0</ele><time>2026-04-03T07:08:35.999Z</time></trkpt><trkpt lat="45.820923985193915" lon="12.297644955413972"><ele>51.166666666666664</ele><time>2026-04-03T07:08:37.999Z</time></trkpt><trkpt lat="45.821000026734154" lon="12.297658744411915"><ele>51.33333333333333</ele><time>2026-04-03T07:08:38.999Z</time></trkpt><trkpt lat="45.82107982738723" lon="12.297675822701672"><ele>51.5</ele><time>2026-04-03T07:08:39.999Z</time></trkpt><trkpt lat="45.82115765905822" lon="12.29769330539854"><ele>51.666666666666664</ele><time>2026-04-03T07:08:40.999Z</time></trkpt><trkpt lat="45.821231832609165" lon="12.297707857169849"><ele>51.83333333333333</ele><time>2026-04-03T07:08:41.999Z</time></trkpt><trkpt lat="45.821297272670826" lon="12.2977224025993"><ele>52.0</ele><time>2026-04-03T07:08:42.999Z</time></trkpt><trkpt lat="45.82138013398551" lon="12.297741125482268"><ele>52.0</ele><time>2026-04-03T07:08:44.999Z</time></trkpt><trkpt lat="45.82146737781513" lon="12.297753710619292"><ele>52.0</ele><time>2026-04-03T07:09:41Z</time></trkpt><trkpt lat="45.82155989085512" lon="12.29777306034688"><ele>52.0</ele><time>2026-04-03T07:09:43Z</time></trkpt><trkpt lat="45.82168280461784" lon="12.297801754241975"><ele>52.0</ele><time>2026-04-03T07:09:45Z</time></trkpt><trkpt lat="45.8217539217806" lon="12.297818547584555"><ele>52.0</ele><time>2026-04-03T07:09:46Z</time></trkpt><trkpt lat="45.82183024629712" lon="12.297836612577095"><ele>51.99999999999999</ele><time>2026-04-03T07:09:47Z</time></trkpt><trkpt lat="45.82190430322374" lon="12.297854659157718"><ele>52.0</ele><time>2026-04-03T07:09:47.999Z</time></trkpt><trkpt lat="45.821967998257406" lon="12.297870154501071"><ele>52.0</ele><time>2026-04-03T07:09:48.999Z</time></trkpt><trkpt lat="45.82204899115876" lon="12.297887281534146"><ele>52.0</ele><time>2026-04-03T07:09:50.999Z</time></trkpt><trkpt lat="45.822123310207886" lon="12.297900943536007"><ele>51.99999999999999</ele><time>2026-04-03T07:10:35.999Z</time></trkpt><trkpt lat="45.82222991024001" lon="12.297922404253526"><ele>52.0</ele><time>2026-04-03T07:10:37.999Z</time></trkpt><trkpt lat="45.822353306027544" lon="12.29794290398086"><ele>52.0</ele><time>2026-04-03T07:10:39.999Z</time></trkpt><trkpt lat="45.82245616387675" lon="12.297958294467575"><ele>52.0</ele><time>2026-04-03T07:10:41.999Z</time></trkpt><trkpt lat="45.8225191239911" lon="12.297953875404493"><ele>52.0</ele><time>2026-04-03T07:10:59.999Z</time></trkpt><trkpt lat="45.82260268818997" lon="12.297959236647698"><ele>52.0</ele><time>2026-04-03T07:11:01.999Z</time></trkpt><trkpt lat="45.822732148278575" lon="12.297968614587475"><ele>52.0</ele><time>2026-04-03T07:11:04Z</time></trkpt><trkpt lat="45.82280942325949" lon="12.297973982585692"><ele>51.83333333333333</ele><time>2026-04-03T07:11:05Z</time></trkpt><trkpt lat="45.8228942888571" lon="12.297980900482443"><ele>51.666666666666664</ele><time>2026-04-03T07:11:06Z</time></trkpt><trkpt lat="45.82298557255009" lon="12.297989614950275"><ele>51.5</ele><time>2026-04-03T07:11:07Z</time></trkpt><trkpt lat="45.82307435226995" lon="12.297997318374351"><ele>51.33333333333333</ele><time>2026-04-03T07:11:08Z</time></trkpt><trkpt lat="45.823160429672065" lon="12.298005102242115"><ele>51.166666666666664</ele><time>2026-04-03T07:11:09Z</time></trkpt><trkpt lat="45.82323546414257" lon="12.298012208745302"><ele>51.0</ele><time>2026-04-03T07:11:10Z</time></trkpt><trkpt lat="45.82334103831602" lon="12.298023191185441"><ele>51.0</ele><time>2026-04-03T07:11:12Z</time></trkpt><trkpt lat="45.823423717188554" lon="12.298017612433432"><ele>51.0</ele><time>2026-04-03T07:11:37Z</time></trkpt><trkpt lat="45.82351227190877" lon="12.29802311878667"><ele>51.0</ele><time>2026-04-03T07:11:39Z</time></trkpt><trkpt lat="45.823646342206075" lon="12.298033723751784"><ele>51.0</ele><time>2026-04-03T07:11:41Z</time></trkpt><trkpt lat="45.82372516594008" lon="12.298039653262963"><ele>51.0</ele><time>2026-04-03T07:11:42Z</time></trkpt><trkpt lat="45.82381128633705" lon="12.298047291750816"><ele>51.0</ele><time>2026-04-03T07:11:43Z</time></trkpt><trkpt lat="45.82389980454441" lon="12.298054665418398"><ele>51.0</ele><time>2026-04-03T07:11:44Z</time></trkpt><trkpt lat="45.82398444450383" lon="12.298062396152533"><ele>51.0</ele><time>2026-04-03T07:11:45Z</time></trkpt><trkpt lat="45.82406649759528" lon="12.298068817974148"><ele>51.0</ele><time>2026-04-03T07:11:46Z</time></trkpt><trkpt lat="45.824141636911214" lon="12.298066526794402"><ele>51.0</ele><time>2026-04-03T07:11:47Z</time></trkpt><trkpt lat="45.824205248094174" lon="12.298061126828706"><ele>51.0</ele><time>2026-04-03T07:11:47.999Z</time></trkpt><trkpt lat="45.82428877109285" lon="12.298047685718796"><ele>50.599999999999994</ele><time>2026-04-03T07:11:49.999Z</time></trkpt><trkpt lat="45.82436029586627" lon="12.298035752130266"><ele>50.2</ele><time>2026-04-03T07:12:05.999Z</time></trkpt><trkpt lat="45.824458597231455" lon="12.298022764153858"><ele>49.8</ele><time>2026-04-03T07:12:09.999Z</time></trkpt><trkpt lat="45.82455605062907" lon="12.298010671754025"><ele>49.400000000000006</ele><time>2026-04-03T07:12:11.999Z</time></trkpt><trkpt lat="45.824675787289486" lon="12.29799175696706"><ele>49.0</ele><time>2026-04-03T07:12:13.999Z</time></trkpt><trkpt lat="45.82474222475547" lon="12.297981860942665"><ele>49.0</ele><time>2026-04-03T07:12:14.999Z</time></trkpt><trkpt lat="45.82481308479889" lon="12.297972301845363"><ele>49.0</ele><time>2026-04-03T07:12:15.999Z</time></trkpt><trkpt lat="45.82488246369566" lon="12.297962688706459"><ele>49.0</ele><time>2026-04-03T07:12:16.999Z</time></trkpt><trkpt lat="45.8249508624097" lon="12.297952846067087"><ele>49.0</ele><time>2026-04-03T07:12:17.999Z</time></trkpt><trkpt lat="45.825019231471494" lon="12.297941935957688"><ele>49.0</ele><time>2026-04-03T07:12:18.999Z</time></trkpt><trkpt lat="45.82508739411421" lon="12.297932263512086"><ele>49.0</ele><time>2026-04-03T07:12:19.999Z</time></trkpt><trkpt lat="45.82515529323395" lon="12.29792144566311"><ele>49.0</ele><time>2026-04-03T07:12:20.999Z</time></trkpt><trkpt lat="45.825222230916786" lon="12.297909542771107"><ele>49.2</ele><time>2026-04-03T07:12:21.999Z</time></trkpt><trkpt lat="45.825321975740124" lon="12.297897674401685"><ele>49.400000000000006</ele><time>2026-04-03T07:12:23.999Z</time></trkpt><trkpt lat="45.82540020814995" lon="12.297875064458845"><ele>49.6</ele><time>2026-04-03T07:12:42.999Z</time></trkpt><trkpt lat="45.825483251344146" lon="12.297860649348026"><ele>49.8</ele><time>2026-04-03T07:12:44.999Z</time></trkpt><trkpt lat="45.82560955403392" lon="12.297840208705455"><ele>50.0</ele><time>2026-04-03T07:12:46.999Z</time></trkpt><trkpt lat="45.825685124430336" lon="12.29782736002893"><ele>50.0</ele><time>2026-04-03T07:12:47.999Z</time></trkpt><trkpt lat="45.825768061533864" lon="12.297813058056875"><ele>50.0</ele><time>2026-04-03T07:12:48.999Z</time></trkpt><trkpt lat="45.82585800573776" lon="12.297798201118855"><ele>50.0</ele><time>2026-04-03T07:12:49.999Z</time></trkpt><trkpt lat="45.825951173572655" lon="12.297783034850081"><ele>50.0</ele><time>2026-04-03T07:12:50.999Z</time></trkpt><trkpt lat="45.82604350518769" lon="12.29776884327806"><ele>50.0</ele><time>2026-04-03T07:12:51.999Z</time></trkpt><trkpt lat="45.8261363367763" lon="12.297753771978087"><ele>50.4</ele><time>2026-04-03T07:12:52.999Z</time></trkpt><trkpt lat="45.82622919283445" lon="12.297739226754604"><ele>50.8</ele><time>2026-04-03T07:12:53.999Z</time></trkpt><trkpt lat="45.826323001171495" lon="12.297729028778301"><ele>51.2</ele><time>2026-04-03T07:12:54.999Z</time></trkpt><trkpt lat="45.82641974903406" lon="12.297721236738989"><ele>51.6</ele><time>2026-04-03T07:12:55.999Z</time></trkpt><trkpt lat="45.82651826421649" lon="12.297715456855512"><ele>52.0</ele><time>2026-04-03T07:12:56.999Z</time></trkpt><trkpt lat="45.826618960989606" lon="12.297713429480845"><ele>52.0</ele><time>2026-04-03T07:12:57.999Z</time></trkpt><trkpt lat="45.82672146836256" lon="12.297712126200192"><ele>52.0</ele><time>2026-04-03T07:12:58.999Z</time></trkpt><trkpt lat="45.826824733343805" lon="12.297712055485878"><ele>52.0</ele><time>2026-04-03T07:12:59.999Z</time></trkpt><trkpt lat="45.82692972666436" lon="12.29771228049524"><ele>52.0</ele><time>2026-04-03T07:13:00.999Z</time></trkpt><trkpt lat="45.82703556056424" lon="12.297711467517658"><ele>52.0</ele><time>2026-04-03T07:13:01.999Z</time></trkpt><trkpt lat="45.827139690280255" lon="12.297710798022546"><ele>51.83333333333333</ele><time>2026-04-03T07:13:02.999Z</time></trkpt><trkpt lat="45.827237385765535" lon="12.29771048341902"><ele>51.666666666666664</ele><time>2026-04-03T07:13:03.999Z</time></trkpt><trkpt lat="45.82732543107644" lon="12.297710873179792"><ele>51.5</ele><time>2026-04-03T07:13:04.999Z</time></trkpt><trkpt lat="45.82739874223044" lon="12.297712569132583"><ele>51.33333333333333</ele><time>2026-04-03T07:13:05.999Z</time></trkpt><trkpt lat="45.82750699573034" lon="12.297714640951112"><ele>51.166666666666664</ele><time>2026-04-03T07:13:07.999Z</time></trkpt><trkpt lat="45.82757227849874" lon="12.297710359981883"><ele>51.0</ele><time>2026-04-03T07:13:22Z</time></trkpt><trkpt lat="45.827660835475804" lon="12.297706978496509"><ele>51.0</ele><time>2026-04-03T07:13:25Z</time></trkpt><trkpt lat="45.827779714939176" lon="12.297704668804071"><ele>51.0</ele><time>2026-04-03T07:13:27Z</time></trkpt><trkpt lat="45.82785145239306" lon="12.29770353278702"><ele>51.0</ele><time>2026-04-03T07:13:28Z</time></trkpt><trkpt lat="45.82792396036431" lon="12.297702248771865"><ele>51.0</ele><time>2026-04-03T07:13:29Z</time></trkpt><trkpt lat="45.82800288838168" lon="12.297703284792552"><ele>51.0</ele><time>2026-04-03T07:13:30Z</time></trkpt><trkpt lat="45.828086206248805" lon="12.297702994035081"><ele>51.0</ele><time>2026-04-03T07:13:31Z</time></trkpt><trkpt lat="45.82817662035137" lon="12.297703544233991"><ele>51.0</ele><time>2026-04-03T07:13:32Z</time></trkpt><trkpt lat="45.82827345036861" lon="12.297701643802847"><ele>51.0</ele><time>2026-04-03T07:13:33Z</time></trkpt><trkpt lat="45.82837439448548" lon="12.29770062562111"><ele>51.0</ele><time>2026-04-03T07:13:34Z</time></trkpt><trkpt lat="45.82847673722139" lon="12.297699384423067"><ele>51.0</ele><time>2026-04-03T07:13:35Z</time></trkpt><trkpt lat="45.82858252243064" lon="12.29769907253608"><ele>51.0</ele><time>2026-04-03T07:13:36Z</time></trkpt><trkpt lat="45.82868965709037" lon="12.29769790365563"><ele>50.8</ele><time>2026-04-03T07:13:37Z</time></trkpt><trkpt lat="45.82879608895308" lon="12.297695549579764"><ele>50.599999999999994</ele><time>2026-04-03T07:13:38Z</time></trkpt><trkpt lat="45.828900864131306" lon="12.297693591581947"><ele>50.4</ele><time>2026-04-03T07:13:39Z</time></trkpt><trkpt lat="45.829007058097076" lon="12.297692337042285"><ele>50.2</ele><time>2026-04-03T07:13:40Z</time></trkpt><trkpt lat="45.82911642102066" lon="12.297692979613254"><ele>50.0</ele><time>2026-04-03T07:13:41Z</time></trkpt><trkpt lat="45.82922483241912" lon="12.297693188296702"><ele>50.25</ele><time>2026-04-03T07:13:42Z</time></trkpt><trkpt lat="45.82933581450367" lon="12.29769454472654"><ele>50.5</ele><time>2026-04-03T07:13:43Z</time></trkpt><trkpt lat="45.8294484983012" lon="12.297694539679513"><ele>50.75</ele><time>2026-04-03T07:13:44Z</time></trkpt><trkpt lat="45.82956201617148" lon="12.297692220594577"><ele>51.0</ele><time>2026-04-03T07:13:45Z</time></trkpt><trkpt lat="45.82967766601264" lon="12.297693179600001"><ele>51.0</ele><time>2026-04-03T07:13:46Z</time></trkpt><trkpt lat="45.82979142271583" lon="12.297692897757488"><ele>51.0</ele><time>2026-04-03T07:13:47Z</time></trkpt><trkpt lat="45.82990513464426" lon="12.297693074091978"><ele>51.0</ele><time>2026-04-03T07:13:48Z</time></trkpt><trkpt lat="45.83001913687588" lon="12.297692059552187"><ele>51.0</ele><time>2026-04-03T07:13:49Z</time></trkpt><trkpt lat="45.83013119477525" lon="12.29768921267534"><ele>51.199999999999996</ele><time>2026-04-03T07:13:49.999Z</time></trkpt><trkpt lat="45.830242520759825" lon="12.297687696176435"><ele>51.4</ele><time>2026-04-03T07:13:50.999Z</time></trkpt><trkpt lat="45.83035148167823" lon="12.297685664735287"><ele>51.6</ele><time>2026-04-03T07:13:51.999Z</time></trkpt><trkpt lat="45.83046252458958" lon="12.29768563994278"><ele>51.8</ele><time>2026-04-03T07:13:52.999Z</time></trkpt><trkpt lat="45.83057171329807" lon="12.297688322252124"><ele>52.0</ele><time>2026-04-03T07:13:53.999Z</time></trkpt><trkpt lat="45.83068076834249" lon="12.297699605386137"><ele>52.0</ele><time>2026-04-03T07:13:54.999Z</time></trkpt><trkpt lat="45.83078961336537" lon="12.297719607068766"><ele>52.0</ele><time>2026-04-03T07:13:55.999Z</time></trkpt><trkpt lat="45.83089817920226" lon="12.297748889584584"><ele>52.0</ele><time>2026-04-03T07:13:56.999Z</time></trkpt><trkpt lat="45.83100317737645" lon="12.29778540231474"><ele>52.0</ele><time>2026-04-03T07:13:57.999Z</time></trkpt><trkpt lat="45.83110859066627" lon="12.297824568900342"><ele>52.0</ele><time>2026-04-03T07:13:58.999Z</time></trkpt><trkpt lat="45.831208594186066" lon="12.297860463773935"><ele>51.49999999999999</ele><time>2026-04-03T07:13:59.999Z</time></trkpt><trkpt lat="45.83129613176049" lon="12.29789252316183"><ele>51.0</ele><time>2026-04-03T07:14:00.999Z</time></trkpt><trkpt lat="45.83136689844814" lon="12.297918085703103"><ele>50.5</ele><time>2026-04-03T07:14:01.999Z</time></trkpt><trkpt lat="45.83146274788546" lon="12.297957313120966"><ele>50.0</ele><time>2026-04-03T07:14:03.999Z</time></trkpt><trkpt lat="45.83152438531665" lon="12.29797926932698"><ele>49.49999999999999</ele><time>2026-04-03T07:14:06.999Z</time></trkpt><trkpt lat="45.831589268317074" lon="12.29798483660174"><ele>49.0</ele><time>2026-04-03T07:14:38.999Z</time></trkpt><trkpt lat="45.831684553678585" lon="12.29801768328509"><ele>49.0</ele><time>2026-04-03T07:14:40.999Z</time></trkpt><trkpt lat="45.83174730601443" lon="12.298042633896927"><ele>49.0</ele><time>2026-04-03T07:14:41.999Z</time></trkpt><trkpt lat="45.83181744930251" lon="12.298068242719738"><ele>49.0</ele><time>2026-04-03T07:14:42.999Z</time></trkpt><trkpt lat="45.83188458564155" lon="12.298094874063572"><ele>49.0</ele><time>2026-04-03T07:14:43.999Z</time></trkpt><trkpt lat="45.831948924013844" lon="12.298118278730968"><ele>49.0</ele><time>2026-04-03T07:14:44.999Z</time></trkpt><trkpt lat="45.83204636830058" lon="12.298156616912504"><ele>49.0</ele><time>2026-04-03T07:14:46.999Z</time></trkpt><trkpt lat="45.83210799377511" lon="12.298175881841006"><ele>49.0</ele><time>2026-04-03T07:15:44Z</time></trkpt><trkpt lat="45.83219212284445" lon="12.298203705889387"><ele>49.2</ele><time>2026-04-03T07:15:47Z</time></trkpt><trkpt lat="45.832280214361504" lon="12.298233937574663"><ele>49.400000000000006</ele><time>2026-04-03T07:15:49Z</time></trkpt><trkpt lat="45.83239646902678" lon="12.298278388029713"><ele>49.6</ele><time>2026-04-03T07:15:50.999Z</time></trkpt><trkpt lat="45.83245835357204" lon="12.298301185752596"><ele>49.8</ele><time>2026-04-03T07:15:51.999Z</time></trkpt><trkpt lat="45.83256780995217" lon="12.298339021373733"><ele>50.0</ele><time>2026-04-03T07:15:53.999Z</time></trkpt><trkpt lat="45.83263099415169" lon="12.29836219121269"><ele>49.833333333333336</ele><time>2026-04-03T07:16:10.999Z</time></trkpt><trkpt lat="45.83271197699983" lon="12.29838946297013"><ele>49.66666666666667</ele><time>2026-04-03T07:16:13.999Z</time></trkpt><trkpt lat="45.83282075497885" lon="12.298428205542661"><ele>49.5</ele><time>2026-04-03T07:16:15.999Z</time></trkpt><trkpt lat="45.83289028633476" lon="12.298453149832895"><ele>49.33333333333333</ele><time>2026-04-03T07:16:16.999Z</time></trkpt><trkpt lat="45.83296691779479" lon="12.298478691884275"><ele>49.166666666666664</ele><time>2026-04-03T07:16:17.999Z</time></trkpt><trkpt lat="45.83305108794816" lon="12.298508880698474"><ele>49.0</ele><time>2026-04-03T07:16:18.999Z</time></trkpt><trkpt lat="45.83313525615008" lon="12.298540605883343"><ele>48.99999999999999</ele><time>2026-04-03T07:16:19.999Z</time></trkpt><trkpt lat="45.83321606213138" lon="12.298569517386463"><ele>49.0</ele><time>2026-04-03T07:16:20.999Z</time></trkpt><trkpt lat="45.83328492621369" lon="12.298595854604846"><ele>49.0</ele><time>2026-04-03T07:16:21.999Z</time></trkpt><trkpt lat="45.83338775351651" lon="12.29864798719956"><ele>49.0</ele><time>2026-04-03T07:16:23.999Z</time></trkpt><trkpt lat="45.83345945572645" lon="12.29865918019609"><ele>48.99999999999999</ele><time>2026-04-03T07:16:25.999Z</time></trkpt><trkpt lat="45.83352096499279" lon="12.298681381525144"><ele>49.0</ele><time>2026-04-03T07:16:28.999Z</time></trkpt><trkpt lat="45.83358042298193" lon="12.298720148822557"><ele>49.166666666666664</ele><time>2026-04-03T07:17:12.999Z</time></trkpt><trkpt lat="45.83365239659589" lon="12.298730681784226"><ele>49.33333333333333</ele><time>2026-04-03T07:17:15.999Z</time></trkpt><trkpt lat="45.83371647514962" lon="12.298749291052003"><ele>49.5</ele><time>2026-04-03T07:17:17.999Z</time></trkpt><trkpt lat="45.8338065006096" lon="12.298790015315937"><ele>49.66666666666667</ele><time>2026-04-03T07:17:19.999Z</time></trkpt><trkpt lat="45.83393298525176" lon="12.298843258055076"><ele>49.833333333333336</ele><time>2026-04-03T07:17:22Z</time></trkpt><trkpt lat="45.83400895571897" lon="12.298877014796739"><ele>50.0</ele><time>2026-04-03T07:17:23Z</time></trkpt><trkpt lat="45.8340941930821" lon="12.298915958035568"><ele>50.2</ele><time>2026-04-03T07:17:24Z</time></trkpt><trkpt lat="45.834184925158844" lon="12.298958977059977"><ele>50.4</ele><time>2026-04-03T07:17:25Z</time></trkpt><trkpt lat="45.83428223781609" lon="12.299004778156345"><ele>50.599999999999994</ele><time>2026-04-03T07:17:26Z</time></trkpt><trkpt lat="45.83438517356698" lon="12.299053346427318"><ele>50.8</ele><time>2026-04-03T07:17:27Z</time></trkpt><trkpt lat="45.83449028380436" lon="12.29910182522806"><ele>51.0</ele><time>2026-04-03T07:17:28Z</time></trkpt><trkpt lat="45.83459785467648" lon="12.299153377342309"><ele>51.0</ele><time>2026-04-03T07:17:29Z</time></trkpt><trkpt lat="45.834707039215154" lon="12.299205943119185"><ele>51.0</ele><time>2026-04-03T07:17:30Z</time></trkpt><trkpt lat="45.83481269077776" lon="12.29925767882032"><ele>51.0</ele><time>2026-04-03T07:17:31Z</time></trkpt><trkpt lat="45.83491386519567" lon="12.299304994364851"><ele>51.0</ele><time>2026-04-03T07:17:32Z</time></trkpt><trkpt lat="45.83500466781364" lon="12.299344789107156"><ele>51.0</ele><time>2026-04-03T07:17:33Z</time></trkpt><trkpt lat="45.83508298429762" lon="12.29937689161556"><ele>50.833333333333336</ele><time>2026-04-03T07:17:34Z</time></trkpt><trkpt lat="45.835147929449604" lon="12.299399857422218"><ele>50.66666666666667</ele><time>2026-04-03T07:17:35Z</time></trkpt><trkpt lat="45.835246283658996" lon="12.299441395278524"><ele>50.5</ele><time>2026-04-03T07:17:37Z</time></trkpt><trkpt lat="45.835306360947" lon="12.299493364453948"><ele>50.333333333333336</ele><time>2026-04-03T07:17:39Z</time></trkpt><trkpt lat="45.83525949383046" lon="12.299617227099047"><ele>50.16666666666667</ele><time>2026-04-03T07:17:41Z</time></trkpt><trkpt lat="45.835234440363244" lon="12.299728140838836"><ele>50.0</ele><time>2026-04-03T07:17:43Z</time></trkpt><trkpt lat="45.835207533482944" lon="12.299861299840858"><ele>49.833333333333336</ele><time>2026-04-03T07:17:45Z</time></trkpt><trkpt lat="45.83517559901847" lon="12.3000246251159"><ele>49.66666666666667</ele><time>2026-04-03T07:17:47Z</time></trkpt><trkpt lat="45.83515593951618" lon="12.300164682805377"><ele>49.5</ele><time>2026-04-03T07:17:49Z</time></trkpt><trkpt lat="45.83513232071308" lon="12.300267299716012"><ele>49.33333333333333</ele><time>2026-04-03T07:17:52.999Z</time></trkpt><trkpt lat="45.835118836620495" lon="12.300384014147717"><ele>49.166666666666664</ele><time>2026-04-03T07:18:33.999Z</time></trkpt><trkpt lat="45.83508652462957" lon="12.30046310156353"><ele>49.0</ele><time>2026-04-03T07:18:35.999Z</time></trkpt><trkpt lat="45.83506484656783" lon="12.300567807163926"><ele>48.99999999999999</ele><time>2026-04-03T07:18:38.999Z</time></trkpt><trkpt lat="45.83505712347185" lon="12.300680564014414"><ele>49.0</ele><time>2026-04-03T07:19:00.999Z</time></trkpt><trkpt lat="45.835009922611384" lon="12.300821663521711"><ele>49.0</ele><time>2026-04-03T07:19:02.999Z</time></trkpt><trkpt lat="45.83499000666425" lon="12.300911203458687"><ele>49.0</ele><time>2026-04-03T07:19:03.999Z</time></trkpt><trkpt lat="45.83496789025147" lon="12.30100710572174"><ele>48.99999999999999</ele><time>2026-04-03T07:19:04.999Z</time></trkpt><trkpt lat="45.83494762085637" lon="12.301105097238072"><ele>49.0</ele><time>2026-04-03T07:19:05.999Z</time></trkpt><trkpt lat="45.834927237005516" lon="12.301205069930797"><ele>48.99999999999999</ele><time>2026-04-03T07:19:06.999Z</time></trkpt><trkpt lat="45.83490480167815" lon="12.301302378097787"><ele>49.0</ele><time>2026-04-03T07:19:07.999Z</time></trkpt><trkpt lat="45.83488336603767" lon="12.301394623145143"><ele>49.0</ele><time>2026-04-03T07:19:08.999Z</time></trkpt><trkpt lat="45.83484818919167" lon="12.301521575667385"><ele>49.0</ele><time>2026-04-03T07:19:10.999Z</time></trkpt><trkpt lat="45.83483616048524" lon="12.3016154605261"><ele>48.99999999999999</ele><time>2026-04-03T07:19:13.999Z</time></trkpt><trkpt lat="45.83482740443486" lon="12.30171841671551"><ele>49.0</ele><time>2026-04-03T07:20:09.999Z</time></trkpt><trkpt lat="45.83480612544629" lon="12.301835912246261"><ele>49.2</ele><time>2026-04-03T07:20:11.999Z</time></trkpt><trkpt lat="45.834774826253664" lon="12.301977185690792"><ele>49.400000000000006</ele><time>2026-04-03T07:20:13.999Z</time></trkpt><trkpt lat="45.83474059123099" lon="12.302138869100702"><ele>49.6</ele><time>2026-04-03T07:20:15.999Z</time></trkpt><trkpt lat="45.83470988961533" lon="12.302280395907488"><ele>49.8</ele><time>2026-04-03T07:20:17.999Z</time></trkpt><trkpt lat="45.83468807663169" lon="12.30236797913946"><ele>50.0</ele><time>2026-04-03T07:20:19.999Z</time></trkpt><trkpt lat="45.834667069946" lon="12.30249171115522"><ele>50.00000000000001</ele><time>2026-04-03T07:20:36.999Z</time></trkpt><trkpt lat="45.834645549985964" lon="12.302629883636943"><ele>50.0</ele><time>2026-04-03T07:20:38.999Z</time></trkpt><trkpt lat="45.83462878038352" lon="12.30272153908579"><ele>50.0</ele><time>2026-04-03T07:20:39.999Z</time></trkpt><trkpt lat="45.83460849888272" lon="12.302825184489201"><ele>50.0</ele><time>2026-04-03T07:20:40.999Z</time></trkpt><trkpt lat="45.83458526459993" lon="12.302938893161851"><ele>50.00000000000001</ele><time>2026-04-03T07:20:41.999Z</time></trkpt><trkpt lat="45.83456008604665" lon="12.303060650985222"><ele>50.0</ele><time>2026-04-03T07:20:42.999Z</time></trkpt><trkpt lat="45.834534107596184" lon="12.303185568653884"><ele>49.833333333333336</ele><time>2026-04-03T07:20:43.999Z</time></trkpt><trkpt lat="45.83451161959579" lon="12.303305222024084"><ele>49.66666666666667</ele><time>2026-04-03T07:20:44.999Z</time></trkpt><trkpt lat="45.834490260493794" lon="12.303418694949928"><ele>49.5</ele><time>2026-04-03T07:20:45.999Z</time></trkpt><trkpt lat="45.83447265443193" lon="12.303514951318432"><ele>49.33333333333333</ele><time>2026-04-03T07:20:46.999Z</time></trkpt><trkpt lat="45.83443905699243" lon="12.303656799154409"><ele>49.166666666666664</ele><time>2026-04-03T07:20:48.999Z</time></trkpt><trkpt lat="45.83442115852835" lon="12.30374853339505"><ele>49.0</ele><time>2026-04-03T07:20:50.999Z</time></trkpt><trkpt lat="45.83441014017216" lon="12.303864110973233"><ele>49.0</ele><time>2026-04-03T07:22:07.999Z</time></trkpt><trkpt lat="45.83437208424257" lon="12.303990726563422"><ele>49.0</ele><time>2026-04-03T07:22:10.999Z</time></trkpt><trkpt lat="45.83434178963982" lon="12.30412600340211"><ele>49.0</ele><time>2026-04-03T07:22:12.999Z</time></trkpt><trkpt lat="45.83431660695874" lon="12.30427948318948"><ele>49.0</ele><time>2026-04-03T07:22:14.999Z</time></trkpt><trkpt lat="45.83430046546416" lon="12.30439050515387"><ele>49.0</ele><time>2026-04-03T07:22:16.999Z</time></trkpt><trkpt lat="45.83432441044241" lon="12.30448575104703"><ele>48.83333333333333</ele><time>2026-04-03T07:22:19.999Z</time></trkpt><trkpt lat="45.834390007264375" lon="12.30449085345345"><ele>48.666666666666664</ele><time>2026-04-03T07:22:52Z</time></trkpt><trkpt lat="45.8344542772839" lon="12.304519514820342"><ele>48.5</ele><time>2026-04-03T07:22:54Z</time></trkpt><trkpt lat="45.83454981034529" lon="12.304555856264203"><ele>48.33333333333333</ele><time>2026-04-03T07:22:56Z</time></trkpt><trkpt lat="45.83466730136569" lon="12.30460583608254"><ele>48.166666666666664</ele><time>2026-04-03T07:22:58Z</time></trkpt><trkpt lat="45.83473567807366" lon="12.30463478055422"><ele>48.0</ele><time>2026-04-03T07:22:59Z</time></trkpt><trkpt lat="45.83480991662938" lon="12.304664955063098"><ele>48.0</ele><time>2026-04-03T07:23:00Z</time></trkpt><trkpt lat="45.83488963360363" lon="12.304696082396001"><ele>48.0</ele><time>2026-04-03T07:23:01Z</time></trkpt><trkpt lat="45.834975339666336" lon="12.304730273970435"><ele>48.0</ele><time>2026-04-03T07:23:02Z</time></trkpt><trkpt lat="45.83506622716639" lon="12.304767140802213"><ele>48.0</ele><time>2026-04-03T07:23:03Z</time></trkpt><trkpt lat="45.835160464930404" lon="12.30480588178629"><ele>48.0</ele><time>2026-04-03T07:23:04Z</time></trkpt><trkpt lat="45.835256847390866" lon="12.304846023511173"><ele>48.2</ele><time>2026-04-03T07:23:05Z</time></trkpt><trkpt lat="45.83535628363586" lon="12.304887282785584"><ele>48.4</ele><time>2026-04-03T07:23:06Z</time></trkpt><trkpt lat="45.83545599352761" lon="12.304927150999333"><ele>48.6</ele><time>2026-04-03T07:23:07Z</time></trkpt><trkpt lat="45.83555459766216" lon="12.304967488846437"><ele>48.800000000000004</ele><time>2026-04-03T07:23:08Z</time></trkpt><trkpt lat="45.83564799091197" lon="12.305005895056455"><ele>49.0</ele><time>2026-04-03T07:23:09Z</time></trkpt><trkpt lat="45.83573388795012" lon="12.305040097077779"><ele>49.0</ele><time>2026-04-03T07:23:10Z</time></trkpt><trkpt lat="45.835813525412995" lon="12.305068945896561"><ele>49.0</ele><time>2026-04-03T07:23:11Z</time></trkpt><trkpt lat="45.83588496400967" lon="12.305094967063706"><ele>49.0</ele><time>2026-04-03T07:23:12Z</time></trkpt><trkpt lat="45.83594728966065" lon="12.305122450148986"><ele>49.0</ele><time>2026-04-03T07:23:13Z</time></trkpt><trkpt lat="45.836040256657036" lon="12.30521634642588"><ele>49.0</ele><time>2026-04-03T07:23:15Z</time></trkpt><trkpt lat="45.836074051506145" lon="12.305376704037101"><ele>48.99999999999999</ele><time>2026-04-03T07:23:17Z</time></trkpt><trkpt lat="45.83606532567952" lon="12.305468795482009"><ele>49.0</ele><time>2026-04-03T07:23:18Z</time></trkpt><trkpt lat="45.83604428098375" lon="12.305564903148191"><ele>49.0</ele><time>2026-04-03T07:23:19Z</time></trkpt><trkpt lat="45.836018304881435" lon="12.305665615715073"><ele>49.0</ele><time>2026-04-03T07:23:20Z</time></trkpt><trkpt lat="45.83599271641922" lon="12.305771805051807"><ele>48.99999999999999</ele><time>2026-04-03T07:23:21Z</time></trkpt><trkpt lat="45.835965939161866" lon="12.305883496468955"><ele>49.0</ele><time>2026-04-03T07:23:22Z</time></trkpt><trkpt lat="45.835939199441974" lon="12.305996731533027"><ele>49.0</ele><time>2026-04-03T07:23:23Z</time></trkpt><trkpt lat="45.835913623554944" lon="12.306104792662342"><ele>49.0</ele><time>2026-04-03T07:23:24Z</time></trkpt><trkpt lat="45.83589165656056" lon="12.306211650805807"><ele>49.0</ele><time>2026-04-03T07:23:25Z</time></trkpt><trkpt lat="45.8358833330583" lon="12.306309137375564"><ele>49.0</ele><time>2026-04-03T07:23:25.999Z</time></trkpt><trkpt lat="45.8358933417038" lon="12.306400820564471"><ele>49.0</ele><time>2026-04-03T07:23:26.999Z</time></trkpt><trkpt lat="45.835922180916576" lon="12.30648215464333"><ele>49.0</ele><time>2026-04-03T07:23:27.999Z</time></trkpt><trkpt lat="45.83596826598501" lon="12.306548219443574"><ele>49.0</ele><time>2026-04-03T07:23:28.999Z</time></trkpt><trkpt lat="45.836027170108565" lon="12.30659899303565"><ele>48.99999999999999</ele><time>2026-04-03T07:23:29.999Z</time></trkpt><trkpt lat="45.83609332804398" lon="12.306650956373007"><ele>49.0</ele><time>2026-04-03T07:23:30.999Z</time></trkpt><trkpt lat="45.83616452878865" lon="12.306700676281721"><ele>49.0</ele><time>2026-04-03T07:23:31.999Z</time></trkpt><trkpt lat="45.836235189554245" lon="12.306752025051226"><ele>49.0</ele><time>2026-04-03T07:23:32.999Z</time></trkpt><trkpt lat="45.83630491251293" lon="12.306803227929752"><ele>48.99999999999999</ele><time>2026-04-03T07:23:33.999Z</time></trkpt><trkpt lat="45.83637157538751" lon="12.306850499984192"><ele>49.0</ele><time>2026-04-03T07:23:34.999Z</time></trkpt><trkpt lat="45.83643057240801" lon="12.306891398144947"><ele>48.99999999999999</ele><time>2026-04-03T07:23:35.999Z</time></trkpt><trkpt lat="45.836514522240144" lon="12.306945487166114"><ele>49.0</ele><time>2026-04-03T07:23:37.999Z</time></trkpt><trkpt lat="45.83657525778468" lon="12.307005985971783"><ele>49.0</ele><time>2026-04-03T07:23:42Z</time></trkpt><trkpt lat="45.83654081444665" lon="12.307113652575097"><ele>49.0</ele><time>2026-04-03T07:24:06Z</time></trkpt><trkpt lat="45.83650582388382" lon="12.307213958311422"><ele>48.99999999999999</ele><time>2026-04-03T07:24:08Z</time></trkpt><trkpt lat="45.83647184801627" lon="12.307307956764255"><ele>49.0</ele><time>2026-04-03T07:24:09Z</time></trkpt><trkpt lat="45.83641330544659" lon="12.307469312458169"><ele>48.83333333333333</ele><time>2026-04-03T07:24:11Z</time></trkpt><trkpt lat="45.83637837918469" lon="12.307563082112603"><ele>48.666666666666664</ele><time>2026-04-03T07:24:12Z</time></trkpt><trkpt lat="45.83634006719435" lon="12.30766256315263"><ele>48.5</ele><time>2026-04-03T07:24:13Z</time></trkpt><trkpt lat="45.83629783920934" lon="12.30776706830315"><ele>48.33333333333333</ele><time>2026-04-03T07:24:14Z</time></trkpt><trkpt lat="45.8362536022368" lon="12.307874361784922"><ele>48.166666666666664</ele><time>2026-04-03T07:24:15Z</time></trkpt><trkpt lat="45.83620413610962" lon="12.307988017130212"><ele>48.0</ele><time>2026-04-03T07:24:16Z</time></trkpt><trkpt lat="45.83615167871057" lon="12.308105798978316"><ele>48.0</ele><time>2026-04-03T07:24:17Z</time></trkpt><trkpt lat="45.83609583198557" lon="12.308228168214217"><ele>48.0</ele><time>2026-04-03T07:24:18Z</time></trkpt><trkpt lat="45.83603795674011" lon="12.308354981497908"><ele>48.0</ele><time>2026-04-03T07:24:19Z</time></trkpt><trkpt lat="45.83597806888198" lon="12.308487484725395"><ele>48.0</ele><time>2026-04-03T07:24:20Z</time></trkpt><trkpt lat="45.83591687711403" lon="12.308625642975747"><ele>48.0</ele><time>2026-04-03T07:24:21Z</time></trkpt><trkpt lat="45.835856528876924" lon="12.308764301748347"><ele>47.8</ele><time>2026-04-03T07:24:22Z</time></trkpt><trkpt lat="45.835798432127156" lon="12.308903403629763"><ele>47.599999999999994</ele><time>2026-04-03T07:24:23Z</time></trkpt><trkpt lat="45.8357423937295" lon="12.309037644955035"><ele>47.400000000000006</ele><time>2026-04-03T07:24:24Z</time></trkpt><trkpt lat="45.8356861698074" lon="12.309167171494773"><ele>47.2</ele><time>2026-04-03T07:24:25Z</time></trkpt><trkpt lat="45.83563512336297" lon="12.309287430868606"><ele>47.0</ele><time>2026-04-03T07:24:26Z</time></trkpt><trkpt lat="45.83559179861992" lon="12.309391474541536"><ele>47.0</ele><time>2026-04-03T07:24:27Z</time></trkpt><trkpt lat="45.835556084273854" lon="12.309476832758808"><ele>47.0</ele><time>2026-04-03T07:24:28Z</time></trkpt><trkpt lat="45.8355133848577" lon="12.309576587404386"><ele>47.0</ele><time>2026-04-03T07:24:30Z</time></trkpt><trkpt lat="45.83547714366719" lon="12.309665409214452"><ele>47.0</ele><time>2026-04-03T07:24:49Z</time></trkpt><trkpt lat="45.83544075059007" lon="12.309765663391811"><ele>47.0</ele><time>2026-04-03T07:24:51Z</time></trkpt><trkpt lat="45.83540537891561" lon="12.3098480578223"><ele>47.0</ele><time>2026-04-03T07:24:53Z</time></trkpt><trkpt lat="45.835379484038185" lon="12.30997295519961"><ele>47.0</ele><time>2026-04-03T07:25:16Z</time></trkpt><trkpt lat="45.835351582052645" lon="12.310087974044155"><ele>47.0</ele><time>2026-04-03T07:25:18Z</time></trkpt><trkpt lat="45.835327296566795" lon="12.31018785850211"><ele>47.0</ele><time>2026-04-03T07:25:20Z</time></trkpt><trkpt lat="45.8353189904849" lon="12.310293240275422"><ele>47.0</ele><time>2026-04-03T07:25:38.999Z</time></trkpt><trkpt lat="45.83528345895472" lon="12.31041313910888"><ele>47.0</ele><time>2026-04-03T07:25:40.999Z</time></trkpt><trkpt lat="45.83525019166846" lon="12.310595514664746"><ele>47.166666666666664</ele><time>2026-04-03T07:25:42.999Z</time></trkpt><trkpt lat="45.83522541221417" lon="12.310698130600896"><ele>47.33333333333333</ele><time>2026-04-03T07:25:43.999Z</time></trkpt><trkpt lat="45.83520239064684" lon="12.310795644404822"><ele>47.5</ele><time>2026-04-03T07:25:44.999Z</time></trkpt><trkpt lat="45.83517151813295" lon="12.310930556633313"><ele>47.666666666666664</ele><time>2026-04-03T07:25:47Z</time></trkpt><trkpt lat="45.83515444422513" lon="12.311034413710901"><ele>47.833333333333336</ele><time>2026-04-03T07:26:07Z</time></trkpt><trkpt lat="45.83512423654686" lon="12.31114986688583"><ele>48.0</ele><time>2026-04-03T07:26:09Z</time></trkpt><trkpt lat="45.83508861273326" lon="12.311330880941835"><ele>47.833333333333336</ele><time>2026-04-03T07:26:11Z</time></trkpt><trkpt lat="45.83506572945379" lon="12.311436388133677"><ele>47.666666666666664</ele><time>2026-04-03T07:26:12Z</time></trkpt><trkpt lat="45.83504109600127" lon="12.311546099323841"><ele>47.5</ele><time>2026-04-03T07:26:13Z</time></trkpt><trkpt lat="45.83501667211589" lon="12.311651690122872"><ele>47.33333333333333</ele><time>2026-04-03T07:26:14Z</time></trkpt><trkpt lat="45.83499300501422" lon="12.311748790685513"><ele>47.166666666666664</ele><time>2026-04-03T07:26:15Z</time></trkpt><trkpt lat="45.83496015092379" lon="12.311895913623852"><ele>47.0</ele><time>2026-04-03T07:26:17Z</time></trkpt><trkpt lat="45.83493834867402" lon="12.312000688527016"><ele>47.0</ele><time>2026-04-03T07:26:20Z</time></trkpt><trkpt lat="45.8349166800487" lon="12.312089295686022"><ele>47.0</ele><time>2026-04-03T07:27:22Z</time></trkpt><trkpt lat="45.83488811209612" lon="12.312229119350729"><ele>47.0</ele><time>2026-04-03T07:27:24Z</time></trkpt><trkpt lat="45.834851213816606" lon="12.312413079775904"><ele>47.0</ele><time>2026-04-03T07:27:26Z</time></trkpt><trkpt lat="45.83482782377982" lon="12.312525732187469"><ele>47.0</ele><time>2026-04-03T07:27:26.999Z</time></trkpt><trkpt lat="45.834800589753094" lon="12.31264306126731"><ele>47.0</ele><time>2026-04-03T07:27:27.999Z</time></trkpt><trkpt lat="45.83477727142912" lon="12.312766024439181"><ele>47.0</ele><time>2026-04-03T07:27:28.999Z</time></trkpt><trkpt lat="45.834756689461955" lon="12.312888615263839"><ele>47.0</ele><time>2026-04-03T07:27:29.999Z</time></trkpt><trkpt lat="45.8347331761626" lon="12.313010539995444"><ele>47.0</ele><time>2026-04-03T07:27:30.999Z</time></trkpt><trkpt lat="45.834725265544456" lon="12.313134061036425"><ele>47.0</ele><time>2026-04-03T07:27:31.999Z</time></trkpt><trkpt lat="45.83471872481019" lon="12.313250369508003"><ele>47.0</ele><time>2026-04-03T07:27:32.999Z</time></trkpt><trkpt lat="45.83471327001147" lon="12.313356420021586"><ele>47.0</ele><time>2026-04-03T07:27:33.999Z</time></trkpt><trkpt lat="45.83470240690312" lon="12.313510452005413"><ele>47.0</ele><time>2026-04-03T07:27:35.999Z</time></trkpt><trkpt lat="45.83469978876456" lon="12.31360104871747"><ele>47.0</ele><time>2026-04-03T07:27:38.999Z</time></trkpt><trkpt lat="45.83469319200926" lon="12.313705494850343"><ele>47.0</ele><time>2026-04-03T07:27:43.999Z</time></trkpt><trkpt lat="45.83481487075284" lon="12.313729307769185"><ele>47.0</ele><time>2026-04-03T07:27:45.999Z</time></trkpt><trkpt lat="45.83489257497768" lon="12.313712518577622"><ele>47.0</ele><time>2026-04-03T07:27:47.999Z</time></trkpt><trkpt lat="45.83495272455472" lon="12.313759801852344"><ele>47.0</ele><time>2026-04-03T07:27:50.999Z</time></trkpt><trkpt lat="45.83501862098699" lon="12.313785297713359"><ele>47.0</ele><time>2026-04-03T07:28:21Z</time></trkpt><trkpt lat="45.835085626811406" lon="12.313789874655628"><ele>47.0</ele><time>2026-04-03T07:28:25Z</time></trkpt><trkpt lat="45.83515161858703" lon="12.313854146187785"><ele>47.0</ele><time>2026-04-03T07:28:27Z</time></trkpt><trkpt lat="45.835254424720056" lon="12.313886756707388"><ele>47.0</ele><time>2026-04-03T07:28:29Z</time></trkpt><trkpt lat="45.835375508745734" lon="12.313918435341584"><ele>47.0</ele><time>2026-04-03T07:28:31Z</time></trkpt><trkpt lat="45.83544202279036" lon="12.313938543204541"><ele>47.0</ele><time>2026-04-03T07:28:32Z</time></trkpt><trkpt lat="45.83550795085927" lon="12.313958051122516"><ele>47.0</ele><time>2026-04-03T07:28:33Z</time></trkpt><trkpt lat="45.83561450784718" lon="12.313992584889444"><ele>47.0</ele><time>2026-04-03T07:28:35Z</time></trkpt><trkpt lat="45.83567935602972" lon="12.314033342425438"><ele>47.0</ele><time>2026-04-03T07:28:37Z</time></trkpt><trkpt lat="45.83575282543752" lon="12.314025381131668"><ele>47.0</ele><time>2026-04-03T07:28:52Z</time></trkpt><trkpt lat="45.83585646040692" lon="12.314033372404765"><ele>47.0</ele><time>2026-04-03T07:28:55Z</time></trkpt><trkpt lat="45.835962066588166" lon="12.314062494096174"><ele>47.0</ele><time>2026-04-03T07:28:57Z</time></trkpt><trkpt lat="45.836028235318125" lon="12.314079514989007"><ele>47.0</ele><time>2026-04-03T07:28:58Z</time></trkpt><trkpt lat="45.83610385875915" lon="12.314096139772149"><ele>47.0</ele><time>2026-04-03T07:28:59Z</time></trkpt><trkpt lat="45.8361884740055" lon="12.314112702226737"><ele>47.0</ele><time>2026-04-03T07:29:00Z</time></trkpt><trkpt lat="45.836279046717195" lon="12.314125708878736"><ele>47.0</ele><time>2026-04-03T07:29:01Z</time></trkpt><trkpt lat="45.836375779651135" lon="12.314138502926744"><ele>47.0</ele><time>2026-04-03T07:29:02Z</time></trkpt><trkpt lat="45.83647673789439" lon="12.314151984961942"><ele>47.0</ele><time>2026-04-03T07:29:03Z</time></trkpt><trkpt lat="45.83657775493444" lon="12.314163660062553"><ele>47.0</ele><time>2026-04-03T07:29:04Z</time></trkpt><trkpt lat="45.836681213312936" lon="12.314173859269282"><ele>47.0</ele><time>2026-04-03T07:29:05Z</time></trkpt><trkpt lat="45.83678374675486" lon="12.314183268112645"><ele>47.0</ele><time>2026-04-03T07:29:06Z</time></trkpt><trkpt lat="45.8368874184" lon="12.314189745883533"><ele>47.0</ele><time>2026-04-03T07:29:07Z</time></trkpt><trkpt lat="45.83699064566536" lon="12.314196729918232"><ele>47.2</ele><time>2026-04-03T07:29:08Z</time></trkpt><trkpt lat="45.837093376341215" lon="12.31420137333195"><ele>47.400000000000006</ele><time>2026-04-03T07:29:09Z</time></trkpt><trkpt lat="45.837194206019426" lon="12.314207490005973"><ele>47.599999999999994</ele><time>2026-04-03T07:29:10Z</time></trkpt><trkpt lat="45.8372906653941" lon="12.314215021829472"><ele>47.8</ele><time>2026-04-03T07:29:11Z</time></trkpt><trkpt lat="45.837382043297836" lon="12.314222746745195"><ele>48.0</ele><time>2026-04-03T07:29:12Z</time></trkpt><trkpt lat="45.8374666643866" lon="12.31422933493406"><ele>48.0</ele><time>2026-04-03T07:29:13Z</time></trkpt><trkpt lat="45.83754575602634" lon="12.31423519703398"><ele>48.0</ele><time>2026-04-03T07:29:14Z</time></trkpt><trkpt lat="45.837611646425344" lon="12.314239838612071"><ele>48.0</ele><time>2026-04-03T07:29:15Z</time></trkpt><trkpt lat="45.83770591424216" lon="12.314249149789656"><ele>48.0</ele><time>2026-04-03T07:29:17Z</time></trkpt><trkpt lat="45.83776969447681" lon="12.314259248115295"><ele>48.0</ele><time>2026-04-03T07:29:21Z</time></trkpt><trkpt lat="45.83784389244094" lon="12.314263651192865"><ele>48.0</ele><time>2026-04-03T07:30:38Z</time></trkpt><trkpt lat="45.83793004761796" lon="12.314266381619875"><ele>47.666666666666664</ele><time>2026-04-03T07:30:40Z</time></trkpt><trkpt lat="45.83804425647699" lon="12.314271435568072"><ele>47.333333333333336</ele><time>2026-04-03T07:30:42Z</time></trkpt><trkpt lat="45.83810868864408" lon="12.314276290084054"><ele>47.0</ele><time>2026-04-03T07:30:43Z</time></trkpt><trkpt lat="45.83817874162822" lon="12.314281349903817"><ele>46.66666666666667</ele><time>2026-04-03T07:30:44Z</time></trkpt><trkpt lat="45.83825238932797" lon="12.314286576322441"><ele>46.333333333333336</ele><time>2026-04-03T07:30:45Z</time></trkpt><trkpt lat="45.83832904695033" lon="12.314292413251348"><ele>46.0</ele><time>2026-04-03T07:30:46Z</time></trkpt><trkpt lat="45.83841078918034" lon="12.314298205042599"><ele>46.199999999999996</ele><time>2026-04-03T07:30:47Z</time></trkpt><trkpt lat="45.8384974361998" lon="12.314303566609318"><ele>46.4</ele><time>2026-04-03T07:30:48Z</time></trkpt><trkpt lat="45.83858823995078" lon="12.314308469389731"><ele>46.6</ele><time>2026-04-03T07:30:49Z</time></trkpt><trkpt lat="45.83868310254402" lon="12.314314057206616"><ele>46.8</ele><time>2026-04-03T07:30:50Z</time></trkpt><trkpt lat="45.83878178367994" lon="12.314322618675279"><ele>47.0</ele><time>2026-04-03T07:30:51Z</time></trkpt><trkpt lat="45.83888379822548" lon="12.314334713349245"><ele>47.0</ele><time>2026-04-03T07:30:52Z</time></trkpt><trkpt lat="45.83898963214019" lon="12.314349186724685"><ele>47.0</ele><time>2026-04-03T07:30:53Z</time></trkpt><trkpt lat="45.83909801416599" lon="12.314365940707683"><ele>47.0</ele><time>2026-04-03T07:30:54Z</time></trkpt><trkpt lat="45.83920631633929" lon="12.31438692732155"><ele>47.0</ele><time>2026-04-03T07:30:55Z</time></trkpt><trkpt lat="45.839315036818526" lon="12.314409387475449"><ele>47.0</ele><time>2026-04-03T07:30:56Z</time></trkpt><trkpt lat="45.83941997690926" lon="12.31443225809968"><ele>46.83333333333333</ele><time>2026-04-03T07:30:57Z</time></trkpt><trkpt lat="45.839517090735505" lon="12.314456521206097"><ele>46.666666666666664</ele><time>2026-04-03T07:30:58Z</time></trkpt><trkpt lat="45.839598291394516" lon="12.314479598076815"><ele>46.5</ele><time>2026-04-03T07:30:59Z</time></trkpt><trkpt lat="45.83969607175108" lon="12.314506950793923"><ele>46.333333333333336</ele><time>2026-04-03T07:31:01Z</time></trkpt><trkpt lat="45.83976369388307" lon="12.314507203940963"><ele>46.16666666666667</ele><time>2026-04-03T07:32:01.999Z</time></trkpt><trkpt lat="45.83984543980122" lon="12.314527267876846"><ele>46.0</ele><time>2026-04-03T07:32:04Z</time></trkpt><trkpt lat="45.83997221525801" lon="12.314561975299677"><ele>46.0</ele><time>2026-04-03T07:32:06Z</time></trkpt><trkpt lat="45.84004744237598" lon="12.314586528720765"><ele>46.0</ele><time>2026-04-03T07:32:07Z</time></trkpt><trkpt lat="45.84012972111298" lon="12.31461282658873"><ele>46.0</ele><time>2026-04-03T07:32:08Z</time></trkpt><trkpt lat="45.84021795816372" lon="12.314643781434668"><ele>46.0</ele><time>2026-04-03T07:32:09Z</time></trkpt><trkpt lat="45.84031280854268" lon="12.314679477318897"><ele>46.0</ele><time>2026-04-03T07:32:10Z</time></trkpt><trkpt lat="45.840413967413284" lon="12.314720097966761"><ele>45.75</ele><time>2026-04-03T07:32:11Z</time></trkpt><trkpt lat="45.84052215387081" lon="12.31476240885841"><ele>45.5</ele><time>2026-04-03T07:32:12Z</time></trkpt><trkpt lat="45.84063523285495" lon="12.314807675083353"><ele>45.25</ele><time>2026-04-03T07:32:13Z</time></trkpt><trkpt lat="45.840748506570826" lon="12.314854785631033"><ele>45.0</ele><time>2026-04-03T07:32:14Z</time></trkpt><trkpt lat="45.84085741533264" lon="12.314898791435967"><ele>45.0</ele><time>2026-04-03T07:32:15Z</time></trkpt><trkpt lat="45.84096092920855" lon="12.314940681683854"><ele>45.0</ele><time>2026-04-03T07:32:16Z</time></trkpt><trkpt lat="45.84105377364993" lon="12.314978824760445"><ele>45.0</ele><time>2026-04-03T07:32:17Z</time></trkpt><trkpt lat="45.84113233129457" lon="12.31501283488656"><ele>45.0</ele><time>2026-04-03T07:32:18Z</time></trkpt><trkpt lat="45.84119876383862" lon="12.315041975474825"><ele>45.0</ele><time>2026-04-03T07:32:19Z</time></trkpt><trkpt lat="45.84130332055414" lon="12.31508530439656"><ele>44.5</ele><time>2026-04-03T07:32:21Z</time></trkpt><trkpt lat="45.841370927972136" lon="12.315108051021792"><ele>44.0</ele><time>2026-04-03T07:32:24Z</time></trkpt><trkpt lat="45.84145268557015" lon="12.3151411726119"><ele>43.5</ele><time>2026-04-03T07:32:45Z</time></trkpt><trkpt lat="45.841554734821884" lon="12.31518212403527"><ele>43.0</ele><time>2026-04-03T07:32:47Z</time></trkpt><trkpt lat="45.841620657990916" lon="12.315208272558037"><ele>42.5</ele><time>2026-04-03T07:32:48Z</time></trkpt><trkpt lat="45.84169387277821" lon="12.315236434247213"><ele>42.0</ele><time>2026-04-03T07:32:49Z</time></trkpt><trkpt lat="45.84177388512642" lon="12.31526692436362"><ele>42.0</ele><time>2026-04-03T07:32:50Z</time></trkpt><trkpt lat="45.84185623136838" lon="12.315298416132048"><ele>42.0</ele><time>2026-04-03T07:32:51Z</time></trkpt><trkpt lat="45.8419400321712" lon="12.315331072846634"><ele>42.0</ele><time>2026-04-03T07:32:52Z</time></trkpt><trkpt lat="45.842024473999246" lon="12.315364054522455"><ele>42.0</ele><time>2026-04-03T07:32:53Z</time></trkpt><trkpt lat="45.842107239350696" lon="12.315395866597722"><ele>42.0</ele><time>2026-04-03T07:32:54Z</time></trkpt><trkpt lat="45.842188001166484" lon="12.315427414444837"><ele>42.0</ele><time>2026-04-03T07:32:55Z</time></trkpt><trkpt lat="45.842266313328004" lon="12.315459522365606"><ele>42.0</ele><time>2026-04-03T07:32:56Z</time></trkpt><trkpt lat="45.84234239524017" lon="12.315490586655283"><ele>42.0</ele><time>2026-04-03T07:32:57Z</time></trkpt><trkpt lat="45.84241731290086" lon="12.315520043231961"><ele>42.0</ele><time>2026-04-03T07:32:58Z</time></trkpt><trkpt lat="45.842486403594314" lon="12.315548996064686"><ele>42.0</ele><time>2026-04-03T07:32:59Z</time></trkpt><trkpt lat="45.84255445965875" lon="12.315575372919314"><ele>42.0</ele><time>2026-04-03T07:33:00Z</time></trkpt><trkpt lat="45.84262304104895" lon="12.315600943383751"><ele>42.0</ele><time>2026-04-03T07:33:01Z</time></trkpt><trkpt lat="45.842691161711834" lon="12.315626734393089"><ele>42.0</ele><time>2026-04-03T07:33:02Z</time></trkpt><trkpt lat="45.84276121806623" lon="12.315654709367884"><ele>42.5</ele><time>2026-04-03T07:33:03Z</time></trkpt><trkpt lat="45.84282863523625" lon="12.315682495408597"><ele>43.0</ele><time>2026-04-03T07:33:04Z</time></trkpt><trkpt lat="45.84289138541386" lon="12.315712849293304"><ele>43.5</ele><time>2026-04-03T07:33:05Z</time></trkpt><trkpt lat="45.842996673284645" lon="12.315750671526688"><ele>44.0</ele><time>2026-04-03T07:33:07Z</time></trkpt><trkpt lat="45.84307077520538" lon="12.31579247806855"><ele>44.5</ele><time>2026-04-03T07:33:09Z</time></trkpt><trkpt lat="45.84313390922088" lon="12.31582809652875"><ele>45.0</ele><time>2026-04-03T07:33:13Z</time></trkpt><trkpt lat="45.84319496811178" lon="12.315862544271663"><ele>45.0</ele><time>2026-04-03T07:33:20Z</time></trkpt><trkpt lat="45.84313404410049" lon="12.31573627401888"><ele>45.0</ele><time>2026-04-03T07:33:32.999Z</time></trkpt><trkpt lat="45.84303403518698" lon="12.315719012368396"><ele>45.0</ele><time>2026-04-03T07:33:35.999Z</time></trkpt><trkpt lat="45.842911401981645" lon="12.315670842426204"><ele>45.0</ele><time>2026-04-03T07:33:37.999Z</time></trkpt><trkpt lat="45.84284018246215" lon="12.315642333974699"><ele>45.0</ele><time>2026-04-03T07:33:38.999Z</time></trkpt><trkpt lat="45.84276221297912" lon="12.315609109501477"><ele>45.0</ele><time>2026-04-03T07:33:39.999Z</time></trkpt><trkpt lat="45.842677302449815" lon="12.315573948531263"><ele>45.0</ele><time>2026-04-03T07:33:40.999Z</time></trkpt><trkpt lat="45.84258619219461" lon="12.315536049901164"><ele>45.0</ele><time>2026-04-03T07:33:41.999Z</time></trkpt><trkpt lat="45.84249034858639" lon="12.315499352395387"><ele>45.0</ele><time>2026-04-03T07:33:42.999Z</time></trkpt><trkpt lat="45.84239208030915" lon="12.315460902984844"><ele>45.0</ele><time>2026-04-03T07:33:43.999Z</time></trkpt><trkpt lat="45.84228821690123" lon="12.315422411304995"><ele>44.4</ele><time>2026-04-03T07:33:44.999Z</time></trkpt><trkpt lat="45.84218393957798" lon="12.315382192733193"><ele>43.8</ele><time>2026-04-03T07:33:45.999Z</time></trkpt><trkpt lat="45.84207873457023" lon="12.315339737625434"><ele>43.2</ele><time>2026-04-03T07:33:46.999Z</time></trkpt><trkpt lat="45.8419699489977" lon="12.31529728805968"><ele>42.6</ele><time>2026-04-03T07:33:47.999Z</time></trkpt><trkpt lat="45.84185894085198" lon="12.315254236673333"><ele>42.0</ele><time>2026-04-03T07:33:48.999Z</time></trkpt><trkpt lat="45.84174452841625" lon="12.315209152650153"><ele>42.0</ele><time>2026-04-03T07:33:49.999Z</time></trkpt><trkpt lat="45.84162738930542" lon="12.315163545606818"><ele>42.0</ele><time>2026-04-03T07:33:50.999Z</time></trkpt><trkpt lat="45.84151399357878" lon="12.315085046342528"><ele>42.0</ele><time>2026-04-03T07:33:51.999Z</time></trkpt><trkpt lat="45.84139270413168" lon="12.315036187279231"><ele>42.0</ele><time>2026-04-03T07:33:52.999Z</time></trkpt><trkpt lat="45.84127072195125" lon="12.314987557594312"><ele>42.0</ele><time>2026-04-03T07:33:53.999Z</time></trkpt><trkpt lat="45.84114837477935" lon="12.31493891806495"><ele>42.0</ele><time>2026-04-03T07:33:54.999Z</time></trkpt><trkpt lat="45.84102608918469" lon="12.314890302985575"><ele>42.0</ele><time>2026-04-03T07:33:55.999Z</time></trkpt><trkpt lat="45.84090605020332" lon="12.31484276731212"><ele>42.0</ele><time>2026-04-03T07:33:56.999Z</time></trkpt><trkpt lat="45.84078747573507" lon="12.314796243178641"><ele>42.75</ele><time>2026-04-03T07:33:57.999Z</time></trkpt><trkpt lat="45.84067146212281" lon="12.314750723861613"><ele>43.5</ele><time>2026-04-03T07:33:58.999Z</time></trkpt><trkpt lat="45.84055774640366" lon="12.314706106075333"><ele>44.25</ele><time>2026-04-03T07:33:59.999Z</time></trkpt><trkpt lat="45.84044643661958" lon="12.314662432334442"><ele>45.0</ele><time>2026-04-03T07:34:00.999Z</time></trkpt><trkpt lat="45.840346513435186" lon="12.314623226198163"><ele>45.0</ele><time>2026-04-03T07:34:01.999Z</time></trkpt><trkpt lat="45.84025838107268" lon="12.314611751112386"><ele>45.0</ele><time>2026-04-03T07:34:02.999Z</time></trkpt><trkpt lat="45.84019587002932" lon="12.314571130694997"><ele>45.0</ele><time>2026-04-03T07:34:03.999Z</time></trkpt><trkpt lat="45.84010906375399" lon="12.31453125067553"><ele>45.0</ele><time>2026-04-03T07:34:05.999Z</time></trkpt><trkpt lat="45.840043729236946" lon="12.314517720942167"><ele>45.0</ele><time>2026-04-03T07:34:48Z</time></trkpt><trkpt lat="45.8399586159897" lon="12.314503913309055"><ele>45.0</ele><time>2026-04-03T07:34:51Z</time></trkpt><trkpt lat="45.83984772676885" lon="12.314475573749329"><ele>45.166666666666664</ele><time>2026-04-03T07:34:53Z</time></trkpt><trkpt lat="45.83977903179432" lon="12.31445703218835"><ele>45.333333333333336</ele><time>2026-04-03T07:34:54Z</time></trkpt><trkpt lat="45.83970358849507" lon="12.314438159318842"><ele>45.5</ele><time>2026-04-03T07:34:55Z</time></trkpt><trkpt lat="45.839621055155845" lon="12.31441893683807"><ele>45.66666666666667</ele><time>2026-04-03T07:34:56Z</time></trkpt><trkpt lat="45.839531766745345" lon="12.314397071454707"><ele>45.833333333333336</ele><time>2026-04-03T07:34:57Z</time></trkpt><trkpt lat="45.83943764858653" lon="12.314375985134202"><ele>46.0</ele><time>2026-04-03T07:34:58Z</time></trkpt><trkpt lat="45.83934246046245" lon="12.314356020180735"><ele>46.199999999999996</ele><time>2026-04-03T07:34:59Z</time></trkpt><trkpt lat="45.839244411157516" lon="12.314335370616517"><ele>46.4</ele><time>2026-04-03T07:35:00Z</time></trkpt><trkpt lat="45.83914389231798" lon="12.314316229828762"><ele>46.6</ele><time>2026-04-03T07:35:01Z</time></trkpt><trkpt lat="45.83904256300366" lon="12.314298545607317"><ele>46.8</ele><time>2026-04-03T07:35:02Z</time></trkpt><trkpt lat="45.838941949917725" lon="12.314283305436945"><ele>47.0</ele><time>2026-04-03T07:35:03Z</time></trkpt><trkpt lat="45.83884266525832" lon="12.314271876517022"><ele>47.0</ele><time>2026-04-03T07:35:04Z</time></trkpt><trkpt lat="45.83874638943449" lon="12.314263536268685"><ele>47.0</ele><time>2026-04-03T07:35:05Z</time></trkpt><trkpt lat="45.83865848505164" lon="12.314256423388931"><ele>47.0</ele><time>2026-04-03T07:35:06Z</time></trkpt><trkpt lat="45.83858078289422" lon="12.31425115610043"><ele>47.0</ele><time>2026-04-03T07:35:07Z</time></trkpt><trkpt lat="45.838515588468276" lon="12.314242922945114"><ele>47.0</ele><time>2026-04-03T07:35:08Z</time></trkpt><trkpt lat="45.83841793672865" lon="12.314228259181528"><ele>47.0</ele><time>2026-04-03T07:35:10Z</time></trkpt><trkpt lat="45.83835206907736" lon="12.31421821736388"><ele>46.8</ele><time>2026-04-03T07:35:25Z</time></trkpt><trkpt lat="45.83825302557855" lon="12.314232814874288"><ele>46.6</ele><time>2026-04-03T07:35:29Z</time></trkpt><trkpt lat="45.8381530879802" lon="12.314226957170025"><ele>46.4</ele><time>2026-04-03T07:35:30.999Z</time></trkpt><trkpt lat="45.83802539975191" lon="12.314219806320978"><ele>46.199999999999996</ele><time>2026-04-03T07:35:32.999Z</time></trkpt><trkpt lat="45.837951696639564" lon="12.314213927406657"><ele>46.0</ele><time>2026-04-03T07:35:33.999Z</time></trkpt><trkpt lat="45.837873435169186" lon="12.31420900120463"><ele>46.0</ele><time>2026-04-03T07:35:34.999Z</time></trkpt><trkpt lat="45.83779030173499" lon="12.3142055162969"><ele>46.0</ele><time>2026-04-03T07:35:35.999Z</time></trkpt><trkpt lat="45.837702217163134" lon="12.314201817141194"><ele>46.0</ele><time>2026-04-03T07:35:36.999Z</time></trkpt><trkpt lat="45.83760815732065" lon="12.31419623974243"><ele>46.0</ele><time>2026-04-03T07:35:37.999Z</time></trkpt><trkpt lat="45.83751225318478" lon="12.314191105900544"><ele>46.0</ele><time>2026-04-03T07:35:38.999Z</time></trkpt><trkpt lat="45.83741494954148" lon="12.314183993955268"><ele>46.4</ele><time>2026-04-03T07:35:39.999Z</time></trkpt><trkpt lat="45.837312957469216" lon="12.31418349050412"><ele>46.8</ele><time>2026-04-03T07:35:40.999Z</time></trkpt><trkpt lat="45.83721103689451" lon="12.314176651082295"><ele>47.199999999999996</ele><time>2026-04-03T07:35:41.999Z</time></trkpt><trkpt lat="45.83711072372805" lon="12.314160375433985"><ele>47.599999999999994</ele><time>2026-04-03T07:35:42.999Z</time></trkpt><trkpt lat="45.837008166403855" lon="12.314153044486511"><ele>48.0</ele><time>2026-04-03T07:35:43.999Z</time></trkpt><trkpt lat="45.83690487782099" lon="12.314147478434538"><ele>48.0</ele><time>2026-04-03T07:35:44.999Z</time></trkpt><trkpt lat="45.8368036302545" lon="12.314141805120961"><ele>48.0</ele><time>2026-04-03T07:35:45.999Z</time></trkpt><trkpt lat="45.83670541729172" lon="12.314134575515878"><ele>48.0</ele><time>2026-04-03T07:35:46.999Z</time></trkpt><trkpt lat="45.83660734263111" lon="12.31412790399473"><ele>48.0</ele><time>2026-04-03T07:35:47.999Z</time></trkpt><trkpt lat="45.836511222923065" lon="12.314117400548284"><ele>48.0</ele><time>2026-04-03T07:35:48.999Z</time></trkpt><trkpt lat="45.83641680960802" lon="12.314106540125266"><ele>47.833333333333336</ele><time>2026-04-03T07:35:49.999Z</time></trkpt><trkpt lat="45.836325943358105" lon="12.314092652909174"><ele>47.666666666666664</ele><time>2026-04-03T07:35:50.999Z</time></trkpt><trkpt lat="45.83624954343277" lon="12.314076024241675"><ele>47.5</ele><time>2026-04-03T07:35:51.999Z</time></trkpt><trkpt lat="45.83614241126018" lon="12.314057457300812"><ele>47.33333333333333</ele><time>2026-04-03T07:35:53.999Z</time></trkpt><trkpt lat="45.83607149669863" lon="12.314041524117963"><ele>47.166666666666664</ele><time>2026-04-03T07:36:33Z</time></trkpt><trkpt lat="45.836004363482594" lon="12.314032564943355"><ele>47.0</ele><time>2026-04-03T07:36:35Z</time></trkpt><trkpt lat="45.83589621134549" lon="12.314003747723655"><ele>47.0</ele><time>2026-04-03T07:36:37Z</time></trkpt><trkpt lat="45.83579277415677" lon="12.313974773472937"><ele>47.0</ele><time>2026-04-03T07:36:39Z</time></trkpt><trkpt lat="45.83571676056351" lon="12.313959123355323"><ele>47.0</ele><time>2026-04-03T07:36:41Z</time></trkpt><trkpt lat="45.83564388279489" lon="12.313944488346975"><ele>47.0</ele><time>2026-04-03T07:37:10Z</time></trkpt><trkpt lat="45.83555063282084" lon="12.313928996767844"><ele>47.0</ele><time>2026-04-03T07:37:13Z</time></trkpt><trkpt lat="45.83546379174056" lon="12.313905590874343"><ele>47.0</ele><time>2026-04-03T07:37:16Z</time></trkpt><trkpt lat="45.83537455186284" lon="12.31388317172995"><ele>47.0</ele><time>2026-04-03T07:38:13.999Z</time></trkpt><trkpt lat="45.83528806374057" lon="12.31385824632741"><ele>47.0</ele><time>2026-04-03T07:38:15.999Z</time></trkpt><trkpt lat="45.83516272136063" lon="12.313816950170484"><ele>47.0</ele><time>2026-04-03T07:38:17.999Z</time></trkpt><trkpt lat="45.83509136387872" lon="12.313788399608377"><ele>47.0</ele><time>2026-04-03T07:38:18.999Z</time></trkpt><trkpt lat="45.835019954906834" lon="12.313758534583787"><ele>47.0</ele><time>2026-04-03T07:38:19.999Z</time></trkpt><trkpt lat="45.83495813052451" lon="12.313733003212029"><ele>47.0</ele><time>2026-04-03T07:38:20.999Z</time></trkpt><trkpt lat="45.83487113751199" lon="12.313698196959173"><ele>47.0</ele><time>2026-04-03T07:38:23Z</time></trkpt><trkpt lat="45.83479544445245" lon="12.313668423931173"><ele>47.0</ele><time>2026-04-03T07:38:26Z</time></trkpt><trkpt lat="45.834728949157814" lon="12.313634259549513"><ele>47.0</ele><time>2026-04-03T07:38:33Z</time></trkpt><trkpt lat="45.834660244235884" lon="12.313585613324479"><ele>47.0</ele><time>2026-04-03T07:38:36Z</time></trkpt><trkpt lat="45.83459784740659" lon="12.313556282864212"><ele>47.0</ele><time>2026-04-03T07:38:38Z</time></trkpt><trkpt lat="45.83450826485271" lon="12.313549629573728"><ele>47.0</ele><time>2026-04-03T07:39:16Z</time></trkpt><trkpt lat="45.83440475314475" lon="12.313498408734912"><ele>46.75</ele><time>2026-04-03T07:39:18Z</time></trkpt><trkpt lat="45.83430373586923" lon="12.313408487932044"><ele>46.5</ele><time>2026-04-03T07:39:20Z</time></trkpt><trkpt lat="45.83423259630483" lon="12.313372404375269"><ele>46.25</ele><time>2026-04-03T07:39:22Z</time></trkpt><trkpt lat="45.834070655292855" lon="12.313305373200972"><ele>46.0</ele><time>2026-04-03T07:40:19.999Z</time></trkpt><trkpt lat="45.833980882480645" lon="12.313248334525285"><ele>46.0</ele><time>2026-04-03T07:40:21.999Z</time></trkpt><trkpt lat="45.83391964545929" lon="12.31321310536779"><ele>46.0</ele><time>2026-04-03T07:40:23.999Z</time></trkpt><trkpt lat="45.83385138045326" lon="12.313197722333738"><ele>46.0</ele><time>2026-04-03T07:40:48Z</time></trkpt><trkpt lat="45.833751318116796" lon="12.313166836811977"><ele>46.0</ele><time>2026-04-03T07:40:50Z</time></trkpt><trkpt lat="45.83363755448947" lon="12.313118358230426"><ele>46.0</ele><time>2026-04-03T07:40:52Z</time></trkpt><trkpt lat="45.83352819891149" lon="12.313072707180671"><ele>46.0</ele><time>2026-04-03T07:40:54Z</time></trkpt><trkpt lat="45.833440547361825" lon="12.313044039279273"><ele>46.0</ele><time>2026-04-03T07:40:56Z</time></trkpt><trkpt lat="45.83337588567595" lon="12.313022369462574"><ele>46.0</ele><time>2026-04-03T07:40:58Z</time></trkpt><trkpt lat="45.83330507468959" lon="12.313005268838"><ele>46.0</ele><time>2026-04-03T07:41:30Z</time></trkpt><trkpt lat="45.833230036547846" lon="12.31298582195452"><ele>46.0</ele><time>2026-04-03T07:41:32Z</time></trkpt><trkpt lat="45.833110739483445" lon="12.312944427576934"><ele>46.0</ele><time>2026-04-03T07:41:33.999Z</time></trkpt><trkpt lat="45.83303583352754" lon="12.312921709385586"><ele>46.0</ele><time>2026-04-03T07:41:34.999Z</time></trkpt><trkpt lat="45.832960273707045" lon="12.312870393981008"><ele>46.0</ele><time>2026-04-03T07:41:35.999Z</time></trkpt><trkpt lat="45.832875678309655" lon="12.312844488194216"><ele>46.0</ele><time>2026-04-03T07:41:36.999Z</time></trkpt><trkpt lat="45.83278867402384" lon="12.312817908843734"><ele>46.0</ele><time>2026-04-03T07:41:37.999Z</time></trkpt><trkpt lat="45.8327049890736" lon="12.3127923434961"><ele>46.0</ele><time>2026-04-03T07:41:38.999Z</time></trkpt><trkpt lat="45.832622765793815" lon="12.31276722464542"><ele>46.0</ele><time>2026-04-03T07:41:39.999Z</time></trkpt><trkpt lat="45.832548437743256" lon="12.312744517815316"><ele>45.833333333333336</ele><time>2026-04-03T07:41:40.999Z</time></trkpt><trkpt lat="45.8324792364241" lon="12.312747494309178"><ele>45.66666666666667</ele><time>2026-04-03T07:41:41.999Z</time></trkpt><trkpt lat="45.83237274725838" lon="12.312711353844303"><ele>45.5</ele><time>2026-04-03T07:41:43.999Z</time></trkpt><trkpt lat="45.832299276101125" lon="12.312688181318176"><ele>45.333333333333336</ele><time>2026-04-03T07:41:46.999Z</time></trkpt><trkpt lat="45.83222432742798" lon="12.312660607303165"><ele>45.166666666666664</ele><time>2026-04-03T07:42:38Z</time></trkpt><trkpt lat="45.832142906850216" lon="12.312639360023113"><ele>45.0</ele><time>2026-04-03T07:42:41Z</time></trkpt><trkpt lat="45.83204472052488" lon="12.312590386600183"><ele>45.0</ele><time>2026-04-03T07:42:43Z</time></trkpt><trkpt lat="45.8319771246598" lon="12.312569689352227"><ele>45.0</ele><time>2026-04-03T07:42:44Z</time></trkpt><trkpt lat="45.83190278587093" lon="12.31254692760127"><ele>45.0</ele><time>2026-04-03T07:42:45Z</time></trkpt><trkpt lat="45.83182096616446" lon="12.31252187521834"><ele>45.0</ele><time>2026-04-03T07:42:46Z</time></trkpt><trkpt lat="45.83173320342402" lon="12.31249500317056"><ele>45.0</ele><time>2026-04-03T07:42:47Z</time></trkpt><trkpt lat="45.83163979647382" lon="12.312465799916943"><ele>45.0</ele><time>2026-04-03T07:42:48Z</time></trkpt><trkpt lat="45.83154685848616" lon="12.31243649074014"><ele>45.166666666666664</ele><time>2026-04-03T07:42:49Z</time></trkpt><trkpt lat="45.83145692703492" lon="12.312408129716694"><ele>45.333333333333336</ele><time>2026-04-03T07:42:50Z</time></trkpt><trkpt lat="45.83137413713635" lon="12.31238202087875"><ele>45.5</ele><time>2026-04-03T07:42:51Z</time></trkpt><trkpt lat="45.831304433522796" lon="12.31236003897293"><ele>45.66666666666667</ele><time>2026-04-03T07:42:52Z</time></trkpt><trkpt lat="45.83121203497008" lon="12.312330901886517"><ele>45.833333333333336</ele><time>2026-04-03T07:42:54Z</time></trkpt><trkpt lat="45.831141730550314" lon="12.312308731553435"><ele>46.0</ele><time>2026-04-03T07:42:57Z</time></trkpt><trkpt lat="45.831066649492016" lon="12.312285644012036"><ele>46.0</ele><time>2026-04-03T07:44:00.999Z</time></trkpt><trkpt lat="45.83099173207384" lon="12.312262322329254"><ele>46.0</ele><time>2026-04-03T07:44:02.999Z</time></trkpt><trkpt lat="45.830869514098794" lon="12.312224275982448"><ele>46.0</ele><time>2026-04-03T07:44:04.999Z</time></trkpt><trkpt lat="45.83079596623483" lon="12.312201380580566"><ele>46.0</ele><time>2026-04-03T07:44:05.999Z</time></trkpt><trkpt lat="45.830716531144404" lon="12.312176652556596"><ele>46.0</ele><time>2026-04-03T07:44:06.999Z</time></trkpt><trkpt lat="45.83063091002844" lon="12.312149998770733"><ele>46.0</ele><time>2026-04-03T07:44:07.999Z</time></trkpt><trkpt lat="45.830539652862846" lon="12.312121566592975"><ele>46.0</ele><time>2026-04-03T07:44:08.999Z</time></trkpt><trkpt lat="45.83044163749808" lon="12.31209094784565"><ele>46.0</ele><time>2026-04-03T07:44:09.999Z</time></trkpt><trkpt lat="45.83033584911524" lon="12.312057900907694"><ele>46.0</ele><time>2026-04-03T07:44:10.999Z</time></trkpt><trkpt lat="45.83022644601545" lon="12.312023724821715"><ele>46.0</ele><time>2026-04-03T07:44:11.999Z</time></trkpt><trkpt lat="45.830113356097314" lon="12.311988396974616"><ele>46.0</ele><time>2026-04-03T07:44:12.999Z</time></trkpt><trkpt lat="45.82999820618808" lon="12.311952535838959"><ele>46.0</ele><time>2026-04-03T07:44:13.999Z</time></trkpt><trkpt lat="45.8298798705469" lon="12.311915768900574"><ele>46.0</ele><time>2026-04-03T07:44:14.999Z</time></trkpt><trkpt lat="45.82975815179223" lon="12.311877950839571"><ele>46.0</ele><time>2026-04-03T07:44:15.999Z</time></trkpt><trkpt lat="45.829633015570785" lon="12.311839070971258"><ele>46.0</ele><time>2026-04-03T07:44:16.999Z</time></trkpt><trkpt lat="45.82950772163011" lon="12.311800142084056"><ele>46.0</ele><time>2026-04-03T07:44:17.999Z</time></trkpt><trkpt lat="45.829385004421624" lon="12.31176201378599"><ele>46.0</ele><time>2026-04-03T07:44:18.999Z</time></trkpt><trkpt lat="45.82926530512614" lon="12.31172482318234"><ele>46.0</ele><time>2026-04-03T07:44:19.999Z</time></trkpt><trkpt lat="45.82914746585263" lon="12.311688210464553"><ele>46.0</ele><time>2026-04-03T07:44:20.999Z</time></trkpt><trkpt lat="45.829031477468995" lon="12.311652172820335"><ele>46.0</ele><time>2026-04-03T07:44:21.999Z</time></trkpt><trkpt lat="45.82891710810904" lon="12.311616638215916"><ele>46.0</ele><time>2026-04-03T07:44:22.999Z</time></trkpt><trkpt lat="45.82880525951298" lon="12.311581886814192"><ele>46.0</ele><time>2026-04-03T07:44:23.999Z</time></trkpt><trkpt lat="45.82869876465289" lon="12.311549917448254"><ele>46.0</ele><time>2026-04-03T07:44:24.999Z</time></trkpt><trkpt lat="45.828602577731324" lon="12.3115205296869"><ele>46.0</ele><time>2026-04-03T07:44:25.999Z</time></trkpt><trkpt lat="45.8285076529848" lon="12.311491527483012"><ele>46.199999999999996</ele><time>2026-04-03T07:44:26.999Z</time></trkpt><trkpt lat="45.82841355520876" lon="12.311462777971263"><ele>46.4</ele><time>2026-04-03T07:44:27.999Z</time></trkpt><trkpt lat="45.82831628116515" lon="12.311433058036089"><ele>46.6</ele><time>2026-04-03T07:44:28.999Z</time></trkpt><trkpt lat="45.828216198297106" lon="12.31140128303388"><ele>46.8</ele><time>2026-04-03T07:44:29.999Z</time></trkpt><trkpt lat="45.82811222926439" lon="12.3113679632236"><ele>47.0</ele><time>2026-04-03T07:44:30.999Z</time></trkpt><trkpt lat="45.828003548470626" lon="12.311332939364616"><ele>47.0</ele><time>2026-04-03T07:44:31.999Z</time></trkpt><trkpt lat="45.827893095851444" lon="12.311298167567356"><ele>47.0</ele><time>2026-04-03T07:44:32.999Z</time></trkpt><trkpt lat="45.827783331242216" lon="12.311265046184053"><ele>47.0</ele><time>2026-04-03T07:44:33.999Z</time></trkpt><trkpt lat="45.8276768518078" lon="12.311233593842328"><ele>47.0</ele><time>2026-04-03T07:44:34.999Z</time></trkpt><trkpt lat="45.82757913851648" lon="12.311204730784372"><ele>47.0</ele><time>2026-04-03T07:44:35.999Z</time></trkpt><trkpt lat="45.82749577292323" lon="12.311180105884132"><ele>47.0</ele><time>2026-04-03T07:44:36.999Z</time></trkpt><trkpt lat="45.82742777750846" lon="12.311160021120777"><ele>47.0</ele><time>2026-04-03T07:44:37.999Z</time></trkpt><trkpt lat="45.827350435272685" lon="12.311138363391958"><ele>47.0</ele><time>2026-04-03T07:44:40Z</time></trkpt><trkpt lat="45.82728161044889" lon="12.311136743258578"><ele>47.0</ele><time>2026-04-03T07:44:58Z</time></trkpt><trkpt lat="45.827214873937194" lon="12.311120780901764"><ele>47.0</ele><time>2026-04-03T07:45:00Z</time></trkpt><trkpt lat="45.82712900828436" lon="12.311098264584619"><ele>47.0</ele><time>2026-04-03T07:45:02Z</time></trkpt><trkpt lat="45.827015914691515" lon="12.3110688209933"><ele>47.0</ele><time>2026-04-03T07:45:04Z</time></trkpt><trkpt lat="45.82691346360042" lon="12.311038294620348"><ele>47.0</ele><time>2026-04-03T07:45:06Z</time></trkpt><trkpt lat="45.82684619475519" lon="12.311019126110052"><ele>47.0</ele><time>2026-04-03T07:45:08Z</time></trkpt><trkpt lat="45.82677574919403" lon="12.311010059229645"><ele>47.0</ele><time>2026-04-03T07:45:26Z</time></trkpt><trkpt lat="45.82668372058723" lon="12.31099608304805"><ele>47.0</ele><time>2026-04-03T07:45:28Z</time></trkpt><trkpt lat="45.82662065236364" lon="12.310979491737632"><ele>47.0</ele><time>2026-04-03T07:45:29Z</time></trkpt><trkpt lat="45.82654916758724" lon="12.310963551784692"><ele>47.2</ele><time>2026-04-03T07:45:30Z</time></trkpt><trkpt lat="45.82647115774744" lon="12.310942373760454"><ele>47.400000000000006</ele><time>2026-04-03T07:45:31Z</time></trkpt><trkpt lat="45.82638647681947" lon="12.310923478927803"><ele>47.599999999999994</ele><time>2026-04-03T07:45:32Z</time></trkpt><trkpt lat="45.82629411726993" lon="12.310903367724055"><ele>47.8</ele><time>2026-04-03T07:45:33Z</time></trkpt><trkpt lat="45.82619627551423" lon="12.310881392477578"><ele>48.0</ele><time>2026-04-03T07:45:33.999Z</time></trkpt><trkpt lat="45.82609757818998" lon="12.310860683719998"><ele>48.0</ele><time>2026-04-03T07:45:34.999Z</time></trkpt><trkpt lat="45.825997980919745" lon="12.3108393515877"><ele>48.0</ele><time>2026-04-03T07:45:35.999Z</time></trkpt><trkpt lat="45.82589664356038" lon="12.3108186171349"><ele>48.0</ele><time>2026-04-03T07:45:36.999Z</time></trkpt><trkpt lat="45.82579587805493" lon="12.310798545699614"><ele>48.0</ele><time>2026-04-03T07:45:37.999Z</time></trkpt><trkpt lat="45.825695460788396" lon="12.310778411028737"><ele>48.0</ele><time>2026-04-03T07:45:38.999Z</time></trkpt><trkpt lat="45.82559546486986" lon="12.310756017417006"><ele>48.0</ele><time>2026-04-03T07:45:39.999Z</time></trkpt><trkpt lat="45.82549567227468" lon="12.310733086519809"><ele>48.0</ele><time>2026-04-03T07:45:40.999Z</time></trkpt><trkpt lat="45.82539512280622" lon="12.310711132624467"><ele>48.0</ele><time>2026-04-03T07:45:41.999Z</time></trkpt><trkpt lat="45.82529371483454" lon="12.31068823871427"><ele>48.0</ele><time>2026-04-03T07:45:42.999Z</time></trkpt><trkpt lat="45.825190368769746" lon="12.310666068473267"><ele>48.0</ele><time>2026-04-03T07:45:43.999Z</time></trkpt><trkpt lat="45.825086037615584" lon="12.310645244812202"><ele>48.0</ele><time>2026-04-03T07:45:44.999Z</time></trkpt><trkpt lat="45.8249808368451" lon="12.310624637415982"><ele>48.0</ele><time>2026-04-03T07:45:45.999Z</time></trkpt><trkpt lat="45.824875380411626" lon="12.310601190071647"><ele>48.0</ele><time>2026-04-03T07:45:46.999Z</time></trkpt><trkpt lat="45.82476897710336" lon="12.310577053082199"><ele>48.0</ele><time>2026-04-03T07:45:47.999Z</time></trkpt><trkpt lat="45.824663359145546" lon="12.310553403729136"><ele>48.0</ele><time>2026-04-03T07:45:48.999Z</time></trkpt><trkpt lat="45.82456023856111" lon="12.310529769812751"><ele>48.0</ele><time>2026-04-03T07:45:49.999Z</time></trkpt><trkpt lat="45.82446333735114" lon="12.310509627948555"><ele>48.0</ele><time>2026-04-03T07:45:50.999Z</time></trkpt><trkpt lat="45.824380384419314" lon="12.31049145084093"><ele>48.0</ele><time>2026-04-03T07:45:51.999Z</time></trkpt><trkpt lat="45.82431330723055" lon="12.310476339801895"><ele>48.0</ele><time>2026-04-03T07:45:52.999Z</time></trkpt><trkpt lat="45.82422453384741" lon="12.310456519496821"><ele>48.0</ele><time>2026-04-03T07:45:54.999Z</time></trkpt><trkpt lat="45.824137766868944" lon="12.31044063721739"><ele>48.0</ele><time>2026-04-03T07:46:10.999Z</time></trkpt><trkpt lat="45.82405271940804" lon="12.310422933483835"><ele>48.2</ele><time>2026-04-03T07:46:12.999Z</time></trkpt><trkpt lat="45.82393733435001" lon="12.310396088179704"><ele>48.4</ele><time>2026-04-03T07:46:14.999Z</time></trkpt><trkpt lat="45.82385048990551" lon="12.310373239353948"><ele>48.6</ele><time>2026-04-03T07:46:16.999Z</time></trkpt><trkpt lat="45.82376598695724" lon="12.310361323291687"><ele>48.800000000000004</ele><time>2026-04-03T07:46:49Z</time></trkpt><trkpt lat="45.8236730027626" lon="12.310342416016264"><ele>49.0</ele><time>2026-04-03T07:46:51Z</time></trkpt><trkpt lat="45.82361178812771" lon="12.310304825846634"><ele>48.99999999999999</ele><time>2026-04-03T07:46:52Z</time></trkpt><trkpt lat="45.8235389321402" lon="12.310288753831559"><ele>49.0</ele><time>2026-04-03T07:46:53Z</time></trkpt><trkpt lat="45.82346200574313" lon="12.310271783917718"><ele>49.0</ele><time>2026-04-03T07:46:54Z</time></trkpt><trkpt lat="45.82338593434297" lon="12.310255002614708"><ele>49.0</ele><time>2026-04-03T07:46:55Z</time></trkpt><trkpt lat="45.823306690607176" lon="12.310237285560662"><ele>48.99999999999999</ele><time>2026-04-03T07:46:56Z</time></trkpt><trkpt lat="45.823227497315116" lon="12.310219494935518"><ele>49.0</ele><time>2026-04-03T07:46:57Z</time></trkpt><trkpt lat="45.823149844025735" lon="12.310225643573755"><ele>48.99999999999999</ele><time>2026-04-03T07:46:58Z</time></trkpt><trkpt lat="45.82307605976149" lon="12.310208756260431"><ele>49.0</ele><time>2026-04-03T07:46:59Z</time></trkpt><trkpt lat="45.82301191880773" lon="12.310193266268307"><ele>49.0</ele><time>2026-04-03T07:47:00Z</time></trkpt><trkpt lat="45.82292319959087" lon="12.310171788334905"><ele>49.0</ele><time>2026-04-03T07:47:02Z</time></trkpt><trkpt lat="45.822855946450865" lon="12.310158165999002"><ele>48.99999999999999</ele><time>2026-04-03T07:47:21Z</time></trkpt><trkpt lat="45.82278052586738" lon="12.310140759715562"><ele>49.0</ele><time>2026-04-03T07:47:24Z</time></trkpt><trkpt lat="45.82270355452998" lon="12.310102904754729"><ele>48.83333333333333</ele><time>2026-04-03T07:47:53.999Z</time></trkpt><trkpt lat="45.822627009637976" lon="12.3100860508179"><ele>48.666666666666664</ele><time>2026-04-03T07:47:55.999Z</time></trkpt><trkpt lat="45.822558395081266" lon="12.310070943050203"><ele>48.5</ele><time>2026-04-03T07:47:58.999Z</time></trkpt><trkpt lat="45.822485607837876" lon="12.310081076161708"><ele>48.33333333333333</ele><time>2026-04-03T07:48:35.999Z</time></trkpt><trkpt lat="45.82240919468262" lon="12.310067137574064"><ele>48.166666666666664</ele><time>2026-04-03T07:48:37.999Z</time></trkpt><trkpt lat="45.822315403666884" lon="12.310047999849997"><ele>48.0</ele><time>2026-04-03T07:48:39.999Z</time></trkpt><trkpt lat="45.82220778729011" lon="12.310030666048617"><ele>48.0</ele><time>2026-04-03T07:48:41.999Z</time></trkpt><trkpt lat="45.82211662137058" lon="12.309973162635323"><ele>48.0</ele><time>2026-04-03T07:48:43.999Z</time></trkpt><trkpt lat="45.82204673850495" lon="12.309937744245511"><ele>48.0</ele><time>2026-04-03T07:48:46.999Z</time></trkpt><trkpt lat="45.822061981986835" lon="12.309819960219272"><ele>48.0</ele><time>2026-04-03T07:48:49.999Z</time></trkpt><trkpt lat="45.82207535567501" lon="12.30971962206051"><ele>48.0</ele><time>2026-04-03T07:48:52Z</time></trkpt><trkpt lat="45.822088558561376" lon="12.309583366346015"><ele>48.0</ele><time>2026-04-03T07:48:54Z</time></trkpt><trkpt lat="45.822102545264066" lon="12.309450414208728"><ele>48.166666666666664</ele><time>2026-04-03T07:48:56Z</time></trkpt><trkpt lat="45.82212662290008" lon="12.309363995075524"><ele>48.33333333333333</ele><time>2026-04-03T07:48:58Z</time></trkpt><trkpt lat="45.8221261959439" lon="12.309210470244093"><ele>48.5</ele><time>2026-04-03T07:49:43.999Z</time></trkpt><trkpt lat="45.82214488134753" lon="12.30910764371758"><ele>48.666666666666664</ele><time>2026-04-03T07:49:49.999Z</time></trkpt><trkpt lat="45.82216536725037" lon="12.309019577063879"><ele>48.83333333333333</ele><time>2026-04-03T07:49:53.999Z</time></trkpt><trkpt lat="45.82218064482487" lon="12.30891951295215"><ele>49.0</ele><time>2026-04-03T07:51:09Z</time></trkpt><trkpt lat="45.822198822146696" lon="12.308780088014654"><ele>48.99999999999999</ele><time>2026-04-03T07:51:12Z</time></trkpt><trkpt lat="45.82221235174663" lon="12.308657220993963"><ele>49.0</ele><time>2026-04-03T07:51:14Z</time></trkpt><trkpt lat="45.822229110368845" lon="12.308515572322657"><ele>49.0</ele><time>2026-04-03T07:51:16Z</time></trkpt><trkpt lat="45.82224798616262" lon="12.308396855232619"><ele>49.0</ele><time>2026-04-03T07:51:18Z</time></trkpt><trkpt lat="45.82220374173107" lon="12.308308646139174"><ele>48.99999999999999</ele><time>2026-04-03T07:51:22Z</time></trkpt><trkpt lat="45.82214279670696" lon="12.308332356149549"><ele>49.0</ele><time>2026-04-03T07:51:31Z</time></trkpt><trkpt lat="45.822173179951925" lon="12.308434520258837"><ele>49.0</ele><time>2026-04-03T07:51:47.999Z</time></trkpt><trkpt lat="45.822180472887766" lon="12.308541484622896"><ele>49.0</ele><time>2026-04-03T07:51:49.999Z</time></trkpt><trkpt lat="45.82219524253745" lon="12.30865862509763"><ele>49.0</ele><time>2026-04-03T07:51:51.999Z</time></trkpt><trkpt lat="45.822188801150325" lon="12.308815291197407"><ele>49.0</ele><time>2026-04-03T07:51:53.999Z</time></trkpt><trkpt lat="45.82213884981039" lon="12.308959321225977"><ele>49.0</ele><time>2026-04-03T07:51:55.999Z</time></trkpt><trkpt lat="45.822123474992715" lon="12.30909471953782"><ele>48.99999999999999</ele><time>2026-04-03T07:51:57.999Z</time></trkpt><trkpt lat="45.822120004678766" lon="12.309188006614152"><ele>49.0</ele><time>2026-04-03T07:51:59.999Z</time></trkpt><trkpt lat="45.82211434410116" lon="12.309295449644187"><ele>49.0</ele><time>2026-04-03T07:52:06.999Z</time></trkpt><trkpt lat="45.8220881548388" lon="12.309405765489968"><ele>49.0</ele><time>2026-04-03T07:52:10.999Z</time></trkpt><trkpt lat="45.82207514516252" lon="12.309520334628264"><ele>48.99999999999999</ele><time>2026-04-03T07:52:12.999Z</time></trkpt><trkpt lat="45.82205617590944" lon="12.309687387178537"><ele>49.0</ele><time>2026-04-03T07:52:14.999Z</time></trkpt><trkpt lat="45.82203752674223" lon="12.30985162036805"><ele>48.83333333333333</ele><time>2026-04-03T07:52:16.999Z</time></trkpt><trkpt lat="45.8220404265497" lon="12.309947817926652"><ele>48.666666666666664</ele><time>2026-04-03T07:52:18.999Z</time></trkpt><trkpt lat="45.82194261147849" lon="12.30999482771835"><ele>48.5</ele><time>2026-04-03T07:52:24.999Z</time></trkpt><trkpt lat="45.821863990541814" lon="12.309953359365542"><ele>48.33333333333333</ele><time>2026-04-03T07:52:26.999Z</time></trkpt><trkpt lat="45.82175589741766" lon="12.309924679024904"><ele>48.166666666666664</ele><time>2026-04-03T07:52:28.999Z</time></trkpt><trkpt lat="45.82168968494218" lon="12.309911147949258"><ele>48.0</ele><time>2026-04-03T07:52:29.999Z</time></trkpt><trkpt lat="45.82161965342658" lon="12.309864581136493"><ele>47.666666666666664</ele><time>2026-04-03T07:52:30.999Z</time></trkpt><trkpt lat="45.82153999766394" lon="12.309846969069651"><ele>47.333333333333336</ele><time>2026-04-03T07:52:31.999Z</time></trkpt><trkpt lat="45.82145958995051" lon="12.309829117128364"><ele>47.0</ele><time>2026-04-03T07:52:32.999Z</time></trkpt><trkpt lat="45.821375380263305" lon="12.309810418937058"><ele>46.66666666666667</ele><time>2026-04-03T07:52:33.999Z</time></trkpt><trkpt lat="45.82129131779112" lon="12.309791753431732"><ele>46.333333333333336</ele><time>2026-04-03T07:52:34.999Z</time></trkpt><trkpt lat="45.82120787633928" lon="12.309773225816691"><ele>46.0</ele><time>2026-04-03T07:52:35.999Z</time></trkpt><trkpt lat="45.821129732237004" lon="12.309756057860357"><ele>46.4</ele><time>2026-04-03T07:52:36.999Z</time></trkpt><trkpt lat="45.82105337223979" lon="12.30973969382188"><ele>46.8</ele><time>2026-04-03T07:52:37.999Z</time></trkpt><trkpt lat="45.82098155254944" lon="12.309723877199575"><ele>47.199999999999996</ele><time>2026-04-03T07:52:38.999Z</time></trkpt><trkpt lat="45.8208751444609" lon="12.309700443335878"><ele>47.599999999999994</ele><time>2026-04-03T07:52:40.999Z</time></trkpt><trkpt lat="45.82084850263841" lon="12.30952975487911"><ele>48.0</ele><time>2026-04-03T07:52:43.999Z</time></trkpt><trkpt lat="45.820873527790425" lon="12.309415425827275"><ele>48.0</ele><time>2026-04-03T07:52:45.999Z</time></trkpt><trkpt lat="45.82088393141279" lon="12.309303618666997"><ele>48.0</ele><time>2026-04-03T07:52:47.999Z</time></trkpt><trkpt lat="45.82090261461207" lon="12.309210066664686"><ele>48.0</ele><time>2026-04-03T07:53:41.999Z</time></trkpt><trkpt lat="45.820931518006496" lon="12.309105665254222"><ele>48.0</ele><time>2026-04-03T07:53:45.999Z</time></trkpt><trkpt lat="45.82091756827642" lon="12.308998800483366"><ele>48.0</ele><time>2026-04-03T07:53:49.999Z</time></trkpt><trkpt lat="45.820919484233436" lon="12.30888129721231"><ele>48.0</ele><time>2026-04-03T07:53:52.999Z</time></trkpt><trkpt lat="45.82093336405552" lon="12.308517093295688"><ele>47.833333333333336</ele><time>2026-04-03T07:55:24Z</time></trkpt><trkpt lat="45.82094972629478" lon="12.308387222051126"><ele>47.666666666666664</ele><time>2026-04-03T07:55:26Z</time></trkpt><trkpt lat="45.82101403375492" lon="12.308357606693935"><ele>47.5</ele><time>2026-04-03T07:56:09.999Z</time></trkpt><trkpt lat="45.821082195584" lon="12.30838201536746"><ele>47.33333333333333</ele><time>2026-04-03T07:56:13.999Z</time></trkpt><trkpt lat="45.82116328272832" lon="12.308404079241136"><ele>47.166666666666664</ele><time>2026-04-03T07:56:16.999Z</time></trkpt><trkpt lat="45.821232132298995" lon="12.308426284527476"><ele>47.0</ele><time>2026-04-03T07:56:18.999Z</time></trkpt><trkpt lat="45.82130628646314" lon="12.308449794072386"><ele>47.0</ele><time>2026-04-03T07:56:21.999Z</time></trkpt><trkpt lat="45.82138060322324" lon="12.308469284178104"><ele>47.0</ele><time>2026-04-03T07:56:24.999Z</time></trkpt><trkpt lat="45.821458047075325" lon="12.30848924678895"><ele>47.0</ele><time>2026-04-03T07:56:27.999Z</time></trkpt><trkpt lat="45.82152974384837" lon="12.3085149686795"><ele>47.0</ele><time>2026-04-03T07:56:31.999Z</time></trkpt><trkpt lat="45.82159178663857" lon="12.308539979535825"><ele>47.0</ele><time>2026-04-03T07:56:36.999Z</time></trkpt><trkpt lat="45.82167164329283" lon="12.308526469232048"><ele>47.0</ele><time>2026-04-03T07:56:45.999Z</time></trkpt><trkpt lat="45.82169244750821" lon="12.308417592396228"><ele>47.0</ele><time>2026-04-03T07:56:49.999Z</time></trkpt><trkpt lat="45.82171270448741" lon="12.308323228613542"><ele>47.0</ele><time>2026-04-03T07:56:52.999Z</time></trkpt><trkpt lat="45.82172662066743" lon="12.3082300175449"><ele>47.0</ele><time>2026-04-03T07:56:55.999Z</time></trkpt><trkpt lat="45.82169597791293" lon="12.308319751382518"><ele>47.0</ele><time>2026-04-03T07:57:56.999Z</time></trkpt><trkpt lat="45.821694710811684" lon="12.308425966231953"><ele>47.0</ele><time>2026-04-03T07:58:23.999Z</time></trkpt><trkpt lat="45.821693327206226" lon="12.308552231570165"><ele>47.0</ele><time>2026-04-03T07:58:26.999Z</time></trkpt><trkpt lat="45.82159235754484" lon="12.308524397542275"><ele>47.0</ele><time>2026-04-03T07:59:23Z</time></trkpt><trkpt lat="45.821509911540325" lon="12.308497342071508"><ele>47.0</ele><time>2026-04-03T07:59:29Z</time></trkpt><trkpt lat="45.82142760550851" lon="12.30848217825092"><ele>47.0</ele><time>2026-04-03T07:59:31Z</time></trkpt><trkpt lat="45.82132889816486" lon="12.308450452262901"><ele>47.0</ele><time>2026-04-03T07:59:33Z</time></trkpt><trkpt lat="45.821247308713474" lon="12.308426917382407"><ele>47.0</ele><time>2026-04-03T07:59:35Z</time></trkpt><trkpt lat="45.821140650159535" lon="12.308427033473496"><ele>47.0</ele><time>2026-04-03T08:00:21.999Z</time></trkpt><trkpt lat="45.821053673576685" lon="12.308421592618943"><ele>47.0</ele><time>2026-04-03T08:00:23.999Z</time></trkpt><trkpt lat="45.82098956573107" lon="12.308385644745899"><ele>47.0</ele><time>2026-04-03T08:00:25.999Z</time></trkpt><trkpt lat="45.820975162510884" lon="12.30827637666354"><ele>47.0</ele><time>2026-04-03T08:00:28Z</time></trkpt><trkpt lat="45.820989375401496" lon="12.308181286462908"><ele>47.0</ele><time>2026-04-03T08:00:30Z</time></trkpt><trkpt lat="45.821001338391945" lon="12.308070982458968"><ele>47.0</ele><time>2026-04-03T08:00:32Z</time></trkpt><trkpt lat="45.821015437143934" lon="12.307957709647729"><ele>47.14285714285714</ele><time>2026-04-03T08:00:34Z</time></trkpt><trkpt lat="45.82102900171669" lon="12.307864763669452"><ele>47.285714285714285</ele><time>2026-04-03T08:00:36Z</time></trkpt><trkpt lat="45.82102596539878" lon="12.307958352330095"><ele>47.42857142857143</ele><time>2026-04-03T08:02:11Z</time></trkpt><trkpt lat="45.820983905109664" lon="12.308040466597472"><ele>47.57142857142857</ele><time>2026-04-03T08:02:17Z</time></trkpt><trkpt lat="45.820918884305456" lon="12.308024462282399"><ele>47.714285714285715</ele><time>2026-04-03T08:02:19Z</time></trkpt><trkpt lat="45.82084963701109" lon="12.308001843768611"><ele>47.857142857142854</ele><time>2026-04-03T08:02:21Z</time></trkpt><trkpt lat="45.8207824126922" lon="12.30798425256152"><ele>48.0</ele><time>2026-04-03T08:02:23Z</time></trkpt><trkpt lat="45.82069171866928" lon="12.307954082486386"><ele>47.666666666666664</ele><time>2026-04-03T08:02:26Z</time></trkpt><trkpt lat="45.82062817169545" lon="12.307935666230001"><ele>47.333333333333336</ele><time>2026-04-03T08:02:28Z</time></trkpt><trkpt lat="45.820549693062866" lon="12.307919250187265"><ele>47.0</ele><time>2026-04-03T08:02:31Z</time></trkpt><trkpt lat="45.82048788383822" lon="12.307898798011193"><ele>46.66666666666667</ele><time>2026-04-03T08:02:35Z</time></trkpt><trkpt lat="45.820588376874525" lon="12.30791254076802"><ele>46.333333333333336</ele><time>2026-04-03T08:04:44Z</time></trkpt><trkpt lat="45.82069132918302" lon="12.307938491296124"><ele>46.0</ele><time>2026-04-03T08:04:46Z</time></trkpt><trkpt lat="45.8207599182112" lon="12.30795747528792"><ele>46.0</ele><time>2026-04-03T08:04:48Z</time></trkpt><trkpt lat="45.82093037947379" lon="12.308016517733599"><ele>46.0</ele><time>2026-04-03T08:05:06Z</time></trkpt><trkpt lat="45.82099398618971" lon="12.308037593606706"><ele>46.0</ele><time>2026-04-03T08:05:08Z</time></trkpt><trkpt lat="45.821027338872646" lon="12.308144018859393"><ele>46.0</ele><time>2026-04-03T08:05:10.999Z</time></trkpt><trkpt lat="45.821000842430784" lon="12.308243163639752"><ele>46.0</ele><time>2026-04-03T08:05:12.999Z</time></trkpt><trkpt lat="45.8209768485971" lon="12.308371316042415"><ele>46.0</ele><time>2026-04-03T08:05:14.999Z</time></trkpt><trkpt lat="45.82096442438159" lon="12.308548455277077"><ele>46.0</ele><time>2026-04-03T08:05:16.999Z</time></trkpt><trkpt lat="45.8209483387365" lon="12.308643877718053"><ele>46.0</ele><time>2026-04-03T08:05:17.999Z</time></trkpt><trkpt lat="45.82091435322749" lon="12.308739948475308"><ele>46.0</ele><time>2026-04-03T08:05:18.999Z</time></trkpt><trkpt lat="45.82090248030164" lon="12.308847435932588"><ele>46.0</ele><time>2026-04-03T08:05:19.999Z</time></trkpt><trkpt lat="45.82090618213062" lon="12.308965106161974"><ele>46.0</ele><time>2026-04-03T08:05:20.999Z</time></trkpt><trkpt lat="45.820876952490465" lon="12.309078543486601"><ele>46.333333333333336</ele><time>2026-04-03T08:05:21.999Z</time></trkpt><trkpt lat="45.820880183410324" lon="12.309200943767644"><ele>46.66666666666667</ele><time>2026-04-03T08:05:22.999Z</time></trkpt><trkpt lat="45.820851668091585" lon="12.30930744725494"><ele>47.0</ele><time>2026-04-03T08:05:23.999Z</time></trkpt><trkpt lat="45.82084040268413" lon="12.309409434894443"><ele>47.333333333333336</ele><time>2026-04-03T08:05:24.999Z</time></trkpt><trkpt lat="45.8208303425451" lon="12.309500510920426"><ele>47.666666666666664</ele><time>2026-04-03T08:05:25.999Z</time></trkpt><trkpt lat="45.820815984628716" lon="12.309630495272376"><ele>48.0</ele><time>2026-04-03T08:05:27.999Z</time></trkpt><trkpt lat="45.820783351711306" lon="12.30971128229083"><ele>48.0</ele><time>2026-04-03T08:05:32.999Z</time></trkpt><trkpt lat="45.82069939981076" lon="12.309661736876496"><ele>48.0</ele><time>2026-04-03T08:05:34.999Z</time></trkpt><trkpt lat="45.820599321796" lon="12.309657947248983"><ele>48.0</ele><time>2026-04-03T08:05:37Z</time></trkpt><trkpt lat="45.820476918966776" lon="12.309628319122552"><ele>48.0</ele><time>2026-04-03T08:05:39Z</time></trkpt><trkpt lat="45.820365269930925" lon="12.309606878763502"><ele>48.0</ele><time>2026-04-03T08:05:41Z</time></trkpt><trkpt lat="45.820301740339836" lon="12.309584640485419"><ele>48.0</ele><time>2026-04-03T08:05:44Z</time></trkpt><trkpt lat="45.82023694613108" lon="12.309592571452201"><ele>48.0</ele><time>2026-04-03T08:06:04Z</time></trkpt><trkpt lat="45.82016023063809" lon="12.309577027371196"><ele>48.0</ele><time>2026-04-03T08:06:06Z</time></trkpt><trkpt lat="45.82007742504972" lon="12.309554823106064"><ele>48.0</ele><time>2026-04-03T08:06:08Z</time></trkpt><trkpt lat="45.81998231681569" lon="12.30953070339986"><ele>48.0</ele><time>2026-04-03T08:06:10Z</time></trkpt><trkpt lat="45.8198966500015" lon="12.309505893404566"><ele>48.0</ele><time>2026-04-03T08:06:12Z</time></trkpt><trkpt lat="45.81977085023393" lon="12.30946962402131"><ele>48.166666666666664</ele><time>2026-04-03T08:07:35.999Z</time></trkpt><trkpt lat="45.819706189865926" lon="12.309473906140393"><ele>48.33333333333333</ele><time>2026-04-03T08:07:49Z</time></trkpt><trkpt lat="45.81964169301729" lon="12.309468566701838"><ele>48.5</ele><time>2026-04-03T08:07:51Z</time></trkpt><trkpt lat="45.8195435481713" lon="12.309447663336075"><ele>48.666666666666664</ele><time>2026-04-03T08:07:53Z</time></trkpt><trkpt lat="45.8194466161058" lon="12.30939177662439"><ele>48.83333333333333</ele><time>2026-04-03T08:07:55Z</time></trkpt><trkpt lat="45.81936935422781" lon="12.309331216260976"><ele>49.0</ele><time>2026-04-03T08:07:57Z</time></trkpt><trkpt lat="45.819310041600794" lon="12.309277082334603"><ele>49.2</ele><time>2026-04-03T08:07:59Z</time></trkpt><trkpt lat="45.819246271929664" lon="12.309210320130015"><ele>49.400000000000006</ele><time>2026-04-03T08:08:01Z</time></trkpt><trkpt lat="45.819135050467466" lon="12.309164400818656"><ele>49.6</ele><time>2026-04-03T08:08:04Z</time></trkpt><trkpt lat="45.81908101521801" lon="12.309309910228604"><ele>49.8</ele><time>2026-04-03T08:08:06Z</time></trkpt><trkpt lat="45.81908774437403" lon="12.309450452724326"><ele>50.0</ele><time>2026-04-03T08:08:08Z</time></trkpt><trkpt lat="45.81916480080761" lon="12.309573443275028"><ele>50.00000000000001</ele><time>2026-04-03T08:08:10Z</time></trkpt><trkpt lat="45.81915308845436" lon="12.309734280045095"><ele>50.0</ele><time>2026-04-03T08:08:12Z</time></trkpt><trkpt lat="45.81914497415844" lon="12.309891870638523"><ele>50.0</ele><time>2026-04-03T08:08:14Z</time></trkpt><trkpt lat="45.81913865733444" lon="12.309982272845641"><ele>50.0</ele><time>2026-04-03T08:08:15Z</time></trkpt><trkpt lat="45.819112001050314" lon="12.310080255245014"><ele>50.00000000000001</ele><time>2026-04-03T08:08:16Z</time></trkpt><trkpt lat="45.81911486420018" lon="12.310193083281382"><ele>50.0</ele><time>2026-04-03T08:08:17Z</time></trkpt><trkpt lat="45.81910318684004" lon="12.310312568756997"><ele>50.0</ele><time>2026-04-03T08:08:18Z</time></trkpt><trkpt lat="45.819088789904015" lon="12.310443819027078"><ele>50.0</ele><time>2026-04-03T08:08:19Z</time></trkpt><trkpt lat="45.81905765283406" lon="12.31057645298245"><ele>50.0</ele><time>2026-04-03T08:08:20Z</time></trkpt><trkpt lat="45.81905790499016" lon="12.310723676702192"><ele>50.0</ele><time>2026-04-03T08:08:21Z</time></trkpt><trkpt lat="45.81904149615777" lon="12.310870898403923"><ele>50.0</ele><time>2026-04-03T08:08:22Z</time></trkpt><trkpt lat="45.81902478851791" lon="12.311022236872585"><ele>50.0</ele><time>2026-04-03T08:08:23Z</time></trkpt><trkpt lat="45.81900735568086" lon="12.311179841859024"><ele>50.0</ele><time>2026-04-03T08:08:24Z</time></trkpt><trkpt lat="45.818989979981154" lon="12.311342079514294"><ele>50.0</ele><time>2026-04-03T08:08:25Z</time></trkpt><trkpt lat="45.818970391373426" lon="12.311508534812157"><ele>50.0</ele><time>2026-04-03T08:08:26Z</time></trkpt><trkpt lat="45.81893419685715" lon="12.311674863246994"><ele>49.5</ele><time>2026-04-03T08:08:27Z</time></trkpt><trkpt lat="45.8189143303835" lon="12.311851303037459"><ele>49.0</ele><time>2026-04-03T08:08:28Z</time></trkpt><trkpt lat="45.81889443969996" lon="12.31202795743792"><ele>48.5</ele><time>2026-04-03T08:08:29Z</time></trkpt><trkpt lat="45.818874777496106" lon="12.312204252603633"><ele>48.0</ele><time>2026-04-03T08:08:30Z</time></trkpt><trkpt lat="45.81886731523568" lon="12.312390924978235"><ele>48.0</ele><time>2026-04-03T08:08:31Z</time></trkpt><trkpt lat="45.818849890426335" lon="12.312574289003424"><ele>48.0</ele><time>2026-04-03T08:08:32Z</time></trkpt><trkpt lat="45.818813193289074" lon="12.312757075507136"><ele>48.0</ele><time>2026-04-03T08:08:33Z</time></trkpt><trkpt lat="45.81879220042676" lon="12.31294545938255"><ele>48.0</ele><time>2026-04-03T08:08:34Z</time></trkpt><trkpt lat="45.818770977616246" lon="12.313135906667473"><ele>47.75</ele><time>2026-04-03T08:08:35Z</time></trkpt><trkpt lat="45.81874928449233" lon="12.313328585610929"><ele>47.5</ele><time>2026-04-03T08:08:36Z</time></trkpt><trkpt lat="45.818727496164485" lon="12.313524925717266"><ele>47.25</ele><time>2026-04-03T08:08:37Z</time></trkpt><trkpt lat="45.81870564624485" lon="12.31372370001236"><ele>47.0</ele><time>2026-04-03T08:08:38Z</time></trkpt><trkpt lat="45.8186831373269" lon="12.31392623310026"><ele>47.25</ele><time>2026-04-03T08:08:39Z</time></trkpt><trkpt lat="45.81866082641762" lon="12.31412698440096"><ele>47.5</ele><time>2026-04-03T08:08:40Z</time></trkpt><trkpt lat="45.81863809646773" lon="12.314333286936138"><ele>47.75</ele><time>2026-04-03T08:08:41Z</time></trkpt><trkpt lat="45.818615427732865" lon="12.314539087294655"><ele>48.0</ele><time>2026-04-03T08:08:42Z</time></trkpt><trkpt lat="45.818592155524755" lon="12.314747704487424"><ele>48.0</ele><time>2026-04-03T08:08:43Z</time></trkpt><trkpt lat="45.81856869248639" lon="12.314957903265084"><ele>48.0</ele><time>2026-04-03T08:08:44Z</time></trkpt><trkpt lat="45.818544911318625" lon="12.315170952263756"><ele>48.0</ele><time>2026-04-03T08:08:45Z</time></trkpt><trkpt lat="45.818520928347645" lon="12.315385809103441"><ele>47.333333333333336</ele><time>2026-04-03T08:08:46Z</time></trkpt><trkpt lat="45.818496576437866" lon="12.315603236331393"><ele>46.66666666666667</ele><time>2026-04-03T08:08:47Z</time></trkpt><trkpt lat="45.81847189894594" lon="12.31582229994305"><ele>46.0</ele><time>2026-04-03T08:08:48Z</time></trkpt><trkpt lat="45.81844695599214" lon="12.316043545850324"><ele>46.0</ele><time>2026-04-03T08:08:49Z</time></trkpt><trkpt lat="45.818421837012735" lon="12.316266353026268"><ele>46.0</ele><time>2026-04-03T08:08:50Z</time></trkpt><trkpt lat="45.818396426735184" lon="12.31649174404431"><ele>46.0</ele><time>2026-04-03T08:08:51Z</time></trkpt><trkpt lat="45.81837077666274" lon="12.316719262104714"><ele>45.75</ele><time>2026-04-03T08:08:52Z</time></trkpt><trkpt lat="45.818345568687285" lon="12.316942858591778"><ele>45.5</ele><time>2026-04-03T08:08:53Z</time></trkpt><trkpt lat="45.818322108861835" lon="12.317150948999487"><ele>45.25</ele><time>2026-04-03T08:08:54Z</time></trkpt><trkpt lat="45.818299978110204" lon="12.317347250199244"><ele>45.0</ele><time>2026-04-03T08:08:55Z</time></trkpt><trkpt lat="45.81827994776822" lon="12.317524921279322"><ele>45.0</ele><time>2026-04-03T08:08:56Z</time></trkpt><trkpt lat="45.81826257425844" lon="12.31767902532996"><ele>45.0</ele><time>2026-04-03T08:08:57Z</time></trkpt><trkpt lat="45.818247870651746" lon="12.317809453612442"><ele>45.0</ele><time>2026-04-03T08:08:58Z</time></trkpt><trkpt lat="45.81823549450026" lon="12.31791809105177"><ele>45.0</ele><time>2026-04-03T08:08:59Z</time></trkpt><trkpt lat="45.81822486269525" lon="12.318009461767096"><ele>45.0</ele><time>2026-04-03T08:09:00Z</time></trkpt><trkpt lat="45.81836579305021" lon="12.318174882175027"><ele>45.166666666666664</ele><time>2026-04-03T08:09:02Z</time></trkpt><trkpt lat="45.81841610665535" lon="12.318239960185377"><ele>45.333333333333336</ele><time>2026-04-03T08:09:03Z</time></trkpt><trkpt lat="45.8184668306465" lon="12.318322988083787"><ele>45.5</ele><time>2026-04-03T08:09:04Z</time></trkpt><trkpt lat="45.818514809840025" lon="12.3184270774745"><ele>45.66666666666667</ele><time>2026-04-03T08:09:05Z</time></trkpt><trkpt lat="45.818560103008366" lon="12.318546696573279"><ele>45.833333333333336</ele><time>2026-04-03T08:09:06Z</time></trkpt><trkpt lat="45.818608788091375" lon="12.318673085576119"><ele>46.0</ele><time>2026-04-03T08:09:07Z</time></trkpt><trkpt lat="45.81866176815407" lon="12.318805810754007"><ele>46.0</ele><time>2026-04-03T08:09:08Z</time></trkpt><trkpt lat="45.81871906726869" lon="12.31894433011946"><ele>46.0</ele><time>2026-04-03T08:09:08.999Z</time></trkpt><trkpt lat="45.818778807399205" lon="12.319090184679732"><ele>46.0</ele><time>2026-04-03T08:09:09.999Z</time></trkpt><trkpt lat="45.81883957898105" lon="12.319242429523783"><ele>46.0</ele><time>2026-04-03T08:09:10.999Z</time></trkpt><trkpt lat="45.81890331936648" lon="12.319401678863077"><ele>46.0</ele><time>2026-04-03T08:09:11.999Z</time></trkpt><trkpt lat="45.81896916239952" lon="12.319565905600326"><ele>46.0</ele><time>2026-04-03T08:09:12.999Z</time></trkpt><trkpt lat="45.819039372611996" lon="12.319736760198085"><ele>46.0</ele><time>2026-04-03T08:09:13.999Z</time></trkpt><trkpt lat="45.81911107227525" lon="12.319913507643804"><ele>46.0</ele><time>2026-04-03T08:09:14.999Z</time></trkpt><trkpt lat="45.81918607491339" lon="12.320095797640388"><ele>45.66666666666667</ele><time>2026-04-03T08:09:15.999Z</time></trkpt><trkpt lat="45.81926198002363" lon="12.320284299053615"><ele>45.333333333333336</ele><time>2026-04-03T08:09:16.999Z</time></trkpt><trkpt lat="45.819339777599566" lon="12.320477562392885"><ele>45.0</ele><time>2026-04-03T08:09:17.999Z</time></trkpt><trkpt lat="45.819419332629366" lon="12.32067419014422"><ele>45.0</ele><time>2026-04-03T08:09:18.999Z</time></trkpt><trkpt lat="45.81949998982281" lon="12.320876489589846"><ele>45.0</ele><time>2026-04-03T08:09:19.999Z</time></trkpt><trkpt lat="45.81958482840199" lon="12.321080775903479"><ele>45.0</ele><time>2026-04-03T08:09:20.999Z</time></trkpt><trkpt lat="45.819670240725834" lon="12.32128849194712"><ele>44.333333333333336</ele><time>2026-04-03T08:09:21.999Z</time></trkpt><trkpt lat="45.81975578844332" lon="12.321497481221149"><ele>43.66666666666667</ele><time>2026-04-03T08:09:22.999Z</time></trkpt><trkpt lat="45.819841381210054" lon="12.321708622848654"><ele>43.0</ele><time>2026-04-03T08:09:23.999Z</time></trkpt><trkpt lat="45.819927356486225" lon="12.321920613745235"><ele>43.0</ele><time>2026-04-03T08:09:24.999Z</time></trkpt><trkpt lat="45.82001393055006" lon="12.32213328348733"><ele>43.0</ele><time>2026-04-03T08:09:25.999Z</time></trkpt><trkpt lat="45.82010060791412" lon="12.322346775073816"><ele>43.0</ele><time>2026-04-03T08:09:26.999Z</time></trkpt><trkpt lat="45.82018727559049" lon="12.322561302313986"><ele>42.66666666666667</ele><time>2026-04-03T08:09:27.999Z</time></trkpt><trkpt lat="45.82027104079567" lon="12.322776501725086"><ele>42.333333333333336</ele><time>2026-04-03T08:09:28.999Z</time></trkpt><trkpt lat="45.82034886182326" lon="12.32299362433895"><ele>42.0</ele><time>2026-04-03T08:09:29.999Z</time></trkpt><trkpt lat="45.82041339876599" lon="12.323215891769921"><ele>41.666666666666664</ele><time>2026-04-03T08:09:30.999Z</time></trkpt><trkpt lat="45.820460669467245" lon="12.32343616507309"><ele>41.33333333333333</ele><time>2026-04-03T08:09:31.999Z</time></trkpt><trkpt lat="45.82050217548327" lon="12.323649854928059"><ele>41.0</ele><time>2026-04-03T08:09:32.999Z</time></trkpt><trkpt lat="45.82053703055193" lon="12.323847774607612"><ele>41.4</ele><time>2026-04-03T08:09:33.999Z</time></trkpt><trkpt lat="45.82056916762623" lon="12.324029476192203"><ele>41.8</ele><time>2026-04-03T08:09:34.999Z</time></trkpt><trkpt lat="45.82059780127175" lon="12.324194581230936"><ele>42.199999999999996</ele><time>2026-04-03T08:09:35.999Z</time></trkpt><trkpt lat="45.8206232246579" lon="12.324342291363624"><ele>42.599999999999994</ele><time>2026-04-03T08:09:36.999Z</time></trkpt><trkpt lat="45.82064515842524" lon="12.32446970777593"><ele>43.0</ele><time>2026-04-03T08:09:37.999Z</time></trkpt><trkpt lat="45.82066333051955" lon="12.324579471394358"><ele>43.0</ele><time>2026-04-03T08:09:38.999Z</time></trkpt><trkpt lat="45.82067765825262" lon="12.324671002150314"><ele>43.0</ele><time>2026-04-03T08:09:39.999Z</time></trkpt><trkpt lat="45.82069097443078" lon="12.32475960266317"><ele>43.0</ele><time>2026-04-03T08:09:41.999Z</time></trkpt><trkpt lat="45.820713145227856" lon="12.324876504446935"><ele>43.0</ele><time>2026-04-03T08:10:09Z</time></trkpt><trkpt lat="45.82073562869317" lon="12.324991346026616"><ele>43.0</ele><time>2026-04-03T08:10:11Z</time></trkpt><trkpt lat="45.820769247727426" lon="12.325171212193677"><ele>43.0</ele><time>2026-04-03T08:10:13Z</time></trkpt><trkpt lat="45.820787795494944" lon="12.325276364622423"><ele>43.0</ele><time>2026-04-03T08:10:14Z</time></trkpt><trkpt lat="45.82080663630734" lon="12.325383904812353"><ele>43.0</ele><time>2026-04-03T08:10:15Z</time></trkpt><trkpt lat="45.82082530273152" lon="12.325494712904225"><ele>43.0</ele><time>2026-04-03T08:10:16Z</time></trkpt><trkpt lat="45.820845655245996" lon="12.325609567701393"><ele>43.0</ele><time>2026-04-03T08:10:17Z</time></trkpt><trkpt lat="45.820866539901814" lon="12.325727594309065"><ele>43.0</ele><time>2026-04-03T08:10:18Z</time></trkpt><trkpt lat="45.82088887212267" lon="12.325849924139483"><ele>43.0</ele><time>2026-04-03T08:10:19Z</time></trkpt><trkpt lat="45.820911677017946" lon="12.325977973178249"><ele>43.0</ele><time>2026-04-03T08:10:20Z</time></trkpt><trkpt lat="45.82093619392747" lon="12.326114154322497"><ele>43.0</ele><time>2026-04-03T08:10:21Z</time></trkpt><trkpt lat="45.8209610777472" lon="12.326253389327457"><ele>43.0</ele><time>2026-04-03T08:10:22Z</time></trkpt><trkpt lat="45.82098632393728" lon="12.32639711790499"><ele>43.0</ele><time>2026-04-03T08:10:23Z</time></trkpt><trkpt lat="45.82101170533159" lon="12.326543718391713"><ele>43.0</ele><time>2026-04-03T08:10:24Z</time></trkpt><trkpt lat="45.8210376751674" lon="12.326694398373174"><ele>42.75</ele><time>2026-04-03T08:10:25Z</time></trkpt><trkpt lat="45.82106481970381" lon="12.326848058765986"><ele>42.5</ele><time>2026-04-03T08:10:26Z</time></trkpt><trkpt lat="45.82109268528301" lon="12.327005453938114"><ele>42.25</ele><time>2026-04-03T08:10:27Z</time></trkpt><trkpt lat="45.82112096302473" lon="12.327166656774468"><ele>42.0</ele><time>2026-04-03T08:10:28Z</time></trkpt><trkpt lat="45.821150132059095" lon="12.3273305650397"><ele>42.0</ele><time>2026-04-03T08:10:29Z</time></trkpt><trkpt lat="45.82117969607095" lon="12.32749808064509"><ele>42.0</ele><time>2026-04-03T08:10:30Z</time></trkpt><trkpt lat="45.82120949150621" lon="12.32766646798499"><ele>42.0</ele><time>2026-04-03T08:10:31Z</time></trkpt><trkpt lat="45.821239301983475" lon="12.32783672099083"><ele>42.0</ele><time>2026-04-03T08:10:32Z</time></trkpt><trkpt lat="45.82126792258059" lon="12.328006229641538"><ele>42.0</ele><time>2026-04-03T08:10:33Z</time></trkpt><trkpt lat="45.82129746936842" lon="12.328176783663396"><ele>42.0</ele><time>2026-04-03T08:10:34Z</time></trkpt><trkpt lat="45.821326799385616" lon="12.328343992904758"><ele>42.0</ele><time>2026-04-03T08:10:35Z</time></trkpt><trkpt lat="45.82135671753879" lon="12.328509376452601"><ele>42.0</ele><time>2026-04-03T08:10:36Z</time></trkpt><trkpt lat="45.821385608805535" lon="12.328673013248983"><ele>42.0</ele><time>2026-04-03T08:10:37Z</time></trkpt><trkpt lat="45.82141260750116" lon="12.328834385552293"><ele>42.0</ele><time>2026-04-03T08:10:38Z</time></trkpt><trkpt lat="45.82144116150218" lon="12.328992639018924"><ele>42.0</ele><time>2026-04-03T08:10:39Z</time></trkpt><trkpt lat="45.821469165910074" lon="12.329148478913462"><ele>42.0</ele><time>2026-04-03T08:10:40Z</time></trkpt><trkpt lat="45.821497092882744" lon="12.329303005576383"><ele>41.8</ele><time>2026-04-03T08:10:41Z</time></trkpt><trkpt lat="45.821522885411426" lon="12.32945690281075"><ele>41.6</ele><time>2026-04-03T08:10:42Z</time></trkpt><trkpt lat="45.82154827647057" lon="12.32960692485609"><ele>41.4</ele><time>2026-04-03T08:10:43Z</time></trkpt><trkpt lat="45.82156639289026" lon="12.329750198336086"><ele>41.199999999999996</ele><time>2026-04-03T08:10:44Z</time></trkpt><trkpt lat="45.82158808283276" lon="12.329867537273275"><ele>41.0</ele><time>2026-04-03T08:10:45Z</time></trkpt><trkpt lat="45.82160307167923" lon="12.329960185925879"><ele>40.599999999999994</ele><time>2026-04-03T08:10:46Z</time></trkpt><trkpt lat="45.821621985176236" lon="12.33007067226226"><ele>40.199999999999996</ele><time>2026-04-03T08:10:48Z</time></trkpt><trkpt lat="45.82164300404354" lon="12.33017986465443"><ele>39.8</ele><time>2026-04-03T08:11:07Z</time></trkpt><trkpt lat="45.82166808460077" lon="12.330301693748636"><ele>39.4</ele><time>2026-04-03T08:11:09Z</time></trkpt><trkpt lat="45.821700956308675" lon="12.330482549626321"><ele>39.0</ele><time>2026-04-03T08:11:10.999Z</time></trkpt><trkpt lat="45.821719878576864" lon="12.33059104681215"><ele>38.8</ele><time>2026-04-03T08:11:11.999Z</time></trkpt><trkpt lat="45.82174047807806" lon="12.330709668991197"><ele>38.599999999999994</ele><time>2026-04-03T08:11:12.999Z</time></trkpt><trkpt lat="45.82176335260288" lon="12.330837027969322"><ele>38.4</ele><time>2026-04-03T08:11:13.999Z</time></trkpt><trkpt lat="45.82178745061671" lon="12.33097525787426"><ele>38.199999999999996</ele><time>2026-04-03T08:11:14.999Z</time></trkpt><trkpt lat="45.82181419608202" lon="12.3311236000692"><ele>38.0</ele><time>2026-04-03T08:11:15.999Z</time></trkpt><trkpt lat="45.82184188465087" lon="12.331276593030022"><ele>38.25</ele><time>2026-04-03T08:11:16.999Z</time></trkpt><trkpt lat="45.82186885552007" lon="12.331432037696036"><ele>38.5</ele><time>2026-04-03T08:11:17.999Z</time></trkpt><trkpt lat="45.82189541356593" lon="12.331589059521846"><ele>38.75</ele><time>2026-04-03T08:11:18.999Z</time></trkpt><trkpt lat="45.8219228227294" lon="12.331748182441887"><ele>39.0</ele><time>2026-04-03T08:11:19.999Z</time></trkpt><trkpt lat="45.82195122236217" lon="12.331910860776803"><ele>39.0</ele><time>2026-04-03T08:11:20.999Z</time></trkpt><trkpt lat="45.821980128824904" lon="12.33207500678883"><ele>39.0</ele><time>2026-04-03T08:11:21.999Z</time></trkpt><trkpt lat="45.82200838951297" lon="12.332240956955241"><ele>39.0</ele><time>2026-04-03T08:11:22.999Z</time></trkpt><trkpt lat="45.82203630729915" lon="12.33240570689147"><ele>39.0</ele><time>2026-04-03T08:11:23.999Z</time></trkpt><trkpt lat="45.82206483477799" lon="12.332568130820734"><ele>39.25</ele><time>2026-04-03T08:11:24.999Z</time></trkpt><trkpt lat="45.82209322781113" lon="12.332728223711861"><ele>39.5</ele><time>2026-04-03T08:11:25.999Z</time></trkpt><trkpt lat="45.822120915541966" lon="12.332886555888054"><ele>39.75</ele><time>2026-04-03T08:11:26.999Z</time></trkpt><trkpt lat="45.82214769832895" lon="12.333043014579935"><ele>40.0</ele><time>2026-04-03T08:11:27.999Z</time></trkpt><trkpt lat="45.82217494624052" lon="12.333195966060668"><ele>40.0</ele><time>2026-04-03T08:11:28.999Z</time></trkpt><trkpt lat="45.82220114496316" lon="12.333347825124092"><ele>40.0</ele><time>2026-04-03T08:11:29.999Z</time></trkpt><trkpt lat="45.82222791683287" lon="12.333496424519666"><ele>40.0</ele><time>2026-04-03T08:11:30.999Z</time></trkpt><trkpt lat="45.82225351796575" lon="12.333640645822934"><ele>40.0</ele><time>2026-04-03T08:11:31.999Z</time></trkpt><trkpt lat="45.82227849996611" lon="12.333780915121443"><ele>40.0</ele><time>2026-04-03T08:11:32.999Z</time></trkpt><trkpt lat="45.8223021571619" lon="12.333905591876087"><ele>40.16666666666667</ele><time>2026-04-03T08:11:33.999Z</time></trkpt><trkpt lat="45.822329712169484" lon="12.334012085985643"><ele>40.333333333333336</ele><time>2026-04-03T08:11:34.999Z</time></trkpt><trkpt lat="45.8223423456964" lon="12.334114510036425"><ele>40.5</ele><time>2026-04-03T08:11:35.999Z</time></trkpt><trkpt lat="45.822382317575" lon="12.334265871881028"><ele>40.666666666666664</ele><time>2026-04-03T08:11:37.999Z</time></trkpt><trkpt lat="45.82241115388988" lon="12.334355296877021"><ele>40.83333333333333</ele><time>2026-04-03T08:11:39.999Z</time></trkpt><trkpt lat="45.82244507382927" lon="12.334457511903818"><ele>41.0</ele><time>2026-04-03T08:12:38Z</time></trkpt><trkpt lat="45.822492674484984" lon="12.334545082282183"><ele>41.0</ele><time>2026-04-03T08:12:40Z</time></trkpt><trkpt lat="45.82253291183106" lon="12.334687999253946"><ele>41.0</ele><time>2026-04-03T08:12:42Z</time></trkpt><trkpt lat="45.82256278676397" lon="12.334773124246356"><ele>41.0</ele><time>2026-04-03T08:12:43Z</time></trkpt><trkpt lat="45.82259942163695" lon="12.334863820511545"><ele>41.0</ele><time>2026-04-03T08:12:44Z</time></trkpt><trkpt lat="45.822643438791125" lon="12.33495710878165"><ele>41.0</ele><time>2026-04-03T08:12:45Z</time></trkpt><trkpt lat="45.82269530388669" lon="12.335056367785413"><ele>41.0</ele><time>2026-04-03T08:12:46Z</time></trkpt><trkpt lat="45.82275188681001" lon="12.335158836450463"><ele>40.666666666666664</ele><time>2026-04-03T08:12:47Z</time></trkpt><trkpt lat="45.82281238405287" lon="12.335262307971092"><ele>40.33333333333333</ele><time>2026-04-03T08:12:48Z</time></trkpt><trkpt lat="45.82287265137026" lon="12.335357978189204"><ele>40.0</ele><time>2026-04-03T08:12:49Z</time></trkpt><trkpt lat="45.82292786927268" lon="12.33544309743207"><ele>39.666666666666664</ele><time>2026-04-03T08:12:50Z</time></trkpt><trkpt lat="45.822972603951186" lon="12.33551328693595"><ele>39.333333333333336</ele><time>2026-04-03T08:12:51Z</time></trkpt><trkpt lat="45.823035095745794" lon="12.335611865016977"><ele>39.0</ele><time>2026-04-03T08:12:53Z</time></trkpt><trkpt lat="45.823084125119976" lon="12.33567704576232"><ele>39.0</ele><time>2026-04-03T08:12:57Z</time></trkpt><trkpt lat="45.823131941546535" lon="12.335746545345103"><ele>39.0</ele><time>2026-04-03T08:13:16.999Z</time></trkpt><trkpt lat="45.82317074986733" lon="12.335830463113256"><ele>39.0</ele><time>2026-04-03T08:13:19.999Z</time></trkpt><trkpt lat="45.82322746722094" lon="12.335890794299862"><ele>39.0</ele><time>2026-04-03T08:13:37.999Z</time></trkpt><trkpt lat="45.82327001428376" lon="12.335962860206578"><ele>39.0</ele><time>2026-04-03T08:13:39.999Z</time></trkpt><trkpt lat="45.823309377689185" lon="12.336037589735998"><ele>39.0</ele><time>2026-04-03T08:13:41.999Z</time></trkpt><trkpt lat="45.82335123558853" lon="12.336109374151874"><ele>39.0</ele><time>2026-04-03T08:13:43.999Z</time></trkpt><trkpt lat="45.82340738019132" lon="12.336181586895247"><ele>39.0</ele><time>2026-04-03T08:13:58.999Z</time></trkpt><trkpt lat="45.8234702754289" lon="12.33625666630055"><ele>39.0</ele><time>2026-04-03T08:14:01Z</time></trkpt><trkpt lat="45.823522372078216" lon="12.336315347137694"><ele>39.0</ele><time>2026-04-03T08:14:03Z</time></trkpt><trkpt lat="45.82359146518678" lon="12.336369526747129"><ele>39.0</ele><time>2026-04-03T08:15:38.999Z</time></trkpt><trkpt lat="45.823669572863665" lon="12.336460264346876"><ele>39.0</ele><time>2026-04-03T08:15:40.999Z</time></trkpt><trkpt lat="45.82372018359132" lon="12.336514059010407"><ele>39.0</ele><time>2026-04-03T08:15:41.999Z</time></trkpt><trkpt lat="45.82377284901036" lon="12.336570640532845"><ele>38.8</ele><time>2026-04-03T08:15:42.999Z</time></trkpt><trkpt lat="45.823824005566" lon="12.336629013180499"><ele>38.599999999999994</ele><time>2026-04-03T08:15:43.999Z</time></trkpt><trkpt lat="45.82390638653929" lon="12.33674540483183"><ele>38.4</ele><time>2026-04-03T08:15:45.999Z</time></trkpt><trkpt lat="45.823939498200424" lon="12.336889424779647"><ele>38.199999999999996</ele><time>2026-04-03T08:15:47.999Z</time></trkpt><trkpt lat="45.823971809164725" lon="12.337019159444148"><ele>38.0</ele><time>2026-04-03T08:15:49.999Z</time></trkpt><trkpt lat="45.82406141100896" lon="12.337089906600308"><ele>38.0</ele><time>2026-04-03T08:15:51.999Z</time></trkpt><trkpt lat="45.82414512903173" lon="12.337169467906143"><ele>38.0</ele><time>2026-04-03T08:15:53.999Z</time></trkpt><trkpt lat="45.824220967320976" lon="12.337319942162376"><ele>38.0</ele><time>2026-04-03T08:15:55.999Z</time></trkpt><trkpt lat="45.824258465328676" lon="12.3374041293345"><ele>38.0</ele><time>2026-04-03T08:15:56.999Z</time></trkpt><trkpt lat="45.82431977007201" lon="12.337530385706875"><ele>38.0</ele><time>2026-04-03T08:15:58.999Z</time></trkpt><trkpt lat="45.824363575805044" lon="12.337604622491416"><ele>38.4</ele><time>2026-04-03T08:16:00.999Z</time></trkpt><trkpt lat="45.82444378371159" lon="12.337702444983611"><ele>38.8</ele><time>2026-04-03T08:16:26Z</time></trkpt><trkpt lat="45.82453271215148" lon="12.3378181342101"><ele>39.2</ele><time>2026-04-03T08:16:28Z</time></trkpt><trkpt lat="45.82459026779728" lon="12.337887691965749"><ele>39.6</ele><time>2026-04-03T08:16:29Z</time></trkpt><trkpt lat="45.82465180169343" lon="12.337963001302144"><ele>40.0</ele><time>2026-04-03T08:16:30Z</time></trkpt><trkpt lat="45.8247187239597" lon="12.33804496286259"><ele>39.8</ele><time>2026-04-03T08:16:31Z</time></trkpt><trkpt lat="45.82479294913721" lon="12.338132548591817"><ele>39.6</ele><time>2026-04-03T08:16:32Z</time></trkpt><trkpt lat="45.82487216982595" lon="12.338225847472373"><ele>39.4</ele><time>2026-04-03T08:16:33Z</time></trkpt><trkpt lat="45.82495827350908" lon="12.338323430527696"><ele>39.2</ele><time>2026-04-03T08:16:34Z</time></trkpt><trkpt lat="45.82504874637936" lon="12.33842573836304"><ele>39.0</ele><time>2026-04-03T08:16:35Z</time></trkpt><trkpt lat="45.82514178293661" lon="12.338533507174501"><ele>39.0</ele><time>2026-04-03T08:16:36Z</time></trkpt><trkpt lat="45.82523861309435" lon="12.33864417334447"><ele>39.0</ele><time>2026-04-03T08:16:37Z</time></trkpt><trkpt lat="45.82534007280417" lon="12.338758412362441"><ele>39.0</ele><time>2026-04-03T08:16:38Z</time></trkpt><trkpt lat="45.8254452868624" lon="12.338876243035132"><ele>39.0</ele><time>2026-04-03T08:16:39Z</time></trkpt><trkpt lat="45.825557514794035" lon="12.338995737022787"><ele>39.0</ele><time>2026-04-03T08:16:40Z</time></trkpt><trkpt lat="45.825677045799594" lon="12.339111405207607"><ele>39.0</ele><time>2026-04-03T08:16:41Z</time></trkpt><trkpt lat="45.825804439714865" lon="12.339219854408405"><ele>39.0</ele><time>2026-04-03T08:16:42Z</time></trkpt><trkpt lat="45.825940028822416" lon="12.33931859518934"><ele>39.0</ele><time>2026-04-03T08:16:43Z</time></trkpt><trkpt lat="45.82609467386322" lon="12.33940811847419"><ele>39.333333333333336</ele><time>2026-04-03T08:16:44Z</time></trkpt><trkpt lat="45.82623801553414" lon="12.339486820282486"><ele>39.66666666666667</ele><time>2026-04-03T08:16:45Z</time></trkpt><trkpt lat="45.82639384364996" lon="12.339551662053363"><ele>40.0</ele><time>2026-04-03T08:16:46Z</time></trkpt><trkpt lat="45.826559355584" lon="12.339604095077668"><ele>40.0</ele><time>2026-04-03T08:16:47Z</time></trkpt><trkpt lat="45.82672506121067" lon="12.339660065195714"><ele>40.0</ele><time>2026-04-03T08:16:48Z</time></trkpt><trkpt lat="45.826893075119344" lon="12.339718134931907"><ele>40.0</ele><time>2026-04-03T08:16:49Z</time></trkpt><trkpt lat="45.827065651925075" lon="12.339778979009717"><ele>39.0</ele><time>2026-04-03T08:16:50Z</time></trkpt><trkpt lat="45.82723991337249" lon="12.339838183801504"><ele>38.0</ele><time>2026-04-03T08:16:51Z</time></trkpt><trkpt lat="45.82741914965315" lon="12.33989866666071"><ele>37.0</ele><time>2026-04-03T08:16:52Z</time></trkpt><trkpt lat="45.827601081586934" lon="12.339961958249031"><ele>36.333333333333336</ele><time>2026-04-03T08:16:53Z</time></trkpt><trkpt lat="45.827785190166985" lon="12.340025745667148"><ele>35.666666666666664</ele><time>2026-04-03T08:16:54Z</time></trkpt><trkpt lat="45.82797205398561" lon="12.34008922656624"><ele>35.0</ele><time>2026-04-03T08:16:55Z</time></trkpt><trkpt lat="45.82816104335875" lon="12.340153642756517"><ele>35.0</ele><time>2026-04-03T08:16:56Z</time></trkpt><trkpt lat="45.82834778079926" lon="12.340218526354082"><ele>35.0</ele><time>2026-04-03T08:16:57Z</time></trkpt><trkpt lat="45.82853330587064" lon="12.340282292512747"><ele>35.0</ele><time>2026-04-03T08:16:58Z</time></trkpt><trkpt lat="45.8287149720848" lon="12.340345748189144"><ele>36.0</ele><time>2026-04-03T08:16:59Z</time></trkpt><trkpt lat="45.828890134752534" lon="12.340408266426317"><ele>37.0</ele><time>2026-04-03T08:17:00Z</time></trkpt><trkpt lat="45.82905947434444" lon="12.34046992262079"><ele>38.0</ele><time>2026-04-03T08:17:01Z</time></trkpt><trkpt lat="45.82922068894454" lon="12.340535037016448"><ele>38.666666666666664</ele><time>2026-04-03T08:17:02Z</time></trkpt><trkpt lat="45.829373496674" lon="12.340613637315268"><ele>39.333333333333336</ele><time>2026-04-03T08:17:03Z</time></trkpt><trkpt lat="45.8295208392201" lon="12.340710194658653"><ele>40.0</ele><time>2026-04-03T08:17:04Z</time></trkpt><trkpt lat="45.829663279562816" lon="12.340817459820752"><ele>40.0</ele><time>2026-04-03T08:17:05Z</time></trkpt><trkpt lat="45.82979552327998" lon="12.34093640387896"><ele>40.0</ele><time>2026-04-03T08:17:06Z</time></trkpt><trkpt lat="45.829920662942165" lon="12.341058190522217"><ele>40.0</ele><time>2026-04-03T08:17:07Z</time></trkpt><trkpt lat="45.83004149813076" lon="12.341188290495255"><ele>39.66666666666667</ele><time>2026-04-03T08:17:08Z</time></trkpt><trkpt lat="45.830156891339975" lon="12.341326388805042"><ele>39.333333333333336</ele><time>2026-04-03T08:17:09Z</time></trkpt><trkpt lat="45.830263739013006" lon="12.341477575067307"><ele>39.0</ele><time>2026-04-03T08:17:10Z</time></trkpt><trkpt lat="45.830365575442" lon="12.341636795246997"><ele>39.0</ele><time>2026-04-03T08:17:11Z</time></trkpt><trkpt lat="45.830461504197686" lon="12.34180473203861"><ele>39.0</ele><time>2026-04-03T08:17:12Z</time></trkpt><trkpt lat="45.83055337869629" lon="12.341978842926626"><ele>39.0</ele><time>2026-04-03T08:17:13Z</time></trkpt><trkpt lat="45.83064633397008" lon="12.342153332241375"><ele>38.666666666666664</ele><time>2026-04-03T08:17:13.999Z</time></trkpt><trkpt lat="45.83073790111089" lon="12.342324812604442"><ele>38.33333333333333</ele><time>2026-04-03T08:17:14.999Z</time></trkpt><trkpt lat="45.830829658539386" lon="12.342494813242192"><ele>38.0</ele><time>2026-04-03T08:17:15.999Z</time></trkpt><trkpt lat="45.83091949724976" lon="12.342666741739714"><ele>38.0</ele><time>2026-04-03T08:17:16.999Z</time></trkpt><trkpt lat="45.83101083314391" lon="12.342839626400234"><ele>38.0</ele><time>2026-04-03T08:17:17.999Z</time></trkpt><trkpt lat="45.83110359188815" lon="12.343016111090284"><ele>38.0</ele><time>2026-04-03T08:17:18.999Z</time></trkpt><trkpt lat="45.831199671115904" lon="12.343196904484538"><ele>38.0</ele><time>2026-04-03T08:17:19.999Z</time></trkpt><trkpt lat="45.83129706897673" lon="12.34338109831842"><ele>38.0</ele><time>2026-04-03T08:17:20.999Z</time></trkpt><trkpt lat="45.83139741674203" lon="12.343568120113865"><ele>38.0</ele><time>2026-04-03T08:17:21.999Z</time></trkpt><trkpt lat="45.83148571621793" lon="12.343772893966861"><ele>38.33333333333333</ele><time>2026-04-03T08:17:22.999Z</time></trkpt><trkpt lat="45.8315879273035" lon="12.343968221070389"><ele>38.666666666666664</ele><time>2026-04-03T08:17:23.999Z</time></trkpt><trkpt lat="45.83169167240631" lon="12.344166479716188"><ele>39.0</ele><time>2026-04-03T08:17:24.999Z</time></trkpt><trkpt lat="45.83179793722409" lon="12.344369553614591"><ele>38.666666666666664</ele><time>2026-04-03T08:17:25.999Z</time></trkpt><trkpt lat="45.83191701660258" lon="12.344558891357979"><ele>38.33333333333333</ele><time>2026-04-03T08:17:26.999Z</time></trkpt><trkpt lat="45.83202121873757" lon="12.344759481030705"><ele>38.0</ele><time>2026-04-03T08:17:27.999Z</time></trkpt><trkpt lat="45.83212685886099" lon="12.344954818612326"><ele>37.33333333333333</ele><time>2026-04-03T08:17:28.999Z</time></trkpt><trkpt lat="45.83222248391553" lon="12.34516071250271"><ele>36.666666666666664</ele><time>2026-04-03T08:17:29.999Z</time></trkpt><trkpt lat="45.83234464845497" lon="12.345331161704793"><ele>36.0</ele><time>2026-04-03T08:17:30.999Z</time></trkpt><trkpt lat="45.832459058478975" lon="12.345505225461965"><ele>36.0</ele><time>2026-04-03T08:17:31.999Z</time></trkpt><trkpt lat="45.83258132710893" lon="12.345669411041355"><ele>36.0</ele><time>2026-04-03T08:17:32.999Z</time></trkpt><trkpt lat="45.832711335541894" lon="12.345823508798818"><ele>36.0</ele><time>2026-04-03T08:17:33.999Z</time></trkpt><trkpt lat="45.83285196285497" lon="12.345963314931746"><ele>36.333333333333336</ele><time>2026-04-03T08:17:34.999Z</time></trkpt><trkpt lat="45.83299576999563" lon="12.346097539922969"><ele>36.66666666666667</ele><time>2026-04-03T08:17:35.999Z</time></trkpt><trkpt lat="45.83314086956963" lon="12.346231948978339"><ele>37.0</ele><time>2026-04-03T08:17:36.999Z</time></trkpt><trkpt lat="45.833287050264275" lon="12.346366899921339"><ele>37.0</ele><time>2026-04-03T08:17:37.999Z</time></trkpt><trkpt lat="45.833435190537685" lon="12.346501445524881"><ele>37.0</ele><time>2026-04-03T08:17:38.999Z</time></trkpt><trkpt lat="45.83358449534896" lon="12.346635007851663"><ele>37.0</ele><time>2026-04-03T08:17:39.999Z</time></trkpt><trkpt lat="45.833734451825784" lon="12.346772318889949"><ele>37.333333333333336</ele><time>2026-04-03T08:17:40.999Z</time></trkpt><trkpt lat="45.8338852480003" lon="12.346907536587272"><ele>37.666666666666664</ele><time>2026-04-03T08:17:41.999Z</time></trkpt><trkpt lat="45.834036152119815" lon="12.347043138728237"><ele>38.0</ele><time>2026-04-03T08:17:42.999Z</time></trkpt><trkpt lat="45.83418486096547" lon="12.347179107502246"><ele>37.0</ele><time>2026-04-03T08:17:43.999Z</time></trkpt><trkpt lat="45.834334549040285" lon="12.347316741047411"><ele>36.0</ele><time>2026-04-03T08:17:44.999Z</time></trkpt><trkpt lat="45.834485984336766" lon="12.347452135420122"><ele>35.0</ele><time>2026-04-03T08:17:45.999Z</time></trkpt><trkpt lat="45.83463944626785" lon="12.347589563190347"><ele>35.0</ele><time>2026-04-03T08:17:46.999Z</time></trkpt><trkpt lat="45.834793709051816" lon="12.347730003883493"><ele>35.0</ele><time>2026-04-03T08:17:47.999Z</time></trkpt><trkpt lat="45.834949033072306" lon="12.347871191499474"><ele>35.0</ele><time>2026-04-03T08:17:48.999Z</time></trkpt><trkpt lat="45.835105171752396" lon="12.34800971940055"><ele>35.666666666666664</ele><time>2026-04-03T08:17:49.999Z</time></trkpt><trkpt lat="45.835257996313665" lon="12.34814830892045"><ele>36.333333333333336</ele><time>2026-04-03T08:17:50.999Z</time></trkpt><trkpt lat="45.835410487988135" lon="12.348285329844606"><ele>37.0</ele><time>2026-04-03T08:17:51.999Z</time></trkpt><trkpt lat="45.83556144418822" lon="12.348421254154886"><ele>37.0</ele><time>2026-04-03T08:17:52.999Z</time></trkpt><trkpt lat="45.83571083331924" lon="12.348556401915618"><ele>37.0</ele><time>2026-04-03T08:17:53.999Z</time></trkpt><trkpt lat="45.835859926694354" lon="12.348690992299144"><ele>37.0</ele><time>2026-04-03T08:17:54.999Z</time></trkpt><trkpt lat="45.83600850213917" lon="12.34882274643699"><ele>36.0</ele><time>2026-04-03T08:17:55.999Z</time></trkpt><trkpt lat="45.83615566137051" lon="12.348953673932247"><ele>35.0</ele><time>2026-04-03T08:17:56.999Z</time></trkpt><trkpt lat="45.83630080694826" lon="12.349083887186872"><ele>34.0</ele><time>2026-04-03T08:17:57.999Z</time></trkpt><trkpt lat="45.836446730634805" lon="12.349213975835267"><ele>34.0</ele><time>2026-04-03T08:17:58.999Z</time></trkpt><trkpt lat="45.836582834335104" lon="12.349339660450806"><ele>34.0</ele><time>2026-04-03T08:17:59.999Z</time></trkpt><trkpt lat="45.83670830225809" lon="12.349454374236698"><ele>34.0</ele><time>2026-04-03T08:18:00.999Z</time></trkpt><trkpt lat="45.83681710206923" lon="12.34955522736799"><ele>34.0</ele><time>2026-04-03T08:18:01.999Z</time></trkpt><trkpt lat="45.836907573265044" lon="12.34964005419978"><ele>34.2</ele><time>2026-04-03T08:18:02.999Z</time></trkpt><trkpt lat="45.836977491911064" lon="12.349703525662298"><ele>34.4</ele><time>2026-04-03T08:18:03.999Z</time></trkpt><trkpt lat="45.83706268794258" lon="12.349780341735322"><ele>34.6</ele><time>2026-04-03T08:18:05.999Z</time></trkpt><trkpt lat="45.837137290770826" lon="12.34985020178908"><ele>34.8</ele><time>2026-04-03T08:18:07.999Z</time></trkpt><trkpt lat="45.83723706524571" lon="12.34993797993081"><ele>35.0</ele><time>2026-04-03T08:18:10Z</time></trkpt><trkpt lat="45.837299589262514" lon="12.349991659446102"><ele>35.0</ele><time>2026-04-03T08:18:11Z</time></trkpt><trkpt lat="45.83736962581766" lon="12.35005385376413"><ele>35.0</ele><time>2026-04-03T08:18:12Z</time></trkpt><trkpt lat="45.83744092878522" lon="12.350120524144135"><ele>35.0</ele><time>2026-04-03T08:18:13Z</time></trkpt><trkpt lat="45.83750836541164" lon="12.350186521732086"><ele>35.0</ele><time>2026-04-03T08:18:14Z</time></trkpt><trkpt lat="45.83756951992775" lon="12.35025693392851"><ele>35.0</ele><time>2026-04-03T08:18:15Z</time></trkpt><trkpt lat="45.837620372205436" lon="12.350328386804218"><ele>35.0</ele><time>2026-04-03T08:18:16Z</time></trkpt><trkpt lat="45.83768614121565" lon="12.35043324619917"><ele>35.0</ele><time>2026-04-03T08:18:18Z</time></trkpt><trkpt lat="45.837752297304306" lon="12.350502580645122"><ele>35.0</ele><time>2026-04-03T08:18:20Z</time></trkpt><trkpt lat="45.83782405754699" lon="12.350582839814937"><ele>35.0</ele><time>2026-04-03T08:18:22Z</time></trkpt><trkpt lat="45.83794342573369" lon="12.350608039749627"><ele>35.0</ele><time>2026-04-03T08:18:24Z</time></trkpt><trkpt lat="45.83801615140193" lon="12.350636133755094"><ele>35.0</ele><time>2026-04-03T08:18:25Z</time></trkpt><trkpt lat="45.838099809457525" lon="12.350668398926816"><ele>35.2</ele><time>2026-04-03T08:18:26Z</time></trkpt><trkpt lat="45.83819013300604" lon="12.350702402147807"><ele>35.4</ele><time>2026-04-03T08:18:27Z</time></trkpt><trkpt lat="45.838285838114274" lon="12.350737336389415"><ele>35.6</ele><time>2026-04-03T08:18:28Z</time></trkpt><trkpt lat="45.838390017306445" lon="12.350774019580573"><ele>35.8</ele><time>2026-04-03T08:18:29Z</time></trkpt><trkpt lat="45.838500941157285" lon="12.35081267453836"><ele>36.0</ele><time>2026-04-03T08:18:30Z</time></trkpt><trkpt lat="45.838613984157064" lon="12.350852735489466"><ele>36.0</ele><time>2026-04-03T08:18:31Z</time></trkpt><trkpt lat="45.83872363404971" lon="12.350892264068255"><ele>36.0</ele><time>2026-04-03T08:18:32Z</time></trkpt><trkpt lat="45.838827100443645" lon="12.350930459621974"><ele>36.0</ele><time>2026-04-03T08:18:33Z</time></trkpt><trkpt lat="45.83892832310607" lon="12.350971239503894"><ele>36.0</ele><time>2026-04-03T08:18:34Z</time></trkpt><trkpt lat="45.839013496497124" lon="12.351008509542927"><ele>36.0</ele><time>2026-04-03T08:18:35Z</time></trkpt><trkpt lat="45.83907397929592" lon="12.35104180261263"><ele>36.0</ele><time>2026-04-03T08:18:36Z</time></trkpt><trkpt lat="45.8391787733486" lon="12.351128244910653"><ele>36.0</ele><time>2026-04-03T08:18:38Z</time></trkpt><trkpt lat="45.83927156285787" lon="12.351183798615333"><ele>36.0</ele><time>2026-04-03T08:18:40Z</time></trkpt><trkpt lat="45.83934730593424" lon="12.351106318379514"><ele>36.0</ele><time>2026-04-03T08:18:42Z</time></trkpt><trkpt lat="45.83936338843276" lon="12.351014797969215"><ele>36.0</ele><time>2026-04-03T08:18:43Z</time></trkpt><trkpt lat="45.8393025925307" lon="12.350883721614881"><ele>36.0</ele><time>2026-04-03T08:18:45Z</time></trkpt><trkpt lat="45.83932710586326" lon="12.350777468781587"><ele>36.0</ele><time>2026-04-03T08:18:46Z</time></trkpt><trkpt lat="45.83932320570354" lon="12.350676843808591"><ele>36.0</ele><time>2026-04-03T08:18:47Z</time></trkpt><trkpt lat="45.839340752812376" lon="12.350566687229481"><ele>36.0</ele><time>2026-04-03T08:18:48Z</time></trkpt><trkpt lat="45.839368992190415" lon="12.350446748882584"><ele>36.0</ele><time>2026-04-03T08:18:49Z</time></trkpt><trkpt lat="45.83939726775998" lon="12.350319359750298"><ele>36.0</ele><time>2026-04-03T08:18:50Z</time></trkpt><trkpt lat="45.839429087359136" lon="12.350185681708616"><ele>36.0</ele><time>2026-04-03T08:18:51Z</time></trkpt><trkpt lat="45.839464373472595" lon="12.350043830442063"><ele>36.0</ele><time>2026-04-03T08:18:52Z</time></trkpt><trkpt lat="45.83950520460191" lon="12.349893963046183"><ele>36.0</ele><time>2026-04-03T08:18:53Z</time></trkpt><trkpt lat="45.83955050168802" lon="12.349740117255735"><ele>36.0</ele><time>2026-04-03T08:18:54Z</time></trkpt><trkpt lat="45.83959985701825" lon="12.349582061010059"><ele>36.0</ele><time>2026-04-03T08:18:55Z</time></trkpt><trkpt lat="45.83965041502554" lon="12.34942744223351"><ele>36.0</ele><time>2026-04-03T08:18:56Z</time></trkpt><trkpt lat="45.83970240007163" lon="12.349283523329351"><ele>36.0</ele><time>2026-04-03T08:18:57Z</time></trkpt><trkpt lat="45.83975165409161" lon="12.349160125785215"><ele>36.0</ele><time>2026-04-03T08:18:58Z</time></trkpt><trkpt lat="45.83979456522216" lon="12.349060258753989"><ele>36.0</ele><time>2026-04-03T08:18:59Z</time></trkpt><trkpt lat="45.8398361931614" lon="12.348981859743908"><ele>36.0</ele><time>2026-04-03T08:19:00Z</time></trkpt><trkpt lat="45.83988627403017" lon="12.348910489788812"><ele>36.0</ele><time>2026-04-03T08:19:01Z</time></trkpt><trkpt lat="45.83993573030212" lon="12.348834180310671"><ele>36.0</ele><time>2026-04-03T08:19:02Z</time></trkpt><trkpt lat="45.839976097147996" lon="12.348741028408082"><ele>36.0</ele><time>2026-04-03T08:19:03Z</time></trkpt><trkpt lat="45.840008292596366" lon="12.34863163967091"><ele>36.0</ele><time>2026-04-03T08:19:04Z</time></trkpt><trkpt lat="45.840050510022294" lon="12.34852250192917"><ele>36.0</ele><time>2026-04-03T08:19:05Z</time></trkpt><trkpt lat="45.840101010145304" lon="12.348436472224716"><ele>35.833333333333336</ele><time>2026-04-03T08:19:06Z</time></trkpt><trkpt lat="45.840145676836116" lon="12.348364373160898"><ele>35.666666666666664</ele><time>2026-04-03T08:19:08Z</time></trkpt><trkpt lat="45.84018272090612" lon="12.348290706313724"><ele>35.5</ele><time>2026-04-03T08:19:16.999Z</time></trkpt><trkpt lat="45.84022952185496" lon="12.348207144642233"><ele>35.33333333333333</ele><time>2026-04-03T08:19:18.999Z</time></trkpt><trkpt lat="45.84029274407097" lon="12.348105779784499"><ele>35.166666666666664</ele><time>2026-04-03T08:19:20.999Z</time></trkpt><trkpt lat="45.84037141515577" lon="12.347978890696417"><ele>35.0</ele><time>2026-04-03T08:19:22.999Z</time></trkpt><trkpt lat="45.84041420741898" lon="12.347902274827062"><ele>35.0</ele><time>2026-04-03T08:19:23.999Z</time></trkpt><trkpt lat="45.840460008341466" lon="12.347821351538073"><ele>35.0</ele><time>2026-04-03T08:19:24.999Z</time></trkpt><trkpt lat="45.84051031764654" lon="12.347735582342045"><ele>35.0</ele><time>2026-04-03T08:19:25.999Z</time></trkpt><trkpt lat="45.840563227085255" lon="12.347642917971855"><ele>35.0</ele><time>2026-04-03T08:19:26.999Z</time></trkpt><trkpt lat="45.84061906038333" lon="12.347545488688471"><ele>35.0</ele><time>2026-04-03T08:19:27.999Z</time></trkpt><trkpt lat="45.840679371278725" lon="12.347442883312837"><ele>35.0</ele><time>2026-04-03T08:19:28.999Z</time></trkpt><trkpt lat="45.840742898364255" lon="12.347334173249422"><ele>35.0</ele><time>2026-04-03T08:19:29.999Z</time></trkpt><trkpt lat="45.84080892430331" lon="12.347220176271344"><ele>35.0</ele><time>2026-04-03T08:19:30.999Z</time></trkpt><trkpt lat="45.840878192441465" lon="12.347103515870781"><ele>35.0</ele><time>2026-04-03T08:19:31.999Z</time></trkpt><trkpt lat="45.840949980173136" lon="12.346981277730706"><ele>35.0</ele><time>2026-04-03T08:19:32.999Z</time></trkpt><trkpt lat="45.841023893657166" lon="12.34685531061654"><ele>35.0</ele><time>2026-04-03T08:19:33.999Z</time></trkpt><trkpt lat="45.84109982384044" lon="12.346723305873041"><ele>35.25</ele><time>2026-04-03T08:19:34.999Z</time></trkpt><trkpt lat="45.84117765034832" lon="12.346590617550632"><ele>35.5</ele><time>2026-04-03T08:19:35.999Z</time></trkpt><trkpt lat="45.8412566831839" lon="12.346456151667374"><ele>35.75</ele><time>2026-04-03T08:19:36.999Z</time></trkpt><trkpt lat="45.841336836233936" lon="12.34631936594164"><ele>36.0</ele><time>2026-04-03T08:19:37.999Z</time></trkpt><trkpt lat="45.84141638564101" lon="12.346182387234926"><ele>36.0</ele><time>2026-04-03T08:19:38.999Z</time></trkpt><trkpt lat="45.84149313160029" lon="12.34605057461551"><ele>36.0</ele><time>2026-04-03T08:19:39.999Z</time></trkpt><trkpt lat="45.84156823432648" lon="12.34592204439147"><ele>36.0</ele><time>2026-04-03T08:19:40.999Z</time></trkpt><trkpt lat="45.84164036382363" lon="12.345795530322059"><ele>36.0</ele><time>2026-04-03T08:19:41.999Z</time></trkpt><trkpt lat="45.841710499711006" lon="12.345671003663455"><ele>36.0</ele><time>2026-04-03T08:19:42.999Z</time></trkpt><trkpt lat="45.84178060721489" lon="12.345549573977"><ele>36.0</ele><time>2026-04-03T08:19:43.999Z</time></trkpt><trkpt lat="45.841850254963575" lon="12.345431929442713"><ele>36.0</ele><time>2026-04-03T08:19:44.999Z</time></trkpt><trkpt lat="45.841918042783725" lon="12.345314366839396"><ele>36.0</ele><time>2026-04-03T08:19:45.999Z</time></trkpt><trkpt lat="45.84198318370152" lon="12.345203780634172"><ele>36.0</ele><time>2026-04-03T08:19:46.999Z</time></trkpt><trkpt lat="45.842040131046325" lon="12.345108830784438"><ele>35.833333333333336</ele><time>2026-04-03T08:19:47.999Z</time></trkpt><trkpt lat="45.842086661938666" lon="12.345030968801828"><ele>35.666666666666664</ele><time>2026-04-03T08:19:48.999Z</time></trkpt><trkpt lat="45.84215328168495" lon="12.34492283694928"><ele>35.5</ele><time>2026-04-03T08:19:50.999Z</time></trkpt><trkpt lat="45.84219657911936" lon="12.344847673940201"><ele>35.33333333333333</ele><time>2026-04-03T08:19:53.999Z</time></trkpt><trkpt lat="45.84221830670162" lon="12.344731061185554"><ele>35.166666666666664</ele><time>2026-04-03T08:19:56.999Z</time></trkpt><trkpt lat="45.84218040138633" lon="12.344637018799917"><ele>35.0</ele><time>2026-04-03T08:19:58.999Z</time></trkpt><trkpt lat="45.84212104035853" lon="12.344555319758479"><ele>35.0</ele><time>2026-04-03T08:20:00.999Z</time></trkpt><trkpt lat="45.842073034619204" lon="12.344459730537087"><ele>35.0</ele><time>2026-04-03T08:20:02.999Z</time></trkpt><trkpt lat="45.8420036073935" lon="12.344388526451036"><ele>35.0</ele><time>2026-04-03T08:20:49Z</time></trkpt><trkpt lat="45.841918877925806" lon="12.344291878798886"><ele>35.0</ele><time>2026-04-03T08:20:52Z</time></trkpt><trkpt lat="45.8418316808847" lon="12.344185683996361"><ele>35.0</ele><time>2026-04-03T08:20:54Z</time></trkpt><trkpt lat="45.84174241768804" lon="12.344078267991678"><ele>35.2</ele><time>2026-04-03T08:20:56Z</time></trkpt><trkpt lat="45.84165635643328" lon="12.34398117493468"><ele>35.4</ele><time>2026-04-03T08:20:58Z</time></trkpt><trkpt lat="45.84155980278151" lon="12.343873833699005"><ele>35.6</ele><time>2026-04-03T08:21:00Z</time></trkpt><trkpt lat="45.841491837192684" lon="12.343842349275699"><ele>35.8</ele><time>2026-04-03T08:21:01Z</time></trkpt><trkpt lat="45.84143056407046" lon="12.34381705833908"><ele>36.0</ele><time>2026-04-03T08:21:02Z</time></trkpt><trkpt lat="45.8413384213927" lon="12.343794666107405"><ele>36.0</ele><time>2026-04-03T08:21:04Z</time></trkpt><trkpt lat="45.84126935893515" lon="12.343776125155575"><ele>36.0</ele><time>2026-04-03T08:21:07Z</time></trkpt><trkpt lat="45.84120681665444" lon="12.343759447212571"><ele>36.0</ele><time>2026-04-03T08:21:10Z</time></trkpt><trkpt lat="45.84115173817594" lon="12.343951307246904"><ele>36.0</ele><time>2026-04-03T08:21:13Z</time></trkpt><trkpt lat="45.84114880440691" lon="12.343824977143575"><ele>36.0</ele><time>2026-04-03T08:21:23.999Z</time></trkpt><trkpt lat="45.84118251901003" lon="12.343727114822478"><ele>36.0</ele><time>2026-04-03T08:21:26.999Z</time></trkpt><trkpt lat="45.841163044672015" lon="12.343881746429478"><ele>36.0</ele><time>2026-04-03T08:21:45.999Z</time></trkpt><trkpt lat="45.84115386512326" lon="12.344039988974329"><ele>36.0</ele><time>2026-04-03T08:21:47.999Z</time></trkpt><trkpt lat="45.84115284048801" lon="12.344188874924784"><ele>36.0</ele><time>2026-04-03T08:21:49.999Z</time></trkpt><trkpt lat="45.84115833014729" lon="12.344293145341394"><ele>36.0</ele><time>2026-04-03T08:22:05.999Z</time></trkpt><trkpt lat="45.84116367924739" lon="12.344396929873197"><ele>36.0</ele><time>2026-04-03T08:22:07.999Z</time></trkpt><trkpt lat="45.84115237286656" lon="12.344522323841186"><ele>36.0</ele><time>2026-04-03T08:22:09.999Z</time></trkpt><trkpt lat="45.84115705564254" lon="12.344660570980581"><ele>36.0</ele><time>2026-04-03T08:22:11.999Z</time></trkpt><trkpt lat="45.8411461377226" lon="12.3447590485053"><ele>36.0</ele><time>2026-04-03T08:22:13.999Z</time></trkpt><trkpt lat="45.84108213452587" lon="12.344773496943409"><ele>36.0</ele><time>2026-04-03T08:22:16.999Z</time></trkpt><trkpt lat="45.841199426765215" lon="12.344786248690019"><ele>36.0</ele><time>2026-04-03T08:22:29Z</time></trkpt><trkpt lat="45.84126329176497" lon="12.34483522543682"><ele>36.0</ele><time>2026-04-03T08:22:32Z</time></trkpt><trkpt lat="45.8413193275846" lon="12.344895080276986"><ele>36.0</ele><time>2026-04-03T08:22:35Z</time></trkpt><trkpt lat="45.84137225314013" lon="12.344955971134569"><ele>36.0</ele><time>2026-04-03T08:22:39Z</time></trkpt><trkpt lat="45.84132616282903" lon="12.344887437569287"><ele>36.0</ele><time>2026-04-03T08:22:56Z</time></trkpt><trkpt lat="45.84124762704169" lon="12.344788158267592"><ele>36.0</ele><time>2026-04-03T08:22:58Z</time></trkpt><trkpt lat="45.84116938507807" lon="12.344752226428586"><ele>36.0</ele><time>2026-04-03T08:23:00Z</time></trkpt><trkpt lat="45.841086851905594" lon="12.344804323791411"><ele>36.0</ele><time>2026-04-03T08:23:02Z</time></trkpt><trkpt lat="45.84101045485783" lon="12.344887655290611"><ele>36.0</ele><time>2026-04-03T08:23:04Z</time></trkpt><trkpt lat="45.84092753434266" lon="12.34497254084418"><ele>35.833333333333336</ele><time>2026-04-03T08:23:06Z</time></trkpt><trkpt lat="45.840857004243546" lon="12.345024217001694"><ele>35.666666666666664</ele><time>2026-04-03T08:23:36.999Z</time></trkpt><trkpt lat="45.840792367042475" lon="12.345057628891311"><ele>35.5</ele><time>2026-04-03T08:23:38.999Z</time></trkpt><trkpt lat="45.84071901154901" lon="12.345053138915201"><ele>35.33333333333333</ele><time>2026-04-03T08:23:41.999Z</time></trkpt><trkpt lat="45.84064757884393" lon="12.345027877928674"><ele>35.166666666666664</ele><time>2026-04-03T08:26:04.999Z</time></trkpt><trkpt lat="45.840576631084495" lon="12.345013750662323"><ele>35.0</ele><time>2026-04-03T08:26:06.999Z</time></trkpt><trkpt lat="45.84049172503489" lon="12.345015766880753"><ele>35.0</ele><time>2026-04-03T08:26:09.999Z</time></trkpt><trkpt lat="45.84043087368929" lon="12.345050830562938"><ele>35.0</ele><time>2026-04-03T08:26:13.999Z</time></trkpt><trkpt lat="45.840339240097165" lon="12.345090103453703"><ele>35.0</ele><time>2026-04-03T08:26:57Z</time></trkpt><trkpt lat="45.84025018743906" lon="12.345127667559394"><ele>35.0</ele><time>2026-04-03T08:26:59Z</time></trkpt><trkpt lat="45.840125893350375" lon="12.345185904688613"><ele>35.0</ele><time>2026-04-03T08:27:01Z</time></trkpt><trkpt lat="45.840039838828496" lon="12.345171330041625"><ele>35.0</ele><time>2026-04-03T08:27:02Z</time></trkpt><trkpt lat="45.839971790491944" lon="12.345200550202533"><ele>35.0</ele><time>2026-04-03T08:27:03Z</time></trkpt><trkpt lat="45.83990952834755" lon="12.34522728578293"><ele>35.0</ele><time>2026-04-03T08:27:04Z</time></trkpt><trkpt lat="45.83983543437576" lon="12.345232345725"><ele>35.0</ele><time>2026-04-03T08:27:06Z</time></trkpt><trkpt lat="45.83978381332018" lon="12.345146254527174"><ele>35.0</ele><time>2026-04-03T08:27:08Z</time></trkpt><trkpt lat="45.83979572112181" lon="12.345012729397178"><ele>35.0</ele><time>2026-04-03T08:27:10Z</time></trkpt><trkpt lat="45.83979699790964" lon="12.344861077115802"><ele>35.0</ele><time>2026-04-03T08:27:12Z</time></trkpt><trkpt lat="45.839792559042365" lon="12.344770796466879"><ele>35.0</ele><time>2026-04-03T08:27:13Z</time></trkpt><trkpt lat="45.83978765532365" lon="12.34467713858946"><ele>35.0</ele><time>2026-04-03T08:27:14Z</time></trkpt><trkpt lat="45.83978771799879" lon="12.344582933897849"><ele>35.0</ele><time>2026-04-03T08:27:15Z</time></trkpt><trkpt lat="45.83978801713805" lon="12.344432397987894"><ele>35.0</ele><time>2026-04-03T08:27:17Z</time></trkpt><trkpt lat="45.83981849193925" lon="12.344342921551382"><ele>35.0</ele><time>2026-04-03T08:27:20Z</time></trkpt><trkpt lat="45.83984904206866" lon="12.344231785283586"><ele>35.33333333333333</ele><time>2026-04-03T08:28:24.999Z</time></trkpt><trkpt lat="45.839899935542654" lon="12.34416169017667"><ele>35.666666666666664</ele><time>2026-04-03T08:28:26.999Z</time></trkpt><trkpt lat="45.83997431214045" lon="12.344057212288975"><ele>36.0</ele><time>2026-04-03T08:28:28.999Z</time></trkpt><trkpt lat="45.840030587402026" lon="12.343961951098024"><ele>36.333333333333336</ele><time>2026-04-03T08:28:30.999Z</time></trkpt><trkpt lat="45.84002661208232" lon="12.343850761487248"><ele>36.66666666666667</ele><time>2026-04-03T08:28:36.999Z</time></trkpt><trkpt lat="45.83997612739151" lon="12.343788250766021"><ele>37.0</ele><time>2026-04-03T08:28:40Z</time></trkpt><trkpt lat="45.839912726297335" lon="12.34371689299878"><ele>37.0</ele><time>2026-04-03T08:28:42Z</time></trkpt><trkpt lat="45.83984362392502" lon="12.34363070251154"><ele>37.0</ele><time>2026-04-03T08:28:44Z</time></trkpt><trkpt lat="45.839769577965974" lon="12.343534964208612"><ele>37.0</ele><time>2026-04-03T08:28:46Z</time></trkpt><trkpt lat="45.839705553531715" lon="12.343476396955719"><ele>37.0</ele><time>2026-04-03T08:28:48Z</time></trkpt><trkpt lat="45.83962993781071" lon="12.343436189697668"><ele>37.0</ele><time>2026-04-03T08:28:51Z</time></trkpt><trkpt lat="45.83960747345567" lon="12.34333437414041"><ele>37.0</ele><time>2026-04-03T08:28:54Z</time></trkpt><trkpt lat="45.83961936463774" lon="12.343427975789174"><ele>37.0</ele><time>2026-04-03T08:29:09Z</time></trkpt><trkpt lat="45.83959560552184" lon="12.3435168296195"><ele>37.0</ele><time>2026-04-03T08:29:16Z</time></trkpt><trkpt lat="45.83953912563255" lon="12.34358552725473"><ele>37.0</ele><time>2026-04-03T08:29:22Z</time></trkpt><trkpt lat="45.83950694451225" lon="12.343673262188785"><ele>37.0</ele><time>2026-04-03T08:29:28.999Z</time></trkpt><trkpt lat="45.83949781335876" lon="12.343548337832036"><ele>37.0</ele><time>2026-04-03T08:30:53Z</time></trkpt><trkpt lat="45.83952378889291" lon="12.343422603360501"><ele>37.0</ele><time>2026-04-03T08:30:56Z</time></trkpt><trkpt lat="45.83960446840551" lon="12.343369006269988"><ele>37.0</ele><time>2026-04-03T08:30:59Z</time></trkpt><trkpt lat="45.83971731094885" lon="12.34336952752414"><ele>37.0</ele><time>2026-04-03T08:31:29.999Z</time></trkpt><trkpt lat="45.839650580005845" lon="12.343362708872792"><ele>37.0</ele><time>2026-04-03T08:36:39.999Z</time></trkpt><trkpt lat="45.83972656166876" lon="12.343448380523654"><ele>37.0</ele><time>2026-04-03T08:36:46.999Z</time></trkpt><trkpt lat="45.83976982665734" lon="12.343533291215843"><ele>37.0</ele><time>2026-04-03T08:36:48.999Z</time></trkpt><trkpt lat="45.83982104425802" lon="12.34360502685988"><ele>37.0</ele><time>2026-04-03T08:36:50.999Z</time></trkpt><trkpt lat="45.8398769584844" lon="12.343670352945702"><ele>37.0</ele><time>2026-04-03T08:36:52.999Z</time></trkpt><trkpt lat="45.83992358809733" lon="12.343733167127061"><ele>37.0</ele><time>2026-04-03T08:36:58.999Z</time></trkpt><trkpt lat="45.83998510044625" lon="12.343810282778195"><ele>37.0</ele><time>2026-04-03T08:37:04Z</time></trkpt><trkpt lat="45.840043551005294" lon="12.343881249133684"><ele>37.0</ele><time>2026-04-03T08:37:07Z</time></trkpt><trkpt lat="45.84006452418027" lon="12.343973370997332"><ele>37.0</ele><time>2026-04-03T08:37:10Z</time></trkpt><trkpt lat="45.84001819821794" lon="12.34404937456557"><ele>37.0</ele><time>2026-04-03T08:37:12Z</time></trkpt><trkpt lat="45.83995800489991" lon="12.344122484417346"><ele>37.0</ele><time>2026-04-03T08:37:14Z</time></trkpt><trkpt lat="45.8398768514583" lon="12.344246572684213"><ele>37.0</ele><time>2026-04-03T08:37:16Z</time></trkpt><trkpt lat="45.83983271394089" lon="12.344327479303855"><ele>37.0</ele><time>2026-04-03T08:37:17Z</time></trkpt><trkpt lat="45.83979780427777" lon="12.344408492292983"><ele>37.0</ele><time>2026-04-03T08:37:18Z</time></trkpt><trkpt lat="45.839748963246954" lon="12.344492238190503"><ele>37.0</ele><time>2026-04-03T08:37:19Z</time></trkpt><trkpt lat="45.83975134134839" lon="12.344609621113921"><ele>37.0</ele><time>2026-04-03T08:37:20Z</time></trkpt><trkpt lat="45.83975221832664" lon="12.344723910631275"><ele>37.0</ele><time>2026-04-03T08:37:21Z</time></trkpt><trkpt lat="45.8397517327334" lon="12.344843213431782"><ele>36.66666666666667</ele><time>2026-04-03T08:37:22Z</time></trkpt><trkpt lat="45.839751244030914" lon="12.344963279464293"><ele>36.333333333333336</ele><time>2026-04-03T08:37:23Z</time></trkpt><trkpt lat="45.83975176649825" lon="12.345073207849788"><ele>36.0</ele><time>2026-04-03T08:37:24Z</time></trkpt><trkpt lat="45.83975637834833" lon="12.34516416435341"><ele>35.666666666666664</ele><time>2026-04-03T08:37:25Z</time></trkpt><trkpt lat="45.83980192202723" lon="12.345296033115526"><ele>35.33333333333333</ele><time>2026-04-03T08:37:26.999Z</time></trkpt><trkpt lat="45.83986835668328" lon="12.345316427276419"><ele>35.0</ele><time>2026-04-03T08:37:27.999Z</time></trkpt><trkpt lat="45.83997792394226" lon="12.345292253090372"><ele>35.0</ele><time>2026-04-03T08:37:29.999Z</time></trkpt><trkpt lat="45.84008788740604" lon="12.3452316529287"><ele>35.0</ele><time>2026-04-03T08:37:31.999Z</time></trkpt><trkpt lat="45.84015347423853" lon="12.34520257075786"><ele>35.0</ele><time>2026-04-03T08:37:32.999Z</time></trkpt><trkpt lat="45.84023217803686" lon="12.345170990081687"><ele>35.0</ele><time>2026-04-03T08:37:33.999Z</time></trkpt><trkpt lat="45.84030806392747" lon="12.345135655161664"><ele>35.0</ele><time>2026-04-03T08:37:34.999Z</time></trkpt><trkpt lat="45.8403794703739" lon="12.345108896626089"><ele>35.0</ele><time>2026-04-03T08:37:35.999Z</time></trkpt><trkpt lat="45.84047903935443" lon="12.345067976113754"><ele>35.0</ele><time>2026-04-03T08:37:37.999Z</time></trkpt><trkpt lat="45.840589895083575" lon="12.345050134733548"><ele>35.0</ele><time>2026-04-03T08:37:39.999Z</time></trkpt><trkpt lat="45.84065793845212" lon="12.345048619856115"><ele>35.0</ele><time>2026-04-03T08:37:40.999Z</time></trkpt><trkpt lat="45.84073260187049" lon="12.345047594307024"><ele>35.0</ele><time>2026-04-03T08:37:41.999Z</time></trkpt><trkpt lat="45.84081360692612" lon="12.345046616646746"><ele>35.0</ele><time>2026-04-03T08:37:42.999Z</time></trkpt><trkpt lat="45.84089188436801" lon="12.345030516755287"><ele>35.0</ele><time>2026-04-03T08:37:43.999Z</time></trkpt><trkpt lat="45.840965119399804" lon="12.34499202028624"><ele>35.166666666666664</ele><time>2026-04-03T08:37:44.999Z</time></trkpt><trkpt lat="45.841031342510455" lon="12.344933134739552"><ele>35.33333333333333</ele><time>2026-04-03T08:37:45.999Z</time></trkpt><trkpt lat="45.841089524688705" lon="12.344865213139219"><ele>35.5</ele><time>2026-04-03T08:37:46.999Z</time></trkpt><trkpt lat="45.84114255418219" lon="12.344812970007927"><ele>35.666666666666664</ele><time>2026-04-03T08:37:47.999Z</time></trkpt><trkpt lat="45.84120596577275" lon="12.344702956984738"><ele>35.833333333333336</ele><time>2026-04-03T08:37:49.999Z</time></trkpt><trkpt lat="45.84120576268793" lon="12.344537714761879"><ele>36.0</ele><time>2026-04-03T08:37:51.999Z</time></trkpt><trkpt lat="45.84119346280198" lon="12.344445643322373"><ele>36.0</ele><time>2026-04-03T08:37:52.999Z</time></trkpt><trkpt lat="45.841189258034916" lon="12.344349612637686"><ele>36.0</ele><time>2026-04-03T08:37:53.999Z</time></trkpt><trkpt lat="45.84118667349359" lon="12.344238566697918"><ele>36.0</ele><time>2026-04-03T08:37:54.999Z</time></trkpt><trkpt lat="45.841183530939254" lon="12.34411784450952"><ele>36.0</ele><time>2026-04-03T08:37:55.999Z</time></trkpt><trkpt lat="45.84117994025652" lon="12.344012909288294"><ele>36.0</ele><time>2026-04-03T08:37:56.999Z</time></trkpt><trkpt lat="45.841207548329756" lon="12.343871119045382"><ele>36.0</ele><time>2026-04-03T08:37:58.999Z</time></trkpt><trkpt lat="45.84131350411192" lon="12.343821907585589"><ele>36.0</ele><time>2026-04-03T08:38:00.999Z</time></trkpt><trkpt lat="45.841416587467364" lon="12.343878333384845"><ele>36.0</ele><time>2026-04-03T08:38:02.999Z</time></trkpt><trkpt lat="45.841533631693345" lon="12.34392674150504"><ele>36.0</ele><time>2026-04-03T08:38:04.999Z</time></trkpt><trkpt lat="45.84159841685731" lon="12.343957732562384"><ele>36.0</ele><time>2026-04-03T08:38:05.999Z</time></trkpt><trkpt lat="45.84166617937887" lon="12.34400518081511"><ele>36.0</ele><time>2026-04-03T08:38:06.999Z</time></trkpt><trkpt lat="45.841727831083666" lon="12.344079884583405"><ele>36.0</ele><time>2026-04-03T08:38:07.999Z</time></trkpt><trkpt lat="45.84178746225935" lon="12.344160780199378"><ele>36.0</ele><time>2026-04-03T08:38:08.999Z</time></trkpt><trkpt lat="45.84185088095769" lon="12.344242120313705"><ele>36.0</ele><time>2026-04-03T08:38:09.999Z</time></trkpt><trkpt lat="45.84191951585123" lon="12.344327423897838"><ele>36.0</ele><time>2026-04-03T08:38:10.999Z</time></trkpt><trkpt lat="45.8419881955087" lon="12.34440819070621"><ele>36.0</ele><time>2026-04-03T08:38:11.999Z</time></trkpt><trkpt lat="45.84205237777014" lon="12.344486488960376"><ele>36.0</ele><time>2026-04-03T08:38:12.999Z</time></trkpt><trkpt lat="45.842112702207025" lon="12.344559548503096"><ele>35.833333333333336</ele><time>2026-04-03T08:38:13.999Z</time></trkpt><trkpt lat="45.84216060348037" lon="12.344625355952884"><ele>35.666666666666664</ele><time>2026-04-03T08:38:14.999Z</time></trkpt><trkpt lat="45.84221068038893" lon="12.344687703442927"><ele>35.5</ele><time>2026-04-03T08:38:20.999Z</time></trkpt><trkpt lat="45.84228144363634" lon="12.344717444372217"><ele>35.33333333333333</ele><time>2026-04-03T08:38:50.999Z</time></trkpt><trkpt lat="45.84236168475769" lon="12.344622689347354"><ele>35.166666666666664</ele><time>2026-04-03T08:38:52.999Z</time></trkpt><trkpt lat="45.84243805022496" lon="12.344473998715037"><ele>35.0</ele><time>2026-04-03T08:38:54.999Z</time></trkpt><trkpt lat="45.842488979828794" lon="12.34438912318991"><ele>35.0</ele><time>2026-04-03T08:38:55.999Z</time></trkpt><trkpt lat="45.84254372892045" lon="12.344297056161821"><ele>35.0</ele><time>2026-04-03T08:38:56.999Z</time></trkpt><trkpt lat="45.84259997773747" lon="12.344193178041778"><ele>35.0</ele><time>2026-04-03T08:38:57.999Z</time></trkpt><trkpt lat="45.842662263418056" lon="12.344084639946418"><ele>35.0</ele><time>2026-04-03T08:38:58.999Z</time></trkpt><trkpt lat="45.84272869828182" lon="12.343969343776575"><ele>35.0</ele><time>2026-04-03T08:38:59.999Z</time></trkpt><trkpt lat="45.84279920984274" lon="12.34384757404991"><ele>35.5</ele><time>2026-04-03T08:39:00.998Z</time></trkpt><trkpt lat="45.84287414213163" lon="12.343719521359077"><ele>36.0</ele><time>2026-04-03T08:39:01.998Z</time></trkpt><trkpt lat="45.842950946888" lon="12.343588570496856"><ele>36.5</ele><time>2026-04-03T08:39:02.998Z</time></trkpt><trkpt lat="45.843028859769376" lon="12.34345116848695"><ele>37.0</ele><time>2026-04-03T08:39:03.998Z</time></trkpt><trkpt lat="45.843109196707985" lon="12.343312192137534"><ele>37.0</ele><time>2026-04-03T08:39:04.998Z</time></trkpt><trkpt lat="45.843185572324224" lon="12.343176783331895"><ele>37.0</ele><time>2026-04-03T08:39:05.998Z</time></trkpt><trkpt lat="45.84326171075539" lon="12.343044463550358"><ele>37.0</ele><time>2026-04-03T08:39:06.998Z</time></trkpt><trkpt lat="45.84333015291739" lon="12.34291672540017"><ele>37.0</ele><time>2026-04-03T08:39:07.998Z</time></trkpt><trkpt lat="45.843374972156" lon="12.342783418715113"><ele>37.2</ele><time>2026-04-03T08:39:09Z</time></trkpt><trkpt lat="45.84344657499466" lon="12.342680010735725"><ele>37.400000000000006</ele><time>2026-04-03T08:39:10Z</time></trkpt><trkpt lat="45.84352806908908" lon="12.34259321756461"><ele>37.599999999999994</ele><time>2026-04-03T08:39:11Z</time></trkpt><trkpt lat="45.843611357845546" lon="12.342528466007241"><ele>37.8</ele><time>2026-04-03T08:39:12Z</time></trkpt><trkpt lat="45.84368644762173" lon="12.342452589211161"><ele>38.0</ele><time>2026-04-03T08:39:13Z</time></trkpt><trkpt lat="45.8437132533711" lon="12.342325864354176"><ele>37.8</ele><time>2026-04-03T08:39:14Z</time></trkpt><trkpt lat="45.84374888247104" lon="12.342199030195228"><ele>37.599999999999994</ele><time>2026-04-03T08:39:15Z</time></trkpt><trkpt lat="45.84378828848742" lon="12.342068811452275"><ele>37.400000000000006</ele><time>2026-04-03T08:39:16Z</time></trkpt><trkpt lat="45.84382690033845" lon="12.34193587411822"><ele>37.2</ele><time>2026-04-03T08:39:17Z</time></trkpt><trkpt lat="45.84386862823055" lon="12.341801260992169"><ele>37.0</ele><time>2026-04-03T08:39:18Z</time></trkpt><trkpt lat="45.84393420872689" lon="12.34167463103247"><ele>37.0</ele><time>2026-04-03T08:39:19Z</time></trkpt><trkpt lat="45.843981898825994" lon="12.341527636404477"><ele>37.0</ele><time>2026-04-03T08:39:20Z</time></trkpt><trkpt lat="45.844030752868306" lon="12.341373840053663"><ele>37.0</ele><time>2026-04-03T08:39:21Z</time></trkpt><trkpt lat="45.84408200715266" lon="12.341214344988005"><ele>37.0</ele><time>2026-04-03T08:39:22Z</time></trkpt><trkpt lat="45.8441337096609" lon="12.341045910298154"><ele>37.0</ele><time>2026-04-03T08:39:23Z</time></trkpt><trkpt lat="45.844185923131185" lon="12.34087250209906"><ele>37.0</ele><time>2026-04-03T08:39:24Z</time></trkpt><trkpt lat="45.844239878163584" lon="12.340690784389116"><ele>37.0</ele><time>2026-04-03T08:39:25Z</time></trkpt><trkpt lat="45.84429343338694" lon="12.34050347971666"><ele>37.0</ele><time>2026-04-03T08:39:26Z</time></trkpt><trkpt lat="45.84434530537773" lon="12.340308142710807"><ele>37.0</ele><time>2026-04-03T08:39:27Z</time></trkpt><trkpt lat="45.844393436905534" lon="12.340105539080533"><ele>37.0</ele><time>2026-04-03T08:39:27.999Z</time></trkpt><trkpt lat="45.844435869785514" lon="12.339898064015667"><ele>37.0</ele><time>2026-04-03T08:39:28.999Z</time></trkpt><trkpt lat="45.84447035053424" lon="12.339685598128112"><ele>37.0</ele><time>2026-04-03T08:39:29.999Z</time></trkpt><trkpt lat="45.84449875610211" lon="12.33946746806851"><ele>37.0</ele><time>2026-04-03T08:39:30.999Z</time></trkpt><trkpt lat="45.84452334496989" lon="12.3392508966298"><ele>37.0</ele><time>2026-04-03T08:39:31.999Z</time></trkpt><trkpt lat="45.84454742328454" lon="12.339041951589072"><ele>37.25</ele><time>2026-04-03T08:39:32.999Z</time></trkpt><trkpt lat="45.844568741851134" lon="12.338848796670746"><ele>37.5</ele><time>2026-04-03T08:39:33.999Z</time></trkpt><trkpt lat="45.84458926110504" lon="12.338674510419887"><ele>37.75</ele><time>2026-04-03T08:39:34.999Z</time></trkpt><trkpt lat="45.844598624299465" lon="12.338516017948214"><ele>38.0</ele><time>2026-04-03T08:39:35.999Z</time></trkpt><trkpt lat="45.84459743929144" lon="12.338364443590294"><ele>38.0</ele><time>2026-04-03T08:39:36.999Z</time></trkpt><trkpt lat="45.84459244262318" lon="12.338214007553844"><ele>38.0</ele><time>2026-04-03T08:39:37.999Z</time></trkpt><trkpt lat="45.84458244167934" lon="12.33806472905718"><ele>38.0</ele><time>2026-04-03T08:39:38.999Z</time></trkpt><trkpt lat="45.84456384665973" lon="12.337911882417384"><ele>38.0</ele><time>2026-04-03T08:39:39.999Z</time></trkpt><trkpt lat="45.84454131438071" lon="12.33775573746805"><ele>38.0</ele><time>2026-04-03T08:39:40.999Z</time></trkpt><trkpt lat="45.844514463726156" lon="12.337592289539884"><ele>37.75</ele><time>2026-04-03T08:39:41.999Z</time></trkpt><trkpt lat="45.84448464328887" lon="12.337422642713733"><ele>37.5</ele><time>2026-04-03T08:39:42.999Z</time></trkpt><trkpt lat="45.84445593817638" lon="12.33724574510905"><ele>37.25</ele><time>2026-04-03T08:39:43.999Z</time></trkpt><trkpt lat="45.84443355421816" lon="12.337060096816048"><ele>37.0</ele><time>2026-04-03T08:39:44.999Z</time></trkpt><trkpt lat="45.84442181943477" lon="12.336866110847996"><ele>37.0</ele><time>2026-04-03T08:39:45.999Z</time></trkpt><trkpt lat="45.844424202296565" lon="12.336665339669887"><ele>37.0</ele><time>2026-04-03T08:39:46.999Z</time></trkpt><trkpt lat="45.84443867532723" lon="12.336459268844406"><ele>37.0</ele><time>2026-04-03T08:39:47.999Z</time></trkpt><trkpt lat="45.844459959676314" lon="12.336248767135244"><ele>37.0</ele><time>2026-04-03T08:39:48.999Z</time></trkpt><trkpt lat="45.84448450479108" lon="12.336034301401643"><ele>37.0</ele><time>2026-04-03T08:39:49.999Z</time></trkpt><trkpt lat="45.844509059734456" lon="12.335817469116646"><ele>37.0</ele><time>2026-04-03T08:39:50.999Z</time></trkpt><trkpt lat="45.84453479697323" lon="12.335595808056649"><ele>37.0</ele><time>2026-04-03T08:39:51.999Z</time></trkpt><trkpt lat="45.84456128527186" lon="12.335371642244795"><ele>37.333333333333336</ele><time>2026-04-03T08:39:52.999Z</time></trkpt><trkpt lat="45.84458740230703" lon="12.335143696162708"><ele>37.666666666666664</ele><time>2026-04-03T08:39:53.999Z</time></trkpt><trkpt lat="45.844613984401114" lon="12.334914669590543"><ele>38.0</ele><time>2026-04-03T08:39:54.999Z</time></trkpt><trkpt lat="45.84463919179686" lon="12.334682707917581"><ele>38.0</ele><time>2026-04-03T08:39:55.999Z</time></trkpt><trkpt lat="45.844665554255606" lon="12.334452063577782"><ele>38.0</ele><time>2026-04-03T08:39:56.999Z</time></trkpt><trkpt lat="45.84469165579602" lon="12.334220606837212"><ele>38.0</ele><time>2026-04-03T08:39:57.999Z</time></trkpt><trkpt lat="45.8447175486225" lon="12.33398706270869"><ele>38.666666666666664</ele><time>2026-04-03T08:39:58.999Z</time></trkpt><trkpt lat="45.84474505148521" lon="12.333752580724285"><ele>39.333333333333336</ele><time>2026-04-03T08:39:59.999Z</time></trkpt><trkpt lat="45.84477172445351" lon="12.333516502801883"><ele>40.0</ele><time>2026-04-03T08:40:00.999Z</time></trkpt><trkpt lat="45.84479883941305" lon="12.333281483527182"><ele>40.0</ele><time>2026-04-03T08:40:01.999Z</time></trkpt><trkpt lat="45.84482648335092" lon="12.333045893701094"><ele>40.0</ele><time>2026-04-03T08:40:02.999Z</time></trkpt><trkpt lat="45.84485338244446" lon="12.332811889582429"><ele>40.0</ele><time>2026-04-03T08:40:03.999Z</time></trkpt><trkpt lat="45.84487734697917" lon="12.332579957674236"><ele>40.0</ele><time>2026-04-03T08:40:04.999Z</time></trkpt><trkpt lat="45.84489623941605" lon="12.33235119027993"><ele>40.0</ele><time>2026-04-03T08:40:05.999Z</time></trkpt><trkpt lat="45.84490723295311" lon="12.332123971482098"><ele>40.0</ele><time>2026-04-03T08:40:06.999Z</time></trkpt><trkpt lat="45.84490247717121" lon="12.331899254490002"><ele>40.0</ele><time>2026-04-03T08:40:07.999Z</time></trkpt><trkpt lat="45.84488167529698" lon="12.331678024355586"><ele>40.0</ele><time>2026-04-03T08:40:08.999Z</time></trkpt><trkpt lat="45.84484890039023" lon="12.331459963717272"><ele>40.0</ele><time>2026-04-03T08:40:09.999Z</time></trkpt><trkpt lat="45.84481571491126" lon="12.331239520805882"><ele>40.333333333333336</ele><time>2026-04-03T08:40:10.999Z</time></trkpt><trkpt lat="45.844784814327255" lon="12.33101745512596"><ele>40.666666666666664</ele><time>2026-04-03T08:40:11.999Z</time></trkpt><trkpt lat="45.84476023784328" lon="12.330790452208372"><ele>41.0</ele><time>2026-04-03T08:40:12.999Z</time></trkpt><trkpt lat="45.84474551666599" lon="12.330558190871606"><ele>41.666666666666664</ele><time>2026-04-03T08:40:13.999Z</time></trkpt><trkpt lat="45.844738630034115" lon="12.330325376836223"><ele>42.333333333333336</ele><time>2026-04-03T08:40:14.999Z</time></trkpt><trkpt lat="45.844738809914475" lon="12.33009142096249"><ele>43.0</ele><time>2026-04-03T08:40:15.999Z</time></trkpt><trkpt lat="45.84474165422184" lon="12.329856607569551"><ele>42.66666666666667</ele><time>2026-04-03T08:40:16.999Z</time></trkpt><trkpt lat="45.84474771824635" lon="12.329623552081781"><ele>42.333333333333336</ele><time>2026-04-03T08:40:17.999Z</time></trkpt><trkpt lat="45.84475448787965" lon="12.329381641908839"><ele>42.0</ele><time>2026-04-03T08:40:18.999Z</time></trkpt><trkpt lat="45.84476161132592" lon="12.32913861666222"><ele>42.0</ele><time>2026-04-03T08:40:19.999Z</time></trkpt><trkpt lat="45.84476808434343" lon="12.328894373263116"><ele>42.0</ele><time>2026-04-03T08:40:20.999Z</time></trkpt><trkpt lat="45.84477499537374" lon="12.328648739446205"><ele>42.0</ele><time>2026-04-03T08:40:21.999Z</time></trkpt><trkpt lat="45.84478117904462" lon="12.328399482075408"><ele>41.666666666666664</ele><time>2026-04-03T08:40:22.999Z</time></trkpt><trkpt lat="45.8447878975776" lon="12.32814957509427"><ele>41.33333333333333</ele><time>2026-04-03T08:40:23.999Z</time></trkpt><trkpt lat="45.84479443155251" lon="12.32789652791097"><ele>41.0</ele><time>2026-04-03T08:40:24.999Z</time></trkpt><trkpt lat="45.844801408694586" lon="12.327641793017946"><ele>41.0</ele><time>2026-04-03T08:40:25.999Z</time></trkpt><trkpt lat="45.844807712081874" lon="12.32738373396875"><ele>41.0</ele><time>2026-04-03T08:40:26.999Z</time></trkpt><trkpt lat="45.84481253904304" lon="12.327124670737504"><ele>41.0</ele><time>2026-04-03T08:40:27.999Z</time></trkpt><trkpt lat="45.8448168126765" lon="12.326864985503004"><ele>41.0</ele><time>2026-04-03T08:40:28.999Z</time></trkpt><trkpt lat="45.84482168341039" lon="12.32660701802417"><ele>41.0</ele><time>2026-04-03T08:40:29.999Z</time></trkpt><trkpt lat="45.84482832601158" lon="12.326348395207763"><ele>41.0</ele><time>2026-04-03T08:40:30.999Z</time></trkpt><trkpt lat="45.84483188854032" lon="12.326089234499365"><ele>41.0</ele><time>2026-04-03T08:40:31.999Z</time></trkpt><trkpt lat="45.84483482849209" lon="12.325831996386123"><ele>41.0</ele><time>2026-04-03T08:40:32.999Z</time></trkpt><trkpt lat="45.84483907298969" lon="12.325575403462889"><ele>41.0</ele><time>2026-04-03T08:40:33.999Z</time></trkpt><trkpt lat="45.8448418554505" lon="12.325319714250186"><ele>40.666666666666664</ele><time>2026-04-03T08:40:34.999Z</time></trkpt><trkpt lat="45.84484615191743" lon="12.325068480340997"><ele>40.333333333333336</ele><time>2026-04-03T08:40:35.999Z</time></trkpt><trkpt lat="45.8448525750187" lon="12.324819680881026"><ele>40.0</ele><time>2026-04-03T08:40:36.999Z</time></trkpt><trkpt lat="45.84486153902985" lon="12.3245756777028"><ele>41.0</ele><time>2026-04-03T08:40:37.999Z</time></trkpt><trkpt lat="45.8448747970185" lon="12.324333214844343"><ele>42.0</ele><time>2026-04-03T08:40:38.999Z</time></trkpt><trkpt lat="45.844891310893814" lon="12.324095771562193"><ele>43.0</ele><time>2026-04-03T08:40:39.999Z</time></trkpt><trkpt lat="45.84490940239355" lon="12.323861527289868"><ele>43.0</ele><time>2026-04-03T08:40:40.999Z</time></trkpt><trkpt lat="45.8449299499378" lon="12.3236289298831"><ele>43.0</ele><time>2026-04-03T08:40:41.999Z</time></trkpt><trkpt lat="45.84495189059957" lon="12.323399192000593"><ele>43.0</ele><time>2026-04-03T08:40:42.999Z</time></trkpt><trkpt lat="45.844978599061996" lon="12.323171087376144"><ele>43.0</ele><time>2026-04-03T08:40:43.999Z</time></trkpt><trkpt lat="45.845009946585826" lon="12.322945726879526"><ele>43.0</ele><time>2026-04-03T08:40:44.999Z</time></trkpt><trkpt lat="45.84504571832736" lon="12.322724742533794"><ele>43.0</ele><time>2026-04-03T08:40:45.999Z</time></trkpt><trkpt lat="45.84509290971419" lon="12.322508272796398"><ele>43.0</ele><time>2026-04-03T08:40:46.999Z</time></trkpt><trkpt lat="45.84514810760306" lon="12.322294466044402"><ele>43.0</ele><time>2026-04-03T08:40:47.999Z</time></trkpt><trkpt lat="45.845209415309114" lon="12.32208689118002"><ele>43.0</ele><time>2026-04-03T08:40:48.999Z</time></trkpt><trkpt lat="45.845275735607174" lon="12.321888492189256"><ele>43.0</ele><time>2026-04-03T08:40:49.999Z</time></trkpt><trkpt lat="45.84534164662542" lon="12.321714001974511"><ele>43.0</ele><time>2026-04-03T08:40:50.999Z</time></trkpt><trkpt lat="45.8454061390985" lon="12.321559816774954"><ele>43.0</ele><time>2026-04-03T08:40:51.999Z</time></trkpt><trkpt lat="45.84546683328215" lon="12.321424398224506"><ele>43.0</ele><time>2026-04-03T08:40:52.999Z</time></trkpt><trkpt lat="45.84552912605389" lon="12.321303888284122"><ele>43.2</ele><time>2026-04-03T08:40:53.999Z</time></trkpt><trkpt lat="45.845587143434265" lon="12.321189690476398"><ele>43.4</ele><time>2026-04-03T08:40:54.999Z</time></trkpt><trkpt lat="45.84564474125263" lon="12.321078481697938"><ele>43.6</ele><time>2026-04-03T08:40:55.999Z</time></trkpt><trkpt lat="45.84570302966904" lon="12.3209691374719"><ele>43.800000000000004</ele><time>2026-04-03T08:40:56.999Z</time></trkpt><trkpt lat="45.845761900846384" lon="12.320856218049045"><ele>44.0</ele><time>2026-04-03T08:40:57.999Z</time></trkpt><trkpt lat="45.84582038489039" lon="12.320742512189028"><ele>44.0</ele><time>2026-04-03T08:40:58.999Z</time></trkpt><trkpt lat="45.84587955182112" lon="12.320626500774804"><ele>44.0</ele><time>2026-04-03T08:40:59.999Z</time></trkpt><trkpt lat="45.84594124877402" lon="12.32050662579777"><ele>44.0</ele><time>2026-04-03T08:41:00.999Z</time></trkpt><trkpt lat="45.84600238088297" lon="12.320381409793452"><ele>44.0</ele><time>2026-04-03T08:41:01.999Z</time></trkpt><trkpt lat="45.84606532594363" lon="12.320258430785373"><ele>44.0</ele><time>2026-04-03T08:41:02.998Z</time></trkpt><trkpt lat="45.84612887839127" lon="12.32013429820089"><ele>44.2</ele><time>2026-04-03T08:41:03.998Z</time></trkpt><trkpt lat="45.846193141185296" lon="12.320010096748552"><ele>44.400000000000006</ele><time>2026-04-03T08:41:04.998Z</time></trkpt><trkpt lat="45.84625703473032" lon="12.319886960508834"><ele>44.6</ele><time>2026-04-03T08:41:05.998Z</time></trkpt><trkpt lat="45.84631979910638" lon="12.319767337311328"><ele>44.8</ele><time>2026-04-03T08:41:06.998Z</time></trkpt><trkpt lat="45.846381133404265" lon="12.319650200904498"><ele>45.0</ele><time>2026-04-03T08:41:07.998Z</time></trkpt><trkpt lat="45.8464353022548" lon="12.319543794778525"><ele>45.0</ele><time>2026-04-03T08:41:08.998Z</time></trkpt><trkpt lat="45.84648262734617" lon="12.3194411806235"><ele>45.0</ele><time>2026-04-03T08:41:09.998Z</time></trkpt><trkpt lat="45.84652848437399" lon="12.31934608884461"><ele>45.0</ele><time>2026-04-03T08:41:10.998Z</time></trkpt><trkpt lat="45.84656949672665" lon="12.31925881927055"><ele>45.0</ele><time>2026-04-03T08:41:11.998Z</time></trkpt><trkpt lat="45.846605473422905" lon="12.319180050697389"><ele>45.0</ele><time>2026-04-03T08:41:12.998Z</time></trkpt><trkpt lat="45.846658435218075" lon="12.319088743105292"><ele>45.0</ele><time>2026-04-03T08:41:15Z</time></trkpt><trkpt lat="45.846714014575674" lon="12.31902854428213"><ele>45.0</ele><time>2026-04-03T08:41:19Z</time></trkpt><trkpt lat="45.84677432030388" lon="12.31895189560312"><ele>45.0</ele><time>2026-04-03T08:41:21Z</time></trkpt><trkpt lat="45.84683200308605" lon="12.318809351338983"><ele>45.0</ele><time>2026-04-03T08:41:23Z</time></trkpt><trkpt lat="45.84685861397063" lon="12.31872598824982"><ele>45.0</ele><time>2026-04-03T08:41:24Z</time></trkpt><trkpt lat="45.846927555047415" lon="12.318572427828963"><ele>45.0</ele><time>2026-04-03T08:41:26Z</time></trkpt><trkpt lat="45.84697025008291" lon="12.318490372804561"><ele>44.833333333333336</ele><time>2026-04-03T08:41:27Z</time></trkpt><trkpt lat="45.84701532345079" lon="12.318403778543495"><ele>44.666666666666664</ele><time>2026-04-03T08:41:28Z</time></trkpt><trkpt lat="45.847059856369405" lon="12.318316547209285"><ele>44.5</ele><time>2026-04-03T08:41:29Z</time></trkpt><trkpt lat="45.84710472922991" lon="12.318228452512175"><ele>44.33333333333333</ele><time>2026-04-03T08:41:29.999Z</time></trkpt><trkpt lat="45.847149618206856" lon="12.318144026469676"><ele>44.166666666666664</ele><time>2026-04-03T08:41:30.999Z</time></trkpt><trkpt lat="45.84719466549916" lon="12.31805816075966"><ele>44.0</ele><time>2026-04-03T08:41:31.999Z</time></trkpt><trkpt lat="45.84724202448482" lon="12.317966546123651"><ele>44.0</ele><time>2026-04-03T08:41:32.999Z</time></trkpt><trkpt lat="45.84729089871877" lon="12.317871477771378"><ele>44.0</ele><time>2026-04-03T08:41:33.999Z</time></trkpt><trkpt lat="45.847341748168795" lon="12.31777083924008"><ele>44.0</ele><time>2026-04-03T08:41:34.999Z</time></trkpt><trkpt lat="45.8473941874332" lon="12.317669772925113"><ele>44.0</ele><time>2026-04-03T08:41:35.999Z</time></trkpt><trkpt lat="45.847446407110475" lon="12.317568465743168"><ele>44.0</ele><time>2026-04-03T08:41:36.999Z</time></trkpt><trkpt lat="45.84749760397113" lon="12.317467865144259"><ele>44.0</ele><time>2026-04-03T08:41:37.999Z</time></trkpt><trkpt lat="45.84755025359002" lon="12.31736356310543"><ele>44.0</ele><time>2026-04-03T08:41:38.999Z</time></trkpt><trkpt lat="45.847602807238815" lon="12.317257053530072"><ele>44.0</ele><time>2026-04-03T08:41:39.999Z</time></trkpt><trkpt lat="45.84765334383244" lon="12.317148469401864"><ele>44.0</ele><time>2026-04-03T08:41:40.999Z</time></trkpt><trkpt lat="45.84769839116752" lon="12.317033533613259"><ele>44.0</ele><time>2026-04-03T08:41:41.999Z</time></trkpt><trkpt lat="45.8477385592068" lon="12.316912912879724"><ele>44.0</ele><time>2026-04-03T08:41:42.999Z</time></trkpt><trkpt lat="45.84777543802128" lon="12.316786439936127"><ele>44.0</ele><time>2026-04-03T08:41:43.999Z</time></trkpt><trkpt lat="45.847809193648324" lon="12.316652654780635"><ele>44.0</ele><time>2026-04-03T08:41:44.999Z</time></trkpt><trkpt lat="45.847841191569394" lon="12.31651437152474"><ele>44.0</ele><time>2026-04-03T08:41:45.999Z</time></trkpt><trkpt lat="45.847869346856356" lon="12.316372247661537"><ele>44.0</ele><time>2026-04-03T08:41:46.999Z</time></trkpt><trkpt lat="45.84789388683968" lon="12.31622812377419"><ele>44.0</ele><time>2026-04-03T08:41:47.999Z</time></trkpt><trkpt lat="45.84791763783693" lon="12.31608245307558"><ele>44.0</ele><time>2026-04-03T08:41:48.999Z</time></trkpt><trkpt lat="45.84794117041285" lon="12.315932792609983"><ele>44.0</ele><time>2026-04-03T08:41:49.999Z</time></trkpt><trkpt lat="45.84796441727774" lon="12.315780381810564"><ele>44.0</ele><time>2026-04-03T08:41:50.999Z</time></trkpt><trkpt lat="45.847988923234404" lon="12.315624404571878"><ele>44.0</ele><time>2026-04-03T08:41:51.999Z</time></trkpt><trkpt lat="45.8480146791863" lon="12.31546385752136"><ele>44.0</ele><time>2026-04-03T08:41:52.999Z</time></trkpt><trkpt lat="45.84803978755849" lon="12.315301773291994"><ele>44.0</ele><time>2026-04-03T08:41:53.999Z</time></trkpt><trkpt lat="45.848065891094635" lon="12.315137624008782"><ele>44.0</ele><time>2026-04-03T08:41:54.999Z</time></trkpt><trkpt lat="45.848092833829305" lon="12.314976252426703"><ele>44.0</ele><time>2026-04-03T08:41:55.999Z</time></trkpt><trkpt lat="45.84811983645372" lon="12.314816732017574"><ele>44.0</ele><time>2026-04-03T08:41:56.999Z</time></trkpt><trkpt lat="45.84814673312747" lon="12.314659170509312"><ele>44.0</ele><time>2026-04-03T08:41:57.999Z</time></trkpt><trkpt lat="45.84817298726199" lon="12.314508081618309"><ele>44.0</ele><time>2026-04-03T08:41:58.999Z</time></trkpt><trkpt lat="45.84820024910553" lon="12.314359410019575"><ele>44.0</ele><time>2026-04-03T08:41:59.999Z</time></trkpt><trkpt lat="45.84823010445938" lon="12.314215255222036"><ele>44.0</ele><time>2026-04-03T08:42:00.999Z</time></trkpt><trkpt lat="45.84826179742418" lon="12.314073607507554"><ele>44.0</ele><time>2026-04-03T08:42:01.999Z</time></trkpt><trkpt lat="45.84829711817364" lon="12.313936982229395"><ele>44.2</ele><time>2026-04-03T08:42:02.999Z</time></trkpt><trkpt lat="45.84833398324526" lon="12.313800830183359"><ele>44.400000000000006</ele><time>2026-04-03T08:42:03.999Z</time></trkpt><trkpt lat="45.84837756211696" lon="12.313665150956247"><ele>44.6</ele><time>2026-04-03T08:42:04.999Z</time></trkpt><trkpt lat="45.84843225808303" lon="12.313531020455295"><ele>44.8</ele><time>2026-04-03T08:42:05.999Z</time></trkpt><trkpt lat="45.848490458417885" lon="12.313396582260893"><ele>45.0</ele><time>2026-04-03T08:42:06.999Z</time></trkpt><trkpt lat="45.84855147606659" lon="12.313267592702717"><ele>45.166666666666664</ele><time>2026-04-03T08:42:07.999Z</time></trkpt><trkpt lat="45.848614020272514" lon="12.313143737538297"><ele>45.333333333333336</ele><time>2026-04-03T08:42:08.999Z</time></trkpt><trkpt lat="45.84867272451892" lon="12.313027381379356"><ele>45.5</ele><time>2026-04-03T08:42:09.999Z</time></trkpt><trkpt lat="45.84872230985478" lon="12.312931704752003"><ele>45.66666666666667</ele><time>2026-04-03T08:42:10.999Z</time></trkpt><trkpt lat="45.84876540477602" lon="12.312848122361741"><ele>45.833333333333336</ele><time>2026-04-03T08:42:11.999Z</time></trkpt><trkpt lat="45.84880371038946" lon="12.312768263568428"><ele>46.0</ele><time>2026-04-03T08:42:12.999Z</time></trkpt><trkpt lat="45.8488340992134" lon="12.312687690984774"><ele>46.0</ele><time>2026-04-03T08:42:13.999Z</time></trkpt><trkpt lat="45.848884185424424" lon="12.312526622167825"><ele>46.0</ele><time>2026-04-03T08:42:15.999Z</time></trkpt><trkpt lat="45.84892927236646" lon="12.312354499870795"><ele>46.0</ele><time>2026-04-03T08:42:17.999Z</time></trkpt><trkpt lat="45.84895655534863" lon="12.312264680248958"><ele>46.0</ele><time>2026-04-03T08:42:18.999Z</time></trkpt><trkpt lat="45.84898344955906" lon="12.312176141088171"><ele>46.0</ele><time>2026-04-03T08:42:19.999Z</time></trkpt><trkpt lat="45.84908200595615" lon="12.312140971488025"><ele>46.0</ele><time>2026-04-03T08:42:20.999Z</time></trkpt><trkpt lat="45.84913819936987" lon="12.3120782690499"><ele>46.0</ele><time>2026-04-03T08:42:21.999Z</time></trkpt><trkpt lat="45.84918518559273" lon="12.311997016257928"><ele>46.0</ele><time>2026-04-03T08:42:22.999Z</time></trkpt><trkpt lat="45.849225606563365" lon="12.311902518003208"><ele>46.0</ele><time>2026-04-03T08:42:23.999Z</time></trkpt><trkpt lat="45.84926565275837" lon="12.311799189088925"><ele>46.0</ele><time>2026-04-03T08:42:24.999Z</time></trkpt><trkpt lat="45.84931174788886" lon="12.311692761543869"><ele>46.0</ele><time>2026-04-03T08:42:26Z</time></trkpt><trkpt lat="45.84936364687371" lon="12.311578056429983"><ele>46.0</ele><time>2026-04-03T08:42:27Z</time></trkpt><trkpt lat="45.849419777951205" lon="12.311453334926366"><ele>46.0</ele><time>2026-04-03T08:42:28Z</time></trkpt><trkpt lat="45.84947951417118" lon="12.311324071157117"><ele>46.0</ele><time>2026-04-03T08:42:29Z</time></trkpt><trkpt lat="45.84953939497631" lon="12.311186284479199"><ele>46.0</ele><time>2026-04-03T08:42:30Z</time></trkpt><trkpt lat="45.8496020354763" lon="12.311042575232008"><ele>46.0</ele><time>2026-04-03T08:42:31Z</time></trkpt><trkpt lat="45.84966594053959" lon="12.310895466090367"><ele>46.0</ele><time>2026-04-03T08:42:32Z</time></trkpt><trkpt lat="45.84973218914771" lon="12.310743821138871"><ele>46.0</ele><time>2026-04-03T08:42:33Z</time></trkpt><trkpt lat="45.849800330045376" lon="12.310588315464056"><ele>46.0</ele><time>2026-04-03T08:42:34Z</time></trkpt><trkpt lat="45.849871157114656" lon="12.31042924499482"><ele>46.0</ele><time>2026-04-03T08:42:35Z</time></trkpt><trkpt lat="45.84994150937556" lon="12.310272409698927"><ele>46.0</ele><time>2026-04-03T08:42:36Z</time></trkpt><trkpt lat="45.850010415431065" lon="12.310120636292728"><ele>46.0</ele><time>2026-04-03T08:42:37Z</time></trkpt><trkpt lat="45.850075760640834" lon="12.309975835000431"><ele>46.0</ele><time>2026-04-03T08:42:38Z</time></trkpt><trkpt lat="45.850133453534426" lon="12.309848892491539"><ele>46.0</ele><time>2026-04-03T08:42:39Z</time></trkpt><trkpt lat="45.85018569427233" lon="12.309742135957924"><ele>46.0</ele><time>2026-04-03T08:42:40Z</time></trkpt><trkpt lat="45.85023784854654" lon="12.309642229564647"><ele>46.199999999999996</ele><time>2026-04-03T08:42:41Z</time></trkpt><trkpt lat="45.8502890248922" lon="12.309540141065284"><ele>46.4</ele><time>2026-04-03T08:42:42Z</time></trkpt><trkpt lat="45.850337247611805" lon="12.309432079662175"><ele>46.6</ele><time>2026-04-03T08:42:43Z</time></trkpt><trkpt lat="45.8503832614918" lon="12.30931283142124"><ele>46.8</ele><time>2026-04-03T08:42:44Z</time></trkpt><trkpt lat="45.850430264968246" lon="12.309186561429224"><ele>47.0</ele><time>2026-04-03T08:42:45Z</time></trkpt><trkpt lat="45.85048567320651" lon="12.309054476143992"><ele>47.0</ele><time>2026-04-03T08:42:46Z</time></trkpt><trkpt lat="45.85054447558519" lon="12.30891659686667"><ele>47.0</ele><time>2026-04-03T08:42:47Z</time></trkpt><trkpt lat="45.85061078776764" lon="12.308778205998047"><ele>47.0</ele><time>2026-04-03T08:42:48Z</time></trkpt><trkpt lat="45.85068626390633" lon="12.308646324533871"><ele>47.0</ele><time>2026-04-03T08:42:49Z</time></trkpt><trkpt lat="45.850772111441415" lon="12.308526911689405"><ele>47.0</ele><time>2026-04-03T08:42:50Z</time></trkpt><trkpt lat="45.85087343290734" lon="12.308423375780118"><ele>47.0</ele><time>2026-04-03T08:42:51Z</time></trkpt><trkpt lat="45.85098182199118" lon="12.30833387445449"><ele>47.0</ele><time>2026-04-03T08:42:52Z</time></trkpt><trkpt lat="45.851098922358155" lon="12.308264651763103"><ele>47.0</ele><time>2026-04-03T08:42:53Z</time></trkpt><trkpt lat="45.851222080677786" lon="12.308208496022054"><ele>47.0</ele><time>2026-04-03T08:42:54Z</time></trkpt><trkpt lat="45.85134823564525" lon="12.308154768699056"><ele>47.0</ele><time>2026-04-03T08:42:55Z</time></trkpt><trkpt lat="45.851473164625304" lon="12.30809888311072"><ele>47.0</ele><time>2026-04-03T08:42:56Z</time></trkpt><trkpt lat="45.85159977736774" lon="12.308051551500816"><ele>47.0</ele><time>2026-04-03T08:42:57Z</time></trkpt><trkpt lat="45.851726796900884" lon="12.308003963132709"><ele>47.0</ele><time>2026-04-03T08:42:58Z</time></trkpt><trkpt lat="45.85185473574951" lon="12.307951571626086"><ele>47.0</ele><time>2026-04-03T08:42:59Z</time></trkpt><trkpt lat="45.85198354359513" lon="12.307895789123393"><ele>47.0</ele><time>2026-04-03T08:43:00Z</time></trkpt><trkpt lat="45.852116077538845" lon="12.307842246935182"><ele>47.0</ele><time>2026-04-03T08:43:01Z</time></trkpt><trkpt lat="45.852248784003564" lon="12.307790691340635"><ele>47.0</ele><time>2026-04-03T08:43:02Z</time></trkpt><trkpt lat="45.852383734480334" lon="12.307741746889564"><ele>47.0</ele><time>2026-04-03T08:43:03Z</time></trkpt><trkpt lat="45.85251717809599" lon="12.307694339855118"><ele>47.0</ele><time>2026-04-03T08:43:04Z</time></trkpt><trkpt lat="45.852649569751414" lon="12.307651303927901"><ele>47.0</ele><time>2026-04-03T08:43:04.999Z</time></trkpt><trkpt lat="45.85278215638539" lon="12.30761103094338"><ele>47.0</ele><time>2026-04-03T08:43:05.999Z</time></trkpt><trkpt lat="45.85291431789957" lon="12.307572916806725"><ele>47.0</ele><time>2026-04-03T08:43:06.999Z</time></trkpt><trkpt lat="45.85304581341125" lon="12.307539650271293"><ele>47.0</ele><time>2026-04-03T08:43:07.999Z</time></trkpt><trkpt lat="45.85316938137991" lon="12.307516238892845"><ele>47.0</ele><time>2026-04-03T08:43:08.999Z</time></trkpt><trkpt lat="45.85328971089038" lon="12.307498773653254"><ele>47.0</ele><time>2026-04-03T08:43:09.999Z</time></trkpt><trkpt lat="45.853408512907414" lon="12.307481157163178"><ele>47.0</ele><time>2026-04-03T08:43:10.999Z</time></trkpt><trkpt lat="45.853526884690666" lon="12.307464803966392"><ele>47.0</ele><time>2026-04-03T08:43:11.999Z</time></trkpt><trkpt lat="45.853642815507804" lon="12.30744608225321"><ele>47.0</ele><time>2026-04-03T08:43:12.999Z</time></trkpt><trkpt lat="45.85375628497254" lon="12.307425637128691"><ele>46.75</ele><time>2026-04-03T08:43:13.999Z</time></trkpt><trkpt lat="45.85386827603363" lon="12.307408394873358"><ele>46.5</ele><time>2026-04-03T08:43:14.999Z</time></trkpt><trkpt lat="45.85398075628399" lon="12.307390570651362"><ele>46.25</ele><time>2026-04-03T08:43:15.999Z</time></trkpt><trkpt lat="45.85409395717536" lon="12.30737031497859"><ele>46.0</ele><time>2026-04-03T08:43:16.999Z</time></trkpt><trkpt lat="45.85420840853233" lon="12.307348109142165"><ele>46.0</ele><time>2026-04-03T08:43:17.999Z</time></trkpt><trkpt lat="45.85432539139989" lon="12.307320150249547"><ele>46.0</ele><time>2026-04-03T08:43:18.999Z</time></trkpt><trkpt lat="45.854442616899306" lon="12.307285387179567"><ele>46.0</ele><time>2026-04-03T08:43:20Z</time></trkpt><trkpt lat="45.85456038120527" lon="12.307246447519157"><ele>46.0</ele><time>2026-04-03T08:43:21Z</time></trkpt><trkpt lat="45.85467509950266" lon="12.307201626170823"><ele>46.25</ele><time>2026-04-03T08:43:22Z</time></trkpt><trkpt lat="45.854786142250475" lon="12.307152453222443"><ele>46.5</ele><time>2026-04-03T08:43:23Z</time></trkpt><trkpt lat="45.85489407515702" lon="12.307094585159202"><ele>46.75</ele><time>2026-04-03T08:43:24Z</time></trkpt><trkpt lat="45.85500059136198" lon="12.30703394516639"><ele>47.0</ele><time>2026-04-03T08:43:25Z</time></trkpt><trkpt lat="45.85510585848315" lon="12.306970520719688"><ele>47.0</ele><time>2026-04-03T08:43:26Z</time></trkpt><trkpt lat="45.855211402697606" lon="12.306905085811698"><ele>47.0</ele><time>2026-04-03T08:43:27Z</time></trkpt><trkpt lat="45.85531468305332" lon="12.306839509118443"><ele>47.0</ele><time>2026-04-03T08:43:28Z</time></trkpt><trkpt lat="45.85541762476275" lon="12.306773426049975"><ele>47.0</ele><time>2026-04-03T08:43:29Z</time></trkpt><trkpt lat="45.85551784437398" lon="12.30670606018198"><ele>47.0</ele><time>2026-04-03T08:43:30Z</time></trkpt><trkpt lat="45.855611575781026" lon="12.306636336033142"><ele>47.0</ele><time>2026-04-03T08:43:31Z</time></trkpt><trkpt lat="45.855696927716764" lon="12.306562810074983"><ele>47.0</ele><time>2026-04-03T08:43:32Z</time></trkpt><trkpt lat="45.855750894972466" lon="12.306442644042336"><ele>47.0</ele><time>2026-04-03T08:43:33Z</time></trkpt><trkpt lat="45.85584176025915" lon="12.306400598950432"><ele>47.0</ele><time>2026-04-03T08:43:34Z</time></trkpt><trkpt lat="45.855919455055606" lon="12.30633661209828"><ele>46.6</ele><time>2026-04-03T08:43:35Z</time></trkpt><trkpt lat="45.856001982834215" lon="12.306291137405248"><ele>46.2</ele><time>2026-04-03T08:43:36Z</time></trkpt><trkpt lat="45.856086722235084" lon="12.306250895013486"><ele>45.8</ele><time>2026-04-03T08:43:37Z</time></trkpt><trkpt lat="45.85617229537644" lon="12.306210488793456"><ele>45.4</ele><time>2026-04-03T08:43:38Z</time></trkpt><trkpt lat="45.85626454685528" lon="12.306180276398372"><ele>45.0</ele><time>2026-04-03T08:43:39Z</time></trkpt><trkpt lat="45.85635794028348" lon="12.306148373172858"><ele>45.0</ele><time>2026-04-03T08:43:40Z</time></trkpt><trkpt lat="45.85644902069335" lon="12.306105131451847"><ele>45.0</ele><time>2026-04-03T08:43:41Z</time></trkpt><trkpt lat="45.85652451223734" lon="12.306016030604352"><ele>45.0</ele><time>2026-04-03T08:43:42Z</time></trkpt><trkpt lat="45.85662665698319" lon="12.305988354811284"><ele>45.0</ele><time>2026-04-03T08:43:43Z</time></trkpt><trkpt lat="45.85671543573623" lon="12.305926845152062"><ele>45.0</ele><time>2026-04-03T08:43:44Z</time></trkpt><trkpt lat="45.856800256661074" lon="12.305864582555044"><ele>45.166666666666664</ele><time>2026-04-03T08:43:45Z</time></trkpt><trkpt lat="45.85687520718927" lon="12.305806558104743"><ele>45.333333333333336</ele><time>2026-04-03T08:43:46Z</time></trkpt><trkpt lat="45.85694263764335" lon="12.305751178212809"><ele>45.5</ele><time>2026-04-03T08:43:47Z</time></trkpt><trkpt lat="45.857009548118576" lon="12.30569763626736"><ele>45.66666666666667</ele><time>2026-04-03T08:43:48Z</time></trkpt><trkpt lat="45.857079466119295" lon="12.305642816442521"><ele>45.833333333333336</ele><time>2026-04-03T08:43:49Z</time></trkpt><trkpt lat="45.857153847196145" lon="12.30558313786639"><ele>46.0</ele><time>2026-04-03T08:43:50Z</time></trkpt><trkpt lat="45.85723330841294" lon="12.305516727938205"><ele>46.0</ele><time>2026-04-03T08:43:51Z</time></trkpt><trkpt lat="45.857318271793275" lon="12.305448353211421"><ele>46.0</ele><time>2026-04-03T08:43:52Z</time></trkpt><trkpt lat="45.85740987293893" lon="12.305374859553178"><ele>46.0</ele><time>2026-04-03T08:43:53Z</time></trkpt><trkpt lat="45.85750488300811" lon="12.3052960195095"><ele>46.0</ele><time>2026-04-03T08:43:54Z</time></trkpt><trkpt lat="45.85760335987288" lon="12.305215524234075"><ele>46.0</ele><time>2026-04-03T08:43:55Z</time></trkpt><trkpt lat="45.857701249934614" lon="12.305134502899431"><ele>46.199999999999996</ele><time>2026-04-03T08:43:56Z</time></trkpt><trkpt lat="45.85779616745108" lon="12.305056891183353"><ele>46.4</ele><time>2026-04-03T08:43:57Z</time></trkpt><trkpt lat="45.8578901655758" lon="12.30497923290949"><ele>46.6</ele><time>2026-04-03T08:43:58Z</time></trkpt><trkpt lat="45.85798266736335" lon="12.304899437056134"><ele>46.8</ele><time>2026-04-03T08:43:59Z</time></trkpt><trkpt lat="45.858076015884265" lon="12.30482216142106"><ele>47.0</ele><time>2026-04-03T08:44:00Z</time></trkpt><trkpt lat="45.85816802909943" lon="12.304747333317538"><ele>46.8</ele><time>2026-04-03T08:44:01Z</time></trkpt><trkpt lat="45.85825989759706" lon="12.304674898117474"><ele>46.6</ele><time>2026-04-03T08:44:02Z</time></trkpt><trkpt lat="45.8583516255939" lon="12.30460346207796"><ele>46.4</ele><time>2026-04-03T08:44:03Z</time></trkpt><trkpt lat="45.858444588941225" lon="12.304529540443678"><ele>46.199999999999996</ele><time>2026-04-03T08:44:04Z</time></trkpt><trkpt lat="45.85854006306074" lon="12.304451887296134"><ele>46.0</ele><time>2026-04-03T08:44:05Z</time></trkpt><trkpt lat="45.858638892430484" lon="12.30436992847525"><ele>46.0</ele><time>2026-04-03T08:44:06Z</time></trkpt><trkpt lat="45.85874029410184" lon="12.304287412249646"><ele>46.0</ele><time>2026-04-03T08:44:07Z</time></trkpt><trkpt lat="45.858844287837634" lon="12.3042058715264"><ele>46.0</ele><time>2026-04-03T08:44:08Z</time></trkpt><trkpt lat="45.858948955542395" lon="12.304124115122667"><ele>46.0</ele><time>2026-04-03T08:44:09Z</time></trkpt><trkpt lat="45.85905548256266" lon="12.304043180759331"><ele>46.0</ele><time>2026-04-03T08:44:10Z</time></trkpt><trkpt lat="45.85916222539966" lon="12.303963470246728"><ele>46.0</ele><time>2026-04-03T08:44:11Z</time></trkpt><trkpt lat="45.85926753571767" lon="12.303885655334074"><ele>46.0</ele><time>2026-04-03T08:44:12Z</time></trkpt><trkpt lat="45.859371287225684" lon="12.303808084717724"><ele>46.0</ele><time>2026-04-03T08:44:13Z</time></trkpt><trkpt lat="45.859473796969475" lon="12.303733241253136"><ele>46.0</ele><time>2026-04-03T08:44:14Z</time></trkpt><trkpt lat="45.85957597731528" lon="12.303662743036554"><ele>46.0</ele><time>2026-04-03T08:44:15Z</time></trkpt><trkpt lat="45.859677159734815" lon="12.303597995344164"><ele>46.0</ele><time>2026-04-03T08:44:16Z</time></trkpt><trkpt lat="45.859771385842514" lon="12.303536107026854"><ele>46.0</ele><time>2026-04-03T08:44:17Z</time></trkpt><trkpt lat="45.85985434128714" lon="12.303472491544518"><ele>46.0</ele><time>2026-04-03T08:44:18Z</time></trkpt><trkpt lat="45.85991900502757" lon="12.303379734624674"><ele>46.0</ele><time>2026-04-03T08:44:19Z</time></trkpt><trkpt lat="45.85999084027303" lon="12.303294752202017"><ele>46.0</ele><time>2026-04-03T08:44:20Z</time></trkpt><trkpt lat="45.86006635923579" lon="12.30322758107152"><ele>46.0</ele><time>2026-04-03T08:44:21Z</time></trkpt><trkpt lat="45.86016342055966" lon="12.303213202510605"><ele>46.0</ele><time>2026-04-03T08:44:22Z</time></trkpt><trkpt lat="45.86025115255773" lon="12.303153973167477"><ele>46.0</ele><time>2026-04-03T08:44:23Z</time></trkpt><trkpt lat="45.860351539772935" lon="12.303153191640602"><ele>46.4</ele><time>2026-04-03T08:44:24Z</time></trkpt><trkpt lat="45.86044685005633" lon="12.30312784682494"><ele>46.8</ele><time>2026-04-03T08:44:25Z</time></trkpt><trkpt lat="45.86053094002997" lon="12.303064656755831"><ele>47.199999999999996</ele><time>2026-04-03T08:44:26Z</time></trkpt><trkpt lat="45.86062825862726" lon="12.303064941611517"><ele>47.599999999999994</ele><time>2026-04-03T08:44:27Z</time></trkpt><trkpt lat="45.86071388772466" lon="12.303026210906856"><ele>48.0</ele><time>2026-04-03T08:44:28Z</time></trkpt><trkpt lat="45.860794092709725" lon="12.302984153825967"><ele>48.0</ele><time>2026-04-03T08:44:29Z</time></trkpt><trkpt lat="45.860860835493256" lon="12.302950274312016"><ele>48.0</ele><time>2026-04-03T08:44:30Z</time></trkpt><trkpt lat="45.86096444659506" lon="12.302895988366119"><ele>48.0</ele><time>2026-04-03T08:44:32Z</time></trkpt><trkpt lat="45.86103732332292" lon="12.302856225985197"><ele>48.0</ele><time>2026-04-03T08:44:34Z</time></trkpt><trkpt lat="45.861111129122754" lon="12.302816756215881"><ele>48.0</ele><time>2026-04-03T08:44:36Z</time></trkpt><trkpt lat="45.86118424481461" lon="12.302778225099603"><ele>48.0</ele><time>2026-04-03T08:44:38Z</time></trkpt><trkpt lat="45.861258597904914" lon="12.302737493883486"><ele>48.333333333333336</ele><time>2026-04-03T08:44:40Z</time></trkpt><trkpt lat="45.86134088615633" lon="12.302693857188995"><ele>48.66666666666667</ele><time>2026-04-03T08:44:42Z</time></trkpt><trkpt lat="45.86143071491526" lon="12.30264753628681"><ele>49.0</ele><time>2026-04-03T08:44:44Z</time></trkpt><trkpt lat="45.86151453854649" lon="12.302601774848785"><ele>49.333333333333336</ele><time>2026-04-03T08:44:46Z</time></trkpt><trkpt lat="45.86158765808061" lon="12.302562898607176"><ele>49.66666666666667</ele><time>2026-04-03T08:44:51Z</time></trkpt><trkpt lat="45.86165313100216" lon="12.302530421457227"><ele>50.0</ele><time>2026-04-03T08:44:53Z</time></trkpt><trkpt lat="45.861732564165244" lon="12.30248330690375"><ele>50.25</ele><time>2026-04-03T08:44:55Z</time></trkpt><trkpt lat="45.86180766948742" lon="12.3024235277355"><ele>50.5</ele><time>2026-04-03T08:45:00Z</time></trkpt><trkpt lat="45.861816770503154" lon="12.302218986301444"><ele>50.75</ele><time>2026-04-03T08:45:03Z</time></trkpt><trkpt lat="45.861789394913465" lon="12.302077732965374"><ele>51.0</ele><time>2026-04-03T08:45:05Z</time></trkpt><trkpt lat="45.86177341451143" lon="12.301896389227297"><ele>50.5</ele><time>2026-04-03T08:45:06.999Z</time></trkpt><trkpt lat="45.86175811869613" lon="12.301792613200258"><ele>50.0</ele><time>2026-04-03T08:45:07.999Z</time></trkpt><trkpt lat="45.86174880428002" lon="12.301683277501954"><ele>49.5</ele><time>2026-04-03T08:45:08.999Z</time></trkpt><trkpt lat="45.861745108772176" lon="12.301566399500556"><ele>49.0</ele><time>2026-04-03T08:45:09.999Z</time></trkpt><trkpt lat="45.86174198473755" lon="12.301439643967043"><ele>48.5</ele><time>2026-04-03T08:45:10.999Z</time></trkpt><trkpt lat="45.86173501769761" lon="12.301316626559665"><ele>48.0</ele><time>2026-04-03T08:45:11.999Z</time></trkpt><trkpt lat="45.86172806440809" lon="12.301200010485163"><ele>48.0</ele><time>2026-04-03T08:45:12.999Z</time></trkpt><trkpt lat="45.86172231776168" lon="12.301098198568441"><ele>48.0</ele><time>2026-04-03T08:45:13.999Z</time></trkpt><trkpt lat="45.86171368620969" lon="12.300934992500673"><ele>48.0</ele><time>2026-04-03T08:45:15.999Z</time></trkpt><trkpt lat="45.86170929372551" lon="12.300843206077113"><ele>48.0</ele><time>2026-04-03T08:45:17.999Z</time></trkpt><trkpt lat="45.86169995076081" lon="12.300730947752637"><ele>48.0</ele><time>2026-04-03T08:45:22.999Z</time></trkpt><trkpt lat="45.861692360905586" lon="12.30061285738471"><ele>48.0</ele><time>2026-04-03T08:45:24.999Z</time></trkpt><trkpt lat="45.861682637129825" lon="12.300449878042395"><ele>48.333333333333336</ele><time>2026-04-03T08:45:27Z</time></trkpt><trkpt lat="45.861676009224475" lon="12.30034889399157"><ele>48.66666666666667</ele><time>2026-04-03T08:45:28Z</time></trkpt><trkpt lat="45.86167056402896" lon="12.30023223418537"><ele>49.0</ele><time>2026-04-03T08:45:29Z</time></trkpt><trkpt lat="45.861664469905136" lon="12.30010596125664"><ele>49.333333333333336</ele><time>2026-04-03T08:45:30Z</time></trkpt><trkpt lat="45.86165699392175" lon="12.299973380473679"><ele>49.66666666666667</ele><time>2026-04-03T08:45:31Z</time></trkpt><trkpt lat="45.861650052265446" lon="12.29983242186944"><ele>50.0</ele><time>2026-04-03T08:45:32Z</time></trkpt><trkpt lat="45.86164055982261" lon="12.299681757891273"><ele>50.0</ele><time>2026-04-03T08:45:33Z</time></trkpt><trkpt lat="45.861630483992286" lon="12.299523704363047"><ele>50.0</ele><time>2026-04-03T08:45:34Z</time></trkpt><trkpt lat="45.86162125424412" lon="12.299358776296353"><ele>50.0</ele><time>2026-04-03T08:45:35Z</time></trkpt><trkpt lat="45.86161767834368" lon="12.299188132713581"><ele>50.0</ele><time>2026-04-03T08:45:36Z</time></trkpt><trkpt lat="45.86162532403646" lon="12.299021554883545"><ele>49.5</ele><time>2026-04-03T08:45:37Z</time></trkpt><trkpt lat="45.861640406065796" lon="12.298852681296605"><ele>49.0</ele><time>2026-04-03T08:45:38Z</time></trkpt><trkpt lat="45.86167178953716" lon="12.298682510709734"><ele>48.5</ele><time>2026-04-03T08:45:39Z</time></trkpt><trkpt lat="45.86171059271646" lon="12.298510021885923"><ele>48.0</ele><time>2026-04-03T08:45:40Z</time></trkpt><trkpt lat="45.86175099749973" lon="12.298335418813444"><ele>48.75</ele><time>2026-04-03T08:45:41Z</time></trkpt><trkpt lat="45.86179378492589" lon="12.298158463743398"><ele>49.5</ele><time>2026-04-03T08:45:42Z</time></trkpt><trkpt lat="45.8618397256323" lon="12.297975014696156"><ele>50.25</ele><time>2026-04-03T08:45:43Z</time></trkpt><trkpt lat="45.861884790153766" lon="12.297793827644215"><ele>51.0</ele><time>2026-04-03T08:45:44Z</time></trkpt><trkpt lat="45.86192767351297" lon="12.297624404528399"><ele>51.0</ele><time>2026-04-03T08:45:45Z</time></trkpt><trkpt lat="45.86196340061339" lon="12.29746671364883"><ele>51.0</ele><time>2026-04-03T08:45:46Z</time></trkpt><trkpt lat="45.861990736829036" lon="12.297327070191608"><ele>51.0</ele><time>2026-04-03T08:45:47Z</time></trkpt><trkpt lat="45.8620116961812" lon="12.297211459457152"><ele>51.0</ele><time>2026-04-03T08:45:48Z</time></trkpt><trkpt lat="45.86202743280994" lon="12.297117240257942"><ele>51.0</ele><time>2026-04-03T08:45:49Z</time></trkpt><trkpt lat="45.862031097110254" lon="12.296995910410718"><ele>51.199999999999996</ele><time>2026-04-03T08:45:51Z</time></trkpt><trkpt lat="45.8621825438524" lon="12.296988065801878"><ele>51.4</ele><time>2026-04-03T08:45:53Z</time></trkpt><trkpt lat="45.86229972491715" lon="12.297005765934356"><ele>51.6</ele><time>2026-04-03T08:45:55Z</time></trkpt><trkpt lat="45.862371914693895" lon="12.297011084510274"><ele>51.8</ele><time>2026-04-03T08:45:56Z</time></trkpt><trkpt lat="45.86245345751177" lon="12.297010980449548"><ele>52.0</ele><time>2026-04-03T08:45:57Z</time></trkpt><trkpt lat="45.862541098435536" lon="12.297005755134554"><ele>51.6</ele><time>2026-04-03T08:45:58Z</time></trkpt><trkpt lat="45.862635603588714" lon="12.297005045723298"><ele>51.2</ele><time>2026-04-03T08:45:59Z</time></trkpt><trkpt lat="45.862735382736844" lon="12.297009079637778"><ele>50.8</ele><time>2026-04-03T08:46:00Z</time></trkpt><trkpt lat="45.862831996514664" lon="12.297014623158045"><ele>50.4</ele><time>2026-04-03T08:46:01Z</time></trkpt><trkpt lat="45.862928059760556" lon="12.297019001256224"><ele>50.0</ele><time>2026-04-03T08:46:02Z</time></trkpt><trkpt lat="45.8630145855892" lon="12.297018952886573"><ele>50.00000000000001</ele><time>2026-04-03T08:46:03Z</time></trkpt><trkpt lat="45.863094751804134" lon="12.297025789597974"><ele>50.0</ele><time>2026-04-03T08:46:04Z</time></trkpt><trkpt lat="45.863165904893194" lon="12.297060198754442"><ele>50.0</ele><time>2026-04-03T08:46:05Z</time></trkpt><trkpt lat="45.863220975863285" lon="12.297133230799442"><ele>50.0</ele><time>2026-04-03T08:46:06Z</time></trkpt><trkpt lat="45.863272699782854" lon="12.297214704559643"><ele>50.00000000000001</ele><time>2026-04-03T08:46:07Z</time></trkpt><trkpt lat="45.86332870589938" lon="12.297292870985293"><ele>50.0</ele><time>2026-04-03T08:46:08Z</time></trkpt><trkpt lat="45.863395257931266" lon="12.297359192089676"><ele>49.66666666666667</ele><time>2026-04-03T08:46:09Z</time></trkpt><trkpt lat="45.86347615122991" lon="12.297389669221724"><ele>49.333333333333336</ele><time>2026-04-03T08:46:10Z</time></trkpt><trkpt lat="45.863555250973086" lon="12.297398827305674"><ele>49.0</ele><time>2026-04-03T08:46:11Z</time></trkpt><trkpt lat="45.863631711561716" lon="12.297401826226018"><ele>48.66666666666667</ele><time>2026-04-03T08:46:12Z</time></trkpt><trkpt lat="45.8637012524208" lon="12.297399948728211"><ele>48.333333333333336</ele><time>2026-04-03T08:46:13Z</time></trkpt><trkpt lat="45.863803569558804" lon="12.297404734165463"><ele>48.0</ele><time>2026-04-03T08:46:15Z</time></trkpt><trkpt lat="45.86386278749965" lon="12.297370659052712"><ele>48.0</ele><time>2026-04-03T08:46:17Z</time></trkpt><trkpt lat="45.8637911778422" lon="12.297376659446716"><ele>48.0</ele><time>2026-04-03T08:46:25Z</time></trkpt><trkpt lat="45.86370275676525" lon="12.29736154413466"><ele>48.0</ele><time>2026-04-03T08:46:34Z</time></trkpt><trkpt lat="45.86362768560642" lon="12.297377280594887"><ele>48.0</ele><time>2026-04-03T08:46:36Z</time></trkpt><trkpt lat="45.863516488060846" lon="12.297377079476666"><ele>48.0</ele><time>2026-04-03T08:46:38Z</time></trkpt><trkpt lat="45.86341023544874" lon="12.29737774893247"><ele>48.0</ele><time>2026-04-03T08:46:39Z</time></trkpt><trkpt lat="45.86367731361338" lon="12.297287217841385"><ele>48.0</ele><time>2026-04-03T08:46:40Z</time></trkpt><trkpt lat="45.86330119377274" lon="12.297201429274766"><ele>48.333333333333336</ele><time>2026-04-03T08:46:41Z</time></trkpt><trkpt lat="45.86325930244239" lon="12.297128519069213"><ele>48.66666666666667</ele><time>2026-04-03T08:46:42Z</time></trkpt><trkpt lat="45.86319400566997" lon="12.297016171922225"><ele>49.0</ele><time>2026-04-03T08:46:44Z</time></trkpt><trkpt lat="45.86312456601845" lon="12.296972134650305"><ele>49.333333333333336</ele><time>2026-04-03T08:46:47Z</time></trkpt><trkpt lat="45.86305399283417" lon="12.296976905905018"><ele>49.66666666666667</ele><time>2026-04-03T08:51:34.999Z</time></trkpt><trkpt lat="45.862965574106106" lon="12.296951196028308"><ele>50.0</ele><time>2026-04-03T08:51:36.999Z</time></trkpt><trkpt lat="45.862832524431674" lon="12.296947911229285"><ele>50.0</ele><time>2026-04-03T08:51:38.999Z</time></trkpt><trkpt lat="45.86275653405437" lon="12.296946035135973"><ele>50.0</ele><time>2026-04-03T08:51:39.999Z</time></trkpt><trkpt lat="45.86267156676713" lon="12.296943937424665"><ele>50.0</ele><time>2026-04-03T08:51:40.999Z</time></trkpt><trkpt lat="45.862579590770125" lon="12.296941666669754"><ele>50.0</ele><time>2026-04-03T08:51:41.999Z</time></trkpt><trkpt lat="45.862481734095795" lon="12.296939593066822"><ele>50.0</ele><time>2026-04-03T08:51:42.999Z</time></trkpt><trkpt lat="45.86238077939182" lon="12.296937697336594"><ele>50.4</ele><time>2026-04-03T08:51:44Z</time></trkpt><trkpt lat="45.86228603281601" lon="12.296935918181223"><ele>50.8</ele><time>2026-04-03T08:51:45Z</time></trkpt><trkpt lat="45.8622015283431" lon="12.296934331354642"><ele>51.2</ele><time>2026-04-03T08:51:46Z</time></trkpt><trkpt lat="45.862134309487416" lon="12.296932533689162"><ele>51.6</ele><time>2026-04-03T08:51:47Z</time></trkpt><trkpt lat="45.86206587871618" lon="12.29693049435139"><ele>52.0</ele><time>2026-04-03T08:51:49Z</time></trkpt><trkpt lat="45.8619710844358" lon="12.29709197443734"><ele>51.8</ele><time>2026-04-03T08:51:54Z</time></trkpt><trkpt lat="45.86194666436831" lon="12.297265306742469"><ele>51.6</ele><time>2026-04-03T08:51:56Z</time></trkpt><trkpt lat="45.86192750710687" lon="12.297362893397"><ele>51.4</ele><time>2026-04-03T08:51:57Z</time></trkpt><trkpt lat="45.86190197883582" lon="12.297473378353086"><ele>51.199999999999996</ele><time>2026-04-03T08:51:58Z</time></trkpt><trkpt lat="45.86187342136057" lon="12.297592040553138"><ele>51.0</ele><time>2026-04-03T08:51:59Z</time></trkpt><trkpt lat="45.86184237826111" lon="12.297717838066529"><ele>51.0</ele><time>2026-04-03T08:52:00Z</time></trkpt><trkpt lat="45.86180826972295" lon="12.297856058558398"><ele>51.0</ele><time>2026-04-03T08:52:01Z</time></trkpt><trkpt lat="45.86177192966429" lon="12.298003321657545"><ele>51.0</ele><time>2026-04-03T08:52:02Z</time></trkpt><trkpt lat="45.86173357634187" lon="12.29815874334194"><ele>51.0</ele><time>2026-04-03T08:52:03Z</time></trkpt><trkpt lat="45.86169537656855" lon="12.298313542821214"><ele>51.0</ele><time>2026-04-03T08:52:04Z</time></trkpt><trkpt lat="45.86165735459903" lon="12.298467615448462"><ele>50.75</ele><time>2026-04-03T08:52:05Z</time></trkpt><trkpt lat="45.86162746915611" lon="12.29863036807227"><ele>50.5</ele><time>2026-04-03T08:52:06Z</time></trkpt><trkpt lat="45.86160186659837" lon="12.298793852395436"><ele>50.25</ele><time>2026-04-03T08:52:07Z</time></trkpt><trkpt lat="45.86158434638974" lon="12.29896910141181"><ele>50.0</ele><time>2026-04-03T08:52:08Z</time></trkpt><trkpt lat="45.86157381268418" lon="12.299149530184414"><ele>50.0</ele><time>2026-04-03T08:52:09Z</time></trkpt><trkpt lat="45.86157533951545" lon="12.299328430520898"><ele>50.0</ele><time>2026-04-03T08:52:10Z</time></trkpt><trkpt lat="45.86158418802379" lon="12.299508497509525"><ele>50.0</ele><time>2026-04-03T08:52:11Z</time></trkpt><trkpt lat="45.861593333650916" lon="12.299685711237434"><ele>50.0</ele><time>2026-04-03T08:52:12Z</time></trkpt><trkpt lat="45.86160248485375" lon="12.299861595014713"><ele>50.0</ele><time>2026-04-03T08:52:13Z</time></trkpt><trkpt lat="45.86161239004581" lon="12.300031808621728"><ele>50.0</ele><time>2026-04-03T08:52:14Z</time></trkpt><trkpt lat="45.86162154353143" lon="12.300191664386535"><ele>50.0</ele><time>2026-04-03T08:52:15Z</time></trkpt><trkpt lat="45.861629876386424" lon="12.300337188301802"><ele>50.0</ele><time>2026-04-03T08:52:16Z</time></trkpt><trkpt lat="45.861637405011905" lon="12.300468667212131"><ele>50.0</ele><time>2026-04-03T08:52:17Z</time></trkpt><trkpt lat="45.86164392463756" lon="12.300582525454454"><ele>49.66666666666667</ele><time>2026-04-03T08:52:18Z</time></trkpt><trkpt lat="45.861649696109914" lon="12.300683313755885"><ele>49.333333333333336</ele><time>2026-04-03T08:52:19Z</time></trkpt><trkpt lat="45.86165493463952" lon="12.300773690028757"><ele>49.0</ele><time>2026-04-03T08:52:20Z</time></trkpt><trkpt lat="45.861665510099144" lon="12.300956964244689"><ele>48.66666666666667</ele><time>2026-04-03T08:52:22Z</time></trkpt><trkpt lat="45.861671550909016" lon="12.301061652470912"><ele>48.333333333333336</ele><time>2026-04-03T08:52:23Z</time></trkpt><trkpt lat="45.86167820031414" lon="12.30117688770243"><ele>48.0</ele><time>2026-04-03T08:52:24Z</time></trkpt><trkpt lat="45.86168527194084" lon="12.30129944020742"><ele>48.0</ele><time>2026-04-03T08:52:25Z</time></trkpt><trkpt lat="45.86170555907561" lon="12.301420844333633"><ele>48.0</ele><time>2026-04-03T08:52:26Z</time></trkpt><trkpt lat="45.86171209541256" lon="12.301541193129227"><ele>48.0</ele><time>2026-04-03T08:52:27Z</time></trkpt><trkpt lat="45.86171696647721" lon="12.301656183985129"><ele>48.0</ele><time>2026-04-03T08:52:28Z</time></trkpt><trkpt lat="45.86172666204856" lon="12.301755345962027"><ele>48.0</ele><time>2026-04-03T08:52:29Z</time></trkpt><trkpt lat="45.8617379421139" lon="12.301920551224232"><ele>48.0</ele><time>2026-04-03T08:52:31Z</time></trkpt><trkpt lat="45.86174891403382" lon="12.302013451064786"><ele>48.0</ele><time>2026-04-03T08:52:34Z</time></trkpt><trkpt lat="45.86176339298538" lon="12.302126895801834"><ele>48.0</ele><time>2026-04-03T08:52:44Z</time></trkpt><trkpt lat="45.861777773240945" lon="12.302283755538904"><ele>48.0</ele><time>2026-04-03T08:52:46Z</time></trkpt><trkpt lat="45.86184547940133" lon="12.302432020337916"><ele>48.0</ele><time>2026-04-03T08:52:48Z</time></trkpt><trkpt lat="45.861905729645166" lon="12.302472981125662"><ele>48.0</ele><time>2026-04-03T08:52:49Z</time></trkpt><trkpt lat="45.86201547514376" lon="12.302390723532254"><ele>48.2</ele><time>2026-04-03T08:52:51Z</time></trkpt><trkpt lat="45.86209705144364" lon="12.302350232466262"><ele>48.4</ele><time>2026-04-03T08:52:52Z</time></trkpt><trkpt lat="45.86217171369242" lon="12.302307276590824"><ele>48.6</ele><time>2026-04-03T08:52:53Z</time></trkpt><trkpt lat="45.86226145075438" lon="12.30226519204047"><ele>48.800000000000004</ele><time>2026-04-03T08:52:54Z</time></trkpt><trkpt lat="45.86235118251294" lon="12.302214562933289"><ele>49.0</ele><time>2026-04-03T08:52:55Z</time></trkpt><trkpt lat="45.862443054766096" lon="12.302158280762646"><ele>49.0</ele><time>2026-04-03T08:52:56Z</time></trkpt><trkpt lat="45.86254530118097" lon="12.302103544401952"><ele>49.0</ele><time>2026-04-03T08:52:57Z</time></trkpt><trkpt lat="45.86265341556616" lon="12.30204203349951"><ele>49.0</ele><time>2026-04-03T08:52:58Z</time></trkpt><trkpt lat="45.86276636476576" lon="12.30197904026698"><ele>49.0</ele><time>2026-04-03T08:52:59Z</time></trkpt><trkpt lat="45.86288188140759" lon="12.301913908530597"><ele>49.0</ele><time>2026-04-03T08:53:00Z</time></trkpt><trkpt lat="45.863002186834265" lon="12.30184669000129"><ele>49.0</ele><time>2026-04-03T08:53:01Z</time></trkpt><trkpt lat="45.86312667150829" lon="12.301773452877601"><ele>49.0</ele><time>2026-04-03T08:53:02Z</time></trkpt><trkpt lat="45.863251433687026" lon="12.30169201399044"><ele>49.0</ele><time>2026-04-03T08:53:03Z</time></trkpt><trkpt lat="45.86337733777899" lon="12.301598226989112"><ele>49.0</ele><time>2026-04-03T08:53:04Z</time></trkpt><trkpt lat="45.86348621066812" lon="12.301476609210008"><ele>49.0</ele><time>2026-04-03T08:53:05Z</time></trkpt><trkpt lat="45.863600507999884" lon="12.301360598078778"><ele>49.0</ele><time>2026-04-03T08:53:06Z</time></trkpt><trkpt lat="45.863716424978776" lon="12.301265582794327"><ele>49.0</ele><time>2026-04-03T08:53:07Z</time></trkpt><trkpt lat="45.86381654012412" lon="12.301147538703038"><ele>49.0</ele><time>2026-04-03T08:53:08Z</time></trkpt><trkpt lat="45.863915012072056" lon="12.301036483570654"><ele>49.0</ele><time>2026-04-03T08:53:09Z</time></trkpt><trkpt lat="45.864016562025796" lon="12.300922072611707"><ele>49.0</ele><time>2026-04-03T08:53:10Z</time></trkpt><trkpt lat="45.86412114269403" lon="12.300820454472428"><ele>49.0</ele><time>2026-04-03T08:53:11Z</time></trkpt><trkpt lat="45.864229407933266" lon="12.300721516283227"><ele>49.0</ele><time>2026-04-03T08:53:12Z</time></trkpt><trkpt lat="45.86434286954723" lon="12.300633460390195"><ele>49.0</ele><time>2026-04-03T08:53:13Z</time></trkpt><trkpt lat="45.86446149470058" lon="12.300550531715801"><ele>49.0</ele><time>2026-04-03T08:53:14Z</time></trkpt><trkpt lat="45.86458557433527" lon="12.300475249403048"><ele>49.0</ele><time>2026-04-03T08:53:15Z</time></trkpt><trkpt lat="45.864718326685086" lon="12.300406363156858"><ele>49.0</ele><time>2026-04-03T08:53:15.999Z</time></trkpt><trkpt lat="45.86485183753494" lon="12.300342052275033"><ele>49.0</ele><time>2026-04-03T08:53:16.999Z</time></trkpt><trkpt lat="45.86498611503085" lon="12.300274465678422"><ele>49.0</ele><time>2026-04-03T08:53:17.999Z</time></trkpt><trkpt lat="45.86511985002474" lon="12.300205570105044"><ele>49.0</ele><time>2026-04-03T08:53:18.999Z</time></trkpt><trkpt lat="45.86525533406922" lon="12.300137748319433"><ele>49.0</ele><time>2026-04-03T08:53:19.999Z</time></trkpt><trkpt lat="45.865390754984595" lon="12.30007207159515"><ele>49.0</ele><time>2026-04-03T08:53:20.999Z</time></trkpt><trkpt lat="45.86551430305814" lon="12.300010898733811"><ele>49.0</ele><time>2026-04-03T08:53:21.999Z</time></trkpt><trkpt lat="45.865615467030594" lon="12.29995877160199"><ele>49.0</ele><time>2026-04-03T08:53:22.999Z</time></trkpt><trkpt lat="45.86569173564152" lon="12.299918707350383"><ele>49.0</ele><time>2026-04-03T08:53:23.999Z</time></trkpt><trkpt lat="45.865785787100876" lon="12.299879234786216"><ele>49.0</ele><time>2026-04-03T08:53:25.999Z</time></trkpt><trkpt lat="45.86586116469596" lon="12.299836999720515"><ele>49.0</ele><time>2026-04-03T08:53:28.999Z</time></trkpt><trkpt lat="45.86593104424217" lon="12.29979626306086"><ele>49.0</ele><time>2026-04-03T08:53:31.999Z</time></trkpt><trkpt lat="45.86601531172671" lon="12.299754425281622"><ele>49.0</ele><time>2026-04-03T08:53:33.999Z</time></trkpt><trkpt lat="45.86613521620125" lon="12.29968956877975"><ele>49.800000000000004</ele><time>2026-04-03T08:53:35.999Z</time></trkpt><trkpt lat="45.866206216781634" lon="12.299650995425832"><ele>50.6</ele><time>2026-04-03T08:53:36.999Z</time></trkpt><trkpt lat="45.86628439528037" lon="12.299610107832331"><ele>51.4</ele><time>2026-04-03T08:53:37.999Z</time></trkpt><trkpt lat="45.86636987541156" lon="12.299569556273054"><ele>52.2</ele><time>2026-04-03T08:53:38.999Z</time></trkpt><trkpt lat="45.866460643769194" lon="12.299524996591062"><ele>53.0</ele><time>2026-04-03T08:53:39.999Z</time></trkpt><trkpt lat="45.86656125821025" lon="12.299478689703427"><ele>53.0</ele><time>2026-04-03T08:53:40.999Z</time></trkpt><trkpt lat="45.86666191385342" lon="12.29943026157601"><ele>53.0</ele><time>2026-04-03T08:53:41.999Z</time></trkpt><trkpt lat="45.86676500696664" lon="12.299381706031689"><ele>53.0</ele><time>2026-04-03T08:53:42.999Z</time></trkpt><trkpt lat="45.86687312575312" lon="12.299330149052027"><ele>53.0</ele><time>2026-04-03T08:53:43.999Z</time></trkpt><trkpt lat="45.86698212818433" lon="12.299275584464155"><ele>53.0</ele><time>2026-04-03T08:53:44.999Z</time></trkpt><trkpt lat="45.86709626443601" lon="12.299222413699233"><ele>52.5</ele><time>2026-04-03T08:53:45.999Z</time></trkpt><trkpt lat="45.867211222578526" lon="12.29916677872676"><ele>52.0</ele><time>2026-04-03T08:53:46.999Z</time></trkpt><trkpt lat="45.867328376790994" lon="12.299106716387934"><ele>51.5</ele><time>2026-04-03T08:53:47.999Z</time></trkpt><trkpt lat="45.86744755769646" lon="12.299045787796057"><ele>51.0</ele><time>2026-04-03T08:53:49Z</time></trkpt><trkpt lat="45.86756992623347" lon="12.298985468012681"><ele>51.25</ele><time>2026-04-03T08:53:50Z</time></trkpt><trkpt lat="45.867692955701365" lon="12.29892325179548"><ele>51.5</ele><time>2026-04-03T08:53:51Z</time></trkpt><trkpt lat="45.86781722637514" lon="12.298852258361695"><ele>51.75</ele><time>2026-04-03T08:53:52Z</time></trkpt><trkpt lat="45.867941008002134" lon="12.298778624019727"><ele>52.0</ele><time>2026-04-03T08:53:53Z</time></trkpt><trkpt lat="45.86806508808328" lon="12.298705203459823"><ele>52.0</ele><time>2026-04-03T08:53:54Z</time></trkpt><trkpt lat="45.86818952239016" lon="12.29863027376741"><ele>52.0</ele><time>2026-04-03T08:53:55Z</time></trkpt><trkpt lat="45.86831330772209" lon="12.298556161637732"><ele>52.0</ele><time>2026-04-03T08:53:56Z</time></trkpt><trkpt lat="45.86843540532081" lon="12.298480344253942"><ele>52.0</ele><time>2026-04-03T08:53:57Z</time></trkpt><trkpt lat="45.868557808396325" lon="12.29840550935653"><ele>51.75</ele><time>2026-04-03T08:53:58Z</time></trkpt><trkpt lat="45.86867825099126" lon="12.29833337901276"><ele>51.5</ele><time>2026-04-03T08:53:59Z</time></trkpt><trkpt lat="45.868795032605576" lon="12.298264059681497"><ele>51.25</ele><time>2026-04-03T08:54:00Z</time></trkpt><trkpt lat="45.86891513145591" lon="12.2981930018097"><ele>51.0</ele><time>2026-04-03T08:54:01Z</time></trkpt><trkpt lat="45.86903201618853" lon="12.29812073159148"><ele>51.0</ele><time>2026-04-03T08:54:02Z</time></trkpt><trkpt lat="45.8691468682635" lon="12.298052427670317"><ele>51.0</ele><time>2026-04-03T08:54:03Z</time></trkpt><trkpt lat="45.869257420810385" lon="12.297986476569005"><ele>51.0</ele><time>2026-04-03T08:54:04Z</time></trkpt><trkpt lat="45.86936487707249" lon="12.29792031399236"><ele>51.0</ele><time>2026-04-03T08:54:05Z</time></trkpt><trkpt lat="45.869460917145624" lon="12.297858842385251"><ele>51.0</ele><time>2026-04-03T08:54:06Z</time></trkpt><trkpt lat="45.8695565412191" lon="12.297804835213249"><ele>51.0</ele><time>2026-04-03T08:54:07Z</time></trkpt><trkpt lat="45.86965018071609" lon="12.29774793261747"><ele>51.0</ele><time>2026-04-03T08:54:08Z</time></trkpt><trkpt lat="45.869743176788326" lon="12.297689089608369"><ele>51.0</ele><time>2026-04-03T08:54:09Z</time></trkpt><trkpt lat="45.86984100859283" lon="12.297631057504372"><ele>51.0</ele><time>2026-04-03T08:54:10Z</time></trkpt><trkpt lat="45.86993685465712" lon="12.29757119583462"><ele>51.0</ele><time>2026-04-03T08:54:11Z</time></trkpt><trkpt lat="45.87003071462369" lon="12.297511889327748"><ele>51.0</ele><time>2026-04-03T08:54:12Z</time></trkpt><trkpt lat="45.870130546400745" lon="12.29745350351499"><ele>51.0</ele><time>2026-04-03T08:54:13Z</time></trkpt><trkpt lat="45.87023146311278" lon="12.297393619937697"><ele>51.0</ele><time>2026-04-03T08:54:14Z</time></trkpt><trkpt lat="45.870332530531016" lon="12.297329953692007"><ele>51.0</ele><time>2026-04-03T08:54:15Z</time></trkpt><trkpt lat="45.870436894931395" lon="12.29726754366446"><ele>50.8</ele><time>2026-04-03T08:54:16Z</time></trkpt><trkpt lat="45.87053827913562" lon="12.297207590412956"><ele>50.599999999999994</ele><time>2026-04-03T08:54:17Z</time></trkpt><trkpt lat="45.870637436201505" lon="12.297147237370673"><ele>50.4</ele><time>2026-04-03T08:54:18Z</time></trkpt><trkpt lat="45.87073393512078" lon="12.29708822546118"><ele>50.2</ele><time>2026-04-03T08:54:19Z</time></trkpt><trkpt lat="45.87082953799198" lon="12.297029994138395"><ele>50.0</ele><time>2026-04-03T08:54:20Z</time></trkpt><trkpt lat="45.87092417394891" lon="12.296973575856503"><ele>50.4</ele><time>2026-04-03T08:54:21Z</time></trkpt><trkpt lat="45.871017374372634" lon="12.296918655986904"><ele>50.8</ele><time>2026-04-03T08:54:22Z</time></trkpt><trkpt lat="45.87110885465051" lon="12.296863746425597"><ele>51.2</ele><time>2026-04-03T08:54:23Z</time></trkpt><trkpt lat="45.871199547654236" lon="12.29681057295631"><ele>51.6</ele><time>2026-04-03T08:54:24Z</time></trkpt><trkpt lat="45.87128819152379" lon="12.296757682933736"><ele>52.0</ele><time>2026-04-03T08:54:25Z</time></trkpt><trkpt lat="45.87137418441996" lon="12.296703581317095"><ele>52.0</ele><time>2026-04-03T08:54:26Z</time></trkpt><trkpt lat="45.871459282319286" lon="12.296652254011725"><ele>52.0</ele><time>2026-04-03T08:54:27Z</time></trkpt><trkpt lat="45.87153674258154" lon="12.29660889387646"><ele>52.0</ele><time>2026-04-03T08:54:28Z</time></trkpt><trkpt lat="45.87160560000984" lon="12.296569105290741"><ele>52.0</ele><time>2026-04-03T08:54:29Z</time></trkpt><trkpt lat="45.87171850615954" lon="12.296503535946389"><ele>52.0</ele><time>2026-04-03T08:54:31Z</time></trkpt><trkpt lat="45.871806290869294" lon="12.29645271721857"><ele>51.83333333333333</ele><time>2026-04-03T08:54:33Z</time></trkpt><trkpt lat="45.871867121366314" lon="12.296413421799297"><ele>51.666666666666664</ele><time>2026-04-03T08:54:37Z</time></trkpt><trkpt lat="45.871928621892785" lon="12.29636989262626"><ele>51.5</ele><time>2026-04-03T08:54:58Z</time></trkpt><trkpt lat="45.87199057948345" lon="12.296333098595017"><ele>51.33333333333333</ele><time>2026-04-03T08:55:00Z</time></trkpt><trkpt lat="45.87206578564491" lon="12.296286846020315"><ele>51.166666666666664</ele><time>2026-04-03T08:55:02Z</time></trkpt><trkpt lat="45.87217579412053" lon="12.296219607491716"><ele>51.0</ele><time>2026-04-03T08:55:04Z</time></trkpt><trkpt lat="45.87223767578393" lon="12.296181728449596"><ele>51.0</ele><time>2026-04-03T08:55:05Z</time></trkpt><trkpt lat="45.87230403704445" lon="12.296141671790954"><ele>51.0</ele><time>2026-04-03T08:55:06Z</time></trkpt><trkpt lat="45.87237528516344" lon="12.29609926003091"><ele>51.0</ele><time>2026-04-03T08:55:07Z</time></trkpt><trkpt lat="45.87245070088949" lon="12.296055342377736"><ele>51.0</ele><time>2026-04-03T08:55:08Z</time></trkpt><trkpt lat="45.872528472983554" lon="12.296004121168151"><ele>51.0</ele><time>2026-04-03T08:55:09Z</time></trkpt><trkpt lat="45.872613752778115" lon="12.295955663133537"><ele>51.0</ele><time>2026-04-03T08:55:10Z</time></trkpt><trkpt lat="45.872703072305555" lon="12.295902723694793"><ele>51.199999999999996</ele><time>2026-04-03T08:55:11Z</time></trkpt><trkpt lat="45.87279311125169" lon="12.29584671801699"><ele>51.4</ele><time>2026-04-03T08:55:11.999Z</time></trkpt><trkpt lat="45.87288608547192" lon="12.295788148892466"><ele>51.6</ele><time>2026-04-03T08:55:12.999Z</time></trkpt><trkpt lat="45.87298103368942" lon="12.295730931146593"><ele>51.8</ele><time>2026-04-03T08:55:13.999Z</time></trkpt><trkpt lat="45.873072047193816" lon="12.295677301004497"><ele>52.0</ele><time>2026-04-03T08:55:14.999Z</time></trkpt><trkpt lat="45.87315979958698" lon="12.295626065079496"><ele>52.166666666666664</ele><time>2026-04-03T08:55:15.999Z</time></trkpt><trkpt lat="45.87324513355636" lon="12.295575193838994"><ele>52.33333333333333</ele><time>2026-04-03T08:55:16.999Z</time></trkpt><trkpt lat="45.873326439151285" lon="12.295527199194114"><ele>52.5</ele><time>2026-04-03T08:55:17.999Z</time></trkpt><trkpt lat="45.87339802582301" lon="12.29548278445955"><ele>52.66666666666667</ele><time>2026-04-03T08:55:18.999Z</time></trkpt><trkpt lat="45.873459319566734" lon="12.29544726267267"><ele>52.833333333333336</ele><time>2026-04-03T08:55:19.999Z</time></trkpt><trkpt lat="45.87357002567454" lon="12.295378721661335"><ele>53.0</ele><time>2026-04-03T08:55:21.999Z</time></trkpt><trkpt lat="45.87366373945183" lon="12.29532009143903"><ele>53.142857142857146</ele><time>2026-04-03T08:55:23.999Z</time></trkpt><trkpt lat="45.87372731636312" lon="12.29527908417139"><ele>53.285714285714285</ele><time>2026-04-03T08:55:25.999Z</time></trkpt><trkpt lat="45.873790007086676" lon="12.29524164488314"><ele>53.42857142857143</ele><time>2026-04-03T08:55:30.999Z</time></trkpt><trkpt lat="45.87384877190859" lon="12.295200038369327"><ele>53.57142857142857</ele><time>2026-04-03T08:55:39.999Z</time></trkpt><trkpt lat="45.87391468978321" lon="12.295156069995054"><ele>53.71428571428571</ele><time>2026-04-03T08:55:45.999Z</time></trkpt><trkpt lat="45.87397845613308" lon="12.295117023066005"><ele>53.857142857142854</ele><time>2026-04-03T08:55:49.999Z</time></trkpt><trkpt lat="45.8740402226807" lon="12.295081530463383"><ele>54.0</ele><time>2026-04-03T08:55:55Z</time></trkpt><trkpt lat="45.8741030411627" lon="12.295047819559647"><ele>54.0</ele><time>2026-04-03T08:56:02Z</time></trkpt><trkpt lat="45.87416984877014" lon="12.295008253819947"><ele>54.0</ele><time>2026-04-03T08:56:07Z</time></trkpt><trkpt lat="45.87423021014148" lon="12.294975828827763"><ele>54.0</ele><time>2026-04-03T08:56:16Z</time></trkpt><trkpt lat="45.8742921533317" lon="12.294935407604978"><ele>54.0</ele><time>2026-04-03T08:56:24Z</time></trkpt><trkpt lat="45.87435230370522" lon="12.294900752786365"><ele>54.0</ele><time>2026-04-03T08:56:29Z</time></trkpt><trkpt lat="45.874418047149355" lon="12.294861656212328"><ele>54.0</ele><time>2026-04-03T08:56:35Z</time></trkpt><trkpt lat="45.874479666859465" lon="12.294827422530302"><ele>54.0</ele><time>2026-04-03T08:56:43Z</time></trkpt><trkpt lat="45.87455658104899" lon="12.294789547680054"><ele>54.14285714285714</ele><time>2026-04-03T08:57:05Z</time></trkpt><trkpt lat="45.87462670356454" lon="12.294748549991576"><ele>54.285714285714285</ele><time>2026-04-03T08:57:08.999Z</time></trkpt><trkpt lat="45.87469249411076" lon="12.294711817573832"><ele>54.42857142857143</ele><time>2026-04-03T08:57:12.999Z</time></trkpt><trkpt lat="45.87474889368208" lon="12.294666753387364"><ele>54.57142857142857</ele><time>2026-04-03T08:57:16.999Z</time></trkpt><trkpt lat="45.87480976105789" lon="12.29462160093546"><ele>54.714285714285715</ele><time>2026-04-03T08:57:20.999Z</time></trkpt><trkpt lat="45.87487020796754" lon="12.29458369883576"><ele>54.857142857142854</ele><time>2026-04-03T08:57:24.999Z</time></trkpt><trkpt lat="45.874940060625434" lon="12.294537867921374"><ele>55.0</ele><time>2026-04-03T08:57:28.999Z</time></trkpt><trkpt lat="45.87500306351849" lon="12.294506362873037"><ele>54.99999999999999</ele><time>2026-04-03T08:57:32.999Z</time></trkpt><trkpt lat="45.87506505194616" lon="12.294483057418832"><ele>55.0</ele><time>2026-04-03T08:57:48.999Z</time></trkpt><trkpt lat="45.8751302659809" lon="12.294444939920766"><ele>55.0</ele><time>2026-04-03T08:57:54.999Z</time></trkpt><trkpt lat="45.8751949170957" lon="12.294418808768558"><ele>55.0</ele><time>2026-04-03T08:58:30Z</time></trkpt><trkpt lat="45.875259530619836" lon="12.29437791829722"><ele>55.0</ele><time>2026-04-03T08:58:36Z</time></trkpt><trkpt lat="45.87531912910201" lon="12.294340423898905"><ele>54.99999999999999</ele><time>2026-04-03T08:58:49Z</time></trkpt><trkpt lat="45.875384535371374" lon="12.294294989646529"><ele>55.0</ele><time>2026-04-03T08:59:06Z</time></trkpt><trkpt lat="45.87546748662082" lon="12.294254840607035"><ele>54.99999999999999</ele><time>2026-04-03T08:59:09Z</time></trkpt><trkpt lat="45.87555004444649" lon="12.29422783822381"><ele>55.0</ele><time>2026-04-03T08:59:12.999Z</time></trkpt><trkpt lat="45.87561525323244" lon="12.294214121629654"><ele>55.0</ele><time>2026-04-03T08:59:14.999Z</time></trkpt><trkpt lat="45.87568540707223" lon="12.29422086857642"><ele>55.0</ele><time>2026-04-03T08:59:17.999Z</time></trkpt><trkpt lat="45.87575452277151" lon="12.294236893633176"><ele>54.99999999999999</ele><time>2026-04-03T08:59:22.999Z</time></trkpt><trkpt lat="45.87589011286403" lon="12.294320507193875"><ele>55.0</ele><time>2026-04-03T08:59:33.999Z</time></trkpt><trkpt lat="45.87597510915754" lon="12.294446866818475"><ele>55.166666666666664</ele><time>2026-04-03T08:59:35.999Z</time></trkpt><trkpt lat="45.8760029508591" lon="12.29454159061694"><ele>55.33333333333333</ele><time>2026-04-03T08:59:36.999Z</time></trkpt><trkpt lat="45.876025505601035" lon="12.294650062394323"><ele>55.5</ele><time>2026-04-03T08:59:37.999Z</time></trkpt><trkpt lat="45.87604860885489" lon="12.294767179061143"><ele>55.66666666666667</ele><time>2026-04-03T08:59:38.999Z</time></trkpt><trkpt lat="45.87607414921469" lon="12.294894746733416"><ele>55.833333333333336</ele><time>2026-04-03T08:59:39.999Z</time></trkpt><trkpt lat="45.87609785540037" lon="12.29503124091879"><ele>56.0</ele><time>2026-04-03T08:59:40.999Z</time></trkpt><trkpt lat="45.876119715736216" lon="12.295160908824379"><ele>56.00000000000001</ele><time>2026-04-03T08:59:41.999Z</time></trkpt><trkpt lat="45.87612226501737" lon="12.295294845043557"><ele>56.0</ele><time>2026-04-03T08:59:42.999Z</time></trkpt><trkpt lat="45.876146198427804" lon="12.295418157273529"><ele>56.0</ele><time>2026-04-03T08:59:43.999Z</time></trkpt><trkpt lat="45.87618209030909" lon="12.295514487021126"><ele>56.0</ele><time>2026-04-03T08:59:44.999Z</time></trkpt><trkpt lat="45.87618271878061" lon="12.295606795679271"><ele>56.00000000000001</ele><time>2026-04-03T08:59:45.999Z</time></trkpt><trkpt lat="45.87620714904468" lon="12.295733618630479"><ele>56.0</ele><time>2026-04-03T08:59:47.999Z</time></trkpt><trkpt lat="45.87623972839483" lon="12.295814197003164"><ele>56.00000000000001</ele><time>2026-04-03T08:59:49.999Z</time></trkpt><trkpt lat="45.87626750894722" lon="12.295925932722328"><ele>56.0</ele><time>2026-04-03T09:00:07Z</time></trkpt><trkpt lat="45.876293110828506" lon="12.296033197019044"><ele>56.0</ele><time>2026-04-03T09:00:10Z</time></trkpt><trkpt lat="45.87631504333678" lon="12.296141787099963"><ele>56.0</ele><time>2026-04-03T09:00:12Z</time></trkpt><trkpt lat="45.87630985486864" lon="12.296267604531668"><ele>56.00000000000001</ele><time>2026-04-03T09:00:14Z</time></trkpt><trkpt lat="45.87633554303451" lon="12.296401050301315"><ele>56.0</ele><time>2026-04-03T09:00:16Z</time></trkpt><trkpt lat="45.876389751001035" lon="12.296515231323413"><ele>56.16666666666667</ele><time>2026-04-03T09:00:18Z</time></trkpt><trkpt lat="45.876421615071216" lon="12.296656850824254"><ele>56.333333333333336</ele><time>2026-04-03T09:00:20Z</time></trkpt><trkpt lat="45.87640358682676" lon="12.296752990534493"><ele>56.5</ele><time>2026-04-03T09:00:21Z</time></trkpt><trkpt lat="45.87642079310895" lon="12.296841946206127"><ele>56.66666666666667</ele><time>2026-04-03T09:00:22Z</time></trkpt><trkpt lat="45.87643990418068" lon="12.296940750473357"><ele>56.833333333333336</ele><time>2026-04-03T09:00:23Z</time></trkpt><trkpt lat="45.87646259573536" lon="12.297057322952341"><ele>57.0</ele><time>2026-04-03T09:00:24Z</time></trkpt><trkpt lat="45.876485653476315" lon="12.297176111065175"><ele>57.0</ele><time>2026-04-03T09:00:25Z</time></trkpt><trkpt lat="45.87651156098786" lon="12.29730958049984"><ele>57.0</ele><time>2026-04-03T09:00:26Z</time></trkpt><trkpt lat="45.87653758674098" lon="12.297443659067712"><ele>57.0</ele><time>2026-04-03T09:00:27Z</time></trkpt><trkpt lat="45.876564934059616" lon="12.297584546073326"><ele>57.0</ele><time>2026-04-03T09:00:28Z</time></trkpt><trkpt lat="45.876592391892245" lon="12.297726002395946"><ele>57.0</ele><time>2026-04-03T09:00:29Z</time></trkpt><trkpt lat="45.87662090693517" lon="12.297873256488536"><ele>57.0</ele><time>2026-04-03T09:00:30Z</time></trkpt><trkpt lat="45.87664988542755" lon="12.298023117231441"><ele>57.0</ele><time>2026-04-03T09:00:31Z</time></trkpt><trkpt lat="45.87667919360008" lon="12.298174682947513"><ele>57.0</ele><time>2026-04-03T09:00:32Z</time></trkpt><trkpt lat="45.87670898280475" lon="12.298328736285482"><ele>57.0</ele><time>2026-04-03T09:00:33Z</time></trkpt><trkpt lat="45.87673979784216" lon="12.298488094651313"><ele>57.0</ele><time>2026-04-03T09:00:34Z</time></trkpt><trkpt lat="45.876770718656466" lon="12.298646030891899"><ele>57.0</ele><time>2026-04-03T09:00:35Z</time></trkpt><trkpt lat="45.87680132563847" lon="12.29880187822254"><ele>57.0</ele><time>2026-04-03T09:00:36Z</time></trkpt><trkpt lat="45.87683092672602" lon="12.298952603646416"><ele>57.0</ele><time>2026-04-03T09:00:37Z</time></trkpt><trkpt lat="45.876859957595556" lon="12.299100425616537"><ele>57.0</ele><time>2026-04-03T09:00:38Z</time></trkpt><trkpt lat="45.87688977926751" lon="12.29925227425127"><ele>57.0</ele><time>2026-04-03T09:00:39Z</time></trkpt><trkpt lat="45.87691986474024" lon="12.2994047985043"><ele>57.0</ele><time>2026-04-03T09:00:40Z</time></trkpt><trkpt lat="45.87695043560007" lon="12.299559192901246"><ele>57.0</ele><time>2026-04-03T09:00:41Z</time></trkpt><trkpt lat="45.876978716243734" lon="12.29970202081339"><ele>57.0</ele><time>2026-04-03T09:00:42Z</time></trkpt><trkpt lat="45.87700261056423" lon="12.299825271042543"><ele>57.0</ele><time>2026-04-03T09:00:43Z</time></trkpt><trkpt lat="45.877023821887924" lon="12.299932330405204"><ele>57.0</ele><time>2026-04-03T09:00:44Z</time></trkpt><trkpt lat="45.87704862321505" lon="12.300018384711557"><ele>57.0</ele><time>2026-04-03T09:00:45Z</time></trkpt><trkpt lat="45.87707695684201" lon="12.3001658466795"><ele>56.6</ele><time>2026-04-03T09:00:47Z</time></trkpt><trkpt lat="45.87710208754622" lon="12.300296473207217"><ele>56.2</ele><time>2026-04-03T09:00:49Z</time></trkpt><trkpt lat="45.87714045539039" lon="12.300446655176252"><ele>55.8</ele><time>2026-04-03T09:01:05Z</time></trkpt><trkpt lat="45.87714821616807" lon="12.300564796043808"><ele>55.4</ele><time>2026-04-03T09:01:07Z</time></trkpt><trkpt lat="45.87718219948806" lon="12.30073817762598"><ele>55.0</ele><time>2026-04-03T09:01:09Z</time></trkpt><trkpt lat="45.8772015846377" lon="12.300837079984452"><ele>54.99999999999999</ele><time>2026-04-03T09:01:10Z</time></trkpt><trkpt lat="45.87723979742049" lon="12.300931065483292"><ele>55.0</ele><time>2026-04-03T09:01:10.999Z</time></trkpt><trkpt lat="45.87726232796967" lon="12.301042447103615"><ele>55.0</ele><time>2026-04-03T09:01:11.999Z</time></trkpt><trkpt lat="45.877283225588194" lon="12.301157910577798"><ele>55.0</ele><time>2026-04-03T09:01:12.999Z</time></trkpt><trkpt lat="45.87730491669133" lon="12.30127339339547"><ele>54.99999999999999</ele><time>2026-04-03T09:01:13.999Z</time></trkpt><trkpt lat="45.87732793589311" lon="12.301389326395386"><ele>55.0</ele><time>2026-04-03T09:01:14.999Z</time></trkpt><trkpt lat="45.877348282046896" lon="12.301505331926046"><ele>54.99999999999999</ele><time>2026-04-03T09:01:15.999Z</time></trkpt><trkpt lat="45.8773707038175" lon="12.301621441656243"><ele>55.0</ele><time>2026-04-03T09:01:16.999Z</time></trkpt><trkpt lat="45.87739179559406" lon="12.301738906724896"><ele>55.0</ele><time>2026-04-03T09:01:17.999Z</time></trkpt><trkpt lat="45.8774141958168" lon="12.301856158173761"><ele>55.0</ele><time>2026-04-03T09:01:18.999Z</time></trkpt><trkpt lat="45.877435907214696" lon="12.301981670036275"><ele>54.99999999999999</ele><time>2026-04-03T09:01:19.999Z</time></trkpt><trkpt lat="45.877462655514115" lon="12.302115880152792"><ele>55.0</ele><time>2026-04-03T09:01:20.999Z</time></trkpt><trkpt lat="45.87748591740802" lon="12.302252295901392"><ele>55.0</ele><time>2026-04-03T09:01:21.999Z</time></trkpt><trkpt lat="45.8775126521578" lon="12.302391617528569"><ele>55.0</ele><time>2026-04-03T09:01:22.999Z</time></trkpt><trkpt lat="45.8775414677725" lon="12.302532921001417"><ele>55.0</ele><time>2026-04-03T09:01:23.999Z</time></trkpt><trkpt lat="45.87756738357651" lon="12.302673131004527"><ele>55.0</ele><time>2026-04-03T09:01:24.999Z</time></trkpt><trkpt lat="45.877592030777336" lon="12.302811932491078"><ele>55.0</ele><time>2026-04-03T09:01:25.999Z</time></trkpt><trkpt lat="45.877620022480826" lon="12.302951374919088"><ele>55.2</ele><time>2026-04-03T09:01:26.999Z</time></trkpt><trkpt lat="45.877650984256526" lon="12.30309237628771"><ele>55.4</ele><time>2026-04-03T09:01:27.999Z</time></trkpt><trkpt lat="45.87767942138774" lon="12.303235314636682"><ele>55.599999999999994</ele><time>2026-04-03T09:01:28.999Z</time></trkpt><trkpt lat="45.877705823355186" lon="12.303379560459407"><ele>55.8</ele><time>2026-04-03T09:01:29.999Z</time></trkpt><trkpt lat="45.87772917437727" lon="12.303521883066775"><ele>56.0</ele><time>2026-04-03T09:01:30.999Z</time></trkpt><trkpt lat="45.87776314735426" lon="12.303656784683932"><ele>56.00000000000001</ele><time>2026-04-03T09:01:31.999Z</time></trkpt><trkpt lat="45.87778898444285" lon="12.303791238823731"><ele>56.0</ele><time>2026-04-03T09:01:32.999Z</time></trkpt><trkpt lat="45.877813445243724" lon="12.303917834869956"><ele>56.0</ele><time>2026-04-03T09:01:33.999Z</time></trkpt><trkpt lat="45.87783699787098" lon="12.304035214918063"><ele>56.0</ele><time>2026-04-03T09:01:34.999Z</time></trkpt><trkpt lat="45.877858651357805" lon="12.304140474197235"><ele>56.00000000000001</ele><time>2026-04-03T09:01:35.999Z</time></trkpt><trkpt lat="45.877882863013575" lon="12.304246983567824"><ele>56.0</ele><time>2026-04-03T09:01:36.999Z</time></trkpt><trkpt lat="45.87790395834526" lon="12.304352551550918"><ele>55.714285714285715</ele><time>2026-04-03T09:01:37.999Z</time></trkpt><trkpt lat="45.877923965477585" lon="12.304457138911161"><ele>55.42857142857143</ele><time>2026-04-03T09:01:38.999Z</time></trkpt><trkpt lat="45.87794582887976" lon="12.304559283929294"><ele>55.14285714285714</ele><time>2026-04-03T09:01:39.999Z</time></trkpt><trkpt lat="45.87796727216204" lon="12.304661582657445"><ele>54.85714285714286</ele><time>2026-04-03T09:01:40.999Z</time></trkpt><trkpt lat="45.87798991508803" lon="12.3047630236427"><ele>54.57142857142857</ele><time>2026-04-03T09:01:41.999Z</time></trkpt><trkpt lat="45.8780122297678" lon="12.30486393929637"><ele>54.285714285714285</ele><time>2026-04-03T09:01:42.999Z</time></trkpt><trkpt lat="45.878033527368316" lon="12.304964773626265"><ele>54.0</ele><time>2026-04-03T09:01:43.999Z</time></trkpt><trkpt lat="45.87805400706405" lon="12.30506564823769"><ele>53.714285714285715</ele><time>2026-04-03T09:01:44.999Z</time></trkpt><trkpt lat="45.878057266192414" lon="12.30517298918977"><ele>53.42857142857143</ele><time>2026-04-03T09:01:45.999Z</time></trkpt><trkpt lat="45.87807609312648" lon="12.30527221202617"><ele>53.14285714285714</ele><time>2026-04-03T09:01:46.999Z</time></trkpt><trkpt lat="45.87809484921467" lon="12.305371046866222"><ele>52.85714285714286</ele><time>2026-04-03T09:01:47.999Z</time></trkpt><trkpt lat="45.878113763256906" lon="12.305470714736948"><ele>52.57142857142858</ele><time>2026-04-03T09:01:48.999Z</time></trkpt><trkpt lat="45.878132554458624" lon="12.30556989579409"><ele>52.285714285714285</ele><time>2026-04-03T09:01:49.999Z</time></trkpt><trkpt lat="45.87815142124224" lon="12.3056694130779"><ele>52.0</ele><time>2026-04-03T09:01:50.999Z</time></trkpt><trkpt lat="45.87816998784237" lon="12.305767346982053"><ele>52.0</ele><time>2026-04-03T09:01:51.999Z</time></trkpt><trkpt lat="45.87818859708895" lon="12.305865505794952"><ele>52.0</ele><time>2026-04-03T09:01:52.999Z</time></trkpt><trkpt lat="45.87820801455915" lon="12.305967927795917"><ele>52.0</ele><time>2026-04-03T09:01:53.999Z</time></trkpt><trkpt lat="45.878243288061775" lon="12.306064628516555"><ele>52.0</ele><time>2026-04-03T09:01:54.999Z</time></trkpt><trkpt lat="45.878263281844134" lon="12.306168325426817"><ele>52.0</ele><time>2026-04-03T09:01:55.999Z</time></trkpt><trkpt lat="45.87828266393198" lon="12.306272839097725"><ele>52.0</ele><time>2026-04-03T09:01:56.999Z</time></trkpt><trkpt lat="45.87830255618356" lon="12.306379068931891"><ele>52.0</ele><time>2026-04-03T09:01:57.999Z</time></trkpt><trkpt lat="45.87832268913805" lon="12.306488818849298"><ele>51.99999999999999</ele><time>2026-04-03T09:01:58.999Z</time></trkpt><trkpt lat="45.87834296953677" lon="12.306597394293606"><ele>52.0</ele><time>2026-04-03T09:01:59.999Z</time></trkpt><trkpt lat="45.87836346108026" lon="12.306708728903699"><ele>52.0</ele><time>2026-04-03T09:02:00.999Z</time></trkpt><trkpt lat="45.87838420422004" lon="12.306820179711048"><ele>52.0</ele><time>2026-04-03T09:02:01.999Z</time></trkpt><trkpt lat="45.87840585929538" lon="12.30693195956381"><ele>51.99999999999999</ele><time>2026-04-03T09:02:02.999Z</time></trkpt><trkpt lat="45.8784291325037" lon="12.30704364609101"><ele>52.0</ele><time>2026-04-03T09:02:03.999Z</time></trkpt><trkpt lat="45.87845158825986" lon="12.307157541064058"><ele>51.83333333333333</ele><time>2026-04-03T09:02:04.999Z</time></trkpt><trkpt lat="45.878472509633475" lon="12.307274241901593"><ele>51.666666666666664</ele><time>2026-04-03T09:02:05.999Z</time></trkpt><trkpt lat="45.87849373626861" lon="12.307390401549888"><ele>51.5</ele><time>2026-04-03T09:02:06.999Z</time></trkpt><trkpt lat="45.87851500360242" lon="12.30750686970162"><ele>51.33333333333333</ele><time>2026-04-03T09:02:07.999Z</time></trkpt><trkpt lat="45.878537052214796" lon="12.307626151879196"><ele>51.166666666666664</ele><time>2026-04-03T09:02:08.999Z</time></trkpt><trkpt lat="45.878558769734234" lon="12.307747783672378"><ele>51.0</ele><time>2026-04-03T09:02:09.999Z</time></trkpt><trkpt lat="45.8785813448439" lon="12.307861418756525"><ele>51.0</ele><time>2026-04-03T09:02:10.999Z</time></trkpt><trkpt lat="45.87860374664639" lon="12.307967626281993"><ele>51.0</ele><time>2026-04-03T09:02:11.999Z</time></trkpt><trkpt lat="45.87862414653048" lon="12.308072911811283"><ele>51.0</ele><time>2026-04-03T09:02:13Z</time></trkpt><trkpt lat="45.87864455546221" lon="12.308170876370644"><ele>51.0</ele><time>2026-04-03T09:02:14Z</time></trkpt><trkpt lat="45.878662831004696" lon="12.308265301575265"><ele>51.0</ele><time>2026-04-03T09:02:15Z</time></trkpt><trkpt lat="45.87868066722391" lon="12.308353771257632"><ele>51.0</ele><time>2026-04-03T09:02:16Z</time></trkpt><trkpt lat="45.87870006292495" lon="12.308529996050321"><ele>51.199999999999996</ele><time>2026-04-03T09:02:18Z</time></trkpt><trkpt lat="45.87873054970487" lon="12.308688739288918"><ele>51.4</ele><time>2026-04-03T09:02:20Z</time></trkpt><trkpt lat="45.87875414191314" lon="12.30881145235595"><ele>51.6</ele><time>2026-04-03T09:02:22Z</time></trkpt><trkpt lat="45.87879335326828" lon="12.30892480836228"><ele>51.8</ele><time>2026-04-03T09:02:24Z</time></trkpt><trkpt lat="45.87881734324149" lon="12.309054652324887"><ele>52.0</ele><time>2026-04-03T09:02:26Z</time></trkpt><trkpt lat="45.87883458565544" lon="12.309225406882833"><ele>51.99999999999999</ele><time>2026-04-03T09:02:28Z</time></trkpt><trkpt lat="45.87885174506138" lon="12.309314402050013"><ele>52.0</ele><time>2026-04-03T09:02:29Z</time></trkpt><trkpt lat="45.87888227942081" lon="12.309472764508795"><ele>52.0</ele><time>2026-04-03T09:02:31Z</time></trkpt><trkpt lat="45.878912270955325" lon="12.309564818592708"><ele>52.0</ele><time>2026-04-03T09:02:33Z</time></trkpt><trkpt lat="45.87893017797113" lon="12.309663255230358"><ele>51.99999999999999</ele><time>2026-04-03T09:02:38Z</time></trkpt><trkpt lat="45.87895752671361" lon="12.309793731038866"><ele>52.0</ele><time>2026-04-03T09:02:41Z</time></trkpt><trkpt lat="45.87897563024975" lon="12.309898325619171"><ele>51.8</ele><time>2026-04-03T09:02:43Z</time></trkpt><trkpt lat="45.87900038285985" lon="12.310020388305999"><ele>51.6</ele><time>2026-04-03T09:02:45Z</time></trkpt><trkpt lat="45.879035815423336" lon="12.310179754351408"><ele>51.4</ele><time>2026-04-03T09:02:47Z</time></trkpt><trkpt lat="45.87905456908069" lon="12.310268953346418"><ele>51.199999999999996</ele><time>2026-04-03T09:02:48Z</time></trkpt><trkpt lat="45.87910070229919" lon="12.310431009573746"><ele>51.0</ele><time>2026-04-03T09:02:50Z</time></trkpt><trkpt lat="45.87915103314426" lon="12.310599829988645"><ele>50.833333333333336</ele><time>2026-04-03T09:02:52Z</time></trkpt><trkpt lat="45.87916746690126" lon="12.310706509433786"><ele>50.66666666666667</ele><time>2026-04-03T09:02:53Z</time></trkpt><trkpt lat="45.879183836659706" lon="12.31081430325433"><ele>50.5</ele><time>2026-04-03T09:02:54Z</time></trkpt><trkpt lat="45.87921034997311" lon="12.310919268323376"><ele>50.333333333333336</ele><time>2026-04-03T09:02:55Z</time></trkpt><trkpt lat="45.87924467277761" lon="12.3110180872548"><ele>50.16666666666667</ele><time>2026-04-03T09:02:56Z</time></trkpt><trkpt lat="45.879281094757694" lon="12.311112639915716"><ele>50.0</ele><time>2026-04-03T09:02:57Z</time></trkpt><trkpt lat="45.87931197764955" lon="12.311206705216517"><ele>50.00000000000001</ele><time>2026-04-03T09:02:58Z</time></trkpt><trkpt lat="45.87934320844812" lon="12.311296782780643"><ele>50.0</ele><time>2026-04-03T09:02:59Z</time></trkpt><trkpt lat="45.87937556153958" lon="12.31138366288439"><ele>50.0</ele><time>2026-04-03T09:03:00Z</time></trkpt><trkpt lat="45.879409394497635" lon="12.311467487252703"><ele>50.0</ele><time>2026-04-03T09:03:01Z</time></trkpt><trkpt lat="45.879469071839246" lon="12.311605491898163"><ele>50.00000000000001</ele><time>2026-04-03T09:03:03Z</time></trkpt><trkpt lat="45.87951966364655" lon="12.311705915444259"><ele>50.0</ele><time>2026-04-03T09:03:05Z</time></trkpt><trkpt lat="45.879563550662006" lon="12.31177659297699"><ele>50.16666666666667</ele><time>2026-04-03T09:03:09Z</time></trkpt><trkpt lat="45.87960084203976" lon="12.311863823703233"><ele>50.333333333333336</ele><time>2026-04-03T09:03:13Z</time></trkpt><trkpt lat="45.8796520878772" lon="12.311943423364687"><ele>50.5</ele><time>2026-04-03T09:03:15Z</time></trkpt><trkpt lat="45.879714803473874" lon="12.31203785703768"><ele>50.66666666666667</ele><time>2026-04-03T09:03:18Z</time></trkpt><trkpt lat="45.879760437409836" lon="12.31210282739363"><ele>50.833333333333336</ele><time>2026-04-03T09:03:21.999Z</time></trkpt><trkpt lat="45.87985996006615" lon="12.312212646709025"><ele>51.0</ele><time>2026-04-03T09:03:34.999Z</time></trkpt><trkpt lat="45.879898425056155" lon="12.312295161650919"><ele>51.166666666666664</ele><time>2026-04-03T09:03:36.999Z</time></trkpt><trkpt lat="45.87992564073121" lon="12.312377419716796"><ele>51.33333333333333</ele><time>2026-04-03T09:03:38.999Z</time></trkpt><trkpt lat="45.87993466659917" lon="12.312515850939608"><ele>51.5</ele><time>2026-04-03T09:03:40.999Z</time></trkpt><trkpt lat="45.87993259459642" lon="12.312681122733304"><ele>51.666666666666664</ele><time>2026-04-03T09:03:42.999Z</time></trkpt><trkpt lat="45.8799674408368" lon="12.312762729661216"><ele>51.83333333333333</ele><time>2026-04-03T09:03:43.999Z</time></trkpt><trkpt lat="45.88001573787183" lon="12.312829236019095"><ele>52.0</ele><time>2026-04-03T09:03:44.999Z</time></trkpt><trkpt lat="45.880080168868254" lon="12.312881073311203"><ele>51.99999999999999</ele><time>2026-04-03T09:03:45.999Z</time></trkpt><trkpt lat="45.88014580926132" lon="12.312944353590412"><ele>52.0</ele><time>2026-04-03T09:03:46.999Z</time></trkpt><trkpt lat="45.88020518609314" lon="12.31300525350614"><ele>52.0</ele><time>2026-04-03T09:03:47.999Z</time></trkpt><trkpt lat="45.88026416180544" lon="12.313072806439523"><ele>52.0</ele><time>2026-04-03T09:03:48.999Z</time></trkpt><trkpt lat="45.88032192406178" lon="12.313153328361912"><ele>51.99999999999999</ele><time>2026-04-03T09:03:49.999Z</time></trkpt><trkpt lat="45.88038775548685" lon="12.313248492702632"><ele>52.0</ele><time>2026-04-03T09:03:50.999Z</time></trkpt><trkpt lat="45.880458251387864" lon="12.313335704163423"><ele>51.8</ele><time>2026-04-03T09:03:51.999Z</time></trkpt><trkpt lat="45.8805319484939" lon="12.313426219600538"><ele>51.6</ele><time>2026-04-03T09:03:52.999Z</time></trkpt><trkpt lat="45.88060627794143" lon="12.313524701372469"><ele>51.4</ele><time>2026-04-03T09:03:53.999Z</time></trkpt><trkpt lat="45.88068289423602" lon="12.313620962080611"><ele>51.199999999999996</ele><time>2026-04-03T09:03:54.999Z</time></trkpt><trkpt lat="45.880765586836304" lon="12.313718866588854"><ele>51.0</ele><time>2026-04-03T09:03:55.999Z</time></trkpt><trkpt lat="45.88084995220422" lon="12.31381323020098"><ele>51.0</ele><time>2026-04-03T09:03:56.999Z</time></trkpt><trkpt lat="45.88093562908201" lon="12.313914602691883"><ele>51.0</ele><time>2026-04-03T09:03:57.999Z</time></trkpt><trkpt lat="45.881025406851656" lon="12.31402728312122"><ele>51.0</ele><time>2026-04-03T09:03:58.999Z</time></trkpt><trkpt lat="45.88111314958652" lon="12.314129048259518"><ele>51.0</ele><time>2026-04-03T09:03:59.999Z</time></trkpt><trkpt lat="45.88120804424791" lon="12.314244427261656"><ele>51.0</ele><time>2026-04-03T09:04:00.999Z</time></trkpt><trkpt lat="45.881305935254495" lon="12.314348539588462"><ele>51.0</ele><time>2026-04-03T09:04:01.999Z</time></trkpt><trkpt lat="45.88139686989154" lon="12.31446276513055"><ele>51.0</ele><time>2026-04-03T09:04:02.999Z</time></trkpt><trkpt lat="45.88148870182781" lon="12.314573200538284"><ele>51.0</ele><time>2026-04-03T09:04:03.999Z</time></trkpt><trkpt lat="45.881582102949864" lon="12.314685757251606"><ele>51.25</ele><time>2026-04-03T09:04:04.999Z</time></trkpt><trkpt lat="45.88167370070564" lon="12.31479263749018"><ele>51.5</ele><time>2026-04-03T09:04:05.999Z</time></trkpt><trkpt lat="45.88176826416393" lon="12.314904153157125"><ele>51.75</ele><time>2026-04-03T09:04:06.999Z</time></trkpt><trkpt lat="45.88186280401725" lon="12.315009594880095"><ele>52.0</ele><time>2026-04-03T09:04:07.999Z</time></trkpt><trkpt lat="45.88194703179769" lon="12.31510672199758"><ele>52.0</ele><time>2026-04-03T09:04:08.999Z</time></trkpt><trkpt lat="45.88204612767647" lon="12.315208100814797"><ele>52.0</ele><time>2026-04-03T09:04:09.999Z</time></trkpt><trkpt lat="45.88213630796861" lon="12.315321617627063"><ele>52.0</ele><time>2026-04-03T09:04:10.999Z</time></trkpt><trkpt lat="45.88222683334653" lon="12.31541786388758"><ele>52.0</ele><time>2026-04-03T09:04:11.999Z</time></trkpt><trkpt lat="45.88231357066857" lon="12.315511995775612"><ele>52.0</ele><time>2026-04-03T09:04:12.999Z</time></trkpt><trkpt lat="45.88239823169041" lon="12.315612469092578"><ele>52.0</ele><time>2026-04-03T09:04:13.999Z</time></trkpt><trkpt lat="45.88247970354617" lon="12.315711700549263"><ele>52.0</ele><time>2026-04-03T09:04:14.999Z</time></trkpt><trkpt lat="45.88256797098596" lon="12.315809611182974"><ele>52.0</ele><time>2026-04-03T09:04:15.999Z</time></trkpt><trkpt lat="45.88265024765825" lon="12.315907865517746"><ele>52.0</ele><time>2026-04-03T09:04:16.999Z</time></trkpt><trkpt lat="45.88273285105857" lon="12.316005901747543"><ele>51.6</ele><time>2026-04-03T09:04:17.999Z</time></trkpt><trkpt lat="45.88281528557524" lon="12.316102452038075"><ele>51.2</ele><time>2026-04-03T09:04:19Z</time></trkpt><trkpt lat="45.882898210483575" lon="12.316197628272983"><ele>50.8</ele><time>2026-04-03T09:04:20Z</time></trkpt><trkpt lat="45.88297914535156" lon="12.316293085473736"><ele>50.4</ele><time>2026-04-03T09:04:21Z</time></trkpt><trkpt lat="45.88305845877484" lon="12.316383580196776"><ele>50.0</ele><time>2026-04-03T09:04:22Z</time></trkpt><trkpt lat="45.88313712399134" lon="12.316473448875582"><ele>50.00000000000001</ele><time>2026-04-03T09:04:23Z</time></trkpt><trkpt lat="45.88321360626376" lon="12.316562921766332"><ele>50.0</ele><time>2026-04-03T09:04:24Z</time></trkpt><trkpt lat="45.88327520733546" lon="12.316632033541989"><ele>50.0</ele><time>2026-04-03T09:04:25Z</time></trkpt><trkpt lat="45.88332477932182" lon="12.316688408114711"><ele>50.0</ele><time>2026-04-03T09:04:26Z</time></trkpt><trkpt lat="45.883376622526924" lon="12.316757290687024"><ele>50.00000000000001</ele><time>2026-04-03T09:04:29Z</time></trkpt><trkpt lat="45.88341927810913" lon="12.316844666386196"><ele>50.0</ele><time>2026-04-03T09:04:32Z</time></trkpt><trkpt lat="45.883457648670436" lon="12.316980855767266"><ele>50.0</ele><time>2026-04-03T09:04:34Z</time></trkpt><trkpt lat="45.88349050792282" lon="12.31705904542615"><ele>50.0</ele><time>2026-04-03T09:04:35Z</time></trkpt><trkpt lat="45.88359383445921" lon="12.317143264543184"><ele>50.0</ele><time>2026-04-03T09:04:37Z</time></trkpt><trkpt lat="45.8836912987897" lon="12.31714108847402"><ele>50.0</ele><time>2026-04-03T09:04:39Z</time></trkpt><trkpt lat="45.88374577277143" lon="12.317215053606263"><ele>50.0</ele><time>2026-04-03T09:04:40Z</time></trkpt><trkpt lat="45.8838474941568" lon="12.317325356968592"><ele>50.0</ele><time>2026-04-03T09:04:42Z</time></trkpt><trkpt lat="45.88390964323346" lon="12.317398204963244"><ele>50.0</ele><time>2026-04-03T09:04:43Z</time></trkpt><trkpt lat="45.88397754354956" lon="12.317477571616275"><ele>50.0</ele><time>2026-04-03T09:04:44Z</time></trkpt><trkpt lat="45.88405019182875" lon="12.317565659912587"><ele>50.0</ele><time>2026-04-03T09:04:45Z</time></trkpt><trkpt lat="45.88412963614462" lon="12.317663239966805"><ele>50.0</ele><time>2026-04-03T09:04:46Z</time></trkpt><trkpt lat="45.88421474207516" lon="12.317761457410924"><ele>49.75</ele><time>2026-04-03T09:04:47Z</time></trkpt><trkpt lat="45.884308017577695" lon="12.317864466487686"><ele>49.5</ele><time>2026-04-03T09:04:48Z</time></trkpt><trkpt lat="45.88440289626324" lon="12.317972053166281"><ele>49.25</ele><time>2026-04-03T09:04:49Z</time></trkpt><trkpt lat="45.88450066383789" lon="12.318083129027787"><ele>49.0</ele><time>2026-04-03T09:04:50Z</time></trkpt><trkpt lat="45.88460002209488" lon="12.318197950664493"><ele>49.5</ele><time>2026-04-03T09:04:51Z</time></trkpt><trkpt lat="45.88470461241859" lon="12.31831795244038"><ele>50.0</ele><time>2026-04-03T09:04:52Z</time></trkpt><trkpt lat="45.88480946613641" lon="12.318442257943941"><ele>50.5</ele><time>2026-04-03T09:04:53Z</time></trkpt><trkpt lat="45.88491603090541" lon="12.318567095077839"><ele>51.0</ele><time>2026-04-03T09:04:54Z</time></trkpt><trkpt lat="45.88502735132655" lon="12.31869604263117"><ele>51.0</ele><time>2026-04-03T09:04:55Z</time></trkpt><trkpt lat="45.88514007730676" lon="12.318830725719783"><ele>51.0</ele><time>2026-04-03T09:04:56Z</time></trkpt><trkpt lat="45.88525254917007" lon="12.318960686325104"><ele>51.0</ele><time>2026-04-03T09:04:57Z</time></trkpt><trkpt lat="45.885366867709315" lon="12.319093622917379"><ele>51.0</ele><time>2026-04-03T09:04:58Z</time></trkpt><trkpt lat="45.88548185841316" lon="12.319225274386628"><ele>51.0</ele><time>2026-04-03T09:04:59Z</time></trkpt><trkpt lat="45.88559574282476" lon="12.319364469885285"><ele>51.0</ele><time>2026-04-03T09:05:00Z</time></trkpt><trkpt lat="45.885713719253474" lon="12.31950041885142"><ele>51.0</ele><time>2026-04-03T09:05:01Z</time></trkpt><trkpt lat="45.885833950371236" lon="12.319639387092115"><ele>51.33333333333333</ele><time>2026-04-03T09:05:02Z</time></trkpt><trkpt lat="45.885952684226844" lon="12.319781321293222"><ele>51.666666666666664</ele><time>2026-04-03T09:05:03Z</time></trkpt><trkpt lat="45.88607049222038" lon="12.319925738985196"><ele>52.0</ele><time>2026-04-03T09:05:04Z</time></trkpt><trkpt lat="45.88618891396938" lon="12.320068766395531"><ele>52.0</ele><time>2026-04-03T09:05:05Z</time></trkpt><trkpt lat="45.886305647212154" lon="12.320208857396919"><ele>52.0</ele><time>2026-04-03T09:05:06Z</time></trkpt><trkpt lat="45.88642086524935" lon="12.320348199269128"><ele>52.0</ele><time>2026-04-03T09:05:07Z</time></trkpt><trkpt lat="45.88653477646484" lon="12.320489592531274"><ele>52.25</ele><time>2026-04-03T09:05:08Z</time></trkpt><trkpt lat="45.886646151080626" lon="12.320627904094312"><ele>52.5</ele><time>2026-04-03T09:05:09Z</time></trkpt><trkpt lat="45.88675365313389" lon="12.320762286873236"><ele>52.75</ele><time>2026-04-03T09:05:10Z</time></trkpt><trkpt lat="45.88685980036577" lon="12.320897212941588"><ele>53.0</ele><time>2026-04-03T09:05:11Z</time></trkpt><trkpt lat="45.88696315538941" lon="12.32103514036132"><ele>53.25</ele><time>2026-04-03T09:05:12Z</time></trkpt><trkpt lat="45.887067469616795" lon="12.321171655059716"><ele>53.5</ele><time>2026-04-03T09:05:13Z</time></trkpt><trkpt lat="45.88717430242796" lon="12.321307797617166"><ele>53.75</ele><time>2026-04-03T09:05:14Z</time></trkpt><trkpt lat="45.88728528145376" lon="12.321440170707918"><ele>54.0</ele><time>2026-04-03T09:05:15Z</time></trkpt><trkpt lat="45.887397146038694" lon="12.321579068700519"><ele>53.66666666666667</ele><time>2026-04-03T09:05:16Z</time></trkpt><trkpt lat="45.8875124706972" lon="12.32171705741078"><ele>53.333333333333336</ele><time>2026-04-03T09:05:17Z</time></trkpt><trkpt lat="45.8876286464727" lon="12.321856890404783"><ele>53.0</ele><time>2026-04-03T09:05:18Z</time></trkpt><trkpt lat="45.88774661475137" lon="12.322000383733364"><ele>53.0</ele><time>2026-04-03T09:05:19Z</time></trkpt><trkpt lat="45.887863972309994" lon="12.32214372488812"><ele>53.0</ele><time>2026-04-03T09:05:20Z</time></trkpt><trkpt lat="45.887979465334496" lon="12.322283819030805"><ele>53.0</ele><time>2026-04-03T09:05:21Z</time></trkpt><trkpt lat="45.888092115715644" lon="12.322424151053294"><ele>53.5</ele><time>2026-04-03T09:05:22Z</time></trkpt><trkpt lat="45.888203283085836" lon="12.32256369442269"><ele>54.0</ele><time>2026-04-03T09:05:23Z</time></trkpt><trkpt lat="45.88831442052272" lon="12.322699164859024"><ele>54.5</ele><time>2026-04-03T09:05:24Z</time></trkpt><trkpt lat="45.88842376527848" lon="12.322837725945103"><ele>55.0</ele><time>2026-04-03T09:05:25Z</time></trkpt><trkpt lat="45.888533305124795" lon="12.322973548606901"><ele>54.75</ele><time>2026-04-03T09:05:26Z</time></trkpt><trkpt lat="45.888643375983584" lon="12.323110077297988"><ele>54.5</ele><time>2026-04-03T09:05:27Z</time></trkpt><trkpt lat="45.888751931275195" lon="12.323249509547146"><ele>54.25</ele><time>2026-04-03T09:05:28Z</time></trkpt><trkpt lat="45.888861885876906" lon="12.323390259925434"><ele>54.0</ele><time>2026-04-03T09:05:29Z</time></trkpt><trkpt lat="45.88897326112564" lon="12.323529268928425"><ele>54.0</ele><time>2026-04-03T09:05:30Z</time></trkpt><trkpt lat="45.88908439560513" lon="12.323664240294315"><ele>54.0</ele><time>2026-04-03T09:05:31Z</time></trkpt><trkpt lat="45.889195171124875" lon="12.323802260016443"><ele>54.0</ele><time>2026-04-03T09:05:32Z</time></trkpt><trkpt lat="45.889305597767155" lon="12.32394039552598"><ele>54.0</ele><time>2026-04-03T09:05:33Z</time></trkpt><trkpt lat="45.889417903907194" lon="12.324077613731758"><ele>54.0</ele><time>2026-04-03T09:05:34Z</time></trkpt><trkpt lat="45.88952974048452" lon="12.324211478038997"><ele>54.0</ele><time>2026-04-03T09:05:35Z</time></trkpt><trkpt lat="45.88964100847412" lon="12.324342239101064"><ele>54.0</ele><time>2026-04-03T09:05:36Z</time></trkpt><trkpt lat="45.889748007753084" lon="12.324465153435396"><ele>54.0</ele><time>2026-04-03T09:05:37Z</time></trkpt><trkpt lat="45.88985191273239" lon="12.32458414702239"><ele>54.0</ele><time>2026-04-03T09:05:37.999Z</time></trkpt><trkpt lat="45.88995030950053" lon="12.324695717230009"><ele>54.0</ele><time>2026-04-03T09:05:38.999Z</time></trkpt><trkpt lat="45.89005183657025" lon="12.324806189136305"><ele>54.0</ele><time>2026-04-03T09:05:39.999Z</time></trkpt><trkpt lat="45.890150758778766" lon="12.324916621052918"><ele>54.0</ele><time>2026-04-03T09:05:40.999Z</time></trkpt><trkpt lat="45.89024946601494" lon="12.325026688252136"><ele>54.0</ele><time>2026-04-03T09:05:41.999Z</time></trkpt><trkpt lat="45.89034585861026" lon="12.325133415456175"><ele>54.0</ele><time>2026-04-03T09:05:42.999Z</time></trkpt><trkpt lat="45.89044041455807" lon="12.325238328497443"><ele>54.0</ele><time>2026-04-03T09:05:43.999Z</time></trkpt><trkpt lat="45.89053454563044" lon="12.325341609999896"><ele>54.0</ele><time>2026-04-03T09:05:44.999Z</time></trkpt><trkpt lat="45.89062650901861" lon="12.325443127098854"><ele>54.0</ele><time>2026-04-03T09:05:45.999Z</time></trkpt><trkpt lat="45.89071337241672" lon="12.325539680698014"><ele>54.00000000000001</ele><time>2026-04-03T09:05:46.999Z</time></trkpt><trkpt lat="45.89079432870602" lon="12.32563193867079"><ele>54.00000000000001</ele><time>2026-04-03T09:05:47.999Z</time></trkpt><trkpt lat="45.89087329192668" lon="12.325722707368397"><ele>54.0</ele><time>2026-04-03T09:05:48.999Z</time></trkpt><trkpt lat="45.89095057116647" lon="12.325811598093692"><ele>54.0</ele><time>2026-04-03T09:05:49.999Z</time></trkpt><trkpt lat="45.89102513737943" lon="12.325894005487239"><ele>53.714285714285715</ele><time>2026-04-03T09:05:50.999Z</time></trkpt><trkpt lat="45.891094852809324" lon="12.32597444907339"><ele>53.42857142857143</ele><time>2026-04-03T09:05:51.999Z</time></trkpt><trkpt lat="45.89115549740169" lon="12.326045389470584"><ele>53.14285714285714</ele><time>2026-04-03T09:05:52.999Z</time></trkpt><trkpt lat="45.891207311547674" lon="12.326101540291264"><ele>52.85714285714286</ele><time>2026-04-03T09:05:53.999Z</time></trkpt><trkpt lat="45.89126741427742" lon="12.326172793455294"><ele>52.57142857142858</ele><time>2026-04-03T09:05:55.999Z</time></trkpt><trkpt lat="45.891316699461875" lon="12.32622934034812"><ele>52.285714285714285</ele><time>2026-04-03T09:05:57.999Z</time></trkpt><trkpt lat="45.891368971826104" lon="12.326292413753924"><ele>52.0</ele><time>2026-04-03T09:05:59.999Z</time></trkpt><trkpt lat="45.89145156695776" lon="12.326382608939257"><ele>52.166666666666664</ele><time>2026-04-03T09:06:01.999Z</time></trkpt><trkpt lat="45.89150554513902" lon="12.326442341513665"><ele>52.33333333333333</ele><time>2026-04-03T09:06:02.999Z</time></trkpt><trkpt lat="45.89156465953702" lon="12.326508210832765"><ele>52.5</ele><time>2026-04-03T09:06:03.999Z</time></trkpt><trkpt lat="45.89162751882701" lon="12.326580427306418"><ele>52.66666666666667</ele><time>2026-04-03T09:06:04.999Z</time></trkpt><trkpt lat="45.89169460633007" lon="12.326656362735537"><ele>52.833333333333336</ele><time>2026-04-03T09:06:05.999Z</time></trkpt><trkpt lat="45.89176500160244" lon="12.326734943801473"><ele>53.0</ele><time>2026-04-03T09:06:06.999Z</time></trkpt><trkpt lat="45.891841729847165" lon="12.326816100696126"><ele>53.4</ele><time>2026-04-03T09:06:07.999Z</time></trkpt><trkpt lat="45.89192679957203" lon="12.326905982964604"><ele>53.8</ele><time>2026-04-03T09:06:08.999Z</time></trkpt><trkpt lat="45.892011362012234" lon="12.327003454135676"><ele>54.2</ele><time>2026-04-03T09:06:09.999Z</time></trkpt><trkpt lat="45.89210270804556" lon="12.327102747016733"><ele>54.6</ele><time>2026-04-03T09:06:10.999Z</time></trkpt><trkpt lat="45.89219606597896" lon="12.327203686889138"><ele>55.0</ele><time>2026-04-03T09:06:11.999Z</time></trkpt><trkpt lat="45.89229317892122" lon="12.327309664955806"><ele>55.0</ele><time>2026-04-03T09:06:12.999Z</time></trkpt><trkpt lat="45.89239138662698" lon="12.327415820035656"><ele>55.0</ele><time>2026-04-03T09:06:13.999Z</time></trkpt><trkpt lat="45.89248852198025" lon="12.327523049275223"><ele>55.0</ele><time>2026-04-03T09:06:14.999Z</time></trkpt><trkpt lat="45.89258607829976" lon="12.327633859017244"><ele>55.0</ele><time>2026-04-03T09:06:15.999Z</time></trkpt><trkpt lat="45.8926846450313" lon="12.327740259144948"><ele>55.0</ele><time>2026-04-03T09:06:16.999Z</time></trkpt><trkpt lat="45.89278535880631" lon="12.327847426507594"><ele>55.0</ele><time>2026-04-03T09:06:17.999Z</time></trkpt><trkpt lat="45.892886496629856" lon="12.327956177525454"><ele>55.0</ele><time>2026-04-03T09:06:18.999Z</time></trkpt><trkpt lat="45.89298725196754" lon="12.328065572336863"><ele>55.0</ele><time>2026-04-03T09:06:19.999Z</time></trkpt><trkpt lat="45.893088098722394" lon="12.328171086394798"><ele>55.0</ele><time>2026-04-03T09:06:20.999Z</time></trkpt><trkpt lat="45.89318600333341" lon="12.328268054579745"><ele>55.0</ele><time>2026-04-03T09:06:21.999Z</time></trkpt><trkpt lat="45.89328327853292" lon="12.328357844647424"><ele>55.0</ele><time>2026-04-03T09:06:22.999Z</time></trkpt><trkpt lat="45.89337752353813" lon="12.328444202018538"><ele>55.0</ele><time>2026-04-03T09:06:23.999Z</time></trkpt><trkpt lat="45.89346567269223" lon="12.328523320135918"><ele>55.0</ele><time>2026-04-03T09:06:25Z</time></trkpt><trkpt lat="45.89354923478601" lon="12.32858670390529"><ele>55.0</ele><time>2026-04-03T09:06:26Z</time></trkpt><trkpt lat="45.8936313829263" lon="12.328655439217147"><ele>55.0</ele><time>2026-04-03T09:06:27Z</time></trkpt><trkpt lat="45.893712528050926" lon="12.32871983653475"><ele>55.0</ele><time>2026-04-03T09:06:28Z</time></trkpt><trkpt lat="45.89379141831735" lon="12.328781312478657"><ele>55.0</ele><time>2026-04-03T09:06:29Z</time></trkpt><trkpt lat="45.89387270937883" lon="12.328838366359161"><ele>54.99999999999999</ele><time>2026-04-03T09:06:30Z</time></trkpt><trkpt lat="45.893946827157606" lon="12.328889564252155"><ele>55.0</ele><time>2026-04-03T09:06:31Z</time></trkpt><trkpt lat="45.894018092610864" lon="12.328940094119542"><ele>55.0</ele><time>2026-04-03T09:06:32Z</time></trkpt><trkpt lat="45.894085889566846" lon="12.328986775480065"><ele>55.0</ele><time>2026-04-03T09:06:33Z</time></trkpt><trkpt lat="45.894154199860154" lon="12.329029782207146"><ele>54.99999999999999</ele><time>2026-04-03T09:06:34Z</time></trkpt><trkpt lat="45.89422276386592" lon="12.32907417371759"><ele>55.0</ele><time>2026-04-03T09:06:35Z</time></trkpt><trkpt lat="45.89429410475632" lon="12.32911937843922"><ele>55.4</ele><time>2026-04-03T09:06:36Z</time></trkpt><trkpt lat="45.89437073502635" lon="12.329164991182772"><ele>55.8</ele><time>2026-04-03T09:06:37Z</time></trkpt><trkpt lat="45.8944512422884" lon="12.329217193440343"><ele>56.2</ele><time>2026-04-03T09:06:38Z</time></trkpt><trkpt lat="45.89453789185641" lon="12.329274140971178"><ele>56.6</ele><time>2026-04-03T09:06:39Z</time></trkpt><trkpt lat="45.89462960948685" lon="12.329331405855976"><ele>57.0</ele><time>2026-04-03T09:06:40Z</time></trkpt><trkpt lat="45.894724373964046" lon="12.32939229898953"><ele>57.0</ele><time>2026-04-03T09:06:41Z</time></trkpt><trkpt lat="45.89482101548258" lon="12.329455774931645"><ele>57.0</ele><time>2026-04-03T09:06:42Z</time></trkpt><trkpt lat="45.89491793405247" lon="12.329519529253789"><ele>57.0</ele><time>2026-04-03T09:06:43Z</time></trkpt><trkpt lat="45.89502078209273" lon="12.329585185045039"><ele>57.0</ele><time>2026-04-03T09:06:44Z</time></trkpt><trkpt lat="45.89512072615655" lon="12.32965101340113"><ele>57.0</ele><time>2026-04-03T09:06:45Z</time></trkpt><trkpt lat="45.89522242364634" lon="12.329714893164146"><ele>56.8</ele><time>2026-04-03T09:06:46Z</time></trkpt><trkpt lat="45.89532655886898" lon="12.329782426261266"><ele>56.6</ele><time>2026-04-03T09:06:47Z</time></trkpt><trkpt lat="45.895428752447124" lon="12.3298491813772"><ele>56.39999999999999</ele><time>2026-04-03T09:06:48Z</time></trkpt><trkpt lat="45.89553249471233" lon="12.329917851079195"><ele>56.199999999999996</ele><time>2026-04-03T09:06:49Z</time></trkpt><trkpt lat="45.8956292200456" lon="12.329981478861788"><ele>56.0</ele><time>2026-04-03T09:06:50Z</time></trkpt><trkpt lat="45.89573249721993" lon="12.330047253463796"><ele>56.0</ele><time>2026-04-03T09:06:51Z</time></trkpt><trkpt lat="45.89583466466715" lon="12.330113032051358"><ele>56.0</ele><time>2026-04-03T09:06:52Z</time></trkpt><trkpt lat="45.895940659822344" lon="12.330180957979518"><ele>56.0</ele><time>2026-04-03T09:06:53Z</time></trkpt><trkpt lat="45.896045625020925" lon="12.330248577970403"><ele>56.0</ele><time>2026-04-03T09:06:54Z</time></trkpt><trkpt lat="45.896152893378584" lon="12.330318489937133"><ele>56.25</ele><time>2026-04-03T09:06:55Z</time></trkpt><trkpt lat="45.89626299265877" lon="12.330390160500697"><ele>56.5</ele><time>2026-04-03T09:06:56Z</time></trkpt><trkpt lat="45.896377014817006" lon="12.330463082801588"><ele>56.75</ele><time>2026-04-03T09:06:57Z</time></trkpt><trkpt lat="45.89649455539713" lon="12.330539339584934"><ele>57.0</ele><time>2026-04-03T09:06:58Z</time></trkpt><trkpt lat="45.89661411326606" lon="12.330618638198859"><ele>57.25</ele><time>2026-04-03T09:06:59Z</time></trkpt><trkpt lat="45.89673560591357" lon="12.3306999690504"><ele>57.5</ele><time>2026-04-03T09:07:00Z</time></trkpt><trkpt lat="45.89685671354588" lon="12.330775630999625"><ele>57.75</ele><time>2026-04-03T09:07:01Z</time></trkpt><trkpt lat="45.896978499338886" lon="12.330853504241356"><ele>58.0</ele><time>2026-04-03T09:07:02Z</time></trkpt><trkpt lat="45.89710101099239" lon="12.330935213569925"><ele>58.25</ele><time>2026-04-03T09:07:03Z</time></trkpt><trkpt lat="45.897224558655594" lon="12.331014231345195"><ele>58.5</ele><time>2026-04-03T09:07:04Z</time></trkpt><trkpt lat="45.89735095358059" lon="12.331096058469614"><ele>58.75</ele><time>2026-04-03T09:07:05Z</time></trkpt><trkpt lat="45.897478464595686" lon="12.331178624372413"><ele>59.0</ele><time>2026-04-03T09:07:06Z</time></trkpt><trkpt lat="45.89760502130676" lon="12.331258374109497"><ele>59.0</ele><time>2026-04-03T09:07:07Z</time></trkpt><trkpt lat="45.89773409352942" lon="12.33134347691859"><ele>59.0</ele><time>2026-04-03T09:07:08Z</time></trkpt><trkpt lat="45.89786442103068" lon="12.331428257745712"><ele>59.0</ele><time>2026-04-03T09:07:09Z</time></trkpt><trkpt lat="45.897996983597565" lon="12.331519102002458"><ele>59.0</ele><time>2026-04-03T09:07:10Z</time></trkpt><trkpt lat="45.898132812739206" lon="12.331605763017103"><ele>58.66666666666667</ele><time>2026-04-03T09:07:11Z</time></trkpt><trkpt lat="45.89826877445425" lon="12.331695222780144"><ele>58.33333333333333</ele><time>2026-04-03T09:07:12Z</time></trkpt><trkpt lat="45.89840513277914" lon="12.331786721451497"><ele>58.0</ele><time>2026-04-03T09:07:13Z</time></trkpt><trkpt lat="45.898541102412985" lon="12.331877120645384"><ele>58.0</ele><time>2026-04-03T09:07:14Z</time></trkpt><trkpt lat="45.89867910836478" lon="12.331965448834962"><ele>58.0</ele><time>2026-04-03T09:07:15Z</time></trkpt><trkpt lat="45.89881763084542" lon="12.332055926854663"><ele>58.0</ele><time>2026-04-03T09:07:16Z</time></trkpt><trkpt lat="45.89895687263583" lon="12.332145059570351"><ele>58.33333333333333</ele><time>2026-04-03T09:07:17Z</time></trkpt><trkpt lat="45.899094884531785" lon="12.332237088392432"><ele>58.66666666666667</ele><time>2026-04-03T09:07:18Z</time></trkpt><trkpt lat="45.89923504135068" lon="12.332328108810037"><ele>59.0</ele><time>2026-04-03T09:07:19Z</time></trkpt><trkpt lat="45.89937748958825" lon="12.332419466204696"><ele>59.0</ele><time>2026-04-03T09:07:20Z</time></trkpt><trkpt lat="45.89952119993869" lon="12.332511161118921"><ele>59.0</ele><time>2026-04-03T09:07:21Z</time></trkpt><trkpt lat="45.899664658203804" lon="12.332605259271139"><ele>59.0</ele><time>2026-04-03T09:07:22Z</time></trkpt><trkpt lat="45.8998097665121" lon="12.332699915674826"><ele>59.0</ele><time>2026-04-03T09:07:23Z</time></trkpt><trkpt lat="45.89995537464475" lon="12.332795843557902"><ele>59.0</ele><time>2026-04-03T09:07:24Z</time></trkpt><trkpt lat="45.9001026892508" lon="12.332892185209946"><ele>59.0</ele><time>2026-04-03T09:07:25Z</time></trkpt><trkpt lat="45.90025052144132" lon="12.33298616150748"><ele>60.0</ele><time>2026-04-03T09:07:26Z</time></trkpt><trkpt lat="45.90039966630329" lon="12.333082274808767"><ele>61.0</ele><time>2026-04-03T09:07:27Z</time></trkpt><trkpt lat="45.90055034576661" lon="12.33317906741708"><ele>62.0</ele><time>2026-04-03T09:07:28Z</time></trkpt><trkpt lat="45.90070149434868" lon="12.333276172114898"><ele>62.0</ele><time>2026-04-03T09:07:29Z</time></trkpt><trkpt lat="45.90085501178561" lon="12.33337422357104"><ele>62.0</ele><time>2026-04-03T09:07:30Z</time></trkpt><trkpt lat="45.901008700331175" lon="12.333469433207343"><ele>62.0</ele><time>2026-04-03T09:07:31Z</time></trkpt><trkpt lat="45.901161257551074" lon="12.333563523882555"><ele>61.333333333333336</ele><time>2026-04-03T09:07:32Z</time></trkpt><trkpt lat="45.901318000942126" lon="12.3336624097861"><ele>60.66666666666667</ele><time>2026-04-03T09:07:33Z</time></trkpt><trkpt lat="45.90147315714465" lon="12.333759020902463"><ele>60.0</ele><time>2026-04-03T09:07:34Z</time></trkpt><trkpt lat="45.90162760038723" lon="12.333855760825513"><ele>60.0</ele><time>2026-04-03T09:07:35Z</time></trkpt><trkpt lat="45.90178458681894" lon="12.333953146294771"><ele>60.0</ele><time>2026-04-03T09:07:36Z</time></trkpt><trkpt lat="45.90194204986908" lon="12.33405476540432"><ele>60.0</ele><time>2026-04-03T09:07:37Z</time></trkpt><trkpt lat="45.9021015207041" lon="12.334158584446847"><ele>60.0</ele><time>2026-04-03T09:07:38Z</time></trkpt><trkpt lat="45.90226178180924" lon="12.334263780697265"><ele>60.0</ele><time>2026-04-03T09:07:39Z</time></trkpt><trkpt lat="45.902423582442815" lon="12.334367694374036"><ele>60.0</ele><time>2026-04-03T09:07:40Z</time></trkpt><trkpt lat="45.90258638034708" lon="12.33447430509774"><ele>60.33333333333333</ele><time>2026-04-03T09:07:40.999Z</time></trkpt><trkpt lat="45.90274819325385" lon="12.33458149021792"><ele>60.666666666666664</ele><time>2026-04-03T09:07:41.999Z</time></trkpt><trkpt lat="45.90291181997149" lon="12.334686886772202"><ele>61.0</ele><time>2026-04-03T09:07:42.999Z</time></trkpt><trkpt lat="45.903075216992804" lon="12.334792656366377"><ele>61.0</ele><time>2026-04-03T09:07:43.999Z</time></trkpt><trkpt lat="45.903234903393056" lon="12.334897924135749"><ele>61.0</ele><time>2026-04-03T09:07:44.999Z</time></trkpt><trkpt lat="45.90339439986472" lon="12.335004796296618"><ele>61.0</ele><time>2026-04-03T09:07:45.999Z</time></trkpt><trkpt lat="45.9035527610176" lon="12.335108988708283"><ele>62.33333333333333</ele><time>2026-04-03T09:07:46.999Z</time></trkpt><trkpt lat="45.903710305567934" lon="12.335216277150082"><ele>63.66666666666667</ele><time>2026-04-03T09:07:47.999Z</time></trkpt><trkpt lat="45.90386591811223" lon="12.33532174367576"><ele>65.0</ele><time>2026-04-03T09:07:48.999Z</time></trkpt><trkpt lat="45.90402191977074" lon="12.335429702284458"><ele>65.0</ele><time>2026-04-03T09:07:49.999Z</time></trkpt><trkpt lat="45.90417826872604" lon="12.335536355040833"><ele>65.0</ele><time>2026-04-03T09:07:50.999Z</time></trkpt><trkpt lat="45.904336287144346" lon="12.335639089971572"><ele>65.0</ele><time>2026-04-03T09:07:51.999Z</time></trkpt><trkpt lat="45.90449140456323" lon="12.33573935291634"><ele>66.0</ele><time>2026-04-03T09:07:52.999Z</time></trkpt><trkpt lat="45.904645465075546" lon="12.335836731506044"><ele>67.0</ele><time>2026-04-03T09:07:53.999Z</time></trkpt><trkpt lat="45.904798895835036" lon="12.335933929063064"><ele>68.0</ele><time>2026-04-03T09:07:54.999Z</time></trkpt><trkpt lat="45.90495225055641" lon="12.33602444928848"><ele>67.0</ele><time>2026-04-03T09:07:55.999Z</time></trkpt><trkpt lat="45.90510547650203" lon="12.336113599643907"><ele>66.0</ele><time>2026-04-03T09:07:56.999Z</time></trkpt><trkpt lat="45.90525575141921" lon="12.336206326240974"><ele>65.0</ele><time>2026-04-03T09:07:57.999Z</time></trkpt><trkpt lat="45.905403412545674" lon="12.336300730500046"><ele>65.0</ele><time>2026-04-03T09:07:58.999Z</time></trkpt><trkpt lat="45.90554947319093" lon="12.336394358595461"><ele>65.0</ele><time>2026-04-03T09:07:59.999Z</time></trkpt><trkpt lat="45.90568436925208" lon="12.336483954892085"><ele>65.0</ele><time>2026-04-03T09:08:00.999Z</time></trkpt><trkpt lat="45.90580653632349" lon="12.336569020210435"><ele>65.0</ele><time>2026-04-03T09:08:01.999Z</time></trkpt><trkpt lat="45.90591657691491" lon="12.336640626529343"><ele>65.0</ele><time>2026-04-03T09:08:02.999Z</time></trkpt><trkpt lat="45.906017077065734" lon="12.336713298451123"><ele>65.0</ele><time>2026-04-03T09:08:03.999Z</time></trkpt><trkpt lat="45.906104336670225" lon="12.336780911676597"><ele>65.0</ele><time>2026-04-03T09:08:04.999Z</time></trkpt><trkpt lat="45.9061730278564" lon="12.336836414038794"><ele>65.0</ele><time>2026-04-03T09:08:05.999Z</time></trkpt><trkpt lat="45.90622952157782" lon="12.33688693793999"><ele>65.0</ele><time>2026-04-03T09:08:06.999Z</time></trkpt><trkpt lat="45.90633083641035" lon="12.336975622023983"><ele>65.0</ele><time>2026-04-03T09:08:08.999Z</time></trkpt><trkpt lat="45.90640552847992" lon="12.337063115234859"><ele>65.0</ele><time>2026-04-03T09:08:10.999Z</time></trkpt><trkpt lat="45.90646615288835" lon="12.337179755333574"><ele>65.0</ele><time>2026-04-03T09:08:12.999Z</time></trkpt><trkpt lat="45.90649684044774" lon="12.33726310140591"><ele>65.0</ele><time>2026-04-03T09:08:13.999Z</time></trkpt><trkpt lat="45.906514657716905" lon="12.337352064998756"><ele>65.0</ele><time>2026-04-03T09:08:14.999Z</time></trkpt><trkpt lat="45.90659951049962" lon="12.337407155990746"><ele>65.0</ele><time>2026-04-03T09:08:15.999Z</time></trkpt><trkpt lat="45.90667830891627" lon="12.337440807242942"><ele>64.66666666666667</ele><time>2026-04-03T09:08:16.999Z</time></trkpt><trkpt lat="45.90675407671291" lon="12.337395038879913"><ele>64.33333333333334</ele><time>2026-04-03T09:08:17.999Z</time></trkpt><trkpt lat="45.90684670518773" lon="12.337429345137371"><ele>64.0</ele><time>2026-04-03T09:08:18.999Z</time></trkpt><trkpt lat="45.906929517634524" lon="12.337441467441874"><ele>63.66666666666667</ele><time>2026-04-03T09:08:19.999Z</time></trkpt><trkpt lat="45.9070141839865" lon="12.337483608846536"><ele>63.333333333333336</ele><time>2026-04-03T09:08:20.999Z</time></trkpt><trkpt lat="45.9071043621476" lon="12.337532342589562"><ele>63.0</ele><time>2026-04-03T09:08:21.999Z</time></trkpt><trkpt lat="45.90719940351223" lon="12.337582591483423"><ele>63.0</ele><time>2026-04-03T09:08:22.999Z</time></trkpt><trkpt lat="45.90730480278984" lon="12.337639331493225"><ele>63.0</ele><time>2026-04-03T09:08:23.999Z</time></trkpt><trkpt lat="45.90741243934867" lon="12.337703561411015"><ele>63.0</ele><time>2026-04-03T09:08:24.999Z</time></trkpt><trkpt lat="45.90752009520238" lon="12.337779615738597"><ele>63.0</ele><time>2026-04-03T09:08:25.999Z</time></trkpt><trkpt lat="45.90762986154666" lon="12.337870268955252"><ele>63.0</ele><time>2026-04-03T09:08:26.999Z</time></trkpt><trkpt lat="45.90773812738783" lon="12.337972309242875"><ele>63.0</ele><time>2026-04-03T09:08:27.999Z</time></trkpt><trkpt lat="45.90784484156198" lon="12.338086347203308"><ele>63.0</ele><time>2026-04-03T09:08:28.999Z</time></trkpt><trkpt lat="45.907949075222845" lon="12.33820868411358"><ele>63.0</ele><time>2026-04-03T09:08:29.999Z</time></trkpt><trkpt lat="45.908050946002184" lon="12.338334238307333"><ele>63.0</ele><time>2026-04-03T09:08:31Z</time></trkpt><trkpt lat="45.90814936596629" lon="12.338461032232875"><ele>63.0</ele><time>2026-04-03T09:08:32Z</time></trkpt><trkpt lat="45.90824601149486" lon="12.338590648650952"><ele>63.0</ele><time>2026-04-03T09:08:33Z</time></trkpt><trkpt lat="45.90834240800524" lon="12.338724311870044"><ele>63.0</ele><time>2026-04-03T09:08:34Z</time></trkpt><trkpt lat="45.9084387504123" lon="12.338860942943715"><ele>62.5</ele><time>2026-04-03T09:08:35Z</time></trkpt><trkpt lat="45.90853430652984" lon="12.339000671424268"><ele>62.0</ele><time>2026-04-03T09:08:36Z</time></trkpt><trkpt lat="45.90863062423079" lon="12.339137951307023"><ele>61.5</ele><time>2026-04-03T09:08:37Z</time></trkpt><trkpt lat="45.90872708373779" lon="12.33927715102565"><ele>61.0</ele><time>2026-04-03T09:08:38Z</time></trkpt><trkpt lat="45.90882312387409" lon="12.339413564844197"><ele>61.0</ele><time>2026-04-03T09:08:39Z</time></trkpt><trkpt lat="45.90891723907476" lon="12.339550551306093"><ele>61.0</ele><time>2026-04-03T09:08:40Z</time></trkpt><trkpt lat="45.9090114676061" lon="12.339685009532639"><ele>61.0</ele><time>2026-04-03T09:08:41Z</time></trkpt><trkpt lat="45.90910061871206" lon="12.339813851435638"><ele>61.0</ele><time>2026-04-03T09:08:42Z</time></trkpt><trkpt lat="45.90918525072797" lon="12.33993806798556"><ele>60.75</ele><time>2026-04-03T09:08:43Z</time></trkpt><trkpt lat="45.90926991094342" lon="12.340062491834189"><ele>60.5</ele><time>2026-04-03T09:08:44Z</time></trkpt><trkpt lat="45.90935335304215" lon="12.340185146861524"><ele>60.25</ele><time>2026-04-03T09:08:45Z</time></trkpt><trkpt lat="45.90943714123807" lon="12.340304794244336"><ele>60.0</ele><time>2026-04-03T09:08:46Z</time></trkpt><trkpt lat="45.90952390068796" lon="12.34043366623458"><ele>60.0</ele><time>2026-04-03T09:08:47Z</time></trkpt><trkpt lat="45.90960955733576" lon="12.340556393291587"><ele>60.0</ele><time>2026-04-03T09:08:48Z</time></trkpt><trkpt lat="45.90969392550335" lon="12.3406791337757"><ele>60.0</ele><time>2026-04-03T09:08:49Z</time></trkpt><trkpt lat="45.90977857741969" lon="12.340799555923052"><ele>60.0</ele><time>2026-04-03T09:08:50Z</time></trkpt><trkpt lat="45.90986215495755" lon="12.340921530145629"><ele>60.0</ele><time>2026-04-03T09:08:51Z</time></trkpt><trkpt lat="45.90994600603299" lon="12.341044091797562"><ele>60.0</ele><time>2026-04-03T09:08:52Z</time></trkpt><trkpt lat="45.91003138968628" lon="12.341166531502948"><ele>60.0</ele><time>2026-04-03T09:08:53Z</time></trkpt><trkpt lat="45.910105581504695" lon="12.341281125418442"><ele>60.0</ele><time>2026-04-03T09:08:54Z</time></trkpt><trkpt lat="45.910162075058544" lon="12.341359671717237"><ele>60.0</ele><time>2026-04-03T09:08:55Z</time></trkpt><trkpt lat="45.91023582942929" lon="12.341473682090085"><ele>60.166666666666664</ele><time>2026-04-03T09:08:57Z</time></trkpt><trkpt lat="45.91030072796046" lon="12.341568786022355"><ele>60.33333333333333</ele><time>2026-04-03T09:08:59Z</time></trkpt><trkpt lat="45.910353128268916" lon="12.341646453510759"><ele>60.5</ele><time>2026-04-03T09:09:02Z</time></trkpt><trkpt lat="45.91040836175792" lon="12.34172083347822"><ele>60.666666666666664</ele><time>2026-04-03T09:09:07Z</time></trkpt><trkpt lat="45.910478872717455" lon="12.341814269903132"><ele>60.83333333333333</ele><time>2026-04-03T09:09:09Z</time></trkpt><trkpt lat="45.91052424652979" lon="12.34188137009178"><ele>61.0</ele><time>2026-04-03T09:09:10Z</time></trkpt><trkpt lat="45.910576415516594" lon="12.341957278992657"><ele>61.0</ele><time>2026-04-03T09:09:11Z</time></trkpt><trkpt lat="45.91063325135211" lon="12.342042189511318"><ele>60.99999999999999</ele><time>2026-04-03T09:09:12Z</time></trkpt><trkpt lat="45.91069617054641" lon="12.342134254862144"><ele>60.99999999999999</ele><time>2026-04-03T09:09:13Z</time></trkpt><trkpt lat="45.91076331361769" lon="12.34223564638427"><ele>61.0</ele><time>2026-04-03T09:09:14Z</time></trkpt><trkpt lat="45.910835212798" lon="12.34234036866004"><ele>61.0</ele><time>2026-04-03T09:09:15Z</time></trkpt><trkpt lat="45.91091603802087" lon="12.34245510508518"><ele>61.25</ele><time>2026-04-03T09:09:16Z</time></trkpt><trkpt lat="45.91099992832908" lon="12.342572587839253"><ele>61.5</ele><time>2026-04-03T09:09:17Z</time></trkpt><trkpt lat="45.911087811548946" lon="12.342697770574995"><ele>61.75</ele><time>2026-04-03T09:09:18Z</time></trkpt><trkpt lat="45.91117746206121" lon="12.34282650420377"><ele>62.0</ele><time>2026-04-03T09:09:19Z</time></trkpt><trkpt lat="45.9112711805859" lon="12.342961730244138"><ele>61.25</ele><time>2026-04-03T09:09:20Z</time></trkpt><trkpt lat="45.911368736405784" lon="12.343100671502738"><ele>60.5</ele><time>2026-04-03T09:09:21Z</time></trkpt><trkpt lat="45.911467236867836" lon="12.343240161843116"><ele>59.75</ele><time>2026-04-03T09:09:22Z</time></trkpt><trkpt lat="45.91156630029211" lon="12.343382959648993"><ele>59.0</ele><time>2026-04-03T09:09:23Z</time></trkpt><trkpt lat="45.91166473133649" lon="12.34352866076334"><ele>59.25</ele><time>2026-04-03T09:09:24Z</time></trkpt><trkpt lat="45.91176664517563" lon="12.34367664302054"><ele>59.5</ele><time>2026-04-03T09:09:25Z</time></trkpt><trkpt lat="45.9118713661238" lon="12.343827969575013"><ele>59.75</ele><time>2026-04-03T09:09:26Z</time></trkpt><trkpt lat="45.91197714003852" lon="12.343980190897367"><ele>60.0</ele><time>2026-04-03T09:09:27Z</time></trkpt><trkpt lat="45.912083699410466" lon="12.344133529297096"><ele>59.33333333333333</ele><time>2026-04-03T09:09:28Z</time></trkpt><trkpt lat="45.91219042452644" lon="12.344288099856595"><ele>58.666666666666664</ele><time>2026-04-03T09:09:29Z</time></trkpt><trkpt lat="45.91229728689006" lon="12.344441933050922"><ele>58.0</ele><time>2026-04-03T09:09:30Z</time></trkpt><trkpt lat="45.9124048828041" lon="12.344596801863904"><ele>58.0</ele><time>2026-04-03T09:09:31Z</time></trkpt><trkpt lat="45.91251356713446" lon="12.34475147541869"><ele>58.0</ele><time>2026-04-03T09:09:32Z</time></trkpt><trkpt lat="45.91262179631735" lon="12.344907067550796"><ele>58.0</ele><time>2026-04-03T09:09:33Z</time></trkpt><trkpt lat="45.91273018021867" lon="12.345065553159047"><ele>58.33333333333333</ele><time>2026-04-03T09:09:34Z</time></trkpt><trkpt lat="45.9128393361905" lon="12.345221624183138"><ele>58.66666666666667</ele><time>2026-04-03T09:09:35Z</time></trkpt><trkpt lat="45.91294916933846" lon="12.345379469066778"><ele>59.0</ele><time>2026-04-03T09:09:36Z</time></trkpt><trkpt lat="45.91305987203404" lon="12.345538987226776"><ele>58.66666666666667</ele><time>2026-04-03T09:09:37Z</time></trkpt><trkpt lat="45.91317150506828" lon="12.345696820646141"><ele>58.33333333333333</ele><time>2026-04-03T09:09:38Z</time></trkpt><trkpt lat="45.913283968476236" lon="12.345857446335634"><ele>58.0</ele><time>2026-04-03T09:09:39Z</time></trkpt><trkpt lat="45.91339496916307" lon="12.346020692559412"><ele>58.0</ele><time>2026-04-03T09:09:40Z</time></trkpt><trkpt lat="45.91350629304416" lon="12.34618450128721"><ele>58.0</ele><time>2026-04-03T09:09:41Z</time></trkpt><trkpt lat="45.91361864142489" lon="12.346349130673158"><ele>58.0</ele><time>2026-04-03T09:09:42Z</time></trkpt><trkpt lat="45.913731645706726" lon="12.346511415074625"><ele>57.666666666666664</ele><time>2026-04-03T09:09:43Z</time></trkpt><trkpt lat="45.913844474247014" lon="12.346673277669499"><ele>57.33333333333333</ele><time>2026-04-03T09:09:44Z</time></trkpt><trkpt lat="45.91395714350499" lon="12.346836493062753"><ele>57.0</ele><time>2026-04-03T09:09:44.999Z</time></trkpt><trkpt lat="45.91407094528423" lon="12.346998646748073"><ele>57.0</ele><time>2026-04-03T09:09:45.999Z</time></trkpt><trkpt lat="45.91418459650404" lon="12.347158989693611"><ele>57.0</ele><time>2026-04-03T09:09:46.999Z</time></trkpt><trkpt lat="45.914297129650436" lon="12.347322034315992"><ele>57.0</ele><time>2026-04-03T09:09:47.999Z</time></trkpt><trkpt lat="45.91440955110071" lon="12.347484069836609"><ele>57.0</ele><time>2026-04-03T09:09:48.999Z</time></trkpt><trkpt lat="45.914520015820656" lon="12.34765037485545"><ele>57.0</ele><time>2026-04-03T09:09:49.999Z</time></trkpt><trkpt lat="45.9146319307517" lon="12.347816085928393"><ele>57.0</ele><time>2026-04-03T09:09:50.999Z</time></trkpt><trkpt lat="45.91474675431324" lon="12.347978454560254"><ele>56.33333333333333</ele><time>2026-04-03T09:09:51.999Z</time></trkpt><trkpt lat="45.91486142816155" lon="12.3481441410324"><ele>55.666666666666664</ele><time>2026-04-03T09:09:52.999Z</time></trkpt><trkpt lat="45.91497644933975" lon="12.348309317685052"><ele>55.0</ele><time>2026-04-03T09:09:53.999Z</time></trkpt><trkpt lat="45.915093131380125" lon="12.34847565170862"><ele>55.0</ele><time>2026-04-03T09:09:54.999Z</time></trkpt><trkpt lat="45.91521015241273" lon="12.348642854530288"><ele>55.0</ele><time>2026-04-03T09:09:55.999Z</time></trkpt><trkpt lat="45.915326675248686" lon="12.348809163901162"><ele>55.0</ele><time>2026-04-03T09:09:56.999Z</time></trkpt><trkpt lat="45.915446504662306" lon="12.34897635682758"><ele>55.666666666666664</ele><time>2026-04-03T09:09:57.999Z</time></trkpt><trkpt lat="45.915565874034336" lon="12.349144209442741"><ele>56.33333333333333</ele><time>2026-04-03T09:09:58.999Z</time></trkpt><trkpt lat="45.915684601235746" lon="12.349315264472478"><ele>57.0</ele><time>2026-04-03T09:09:59.999Z</time></trkpt><trkpt lat="45.91580178522565" lon="12.349487653403223"><ele>57.66666666666667</ele><time>2026-04-03T09:10:00.999Z</time></trkpt><trkpt lat="45.9159213854319" lon="12.349657968042655"><ele>58.333333333333336</ele><time>2026-04-03T09:10:01.999Z</time></trkpt><trkpt lat="45.916040557494206" lon="12.349830056282494"><ele>59.0</ele><time>2026-04-03T09:10:02.999Z</time></trkpt><trkpt lat="45.91615979112268" lon="12.35000278283441"><ele>57.66666666666667</ele><time>2026-04-03T09:10:03.999Z</time></trkpt><trkpt lat="45.91627940540569" lon="12.350178792294914"><ele>56.33333333333333</ele><time>2026-04-03T09:10:04.999Z</time></trkpt><trkpt lat="45.91639870654859" lon="12.350354413891234"><ele>55.0</ele><time>2026-04-03T09:10:05.999Z</time></trkpt><trkpt lat="45.91651740180655" lon="12.350530722220384"><ele>54.33333333333333</ele><time>2026-04-03T09:10:06.999Z</time></trkpt><trkpt lat="45.91664024287497" lon="12.350696685517011"><ele>53.66666666666667</ele><time>2026-04-03T09:10:07.999Z</time></trkpt><trkpt lat="45.916759664871954" lon="12.350873506813036"><ele>53.0</ele><time>2026-04-03T09:10:08.999Z</time></trkpt><trkpt lat="45.91687077547392" lon="12.351034927575478"><ele>53.0</ele><time>2026-04-03T09:10:09.999Z</time></trkpt><trkpt lat="45.916972676420684" lon="12.351183137722956"><ele>53.0</ele><time>2026-04-03T09:10:10.999Z</time></trkpt><trkpt lat="45.91707757227081" lon="12.351331532343961"><ele>53.0</ele><time>2026-04-03T09:10:11.999Z</time></trkpt><trkpt lat="45.91718111139701" lon="12.351479557342456"><ele>53.0</ele><time>2026-04-03T09:10:12.999Z</time></trkpt><trkpt lat="45.91728477655992" lon="12.351631316464033"><ele>53.66666666666667</ele><time>2026-04-03T09:10:13.999Z</time></trkpt><trkpt lat="45.917391344000755" lon="12.35178422362434"><ele>54.33333333333333</ele><time>2026-04-03T09:10:14.999Z</time></trkpt><trkpt lat="45.91749923051678" lon="12.351937790911231"><ele>55.0</ele><time>2026-04-03T09:10:15.999Z</time></trkpt><trkpt lat="45.917608182539226" lon="12.352092302588881"><ele>55.0</ele><time>2026-04-03T09:10:16.999Z</time></trkpt><trkpt lat="45.91771378064474" lon="12.352247147217744"><ele>55.0</ele><time>2026-04-03T09:10:17.999Z</time></trkpt><trkpt lat="45.91781720042791" lon="12.352397967433259"><ele>55.0</ele><time>2026-04-03T09:10:18.999Z</time></trkpt><trkpt lat="45.91792111212109" lon="12.352552221834706"><ele>55.0</ele><time>2026-04-03T09:10:19.999Z</time></trkpt><trkpt lat="45.91802644275154" lon="12.352703404441899"><ele>55.0</ele><time>2026-04-03T09:10:20.999Z</time></trkpt><trkpt lat="45.91813198530393" lon="12.352858162105234"><ele>55.0</ele><time>2026-04-03T09:10:21.999Z</time></trkpt><trkpt lat="45.918235312710024" lon="12.353007485021614"><ele>55.0</ele><time>2026-04-03T09:10:22.999Z</time></trkpt><trkpt lat="45.91833095880434" lon="12.353148648752118"><ele>55.0</ele><time>2026-04-03T09:10:23.999Z</time></trkpt><trkpt lat="45.918420280767236" lon="12.353280358492771"><ele>55.2</ele><time>2026-04-03T09:10:24.999Z</time></trkpt><trkpt lat="45.91850215916447" lon="12.353402830177526"><ele>55.4</ele><time>2026-04-03T09:10:25.999Z</time></trkpt><trkpt lat="45.91857468588852" lon="12.353505939649988"><ele>55.599999999999994</ele><time>2026-04-03T09:10:26.999Z</time></trkpt><trkpt lat="45.91864011205383" lon="12.353600482604307"><ele>55.8</ele><time>2026-04-03T09:10:27.999Z</time></trkpt><trkpt lat="45.91869196220897" lon="12.353682777296486"><ele>56.0</ele><time>2026-04-03T09:10:28.999Z</time></trkpt><trkpt lat="45.91873890368567" lon="12.353758366638974"><ele>55.8</ele><time>2026-04-03T09:10:29.999Z</time></trkpt><trkpt lat="45.918822569036365" lon="12.35388062715476"><ele>55.599999999999994</ele><time>2026-04-03T09:10:31.999Z</time></trkpt><trkpt lat="45.918915736589234" lon="12.354006056303575"><ele>55.4</ele><time>2026-04-03T09:10:33.999Z</time></trkpt><trkpt lat="45.918970360375326" lon="12.354075450799794"><ele>55.2</ele><time>2026-04-03T09:10:34.999Z</time></trkpt><trkpt lat="45.919030354823434" lon="12.354155101820039"><ele>55.0</ele><time>2026-04-03T09:10:35.999Z</time></trkpt><trkpt lat="45.91909661371742" lon="12.354244459449331"><ele>55.0</ele><time>2026-04-03T09:10:37Z</time></trkpt><trkpt lat="45.91916503495556" lon="12.354340815895986"><ele>55.0</ele><time>2026-04-03T09:10:38Z</time></trkpt><trkpt lat="45.919236750775376" lon="12.354441112247883"><ele>55.0</ele><time>2026-04-03T09:10:39Z</time></trkpt><trkpt lat="45.919313772876535" lon="12.354550154718657"><ele>55.0</ele><time>2026-04-03T09:10:40Z</time></trkpt><trkpt lat="45.91939508442817" lon="12.354666192760947"><ele>55.0</ele><time>2026-04-03T09:10:41Z</time></trkpt><trkpt lat="45.91947761076955" lon="12.354786680738131"><ele>55.75</ele><time>2026-04-03T09:10:42Z</time></trkpt><trkpt lat="45.91956425581893" lon="12.354910488718613"><ele>56.5</ele><time>2026-04-03T09:10:43Z</time></trkpt><trkpt lat="45.91965230873695" lon="12.355040803799357"><ele>57.25</ele><time>2026-04-03T09:10:44Z</time></trkpt><trkpt lat="45.91973971854648" lon="12.355168371043657"><ele>58.0</ele><time>2026-04-03T09:10:45Z</time></trkpt><trkpt lat="45.91982434089534" lon="12.355290670618052"><ele>58.0</ele><time>2026-04-03T09:10:46Z</time></trkpt><trkpt lat="45.919911070414486" lon="12.355409951450564"><ele>58.0</ele><time>2026-04-03T09:10:47Z</time></trkpt><trkpt lat="45.9199952158069" lon="12.355524830129132"><ele>58.0</ele><time>2026-04-03T09:10:48Z</time></trkpt><trkpt lat="45.92007781657097" lon="12.355642139162281"><ele>58.0</ele><time>2026-04-03T09:10:49Z</time></trkpt><trkpt lat="45.92015845500134" lon="12.355759206585345"><ele>57.75</ele><time>2026-04-03T09:10:50Z</time></trkpt><trkpt lat="45.92024072587207" lon="12.355872595085827"><ele>57.5</ele><time>2026-04-03T09:10:51Z</time></trkpt><trkpt lat="45.920309305555826" lon="12.356002000427235"><ele>57.25</ele><time>2026-04-03T09:10:52Z</time></trkpt><trkpt lat="45.920389838012326" lon="12.35611779067942"><ele>57.0</ele><time>2026-04-03T09:10:53Z</time></trkpt><trkpt lat="45.92048033911725" lon="12.356222843784446"><ele>57.0</ele><time>2026-04-03T09:10:54Z</time></trkpt><trkpt lat="45.92055876219341" lon="12.356347750827503"><ele>57.0</ele><time>2026-04-03T09:10:55Z</time></trkpt><trkpt lat="45.92064433253059" lon="12.35647425435656"><ele>57.0</ele><time>2026-04-03T09:10:56Z</time></trkpt><trkpt lat="45.92072155691024" lon="12.356595009290894"><ele>57.0</ele><time>2026-04-03T09:10:57Z</time></trkpt><trkpt lat="45.92080958032722" lon="12.356713697038108"><ele>57.5</ele><time>2026-04-03T09:10:58Z</time></trkpt><trkpt lat="45.92089211253819" lon="12.3568388627937"><ele>58.0</ele><time>2026-04-03T09:10:59Z</time></trkpt><trkpt lat="45.920971475529974" lon="12.356965447655178"><ele>58.5</ele><time>2026-04-03T09:11:00Z</time></trkpt><trkpt lat="45.921050142961704" lon="12.357095316567346"><ele>59.0</ele><time>2026-04-03T09:11:01Z</time></trkpt><trkpt lat="45.921100962692336" lon="12.357234032512384"><ele>59.333333333333336</ele><time>2026-04-03T09:11:02Z</time></trkpt><trkpt lat="45.92114536138221" lon="12.357346771819484"><ele>59.66666666666667</ele><time>2026-04-03T09:11:03Z</time></trkpt><trkpt lat="45.92117974828925" lon="12.357443179219796"><ele>60.0</ele><time>2026-04-03T09:11:04Z</time></trkpt><trkpt lat="45.92122466942019" lon="12.35758985175268"><ele>60.33333333333333</ele><time>2026-04-03T09:11:06Z</time></trkpt><trkpt lat="45.92125103222591" lon="12.357689640218739"><ele>60.666666666666664</ele><time>2026-04-03T09:11:08Z</time></trkpt><trkpt lat="45.92127939547416" lon="12.357799049993506"><ele>61.0</ele><time>2026-04-03T09:11:12Z</time></trkpt><trkpt lat="45.92130182919814" lon="12.3578878742737"><ele>61.0</ele><time>2026-04-03T09:11:14Z</time></trkpt><trkpt lat="45.92133308837389" lon="12.358014178985135"><ele>60.99999999999999</ele><time>2026-04-03T09:11:16Z</time></trkpt><trkpt lat="45.9213748363789" lon="12.35818757228521"><ele>60.99999999999999</ele><time>2026-04-03T09:11:18Z</time></trkpt><trkpt lat="45.92141635324592" lon="12.358287217445385"><ele>61.0</ele><time>2026-04-03T09:11:19Z</time></trkpt><trkpt lat="45.92144255761409" lon="12.358397422515688"><ele>61.0</ele><time>2026-04-03T09:11:20Z</time></trkpt><trkpt lat="45.921468784193536" lon="12.358506198893572"><ele>60.666666666666664</ele><time>2026-04-03T09:11:21Z</time></trkpt><trkpt lat="45.921494575111176" lon="12.35861254105346"><ele>60.33333333333333</ele><time>2026-04-03T09:11:22Z</time></trkpt><trkpt lat="45.92150394760588" lon="12.358723813905407"><ele>60.0</ele><time>2026-04-03T09:11:23Z</time></trkpt><trkpt lat="45.92152900270987" lon="12.358827876079799"><ele>59.66666666666667</ele><time>2026-04-03T09:11:24Z</time></trkpt><trkpt lat="45.92155489015159" lon="12.358935395161962"><ele>59.333333333333336</ele><time>2026-04-03T09:11:25Z</time></trkpt><trkpt lat="45.92158273847927" lon="12.359051058484553"><ele>59.0</ele><time>2026-04-03T09:11:26Z</time></trkpt><trkpt lat="45.9216136448923" lon="12.359178237831093"><ele>58.800000000000004</ele><time>2026-04-03T09:11:27Z</time></trkpt><trkpt lat="45.92164688992832" lon="12.359314737526022"><ele>58.60000000000001</ele><time>2026-04-03T09:11:28Z</time></trkpt><trkpt lat="45.92168183150979" lon="12.359458201973025"><ele>58.4</ele><time>2026-04-03T09:11:29Z</time></trkpt><trkpt lat="45.921717354538025" lon="12.359607274801474"><ele>58.2</ele><time>2026-04-03T09:11:30Z</time></trkpt><trkpt lat="45.92175472070466" lon="12.359762553792624"><ele>58.0</ele><time>2026-04-03T09:11:31Z</time></trkpt><trkpt lat="45.921793007334465" lon="12.359921630124829"><ele>58.5</ele><time>2026-04-03T09:11:32Z</time></trkpt><trkpt lat="45.92183190496135" lon="12.360083245077599"><ele>59.0</ele><time>2026-04-03T09:11:33Z</time></trkpt><trkpt lat="45.92187147007483" lon="12.36024763334798"><ele>59.5</ele><time>2026-04-03T09:11:34Z</time></trkpt><trkpt lat="45.92191199944056" lon="12.360416027982136"><ele>60.0</ele><time>2026-04-03T09:11:35Z</time></trkpt><trkpt lat="45.92195354352342" lon="12.360588638625957"><ele>60.0</ele><time>2026-04-03T09:11:36Z</time></trkpt><trkpt lat="45.92199647634265" lon="12.360767019318882"><ele>60.0</ele><time>2026-04-03T09:11:37Z</time></trkpt><trkpt lat="45.9220413284268" lon="12.360953374301618"><ele>60.0</ele><time>2026-04-03T09:11:38Z</time></trkpt><trkpt lat="45.922087613921306" lon="12.361145611221435"><ele>60.0</ele><time>2026-04-03T09:11:39Z</time></trkpt><trkpt lat="45.92213563942519" lon="12.361340286957413"><ele>59.25</ele><time>2026-04-03T09:11:40Z</time></trkpt><trkpt lat="45.92218334338969" lon="12.361533659308568"><ele>58.5</ele><time>2026-04-03T09:11:41Z</time></trkpt><trkpt lat="45.92223121029253" lon="12.3617276921304"><ele>57.75</ele><time>2026-04-03T09:11:42Z</time></trkpt><trkpt lat="45.92227942304457" lon="12.36192312662974"><ele>57.0</ele><time>2026-04-03T09:11:43Z</time></trkpt><trkpt lat="45.92232815223801" lon="12.362119921212576"><ele>57.0</ele><time>2026-04-03T09:11:44Z</time></trkpt><trkpt lat="45.922375272227775" lon="12.36231290157911"><ele>57.0</ele><time>2026-04-03T09:11:45Z</time></trkpt><trkpt lat="45.92242206616398" lon="12.362506463188641"><ele>57.0</ele><time>2026-04-03T09:11:46Z</time></trkpt><trkpt lat="45.92246785760532" lon="12.362695878103557"><ele>57.0</ele><time>2026-04-03T09:11:47Z</time></trkpt><trkpt lat="45.92254746691418" lon="12.362867867434833"><ele>57.5</ele><time>2026-04-03T09:11:48Z</time></trkpt><trkpt lat="45.92259336964985" lon="12.363054261137831"><ele>58.0</ele><time>2026-04-03T09:11:48.999Z</time></trkpt><trkpt lat="45.922639417913885" lon="12.363239260139908"><ele>58.5</ele><time>2026-04-03T09:11:49.999Z</time></trkpt><trkpt lat="45.92268442874074" lon="12.363423316170154"><ele>59.0</ele><time>2026-04-03T09:11:50.999Z</time></trkpt><trkpt lat="45.92269109266767" lon="12.363624497292905"><ele>59.0</ele><time>2026-04-03T09:11:51.999Z</time></trkpt><trkpt lat="45.92273536587211" lon="12.363805406823644"><ele>59.0</ele><time>2026-04-03T09:11:52.999Z</time></trkpt><trkpt lat="45.92277850407191" lon="12.363985455080476"><ele>59.0</ele><time>2026-04-03T09:11:53.999Z</time></trkpt><trkpt lat="45.92282230309066" lon="12.364167236581608"><ele>59.0</ele><time>2026-04-03T09:11:54.999Z</time></trkpt><trkpt lat="45.9228665816315" lon="12.364351008256266"><ele>59.0</ele><time>2026-04-03T09:11:55.999Z</time></trkpt><trkpt lat="45.9229111095526" lon="12.364535822197558"><ele>59.0</ele><time>2026-04-03T09:11:56.999Z</time></trkpt><trkpt lat="45.92295630070681" lon="12.364719657673037"><ele>59.0</ele><time>2026-04-03T09:11:57.999Z</time></trkpt><trkpt lat="45.92299861849026" lon="12.36489486001086"><ele>59.0</ele><time>2026-04-03T09:11:58.999Z</time></trkpt><trkpt lat="45.9230377450976" lon="12.365056492049359"><ele>58.800000000000004</ele><time>2026-04-03T09:11:59.999Z</time></trkpt><trkpt lat="45.92307336255397" lon="12.365203627983764"><ele>58.60000000000001</ele><time>2026-04-03T09:12:00.999Z</time></trkpt><trkpt lat="45.92310553636008" lon="12.365336538059156"><ele>58.4</ele><time>2026-04-03T09:12:01.999Z</time></trkpt><trkpt lat="45.92313570244463" lon="12.36546115417314"><ele>58.2</ele><time>2026-04-03T09:12:02.999Z</time></trkpt><trkpt lat="45.92316431716846" lon="12.36557936214515"><ele>58.0</ele><time>2026-04-03T09:12:03.999Z</time></trkpt><trkpt lat="45.92319261191124" lon="12.365696248808568"><ele>57.8</ele><time>2026-04-03T09:12:04.999Z</time></trkpt><trkpt lat="45.92324855596252" lon="12.365798438764225"><ele>57.599999999999994</ele><time>2026-04-03T09:12:05.999Z</time></trkpt><trkpt lat="45.92327530045586" lon="12.36591964008727"><ele>57.400000000000006</ele><time>2026-04-03T09:12:06.999Z</time></trkpt><trkpt lat="45.923305993023284" lon="12.366042980721591"><ele>57.2</ele><time>2026-04-03T09:12:07.999Z</time></trkpt><trkpt lat="45.92334615505725" lon="12.366171308023793"><ele>57.0</ele><time>2026-04-03T09:12:08.999Z</time></trkpt><trkpt lat="45.92338258864531" lon="12.366308716109584"><ele>57.0</ele><time>2026-04-03T09:12:09.999Z</time></trkpt><trkpt lat="45.92338206055581" lon="12.366475547329635"><ele>57.0</ele><time>2026-04-03T09:12:10.999Z</time></trkpt><trkpt lat="45.92341978420611" lon="12.36663143621385"><ele>57.0</ele><time>2026-04-03T09:12:11.999Z</time></trkpt><trkpt lat="45.92345851987978" lon="12.366793210438667"><ele>57.0</ele><time>2026-04-03T09:12:12.999Z</time></trkpt><trkpt lat="45.923498761398925" lon="12.366961273627684"><ele>57.0</ele><time>2026-04-03T09:12:13.999Z</time></trkpt><trkpt lat="45.92354063084316" lon="12.367136135641985"><ele>57.0</ele><time>2026-04-03T09:12:14.999Z</time></trkpt><trkpt lat="45.923584134180274" lon="12.367317821344338"><ele>57.0</ele><time>2026-04-03T09:12:15.999Z</time></trkpt><trkpt lat="45.92362956878387" lon="12.367507572734496"><ele>57.0</ele><time>2026-04-03T09:12:16.999Z</time></trkpt><trkpt lat="45.92367636642125" lon="12.367703016658279"><ele>56.66666666666667</ele><time>2026-04-03T09:12:17.999Z</time></trkpt><trkpt lat="45.92372515487938" lon="12.367904583242831"><ele>56.333333333333336</ele><time>2026-04-03T09:12:18.999Z</time></trkpt><trkpt lat="45.923775147704575" lon="12.368110274971974"><ele>56.0</ele><time>2026-04-03T09:12:19.999Z</time></trkpt><trkpt lat="45.92382547445971" lon="12.368317340634505"><ele>56.0</ele><time>2026-04-03T09:12:20.999Z</time></trkpt><trkpt lat="45.92387593107818" lon="12.368524939561432"><ele>56.0</ele><time>2026-04-03T09:12:21.999Z</time></trkpt><trkpt lat="45.92392634505654" lon="12.368731782411322"><ele>56.0</ele><time>2026-04-03T09:12:22.999Z</time></trkpt><trkpt lat="45.923976661724964" lon="12.368939261530379"><ele>56.0</ele><time>2026-04-03T09:12:23.999Z</time></trkpt><trkpt lat="45.92402676985459" lon="12.369146280590272"><ele>56.0</ele><time>2026-04-03T09:12:24.999Z</time></trkpt><trkpt lat="45.92407708722709" lon="12.369354953387894"><ele>56.0</ele><time>2026-04-03T09:12:25.999Z</time></trkpt><trkpt lat="45.92412697832206" lon="12.369562936556012"><ele>56.0</ele><time>2026-04-03T09:12:26.999Z</time></trkpt><trkpt lat="45.92420781730844" lon="12.369753891970923"><ele>56.0</ele><time>2026-04-03T09:12:27.999Z</time></trkpt><trkpt lat="45.92425591261872" lon="12.369957156724935"><ele>56.0</ele><time>2026-04-03T09:12:28.999Z</time></trkpt><trkpt lat="45.92430394679786" lon="12.370157930538902"><ele>56.0</ele><time>2026-04-03T09:12:29.999Z</time></trkpt><trkpt lat="45.92435100130111" lon="12.370356455626547"><ele>56.0</ele><time>2026-04-03T09:12:30.999Z</time></trkpt><trkpt lat="45.92439734959886" lon="12.370554290463035"><ele>56.0</ele><time>2026-04-03T09:12:31.999Z</time></trkpt><trkpt lat="45.92444483752882" lon="12.370752051163299"><ele>56.0</ele><time>2026-04-03T09:12:32.999Z</time></trkpt><trkpt lat="45.924493199427936" lon="12.370949717590578"><ele>56.0</ele><time>2026-04-03T09:12:33.999Z</time></trkpt><trkpt lat="45.92450964174552" lon="12.37116304296844"><ele>56.0</ele><time>2026-04-03T09:12:34.999Z</time></trkpt><trkpt lat="45.92455655902131" lon="12.371362985791047"><ele>56.0</ele><time>2026-04-03T09:12:35.999Z</time></trkpt><trkpt lat="45.92460386082985" lon="12.371565122369999"><ele>56.0</ele><time>2026-04-03T09:12:36.999Z</time></trkpt><trkpt lat="45.92468173424711" lon="12.371753302539757"><ele>56.0</ele><time>2026-04-03T09:12:37.999Z</time></trkpt><trkpt lat="45.92472684698216" lon="12.371956954352722"><ele>56.0</ele><time>2026-04-03T09:12:38.999Z</time></trkpt><trkpt lat="45.924769441085985" lon="12.372159687720751"><ele>56.0</ele><time>2026-04-03T09:12:39.999Z</time></trkpt><trkpt lat="45.92481312078174" lon="12.37236001994261"><ele>56.0</ele><time>2026-04-03T09:12:40.999Z</time></trkpt><trkpt lat="45.924857205525804" lon="12.372557631716843"><ele>56.0</ele><time>2026-04-03T09:12:41.999Z</time></trkpt><trkpt lat="45.92490076353206" lon="12.372754129631838"><ele>56.0</ele><time>2026-04-03T09:12:43Z</time></trkpt><trkpt lat="45.92494474415391" lon="12.372947632791467"><ele>56.0</ele><time>2026-04-03T09:12:44Z</time></trkpt><trkpt lat="45.92499147517989" lon="12.373138111890036"><ele>56.0</ele><time>2026-04-03T09:12:45Z</time></trkpt><trkpt lat="45.925038380799876" lon="12.373325117137066"><ele>56.75</ele><time>2026-04-03T09:12:46Z</time></trkpt><trkpt lat="45.92508145361737" lon="12.373511810531452"><ele>57.5</ele><time>2026-04-03T09:12:47Z</time></trkpt><trkpt lat="45.925121770096155" lon="12.373697203835604"><ele>58.25</ele><time>2026-04-03T09:12:48Z</time></trkpt><trkpt lat="45.9251565676947" lon="12.37387155966813"><ele>59.0</ele><time>2026-04-03T09:12:49Z</time></trkpt><trkpt lat="45.92518563826686" lon="12.374025779201004"><ele>59.00000000000001</ele><time>2026-04-03T09:12:50Z</time></trkpt><trkpt lat="45.925212556340334" lon="12.374163823448294"><ele>59.0</ele><time>2026-04-03T09:12:51Z</time></trkpt><trkpt lat="45.92523845268788" lon="12.374279858174427"><ele>59.0</ele><time>2026-04-03T09:12:52Z</time></trkpt><trkpt lat="45.92525874038679" lon="12.374368989667047"><ele>59.0</ele><time>2026-04-03T09:12:53Z</time></trkpt><trkpt lat="45.925282536664035" lon="12.374474080625012"><ele>59.00000000000001</ele><time>2026-04-03T09:12:55Z</time></trkpt><trkpt lat="45.92530590845063" lon="12.374587260534692"><ele>59.0</ele><time>2026-04-03T09:13:00Z</time></trkpt><trkpt lat="45.92531919482071" lon="12.374676984739917"><ele>58.833333333333336</ele><time>2026-04-03T09:13:02Z</time></trkpt><trkpt lat="45.92532252010532" lon="12.374799372488672"><ele>58.66666666666667</ele><time>2026-04-03T09:13:04Z</time></trkpt><trkpt lat="45.925303552339145" lon="12.37497559283278"><ele>58.5</ele><time>2026-04-03T09:13:06Z</time></trkpt><trkpt lat="45.92527476641045" lon="12.37506062824977"><ele>58.33333333333333</ele><time>2026-04-03T09:13:07Z</time></trkpt><trkpt lat="45.92530547163962" lon="12.375172429633727"><ele>58.166666666666664</ele><time>2026-04-03T09:13:08Z</time></trkpt><trkpt lat="45.92533530398335" lon="12.375270587906176"><ele>58.0</ele><time>2026-04-03T09:13:09Z</time></trkpt><trkpt lat="45.92538553889118" lon="12.375356917315273"><ele>57.99999999999999</ele><time>2026-04-03T09:13:10Z</time></trkpt><trkpt lat="45.925451320005344" lon="12.375428285311175"><ele>58.0</ele><time>2026-04-03T09:13:11Z</time></trkpt><trkpt lat="45.92552454593066" lon="12.375490695562847"><ele>58.0</ele><time>2026-04-03T09:13:12Z</time></trkpt><trkpt lat="45.925589263728824" lon="12.37557708219482"><ele>58.0</ele><time>2026-04-03T09:13:13Z</time></trkpt><trkpt lat="45.92563820976141" lon="12.375690960693772"><ele>57.99999999999999</ele><time>2026-04-03T09:13:14Z</time></trkpt><trkpt lat="45.92567065877469" lon="12.37581850171459"><ele>58.0</ele><time>2026-04-03T09:13:15Z</time></trkpt><trkpt lat="45.92570229826601" lon="12.375951593549058"><ele>57.8</ele><time>2026-04-03T09:13:16Z</time></trkpt><trkpt lat="45.92573459145959" lon="12.376090182332218"><ele>57.599999999999994</ele><time>2026-04-03T09:13:17Z</time></trkpt><trkpt lat="45.925767367994524" lon="12.376233255356338"><ele>57.400000000000006</ele><time>2026-04-03T09:13:18Z</time></trkpt><trkpt lat="45.925800770010575" lon="12.376382340744037"><ele>57.2</ele><time>2026-04-03T09:13:19Z</time></trkpt><trkpt lat="45.925835386070204" lon="12.376535641451579"><ele>57.0</ele><time>2026-04-03T09:13:20Z</time></trkpt><trkpt lat="45.9258709744152" lon="12.376694483876916"><ele>57.0</ele><time>2026-04-03T09:13:21Z</time></trkpt><trkpt lat="45.92590971142456" lon="12.376859352999244"><ele>57.0</ele><time>2026-04-03T09:13:22Z</time></trkpt><trkpt lat="45.925949561308855" lon="12.377029085129635"><ele>57.0</ele><time>2026-04-03T09:13:23Z</time></trkpt><trkpt lat="45.925991453583975" lon="12.377205191189752"><ele>57.0</ele><time>2026-04-03T09:13:24Z</time></trkpt><trkpt lat="45.92603460085909" lon="12.3773839559636"><ele>57.25</ele><time>2026-04-03T09:13:25Z</time></trkpt><trkpt lat="45.92607910855007" lon="12.377566066928956"><ele>57.5</ele><time>2026-04-03T09:13:26Z</time></trkpt><trkpt lat="45.92612434288602" lon="12.377752093701277"><ele>57.75</ele><time>2026-04-03T09:13:27Z</time></trkpt><trkpt lat="45.926151575803075" lon="12.377949923340964"><ele>58.0</ele><time>2026-04-03T09:13:28Z</time></trkpt><trkpt lat="45.92619700682533" lon="12.37814463676139"><ele>58.0</ele><time>2026-04-03T09:13:29Z</time></trkpt><trkpt lat="45.92624270932826" lon="12.378342854159271"><ele>58.0</ele><time>2026-04-03T09:13:30Z</time></trkpt><trkpt lat="45.9262885627598" lon="12.378541726191937"><ele>58.0</ele><time>2026-04-03T09:13:31Z</time></trkpt><trkpt lat="45.92633150606163" lon="12.3787394644639"><ele>58.0</ele><time>2026-04-03T09:13:32Z</time></trkpt><trkpt lat="45.92637377477297" lon="12.378938267635121"><ele>57.75</ele><time>2026-04-03T09:13:33Z</time></trkpt><trkpt lat="45.92641657494639" lon="12.379139569754118"><ele>57.5</ele><time>2026-04-03T09:13:34Z</time></trkpt><trkpt lat="45.92645980315798" lon="12.37934192078728"><ele>57.25</ele><time>2026-04-03T09:13:35Z</time></trkpt><trkpt lat="45.92650275484474" lon="12.379545771576986"><ele>57.0</ele><time>2026-04-03T09:13:36Z</time></trkpt><trkpt lat="45.92654599659319" lon="12.379749557004324"><ele>57.0</ele><time>2026-04-03T09:13:37Z</time></trkpt><trkpt lat="45.92658962313798" lon="12.379955286488325"><ele>57.0</ele><time>2026-04-03T09:13:38Z</time></trkpt><trkpt lat="45.92663361780121" lon="12.380162751893037"><ele>57.0</ele><time>2026-04-03T09:13:39Z</time></trkpt><trkpt lat="45.926677699666364" lon="12.380370628530036"><ele>57.33333333333333</ele><time>2026-04-03T09:13:40Z</time></trkpt><trkpt lat="45.92672179733244" lon="12.380578579679929"><ele>57.666666666666664</ele><time>2026-04-03T09:13:41Z</time></trkpt><trkpt lat="45.92676586373285" lon="12.380786483610075"><ele>58.0</ele><time>2026-04-03T09:13:42Z</time></trkpt><trkpt lat="45.92680954062954" lon="12.380992554213057"><ele>58.0</ele><time>2026-04-03T09:13:43Z</time></trkpt><trkpt lat="45.926852979599744" lon="12.381197036325029"><ele>58.0</ele><time>2026-04-03T09:13:44Z</time></trkpt><trkpt lat="45.926896036541166" lon="12.381402218321478"><ele>58.0</ele><time>2026-04-03T09:13:45Z</time></trkpt><trkpt lat="45.92693798774378" lon="12.381602124547689"><ele>58.0</ele><time>2026-04-03T09:13:46Z</time></trkpt><trkpt lat="45.92697900998168" lon="12.38179730262039"><ele>58.0</ele><time>2026-04-03T09:13:47Z</time></trkpt><trkpt lat="45.927019773041174" lon="12.381991320716676"><ele>58.0</ele><time>2026-04-03T09:13:48Z</time></trkpt><trkpt lat="45.927060009203835" lon="12.382182830898838"><ele>58.0</ele><time>2026-04-03T09:13:49Z</time></trkpt><trkpt lat="45.92709818762339" lon="12.382364546920813"><ele>58.0</ele><time>2026-04-03T09:13:50Z</time></trkpt><trkpt lat="45.92713302233346" lon="12.382530346925781"><ele>57.99999999999999</ele><time>2026-04-03T09:13:51Z</time></trkpt><trkpt lat="45.9271636357189" lon="12.382677487063837"><ele>58.0</ele><time>2026-04-03T09:13:52Z</time></trkpt><trkpt lat="45.927190526756476" lon="12.38280514121756"><ele>58.0</ele><time>2026-04-03T09:13:53Z</time></trkpt><trkpt lat="45.927213754442825" lon="12.382915405214316"><ele>58.0</ele><time>2026-04-03T09:13:54Z</time></trkpt><trkpt lat="45.92723392292799" lon="12.383011146845787"><ele>57.99999999999999</ele><time>2026-04-03T09:13:55Z</time></trkpt><trkpt lat="45.92726223485077" lon="12.38314554608587"><ele>58.0</ele><time>2026-04-03T09:13:57Z</time></trkpt><trkpt lat="45.92728390744577" lon="12.383248427917804"><ele>57.75</ele><time>2026-04-03T09:14:00Z</time></trkpt><trkpt lat="45.92730469861275" lon="12.383346398487184"><ele>57.5</ele><time>2026-04-03T09:14:04Z</time></trkpt><trkpt lat="45.927463911984184" lon="12.383365111090729"><ele>57.25</ele><time>2026-04-03T09:14:07Z</time></trkpt><trkpt lat="45.92753946197034" lon="12.383490239403589"><ele>57.0</ele><time>2026-04-03T09:14:08.999Z</time></trkpt><trkpt lat="45.927575232145806" lon="12.383649191222078"><ele>57.0</ele><time>2026-04-03T09:14:10.999Z</time></trkpt><trkpt lat="45.92758166445791" lon="12.38374287154308"><ele>57.0</ele><time>2026-04-03T09:14:11.999Z</time></trkpt><trkpt lat="45.92763949481243" lon="12.38388441052129"><ele>57.0</ele><time>2026-04-03T09:14:13.999Z</time></trkpt><trkpt lat="45.92775988552232" lon="12.383952269784144"><ele>57.0</ele><time>2026-04-03T09:14:15.999Z</time></trkpt><trkpt lat="45.92783297175526" lon="12.38393945817013"><ele>57.0</ele><time>2026-04-03T09:14:16.999Z</time></trkpt><trkpt lat="45.927910563220415" lon="12.383921083100155"><ele>57.0</ele><time>2026-04-03T09:14:17.999Z</time></trkpt><trkpt lat="45.927992655391186" lon="12.383912272764396"><ele>57.0</ele><time>2026-04-03T09:14:18.999Z</time></trkpt><trkpt lat="45.92808096073969" lon="12.383904553401042"><ele>57.0</ele><time>2026-04-03T09:14:19.999Z</time></trkpt><trkpt lat="45.928177959560806" lon="12.38389600673759"><ele>57.0</ele><time>2026-04-03T09:14:20.999Z</time></trkpt><trkpt lat="45.92828171322925" lon="12.383885615315668"><ele>57.0</ele><time>2026-04-03T09:14:21.999Z</time></trkpt><trkpt lat="45.92839082157657" lon="12.383877053890156"><ele>57.25</ele><time>2026-04-03T09:14:22.999Z</time></trkpt><trkpt lat="45.92850572237494" lon="12.383865633378825"><ele>57.5</ele><time>2026-04-03T09:14:23.999Z</time></trkpt><trkpt lat="45.92862451571294" lon="12.383854899171018"><ele>57.75</ele><time>2026-04-03T09:14:24.999Z</time></trkpt><trkpt lat="45.92874714983566" lon="12.383841905769682"><ele>58.0</ele><time>2026-04-03T09:14:25.999Z</time></trkpt><trkpt lat="45.92887289409305" lon="12.383830200238757"><ele>58.0</ele><time>2026-04-03T09:14:26.999Z</time></trkpt><trkpt lat="45.92900173433118" lon="12.383819571236359"><ele>58.0</ele><time>2026-04-03T09:14:27.999Z</time></trkpt><trkpt lat="45.929129476885464" lon="12.383810923298398"><ele>58.0</ele><time>2026-04-03T09:14:28.999Z</time></trkpt><trkpt lat="45.92925833946377" lon="12.383802056954929"><ele>58.0</ele><time>2026-04-03T09:14:29.999Z</time></trkpt><trkpt lat="45.929385097434405" lon="12.383791680289262"><ele>58.25</ele><time>2026-04-03T09:14:30.999Z</time></trkpt><trkpt lat="45.929513572091004" lon="12.38378107155235"><ele>58.5</ele><time>2026-04-03T09:14:31.999Z</time></trkpt><trkpt lat="45.92964268138173" lon="12.383770679172972"><ele>58.75</ele><time>2026-04-03T09:14:32.999Z</time></trkpt><trkpt lat="45.92977329425625" lon="12.383762444403448"><ele>59.0</ele><time>2026-04-03T09:14:33.999Z</time></trkpt><trkpt lat="45.92990610537121" lon="12.38375284770939"><ele>59.0</ele><time>2026-04-03T09:14:34.999Z</time></trkpt><trkpt lat="45.930038335245065" lon="12.383741243484122"><ele>59.0</ele><time>2026-04-03T09:14:35.999Z</time></trkpt><trkpt lat="45.93016433732594" lon="12.38372842153714"><ele>59.0</ele><time>2026-04-03T09:14:36.999Z</time></trkpt><trkpt lat="45.93027613950518" lon="12.383716923027404"><ele>59.0</ele><time>2026-04-03T09:14:37.999Z</time></trkpt><trkpt lat="45.93037230774082" lon="12.383705831210989"><ele>59.400000000000006</ele><time>2026-04-03T09:14:38.999Z</time></trkpt><trkpt lat="45.93045153026826" lon="12.383697761856709"><ele>59.800000000000004</ele><time>2026-04-03T09:14:39.999Z</time></trkpt><trkpt lat="45.93055460465243" lon="12.383747646429525"><ele>60.199999999999996</ele><time>2026-04-03T09:14:41.999Z</time></trkpt><trkpt lat="45.93055078963322" lon="12.383865437587142"><ele>60.599999999999994</ele><time>2026-04-03T09:14:43.999Z</time></trkpt><trkpt lat="45.93048290348063" lon="12.384029955210368"><ele>61.0</ele><time>2026-04-03T09:14:45.999Z</time></trkpt><trkpt lat="45.930452315044064" lon="12.384126600115575"><ele>61.0</ele><time>2026-04-03T09:14:46.999Z</time></trkpt><trkpt lat="45.93041881905345" lon="12.384234594177316"><ele>60.99999999999999</ele><time>2026-04-03T09:14:47.999Z</time></trkpt><trkpt lat="45.93038155517723" lon="12.384357682576095"><ele>60.99999999999999</ele><time>2026-04-03T09:14:49Z</time></trkpt><trkpt lat="45.9303423881956" lon="12.384489080199227"><ele>61.0</ele><time>2026-04-03T09:14:50Z</time></trkpt><trkpt lat="45.9303004808442" lon="12.38462967126858"><ele>61.0</ele><time>2026-04-03T09:14:51Z</time></trkpt><trkpt lat="45.93025631290356" lon="12.384777846113233"><ele>61.0</ele><time>2026-04-03T09:14:52Z</time></trkpt><trkpt lat="45.93020919788273" lon="12.38493590796154"><ele>61.0</ele><time>2026-04-03T09:14:53Z</time></trkpt><trkpt lat="45.930161258793326" lon="12.38509894322248"><ele>61.0</ele><time>2026-04-03T09:14:54Z</time></trkpt><trkpt lat="45.93011145939286" lon="12.385268579747777"><ele>61.0</ele><time>2026-04-03T09:14:55Z</time></trkpt><trkpt lat="45.93006224816923" lon="12.385433681523795"><ele>60.0</ele><time>2026-04-03T09:14:56Z</time></trkpt><trkpt lat="45.93001065641705" lon="12.385604028200818"><ele>59.0</ele><time>2026-04-03T09:14:57Z</time></trkpt><trkpt lat="45.929958152474036" lon="12.385772863183076"><ele>58.0</ele><time>2026-04-03T09:14:58Z</time></trkpt><trkpt lat="45.92990973583557" lon="12.385926567936835"><ele>57.0</ele><time>2026-04-03T09:14:59Z</time></trkpt><trkpt lat="45.92986925174347" lon="12.386054267420569"><ele>57.0</ele><time>2026-04-03T09:15:00Z</time></trkpt><trkpt lat="45.92983642649781" lon="12.38615780853409"><ele>57.0</ele><time>2026-04-03T09:15:01Z</time></trkpt><trkpt lat="45.92980881996221" lon="12.386244888073236"><ele>57.0</ele><time>2026-04-03T09:15:02Z</time></trkpt><trkpt lat="45.929771381063084" lon="12.386366195728623"><ele>57.0</ele><time>2026-04-03T09:15:04Z</time></trkpt><trkpt lat="45.92973237358831" lon="12.386494856749646"><ele>57.0</ele><time>2026-04-03T09:15:06Z</time></trkpt><trkpt lat="45.929683233316204" lon="12.3866623793173"><ele>56.400000000000006</ele><time>2026-04-03T09:15:08Z</time></trkpt><trkpt lat="45.92965839221956" lon="12.386749824590883"><ele>55.800000000000004</ele><time>2026-04-03T09:15:09Z</time></trkpt><trkpt lat="45.929647474548936" lon="12.386849627166818"><ele>55.2</ele><time>2026-04-03T09:15:11Z</time></trkpt><trkpt lat="45.929848304090754" lon="12.386969558552533"><ele>54.6</ele><time>2026-04-03T09:15:12Z</time></trkpt><trkpt lat="45.92991402360015" lon="12.38700259178646"><ele>54.0</ele><time>2026-04-03T09:15:13Z</time></trkpt><trkpt lat="45.92998028193015" lon="12.387050651747382"><ele>54.400000000000006</ele><time>2026-04-03T09:15:14Z</time></trkpt><trkpt lat="45.930063266246755" lon="12.38709069646114"><ele>54.800000000000004</ele><time>2026-04-03T09:15:15Z</time></trkpt><trkpt lat="45.930148554326614" lon="12.38713980218495"><ele>55.199999999999996</ele><time>2026-04-03T09:15:16Z</time></trkpt><trkpt lat="45.930236940111726" lon="12.387188840144212"><ele>55.599999999999994</ele><time>2026-04-03T09:15:17Z</time></trkpt><trkpt lat="45.93033418995824" lon="12.387241301808888"><ele>56.0</ele><time>2026-04-03T09:15:18Z</time></trkpt><trkpt lat="45.930434982692105" lon="12.387301238689586"><ele>56.0</ele><time>2026-04-03T09:15:19Z</time></trkpt><trkpt lat="45.930541387307386" lon="12.387365821572546"><ele>56.0</ele><time>2026-04-03T09:15:20Z</time></trkpt><trkpt lat="45.93064988531425" lon="12.387434504661543"><ele>56.0</ele><time>2026-04-03T09:15:21Z</time></trkpt><trkpt lat="45.93076385687725" lon="12.387499877023101"><ele>56.0</ele><time>2026-04-03T09:15:22Z</time></trkpt><trkpt lat="45.93088026312941" lon="12.387566618097138"><ele>56.5</ele><time>2026-04-03T09:15:23Z</time></trkpt><trkpt lat="45.93099286487512" lon="12.38763189501483"><ele>57.0</ele><time>2026-04-03T09:15:24Z</time></trkpt><trkpt lat="45.93110276262118" lon="12.387696853911306"><ele>57.5</ele><time>2026-04-03T09:15:25Z</time></trkpt><trkpt lat="45.93120532232676" lon="12.38776672566631"><ele>58.0</ele><time>2026-04-03T09:15:26Z</time></trkpt><trkpt lat="45.931303285427155" lon="12.387844489498573"><ele>58.0</ele><time>2026-04-03T09:15:27Z</time></trkpt><trkpt lat="45.93139638754508" lon="12.387923827873676"><ele>58.0</ele><time>2026-04-03T09:15:28Z</time></trkpt><trkpt lat="45.93148059200148" lon="12.387993989701705"><ele>58.0</ele><time>2026-04-03T09:15:29Z</time></trkpt><trkpt lat="45.93156139011448" lon="12.38802905637744"><ele>56.0</ele><time>2026-04-03T09:15:30Z</time></trkpt><trkpt lat="45.93161166573929" lon="12.388092967858487"><ele>56.0</ele><time>2026-04-03T09:15:31Z</time></trkpt><trkpt lat="45.931684062006596" lon="12.388144829623036"><ele>56.0</ele><time>2026-04-03T09:15:33Z</time></trkpt></trkseg></trk></gpx>